<?xml version="1.0" encoding="UTF-8" standalone="no" ?>
<gpx xmlns="http://www.topografix.com/GPX/1/1" xmlns:xsi="http://www.w3.org/2001/XMLSchema-instance" xsi:schemaLocation="http://www.topografix.com/GPX/1/1 http://www.topografix.com/GPX/1/1/gpx.xsd" version="1.1" creator="VisuGPX - https://www.visugpx.com">
  <metadata>
    <name>lacapelle paulhiac</name>
    <desc><![CDATA[wwwwwwwwwwwwwwwwwwwwwwwwwwwwwwwwwwwwwwwwwwwwwwwwwwwwwwwwwwwwwwwwwww
]]></desc>
  </metadata>
  <trk>
    <name><![CDATA[Trail]]></name>
    <trkseg>
      <trkpt lat="44.60031" lon="0.89505">
        <ele>165</ele>
        <time>2018-03-03T15:34:00.511Z</time>
      </trkpt>
      <trkpt lat="44.60031" lon="0.89505">
        <ele>165</ele>
        <time>2018-03-03T15:34:01.511Z</time>
      </trkpt>
      <trkpt lat="44.60031" lon="0.89505">
        <ele>165</ele>
        <time>2018-03-03T15:34:02.511Z</time>
      </trkpt>
      <trkpt lat="44.60031" lon="0.89505">
        <ele>165</ele>
        <time>2018-03-03T15:34:03.511Z</time>
      </trkpt>
      <trkpt lat="44.60031" lon="0.89505">
        <ele>165</ele>
        <time>2018-03-03T15:34:04.511Z</time>
      </trkpt>
      <trkpt lat="44.60031" lon="0.89505">
        <ele>165</ele>
        <time>2018-03-03T15:34:05.511Z</time>
      </trkpt>
      <trkpt lat="44.60031" lon="0.89505">
        <ele>165</ele>
        <time>2018-03-03T15:34:06.511Z</time>
      </trkpt>
      <trkpt lat="44.60031" lon="0.89505">
        <ele>165</ele>
        <time>2018-03-03T15:34:07.511Z</time>
      </trkpt>
      <trkpt lat="44.60031" lon="0.89505">
        <ele>165</ele>
        <time>2018-03-03T15:34:08.511Z</time>
      </trkpt>
      <trkpt lat="44.60031" lon="0.89505">
        <ele>165</ele>
        <time>2018-03-03T15:34:09.511Z</time>
      </trkpt>
      <trkpt lat="44.60031" lon="0.89505">
        <ele>165</ele>
        <time>2018-03-03T15:34:10.511Z</time>
      </trkpt>
      <trkpt lat="44.60031" lon="0.89505">
        <ele>165</ele>
        <time>2018-03-03T15:34:11.511Z</time>
      </trkpt>
      <trkpt lat="44.60031" lon="0.89505">
        <ele>165</ele>
        <time>2018-03-03T15:34:12.511Z</time>
      </trkpt>
      <trkpt lat="44.60031" lon="0.89505">
        <ele>165</ele>
        <time>2018-03-03T15:34:13.511Z</time>
      </trkpt>
      <trkpt lat="44.60031" lon="0.89505">
        <ele>165</ele>
        <time>2018-03-03T15:34:14.511Z</time>
      </trkpt>
      <trkpt lat="44.60031" lon="0.89505">
        <ele>165</ele>
        <time>2018-03-03T15:34:15.511Z</time>
      </trkpt>
      <trkpt lat="44.60031" lon="0.89505">
        <ele>165</ele>
        <time>2018-03-03T15:34:16.511Z</time>
      </trkpt>
      <trkpt lat="44.60031" lon="0.89505">
        <ele>165</ele>
        <time>2018-03-03T15:34:17.511Z</time>
      </trkpt>
      <trkpt lat="44.60031" lon="0.89505">
        <ele>165</ele>
        <time>2018-03-03T15:34:18.511Z</time>
      </trkpt>
      <trkpt lat="44.60031" lon="0.89505">
        <ele>165</ele>
        <time>2018-03-03T15:34:19.511Z</time>
      </trkpt>
      <trkpt lat="44.60031" lon="0.89505">
        <ele>165</ele>
        <time>2018-03-03T15:34:20.511Z</time>
      </trkpt>
      <trkpt lat="44.60031" lon="0.89505">
        <ele>165</ele>
        <time>2018-03-03T15:34:21.511Z</time>
      </trkpt>
      <trkpt lat="44.60031" lon="0.89505">
        <ele>165</ele>
        <time>2018-03-03T15:34:22.511Z</time>
      </trkpt>
      <trkpt lat="44.60031" lon="0.89505">
        <ele>165</ele>
        <time>2018-03-03T15:34:23.511Z</time>
      </trkpt>
      <trkpt lat="44.60031" lon="0.89505">
        <ele>165</ele>
        <time>2018-03-03T15:34:24.511Z</time>
      </trkpt>
      <trkpt lat="44.60031" lon="0.89505">
        <ele>165</ele>
        <time>2018-03-03T15:34:25.511Z</time>
      </trkpt>
      <trkpt lat="44.60031" lon="0.89505">
        <ele>165</ele>
        <time>2018-03-03T15:34:26.511Z</time>
      </trkpt>
      <trkpt lat="44.60031" lon="0.89505">
        <ele>165</ele>
        <time>2018-03-03T15:34:27.511Z</time>
      </trkpt>
      <trkpt lat="44.60031" lon="0.89505">
        <ele>165</ele>
        <time>2018-03-03T15:34:28.511Z</time>
      </trkpt>
      <trkpt lat="44.60031" lon="0.89505">
        <ele>165</ele>
        <time>2018-03-03T15:34:29.511Z</time>
      </trkpt>
      <trkpt lat="44.60031" lon="0.89505">
        <ele>165</ele>
        <time>2018-03-03T15:34:30.511Z</time>
      </trkpt>
      <trkpt lat="44.60031" lon="0.89505">
        <ele>165</ele>
        <time>2018-03-03T15:34:31.511Z</time>
      </trkpt>
      <trkpt lat="44.60031" lon="0.89505">
        <ele>165</ele>
        <time>2018-03-03T15:34:32.511Z</time>
      </trkpt>
      <trkpt lat="44.60031" lon="0.89505">
        <ele>165</ele>
        <time>2018-03-03T15:34:33.511Z</time>
      </trkpt>
      <trkpt lat="44.60031" lon="0.89505">
        <ele>165</ele>
        <time>2018-03-03T15:34:34.511Z</time>
      </trkpt>
      <trkpt lat="44.60031" lon="0.89505">
        <ele>165</ele>
        <time>2018-03-03T15:34:35.511Z</time>
      </trkpt>
      <trkpt lat="44.60031" lon="0.89505">
        <ele>165</ele>
        <time>2018-03-03T15:34:36.511Z</time>
      </trkpt>
      <trkpt lat="44.60031" lon="0.89505">
        <ele>165</ele>
        <time>2018-03-03T15:34:37.511Z</time>
      </trkpt>
      <trkpt lat="44.60031" lon="0.89505">
        <ele>165</ele>
        <time>2018-03-03T15:34:38.511Z</time>
      </trkpt>
      <trkpt lat="44.60031" lon="0.89505">
        <ele>165</ele>
        <time>2018-03-03T15:34:39.511Z</time>
      </trkpt>
      <trkpt lat="44.60031" lon="0.89504">
        <ele>165</ele>
        <time>2018-03-03T15:34:40.511Z</time>
      </trkpt>
      <trkpt lat="44.60033" lon="0.89503">
        <ele>165</ele>
        <time>2018-03-03T15:34:41.511Z</time>
      </trkpt>
      <trkpt lat="44.60034" lon="0.89502">
        <ele>165</ele>
        <time>2018-03-03T15:34:42.511Z</time>
      </trkpt>
      <trkpt lat="44.60036" lon="0.89501">
        <ele>165</ele>
        <time>2018-03-03T15:34:43.511Z</time>
      </trkpt>
      <trkpt lat="44.60037" lon="0.89501">
        <ele>164</ele>
        <time>2018-03-03T15:34:44.511Z</time>
      </trkpt>
      <trkpt lat="44.60038" lon="0.89501">
        <ele>164</ele>
        <time>2018-03-03T15:34:45.511Z</time>
      </trkpt>
      <trkpt lat="44.60039" lon="0.89501">
        <ele>164</ele>
        <time>2018-03-03T15:34:46.511Z</time>
      </trkpt>
      <trkpt lat="44.6004" lon="0.89501">
        <ele>165</ele>
        <time>2018-03-03T15:34:47.511Z</time>
      </trkpt>
      <trkpt lat="44.60041" lon="0.89501">
        <ele>165</ele>
        <time>2018-03-03T15:34:48.511Z</time>
      </trkpt>
      <trkpt lat="44.60042" lon="0.89501">
        <ele>165</ele>
        <time>2018-03-03T15:34:49.511Z</time>
      </trkpt>
      <trkpt lat="44.60044" lon="0.89501">
        <ele>165</ele>
        <time>2018-03-03T15:34:50.511Z</time>
      </trkpt>
      <trkpt lat="44.60046" lon="0.895">
        <ele>165</ele>
        <time>2018-03-03T15:34:51.511Z</time>
      </trkpt>
      <trkpt lat="44.60048" lon="0.895">
        <ele>165</ele>
        <time>2018-03-03T15:34:52.511Z</time>
      </trkpt>
      <trkpt lat="44.6005" lon="0.89499">
        <ele>165</ele>
        <time>2018-03-03T15:34:53.511Z</time>
      </trkpt>
      <trkpt lat="44.60053" lon="0.89497">
        <ele>165</ele>
        <time>2018-03-03T15:34:54.511Z</time>
      </trkpt>
      <trkpt lat="44.60055" lon="0.89495">
        <ele>165</ele>
        <time>2018-03-03T15:34:55.511Z</time>
      </trkpt>
      <trkpt lat="44.60056" lon="0.89492">
        <ele>165</ele>
        <time>2018-03-03T15:34:56.511Z</time>
      </trkpt>
      <trkpt lat="44.60055" lon="0.89489">
        <ele>166</ele>
        <time>2018-03-03T15:34:57.511Z</time>
      </trkpt>
      <trkpt lat="44.60054" lon="0.89487">
        <ele>166</ele>
        <time>2018-03-03T15:34:58.511Z</time>
      </trkpt>
      <trkpt lat="44.60053" lon="0.89486">
        <ele>166</ele>
        <time>2018-03-03T15:34:59.511Z</time>
      </trkpt>
      <trkpt lat="44.60052" lon="0.89485">
        <ele>166</ele>
        <time>2018-03-03T15:35:00.511Z</time>
      </trkpt>
      <trkpt lat="44.6005" lon="0.89484">
        <ele>166</ele>
        <time>2018-03-03T15:35:01.511Z</time>
      </trkpt>
      <trkpt lat="44.60048" lon="0.89482">
        <ele>166</ele>
        <time>2018-03-03T15:35:02.511Z</time>
      </trkpt>
      <trkpt lat="44.60045" lon="0.8948">
        <ele>166</ele>
        <time>2018-03-03T15:35:03.511Z</time>
      </trkpt>
      <trkpt lat="44.60043" lon="0.89478">
        <ele>166</ele>
        <time>2018-03-03T15:35:04.511Z</time>
      </trkpt>
      <trkpt lat="44.6004" lon="0.89476">
        <ele>167</ele>
        <time>2018-03-03T15:35:05.511Z</time>
      </trkpt>
      <trkpt lat="44.60037" lon="0.89475">
        <ele>167</ele>
        <time>2018-03-03T15:35:06.511Z</time>
      </trkpt>
      <trkpt lat="44.60035" lon="0.89474">
        <ele>167</ele>
        <time>2018-03-03T15:35:07.511Z</time>
      </trkpt>
      <trkpt lat="44.60033" lon="0.89473">
        <ele>167</ele>
        <time>2018-03-03T15:35:08.511Z</time>
      </trkpt>
      <trkpt lat="44.6003" lon="0.89472">
        <ele>167</ele>
        <time>2018-03-03T15:35:09.511Z</time>
      </trkpt>
      <trkpt lat="44.60028" lon="0.89472">
        <ele>167</ele>
        <time>2018-03-03T15:35:10.511Z</time>
      </trkpt>
      <trkpt lat="44.60026" lon="0.89472">
        <ele>167</ele>
        <time>2018-03-03T15:35:11.511Z</time>
      </trkpt>
      <trkpt lat="44.60025" lon="0.89472">
        <ele>167</ele>
        <time>2018-03-03T15:35:12.511Z</time>
      </trkpt>
      <trkpt lat="44.60023" lon="0.89472">
        <ele>167</ele>
        <time>2018-03-03T15:35:13.511Z</time>
      </trkpt>
      <trkpt lat="44.60021" lon="0.89472">
        <ele>167</ele>
        <time>2018-03-03T15:35:14.511Z</time>
      </trkpt>
      <trkpt lat="44.60019" lon="0.89471">
        <ele>167</ele>
        <time>2018-03-03T15:35:15.511Z</time>
      </trkpt>
      <trkpt lat="44.60017" lon="0.89471">
        <ele>167</ele>
        <time>2018-03-03T15:35:16.511Z</time>
      </trkpt>
      <trkpt lat="44.60015" lon="0.8947">
        <ele>168</ele>
        <time>2018-03-03T15:35:17.511Z</time>
      </trkpt>
      <trkpt lat="44.60013" lon="0.8947">
        <ele>168</ele>
        <time>2018-03-03T15:35:18.511Z</time>
      </trkpt>
      <trkpt lat="44.60011" lon="0.8947">
        <ele>168</ele>
        <time>2018-03-03T15:35:19.511Z</time>
      </trkpt>
      <trkpt lat="44.60009" lon="0.8947">
        <ele>168</ele>
        <time>2018-03-03T15:35:20.511Z</time>
      </trkpt>
      <trkpt lat="44.60007" lon="0.89469">
        <ele>168</ele>
        <time>2018-03-03T15:35:21.511Z</time>
      </trkpt>
      <trkpt lat="44.60005" lon="0.89469">
        <ele>168</ele>
        <time>2018-03-03T15:35:22.511Z</time>
      </trkpt>
      <trkpt lat="44.60003" lon="0.89469">
        <ele>168</ele>
        <time>2018-03-03T15:35:23.511Z</time>
      </trkpt>
      <trkpt lat="44.60001" lon="0.89469">
        <ele>168</ele>
        <time>2018-03-03T15:35:24.511Z</time>
      </trkpt>
      <trkpt lat="44.6" lon="0.89468">
        <ele>169</ele>
        <time>2018-03-03T15:35:25.511Z</time>
      </trkpt>
      <trkpt lat="44.59998" lon="0.89468">
        <ele>169</ele>
        <time>2018-03-03T15:35:26.511Z</time>
      </trkpt>
      <trkpt lat="44.59996" lon="0.89467">
        <ele>169</ele>
        <time>2018-03-03T15:35:27.511Z</time>
      </trkpt>
      <trkpt lat="44.59995" lon="0.89467">
        <ele>169</ele>
        <time>2018-03-03T15:35:28.511Z</time>
      </trkpt>
      <trkpt lat="44.59993" lon="0.89466">
        <ele>169</ele>
        <time>2018-03-03T15:35:29.511Z</time>
      </trkpt>
      <trkpt lat="44.59992" lon="0.89466">
        <ele>169</ele>
        <time>2018-03-03T15:35:30.511Z</time>
      </trkpt>
      <trkpt lat="44.5999" lon="0.89465">
        <ele>169</ele>
        <time>2018-03-03T15:35:31.511Z</time>
      </trkpt>
      <trkpt lat="44.59988" lon="0.89465">
        <ele>169</ele>
        <time>2018-03-03T15:35:32.511Z</time>
      </trkpt>
      <trkpt lat="44.59987" lon="0.89464">
        <ele>169</ele>
        <time>2018-03-03T15:35:33.511Z</time>
      </trkpt>
      <trkpt lat="44.59985" lon="0.89464">
        <ele>169</ele>
        <time>2018-03-03T15:35:34.511Z</time>
      </trkpt>
      <trkpt lat="44.59983" lon="0.89463">
        <ele>169</ele>
        <time>2018-03-03T15:35:35.511Z</time>
      </trkpt>
      <trkpt lat="44.59982" lon="0.89462">
        <ele>169</ele>
        <time>2018-03-03T15:35:36.511Z</time>
      </trkpt>
      <trkpt lat="44.5998" lon="0.89462">
        <ele>169</ele>
        <time>2018-03-03T15:35:37.511Z</time>
      </trkpt>
      <trkpt lat="44.59978" lon="0.89461">
        <ele>170</ele>
        <time>2018-03-03T15:35:38.511Z</time>
      </trkpt>
      <trkpt lat="44.59976" lon="0.8946">
        <ele>170</ele>
        <time>2018-03-03T15:35:39.511Z</time>
      </trkpt>
      <trkpt lat="44.59975" lon="0.89459">
        <ele>170</ele>
        <time>2018-03-03T15:35:40.511Z</time>
      </trkpt>
      <trkpt lat="44.59973" lon="0.89458">
        <ele>170</ele>
        <time>2018-03-03T15:35:41.511Z</time>
      </trkpt>
      <trkpt lat="44.59971" lon="0.89456">
        <ele>170</ele>
        <time>2018-03-03T15:35:42.511Z</time>
      </trkpt>
      <trkpt lat="44.5997" lon="0.89454">
        <ele>170</ele>
        <time>2018-03-03T15:35:43.511Z</time>
      </trkpt>
      <trkpt lat="44.59968" lon="0.89453">
        <ele>170</ele>
        <time>2018-03-03T15:35:44.511Z</time>
      </trkpt>
      <trkpt lat="44.59967" lon="0.89451">
        <ele>170</ele>
        <time>2018-03-03T15:35:45.511Z</time>
      </trkpt>
      <trkpt lat="44.59966" lon="0.89449">
        <ele>170</ele>
        <time>2018-03-03T15:35:46.511Z</time>
      </trkpt>
      <trkpt lat="44.59964" lon="0.89448">
        <ele>170</ele>
        <time>2018-03-03T15:35:47.511Z</time>
      </trkpt>
      <trkpt lat="44.59962" lon="0.89446">
        <ele>170</ele>
        <time>2018-03-03T15:35:48.511Z</time>
      </trkpt>
      <trkpt lat="44.59961" lon="0.89445">
        <ele>170</ele>
        <time>2018-03-03T15:35:49.511Z</time>
      </trkpt>
      <trkpt lat="44.59959" lon="0.89443">
        <ele>170</ele>
        <time>2018-03-03T15:35:50.511Z</time>
      </trkpt>
      <trkpt lat="44.59958" lon="0.89441">
        <ele>170</ele>
        <time>2018-03-03T15:35:51.511Z</time>
      </trkpt>
      <trkpt lat="44.59956" lon="0.8944">
        <ele>170</ele>
        <time>2018-03-03T15:35:52.511Z</time>
      </trkpt>
      <trkpt lat="44.59955" lon="0.89438">
        <ele>170</ele>
        <time>2018-03-03T15:35:53.511Z</time>
      </trkpt>
      <trkpt lat="44.59953" lon="0.89437">
        <ele>170</ele>
        <time>2018-03-03T15:35:54.511Z</time>
      </trkpt>
      <trkpt lat="44.59952" lon="0.89435">
        <ele>171</ele>
        <time>2018-03-03T15:35:55.511Z</time>
      </trkpt>
      <trkpt lat="44.5995" lon="0.89434">
        <ele>171</ele>
        <time>2018-03-03T15:35:56.511Z</time>
      </trkpt>
      <trkpt lat="44.59948" lon="0.89432">
        <ele>171</ele>
        <time>2018-03-03T15:35:57.511Z</time>
      </trkpt>
      <trkpt lat="44.59947" lon="0.8943">
        <ele>171</ele>
        <time>2018-03-03T15:35:58.511Z</time>
      </trkpt>
      <trkpt lat="44.59945" lon="0.89429">
        <ele>171</ele>
        <time>2018-03-03T15:35:59.511Z</time>
      </trkpt>
      <trkpt lat="44.59944" lon="0.89427">
        <ele>171</ele>
        <time>2018-03-03T15:36:00.511Z</time>
      </trkpt>
      <trkpt lat="44.59942" lon="0.89425">
        <ele>171</ele>
        <time>2018-03-03T15:36:01.511Z</time>
      </trkpt>
      <trkpt lat="44.5994" lon="0.89423">
        <ele>171</ele>
        <time>2018-03-03T15:36:02.511Z</time>
      </trkpt>
      <trkpt lat="44.59939" lon="0.89421">
        <ele>171</ele>
        <time>2018-03-03T15:36:03.511Z</time>
      </trkpt>
      <trkpt lat="44.59937" lon="0.89419">
        <ele>171</ele>
        <time>2018-03-03T15:36:04.511Z</time>
      </trkpt>
      <trkpt lat="44.59935" lon="0.89416">
        <ele>171</ele>
        <time>2018-03-03T15:36:05.511Z</time>
      </trkpt>
      <trkpt lat="44.59933" lon="0.89414">
        <ele>171</ele>
        <time>2018-03-03T15:36:06.511Z</time>
      </trkpt>
      <trkpt lat="44.59931" lon="0.89411">
        <ele>171</ele>
        <time>2018-03-03T15:36:07.511Z</time>
      </trkpt>
      <trkpt lat="44.59929" lon="0.89408">
        <ele>171</ele>
        <time>2018-03-03T15:36:08.511Z</time>
      </trkpt>
      <trkpt lat="44.59927" lon="0.89405">
        <ele>171</ele>
        <time>2018-03-03T15:36:09.511Z</time>
      </trkpt>
      <trkpt lat="44.59924" lon="0.89402">
        <ele>170</ele>
        <time>2018-03-03T15:36:10.511Z</time>
      </trkpt>
      <trkpt lat="44.59922" lon="0.89399">
        <ele>170</ele>
        <time>2018-03-03T15:36:11.511Z</time>
      </trkpt>
      <trkpt lat="44.59919" lon="0.89395">
        <ele>170</ele>
        <time>2018-03-03T15:36:12.511Z</time>
      </trkpt>
      <trkpt lat="44.59916" lon="0.89392">
        <ele>170</ele>
        <time>2018-03-03T15:36:13.511Z</time>
      </trkpt>
      <trkpt lat="44.59914" lon="0.89389">
        <ele>170</ele>
        <time>2018-03-03T15:36:14.511Z</time>
      </trkpt>
      <trkpt lat="44.5991" lon="0.89385">
        <ele>170</ele>
        <time>2018-03-03T15:36:15.511Z</time>
      </trkpt>
      <trkpt lat="44.59907" lon="0.89381">
        <ele>169</ele>
        <time>2018-03-03T15:36:16.511Z</time>
      </trkpt>
      <trkpt lat="44.59904" lon="0.89378">
        <ele>169</ele>
        <time>2018-03-03T15:36:17.511Z</time>
      </trkpt>
      <trkpt lat="44.599" lon="0.89374">
        <ele>169</ele>
        <time>2018-03-03T15:36:18.511Z</time>
      </trkpt>
      <trkpt lat="44.59897" lon="0.8937">
        <ele>169</ele>
        <time>2018-03-03T15:36:19.511Z</time>
      </trkpt>
      <trkpt lat="44.59893" lon="0.89365">
        <ele>168</ele>
        <time>2018-03-03T15:36:20.511Z</time>
      </trkpt>
      <trkpt lat="44.59889" lon="0.89361">
        <ele>168</ele>
        <time>2018-03-03T15:36:21.511Z</time>
      </trkpt>
      <trkpt lat="44.59884" lon="0.89357">
        <ele>168</ele>
        <time>2018-03-03T15:36:22.511Z</time>
      </trkpt>
      <trkpt lat="44.5988" lon="0.89352">
        <ele>168</ele>
        <time>2018-03-03T15:36:23.511Z</time>
      </trkpt>
      <trkpt lat="44.59875" lon="0.89347">
        <ele>167</ele>
        <time>2018-03-03T15:36:24.511Z</time>
      </trkpt>
      <trkpt lat="44.59871" lon="0.89342">
        <ele>167</ele>
        <time>2018-03-03T15:36:25.511Z</time>
      </trkpt>
      <trkpt lat="44.59866" lon="0.89337">
        <ele>167</ele>
        <time>2018-03-03T15:36:26.511Z</time>
      </trkpt>
      <trkpt lat="44.59861" lon="0.89332">
        <ele>167</ele>
        <time>2018-03-03T15:36:27.511Z</time>
      </trkpt>
      <trkpt lat="44.59856" lon="0.89327">
        <ele>166</ele>
        <time>2018-03-03T15:36:28.511Z</time>
      </trkpt>
      <trkpt lat="44.59851" lon="0.89321">
        <ele>166</ele>
        <time>2018-03-03T15:36:29.511Z</time>
      </trkpt>
      <trkpt lat="44.59846" lon="0.89316">
        <ele>166</ele>
        <time>2018-03-03T15:36:30.511Z</time>
      </trkpt>
      <trkpt lat="44.59842" lon="0.8931">
        <ele>166</ele>
        <time>2018-03-03T15:36:31.511Z</time>
      </trkpt>
      <trkpt lat="44.59837" lon="0.89305">
        <ele>165</ele>
        <time>2018-03-03T15:36:32.511Z</time>
      </trkpt>
      <trkpt lat="44.59833" lon="0.893">
        <ele>165</ele>
        <time>2018-03-03T15:36:33.511Z</time>
      </trkpt>
      <trkpt lat="44.59828" lon="0.89295">
        <ele>165</ele>
        <time>2018-03-03T15:36:34.511Z</time>
      </trkpt>
      <trkpt lat="44.59824" lon="0.89289">
        <ele>165</ele>
        <time>2018-03-03T15:36:35.511Z</time>
      </trkpt>
      <trkpt lat="44.5982" lon="0.89284">
        <ele>165</ele>
        <time>2018-03-03T15:36:36.511Z</time>
      </trkpt>
      <trkpt lat="44.59816" lon="0.89279">
        <ele>165</ele>
        <time>2018-03-03T15:36:37.511Z</time>
      </trkpt>
      <trkpt lat="44.59812" lon="0.89274">
        <ele>165</ele>
        <time>2018-03-03T15:36:38.511Z</time>
      </trkpt>
      <trkpt lat="44.59808" lon="0.89269">
        <ele>165</ele>
        <time>2018-03-03T15:36:39.511Z</time>
      </trkpt>
      <trkpt lat="44.59803" lon="0.89264">
        <ele>164</ele>
        <time>2018-03-03T15:36:40.511Z</time>
      </trkpt>
      <trkpt lat="44.59799" lon="0.8926">
        <ele>164</ele>
        <time>2018-03-03T15:36:41.511Z</time>
      </trkpt>
      <trkpt lat="44.59795" lon="0.89255">
        <ele>164</ele>
        <time>2018-03-03T15:36:42.511Z</time>
      </trkpt>
      <trkpt lat="44.59791" lon="0.89251">
        <ele>164</ele>
        <time>2018-03-03T15:36:43.511Z</time>
      </trkpt>
      <trkpt lat="44.59788" lon="0.89246">
        <ele>164</ele>
        <time>2018-03-03T15:36:44.511Z</time>
      </trkpt>
      <trkpt lat="44.59784" lon="0.89242">
        <ele>164</ele>
        <time>2018-03-03T15:36:45.511Z</time>
      </trkpt>
      <trkpt lat="44.5978" lon="0.89237">
        <ele>164</ele>
        <time>2018-03-03T15:36:46.511Z</time>
      </trkpt>
      <trkpt lat="44.59777" lon="0.89232">
        <ele>164</ele>
        <time>2018-03-03T15:36:47.511Z</time>
      </trkpt>
      <trkpt lat="44.59774" lon="0.89226">
        <ele>164</ele>
        <time>2018-03-03T15:36:48.511Z</time>
      </trkpt>
      <trkpt lat="44.59771" lon="0.89221">
        <ele>164</ele>
        <time>2018-03-03T15:36:49.511Z</time>
      </trkpt>
      <trkpt lat="44.59768" lon="0.89216">
        <ele>164</ele>
        <time>2018-03-03T15:36:50.511Z</time>
      </trkpt>
      <trkpt lat="44.59764" lon="0.8921">
        <ele>164</ele>
        <time>2018-03-03T15:36:51.511Z</time>
      </trkpt>
      <trkpt lat="44.59761" lon="0.89205">
        <ele>164</ele>
        <time>2018-03-03T15:36:52.511Z</time>
      </trkpt>
      <trkpt lat="44.59757" lon="0.892">
        <ele>164</ele>
        <time>2018-03-03T15:36:53.511Z</time>
      </trkpt>
      <trkpt lat="44.59754" lon="0.89195">
        <ele>164</ele>
        <time>2018-03-03T15:36:54.511Z</time>
      </trkpt>
      <trkpt lat="44.5975" lon="0.89191">
        <ele>164</ele>
        <time>2018-03-03T15:36:55.511Z</time>
      </trkpt>
      <trkpt lat="44.59746" lon="0.89187">
        <ele>164</ele>
        <time>2018-03-03T15:36:56.511Z</time>
      </trkpt>
      <trkpt lat="44.59742" lon="0.89183">
        <ele>164</ele>
        <time>2018-03-03T15:36:57.511Z</time>
      </trkpt>
      <trkpt lat="44.59738" lon="0.8918">
        <ele>164</ele>
        <time>2018-03-03T15:36:58.511Z</time>
      </trkpt>
      <trkpt lat="44.59734" lon="0.89177">
        <ele>164</ele>
        <time>2018-03-03T15:36:59.511Z</time>
      </trkpt>
      <trkpt lat="44.5973" lon="0.89173">
        <ele>164</ele>
        <time>2018-03-03T15:37:00.511Z</time>
      </trkpt>
      <trkpt lat="44.59726" lon="0.8917">
        <ele>164</ele>
        <time>2018-03-03T15:37:01.511Z</time>
      </trkpt>
      <trkpt lat="44.59722" lon="0.89167">
        <ele>164</ele>
        <time>2018-03-03T15:37:02.511Z</time>
      </trkpt>
      <trkpt lat="44.59718" lon="0.89163">
        <ele>164</ele>
        <time>2018-03-03T15:37:03.511Z</time>
      </trkpt>
      <trkpt lat="44.59714" lon="0.8916">
        <ele>164</ele>
        <time>2018-03-03T15:37:04.511Z</time>
      </trkpt>
      <trkpt lat="44.5971" lon="0.89156">
        <ele>164</ele>
        <time>2018-03-03T15:37:05.511Z</time>
      </trkpt>
      <trkpt lat="44.59706" lon="0.89153">
        <ele>165</ele>
        <time>2018-03-03T15:37:06.511Z</time>
      </trkpt>
      <trkpt lat="44.59703" lon="0.8915">
        <ele>165</ele>
        <time>2018-03-03T15:37:07.511Z</time>
      </trkpt>
      <trkpt lat="44.59699" lon="0.89148">
        <ele>165</ele>
        <time>2018-03-03T15:37:08.511Z</time>
      </trkpt>
      <trkpt lat="44.59696" lon="0.89145">
        <ele>165</ele>
        <time>2018-03-03T15:37:09.511Z</time>
      </trkpt>
      <trkpt lat="44.59693" lon="0.89142">
        <ele>166</ele>
        <time>2018-03-03T15:37:10.511Z</time>
      </trkpt>
      <trkpt lat="44.5969" lon="0.8914">
        <ele>166</ele>
        <time>2018-03-03T15:37:11.511Z</time>
      </trkpt>
      <trkpt lat="44.59688" lon="0.89138">
        <ele>166</ele>
        <time>2018-03-03T15:37:12.511Z</time>
      </trkpt>
      <trkpt lat="44.59686" lon="0.89136">
        <ele>167</ele>
        <time>2018-03-03T15:37:13.511Z</time>
      </trkpt>
      <trkpt lat="44.59683" lon="0.89133">
        <ele>167</ele>
        <time>2018-03-03T15:37:14.511Z</time>
      </trkpt>
      <trkpt lat="44.59681" lon="0.89131">
        <ele>167</ele>
        <time>2018-03-03T15:37:15.511Z</time>
      </trkpt>
      <trkpt lat="44.59679" lon="0.89129">
        <ele>168</ele>
        <time>2018-03-03T15:37:16.511Z</time>
      </trkpt>
      <trkpt lat="44.59677" lon="0.89127">
        <ele>168</ele>
        <time>2018-03-03T15:37:17.511Z</time>
      </trkpt>
      <trkpt lat="44.59675" lon="0.89125">
        <ele>168</ele>
        <time>2018-03-03T15:37:18.511Z</time>
      </trkpt>
      <trkpt lat="44.59673" lon="0.89124">
        <ele>168</ele>
        <time>2018-03-03T15:37:19.511Z</time>
      </trkpt>
      <trkpt lat="44.59671" lon="0.89122">
        <ele>169</ele>
        <time>2018-03-03T15:37:20.511Z</time>
      </trkpt>
      <trkpt lat="44.59669" lon="0.8912">
        <ele>169</ele>
        <time>2018-03-03T15:37:21.511Z</time>
      </trkpt>
      <trkpt lat="44.59666" lon="0.89118">
        <ele>169</ele>
        <time>2018-03-03T15:37:22.511Z</time>
      </trkpt>
      <trkpt lat="44.59664" lon="0.89116">
        <ele>169</ele>
        <time>2018-03-03T15:37:23.511Z</time>
      </trkpt>
      <trkpt lat="44.59662" lon="0.89114">
        <ele>170</ele>
        <time>2018-03-03T15:37:24.511Z</time>
      </trkpt>
      <trkpt lat="44.5966" lon="0.89112">
        <ele>170</ele>
        <time>2018-03-03T15:37:25.511Z</time>
      </trkpt>
      <trkpt lat="44.59657" lon="0.89111">
        <ele>170</ele>
        <time>2018-03-03T15:37:26.511Z</time>
      </trkpt>
      <trkpt lat="44.59655" lon="0.89109">
        <ele>171</ele>
        <time>2018-03-03T15:37:27.511Z</time>
      </trkpt>
      <trkpt lat="44.59653" lon="0.89107">
        <ele>171</ele>
        <time>2018-03-03T15:37:28.511Z</time>
      </trkpt>
      <trkpt lat="44.59651" lon="0.89105">
        <ele>171</ele>
        <time>2018-03-03T15:37:29.511Z</time>
      </trkpt>
      <trkpt lat="44.59649" lon="0.89103">
        <ele>172</ele>
        <time>2018-03-03T15:37:30.511Z</time>
      </trkpt>
      <trkpt lat="44.59648" lon="0.891">
        <ele>172</ele>
        <time>2018-03-03T15:37:31.511Z</time>
      </trkpt>
      <trkpt lat="44.59646" lon="0.89098">
        <ele>172</ele>
        <time>2018-03-03T15:37:32.511Z</time>
      </trkpt>
      <trkpt lat="44.59644" lon="0.89095">
        <ele>173</ele>
        <time>2018-03-03T15:37:33.511Z</time>
      </trkpt>
      <trkpt lat="44.59642" lon="0.89093">
        <ele>173</ele>
        <time>2018-03-03T15:37:34.511Z</time>
      </trkpt>
      <trkpt lat="44.59641" lon="0.8909">
        <ele>173</ele>
        <time>2018-03-03T15:37:35.511Z</time>
      </trkpt>
      <trkpt lat="44.59639" lon="0.89086">
        <ele>174</ele>
        <time>2018-03-03T15:37:36.511Z</time>
      </trkpt>
      <trkpt lat="44.59638" lon="0.89083">
        <ele>174</ele>
        <time>2018-03-03T15:37:37.511Z</time>
      </trkpt>
      <trkpt lat="44.59636" lon="0.8908">
        <ele>174</ele>
        <time>2018-03-03T15:37:38.511Z</time>
      </trkpt>
      <trkpt lat="44.59635" lon="0.89078">
        <ele>175</ele>
        <time>2018-03-03T15:37:39.511Z</time>
      </trkpt>
      <trkpt lat="44.59634" lon="0.89075">
        <ele>175</ele>
        <time>2018-03-03T15:37:40.511Z</time>
      </trkpt>
      <trkpt lat="44.59633" lon="0.89072">
        <ele>176</ele>
        <time>2018-03-03T15:37:41.511Z</time>
      </trkpt>
      <trkpt lat="44.59632" lon="0.89068">
        <ele>176</ele>
        <time>2018-03-03T15:37:42.511Z</time>
      </trkpt>
      <trkpt lat="44.59631" lon="0.89064">
        <ele>176</ele>
        <time>2018-03-03T15:37:43.511Z</time>
      </trkpt>
      <trkpt lat="44.59629" lon="0.8906">
        <ele>176</ele>
        <time>2018-03-03T15:37:44.511Z</time>
      </trkpt>
      <trkpt lat="44.59627" lon="0.89055">
        <ele>176</ele>
        <time>2018-03-03T15:37:45.511Z</time>
      </trkpt>
      <trkpt lat="44.59625" lon="0.8905">
        <ele>176</ele>
        <time>2018-03-03T15:37:46.511Z</time>
      </trkpt>
      <trkpt lat="44.59622" lon="0.89045">
        <ele>177</ele>
        <time>2018-03-03T15:37:47.511Z</time>
      </trkpt>
      <trkpt lat="44.5962" lon="0.8904">
        <ele>177</ele>
        <time>2018-03-03T15:37:48.511Z</time>
      </trkpt>
      <trkpt lat="44.59618" lon="0.89035">
        <ele>177</ele>
        <time>2018-03-03T15:37:49.511Z</time>
      </trkpt>
      <trkpt lat="44.59616" lon="0.8903">
        <ele>177</ele>
        <time>2018-03-03T15:37:50.511Z</time>
      </trkpt>
      <trkpt lat="44.59614" lon="0.89025">
        <ele>177</ele>
        <time>2018-03-03T15:37:51.511Z</time>
      </trkpt>
      <trkpt lat="44.59612" lon="0.89021">
        <ele>177</ele>
        <time>2018-03-03T15:37:52.511Z</time>
      </trkpt>
      <trkpt lat="44.5961" lon="0.89017">
        <ele>177</ele>
        <time>2018-03-03T15:37:53.511Z</time>
      </trkpt>
      <trkpt lat="44.59608" lon="0.89013">
        <ele>177</ele>
        <time>2018-03-03T15:37:54.511Z</time>
      </trkpt>
      <trkpt lat="44.59606" lon="0.89009">
        <ele>177</ele>
        <time>2018-03-03T15:37:55.511Z</time>
      </trkpt>
      <trkpt lat="44.59604" lon="0.89005">
        <ele>177</ele>
        <time>2018-03-03T15:37:56.511Z</time>
      </trkpt>
      <trkpt lat="44.59602" lon="0.89001">
        <ele>177</ele>
        <time>2018-03-03T15:37:57.511Z</time>
      </trkpt>
      <trkpt lat="44.596" lon="0.88997">
        <ele>177</ele>
        <time>2018-03-03T15:37:58.511Z</time>
      </trkpt>
      <trkpt lat="44.59598" lon="0.88993">
        <ele>177</ele>
        <time>2018-03-03T15:37:59.511Z</time>
      </trkpt>
      <trkpt lat="44.59595" lon="0.88989">
        <ele>177</ele>
        <time>2018-03-03T15:38:00.511Z</time>
      </trkpt>
      <trkpt lat="44.59593" lon="0.88984">
        <ele>177</ele>
        <time>2018-03-03T15:38:01.511Z</time>
      </trkpt>
      <trkpt lat="44.59591" lon="0.8898">
        <ele>177</ele>
        <time>2018-03-03T15:38:02.511Z</time>
      </trkpt>
      <trkpt lat="44.59589" lon="0.88976">
        <ele>177</ele>
        <time>2018-03-03T15:38:03.511Z</time>
      </trkpt>
      <trkpt lat="44.59587" lon="0.88972">
        <ele>177</ele>
        <time>2018-03-03T15:38:04.511Z</time>
      </trkpt>
      <trkpt lat="44.59585" lon="0.88969">
        <ele>177</ele>
        <time>2018-03-03T15:38:05.511Z</time>
      </trkpt>
      <trkpt lat="44.59583" lon="0.88965">
        <ele>177</ele>
        <time>2018-03-03T15:38:06.511Z</time>
      </trkpt>
      <trkpt lat="44.59582" lon="0.88961">
        <ele>177</ele>
        <time>2018-03-03T15:38:07.511Z</time>
      </trkpt>
      <trkpt lat="44.5958" lon="0.88958">
        <ele>177</ele>
        <time>2018-03-03T15:38:08.511Z</time>
      </trkpt>
      <trkpt lat="44.59578" lon="0.88955">
        <ele>176</ele>
        <time>2018-03-03T15:38:09.511Z</time>
      </trkpt>
      <trkpt lat="44.59576" lon="0.88951">
        <ele>176</ele>
        <time>2018-03-03T15:38:10.511Z</time>
      </trkpt>
      <trkpt lat="44.59574" lon="0.88948">
        <ele>176</ele>
        <time>2018-03-03T15:38:11.511Z</time>
      </trkpt>
      <trkpt lat="44.59573" lon="0.88944">
        <ele>176</ele>
        <time>2018-03-03T15:38:12.511Z</time>
      </trkpt>
      <trkpt lat="44.59571" lon="0.8894">
        <ele>176</ele>
        <time>2018-03-03T15:38:13.511Z</time>
      </trkpt>
      <trkpt lat="44.59569" lon="0.88936">
        <ele>175</ele>
        <time>2018-03-03T15:38:14.511Z</time>
      </trkpt>
      <trkpt lat="44.59567" lon="0.88932">
        <ele>175</ele>
        <time>2018-03-03T15:38:15.511Z</time>
      </trkpt>
      <trkpt lat="44.59564" lon="0.88928">
        <ele>175</ele>
        <time>2018-03-03T15:38:16.511Z</time>
      </trkpt>
      <trkpt lat="44.59562" lon="0.88924">
        <ele>175</ele>
        <time>2018-03-03T15:38:17.511Z</time>
      </trkpt>
      <trkpt lat="44.59559" lon="0.8892">
        <ele>174</ele>
        <time>2018-03-03T15:38:18.511Z</time>
      </trkpt>
      <trkpt lat="44.59556" lon="0.88915">
        <ele>174</ele>
        <time>2018-03-03T15:38:19.511Z</time>
      </trkpt>
      <trkpt lat="44.59553" lon="0.8891">
        <ele>173</ele>
        <time>2018-03-03T15:38:20.511Z</time>
      </trkpt>
      <trkpt lat="44.5955" lon="0.88905">
        <ele>173</ele>
        <time>2018-03-03T15:38:21.511Z</time>
      </trkpt>
      <trkpt lat="44.59546" lon="0.889">
        <ele>172</ele>
        <time>2018-03-03T15:38:22.511Z</time>
      </trkpt>
      <trkpt lat="44.59543" lon="0.88894">
        <ele>172</ele>
        <time>2018-03-03T15:38:23.511Z</time>
      </trkpt>
      <trkpt lat="44.59538" lon="0.88888">
        <ele>171</ele>
        <time>2018-03-03T15:38:24.511Z</time>
      </trkpt>
      <trkpt lat="44.59534" lon="0.88881">
        <ele>171</ele>
        <time>2018-03-03T15:38:25.511Z</time>
      </trkpt>
      <trkpt lat="44.59529" lon="0.88874">
        <ele>170</ele>
        <time>2018-03-03T15:38:26.511Z</time>
      </trkpt>
      <trkpt lat="44.59525" lon="0.88866">
        <ele>170</ele>
        <time>2018-03-03T15:38:27.511Z</time>
      </trkpt>
      <trkpt lat="44.59519" lon="0.88858">
        <ele>169</ele>
        <time>2018-03-03T15:38:28.511Z</time>
      </trkpt>
      <trkpt lat="44.59514" lon="0.8885">
        <ele>169</ele>
        <time>2018-03-03T15:38:29.511Z</time>
      </trkpt>
      <trkpt lat="44.59509" lon="0.88842">
        <ele>168</ele>
        <time>2018-03-03T15:38:30.511Z</time>
      </trkpt>
      <trkpt lat="44.59504" lon="0.88835">
        <ele>166</ele>
        <time>2018-03-03T15:38:31.511Z</time>
      </trkpt>
      <trkpt lat="44.59499" lon="0.88828">
        <ele>165</ele>
        <time>2018-03-03T15:38:32.511Z</time>
      </trkpt>
      <trkpt lat="44.59494" lon="0.8882">
        <ele>164</ele>
        <time>2018-03-03T15:38:33.511Z</time>
      </trkpt>
      <trkpt lat="44.59487" lon="0.88811">
        <ele>162</ele>
        <time>2018-03-03T15:38:34.511Z</time>
      </trkpt>
      <trkpt lat="44.5948" lon="0.88802">
        <ele>161</ele>
        <time>2018-03-03T15:38:35.511Z</time>
      </trkpt>
      <trkpt lat="44.59473" lon="0.88793">
        <ele>160</ele>
        <time>2018-03-03T15:38:36.511Z</time>
      </trkpt>
      <trkpt lat="44.59467" lon="0.88785">
        <ele>159</ele>
        <time>2018-03-03T15:38:37.511Z</time>
      </trkpt>
      <trkpt lat="44.5946" lon="0.88778">
        <ele>158</ele>
        <time>2018-03-03T15:38:38.511Z</time>
      </trkpt>
      <trkpt lat="44.59454" lon="0.88773">
        <ele>158</ele>
        <time>2018-03-03T15:38:39.511Z</time>
      </trkpt>
      <trkpt lat="44.59448" lon="0.88769">
        <ele>158</ele>
        <time>2018-03-03T15:38:40.511Z</time>
      </trkpt>
      <trkpt lat="44.59444" lon="0.88766">
        <ele>159</ele>
        <time>2018-03-03T15:38:41.511Z</time>
      </trkpt>
      <trkpt lat="44.5944" lon="0.88763">
        <ele>160</ele>
        <time>2018-03-03T15:38:42.511Z</time>
      </trkpt>
      <trkpt lat="44.59438" lon="0.8876">
        <ele>160</ele>
        <time>2018-03-03T15:38:43.511Z</time>
      </trkpt>
      <trkpt lat="44.59435" lon="0.88757">
        <ele>161</ele>
        <time>2018-03-03T15:38:44.511Z</time>
      </trkpt>
      <trkpt lat="44.59433" lon="0.88754">
        <ele>161</ele>
        <time>2018-03-03T15:38:45.511Z</time>
      </trkpt>
      <trkpt lat="44.59431" lon="0.88752">
        <ele>162</ele>
        <time>2018-03-03T15:38:46.511Z</time>
      </trkpt>
      <trkpt lat="44.59429" lon="0.88749">
        <ele>162</ele>
        <time>2018-03-03T15:38:47.511Z</time>
      </trkpt>
      <trkpt lat="44.59427" lon="0.88746">
        <ele>162</ele>
        <time>2018-03-03T15:38:48.511Z</time>
      </trkpt>
      <trkpt lat="44.59426" lon="0.88744">
        <ele>163</ele>
        <time>2018-03-03T15:38:49.511Z</time>
      </trkpt>
      <trkpt lat="44.59424" lon="0.88741">
        <ele>163</ele>
        <time>2018-03-03T15:38:50.511Z</time>
      </trkpt>
      <trkpt lat="44.59422" lon="0.88738">
        <ele>163</ele>
        <time>2018-03-03T15:38:51.511Z</time>
      </trkpt>
      <trkpt lat="44.59421" lon="0.88735">
        <ele>164</ele>
        <time>2018-03-03T15:38:52.511Z</time>
      </trkpt>
      <trkpt lat="44.59419" lon="0.88732">
        <ele>164</ele>
        <time>2018-03-03T15:38:53.511Z</time>
      </trkpt>
      <trkpt lat="44.59418" lon="0.88729">
        <ele>165</ele>
        <time>2018-03-03T15:38:54.511Z</time>
      </trkpt>
      <trkpt lat="44.59417" lon="0.88725">
        <ele>165</ele>
        <time>2018-03-03T15:38:55.511Z</time>
      </trkpt>
      <trkpt lat="44.59416" lon="0.88721">
        <ele>165</ele>
        <time>2018-03-03T15:38:56.511Z</time>
      </trkpt>
      <trkpt lat="44.59414" lon="0.88717">
        <ele>165</ele>
        <time>2018-03-03T15:38:57.511Z</time>
      </trkpt>
      <trkpt lat="44.59413" lon="0.88713">
        <ele>165</ele>
        <time>2018-03-03T15:38:58.511Z</time>
      </trkpt>
      <trkpt lat="44.59411" lon="0.88709">
        <ele>165</ele>
        <time>2018-03-03T15:38:59.511Z</time>
      </trkpt>
      <trkpt lat="44.5941" lon="0.88705">
        <ele>165</ele>
        <time>2018-03-03T15:39:00.511Z</time>
      </trkpt>
      <trkpt lat="44.59408" lon="0.88701">
        <ele>165</ele>
        <time>2018-03-03T15:39:01.511Z</time>
      </trkpt>
      <trkpt lat="44.59406" lon="0.88698">
        <ele>165</ele>
        <time>2018-03-03T15:39:02.511Z</time>
      </trkpt>
      <trkpt lat="44.59404" lon="0.88694">
        <ele>165</ele>
        <time>2018-03-03T15:39:03.511Z</time>
      </trkpt>
      <trkpt lat="44.59402" lon="0.8869">
        <ele>165</ele>
        <time>2018-03-03T15:39:04.511Z</time>
      </trkpt>
      <trkpt lat="44.594" lon="0.88687">
        <ele>165</ele>
        <time>2018-03-03T15:39:05.511Z</time>
      </trkpt>
      <trkpt lat="44.59398" lon="0.88683">
        <ele>165</ele>
        <time>2018-03-03T15:39:06.511Z</time>
      </trkpt>
      <trkpt lat="44.59396" lon="0.8868">
        <ele>165</ele>
        <time>2018-03-03T15:39:07.511Z</time>
      </trkpt>
      <trkpt lat="44.59394" lon="0.88677">
        <ele>165</ele>
        <time>2018-03-03T15:39:08.511Z</time>
      </trkpt>
      <trkpt lat="44.59392" lon="0.88674">
        <ele>166</ele>
        <time>2018-03-03T15:39:09.511Z</time>
      </trkpt>
      <trkpt lat="44.5939" lon="0.8867">
        <ele>166</ele>
        <time>2018-03-03T15:39:10.511Z</time>
      </trkpt>
      <trkpt lat="44.59388" lon="0.88667">
        <ele>166</ele>
        <time>2018-03-03T15:39:11.511Z</time>
      </trkpt>
      <trkpt lat="44.59386" lon="0.88664">
        <ele>166</ele>
        <time>2018-03-03T15:39:12.511Z</time>
      </trkpt>
      <trkpt lat="44.59384" lon="0.88661">
        <ele>166</ele>
        <time>2018-03-03T15:39:13.511Z</time>
      </trkpt>
      <trkpt lat="44.59382" lon="0.88659">
        <ele>167</ele>
        <time>2018-03-03T15:39:14.511Z</time>
      </trkpt>
      <trkpt lat="44.5938" lon="0.88656">
        <ele>167</ele>
        <time>2018-03-03T15:39:15.511Z</time>
      </trkpt>
      <trkpt lat="44.59379" lon="0.88653">
        <ele>167</ele>
        <time>2018-03-03T15:39:16.511Z</time>
      </trkpt>
      <trkpt lat="44.59377" lon="0.8865">
        <ele>167</ele>
        <time>2018-03-03T15:39:17.511Z</time>
      </trkpt>
      <trkpt lat="44.59376" lon="0.88647">
        <ele>168</ele>
        <time>2018-03-03T15:39:18.511Z</time>
      </trkpt>
      <trkpt lat="44.59374" lon="0.88644">
        <ele>168</ele>
        <time>2018-03-03T15:39:19.511Z</time>
      </trkpt>
      <trkpt lat="44.59373" lon="0.8864">
        <ele>168</ele>
        <time>2018-03-03T15:39:20.511Z</time>
      </trkpt>
      <trkpt lat="44.59371" lon="0.88636">
        <ele>168</ele>
        <time>2018-03-03T15:39:21.511Z</time>
      </trkpt>
      <trkpt lat="44.5937" lon="0.88633">
        <ele>168</ele>
        <time>2018-03-03T15:39:22.511Z</time>
      </trkpt>
      <trkpt lat="44.59369" lon="0.88629">
        <ele>168</ele>
        <time>2018-03-03T15:39:23.511Z</time>
      </trkpt>
      <trkpt lat="44.59368" lon="0.88624">
        <ele>168</ele>
        <time>2018-03-03T15:39:24.511Z</time>
      </trkpt>
      <trkpt lat="44.59366" lon="0.8862">
        <ele>168</ele>
        <time>2018-03-03T15:39:25.511Z</time>
      </trkpt>
      <trkpt lat="44.59365" lon="0.88616">
        <ele>167</ele>
        <time>2018-03-03T15:39:26.511Z</time>
      </trkpt>
      <trkpt lat="44.59364" lon="0.88612">
        <ele>167</ele>
        <time>2018-03-03T15:39:27.511Z</time>
      </trkpt>
      <trkpt lat="44.59362" lon="0.88608">
        <ele>167</ele>
        <time>2018-03-03T15:39:28.511Z</time>
      </trkpt>
      <trkpt lat="44.59361" lon="0.88603">
        <ele>166</ele>
        <time>2018-03-03T15:39:29.511Z</time>
      </trkpt>
      <trkpt lat="44.59359" lon="0.88599">
        <ele>166</ele>
        <time>2018-03-03T15:39:30.511Z</time>
      </trkpt>
      <trkpt lat="44.59357" lon="0.88594">
        <ele>165</ele>
        <time>2018-03-03T15:39:31.511Z</time>
      </trkpt>
      <trkpt lat="44.59355" lon="0.88588">
        <ele>164</ele>
        <time>2018-03-03T15:39:32.511Z</time>
      </trkpt>
      <trkpt lat="44.59353" lon="0.88583">
        <ele>163</ele>
        <time>2018-03-03T15:39:33.511Z</time>
      </trkpt>
      <trkpt lat="44.5935" lon="0.88578">
        <ele>163</ele>
        <time>2018-03-03T15:39:34.511Z</time>
      </trkpt>
      <trkpt lat="44.59348" lon="0.88573">
        <ele>163</ele>
        <time>2018-03-03T15:39:35.511Z</time>
      </trkpt>
      <trkpt lat="44.59346" lon="0.88569">
        <ele>162</ele>
        <time>2018-03-03T15:39:36.511Z</time>
      </trkpt>
      <trkpt lat="44.59343" lon="0.88566">
        <ele>162</ele>
        <time>2018-03-03T15:39:37.511Z</time>
      </trkpt>
      <trkpt lat="44.59341" lon="0.88564">
        <ele>161</ele>
        <time>2018-03-03T15:39:38.511Z</time>
      </trkpt>
      <trkpt lat="44.59338" lon="0.88562">
        <ele>161</ele>
        <time>2018-03-03T15:39:39.511Z</time>
      </trkpt>
      <trkpt lat="44.59336" lon="0.88561">
        <ele>161</ele>
        <time>2018-03-03T15:39:40.511Z</time>
      </trkpt>
      <trkpt lat="44.59335" lon="0.88559">
        <ele>160</ele>
        <time>2018-03-03T15:39:41.511Z</time>
      </trkpt>
      <trkpt lat="44.59334" lon="0.88558">
        <ele>160</ele>
        <time>2018-03-03T15:39:42.511Z</time>
      </trkpt>
      <trkpt lat="44.59333" lon="0.88556">
        <ele>160</ele>
        <time>2018-03-03T15:39:43.511Z</time>
      </trkpt>
      <trkpt lat="44.59333" lon="0.88554">
        <ele>160</ele>
        <time>2018-03-03T15:39:44.511Z</time>
      </trkpt>
      <trkpt lat="44.59332" lon="0.88552">
        <ele>160</ele>
        <time>2018-03-03T15:39:45.511Z</time>
      </trkpt>
      <trkpt lat="44.59332" lon="0.8855">
        <ele>159</ele>
        <time>2018-03-03T15:39:46.511Z</time>
      </trkpt>
      <trkpt lat="44.59332" lon="0.88547">
        <ele>159</ele>
        <time>2018-03-03T15:39:47.511Z</time>
      </trkpt>
      <trkpt lat="44.59332" lon="0.88545">
        <ele>159</ele>
        <time>2018-03-03T15:39:48.511Z</time>
      </trkpt>
      <trkpt lat="44.59332" lon="0.88544">
        <ele>159</ele>
        <time>2018-03-03T15:39:49.511Z</time>
      </trkpt>
      <trkpt lat="44.59332" lon="0.88542">
        <ele>158</ele>
        <time>2018-03-03T15:39:50.511Z</time>
      </trkpt>
      <trkpt lat="44.59331" lon="0.88541">
        <ele>158</ele>
        <time>2018-03-03T15:39:51.511Z</time>
      </trkpt>
      <trkpt lat="44.59331" lon="0.88541">
        <ele>158</ele>
        <time>2018-03-03T15:39:52.511Z</time>
      </trkpt>
      <trkpt lat="44.59331" lon="0.88541">
        <ele>158</ele>
        <time>2018-03-03T15:39:53.511Z</time>
      </trkpt>
      <trkpt lat="44.59331" lon="0.88541">
        <ele>158</ele>
        <time>2018-03-03T15:39:54.511Z</time>
      </trkpt>
      <trkpt lat="44.59331" lon="0.88541">
        <ele>158</ele>
        <time>2018-03-03T15:39:55.511Z</time>
      </trkpt>
      <trkpt lat="44.59331" lon="0.88541">
        <ele>158</ele>
        <time>2018-03-03T15:39:56.511Z</time>
      </trkpt>
      <trkpt lat="44.59331" lon="0.88541">
        <ele>158</ele>
        <time>2018-03-03T15:39:57.511Z</time>
      </trkpt>
      <trkpt lat="44.59331" lon="0.88541">
        <ele>158</ele>
        <time>2018-03-03T15:39:58.511Z</time>
      </trkpt>
      <trkpt lat="44.59331" lon="0.88541">
        <ele>158</ele>
        <time>2018-03-03T15:39:59.511Z</time>
      </trkpt>
      <trkpt lat="44.59331" lon="0.88541">
        <ele>158</ele>
        <time>2018-03-03T15:40:00.511Z</time>
      </trkpt>
      <trkpt lat="44.59331" lon="0.88541">
        <ele>158</ele>
        <time>2018-03-03T15:40:01.511Z</time>
      </trkpt>
      <trkpt lat="44.59331" lon="0.88541">
        <ele>158</ele>
        <time>2018-03-03T15:40:02.511Z</time>
      </trkpt>
      <trkpt lat="44.59331" lon="0.88541">
        <ele>158</ele>
        <time>2018-03-03T15:40:03.511Z</time>
      </trkpt>
      <trkpt lat="44.59331" lon="0.88541">
        <ele>158</ele>
        <time>2018-03-03T15:40:04.511Z</time>
      </trkpt>
      <trkpt lat="44.59331" lon="0.88541">
        <ele>158</ele>
        <time>2018-03-03T15:40:05.511Z</time>
      </trkpt>
      <trkpt lat="44.59331" lon="0.88541">
        <ele>158</ele>
        <time>2018-03-03T15:40:06.511Z</time>
      </trkpt>
      <trkpt lat="44.59331" lon="0.88541">
        <ele>158</ele>
        <time>2018-03-03T15:40:07.511Z</time>
      </trkpt>
      <trkpt lat="44.59331" lon="0.88541">
        <ele>158</ele>
        <time>2018-03-03T15:40:08.511Z</time>
      </trkpt>
      <trkpt lat="44.59331" lon="0.88541">
        <ele>158</ele>
        <time>2018-03-03T15:40:09.511Z</time>
      </trkpt>
      <trkpt lat="44.59331" lon="0.88541">
        <ele>158</ele>
        <time>2018-03-03T15:40:10.511Z</time>
      </trkpt>
      <trkpt lat="44.59331" lon="0.88541">
        <ele>158</ele>
        <time>2018-03-03T15:40:11.511Z</time>
      </trkpt>
      <trkpt lat="44.59331" lon="0.88541">
        <ele>158</ele>
        <time>2018-03-03T15:40:12.511Z</time>
      </trkpt>
      <trkpt lat="44.59331" lon="0.88541">
        <ele>158</ele>
        <time>2018-03-03T15:40:13.511Z</time>
      </trkpt>
      <trkpt lat="44.59331" lon="0.88541">
        <ele>158</ele>
        <time>2018-03-03T15:40:14.511Z</time>
      </trkpt>
      <trkpt lat="44.59331" lon="0.88541">
        <ele>158</ele>
        <time>2018-03-03T15:40:15.511Z</time>
      </trkpt>
      <trkpt lat="44.59331" lon="0.88541">
        <ele>158</ele>
        <time>2018-03-03T15:40:16.511Z</time>
      </trkpt>
      <trkpt lat="44.59331" lon="0.88541">
        <ele>158</ele>
        <time>2018-03-03T15:40:17.511Z</time>
      </trkpt>
      <trkpt lat="44.59331" lon="0.88541">
        <ele>158</ele>
        <time>2018-03-03T15:40:18.511Z</time>
      </trkpt>
      <trkpt lat="44.59331" lon="0.88541">
        <ele>158</ele>
        <time>2018-03-03T15:40:19.511Z</time>
      </trkpt>
      <trkpt lat="44.59331" lon="0.88541">
        <ele>158</ele>
        <time>2018-03-03T15:40:20.511Z</time>
      </trkpt>
      <trkpt lat="44.59331" lon="0.88541">
        <ele>158</ele>
        <time>2018-03-03T15:40:21.511Z</time>
      </trkpt>
      <trkpt lat="44.59331" lon="0.88541">
        <ele>158</ele>
        <time>2018-03-03T15:40:22.511Z</time>
      </trkpt>
      <trkpt lat="44.59331" lon="0.88541">
        <ele>158</ele>
        <time>2018-03-03T15:40:23.511Z</time>
      </trkpt>
      <trkpt lat="44.59331" lon="0.88541">
        <ele>158</ele>
        <time>2018-03-03T15:40:24.511Z</time>
      </trkpt>
      <trkpt lat="44.59331" lon="0.88541">
        <ele>158</ele>
        <time>2018-03-03T15:40:25.511Z</time>
      </trkpt>
      <trkpt lat="44.59331" lon="0.88541">
        <ele>158</ele>
        <time>2018-03-03T15:40:26.511Z</time>
      </trkpt>
      <trkpt lat="44.59331" lon="0.88541">
        <ele>158</ele>
        <time>2018-03-03T15:40:27.511Z</time>
      </trkpt>
      <trkpt lat="44.59331" lon="0.88541">
        <ele>158</ele>
        <time>2018-03-03T15:40:28.511Z</time>
      </trkpt>
      <trkpt lat="44.59331" lon="0.88541">
        <ele>158</ele>
        <time>2018-03-03T15:40:29.511Z</time>
      </trkpt>
      <trkpt lat="44.59331" lon="0.88541">
        <ele>158</ele>
        <time>2018-03-03T15:40:30.511Z</time>
      </trkpt>
      <trkpt lat="44.59331" lon="0.88541">
        <ele>158</ele>
        <time>2018-03-03T15:40:31.511Z</time>
      </trkpt>
      <trkpt lat="44.59331" lon="0.88541">
        <ele>158</ele>
        <time>2018-03-03T15:40:32.511Z</time>
      </trkpt>
      <trkpt lat="44.59331" lon="0.88541">
        <ele>158</ele>
        <time>2018-03-03T15:40:33.511Z</time>
      </trkpt>
      <trkpt lat="44.59331" lon="0.88541">
        <ele>158</ele>
        <time>2018-03-03T15:40:34.511Z</time>
      </trkpt>
      <trkpt lat="44.59331" lon="0.88541">
        <ele>158</ele>
        <time>2018-03-03T15:40:35.511Z</time>
      </trkpt>
      <trkpt lat="44.59331" lon="0.88541">
        <ele>158</ele>
        <time>2018-03-03T15:40:36.511Z</time>
      </trkpt>
      <trkpt lat="44.59331" lon="0.88541">
        <ele>158</ele>
        <time>2018-03-03T15:40:37.511Z</time>
      </trkpt>
      <trkpt lat="44.59331" lon="0.88541">
        <ele>158</ele>
        <time>2018-03-03T15:40:38.511Z</time>
      </trkpt>
      <trkpt lat="44.59331" lon="0.88539">
        <ele>158</ele>
        <time>2018-03-03T15:40:39.511Z</time>
      </trkpt>
      <trkpt lat="44.5933" lon="0.88537">
        <ele>158</ele>
        <time>2018-03-03T15:40:40.511Z</time>
      </trkpt>
      <trkpt lat="44.5933" lon="0.88535">
        <ele>158</ele>
        <time>2018-03-03T15:40:41.511Z</time>
      </trkpt>
      <trkpt lat="44.5933" lon="0.88534">
        <ele>158</ele>
        <time>2018-03-03T15:40:42.511Z</time>
      </trkpt>
      <trkpt lat="44.5933" lon="0.88533">
        <ele>158</ele>
        <time>2018-03-03T15:40:43.511Z</time>
      </trkpt>
      <trkpt lat="44.59329" lon="0.88532">
        <ele>157</ele>
        <time>2018-03-03T15:40:44.511Z</time>
      </trkpt>
      <trkpt lat="44.59329" lon="0.88532">
        <ele>157</ele>
        <time>2018-03-03T15:40:45.511Z</time>
      </trkpt>
      <trkpt lat="44.59329" lon="0.88532">
        <ele>157</ele>
        <time>2018-03-03T15:40:46.511Z</time>
      </trkpt>
      <trkpt lat="44.59329" lon="0.88532">
        <ele>157</ele>
        <time>2018-03-03T15:40:47.511Z</time>
      </trkpt>
      <trkpt lat="44.59329" lon="0.88532">
        <ele>158</ele>
        <time>2018-03-03T15:40:48.511Z</time>
      </trkpt>
      <trkpt lat="44.59329" lon="0.88532">
        <ele>158</ele>
        <time>2018-03-03T15:40:49.511Z</time>
      </trkpt>
      <trkpt lat="44.59329" lon="0.88532">
        <ele>158</ele>
        <time>2018-03-03T15:40:50.511Z</time>
      </trkpt>
      <trkpt lat="44.59329" lon="0.88532">
        <ele>158</ele>
        <time>2018-03-03T15:40:51.511Z</time>
      </trkpt>
      <trkpt lat="44.59329" lon="0.88532">
        <ele>158</ele>
        <time>2018-03-03T15:40:52.511Z</time>
      </trkpt>
      <trkpt lat="44.59329" lon="0.88532">
        <ele>158</ele>
        <time>2018-03-03T15:40:53.511Z</time>
      </trkpt>
      <trkpt lat="44.59329" lon="0.88532">
        <ele>158</ele>
        <time>2018-03-03T15:40:54.511Z</time>
      </trkpt>
      <trkpt lat="44.59329" lon="0.88532">
        <ele>158</ele>
        <time>2018-03-03T15:40:55.511Z</time>
      </trkpt>
      <trkpt lat="44.59329" lon="0.88532">
        <ele>158</ele>
        <time>2018-03-03T15:40:56.511Z</time>
      </trkpt>
      <trkpt lat="44.59329" lon="0.88532">
        <ele>158</ele>
        <time>2018-03-03T15:40:57.511Z</time>
      </trkpt>
      <trkpt lat="44.59329" lon="0.88532">
        <ele>158</ele>
        <time>2018-03-03T15:40:58.511Z</time>
      </trkpt>
      <trkpt lat="44.59329" lon="0.88532">
        <ele>158</ele>
        <time>2018-03-03T15:40:59.511Z</time>
      </trkpt>
      <trkpt lat="44.59329" lon="0.88532">
        <ele>158</ele>
        <time>2018-03-03T15:41:00.511Z</time>
      </trkpt>
      <trkpt lat="44.59329" lon="0.88532">
        <ele>158</ele>
        <time>2018-03-03T15:41:01.511Z</time>
      </trkpt>
      <trkpt lat="44.59329" lon="0.88532">
        <ele>158</ele>
        <time>2018-03-03T15:41:02.511Z</time>
      </trkpt>
      <trkpt lat="44.59329" lon="0.88532">
        <ele>157</ele>
        <time>2018-03-03T15:41:03.511Z</time>
      </trkpt>
      <trkpt lat="44.59329" lon="0.88532">
        <ele>157</ele>
        <time>2018-03-03T15:41:04.511Z</time>
      </trkpt>
      <trkpt lat="44.59329" lon="0.88532">
        <ele>157</ele>
        <time>2018-03-03T15:41:05.511Z</time>
      </trkpt>
      <trkpt lat="44.59329" lon="0.88532">
        <ele>157</ele>
        <time>2018-03-03T15:41:06.511Z</time>
      </trkpt>
      <trkpt lat="44.59329" lon="0.88532">
        <ele>157</ele>
        <time>2018-03-03T15:41:07.511Z</time>
      </trkpt>
      <trkpt lat="44.59329" lon="0.88532">
        <ele>157</ele>
        <time>2018-03-03T15:41:08.511Z</time>
      </trkpt>
      <trkpt lat="44.59329" lon="0.88532">
        <ele>157</ele>
        <time>2018-03-03T15:41:09.511Z</time>
      </trkpt>
      <trkpt lat="44.59329" lon="0.88532">
        <ele>157</ele>
        <time>2018-03-03T15:41:10.511Z</time>
      </trkpt>
      <trkpt lat="44.59329" lon="0.88532">
        <ele>157</ele>
        <time>2018-03-03T15:41:11.511Z</time>
      </trkpt>
      <trkpt lat="44.59329" lon="0.88532">
        <ele>157</ele>
        <time>2018-03-03T15:41:12.511Z</time>
      </trkpt>
      <trkpt lat="44.59329" lon="0.88532">
        <ele>157</ele>
        <time>2018-03-03T15:41:13.511Z</time>
      </trkpt>
      <trkpt lat="44.59329" lon="0.88532">
        <ele>157</ele>
        <time>2018-03-03T15:41:14.511Z</time>
      </trkpt>
      <trkpt lat="44.59329" lon="0.88532">
        <ele>157</ele>
        <time>2018-03-03T15:41:15.511Z</time>
      </trkpt>
      <trkpt lat="44.59329" lon="0.88532">
        <ele>157</ele>
        <time>2018-03-03T15:41:16.511Z</time>
      </trkpt>
      <trkpt lat="44.59329" lon="0.88532">
        <ele>157</ele>
        <time>2018-03-03T15:41:17.511Z</time>
      </trkpt>
      <trkpt lat="44.59329" lon="0.88532">
        <ele>157</ele>
        <time>2018-03-03T15:41:18.511Z</time>
      </trkpt>
      <trkpt lat="44.59329" lon="0.88532">
        <ele>157</ele>
        <time>2018-03-03T15:41:19.511Z</time>
      </trkpt>
      <trkpt lat="44.59329" lon="0.88532">
        <ele>157</ele>
        <time>2018-03-03T15:41:20.511Z</time>
      </trkpt>
      <trkpt lat="44.59329" lon="0.88532">
        <ele>157</ele>
        <time>2018-03-03T15:41:21.511Z</time>
      </trkpt>
      <trkpt lat="44.59329" lon="0.88532">
        <ele>157</ele>
        <time>2018-03-03T15:41:22.511Z</time>
      </trkpt>
      <trkpt lat="44.59329" lon="0.88532">
        <ele>157</ele>
        <time>2018-03-03T15:41:23.511Z</time>
      </trkpt>
      <trkpt lat="44.59329" lon="0.88532">
        <ele>157</ele>
        <time>2018-03-03T15:41:24.511Z</time>
      </trkpt>
      <trkpt lat="44.59329" lon="0.88532">
        <ele>157</ele>
        <time>2018-03-03T15:41:25.511Z</time>
      </trkpt>
      <trkpt lat="44.59329" lon="0.88532">
        <ele>157</ele>
        <time>2018-03-03T15:41:26.511Z</time>
      </trkpt>
      <trkpt lat="44.59329" lon="0.88532">
        <ele>158</ele>
        <time>2018-03-03T15:41:27.511Z</time>
      </trkpt>
      <trkpt lat="44.59329" lon="0.88531">
        <ele>158</ele>
        <time>2018-03-03T15:41:28.511Z</time>
      </trkpt>
      <trkpt lat="44.5933" lon="0.88531">
        <ele>158</ele>
        <time>2018-03-03T15:41:29.511Z</time>
      </trkpt>
      <trkpt lat="44.5933" lon="0.8853">
        <ele>157</ele>
        <time>2018-03-03T15:41:30.511Z</time>
      </trkpt>
      <trkpt lat="44.5933" lon="0.88528">
        <ele>157</ele>
        <time>2018-03-03T15:41:31.511Z</time>
      </trkpt>
      <trkpt lat="44.59331" lon="0.88526">
        <ele>157</ele>
        <time>2018-03-03T15:41:32.511Z</time>
      </trkpt>
      <trkpt lat="44.59331" lon="0.88524">
        <ele>157</ele>
        <time>2018-03-03T15:41:33.511Z</time>
      </trkpt>
      <trkpt lat="44.59331" lon="0.8852">
        <ele>157</ele>
        <time>2018-03-03T15:41:34.511Z</time>
      </trkpt>
      <trkpt lat="44.59331" lon="0.88517">
        <ele>157</ele>
        <time>2018-03-03T15:41:35.511Z</time>
      </trkpt>
      <trkpt lat="44.5933" lon="0.88513">
        <ele>157</ele>
        <time>2018-03-03T15:41:36.511Z</time>
      </trkpt>
      <trkpt lat="44.5933" lon="0.88509">
        <ele>157</ele>
        <time>2018-03-03T15:41:37.511Z</time>
      </trkpt>
      <trkpt lat="44.5933" lon="0.88506">
        <ele>156</ele>
        <time>2018-03-03T15:41:38.511Z</time>
      </trkpt>
      <trkpt lat="44.5933" lon="0.88504">
        <ele>156</ele>
        <time>2018-03-03T15:41:39.511Z</time>
      </trkpt>
      <trkpt lat="44.5933" lon="0.88502">
        <ele>156</ele>
        <time>2018-03-03T15:41:40.511Z</time>
      </trkpt>
      <trkpt lat="44.5933" lon="0.885">
        <ele>156</ele>
        <time>2018-03-03T15:41:41.511Z</time>
      </trkpt>
      <trkpt lat="44.5933" lon="0.88499">
        <ele>155</ele>
        <time>2018-03-03T15:41:42.511Z</time>
      </trkpt>
      <trkpt lat="44.5933" lon="0.88499">
        <ele>155</ele>
        <time>2018-03-03T15:41:43.511Z</time>
      </trkpt>
      <trkpt lat="44.5933" lon="0.88498">
        <ele>155</ele>
        <time>2018-03-03T15:41:44.511Z</time>
      </trkpt>
      <trkpt lat="44.5933" lon="0.88498">
        <ele>155</ele>
        <time>2018-03-03T15:41:45.511Z</time>
      </trkpt>
      <trkpt lat="44.5933" lon="0.88498">
        <ele>155</ele>
        <time>2018-03-03T15:41:46.511Z</time>
      </trkpt>
      <trkpt lat="44.5933" lon="0.88498">
        <ele>155</ele>
        <time>2018-03-03T15:41:47.511Z</time>
      </trkpt>
      <trkpt lat="44.5933" lon="0.88498">
        <ele>155</ele>
        <time>2018-03-03T15:41:48.511Z</time>
      </trkpt>
      <trkpt lat="44.5933" lon="0.88498">
        <ele>155</ele>
        <time>2018-03-03T15:41:49.511Z</time>
      </trkpt>
      <trkpt lat="44.5933" lon="0.88498">
        <ele>155</ele>
        <time>2018-03-03T15:41:50.511Z</time>
      </trkpt>
      <trkpt lat="44.5933" lon="0.88498">
        <ele>155</ele>
        <time>2018-03-03T15:41:51.511Z</time>
      </trkpt>
      <trkpt lat="44.5933" lon="0.88498">
        <ele>155</ele>
        <time>2018-03-03T15:41:52.511Z</time>
      </trkpt>
      <trkpt lat="44.5933" lon="0.88498">
        <ele>155</ele>
        <time>2018-03-03T15:41:53.511Z</time>
      </trkpt>
      <trkpt lat="44.5933" lon="0.88498">
        <ele>155</ele>
        <time>2018-03-03T15:41:54.511Z</time>
      </trkpt>
      <trkpt lat="44.5933" lon="0.88498">
        <ele>155</ele>
        <time>2018-03-03T15:41:55.511Z</time>
      </trkpt>
      <trkpt lat="44.5933" lon="0.88498">
        <ele>155</ele>
        <time>2018-03-03T15:41:56.511Z</time>
      </trkpt>
      <trkpt lat="44.5933" lon="0.88498">
        <ele>155</ele>
        <time>2018-03-03T15:41:57.511Z</time>
      </trkpt>
      <trkpt lat="44.5933" lon="0.88498">
        <ele>155</ele>
        <time>2018-03-03T15:41:58.511Z</time>
      </trkpt>
      <trkpt lat="44.5933" lon="0.88498">
        <ele>155</ele>
        <time>2018-03-03T15:41:59.511Z</time>
      </trkpt>
      <trkpt lat="44.5933" lon="0.88498">
        <ele>155</ele>
        <time>2018-03-03T15:42:00.511Z</time>
      </trkpt>
      <trkpt lat="44.5933" lon="0.88498">
        <ele>155</ele>
        <time>2018-03-03T15:42:01.511Z</time>
      </trkpt>
      <trkpt lat="44.5933" lon="0.88498">
        <ele>155</ele>
        <time>2018-03-03T15:42:02.511Z</time>
      </trkpt>
      <trkpt lat="44.5933" lon="0.88498">
        <ele>155</ele>
        <time>2018-03-03T15:42:03.511Z</time>
      </trkpt>
      <trkpt lat="44.5933" lon="0.88498">
        <ele>155</ele>
        <time>2018-03-03T15:42:04.511Z</time>
      </trkpt>
      <trkpt lat="44.5933" lon="0.88498">
        <ele>155</ele>
        <time>2018-03-03T15:42:05.511Z</time>
      </trkpt>
      <trkpt lat="44.5933" lon="0.88498">
        <ele>155</ele>
        <time>2018-03-03T15:42:06.511Z</time>
      </trkpt>
      <trkpt lat="44.5933" lon="0.88498">
        <ele>155</ele>
        <time>2018-03-03T15:42:07.511Z</time>
      </trkpt>
      <trkpt lat="44.5933" lon="0.88498">
        <ele>155</ele>
        <time>2018-03-03T15:42:08.511Z</time>
      </trkpt>
      <trkpt lat="44.5933" lon="0.88499">
        <ele>155</ele>
        <time>2018-03-03T15:42:09.511Z</time>
      </trkpt>
      <trkpt lat="44.5933" lon="0.88499">
        <ele>155</ele>
        <time>2018-03-03T15:42:10.511Z</time>
      </trkpt>
      <trkpt lat="44.5933" lon="0.88498">
        <ele>155</ele>
        <time>2018-03-03T15:42:11.511Z</time>
      </trkpt>
      <trkpt lat="44.5933" lon="0.88498">
        <ele>155</ele>
        <time>2018-03-03T15:42:12.511Z</time>
      </trkpt>
      <trkpt lat="44.5933" lon="0.88498">
        <ele>155</ele>
        <time>2018-03-03T15:42:13.511Z</time>
      </trkpt>
      <trkpt lat="44.59329" lon="0.88496">
        <ele>155</ele>
        <time>2018-03-03T15:42:14.511Z</time>
      </trkpt>
      <trkpt lat="44.59329" lon="0.88494">
        <ele>155</ele>
        <time>2018-03-03T15:42:15.511Z</time>
      </trkpt>
      <trkpt lat="44.59329" lon="0.8849">
        <ele>155</ele>
        <time>2018-03-03T15:42:16.511Z</time>
      </trkpt>
      <trkpt lat="44.59328" lon="0.88485">
        <ele>154</ele>
        <time>2018-03-03T15:42:17.511Z</time>
      </trkpt>
      <trkpt lat="44.59328" lon="0.88479">
        <ele>154</ele>
        <time>2018-03-03T15:42:18.511Z</time>
      </trkpt>
      <trkpt lat="44.59327" lon="0.88472">
        <ele>154</ele>
        <time>2018-03-03T15:42:19.511Z</time>
      </trkpt>
      <trkpt lat="44.59326" lon="0.88464">
        <ele>153</ele>
        <time>2018-03-03T15:42:20.511Z</time>
      </trkpt>
      <trkpt lat="44.59326" lon="0.88456">
        <ele>153</ele>
        <time>2018-03-03T15:42:21.511Z</time>
      </trkpt>
      <trkpt lat="44.59325" lon="0.88448">
        <ele>153</ele>
        <time>2018-03-03T15:42:22.511Z</time>
      </trkpt>
      <trkpt lat="44.59324" lon="0.88441">
        <ele>153</ele>
        <time>2018-03-03T15:42:23.511Z</time>
      </trkpt>
      <trkpt lat="44.59323" lon="0.88433">
        <ele>152</ele>
        <time>2018-03-03T15:42:24.511Z</time>
      </trkpt>
      <trkpt lat="44.59321" lon="0.88425">
        <ele>152</ele>
        <time>2018-03-03T15:42:25.511Z</time>
      </trkpt>
      <trkpt lat="44.5932" lon="0.88417">
        <ele>152</ele>
        <time>2018-03-03T15:42:26.511Z</time>
      </trkpt>
      <trkpt lat="44.59319" lon="0.8841">
        <ele>152</ele>
        <time>2018-03-03T15:42:27.511Z</time>
      </trkpt>
      <trkpt lat="44.59317" lon="0.88403">
        <ele>152</ele>
        <time>2018-03-03T15:42:28.511Z</time>
      </trkpt>
      <trkpt lat="44.59316" lon="0.88396">
        <ele>152</ele>
        <time>2018-03-03T15:42:29.511Z</time>
      </trkpt>
      <trkpt lat="44.59314" lon="0.88388">
        <ele>152</ele>
        <time>2018-03-03T15:42:30.511Z</time>
      </trkpt>
      <trkpt lat="44.59312" lon="0.88381">
        <ele>152</ele>
        <time>2018-03-03T15:42:31.511Z</time>
      </trkpt>
      <trkpt lat="44.5931" lon="0.88374">
        <ele>152</ele>
        <time>2018-03-03T15:42:32.511Z</time>
      </trkpt>
      <trkpt lat="44.59307" lon="0.88368">
        <ele>152</ele>
        <time>2018-03-03T15:42:33.511Z</time>
      </trkpt>
      <trkpt lat="44.59302" lon="0.88363">
        <ele>152</ele>
        <time>2018-03-03T15:42:34.511Z</time>
      </trkpt>
      <trkpt lat="44.59298" lon="0.88359">
        <ele>152</ele>
        <time>2018-03-03T15:42:35.511Z</time>
      </trkpt>
      <trkpt lat="44.59293" lon="0.88356">
        <ele>151</ele>
        <time>2018-03-03T15:42:36.511Z</time>
      </trkpt>
      <trkpt lat="44.59289" lon="0.88352">
        <ele>151</ele>
        <time>2018-03-03T15:42:37.511Z</time>
      </trkpt>
      <trkpt lat="44.59285" lon="0.88349">
        <ele>151</ele>
        <time>2018-03-03T15:42:38.511Z</time>
      </trkpt>
      <trkpt lat="44.59281" lon="0.88345">
        <ele>151</ele>
        <time>2018-03-03T15:42:39.511Z</time>
      </trkpt>
      <trkpt lat="44.59277" lon="0.88341">
        <ele>151</ele>
        <time>2018-03-03T15:42:40.511Z</time>
      </trkpt>
      <trkpt lat="44.59273" lon="0.88336">
        <ele>151</ele>
        <time>2018-03-03T15:42:41.511Z</time>
      </trkpt>
      <trkpt lat="44.59268" lon="0.88331">
        <ele>151</ele>
        <time>2018-03-03T15:42:42.511Z</time>
      </trkpt>
      <trkpt lat="44.59264" lon="0.88326">
        <ele>150</ele>
        <time>2018-03-03T15:42:43.511Z</time>
      </trkpt>
      <trkpt lat="44.5926" lon="0.88321">
        <ele>150</ele>
        <time>2018-03-03T15:42:44.511Z</time>
      </trkpt>
      <trkpt lat="44.59256" lon="0.88316">
        <ele>150</ele>
        <time>2018-03-03T15:42:45.511Z</time>
      </trkpt>
      <trkpt lat="44.59251" lon="0.88312">
        <ele>150</ele>
        <time>2018-03-03T15:42:46.511Z</time>
      </trkpt>
      <trkpt lat="44.59246" lon="0.88308">
        <ele>150</ele>
        <time>2018-03-03T15:42:47.511Z</time>
      </trkpt>
      <trkpt lat="44.5924" lon="0.88306">
        <ele>150</ele>
        <time>2018-03-03T15:42:48.511Z</time>
      </trkpt>
      <trkpt lat="44.59235" lon="0.88304">
        <ele>150</ele>
        <time>2018-03-03T15:42:49.511Z</time>
      </trkpt>
      <trkpt lat="44.59229" lon="0.88303">
        <ele>150</ele>
        <time>2018-03-03T15:42:50.511Z</time>
      </trkpt>
      <trkpt lat="44.59223" lon="0.88302">
        <ele>150</ele>
        <time>2018-03-03T15:42:51.511Z</time>
      </trkpt>
      <trkpt lat="44.59217" lon="0.88301">
        <ele>150</ele>
        <time>2018-03-03T15:42:52.511Z</time>
      </trkpt>
      <trkpt lat="44.59211" lon="0.88301">
        <ele>151</ele>
        <time>2018-03-03T15:42:53.511Z</time>
      </trkpt>
      <trkpt lat="44.59206" lon="0.883">
        <ele>151</ele>
        <time>2018-03-03T15:42:54.511Z</time>
      </trkpt>
      <trkpt lat="44.592" lon="0.88299">
        <ele>151</ele>
        <time>2018-03-03T15:42:55.511Z</time>
      </trkpt>
      <trkpt lat="44.59195" lon="0.88298">
        <ele>151</ele>
        <time>2018-03-03T15:42:56.511Z</time>
      </trkpt>
      <trkpt lat="44.59189" lon="0.88297">
        <ele>152</ele>
        <time>2018-03-03T15:42:57.511Z</time>
      </trkpt>
      <trkpt lat="44.59184" lon="0.88296">
        <ele>152</ele>
        <time>2018-03-03T15:42:58.511Z</time>
      </trkpt>
      <trkpt lat="44.59179" lon="0.88295">
        <ele>152</ele>
        <time>2018-03-03T15:42:59.511Z</time>
      </trkpt>
      <trkpt lat="44.59174" lon="0.88294">
        <ele>152</ele>
        <time>2018-03-03T15:43:00.511Z</time>
      </trkpt>
      <trkpt lat="44.5917" lon="0.88294">
        <ele>152</ele>
        <time>2018-03-03T15:43:01.511Z</time>
      </trkpt>
      <trkpt lat="44.59166" lon="0.88293">
        <ele>152</ele>
        <time>2018-03-03T15:43:02.511Z</time>
      </trkpt>
      <trkpt lat="44.59162" lon="0.88293">
        <ele>152</ele>
        <time>2018-03-03T15:43:03.511Z</time>
      </trkpt>
      <trkpt lat="44.59157" lon="0.88293">
        <ele>152</ele>
        <time>2018-03-03T15:43:04.511Z</time>
      </trkpt>
      <trkpt lat="44.59153" lon="0.88292">
        <ele>152</ele>
        <time>2018-03-03T15:43:05.511Z</time>
      </trkpt>
      <trkpt lat="44.59149" lon="0.88292">
        <ele>151</ele>
        <time>2018-03-03T15:43:06.511Z</time>
      </trkpt>
      <trkpt lat="44.59145" lon="0.88291">
        <ele>151</ele>
        <time>2018-03-03T15:43:07.511Z</time>
      </trkpt>
      <trkpt lat="44.5914" lon="0.8829">
        <ele>151</ele>
        <time>2018-03-03T15:43:08.511Z</time>
      </trkpt>
      <trkpt lat="44.59135" lon="0.88289">
        <ele>150</ele>
        <time>2018-03-03T15:43:09.511Z</time>
      </trkpt>
      <trkpt lat="44.5913" lon="0.88288">
        <ele>149</ele>
        <time>2018-03-03T15:43:10.511Z</time>
      </trkpt>
      <trkpt lat="44.59124" lon="0.88286">
        <ele>149</ele>
        <time>2018-03-03T15:43:11.511Z</time>
      </trkpt>
      <trkpt lat="44.59119" lon="0.88285">
        <ele>149</ele>
        <time>2018-03-03T15:43:12.511Z</time>
      </trkpt>
      <trkpt lat="44.59113" lon="0.88283">
        <ele>149</ele>
        <time>2018-03-03T15:43:13.511Z</time>
      </trkpt>
      <trkpt lat="44.59107" lon="0.8828">
        <ele>149</ele>
        <time>2018-03-03T15:43:14.511Z</time>
      </trkpt>
      <trkpt lat="44.59101" lon="0.88278">
        <ele>149</ele>
        <time>2018-03-03T15:43:15.511Z</time>
      </trkpt>
      <trkpt lat="44.59096" lon="0.88276">
        <ele>149</ele>
        <time>2018-03-03T15:43:16.511Z</time>
      </trkpt>
      <trkpt lat="44.5909" lon="0.88273">
        <ele>149</ele>
        <time>2018-03-03T15:43:17.511Z</time>
      </trkpt>
      <trkpt lat="44.59085" lon="0.88271">
        <ele>149</ele>
        <time>2018-03-03T15:43:18.511Z</time>
      </trkpt>
      <trkpt lat="44.59079" lon="0.88268">
        <ele>149</ele>
        <time>2018-03-03T15:43:19.511Z</time>
      </trkpt>
      <trkpt lat="44.59074" lon="0.88266">
        <ele>150</ele>
        <time>2018-03-03T15:43:20.511Z</time>
      </trkpt>
      <trkpt lat="44.5907" lon="0.88263">
        <ele>150</ele>
        <time>2018-03-03T15:43:21.511Z</time>
      </trkpt>
      <trkpt lat="44.59065" lon="0.88261">
        <ele>151</ele>
        <time>2018-03-03T15:43:22.511Z</time>
      </trkpt>
      <trkpt lat="44.59061" lon="0.88259">
        <ele>151</ele>
        <time>2018-03-03T15:43:23.511Z</time>
      </trkpt>
      <trkpt lat="44.59057" lon="0.88256">
        <ele>151</ele>
        <time>2018-03-03T15:43:24.511Z</time>
      </trkpt>
      <trkpt lat="44.59054" lon="0.88254">
        <ele>152</ele>
        <time>2018-03-03T15:43:25.511Z</time>
      </trkpt>
      <trkpt lat="44.59051" lon="0.88253">
        <ele>152</ele>
        <time>2018-03-03T15:43:26.511Z</time>
      </trkpt>
      <trkpt lat="44.59048" lon="0.88251">
        <ele>152</ele>
        <time>2018-03-03T15:43:27.511Z</time>
      </trkpt>
      <trkpt lat="44.59045" lon="0.8825">
        <ele>153</ele>
        <time>2018-03-03T15:43:28.511Z</time>
      </trkpt>
      <trkpt lat="44.59043" lon="0.88249">
        <ele>153</ele>
        <time>2018-03-03T15:43:29.511Z</time>
      </trkpt>
      <trkpt lat="44.59041" lon="0.88249">
        <ele>153</ele>
        <time>2018-03-03T15:43:30.511Z</time>
      </trkpt>
      <trkpt lat="44.59038" lon="0.88248">
        <ele>153</ele>
        <time>2018-03-03T15:43:31.511Z</time>
      </trkpt>
      <trkpt lat="44.59036" lon="0.88246">
        <ele>153</ele>
        <time>2018-03-03T15:43:32.511Z</time>
      </trkpt>
      <trkpt lat="44.59034" lon="0.88244">
        <ele>153</ele>
        <time>2018-03-03T15:43:33.511Z</time>
      </trkpt>
      <trkpt lat="44.59032" lon="0.88241">
        <ele>154</ele>
        <time>2018-03-03T15:43:34.511Z</time>
      </trkpt>
      <trkpt lat="44.5903" lon="0.88238">
        <ele>154</ele>
        <time>2018-03-03T15:43:35.511Z</time>
      </trkpt>
      <trkpt lat="44.59028" lon="0.88235">
        <ele>154</ele>
        <time>2018-03-03T15:43:36.511Z</time>
      </trkpt>
      <trkpt lat="44.59027" lon="0.88232">
        <ele>154</ele>
        <time>2018-03-03T15:43:37.511Z</time>
      </trkpt>
      <trkpt lat="44.59026" lon="0.8823">
        <ele>154</ele>
        <time>2018-03-03T15:43:38.511Z</time>
      </trkpt>
      <trkpt lat="44.59026" lon="0.88227">
        <ele>154</ele>
        <time>2018-03-03T15:43:39.511Z</time>
      </trkpt>
      <trkpt lat="44.59026" lon="0.88225">
        <ele>155</ele>
        <time>2018-03-03T15:43:40.511Z</time>
      </trkpt>
      <trkpt lat="44.59025" lon="0.88223">
        <ele>155</ele>
        <time>2018-03-03T15:43:41.511Z</time>
      </trkpt>
      <trkpt lat="44.59025" lon="0.88222">
        <ele>155</ele>
        <time>2018-03-03T15:43:42.511Z</time>
      </trkpt>
      <trkpt lat="44.59025" lon="0.88221">
        <ele>155</ele>
        <time>2018-03-03T15:43:43.511Z</time>
      </trkpt>
      <trkpt lat="44.59025" lon="0.88221">
        <ele>155</ele>
        <time>2018-03-03T15:43:44.511Z</time>
      </trkpt>
      <trkpt lat="44.59025" lon="0.8822">
        <ele>156</ele>
        <time>2018-03-03T15:43:45.511Z</time>
      </trkpt>
      <trkpt lat="44.59025" lon="0.8822">
        <ele>156</ele>
        <time>2018-03-03T15:43:46.511Z</time>
      </trkpt>
      <trkpt lat="44.59025" lon="0.8822">
        <ele>156</ele>
        <time>2018-03-03T15:43:47.511Z</time>
      </trkpt>
      <trkpt lat="44.59025" lon="0.8822">
        <ele>156</ele>
        <time>2018-03-03T15:43:48.511Z</time>
      </trkpt>
      <trkpt lat="44.59025" lon="0.8822">
        <ele>156</ele>
        <time>2018-03-03T15:43:49.511Z</time>
      </trkpt>
      <trkpt lat="44.59025" lon="0.88219">
        <ele>156</ele>
        <time>2018-03-03T15:43:50.511Z</time>
      </trkpt>
      <trkpt lat="44.59025" lon="0.88219">
        <ele>156</ele>
        <time>2018-03-03T15:43:51.511Z</time>
      </trkpt>
      <trkpt lat="44.59025" lon="0.88219">
        <ele>156</ele>
        <time>2018-03-03T15:43:52.511Z</time>
      </trkpt>
      <trkpt lat="44.59025" lon="0.88219">
        <ele>156</ele>
        <time>2018-03-03T15:43:53.511Z</time>
      </trkpt>
      <trkpt lat="44.59025" lon="0.88219">
        <ele>156</ele>
        <time>2018-03-03T15:43:54.511Z</time>
      </trkpt>
      <trkpt lat="44.59025" lon="0.88219">
        <ele>156</ele>
        <time>2018-03-03T15:43:55.511Z</time>
      </trkpt>
      <trkpt lat="44.59025" lon="0.88219">
        <ele>156</ele>
        <time>2018-03-03T15:43:56.511Z</time>
      </trkpt>
      <trkpt lat="44.59025" lon="0.88219">
        <ele>156</ele>
        <time>2018-03-03T15:43:57.511Z</time>
      </trkpt>
      <trkpt lat="44.59025" lon="0.88219">
        <ele>156</ele>
        <time>2018-03-03T15:43:58.511Z</time>
      </trkpt>
      <trkpt lat="44.59025" lon="0.88219">
        <ele>156</ele>
        <time>2018-03-03T15:43:59.511Z</time>
      </trkpt>
      <trkpt lat="44.59025" lon="0.88219">
        <ele>156</ele>
        <time>2018-03-03T15:44:00.511Z</time>
      </trkpt>
      <trkpt lat="44.59025" lon="0.88219">
        <ele>156</ele>
        <time>2018-03-03T15:44:01.511Z</time>
      </trkpt>
      <trkpt lat="44.59025" lon="0.88219">
        <ele>156</ele>
        <time>2018-03-03T15:44:02.511Z</time>
      </trkpt>
      <trkpt lat="44.59025" lon="0.88219">
        <ele>156</ele>
        <time>2018-03-03T15:44:03.511Z</time>
      </trkpt>
      <trkpt lat="44.59025" lon="0.88219">
        <ele>156</ele>
        <time>2018-03-03T15:44:04.511Z</time>
      </trkpt>
      <trkpt lat="44.59025" lon="0.88219">
        <ele>156</ele>
        <time>2018-03-03T15:44:05.511Z</time>
      </trkpt>
      <trkpt lat="44.59025" lon="0.88219">
        <ele>156</ele>
        <time>2018-03-03T15:44:06.511Z</time>
      </trkpt>
      <trkpt lat="44.59025" lon="0.88219">
        <ele>156</ele>
        <time>2018-03-03T15:44:07.511Z</time>
      </trkpt>
      <trkpt lat="44.59025" lon="0.88219">
        <ele>156</ele>
        <time>2018-03-03T15:44:08.511Z</time>
      </trkpt>
      <trkpt lat="44.59025" lon="0.88219">
        <ele>156</ele>
        <time>2018-03-03T15:44:09.511Z</time>
      </trkpt>
      <trkpt lat="44.59025" lon="0.88219">
        <ele>156</ele>
        <time>2018-03-03T15:44:10.511Z</time>
      </trkpt>
      <trkpt lat="44.59025" lon="0.88219">
        <ele>156</ele>
        <time>2018-03-03T15:44:11.511Z</time>
      </trkpt>
      <trkpt lat="44.59025" lon="0.88219">
        <ele>156</ele>
        <time>2018-03-03T15:44:12.511Z</time>
      </trkpt>
      <trkpt lat="44.59025" lon="0.88219">
        <ele>156</ele>
        <time>2018-03-03T15:44:13.511Z</time>
      </trkpt>
      <trkpt lat="44.59025" lon="0.88219">
        <ele>156</ele>
        <time>2018-03-03T15:44:14.511Z</time>
      </trkpt>
      <trkpt lat="44.59025" lon="0.88219">
        <ele>156</ele>
        <time>2018-03-03T15:44:15.511Z</time>
      </trkpt>
      <trkpt lat="44.59025" lon="0.88219">
        <ele>157</ele>
        <time>2018-03-03T15:44:16.511Z</time>
      </trkpt>
      <trkpt lat="44.59025" lon="0.88219">
        <ele>156</ele>
        <time>2018-03-03T15:44:17.511Z</time>
      </trkpt>
      <trkpt lat="44.59025" lon="0.88219">
        <ele>156</ele>
        <time>2018-03-03T15:44:18.511Z</time>
      </trkpt>
      <trkpt lat="44.59025" lon="0.88219">
        <ele>156</ele>
        <time>2018-03-03T15:44:19.511Z</time>
      </trkpt>
      <trkpt lat="44.59025" lon="0.88219">
        <ele>156</ele>
        <time>2018-03-03T15:44:20.511Z</time>
      </trkpt>
      <trkpt lat="44.59025" lon="0.88219">
        <ele>156</ele>
        <time>2018-03-03T15:44:21.511Z</time>
      </trkpt>
      <trkpt lat="44.59025" lon="0.88219">
        <ele>157</ele>
        <time>2018-03-03T15:44:22.511Z</time>
      </trkpt>
      <trkpt lat="44.59025" lon="0.88219">
        <ele>157</ele>
        <time>2018-03-03T15:44:23.511Z</time>
      </trkpt>
      <trkpt lat="44.59024" lon="0.88219">
        <ele>156</ele>
        <time>2018-03-03T15:44:24.511Z</time>
      </trkpt>
      <trkpt lat="44.59024" lon="0.88218">
        <ele>157</ele>
        <time>2018-03-03T15:44:25.511Z</time>
      </trkpt>
      <trkpt lat="44.59023" lon="0.88216">
        <ele>157</ele>
        <time>2018-03-03T15:44:26.511Z</time>
      </trkpt>
      <trkpt lat="44.59021" lon="0.88214">
        <ele>157</ele>
        <time>2018-03-03T15:44:27.511Z</time>
      </trkpt>
      <trkpt lat="44.5902" lon="0.88212">
        <ele>157</ele>
        <time>2018-03-03T15:44:28.511Z</time>
      </trkpt>
      <trkpt lat="44.59019" lon="0.8821">
        <ele>157</ele>
        <time>2018-03-03T15:44:29.511Z</time>
      </trkpt>
      <trkpt lat="44.59017" lon="0.88207">
        <ele>157</ele>
        <time>2018-03-03T15:44:30.511Z</time>
      </trkpt>
      <trkpt lat="44.59015" lon="0.88204">
        <ele>157</ele>
        <time>2018-03-03T15:44:31.511Z</time>
      </trkpt>
      <trkpt lat="44.59013" lon="0.88201">
        <ele>158</ele>
        <time>2018-03-03T15:44:32.511Z</time>
      </trkpt>
      <trkpt lat="44.59012" lon="0.88198">
        <ele>158</ele>
        <time>2018-03-03T15:44:33.511Z</time>
      </trkpt>
      <trkpt lat="44.5901" lon="0.88196">
        <ele>158</ele>
        <time>2018-03-03T15:44:34.511Z</time>
      </trkpt>
      <trkpt lat="44.59008" lon="0.88193">
        <ele>158</ele>
        <time>2018-03-03T15:44:35.511Z</time>
      </trkpt>
      <trkpt lat="44.59006" lon="0.8819">
        <ele>159</ele>
        <time>2018-03-03T15:44:36.511Z</time>
      </trkpt>
      <trkpt lat="44.59004" lon="0.88188">
        <ele>159</ele>
        <time>2018-03-03T15:44:37.511Z</time>
      </trkpt>
      <trkpt lat="44.59002" lon="0.88186">
        <ele>159</ele>
        <time>2018-03-03T15:44:38.511Z</time>
      </trkpt>
      <trkpt lat="44.59" lon="0.88184">
        <ele>159</ele>
        <time>2018-03-03T15:44:39.511Z</time>
      </trkpt>
      <trkpt lat="44.58998" lon="0.88182">
        <ele>159</ele>
        <time>2018-03-03T15:44:40.511Z</time>
      </trkpt>
      <trkpt lat="44.58996" lon="0.88181">
        <ele>159</ele>
        <time>2018-03-03T15:44:41.511Z</time>
      </trkpt>
      <trkpt lat="44.58994" lon="0.88179">
        <ele>159</ele>
        <time>2018-03-03T15:44:42.511Z</time>
      </trkpt>
      <trkpt lat="44.58992" lon="0.88178">
        <ele>159</ele>
        <time>2018-03-03T15:44:43.511Z</time>
      </trkpt>
      <trkpt lat="44.5899" lon="0.88176">
        <ele>159</ele>
        <time>2018-03-03T15:44:44.511Z</time>
      </trkpt>
      <trkpt lat="44.58988" lon="0.88175">
        <ele>159</ele>
        <time>2018-03-03T15:44:45.511Z</time>
      </trkpt>
      <trkpt lat="44.58986" lon="0.88174">
        <ele>159</ele>
        <time>2018-03-03T15:44:46.511Z</time>
      </trkpt>
      <trkpt lat="44.58985" lon="0.88173">
        <ele>159</ele>
        <time>2018-03-03T15:44:47.511Z</time>
      </trkpt>
      <trkpt lat="44.58984" lon="0.88173">
        <ele>159</ele>
        <time>2018-03-03T15:44:48.511Z</time>
      </trkpt>
      <trkpt lat="44.58984" lon="0.88173">
        <ele>159</ele>
        <time>2018-03-03T15:44:49.511Z</time>
      </trkpt>
      <trkpt lat="44.58984" lon="0.88172">
        <ele>159</ele>
        <time>2018-03-03T15:44:50.511Z</time>
      </trkpt>
      <trkpt lat="44.58984" lon="0.88172">
        <ele>159</ele>
        <time>2018-03-03T15:44:51.511Z</time>
      </trkpt>
      <trkpt lat="44.58984" lon="0.88172">
        <ele>159</ele>
        <time>2018-03-03T15:44:52.511Z</time>
      </trkpt>
      <trkpt lat="44.58983" lon="0.88172">
        <ele>159</ele>
        <time>2018-03-03T15:44:53.511Z</time>
      </trkpt>
      <trkpt lat="44.58983" lon="0.88172">
        <ele>159</ele>
        <time>2018-03-03T15:44:54.511Z</time>
      </trkpt>
      <trkpt lat="44.58983" lon="0.88172">
        <ele>159</ele>
        <time>2018-03-03T15:44:55.511Z</time>
      </trkpt>
      <trkpt lat="44.58983" lon="0.88172">
        <ele>159</ele>
        <time>2018-03-03T15:44:56.511Z</time>
      </trkpt>
      <trkpt lat="44.58982" lon="0.88171">
        <ele>158</ele>
        <time>2018-03-03T15:44:57.511Z</time>
      </trkpt>
      <trkpt lat="44.58979" lon="0.8817">
        <ele>158</ele>
        <time>2018-03-03T15:44:58.511Z</time>
      </trkpt>
      <trkpt lat="44.58977" lon="0.88167">
        <ele>158</ele>
        <time>2018-03-03T15:44:59.511Z</time>
      </trkpt>
      <trkpt lat="44.58974" lon="0.88164">
        <ele>158</ele>
        <time>2018-03-03T15:45:00.511Z</time>
      </trkpt>
      <trkpt lat="44.5897" lon="0.88159">
        <ele>158</ele>
        <time>2018-03-03T15:45:01.511Z</time>
      </trkpt>
      <trkpt lat="44.58966" lon="0.88154">
        <ele>157</ele>
        <time>2018-03-03T15:45:02.511Z</time>
      </trkpt>
      <trkpt lat="44.58961" lon="0.88149">
        <ele>157</ele>
        <time>2018-03-03T15:45:03.511Z</time>
      </trkpt>
      <trkpt lat="44.58956" lon="0.88142">
        <ele>156</ele>
        <time>2018-03-03T15:45:04.511Z</time>
      </trkpt>
      <trkpt lat="44.58951" lon="0.88135">
        <ele>156</ele>
        <time>2018-03-03T15:45:05.511Z</time>
      </trkpt>
      <trkpt lat="44.58945" lon="0.88126">
        <ele>155</ele>
        <time>2018-03-03T15:45:06.511Z</time>
      </trkpt>
      <trkpt lat="44.58939" lon="0.88118">
        <ele>154</ele>
        <time>2018-03-03T15:45:07.511Z</time>
      </trkpt>
      <trkpt lat="44.58932" lon="0.88108">
        <ele>153</ele>
        <time>2018-03-03T15:45:08.511Z</time>
      </trkpt>
      <trkpt lat="44.58925" lon="0.88099">
        <ele>152</ele>
        <time>2018-03-03T15:45:09.511Z</time>
      </trkpt>
      <trkpt lat="44.58918" lon="0.8809">
        <ele>151</ele>
        <time>2018-03-03T15:45:10.511Z</time>
      </trkpt>
      <trkpt lat="44.58911" lon="0.88082">
        <ele>150</ele>
        <time>2018-03-03T15:45:11.511Z</time>
      </trkpt>
      <trkpt lat="44.58904" lon="0.88075">
        <ele>149</ele>
        <time>2018-03-03T15:45:12.511Z</time>
      </trkpt>
      <trkpt lat="44.58897" lon="0.8807">
        <ele>148</ele>
        <time>2018-03-03T15:45:13.511Z</time>
      </trkpt>
      <trkpt lat="44.58891" lon="0.88066">
        <ele>147</ele>
        <time>2018-03-03T15:45:14.511Z</time>
      </trkpt>
      <trkpt lat="44.58886" lon="0.88059">
        <ele>147</ele>
        <time>2018-03-03T15:45:15.511Z</time>
      </trkpt>
      <trkpt lat="44.58881" lon="0.88051">
        <ele>146</ele>
        <time>2018-03-03T15:45:16.511Z</time>
      </trkpt>
      <trkpt lat="44.58878" lon="0.88043">
        <ele>146</ele>
        <time>2018-03-03T15:45:17.511Z</time>
      </trkpt>
      <trkpt lat="44.58874" lon="0.88035">
        <ele>146</ele>
        <time>2018-03-03T15:45:18.511Z</time>
      </trkpt>
      <trkpt lat="44.5887" lon="0.88028">
        <ele>145</ele>
        <time>2018-03-03T15:45:19.511Z</time>
      </trkpt>
      <trkpt lat="44.58866" lon="0.88021">
        <ele>145</ele>
        <time>2018-03-03T15:45:20.511Z</time>
      </trkpt>
      <trkpt lat="44.58863" lon="0.88013">
        <ele>145</ele>
        <time>2018-03-03T15:45:21.511Z</time>
      </trkpt>
      <trkpt lat="44.58859" lon="0.88006">
        <ele>144</ele>
        <time>2018-03-03T15:45:22.511Z</time>
      </trkpt>
      <trkpt lat="44.58856" lon="0.88">
        <ele>144</ele>
        <time>2018-03-03T15:45:23.511Z</time>
      </trkpt>
      <trkpt lat="44.58852" lon="0.87993">
        <ele>144</ele>
        <time>2018-03-03T15:45:24.511Z</time>
      </trkpt>
      <trkpt lat="44.58849" lon="0.87987">
        <ele>144</ele>
        <time>2018-03-03T15:45:25.511Z</time>
      </trkpt>
      <trkpt lat="44.58845" lon="0.87981">
        <ele>144</ele>
        <time>2018-03-03T15:45:26.511Z</time>
      </trkpt>
      <trkpt lat="44.58842" lon="0.87975">
        <ele>144</ele>
        <time>2018-03-03T15:45:27.511Z</time>
      </trkpt>
      <trkpt lat="44.58839" lon="0.87969">
        <ele>145</ele>
        <time>2018-03-03T15:45:28.511Z</time>
      </trkpt>
      <trkpt lat="44.58835" lon="0.87964">
        <ele>145</ele>
        <time>2018-03-03T15:45:29.511Z</time>
      </trkpt>
      <trkpt lat="44.58832" lon="0.87959">
        <ele>145</ele>
        <time>2018-03-03T15:45:30.511Z</time>
      </trkpt>
      <trkpt lat="44.58828" lon="0.87955">
        <ele>145</ele>
        <time>2018-03-03T15:45:31.511Z</time>
      </trkpt>
      <trkpt lat="44.58824" lon="0.87951">
        <ele>145</ele>
        <time>2018-03-03T15:45:32.511Z</time>
      </trkpt>
      <trkpt lat="44.58821" lon="0.87947">
        <ele>145</ele>
        <time>2018-03-03T15:45:33.511Z</time>
      </trkpt>
      <trkpt lat="44.58817" lon="0.87944">
        <ele>145</ele>
        <time>2018-03-03T15:45:34.511Z</time>
      </trkpt>
      <trkpt lat="44.58813" lon="0.87941">
        <ele>145</ele>
        <time>2018-03-03T15:45:35.511Z</time>
      </trkpt>
      <trkpt lat="44.58809" lon="0.87938">
        <ele>145</ele>
        <time>2018-03-03T15:45:36.511Z</time>
      </trkpt>
      <trkpt lat="44.58805" lon="0.87936">
        <ele>145</ele>
        <time>2018-03-03T15:45:37.511Z</time>
      </trkpt>
      <trkpt lat="44.58801" lon="0.87933">
        <ele>145</ele>
        <time>2018-03-03T15:45:38.511Z</time>
      </trkpt>
      <trkpt lat="44.58797" lon="0.87931">
        <ele>145</ele>
        <time>2018-03-03T15:45:39.511Z</time>
      </trkpt>
      <trkpt lat="44.58792" lon="0.8793">
        <ele>145</ele>
        <time>2018-03-03T15:45:40.511Z</time>
      </trkpt>
      <trkpt lat="44.58788" lon="0.87928">
        <ele>144</ele>
        <time>2018-03-03T15:45:41.511Z</time>
      </trkpt>
      <trkpt lat="44.58784" lon="0.87927">
        <ele>144</ele>
        <time>2018-03-03T15:45:42.511Z</time>
      </trkpt>
      <trkpt lat="44.58779" lon="0.87925">
        <ele>144</ele>
        <time>2018-03-03T15:45:43.511Z</time>
      </trkpt>
      <trkpt lat="44.58774" lon="0.87924">
        <ele>144</ele>
        <time>2018-03-03T15:45:44.511Z</time>
      </trkpt>
      <trkpt lat="44.5877" lon="0.87923">
        <ele>144</ele>
        <time>2018-03-03T15:45:45.511Z</time>
      </trkpt>
      <trkpt lat="44.58765" lon="0.87921">
        <ele>144</ele>
        <time>2018-03-03T15:45:46.511Z</time>
      </trkpt>
      <trkpt lat="44.58761" lon="0.8792">
        <ele>144</ele>
        <time>2018-03-03T15:45:47.511Z</time>
      </trkpt>
      <trkpt lat="44.58757" lon="0.87919">
        <ele>144</ele>
        <time>2018-03-03T15:45:48.511Z</time>
      </trkpt>
      <trkpt lat="44.58752" lon="0.87917">
        <ele>144</ele>
        <time>2018-03-03T15:45:49.511Z</time>
      </trkpt>
      <trkpt lat="44.58748" lon="0.87916">
        <ele>144</ele>
        <time>2018-03-03T15:45:50.511Z</time>
      </trkpt>
      <trkpt lat="44.58744" lon="0.87914">
        <ele>144</ele>
        <time>2018-03-03T15:45:51.511Z</time>
      </trkpt>
      <trkpt lat="44.5874" lon="0.87912">
        <ele>144</ele>
        <time>2018-03-03T15:45:52.511Z</time>
      </trkpt>
      <trkpt lat="44.58736" lon="0.87911">
        <ele>144</ele>
        <time>2018-03-03T15:45:53.511Z</time>
      </trkpt>
      <trkpt lat="44.58732" lon="0.87909">
        <ele>144</ele>
        <time>2018-03-03T15:45:54.511Z</time>
      </trkpt>
      <trkpt lat="44.58728" lon="0.87908">
        <ele>144</ele>
        <time>2018-03-03T15:45:55.511Z</time>
      </trkpt>
      <trkpt lat="44.58723" lon="0.87906">
        <ele>144</ele>
        <time>2018-03-03T15:45:56.511Z</time>
      </trkpt>
      <trkpt lat="44.58719" lon="0.87905">
        <ele>144</ele>
        <time>2018-03-03T15:45:57.511Z</time>
      </trkpt>
      <trkpt lat="44.58714" lon="0.87904">
        <ele>144</ele>
        <time>2018-03-03T15:45:58.511Z</time>
      </trkpt>
      <trkpt lat="44.5871" lon="0.87903">
        <ele>143</ele>
        <time>2018-03-03T15:45:59.511Z</time>
      </trkpt>
      <trkpt lat="44.58705" lon="0.87902">
        <ele>143</ele>
        <time>2018-03-03T15:46:00.511Z</time>
      </trkpt>
      <trkpt lat="44.587" lon="0.87901">
        <ele>143</ele>
        <time>2018-03-03T15:46:01.511Z</time>
      </trkpt>
      <trkpt lat="44.58696" lon="0.879">
        <ele>143</ele>
        <time>2018-03-03T15:46:02.511Z</time>
      </trkpt>
      <trkpt lat="44.58691" lon="0.879">
        <ele>143</ele>
        <time>2018-03-03T15:46:03.511Z</time>
      </trkpt>
      <trkpt lat="44.58687" lon="0.879">
        <ele>143</ele>
        <time>2018-03-03T15:46:04.511Z</time>
      </trkpt>
      <trkpt lat="44.58684" lon="0.879">
        <ele>143</ele>
        <time>2018-03-03T15:46:05.511Z</time>
      </trkpt>
      <trkpt lat="44.5868" lon="0.879">
        <ele>143</ele>
        <time>2018-03-03T15:46:06.511Z</time>
      </trkpt>
      <trkpt lat="44.58677" lon="0.879">
        <ele>143</ele>
        <time>2018-03-03T15:46:07.511Z</time>
      </trkpt>
      <trkpt lat="44.58673" lon="0.87901">
        <ele>143</ele>
        <time>2018-03-03T15:46:08.511Z</time>
      </trkpt>
      <trkpt lat="44.58669" lon="0.87901">
        <ele>143</ele>
        <time>2018-03-03T15:46:09.511Z</time>
      </trkpt>
      <trkpt lat="44.58666" lon="0.87902">
        <ele>143</ele>
        <time>2018-03-03T15:46:10.511Z</time>
      </trkpt>
      <trkpt lat="44.58662" lon="0.87903">
        <ele>143</ele>
        <time>2018-03-03T15:46:11.511Z</time>
      </trkpt>
      <trkpt lat="44.58658" lon="0.87903">
        <ele>143</ele>
        <time>2018-03-03T15:46:12.511Z</time>
      </trkpt>
      <trkpt lat="44.58654" lon="0.87904">
        <ele>143</ele>
        <time>2018-03-03T15:46:13.511Z</time>
      </trkpt>
      <trkpt lat="44.5865" lon="0.87905">
        <ele>143</ele>
        <time>2018-03-03T15:46:14.511Z</time>
      </trkpt>
      <trkpt lat="44.58647" lon="0.87905">
        <ele>143</ele>
        <time>2018-03-03T15:46:15.511Z</time>
      </trkpt>
      <trkpt lat="44.58643" lon="0.87906">
        <ele>144</ele>
        <time>2018-03-03T15:46:16.511Z</time>
      </trkpt>
      <trkpt lat="44.58639" lon="0.87906">
        <ele>144</ele>
        <time>2018-03-03T15:46:17.511Z</time>
      </trkpt>
      <trkpt lat="44.58636" lon="0.87906">
        <ele>144</ele>
        <time>2018-03-03T15:46:18.511Z</time>
      </trkpt>
      <trkpt lat="44.58632" lon="0.87906">
        <ele>144</ele>
        <time>2018-03-03T15:46:19.511Z</time>
      </trkpt>
      <trkpt lat="44.58629" lon="0.87906">
        <ele>144</ele>
        <time>2018-03-03T15:46:20.511Z</time>
      </trkpt>
      <trkpt lat="44.58625" lon="0.87906">
        <ele>144</ele>
        <time>2018-03-03T15:46:21.511Z</time>
      </trkpt>
      <trkpt lat="44.58622" lon="0.87905">
        <ele>144</ele>
        <time>2018-03-03T15:46:22.511Z</time>
      </trkpt>
      <trkpt lat="44.58619" lon="0.87904">
        <ele>144</ele>
        <time>2018-03-03T15:46:23.511Z</time>
      </trkpt>
      <trkpt lat="44.58615" lon="0.87903">
        <ele>144</ele>
        <time>2018-03-03T15:46:24.511Z</time>
      </trkpt>
      <trkpt lat="44.58612" lon="0.87902">
        <ele>145</ele>
        <time>2018-03-03T15:46:25.511Z</time>
      </trkpt>
      <trkpt lat="44.58609" lon="0.87901">
        <ele>145</ele>
        <time>2018-03-03T15:46:26.511Z</time>
      </trkpt>
      <trkpt lat="44.58605" lon="0.87899">
        <ele>145</ele>
        <time>2018-03-03T15:46:27.511Z</time>
      </trkpt>
      <trkpt lat="44.58602" lon="0.87897">
        <ele>145</ele>
        <time>2018-03-03T15:46:28.511Z</time>
      </trkpt>
      <trkpt lat="44.58599" lon="0.87895">
        <ele>145</ele>
        <time>2018-03-03T15:46:29.511Z</time>
      </trkpt>
      <trkpt lat="44.58596" lon="0.87892">
        <ele>145</ele>
        <time>2018-03-03T15:46:30.511Z</time>
      </trkpt>
      <trkpt lat="44.58592" lon="0.8789">
        <ele>145</ele>
        <time>2018-03-03T15:46:31.511Z</time>
      </trkpt>
      <trkpt lat="44.58589" lon="0.87887">
        <ele>145</ele>
        <time>2018-03-03T15:46:32.511Z</time>
      </trkpt>
      <trkpt lat="44.58586" lon="0.87884">
        <ele>145</ele>
        <time>2018-03-03T15:46:33.511Z</time>
      </trkpt>
      <trkpt lat="44.58583" lon="0.87881">
        <ele>145</ele>
        <time>2018-03-03T15:46:34.511Z</time>
      </trkpt>
      <trkpt lat="44.5858" lon="0.87878">
        <ele>145</ele>
        <time>2018-03-03T15:46:35.511Z</time>
      </trkpt>
      <trkpt lat="44.58577" lon="0.87876">
        <ele>145</ele>
        <time>2018-03-03T15:46:36.511Z</time>
      </trkpt>
      <trkpt lat="44.58574" lon="0.87873">
        <ele>145</ele>
        <time>2018-03-03T15:46:37.511Z</time>
      </trkpt>
      <trkpt lat="44.58571" lon="0.8787">
        <ele>145</ele>
        <time>2018-03-03T15:46:38.511Z</time>
      </trkpt>
      <trkpt lat="44.58569" lon="0.87868">
        <ele>145</ele>
        <time>2018-03-03T15:46:39.511Z</time>
      </trkpt>
      <trkpt lat="44.58566" lon="0.87866">
        <ele>145</ele>
        <time>2018-03-03T15:46:40.511Z</time>
      </trkpt>
      <trkpt lat="44.58563" lon="0.87864">
        <ele>145</ele>
        <time>2018-03-03T15:46:41.511Z</time>
      </trkpt>
      <trkpt lat="44.58561" lon="0.87863">
        <ele>145</ele>
        <time>2018-03-03T15:46:42.511Z</time>
      </trkpt>
      <trkpt lat="44.58559" lon="0.87862">
        <ele>146</ele>
        <time>2018-03-03T15:46:43.511Z</time>
      </trkpt>
      <trkpt lat="44.58556" lon="0.87862">
        <ele>146</ele>
        <time>2018-03-03T15:46:44.511Z</time>
      </trkpt>
      <trkpt lat="44.58554" lon="0.87862">
        <ele>146</ele>
        <time>2018-03-03T15:46:45.511Z</time>
      </trkpt>
      <trkpt lat="44.58551" lon="0.87862">
        <ele>146</ele>
        <time>2018-03-03T15:46:46.511Z</time>
      </trkpt>
      <trkpt lat="44.58549" lon="0.87863">
        <ele>146</ele>
        <time>2018-03-03T15:46:47.511Z</time>
      </trkpt>
      <trkpt lat="44.58546" lon="0.87863">
        <ele>147</ele>
        <time>2018-03-03T15:46:48.511Z</time>
      </trkpt>
      <trkpt lat="44.58544" lon="0.87864">
        <ele>147</ele>
        <time>2018-03-03T15:46:49.511Z</time>
      </trkpt>
      <trkpt lat="44.58541" lon="0.87865">
        <ele>147</ele>
        <time>2018-03-03T15:46:50.511Z</time>
      </trkpt>
      <trkpt lat="44.58539" lon="0.87866">
        <ele>147</ele>
        <time>2018-03-03T15:46:51.511Z</time>
      </trkpt>
      <trkpt lat="44.58536" lon="0.87867">
        <ele>148</ele>
        <time>2018-03-03T15:46:52.511Z</time>
      </trkpt>
      <trkpt lat="44.58533" lon="0.87867">
        <ele>148</ele>
        <time>2018-03-03T15:46:53.511Z</time>
      </trkpt>
      <trkpt lat="44.58531" lon="0.87868">
        <ele>148</ele>
        <time>2018-03-03T15:46:54.511Z</time>
      </trkpt>
      <trkpt lat="44.58528" lon="0.87869">
        <ele>149</ele>
        <time>2018-03-03T15:46:55.511Z</time>
      </trkpt>
      <trkpt lat="44.58525" lon="0.87869">
        <ele>149</ele>
        <time>2018-03-03T15:46:56.511Z</time>
      </trkpt>
      <trkpt lat="44.58522" lon="0.8787">
        <ele>150</ele>
        <time>2018-03-03T15:46:57.511Z</time>
      </trkpt>
      <trkpt lat="44.5852" lon="0.8787">
        <ele>150</ele>
        <time>2018-03-03T15:46:58.511Z</time>
      </trkpt>
      <trkpt lat="44.58517" lon="0.87871">
        <ele>151</ele>
        <time>2018-03-03T15:46:59.511Z</time>
      </trkpt>
      <trkpt lat="44.58514" lon="0.87872">
        <ele>151</ele>
        <time>2018-03-03T15:47:00.511Z</time>
      </trkpt>
      <trkpt lat="44.58512" lon="0.87872">
        <ele>151</ele>
        <time>2018-03-03T15:47:01.511Z</time>
      </trkpt>
      <trkpt lat="44.58509" lon="0.87873">
        <ele>152</ele>
        <time>2018-03-03T15:47:02.511Z</time>
      </trkpt>
      <trkpt lat="44.58507" lon="0.87874">
        <ele>152</ele>
        <time>2018-03-03T15:47:03.511Z</time>
      </trkpt>
      <trkpt lat="44.58504" lon="0.87875">
        <ele>153</ele>
        <time>2018-03-03T15:47:04.511Z</time>
      </trkpt>
      <trkpt lat="44.58502" lon="0.87876">
        <ele>153</ele>
        <time>2018-03-03T15:47:05.511Z</time>
      </trkpt>
      <trkpt lat="44.58499" lon="0.87877">
        <ele>154</ele>
        <time>2018-03-03T15:47:06.511Z</time>
      </trkpt>
      <trkpt lat="44.58496" lon="0.87878">
        <ele>154</ele>
        <time>2018-03-03T15:47:07.511Z</time>
      </trkpt>
      <trkpt lat="44.58494" lon="0.8788">
        <ele>154</ele>
        <time>2018-03-03T15:47:08.511Z</time>
      </trkpt>
      <trkpt lat="44.58491" lon="0.87881">
        <ele>155</ele>
        <time>2018-03-03T15:47:09.511Z</time>
      </trkpt>
      <trkpt lat="44.58488" lon="0.87882">
        <ele>155</ele>
        <time>2018-03-03T15:47:10.511Z</time>
      </trkpt>
      <trkpt lat="44.58486" lon="0.87884">
        <ele>156</ele>
        <time>2018-03-03T15:47:11.511Z</time>
      </trkpt>
      <trkpt lat="44.58483" lon="0.87885">
        <ele>156</ele>
        <time>2018-03-03T15:47:12.511Z</time>
      </trkpt>
      <trkpt lat="44.58481" lon="0.87886">
        <ele>157</ele>
        <time>2018-03-03T15:47:13.511Z</time>
      </trkpt>
      <trkpt lat="44.58478" lon="0.87887">
        <ele>157</ele>
        <time>2018-03-03T15:47:14.511Z</time>
      </trkpt>
      <trkpt lat="44.58476" lon="0.87888">
        <ele>158</ele>
        <time>2018-03-03T15:47:15.511Z</time>
      </trkpt>
      <trkpt lat="44.58473" lon="0.87889">
        <ele>158</ele>
        <time>2018-03-03T15:47:16.511Z</time>
      </trkpt>
      <trkpt lat="44.58471" lon="0.8789">
        <ele>159</ele>
        <time>2018-03-03T15:47:17.511Z</time>
      </trkpt>
      <trkpt lat="44.58469" lon="0.87891">
        <ele>159</ele>
        <time>2018-03-03T15:47:18.511Z</time>
      </trkpt>
      <trkpt lat="44.58466" lon="0.87892">
        <ele>159</ele>
        <time>2018-03-03T15:47:19.511Z</time>
      </trkpt>
      <trkpt lat="44.58464" lon="0.87893">
        <ele>160</ele>
        <time>2018-03-03T15:47:20.511Z</time>
      </trkpt>
      <trkpt lat="44.58461" lon="0.87893">
        <ele>160</ele>
        <time>2018-03-03T15:47:21.511Z</time>
      </trkpt>
      <trkpt lat="44.58459" lon="0.87893">
        <ele>160</ele>
        <time>2018-03-03T15:47:22.511Z</time>
      </trkpt>
      <trkpt lat="44.58456" lon="0.87894">
        <ele>160</ele>
        <time>2018-03-03T15:47:23.511Z</time>
      </trkpt>
      <trkpt lat="44.58454" lon="0.87894">
        <ele>161</ele>
        <time>2018-03-03T15:47:24.511Z</time>
      </trkpt>
      <trkpt lat="44.58451" lon="0.87893">
        <ele>161</ele>
        <time>2018-03-03T15:47:25.511Z</time>
      </trkpt>
      <trkpt lat="44.58449" lon="0.87893">
        <ele>161</ele>
        <time>2018-03-03T15:47:26.511Z</time>
      </trkpt>
      <trkpt lat="44.58446" lon="0.87893">
        <ele>162</ele>
        <time>2018-03-03T15:47:27.511Z</time>
      </trkpt>
      <trkpt lat="44.58443" lon="0.87892">
        <ele>162</ele>
        <time>2018-03-03T15:47:28.511Z</time>
      </trkpt>
      <trkpt lat="44.58441" lon="0.87891">
        <ele>162</ele>
        <time>2018-03-03T15:47:29.511Z</time>
      </trkpt>
      <trkpt lat="44.58438" lon="0.8789">
        <ele>162</ele>
        <time>2018-03-03T15:47:30.511Z</time>
      </trkpt>
      <trkpt lat="44.58436" lon="0.87889">
        <ele>163</ele>
        <time>2018-03-03T15:47:31.511Z</time>
      </trkpt>
      <trkpt lat="44.58433" lon="0.87888">
        <ele>163</ele>
        <time>2018-03-03T15:47:32.511Z</time>
      </trkpt>
      <trkpt lat="44.58431" lon="0.87886">
        <ele>163</ele>
        <time>2018-03-03T15:47:33.511Z</time>
      </trkpt>
      <trkpt lat="44.58429" lon="0.87885">
        <ele>163</ele>
        <time>2018-03-03T15:47:34.511Z</time>
      </trkpt>
      <trkpt lat="44.58427" lon="0.87883">
        <ele>163</ele>
        <time>2018-03-03T15:47:35.511Z</time>
      </trkpt>
      <trkpt lat="44.58425" lon="0.87882">
        <ele>164</ele>
        <time>2018-03-03T15:47:36.511Z</time>
      </trkpt>
      <trkpt lat="44.58423" lon="0.8788">
        <ele>164</ele>
        <time>2018-03-03T15:47:37.511Z</time>
      </trkpt>
      <trkpt lat="44.58421" lon="0.87878">
        <ele>164</ele>
        <time>2018-03-03T15:47:38.511Z</time>
      </trkpt>
      <trkpt lat="44.5842" lon="0.87877">
        <ele>164</ele>
        <time>2018-03-03T15:47:39.511Z</time>
      </trkpt>
      <trkpt lat="44.58419" lon="0.87875">
        <ele>165</ele>
        <time>2018-03-03T15:47:40.511Z</time>
      </trkpt>
      <trkpt lat="44.58417" lon="0.87874">
        <ele>165</ele>
        <time>2018-03-03T15:47:41.511Z</time>
      </trkpt>
      <trkpt lat="44.58416" lon="0.87873">
        <ele>165</ele>
        <time>2018-03-03T15:47:42.511Z</time>
      </trkpt>
      <trkpt lat="44.58415" lon="0.87872">
        <ele>165</ele>
        <time>2018-03-03T15:47:43.511Z</time>
      </trkpt>
      <trkpt lat="44.58415" lon="0.87871">
        <ele>166</ele>
        <time>2018-03-03T15:47:44.511Z</time>
      </trkpt>
      <trkpt lat="44.58414" lon="0.8787">
        <ele>166</ele>
        <time>2018-03-03T15:47:45.511Z</time>
      </trkpt>
      <trkpt lat="44.58413" lon="0.87869">
        <ele>166</ele>
        <time>2018-03-03T15:47:46.511Z</time>
      </trkpt>
      <trkpt lat="44.58411" lon="0.87867">
        <ele>166</ele>
        <time>2018-03-03T15:47:47.511Z</time>
      </trkpt>
      <trkpt lat="44.5841" lon="0.87866">
        <ele>166</ele>
        <time>2018-03-03T15:47:48.511Z</time>
      </trkpt>
      <trkpt lat="44.58408" lon="0.87864">
        <ele>166</ele>
        <time>2018-03-03T15:47:49.511Z</time>
      </trkpt>
      <trkpt lat="44.58406" lon="0.87863">
        <ele>166</ele>
        <time>2018-03-03T15:47:50.511Z</time>
      </trkpt>
      <trkpt lat="44.58404" lon="0.87861">
        <ele>166</ele>
        <time>2018-03-03T15:47:51.511Z</time>
      </trkpt>
      <trkpt lat="44.58403" lon="0.8786">
        <ele>166</ele>
        <time>2018-03-03T15:47:52.511Z</time>
      </trkpt>
      <trkpt lat="44.58401" lon="0.87858">
        <ele>166</ele>
        <time>2018-03-03T15:47:53.511Z</time>
      </trkpt>
      <trkpt lat="44.584" lon="0.87857">
        <ele>166</ele>
        <time>2018-03-03T15:47:54.511Z</time>
      </trkpt>
      <trkpt lat="44.58399" lon="0.87856">
        <ele>166</ele>
        <time>2018-03-03T15:47:55.511Z</time>
      </trkpt>
      <trkpt lat="44.58398" lon="0.87854">
        <ele>165</ele>
        <time>2018-03-03T15:47:56.511Z</time>
      </trkpt>
      <trkpt lat="44.58398" lon="0.87853">
        <ele>165</ele>
        <time>2018-03-03T15:47:57.511Z</time>
      </trkpt>
      <trkpt lat="44.58397" lon="0.87852">
        <ele>165</ele>
        <time>2018-03-03T15:47:58.511Z</time>
      </trkpt>
      <trkpt lat="44.58396" lon="0.8785">
        <ele>165</ele>
        <time>2018-03-03T15:47:59.511Z</time>
      </trkpt>
      <trkpt lat="44.58395" lon="0.87849">
        <ele>165</ele>
        <time>2018-03-03T15:48:00.511Z</time>
      </trkpt>
      <trkpt lat="44.58394" lon="0.87847">
        <ele>165</ele>
        <time>2018-03-03T15:48:01.511Z</time>
      </trkpt>
      <trkpt lat="44.58393" lon="0.87845">
        <ele>165</ele>
        <time>2018-03-03T15:48:02.511Z</time>
      </trkpt>
      <trkpt lat="44.58392" lon="0.87842">
        <ele>165</ele>
        <time>2018-03-03T15:48:03.511Z</time>
      </trkpt>
      <trkpt lat="44.58391" lon="0.87839">
        <ele>165</ele>
        <time>2018-03-03T15:48:04.511Z</time>
      </trkpt>
      <trkpt lat="44.5839" lon="0.87836">
        <ele>165</ele>
        <time>2018-03-03T15:48:05.511Z</time>
      </trkpt>
      <trkpt lat="44.58389" lon="0.87832">
        <ele>165</ele>
        <time>2018-03-03T15:48:06.511Z</time>
      </trkpt>
      <trkpt lat="44.58387" lon="0.87829">
        <ele>165</ele>
        <time>2018-03-03T15:48:07.511Z</time>
      </trkpt>
      <trkpt lat="44.58386" lon="0.87825">
        <ele>165</ele>
        <time>2018-03-03T15:48:08.511Z</time>
      </trkpt>
      <trkpt lat="44.58385" lon="0.87822">
        <ele>165</ele>
        <time>2018-03-03T15:48:09.511Z</time>
      </trkpt>
      <trkpt lat="44.58384" lon="0.87818">
        <ele>164</ele>
        <time>2018-03-03T15:48:10.511Z</time>
      </trkpt>
      <trkpt lat="44.58382" lon="0.87815">
        <ele>164</ele>
        <time>2018-03-03T15:48:11.511Z</time>
      </trkpt>
      <trkpt lat="44.58381" lon="0.87812">
        <ele>164</ele>
        <time>2018-03-03T15:48:12.511Z</time>
      </trkpt>
      <trkpt lat="44.5838" lon="0.87809">
        <ele>164</ele>
        <time>2018-03-03T15:48:13.511Z</time>
      </trkpt>
      <trkpt lat="44.58379" lon="0.87805">
        <ele>164</ele>
        <time>2018-03-03T15:48:14.511Z</time>
      </trkpt>
      <trkpt lat="44.58378" lon="0.87802">
        <ele>164</ele>
        <time>2018-03-03T15:48:15.511Z</time>
      </trkpt>
      <trkpt lat="44.58376" lon="0.87799">
        <ele>163</ele>
        <time>2018-03-03T15:48:16.511Z</time>
      </trkpt>
      <trkpt lat="44.58375" lon="0.87796">
        <ele>163</ele>
        <time>2018-03-03T15:48:17.511Z</time>
      </trkpt>
      <trkpt lat="44.58374" lon="0.87792">
        <ele>163</ele>
        <time>2018-03-03T15:48:18.511Z</time>
      </trkpt>
      <trkpt lat="44.58373" lon="0.87788">
        <ele>163</ele>
        <time>2018-03-03T15:48:19.511Z</time>
      </trkpt>
      <trkpt lat="44.58371" lon="0.87784">
        <ele>163</ele>
        <time>2018-03-03T15:48:20.511Z</time>
      </trkpt>
      <trkpt lat="44.5837" lon="0.8778">
        <ele>162</ele>
        <time>2018-03-03T15:48:21.511Z</time>
      </trkpt>
      <trkpt lat="44.58369" lon="0.87776">
        <ele>162</ele>
        <time>2018-03-03T15:48:22.511Z</time>
      </trkpt>
      <trkpt lat="44.58367" lon="0.87771">
        <ele>162</ele>
        <time>2018-03-03T15:48:23.511Z</time>
      </trkpt>
      <trkpt lat="44.58366" lon="0.87767">
        <ele>162</ele>
        <time>2018-03-03T15:48:24.511Z</time>
      </trkpt>
      <trkpt lat="44.58365" lon="0.87762">
        <ele>162</ele>
        <time>2018-03-03T15:48:25.511Z</time>
      </trkpt>
      <trkpt lat="44.58363" lon="0.87759">
        <ele>162</ele>
        <time>2018-03-03T15:48:26.511Z</time>
      </trkpt>
      <trkpt lat="44.58362" lon="0.87755">
        <ele>162</ele>
        <time>2018-03-03T15:48:27.511Z</time>
      </trkpt>
      <trkpt lat="44.58361" lon="0.87751">
        <ele>162</ele>
        <time>2018-03-03T15:48:28.511Z</time>
      </trkpt>
      <trkpt lat="44.5836" lon="0.87748">
        <ele>162</ele>
        <time>2018-03-03T15:48:29.511Z</time>
      </trkpt>
      <trkpt lat="44.58359" lon="0.87743">
        <ele>161</ele>
        <time>2018-03-03T15:48:30.511Z</time>
      </trkpt>
      <trkpt lat="44.58358" lon="0.87739">
        <ele>161</ele>
        <time>2018-03-03T15:48:31.511Z</time>
      </trkpt>
      <trkpt lat="44.58357" lon="0.87734">
        <ele>160</ele>
        <time>2018-03-03T15:48:32.511Z</time>
      </trkpt>
      <trkpt lat="44.58355" lon="0.87729">
        <ele>160</ele>
        <time>2018-03-03T15:48:33.511Z</time>
      </trkpt>
      <trkpt lat="44.58354" lon="0.87723">
        <ele>159</ele>
        <time>2018-03-03T15:48:34.511Z</time>
      </trkpt>
      <trkpt lat="44.58353" lon="0.87718">
        <ele>159</ele>
        <time>2018-03-03T15:48:35.511Z</time>
      </trkpt>
      <trkpt lat="44.58352" lon="0.87712">
        <ele>158</ele>
        <time>2018-03-03T15:48:36.511Z</time>
      </trkpt>
      <trkpt lat="44.58351" lon="0.87706">
        <ele>158</ele>
        <time>2018-03-03T15:48:37.511Z</time>
      </trkpt>
      <trkpt lat="44.58349" lon="0.87699">
        <ele>158</ele>
        <time>2018-03-03T15:48:38.511Z</time>
      </trkpt>
      <trkpt lat="44.58348" lon="0.87693">
        <ele>157</ele>
        <time>2018-03-03T15:48:39.511Z</time>
      </trkpt>
      <trkpt lat="44.58346" lon="0.87687">
        <ele>156</ele>
        <time>2018-03-03T15:48:40.511Z</time>
      </trkpt>
      <trkpt lat="44.58344" lon="0.8768">
        <ele>155</ele>
        <time>2018-03-03T15:48:41.511Z</time>
      </trkpt>
      <trkpt lat="44.58342" lon="0.87674">
        <ele>154</ele>
        <time>2018-03-03T15:48:42.511Z</time>
      </trkpt>
      <trkpt lat="44.58339" lon="0.87668">
        <ele>153</ele>
        <time>2018-03-03T15:48:43.511Z</time>
      </trkpt>
      <trkpt lat="44.58336" lon="0.87662">
        <ele>152</ele>
        <time>2018-03-03T15:48:44.511Z</time>
      </trkpt>
      <trkpt lat="44.58332" lon="0.87656">
        <ele>151</ele>
        <time>2018-03-03T15:48:45.511Z</time>
      </trkpt>
      <trkpt lat="44.58328" lon="0.87652">
        <ele>151</ele>
        <time>2018-03-03T15:48:46.511Z</time>
      </trkpt>
      <trkpt lat="44.58325" lon="0.87649">
        <ele>150</ele>
        <time>2018-03-03T15:48:47.511Z</time>
      </trkpt>
      <trkpt lat="44.58323" lon="0.87647">
        <ele>149</ele>
        <time>2018-03-03T15:48:48.511Z</time>
      </trkpt>
      <trkpt lat="44.5832" lon="0.87644">
        <ele>149</ele>
        <time>2018-03-03T15:48:49.511Z</time>
      </trkpt>
      <trkpt lat="44.58316" lon="0.87642">
        <ele>148</ele>
        <time>2018-03-03T15:48:50.511Z</time>
      </trkpt>
      <trkpt lat="44.58313" lon="0.8764">
        <ele>148</ele>
        <time>2018-03-03T15:48:51.511Z</time>
      </trkpt>
      <trkpt lat="44.58309" lon="0.87638">
        <ele>148</ele>
        <time>2018-03-03T15:48:52.511Z</time>
      </trkpt>
      <trkpt lat="44.58306" lon="0.87636">
        <ele>148</ele>
        <time>2018-03-03T15:48:53.511Z</time>
      </trkpt>
      <trkpt lat="44.58302" lon="0.87634">
        <ele>148</ele>
        <time>2018-03-03T15:48:54.511Z</time>
      </trkpt>
      <trkpt lat="44.58299" lon="0.87632">
        <ele>148</ele>
        <time>2018-03-03T15:48:55.511Z</time>
      </trkpt>
      <trkpt lat="44.58296" lon="0.87631">
        <ele>148</ele>
        <time>2018-03-03T15:48:56.511Z</time>
      </trkpt>
      <trkpt lat="44.58294" lon="0.87629">
        <ele>149</ele>
        <time>2018-03-03T15:48:57.511Z</time>
      </trkpt>
      <trkpt lat="44.58291" lon="0.87628">
        <ele>149</ele>
        <time>2018-03-03T15:48:58.511Z</time>
      </trkpt>
      <trkpt lat="44.58289" lon="0.87627">
        <ele>150</ele>
        <time>2018-03-03T15:48:59.511Z</time>
      </trkpt>
      <trkpt lat="44.58286" lon="0.87626">
        <ele>150</ele>
        <time>2018-03-03T15:49:00.511Z</time>
      </trkpt>
      <trkpt lat="44.58284" lon="0.87625">
        <ele>150</ele>
        <time>2018-03-03T15:49:01.511Z</time>
      </trkpt>
      <trkpt lat="44.58282" lon="0.87624">
        <ele>151</ele>
        <time>2018-03-03T15:49:02.511Z</time>
      </trkpt>
      <trkpt lat="44.5828" lon="0.87623">
        <ele>151</ele>
        <time>2018-03-03T15:49:03.511Z</time>
      </trkpt>
      <trkpt lat="44.58278" lon="0.87622">
        <ele>152</ele>
        <time>2018-03-03T15:49:04.511Z</time>
      </trkpt>
      <trkpt lat="44.58276" lon="0.8762">
        <ele>152</ele>
        <time>2018-03-03T15:49:05.511Z</time>
      </trkpt>
      <trkpt lat="44.58274" lon="0.87619">
        <ele>152</ele>
        <time>2018-03-03T15:49:06.511Z</time>
      </trkpt>
      <trkpt lat="44.58273" lon="0.87617">
        <ele>153</ele>
        <time>2018-03-03T15:49:07.511Z</time>
      </trkpt>
      <trkpt lat="44.58271" lon="0.87616">
        <ele>153</ele>
        <time>2018-03-03T15:49:08.511Z</time>
      </trkpt>
      <trkpt lat="44.58269" lon="0.87614">
        <ele>153</ele>
        <time>2018-03-03T15:49:09.511Z</time>
      </trkpt>
      <trkpt lat="44.58268" lon="0.87612">
        <ele>154</ele>
        <time>2018-03-03T15:49:10.511Z</time>
      </trkpt>
      <trkpt lat="44.58266" lon="0.8761">
        <ele>154</ele>
        <time>2018-03-03T15:49:11.511Z</time>
      </trkpt>
      <trkpt lat="44.58265" lon="0.87608">
        <ele>155</ele>
        <time>2018-03-03T15:49:12.511Z</time>
      </trkpt>
      <trkpt lat="44.58264" lon="0.87605">
        <ele>155</ele>
        <time>2018-03-03T15:49:13.511Z</time>
      </trkpt>
      <trkpt lat="44.58264" lon="0.87603">
        <ele>155</ele>
        <time>2018-03-03T15:49:14.511Z</time>
      </trkpt>
      <trkpt lat="44.58263" lon="0.87601">
        <ele>155</ele>
        <time>2018-03-03T15:49:15.511Z</time>
      </trkpt>
      <trkpt lat="44.58262" lon="0.87598">
        <ele>156</ele>
        <time>2018-03-03T15:49:16.511Z</time>
      </trkpt>
      <trkpt lat="44.58261" lon="0.87596">
        <ele>156</ele>
        <time>2018-03-03T15:49:17.511Z</time>
      </trkpt>
      <trkpt lat="44.58259" lon="0.87593">
        <ele>156</ele>
        <time>2018-03-03T15:49:18.511Z</time>
      </trkpt>
      <trkpt lat="44.58258" lon="0.87591">
        <ele>156</ele>
        <time>2018-03-03T15:49:19.511Z</time>
      </trkpt>
      <trkpt lat="44.58256" lon="0.87588">
        <ele>156</ele>
        <time>2018-03-03T15:49:20.511Z</time>
      </trkpt>
      <trkpt lat="44.58255" lon="0.87586">
        <ele>156</ele>
        <time>2018-03-03T15:49:21.511Z</time>
      </trkpt>
      <trkpt lat="44.58253" lon="0.87584">
        <ele>157</ele>
        <time>2018-03-03T15:49:22.511Z</time>
      </trkpt>
      <trkpt lat="44.58251" lon="0.87582">
        <ele>157</ele>
        <time>2018-03-03T15:49:23.511Z</time>
      </trkpt>
      <trkpt lat="44.5825" lon="0.8758">
        <ele>157</ele>
        <time>2018-03-03T15:49:24.511Z</time>
      </trkpt>
      <trkpt lat="44.58249" lon="0.87578">
        <ele>157</ele>
        <time>2018-03-03T15:49:25.511Z</time>
      </trkpt>
      <trkpt lat="44.58247" lon="0.87576">
        <ele>157</ele>
        <time>2018-03-03T15:49:26.511Z</time>
      </trkpt>
      <trkpt lat="44.58246" lon="0.87574">
        <ele>157</ele>
        <time>2018-03-03T15:49:27.511Z</time>
      </trkpt>
      <trkpt lat="44.58245" lon="0.87572">
        <ele>158</ele>
        <time>2018-03-03T15:49:28.511Z</time>
      </trkpt>
      <trkpt lat="44.58243" lon="0.8757">
        <ele>158</ele>
        <time>2018-03-03T15:49:29.511Z</time>
      </trkpt>
      <trkpt lat="44.58242" lon="0.8757">
        <ele>158</ele>
        <time>2018-03-03T15:49:30.511Z</time>
      </trkpt>
      <trkpt lat="44.5824" lon="0.8757">
        <ele>158</ele>
        <time>2018-03-03T15:49:31.511Z</time>
      </trkpt>
      <trkpt lat="44.58238" lon="0.8757">
        <ele>159</ele>
        <time>2018-03-03T15:49:32.511Z</time>
      </trkpt>
      <trkpt lat="44.58236" lon="0.87572">
        <ele>159</ele>
        <time>2018-03-03T15:49:33.511Z</time>
      </trkpt>
      <trkpt lat="44.58233" lon="0.87573">
        <ele>159</ele>
        <time>2018-03-03T15:49:34.511Z</time>
      </trkpt>
      <trkpt lat="44.58231" lon="0.87574">
        <ele>159</ele>
        <time>2018-03-03T15:49:35.511Z</time>
      </trkpt>
      <trkpt lat="44.5823" lon="0.87576">
        <ele>159</ele>
        <time>2018-03-03T15:49:36.511Z</time>
      </trkpt>
      <trkpt lat="44.58228" lon="0.87577">
        <ele>160</ele>
        <time>2018-03-03T15:49:37.511Z</time>
      </trkpt>
      <trkpt lat="44.58226" lon="0.87578">
        <ele>160</ele>
        <time>2018-03-03T15:49:38.511Z</time>
      </trkpt>
      <trkpt lat="44.58225" lon="0.87579">
        <ele>160</ele>
        <time>2018-03-03T15:49:39.511Z</time>
      </trkpt>
      <trkpt lat="44.58224" lon="0.8758">
        <ele>160</ele>
        <time>2018-03-03T15:49:40.511Z</time>
      </trkpt>
      <trkpt lat="44.58223" lon="0.87581">
        <ele>160</ele>
        <time>2018-03-03T15:49:41.511Z</time>
      </trkpt>
      <trkpt lat="44.58222" lon="0.87583">
        <ele>160</ele>
        <time>2018-03-03T15:49:42.511Z</time>
      </trkpt>
      <trkpt lat="44.58221" lon="0.87584">
        <ele>161</ele>
        <time>2018-03-03T15:49:43.511Z</time>
      </trkpt>
      <trkpt lat="44.5822" lon="0.87586">
        <ele>161</ele>
        <time>2018-03-03T15:49:44.511Z</time>
      </trkpt>
      <trkpt lat="44.5822" lon="0.87588">
        <ele>161</ele>
        <time>2018-03-03T15:49:45.511Z</time>
      </trkpt>
      <trkpt lat="44.58219" lon="0.87589">
        <ele>161</ele>
        <time>2018-03-03T15:49:46.511Z</time>
      </trkpt>
      <trkpt lat="44.58219" lon="0.8759">
        <ele>161</ele>
        <time>2018-03-03T15:49:47.511Z</time>
      </trkpt>
      <trkpt lat="44.58219" lon="0.8759">
        <ele>161</ele>
        <time>2018-03-03T15:49:48.511Z</time>
      </trkpt>
      <trkpt lat="44.58219" lon="0.87591">
        <ele>161</ele>
        <time>2018-03-03T15:49:49.511Z</time>
      </trkpt>
      <trkpt lat="44.58219" lon="0.87594">
        <ele>161</ele>
        <time>2018-03-03T15:49:50.511Z</time>
      </trkpt>
      <trkpt lat="44.5822" lon="0.87596">
        <ele>162</ele>
        <time>2018-03-03T15:49:51.511Z</time>
      </trkpt>
      <trkpt lat="44.58221" lon="0.87598">
        <ele>162</ele>
        <time>2018-03-03T15:49:52.511Z</time>
      </trkpt>
      <trkpt lat="44.58221" lon="0.876">
        <ele>162</ele>
        <time>2018-03-03T15:49:53.511Z</time>
      </trkpt>
      <trkpt lat="44.58222" lon="0.87602">
        <ele>162</ele>
        <time>2018-03-03T15:49:54.511Z</time>
      </trkpt>
      <trkpt lat="44.58222" lon="0.87604">
        <ele>162</ele>
        <time>2018-03-03T15:49:55.511Z</time>
      </trkpt>
      <trkpt lat="44.58222" lon="0.87606">
        <ele>162</ele>
        <time>2018-03-03T15:49:56.511Z</time>
      </trkpt>
      <trkpt lat="44.58221" lon="0.87607">
        <ele>162</ele>
        <time>2018-03-03T15:49:57.511Z</time>
      </trkpt>
      <trkpt lat="44.5822" lon="0.87609">
        <ele>162</ele>
        <time>2018-03-03T15:49:58.511Z</time>
      </trkpt>
      <trkpt lat="44.58219" lon="0.87611">
        <ele>162</ele>
        <time>2018-03-03T15:49:59.511Z</time>
      </trkpt>
      <trkpt lat="44.58218" lon="0.87612">
        <ele>162</ele>
        <time>2018-03-03T15:50:00.511Z</time>
      </trkpt>
      <trkpt lat="44.58217" lon="0.87614">
        <ele>163</ele>
        <time>2018-03-03T15:50:01.511Z</time>
      </trkpt>
      <trkpt lat="44.58215" lon="0.87615">
        <ele>163</ele>
        <time>2018-03-03T15:50:02.511Z</time>
      </trkpt>
      <trkpt lat="44.58214" lon="0.87617">
        <ele>163</ele>
        <time>2018-03-03T15:50:03.511Z</time>
      </trkpt>
      <trkpt lat="44.58212" lon="0.87618">
        <ele>163</ele>
        <time>2018-03-03T15:50:04.511Z</time>
      </trkpt>
      <trkpt lat="44.5821" lon="0.87619">
        <ele>163</ele>
        <time>2018-03-03T15:50:05.511Z</time>
      </trkpt>
      <trkpt lat="44.58209" lon="0.8762">
        <ele>163</ele>
        <time>2018-03-03T15:50:06.511Z</time>
      </trkpt>
      <trkpt lat="44.58207" lon="0.87621">
        <ele>163</ele>
        <time>2018-03-03T15:50:07.511Z</time>
      </trkpt>
      <trkpt lat="44.58205" lon="0.87622">
        <ele>164</ele>
        <time>2018-03-03T15:50:08.511Z</time>
      </trkpt>
      <trkpt lat="44.58204" lon="0.87623">
        <ele>164</ele>
        <time>2018-03-03T15:50:09.511Z</time>
      </trkpt>
      <trkpt lat="44.58202" lon="0.87624">
        <ele>164</ele>
        <time>2018-03-03T15:50:10.511Z</time>
      </trkpt>
      <trkpt lat="44.582" lon="0.87625">
        <ele>164</ele>
        <time>2018-03-03T15:50:11.511Z</time>
      </trkpt>
      <trkpt lat="44.58199" lon="0.87626">
        <ele>164</ele>
        <time>2018-03-03T15:50:12.511Z</time>
      </trkpt>
      <trkpt lat="44.58197" lon="0.87627">
        <ele>164</ele>
        <time>2018-03-03T15:50:13.511Z</time>
      </trkpt>
      <trkpt lat="44.58195" lon="0.87627">
        <ele>164</ele>
        <time>2018-03-03T15:50:14.511Z</time>
      </trkpt>
      <trkpt lat="44.58194" lon="0.87628">
        <ele>164</ele>
        <time>2018-03-03T15:50:15.511Z</time>
      </trkpt>
      <trkpt lat="44.58192" lon="0.87629">
        <ele>164</ele>
        <time>2018-03-03T15:50:16.511Z</time>
      </trkpt>
      <trkpt lat="44.5819" lon="0.87629">
        <ele>165</ele>
        <time>2018-03-03T15:50:17.511Z</time>
      </trkpt>
      <trkpt lat="44.58189" lon="0.8763">
        <ele>165</ele>
        <time>2018-03-03T15:50:18.511Z</time>
      </trkpt>
      <trkpt lat="44.58187" lon="0.87631">
        <ele>165</ele>
        <time>2018-03-03T15:50:19.511Z</time>
      </trkpt>
      <trkpt lat="44.58185" lon="0.87631">
        <ele>165</ele>
        <time>2018-03-03T15:50:20.511Z</time>
      </trkpt>
      <trkpt lat="44.58184" lon="0.87632">
        <ele>165</ele>
        <time>2018-03-03T15:50:21.511Z</time>
      </trkpt>
      <trkpt lat="44.58182" lon="0.87633">
        <ele>165</ele>
        <time>2018-03-03T15:50:22.511Z</time>
      </trkpt>
      <trkpt lat="44.5818" lon="0.87634">
        <ele>166</ele>
        <time>2018-03-03T15:50:23.511Z</time>
      </trkpt>
      <trkpt lat="44.58178" lon="0.87634">
        <ele>166</ele>
        <time>2018-03-03T15:50:24.511Z</time>
      </trkpt>
      <trkpt lat="44.58176" lon="0.87635">
        <ele>166</ele>
        <time>2018-03-03T15:50:25.511Z</time>
      </trkpt>
      <trkpt lat="44.58174" lon="0.87635">
        <ele>166</ele>
        <time>2018-03-03T15:50:26.511Z</time>
      </trkpt>
      <trkpt lat="44.58172" lon="0.87636">
        <ele>166</ele>
        <time>2018-03-03T15:50:27.511Z</time>
      </trkpt>
      <trkpt lat="44.58171" lon="0.87636">
        <ele>166</ele>
        <time>2018-03-03T15:50:28.511Z</time>
      </trkpt>
      <trkpt lat="44.58169" lon="0.87637">
        <ele>166</ele>
        <time>2018-03-03T15:50:29.511Z</time>
      </trkpt>
      <trkpt lat="44.58167" lon="0.87637">
        <ele>166</ele>
        <time>2018-03-03T15:50:30.511Z</time>
      </trkpt>
      <trkpt lat="44.58166" lon="0.87637">
        <ele>167</ele>
        <time>2018-03-03T15:50:31.511Z</time>
      </trkpt>
      <trkpt lat="44.58164" lon="0.87637">
        <ele>167</ele>
        <time>2018-03-03T15:50:32.511Z</time>
      </trkpt>
      <trkpt lat="44.58163" lon="0.87636">
        <ele>167</ele>
        <time>2018-03-03T15:50:33.511Z</time>
      </trkpt>
      <trkpt lat="44.58161" lon="0.87636">
        <ele>167</ele>
        <time>2018-03-03T15:50:34.511Z</time>
      </trkpt>
      <trkpt lat="44.58159" lon="0.87636">
        <ele>168</ele>
        <time>2018-03-03T15:50:35.511Z</time>
      </trkpt>
      <trkpt lat="44.58158" lon="0.87635">
        <ele>168</ele>
        <time>2018-03-03T15:50:36.511Z</time>
      </trkpt>
      <trkpt lat="44.58156" lon="0.87635">
        <ele>168</ele>
        <time>2018-03-03T15:50:37.511Z</time>
      </trkpt>
      <trkpt lat="44.58155" lon="0.87635">
        <ele>168</ele>
        <time>2018-03-03T15:50:38.511Z</time>
      </trkpt>
      <trkpt lat="44.58153" lon="0.87634">
        <ele>168</ele>
        <time>2018-03-03T15:50:39.511Z</time>
      </trkpt>
      <trkpt lat="44.58152" lon="0.87634">
        <ele>168</ele>
        <time>2018-03-03T15:50:40.511Z</time>
      </trkpt>
      <trkpt lat="44.5815" lon="0.87635">
        <ele>168</ele>
        <time>2018-03-03T15:50:41.511Z</time>
      </trkpt>
      <trkpt lat="44.58149" lon="0.87635">
        <ele>169</ele>
        <time>2018-03-03T15:50:42.511Z</time>
      </trkpt>
      <trkpt lat="44.58147" lon="0.87635">
        <ele>169</ele>
        <time>2018-03-03T15:50:43.511Z</time>
      </trkpt>
      <trkpt lat="44.58146" lon="0.87636">
        <ele>169</ele>
        <time>2018-03-03T15:50:44.511Z</time>
      </trkpt>
      <trkpt lat="44.58144" lon="0.87636">
        <ele>169</ele>
        <time>2018-03-03T15:50:45.511Z</time>
      </trkpt>
      <trkpt lat="44.58143" lon="0.87637">
        <ele>169</ele>
        <time>2018-03-03T15:50:46.511Z</time>
      </trkpt>
      <trkpt lat="44.58141" lon="0.87638">
        <ele>169</ele>
        <time>2018-03-03T15:50:47.511Z</time>
      </trkpt>
      <trkpt lat="44.5814" lon="0.87638">
        <ele>169</ele>
        <time>2018-03-03T15:50:48.511Z</time>
      </trkpt>
      <trkpt lat="44.58138" lon="0.87639">
        <ele>170</ele>
        <time>2018-03-03T15:50:49.511Z</time>
      </trkpt>
      <trkpt lat="44.58136" lon="0.87639">
        <ele>170</ele>
        <time>2018-03-03T15:50:50.511Z</time>
      </trkpt>
      <trkpt lat="44.58134" lon="0.87638">
        <ele>170</ele>
        <time>2018-03-03T15:50:51.511Z</time>
      </trkpt>
      <trkpt lat="44.58132" lon="0.87637">
        <ele>170</ele>
        <time>2018-03-03T15:50:52.511Z</time>
      </trkpt>
      <trkpt lat="44.58131" lon="0.87636">
        <ele>170</ele>
        <time>2018-03-03T15:50:53.511Z</time>
      </trkpt>
      <trkpt lat="44.58129" lon="0.87634">
        <ele>170</ele>
        <time>2018-03-03T15:50:54.511Z</time>
      </trkpt>
      <trkpt lat="44.58127" lon="0.87632">
        <ele>170</ele>
        <time>2018-03-03T15:50:55.511Z</time>
      </trkpt>
      <trkpt lat="44.58126" lon="0.8763">
        <ele>170</ele>
        <time>2018-03-03T15:50:56.511Z</time>
      </trkpt>
      <trkpt lat="44.58124" lon="0.87628">
        <ele>169</ele>
        <time>2018-03-03T15:50:57.511Z</time>
      </trkpt>
      <trkpt lat="44.58123" lon="0.87626">
        <ele>169</ele>
        <time>2018-03-03T15:50:58.511Z</time>
      </trkpt>
      <trkpt lat="44.58121" lon="0.87625">
        <ele>169</ele>
        <time>2018-03-03T15:50:59.511Z</time>
      </trkpt>
      <trkpt lat="44.5812" lon="0.87624">
        <ele>169</ele>
        <time>2018-03-03T15:51:00.511Z</time>
      </trkpt>
      <trkpt lat="44.58119" lon="0.87623">
        <ele>169</ele>
        <time>2018-03-03T15:51:01.511Z</time>
      </trkpt>
      <trkpt lat="44.58117" lon="0.87623">
        <ele>169</ele>
        <time>2018-03-03T15:51:02.511Z</time>
      </trkpt>
      <trkpt lat="44.58116" lon="0.87623">
        <ele>169</ele>
        <time>2018-03-03T15:51:03.511Z</time>
      </trkpt>
      <trkpt lat="44.58114" lon="0.87624">
        <ele>169</ele>
        <time>2018-03-03T15:51:04.511Z</time>
      </trkpt>
      <trkpt lat="44.58112" lon="0.87624">
        <ele>169</ele>
        <time>2018-03-03T15:51:05.511Z</time>
      </trkpt>
      <trkpt lat="44.58111" lon="0.87625">
        <ele>169</ele>
        <time>2018-03-03T15:51:06.511Z</time>
      </trkpt>
      <trkpt lat="44.58109" lon="0.87626">
        <ele>169</ele>
        <time>2018-03-03T15:51:07.511Z</time>
      </trkpt>
      <trkpt lat="44.58107" lon="0.87627">
        <ele>169</ele>
        <time>2018-03-03T15:51:08.511Z</time>
      </trkpt>
      <trkpt lat="44.58105" lon="0.87628">
        <ele>169</ele>
        <time>2018-03-03T15:51:09.511Z</time>
      </trkpt>
      <trkpt lat="44.58102" lon="0.87629">
        <ele>169</ele>
        <time>2018-03-03T15:51:10.511Z</time>
      </trkpt>
      <trkpt lat="44.581" lon="0.87629">
        <ele>169</ele>
        <time>2018-03-03T15:51:11.511Z</time>
      </trkpt>
      <trkpt lat="44.58097" lon="0.87629">
        <ele>169</ele>
        <time>2018-03-03T15:51:12.511Z</time>
      </trkpt>
      <trkpt lat="44.58095" lon="0.87629">
        <ele>168</ele>
        <time>2018-03-03T15:51:13.511Z</time>
      </trkpt>
      <trkpt lat="44.58092" lon="0.87628">
        <ele>168</ele>
        <time>2018-03-03T15:51:14.511Z</time>
      </trkpt>
      <trkpt lat="44.5809" lon="0.87628">
        <ele>168</ele>
        <time>2018-03-03T15:51:15.511Z</time>
      </trkpt>
      <trkpt lat="44.58089" lon="0.87627">
        <ele>168</ele>
        <time>2018-03-03T15:51:16.511Z</time>
      </trkpt>
      <trkpt lat="44.58087" lon="0.87627">
        <ele>168</ele>
        <time>2018-03-03T15:51:17.511Z</time>
      </trkpt>
      <trkpt lat="44.58086" lon="0.87626">
        <ele>168</ele>
        <time>2018-03-03T15:51:18.511Z</time>
      </trkpt>
      <trkpt lat="44.58085" lon="0.87625">
        <ele>168</ele>
        <time>2018-03-03T15:51:19.511Z</time>
      </trkpt>
      <trkpt lat="44.58083" lon="0.87624">
        <ele>168</ele>
        <time>2018-03-03T15:51:20.511Z</time>
      </trkpt>
      <trkpt lat="44.58081" lon="0.87622">
        <ele>168</ele>
        <time>2018-03-03T15:51:21.511Z</time>
      </trkpt>
      <trkpt lat="44.58079" lon="0.87621">
        <ele>167</ele>
        <time>2018-03-03T15:51:22.511Z</time>
      </trkpt>
      <trkpt lat="44.58077" lon="0.87618">
        <ele>167</ele>
        <time>2018-03-03T15:51:23.511Z</time>
      </trkpt>
      <trkpt lat="44.58075" lon="0.87616">
        <ele>167</ele>
        <time>2018-03-03T15:51:24.511Z</time>
      </trkpt>
      <trkpt lat="44.58074" lon="0.87613">
        <ele>166</ele>
        <time>2018-03-03T15:51:25.511Z</time>
      </trkpt>
      <trkpt lat="44.58072" lon="0.8761">
        <ele>166</ele>
        <time>2018-03-03T15:51:26.511Z</time>
      </trkpt>
      <trkpt lat="44.5807" lon="0.87607">
        <ele>166</ele>
        <time>2018-03-03T15:51:27.511Z</time>
      </trkpt>
      <trkpt lat="44.58069" lon="0.87603">
        <ele>165</ele>
        <time>2018-03-03T15:51:28.511Z</time>
      </trkpt>
      <trkpt lat="44.58068" lon="0.876">
        <ele>165</ele>
        <time>2018-03-03T15:51:29.511Z</time>
      </trkpt>
      <trkpt lat="44.58068" lon="0.87596">
        <ele>164</ele>
        <time>2018-03-03T15:51:30.511Z</time>
      </trkpt>
      <trkpt lat="44.58067" lon="0.87592">
        <ele>164</ele>
        <time>2018-03-03T15:51:31.511Z</time>
      </trkpt>
      <trkpt lat="44.58066" lon="0.87589">
        <ele>163</ele>
        <time>2018-03-03T15:51:32.511Z</time>
      </trkpt>
      <trkpt lat="44.58065" lon="0.87587">
        <ele>163</ele>
        <time>2018-03-03T15:51:33.511Z</time>
      </trkpt>
      <trkpt lat="44.58063" lon="0.87586">
        <ele>162</ele>
        <time>2018-03-03T15:51:34.511Z</time>
      </trkpt>
      <trkpt lat="44.58061" lon="0.87586">
        <ele>162</ele>
        <time>2018-03-03T15:51:35.511Z</time>
      </trkpt>
      <trkpt lat="44.58059" lon="0.87585">
        <ele>162</ele>
        <time>2018-03-03T15:51:36.511Z</time>
      </trkpt>
      <trkpt lat="44.58057" lon="0.87584">
        <ele>161</ele>
        <time>2018-03-03T15:51:37.511Z</time>
      </trkpt>
      <trkpt lat="44.58056" lon="0.87583">
        <ele>161</ele>
        <time>2018-03-03T15:51:38.511Z</time>
      </trkpt>
      <trkpt lat="44.58054" lon="0.8758">
        <ele>160</ele>
        <time>2018-03-03T15:51:39.511Z</time>
      </trkpt>
      <trkpt lat="44.58053" lon="0.87577">
        <ele>160</ele>
        <time>2018-03-03T15:51:40.511Z</time>
      </trkpt>
      <trkpt lat="44.58052" lon="0.87574">
        <ele>159</ele>
        <time>2018-03-03T15:51:41.511Z</time>
      </trkpt>
      <trkpt lat="44.58051" lon="0.87571">
        <ele>159</ele>
        <time>2018-03-03T15:51:42.511Z</time>
      </trkpt>
      <trkpt lat="44.5805" lon="0.87567">
        <ele>158</ele>
        <time>2018-03-03T15:51:43.511Z</time>
      </trkpt>
      <trkpt lat="44.58048" lon="0.87564">
        <ele>158</ele>
        <time>2018-03-03T15:51:44.511Z</time>
      </trkpt>
      <trkpt lat="44.58046" lon="0.87561">
        <ele>157</ele>
        <time>2018-03-03T15:51:45.511Z</time>
      </trkpt>
      <trkpt lat="44.58044" lon="0.87558">
        <ele>156</ele>
        <time>2018-03-03T15:51:46.511Z</time>
      </trkpt>
      <trkpt lat="44.58042" lon="0.87556">
        <ele>156</ele>
        <time>2018-03-03T15:51:47.511Z</time>
      </trkpt>
      <trkpt lat="44.58039" lon="0.87555">
        <ele>155</ele>
        <time>2018-03-03T15:51:48.511Z</time>
      </trkpt>
      <trkpt lat="44.58037" lon="0.87554">
        <ele>155</ele>
        <time>2018-03-03T15:51:49.511Z</time>
      </trkpt>
      <trkpt lat="44.58034" lon="0.87554">
        <ele>154</ele>
        <time>2018-03-03T15:51:50.511Z</time>
      </trkpt>
      <trkpt lat="44.58031" lon="0.87554">
        <ele>153</ele>
        <time>2018-03-03T15:51:51.511Z</time>
      </trkpt>
      <trkpt lat="44.58028" lon="0.87554">
        <ele>153</ele>
        <time>2018-03-03T15:51:52.511Z</time>
      </trkpt>
      <trkpt lat="44.58025" lon="0.87554">
        <ele>152</ele>
        <time>2018-03-03T15:51:53.511Z</time>
      </trkpt>
      <trkpt lat="44.58022" lon="0.87554">
        <ele>151</ele>
        <time>2018-03-03T15:51:54.511Z</time>
      </trkpt>
      <trkpt lat="44.58019" lon="0.87553">
        <ele>150</ele>
        <time>2018-03-03T15:51:55.511Z</time>
      </trkpt>
      <trkpt lat="44.58016" lon="0.87552">
        <ele>150</ele>
        <time>2018-03-03T15:51:56.511Z</time>
      </trkpt>
      <trkpt lat="44.58013" lon="0.87549">
        <ele>149</ele>
        <time>2018-03-03T15:51:57.511Z</time>
      </trkpt>
      <trkpt lat="44.5801" lon="0.87547">
        <ele>148</ele>
        <time>2018-03-03T15:51:58.511Z</time>
      </trkpt>
      <trkpt lat="44.58007" lon="0.87544">
        <ele>147</ele>
        <time>2018-03-03T15:51:59.511Z</time>
      </trkpt>
      <trkpt lat="44.58005" lon="0.87542">
        <ele>147</ele>
        <time>2018-03-03T15:52:00.511Z</time>
      </trkpt>
      <trkpt lat="44.58003" lon="0.87541">
        <ele>147</ele>
        <time>2018-03-03T15:52:01.511Z</time>
      </trkpt>
      <trkpt lat="44.58002" lon="0.87541">
        <ele>146</ele>
        <time>2018-03-03T15:52:02.511Z</time>
      </trkpt>
      <trkpt lat="44.58001" lon="0.87541">
        <ele>146</ele>
        <time>2018-03-03T15:52:03.511Z</time>
      </trkpt>
      <trkpt lat="44.58" lon="0.87542">
        <ele>146</ele>
        <time>2018-03-03T15:52:04.511Z</time>
      </trkpt>
      <trkpt lat="44.58" lon="0.87543">
        <ele>145</ele>
        <time>2018-03-03T15:52:05.511Z</time>
      </trkpt>
      <trkpt lat="44.58" lon="0.87544">
        <ele>145</ele>
        <time>2018-03-03T15:52:06.511Z</time>
      </trkpt>
      <trkpt lat="44.58" lon="0.87544">
        <ele>145</ele>
        <time>2018-03-03T15:52:07.511Z</time>
      </trkpt>
      <trkpt lat="44.58" lon="0.87544">
        <ele>145</ele>
        <time>2018-03-03T15:52:08.511Z</time>
      </trkpt>
      <trkpt lat="44.58" lon="0.87544">
        <ele>145</ele>
        <time>2018-03-03T15:52:09.511Z</time>
      </trkpt>
      <trkpt lat="44.58" lon="0.87544">
        <ele>145</ele>
        <time>2018-03-03T15:52:10.511Z</time>
      </trkpt>
      <trkpt lat="44.57999" lon="0.87546">
        <ele>145</ele>
        <time>2018-03-03T15:52:11.511Z</time>
      </trkpt>
      <trkpt lat="44.57998" lon="0.87548">
        <ele>144</ele>
        <time>2018-03-03T15:52:12.511Z</time>
      </trkpt>
      <trkpt lat="44.57996" lon="0.87551">
        <ele>143</ele>
        <time>2018-03-03T15:52:13.511Z</time>
      </trkpt>
      <trkpt lat="44.57995" lon="0.87553">
        <ele>143</ele>
        <time>2018-03-03T15:52:14.511Z</time>
      </trkpt>
      <trkpt lat="44.57994" lon="0.87556">
        <ele>142</ele>
        <time>2018-03-03T15:52:15.511Z</time>
      </trkpt>
      <trkpt lat="44.57994" lon="0.87558">
        <ele>141</ele>
        <time>2018-03-03T15:52:16.511Z</time>
      </trkpt>
      <trkpt lat="44.57993" lon="0.8756">
        <ele>140</ele>
        <time>2018-03-03T15:52:17.511Z</time>
      </trkpt>
      <trkpt lat="44.57992" lon="0.87562">
        <ele>140</ele>
        <time>2018-03-03T15:52:18.511Z</time>
      </trkpt>
      <trkpt lat="44.57991" lon="0.87563">
        <ele>139</ele>
        <time>2018-03-03T15:52:19.511Z</time>
      </trkpt>
      <trkpt lat="44.57991" lon="0.87564">
        <ele>138</ele>
        <time>2018-03-03T15:52:20.511Z</time>
      </trkpt>
      <trkpt lat="44.5799" lon="0.87565">
        <ele>138</ele>
        <time>2018-03-03T15:52:21.511Z</time>
      </trkpt>
      <trkpt lat="44.5799" lon="0.87566">
        <ele>137</ele>
        <time>2018-03-03T15:52:22.511Z</time>
      </trkpt>
      <trkpt lat="44.5799" lon="0.87566">
        <ele>137</ele>
        <time>2018-03-03T15:52:23.511Z</time>
      </trkpt>
      <trkpt lat="44.57989" lon="0.87567">
        <ele>136</ele>
        <time>2018-03-03T15:52:24.511Z</time>
      </trkpt>
      <trkpt lat="44.57989" lon="0.87567">
        <ele>136</ele>
        <time>2018-03-03T15:52:25.511Z</time>
      </trkpt>
      <trkpt lat="44.57989" lon="0.87567">
        <ele>136</ele>
        <time>2018-03-03T15:52:26.511Z</time>
      </trkpt>
      <trkpt lat="44.57989" lon="0.87567">
        <ele>135</ele>
        <time>2018-03-03T15:52:27.511Z</time>
      </trkpt>
      <trkpt lat="44.57989" lon="0.87568">
        <ele>135</ele>
        <time>2018-03-03T15:52:28.511Z</time>
      </trkpt>
      <trkpt lat="44.57989" lon="0.87568">
        <ele>135</ele>
        <time>2018-03-03T15:52:29.511Z</time>
      </trkpt>
      <trkpt lat="44.57989" lon="0.87568">
        <ele>135</ele>
        <time>2018-03-03T15:52:30.511Z</time>
      </trkpt>
      <trkpt lat="44.57989" lon="0.87568">
        <ele>135</ele>
        <time>2018-03-03T15:52:31.511Z</time>
      </trkpt>
      <trkpt lat="44.57989" lon="0.87568">
        <ele>135</ele>
        <time>2018-03-03T15:52:32.511Z</time>
      </trkpt>
      <trkpt lat="44.57989" lon="0.87568">
        <ele>135</ele>
        <time>2018-03-03T15:52:33.511Z</time>
      </trkpt>
      <trkpt lat="44.57989" lon="0.87568">
        <ele>135</ele>
        <time>2018-03-03T15:52:34.511Z</time>
      </trkpt>
      <trkpt lat="44.57989" lon="0.87568">
        <ele>135</ele>
        <time>2018-03-03T15:52:35.511Z</time>
      </trkpt>
      <trkpt lat="44.57989" lon="0.87568">
        <ele>135</ele>
        <time>2018-03-03T15:52:36.511Z</time>
      </trkpt>
      <trkpt lat="44.57989" lon="0.87568">
        <ele>135</ele>
        <time>2018-03-03T15:52:37.511Z</time>
      </trkpt>
      <trkpt lat="44.57989" lon="0.87568">
        <ele>135</ele>
        <time>2018-03-03T15:52:38.511Z</time>
      </trkpt>
      <trkpt lat="44.57989" lon="0.87568">
        <ele>135</ele>
        <time>2018-03-03T15:52:39.511Z</time>
      </trkpt>
      <trkpt lat="44.57989" lon="0.87568">
        <ele>135</ele>
        <time>2018-03-03T15:52:40.511Z</time>
      </trkpt>
      <trkpt lat="44.57989" lon="0.87568">
        <ele>135</ele>
        <time>2018-03-03T15:52:41.511Z</time>
      </trkpt>
      <trkpt lat="44.57989" lon="0.87568">
        <ele>135</ele>
        <time>2018-03-03T15:52:42.511Z</time>
      </trkpt>
      <trkpt lat="44.57989" lon="0.87568">
        <ele>135</ele>
        <time>2018-03-03T15:52:43.511Z</time>
      </trkpt>
      <trkpt lat="44.57989" lon="0.87568">
        <ele>135</ele>
        <time>2018-03-03T15:52:44.511Z</time>
      </trkpt>
      <trkpt lat="44.57989" lon="0.87568">
        <ele>135</ele>
        <time>2018-03-03T15:52:45.511Z</time>
      </trkpt>
      <trkpt lat="44.57989" lon="0.87568">
        <ele>135</ele>
        <time>2018-03-03T15:52:46.511Z</time>
      </trkpt>
      <trkpt lat="44.57988" lon="0.87568">
        <ele>135</ele>
        <time>2018-03-03T15:52:47.511Z</time>
      </trkpt>
      <trkpt lat="44.57988" lon="0.87569">
        <ele>135</ele>
        <time>2018-03-03T15:52:48.511Z</time>
      </trkpt>
      <trkpt lat="44.57988" lon="0.87571">
        <ele>135</ele>
        <time>2018-03-03T15:52:49.511Z</time>
      </trkpt>
      <trkpt lat="44.57988" lon="0.87572">
        <ele>135</ele>
        <time>2018-03-03T15:52:50.511Z</time>
      </trkpt>
      <trkpt lat="44.57988" lon="0.87572">
        <ele>135</ele>
        <time>2018-03-03T15:52:51.511Z</time>
      </trkpt>
      <trkpt lat="44.57987" lon="0.87573">
        <ele>135</ele>
        <time>2018-03-03T15:52:52.511Z</time>
      </trkpt>
      <trkpt lat="44.57987" lon="0.87573">
        <ele>135</ele>
        <time>2018-03-03T15:52:53.511Z</time>
      </trkpt>
      <trkpt lat="44.57987" lon="0.87574">
        <ele>135</ele>
        <time>2018-03-03T15:52:54.511Z</time>
      </trkpt>
      <trkpt lat="44.57987" lon="0.87575">
        <ele>135</ele>
        <time>2018-03-03T15:52:55.511Z</time>
      </trkpt>
      <trkpt lat="44.57987" lon="0.87575">
        <ele>134</ele>
        <time>2018-03-03T15:52:56.511Z</time>
      </trkpt>
      <trkpt lat="44.57986" lon="0.87576">
        <ele>134</ele>
        <time>2018-03-03T15:52:57.511Z</time>
      </trkpt>
      <trkpt lat="44.57986" lon="0.87577">
        <ele>134</ele>
        <time>2018-03-03T15:52:58.511Z</time>
      </trkpt>
      <trkpt lat="44.57986" lon="0.87577">
        <ele>134</ele>
        <time>2018-03-03T15:52:59.511Z</time>
      </trkpt>
      <trkpt lat="44.57986" lon="0.87578">
        <ele>133</ele>
        <time>2018-03-03T15:53:00.511Z</time>
      </trkpt>
      <trkpt lat="44.57986" lon="0.87578">
        <ele>133</ele>
        <time>2018-03-03T15:53:01.511Z</time>
      </trkpt>
      <trkpt lat="44.57986" lon="0.87578">
        <ele>133</ele>
        <time>2018-03-03T15:53:02.511Z</time>
      </trkpt>
      <trkpt lat="44.57986" lon="0.87578">
        <ele>132</ele>
        <time>2018-03-03T15:53:03.511Z</time>
      </trkpt>
      <trkpt lat="44.57986" lon="0.87578">
        <ele>132</ele>
        <time>2018-03-03T15:53:04.511Z</time>
      </trkpt>
      <trkpt lat="44.57985" lon="0.87578">
        <ele>132</ele>
        <time>2018-03-03T15:53:05.511Z</time>
      </trkpt>
      <trkpt lat="44.57985" lon="0.87579">
        <ele>132</ele>
        <time>2018-03-03T15:53:06.511Z</time>
      </trkpt>
      <trkpt lat="44.57985" lon="0.8758">
        <ele>132</ele>
        <time>2018-03-03T15:53:07.511Z</time>
      </trkpt>
      <trkpt lat="44.57984" lon="0.87581">
        <ele>131</ele>
        <time>2018-03-03T15:53:08.511Z</time>
      </trkpt>
      <trkpt lat="44.57982" lon="0.8758">
        <ele>131</ele>
        <time>2018-03-03T15:53:09.511Z</time>
      </trkpt>
      <trkpt lat="44.57981" lon="0.8758">
        <ele>131</ele>
        <time>2018-03-03T15:53:10.511Z</time>
      </trkpt>
      <trkpt lat="44.5798" lon="0.87579">
        <ele>130</ele>
        <time>2018-03-03T15:53:11.511Z</time>
      </trkpt>
      <trkpt lat="44.5798" lon="0.87579">
        <ele>130</ele>
        <time>2018-03-03T15:53:12.511Z</time>
      </trkpt>
      <trkpt lat="44.5798" lon="0.87579">
        <ele>130</ele>
        <time>2018-03-03T15:53:13.511Z</time>
      </trkpt>
      <trkpt lat="44.5798" lon="0.87578">
        <ele>130</ele>
        <time>2018-03-03T15:53:14.511Z</time>
      </trkpt>
      <trkpt lat="44.57979" lon="0.87577">
        <ele>130</ele>
        <time>2018-03-03T15:53:15.511Z</time>
      </trkpt>
      <trkpt lat="44.57978" lon="0.87576">
        <ele>130</ele>
        <time>2018-03-03T15:53:16.511Z</time>
      </trkpt>
      <trkpt lat="44.57977" lon="0.87574">
        <ele>130</ele>
        <time>2018-03-03T15:53:17.511Z</time>
      </trkpt>
      <trkpt lat="44.57976" lon="0.87572">
        <ele>130</ele>
        <time>2018-03-03T15:53:18.511Z</time>
      </trkpt>
      <trkpt lat="44.57974" lon="0.8757">
        <ele>129</ele>
        <time>2018-03-03T15:53:19.511Z</time>
      </trkpt>
      <trkpt lat="44.57973" lon="0.87568">
        <ele>129</ele>
        <time>2018-03-03T15:53:20.511Z</time>
      </trkpt>
      <trkpt lat="44.57971" lon="0.87566">
        <ele>129</ele>
        <time>2018-03-03T15:53:21.511Z</time>
      </trkpt>
      <trkpt lat="44.5797" lon="0.87565">
        <ele>129</ele>
        <time>2018-03-03T15:53:22.511Z</time>
      </trkpt>
      <trkpt lat="44.57969" lon="0.87564">
        <ele>128</ele>
        <time>2018-03-03T15:53:23.511Z</time>
      </trkpt>
      <trkpt lat="44.57968" lon="0.87564">
        <ele>128</ele>
        <time>2018-03-03T15:53:24.511Z</time>
      </trkpt>
      <trkpt lat="44.57967" lon="0.87563">
        <ele>128</ele>
        <time>2018-03-03T15:53:25.511Z</time>
      </trkpt>
      <trkpt lat="44.57967" lon="0.87563">
        <ele>128</ele>
        <time>2018-03-03T15:53:26.511Z</time>
      </trkpt>
      <trkpt lat="44.57966" lon="0.87563">
        <ele>128</ele>
        <time>2018-03-03T15:53:27.511Z</time>
      </trkpt>
      <trkpt lat="44.57966" lon="0.87563">
        <ele>128</ele>
        <time>2018-03-03T15:53:28.511Z</time>
      </trkpt>
      <trkpt lat="44.57966" lon="0.87563">
        <ele>128</ele>
        <time>2018-03-03T15:53:29.511Z</time>
      </trkpt>
      <trkpt lat="44.57966" lon="0.87563">
        <ele>128</ele>
        <time>2018-03-03T15:53:30.511Z</time>
      </trkpt>
      <trkpt lat="44.57966" lon="0.87563">
        <ele>128</ele>
        <time>2018-03-03T15:53:31.511Z</time>
      </trkpt>
      <trkpt lat="44.57966" lon="0.87563">
        <ele>128</ele>
        <time>2018-03-03T15:53:32.511Z</time>
      </trkpt>
      <trkpt lat="44.57966" lon="0.87563">
        <ele>128</ele>
        <time>2018-03-03T15:53:33.511Z</time>
      </trkpt>
      <trkpt lat="44.57966" lon="0.87563">
        <ele>128</ele>
        <time>2018-03-03T15:53:34.511Z</time>
      </trkpt>
      <trkpt lat="44.57966" lon="0.87563">
        <ele>128</ele>
        <time>2018-03-03T15:53:35.511Z</time>
      </trkpt>
      <trkpt lat="44.57966" lon="0.87563">
        <ele>128</ele>
        <time>2018-03-03T15:53:36.511Z</time>
      </trkpt>
      <trkpt lat="44.57966" lon="0.87563">
        <ele>128</ele>
        <time>2018-03-03T15:53:37.511Z</time>
      </trkpt>
      <trkpt lat="44.57966" lon="0.87563">
        <ele>128</ele>
        <time>2018-03-03T15:53:38.511Z</time>
      </trkpt>
      <trkpt lat="44.57966" lon="0.87563">
        <ele>128</ele>
        <time>2018-03-03T15:53:39.511Z</time>
      </trkpt>
      <trkpt lat="44.57966" lon="0.87563">
        <ele>128</ele>
        <time>2018-03-03T15:53:40.511Z</time>
      </trkpt>
      <trkpt lat="44.57966" lon="0.87563">
        <ele>128</ele>
        <time>2018-03-03T15:53:41.511Z</time>
      </trkpt>
      <trkpt lat="44.57966" lon="0.87563">
        <ele>128</ele>
        <time>2018-03-03T15:53:42.511Z</time>
      </trkpt>
      <trkpt lat="44.57966" lon="0.87563">
        <ele>128</ele>
        <time>2018-03-03T15:53:43.511Z</time>
      </trkpt>
      <trkpt lat="44.57966" lon="0.87563">
        <ele>128</ele>
        <time>2018-03-03T15:53:44.511Z</time>
      </trkpt>
      <trkpt lat="44.57966" lon="0.87563">
        <ele>128</ele>
        <time>2018-03-03T15:53:45.511Z</time>
      </trkpt>
      <trkpt lat="44.57966" lon="0.87563">
        <ele>128</ele>
        <time>2018-03-03T15:53:46.511Z</time>
      </trkpt>
      <trkpt lat="44.57966" lon="0.87563">
        <ele>128</ele>
        <time>2018-03-03T15:53:47.511Z</time>
      </trkpt>
      <trkpt lat="44.57966" lon="0.87563">
        <ele>128</ele>
        <time>2018-03-03T15:53:48.511Z</time>
      </trkpt>
      <trkpt lat="44.57966" lon="0.87563">
        <ele>128</ele>
        <time>2018-03-03T15:53:49.511Z</time>
      </trkpt>
      <trkpt lat="44.57966" lon="0.87563">
        <ele>128</ele>
        <time>2018-03-03T15:53:50.511Z</time>
      </trkpt>
      <trkpt lat="44.57966" lon="0.87563">
        <ele>128</ele>
        <time>2018-03-03T15:53:51.511Z</time>
      </trkpt>
      <trkpt lat="44.57966" lon="0.87563">
        <ele>128</ele>
        <time>2018-03-03T15:53:52.511Z</time>
      </trkpt>
      <trkpt lat="44.57966" lon="0.87563">
        <ele>128</ele>
        <time>2018-03-03T15:53:53.511Z</time>
      </trkpt>
      <trkpt lat="44.57966" lon="0.87563">
        <ele>128</ele>
        <time>2018-03-03T15:53:54.511Z</time>
      </trkpt>
      <trkpt lat="44.57966" lon="0.87563">
        <ele>128</ele>
        <time>2018-03-03T15:53:55.511Z</time>
      </trkpt>
      <trkpt lat="44.57966" lon="0.87563">
        <ele>128</ele>
        <time>2018-03-03T15:53:56.511Z</time>
      </trkpt>
      <trkpt lat="44.57966" lon="0.87563">
        <ele>128</ele>
        <time>2018-03-03T15:53:57.511Z</time>
      </trkpt>
      <trkpt lat="44.57966" lon="0.87563">
        <ele>128</ele>
        <time>2018-03-03T15:53:58.511Z</time>
      </trkpt>
      <trkpt lat="44.57966" lon="0.87563">
        <ele>128</ele>
        <time>2018-03-03T15:53:59.511Z</time>
      </trkpt>
      <trkpt lat="44.57965" lon="0.87562">
        <ele>128</ele>
        <time>2018-03-03T15:54:00.511Z</time>
      </trkpt>
      <trkpt lat="44.57964" lon="0.87559">
        <ele>128</ele>
        <time>2018-03-03T15:54:01.511Z</time>
      </trkpt>
      <trkpt lat="44.57963" lon="0.87557">
        <ele>128</ele>
        <time>2018-03-03T15:54:02.511Z</time>
      </trkpt>
      <trkpt lat="44.57961" lon="0.87554">
        <ele>128</ele>
        <time>2018-03-03T15:54:03.511Z</time>
      </trkpt>
      <trkpt lat="44.5796" lon="0.87551">
        <ele>128</ele>
        <time>2018-03-03T15:54:04.511Z</time>
      </trkpt>
      <trkpt lat="44.57959" lon="0.87549">
        <ele>128</ele>
        <time>2018-03-03T15:54:05.511Z</time>
      </trkpt>
      <trkpt lat="44.57959" lon="0.87548">
        <ele>128</ele>
        <time>2018-03-03T15:54:06.511Z</time>
      </trkpt>
      <trkpt lat="44.57958" lon="0.87547">
        <ele>128</ele>
        <time>2018-03-03T15:54:07.511Z</time>
      </trkpt>
      <trkpt lat="44.57958" lon="0.87547">
        <ele>128</ele>
        <time>2018-03-03T15:54:08.511Z</time>
      </trkpt>
      <trkpt lat="44.57958" lon="0.87546">
        <ele>128</ele>
        <time>2018-03-03T15:54:09.511Z</time>
      </trkpt>
      <trkpt lat="44.57958" lon="0.87546">
        <ele>128</ele>
        <time>2018-03-03T15:54:10.511Z</time>
      </trkpt>
      <trkpt lat="44.57958" lon="0.87546">
        <ele>128</ele>
        <time>2018-03-03T15:54:11.511Z</time>
      </trkpt>
      <trkpt lat="44.57958" lon="0.87545">
        <ele>128</ele>
        <time>2018-03-03T15:54:12.511Z</time>
      </trkpt>
      <trkpt lat="44.57957" lon="0.87545">
        <ele>128</ele>
        <time>2018-03-03T15:54:13.511Z</time>
      </trkpt>
      <trkpt lat="44.57957" lon="0.87545">
        <ele>128</ele>
        <time>2018-03-03T15:54:14.511Z</time>
      </trkpt>
      <trkpt lat="44.57957" lon="0.87545">
        <ele>128</ele>
        <time>2018-03-03T15:54:15.511Z</time>
      </trkpt>
      <trkpt lat="44.57957" lon="0.87545">
        <ele>128</ele>
        <time>2018-03-03T15:54:16.511Z</time>
      </trkpt>
      <trkpt lat="44.57957" lon="0.87545">
        <ele>128</ele>
        <time>2018-03-03T15:54:17.511Z</time>
      </trkpt>
      <trkpt lat="44.57957" lon="0.87545">
        <ele>128</ele>
        <time>2018-03-03T15:54:18.511Z</time>
      </trkpt>
      <trkpt lat="44.57957" lon="0.87545">
        <ele>128</ele>
        <time>2018-03-03T15:54:19.511Z</time>
      </trkpt>
      <trkpt lat="44.57957" lon="0.87545">
        <ele>128</ele>
        <time>2018-03-03T15:54:20.511Z</time>
      </trkpt>
      <trkpt lat="44.57957" lon="0.87545">
        <ele>128</ele>
        <time>2018-03-03T15:54:21.511Z</time>
      </trkpt>
      <trkpt lat="44.57957" lon="0.87545">
        <ele>128</ele>
        <time>2018-03-03T15:54:22.511Z</time>
      </trkpt>
      <trkpt lat="44.57957" lon="0.87545">
        <ele>128</ele>
        <time>2018-03-03T15:54:23.511Z</time>
      </trkpt>
      <trkpt lat="44.57957" lon="0.87545">
        <ele>128</ele>
        <time>2018-03-03T15:54:24.511Z</time>
      </trkpt>
      <trkpt lat="44.57957" lon="0.87545">
        <ele>128</ele>
        <time>2018-03-03T15:54:25.511Z</time>
      </trkpt>
      <trkpt lat="44.57957" lon="0.87545">
        <ele>128</ele>
        <time>2018-03-03T15:54:26.511Z</time>
      </trkpt>
      <trkpt lat="44.57957" lon="0.87544">
        <ele>128</ele>
        <time>2018-03-03T15:54:27.511Z</time>
      </trkpt>
      <trkpt lat="44.57957" lon="0.87541">
        <ele>128</ele>
        <time>2018-03-03T15:54:28.511Z</time>
      </trkpt>
      <trkpt lat="44.57957" lon="0.87537">
        <ele>128</ele>
        <time>2018-03-03T15:54:29.511Z</time>
      </trkpt>
      <trkpt lat="44.57957" lon="0.87534">
        <ele>128</ele>
        <time>2018-03-03T15:54:30.511Z</time>
      </trkpt>
      <trkpt lat="44.57957" lon="0.8753">
        <ele>128</ele>
        <time>2018-03-03T15:54:31.511Z</time>
      </trkpt>
      <trkpt lat="44.57958" lon="0.87527">
        <ele>128</ele>
        <time>2018-03-03T15:54:32.511Z</time>
      </trkpt>
      <trkpt lat="44.57959" lon="0.87523">
        <ele>127</ele>
        <time>2018-03-03T15:54:33.511Z</time>
      </trkpt>
      <trkpt lat="44.5796" lon="0.87519">
        <ele>127</ele>
        <time>2018-03-03T15:54:34.511Z</time>
      </trkpt>
      <trkpt lat="44.57962" lon="0.87515">
        <ele>127</ele>
        <time>2018-03-03T15:54:35.511Z</time>
      </trkpt>
      <trkpt lat="44.57963" lon="0.87512">
        <ele>127</ele>
        <time>2018-03-03T15:54:36.511Z</time>
      </trkpt>
      <trkpt lat="44.57964" lon="0.87509">
        <ele>127</ele>
        <time>2018-03-03T15:54:37.511Z</time>
      </trkpt>
      <trkpt lat="44.57965" lon="0.87507">
        <ele>127</ele>
        <time>2018-03-03T15:54:38.511Z</time>
      </trkpt>
      <trkpt lat="44.57965" lon="0.87506">
        <ele>127</ele>
        <time>2018-03-03T15:54:39.511Z</time>
      </trkpt>
      <trkpt lat="44.57965" lon="0.87505">
        <ele>127</ele>
        <time>2018-03-03T15:54:40.511Z</time>
      </trkpt>
      <trkpt lat="44.57965" lon="0.87504">
        <ele>127</ele>
        <time>2018-03-03T15:54:41.511Z</time>
      </trkpt>
      <trkpt lat="44.57965" lon="0.87504">
        <ele>127</ele>
        <time>2018-03-03T15:54:42.511Z</time>
      </trkpt>
      <trkpt lat="44.57965" lon="0.87504">
        <ele>126</ele>
        <time>2018-03-03T15:54:43.511Z</time>
      </trkpt>
      <trkpt lat="44.57965" lon="0.87503">
        <ele>126</ele>
        <time>2018-03-03T15:54:44.511Z</time>
      </trkpt>
      <trkpt lat="44.57965" lon="0.87503">
        <ele>126</ele>
        <time>2018-03-03T15:54:45.511Z</time>
      </trkpt>
      <trkpt lat="44.57965" lon="0.87503">
        <ele>126</ele>
        <time>2018-03-03T15:54:46.511Z</time>
      </trkpt>
      <trkpt lat="44.57965" lon="0.87503">
        <ele>127</ele>
        <time>2018-03-03T15:54:47.511Z</time>
      </trkpt>
      <trkpt lat="44.57965" lon="0.87503">
        <ele>127</ele>
        <time>2018-03-03T15:54:48.511Z</time>
      </trkpt>
      <trkpt lat="44.57965" lon="0.87503">
        <ele>127</ele>
        <time>2018-03-03T15:54:49.511Z</time>
      </trkpt>
      <trkpt lat="44.57965" lon="0.87503">
        <ele>127</ele>
        <time>2018-03-03T15:54:50.511Z</time>
      </trkpt>
      <trkpt lat="44.57965" lon="0.87503">
        <ele>127</ele>
        <time>2018-03-03T15:54:51.511Z</time>
      </trkpt>
      <trkpt lat="44.57965" lon="0.87503">
        <ele>127</ele>
        <time>2018-03-03T15:54:52.511Z</time>
      </trkpt>
      <trkpt lat="44.57965" lon="0.87502">
        <ele>127</ele>
        <time>2018-03-03T15:54:53.511Z</time>
      </trkpt>
      <trkpt lat="44.57965" lon="0.87502">
        <ele>127</ele>
        <time>2018-03-03T15:54:54.511Z</time>
      </trkpt>
      <trkpt lat="44.57965" lon="0.87501">
        <ele>127</ele>
        <time>2018-03-03T15:54:55.511Z</time>
      </trkpt>
      <trkpt lat="44.57965" lon="0.87499">
        <ele>127</ele>
        <time>2018-03-03T15:54:56.511Z</time>
      </trkpt>
      <trkpt lat="44.57965" lon="0.87495">
        <ele>127</ele>
        <time>2018-03-03T15:54:57.511Z</time>
      </trkpt>
      <trkpt lat="44.57965" lon="0.87492">
        <ele>127</ele>
        <time>2018-03-03T15:54:58.511Z</time>
      </trkpt>
      <trkpt lat="44.57966" lon="0.8749">
        <ele>127</ele>
        <time>2018-03-03T15:54:59.511Z</time>
      </trkpt>
      <trkpt lat="44.57967" lon="0.87487">
        <ele>127</ele>
        <time>2018-03-03T15:55:00.511Z</time>
      </trkpt>
      <trkpt lat="44.57967" lon="0.87485">
        <ele>127</ele>
        <time>2018-03-03T15:55:01.511Z</time>
      </trkpt>
      <trkpt lat="44.57967" lon="0.87482">
        <ele>127</ele>
        <time>2018-03-03T15:55:02.511Z</time>
      </trkpt>
      <trkpt lat="44.57967" lon="0.87478">
        <ele>127</ele>
        <time>2018-03-03T15:55:03.511Z</time>
      </trkpt>
      <trkpt lat="44.57967" lon="0.87475">
        <ele>127</ele>
        <time>2018-03-03T15:55:04.511Z</time>
      </trkpt>
      <trkpt lat="44.57968" lon="0.87472">
        <ele>127</ele>
        <time>2018-03-03T15:55:05.511Z</time>
      </trkpt>
      <trkpt lat="44.57968" lon="0.8747">
        <ele>127</ele>
        <time>2018-03-03T15:55:06.511Z</time>
      </trkpt>
      <trkpt lat="44.57969" lon="0.87467">
        <ele>127</ele>
        <time>2018-03-03T15:55:07.511Z</time>
      </trkpt>
      <trkpt lat="44.5797" lon="0.87465">
        <ele>128</ele>
        <time>2018-03-03T15:55:08.511Z</time>
      </trkpt>
      <trkpt lat="44.57971" lon="0.87463">
        <ele>128</ele>
        <time>2018-03-03T15:55:09.511Z</time>
      </trkpt>
      <trkpt lat="44.57971" lon="0.87462">
        <ele>128</ele>
        <time>2018-03-03T15:55:10.511Z</time>
      </trkpt>
      <trkpt lat="44.57971" lon="0.87461">
        <ele>128</ele>
        <time>2018-03-03T15:55:11.511Z</time>
      </trkpt>
      <trkpt lat="44.57971" lon="0.8746">
        <ele>128</ele>
        <time>2018-03-03T15:55:12.511Z</time>
      </trkpt>
      <trkpt lat="44.57972" lon="0.8746">
        <ele>128</ele>
        <time>2018-03-03T15:55:13.511Z</time>
      </trkpt>
      <trkpt lat="44.57972" lon="0.8746">
        <ele>128</ele>
        <time>2018-03-03T15:55:14.511Z</time>
      </trkpt>
      <trkpt lat="44.57972" lon="0.87459">
        <ele>128</ele>
        <time>2018-03-03T15:55:15.511Z</time>
      </trkpt>
      <trkpt lat="44.57972" lon="0.87459">
        <ele>128</ele>
        <time>2018-03-03T15:55:16.511Z</time>
      </trkpt>
      <trkpt lat="44.57972" lon="0.87459">
        <ele>128</ele>
        <time>2018-03-03T15:55:17.511Z</time>
      </trkpt>
      <trkpt lat="44.57972" lon="0.87459">
        <ele>128</ele>
        <time>2018-03-03T15:55:18.511Z</time>
      </trkpt>
      <trkpt lat="44.57972" lon="0.87459">
        <ele>128</ele>
        <time>2018-03-03T15:55:19.511Z</time>
      </trkpt>
      <trkpt lat="44.57972" lon="0.87459">
        <ele>128</ele>
        <time>2018-03-03T15:55:20.511Z</time>
      </trkpt>
      <trkpt lat="44.57972" lon="0.87459">
        <ele>128</ele>
        <time>2018-03-03T15:55:21.511Z</time>
      </trkpt>
      <trkpt lat="44.57972" lon="0.87459">
        <ele>128</ele>
        <time>2018-03-03T15:55:22.511Z</time>
      </trkpt>
      <trkpt lat="44.57972" lon="0.87459">
        <ele>128</ele>
        <time>2018-03-03T15:55:23.511Z</time>
      </trkpt>
      <trkpt lat="44.57972" lon="0.87459">
        <ele>128</ele>
        <time>2018-03-03T15:55:24.511Z</time>
      </trkpt>
      <trkpt lat="44.57972" lon="0.87459">
        <ele>128</ele>
        <time>2018-03-03T15:55:25.511Z</time>
      </trkpt>
      <trkpt lat="44.57972" lon="0.87459">
        <ele>128</ele>
        <time>2018-03-03T15:55:26.511Z</time>
      </trkpt>
      <trkpt lat="44.57972" lon="0.87459">
        <ele>128</ele>
        <time>2018-03-03T15:55:27.511Z</time>
      </trkpt>
      <trkpt lat="44.57972" lon="0.87459">
        <ele>128</ele>
        <time>2018-03-03T15:55:28.511Z</time>
      </trkpt>
      <trkpt lat="44.57972" lon="0.87459">
        <ele>128</ele>
        <time>2018-03-03T15:55:29.511Z</time>
      </trkpt>
      <trkpt lat="44.57972" lon="0.87459">
        <ele>128</ele>
        <time>2018-03-03T15:55:30.511Z</time>
      </trkpt>
      <trkpt lat="44.57972" lon="0.87459">
        <ele>128</ele>
        <time>2018-03-03T15:55:31.511Z</time>
      </trkpt>
      <trkpt lat="44.57972" lon="0.87459">
        <ele>128</ele>
        <time>2018-03-03T15:55:32.511Z</time>
      </trkpt>
      <trkpt lat="44.57972" lon="0.87459">
        <ele>128</ele>
        <time>2018-03-03T15:55:33.511Z</time>
      </trkpt>
      <trkpt lat="44.57972" lon="0.87459">
        <ele>129</ele>
        <time>2018-03-03T15:55:34.511Z</time>
      </trkpt>
      <trkpt lat="44.57972" lon="0.87459">
        <ele>129</ele>
        <time>2018-03-03T15:55:35.511Z</time>
      </trkpt>
      <trkpt lat="44.57972" lon="0.87459">
        <ele>129</ele>
        <time>2018-03-03T15:55:36.511Z</time>
      </trkpt>
      <trkpt lat="44.57972" lon="0.87459">
        <ele>129</ele>
        <time>2018-03-03T15:55:37.511Z</time>
      </trkpt>
      <trkpt lat="44.57972" lon="0.87459">
        <ele>129</ele>
        <time>2018-03-03T15:55:38.511Z</time>
      </trkpt>
      <trkpt lat="44.57972" lon="0.87459">
        <ele>129</ele>
        <time>2018-03-03T15:55:39.511Z</time>
      </trkpt>
      <trkpt lat="44.57972" lon="0.87459">
        <ele>129</ele>
        <time>2018-03-03T15:55:40.511Z</time>
      </trkpt>
      <trkpt lat="44.57972" lon="0.87459">
        <ele>129</ele>
        <time>2018-03-03T15:55:41.511Z</time>
      </trkpt>
      <trkpt lat="44.57972" lon="0.87459">
        <ele>129</ele>
        <time>2018-03-03T15:55:42.511Z</time>
      </trkpt>
      <trkpt lat="44.57972" lon="0.87459">
        <ele>129</ele>
        <time>2018-03-03T15:55:43.511Z</time>
      </trkpt>
      <trkpt lat="44.57972" lon="0.87457">
        <ele>129</ele>
        <time>2018-03-03T15:55:44.511Z</time>
      </trkpt>
      <trkpt lat="44.57972" lon="0.87454">
        <ele>129</ele>
        <time>2018-03-03T15:55:45.511Z</time>
      </trkpt>
      <trkpt lat="44.57971" lon="0.87451">
        <ele>129</ele>
        <time>2018-03-03T15:55:46.511Z</time>
      </trkpt>
      <trkpt lat="44.5797" lon="0.87449">
        <ele>129</ele>
        <time>2018-03-03T15:55:47.511Z</time>
      </trkpt>
      <trkpt lat="44.57969" lon="0.87447">
        <ele>129</ele>
        <time>2018-03-03T15:55:48.511Z</time>
      </trkpt>
      <trkpt lat="44.57969" lon="0.87445">
        <ele>130</ele>
        <time>2018-03-03T15:55:49.511Z</time>
      </trkpt>
      <trkpt lat="44.57968" lon="0.87443">
        <ele>130</ele>
        <time>2018-03-03T15:55:50.511Z</time>
      </trkpt>
      <trkpt lat="44.57968" lon="0.87441">
        <ele>130</ele>
        <time>2018-03-03T15:55:51.511Z</time>
      </trkpt>
      <trkpt lat="44.57967" lon="0.8744">
        <ele>130</ele>
        <time>2018-03-03T15:55:52.511Z</time>
      </trkpt>
      <trkpt lat="44.57966" lon="0.87438">
        <ele>130</ele>
        <time>2018-03-03T15:55:53.511Z</time>
      </trkpt>
      <trkpt lat="44.57965" lon="0.87437">
        <ele>131</ele>
        <time>2018-03-03T15:55:54.511Z</time>
      </trkpt>
      <trkpt lat="44.57964" lon="0.87435">
        <ele>131</ele>
        <time>2018-03-03T15:55:55.511Z</time>
      </trkpt>
      <trkpt lat="44.57963" lon="0.87434">
        <ele>131</ele>
        <time>2018-03-03T15:55:56.511Z</time>
      </trkpt>
      <trkpt lat="44.57962" lon="0.87433">
        <ele>132</ele>
        <time>2018-03-03T15:55:57.511Z</time>
      </trkpt>
      <trkpt lat="44.57961" lon="0.87432">
        <ele>132</ele>
        <time>2018-03-03T15:55:58.511Z</time>
      </trkpt>
      <trkpt lat="44.5796" lon="0.87431">
        <ele>132</ele>
        <time>2018-03-03T15:55:59.511Z</time>
      </trkpt>
      <trkpt lat="44.57959" lon="0.8743">
        <ele>132</ele>
        <time>2018-03-03T15:56:00.511Z</time>
      </trkpt>
      <trkpt lat="44.57958" lon="0.8743">
        <ele>133</ele>
        <time>2018-03-03T15:56:01.511Z</time>
      </trkpt>
      <trkpt lat="44.57958" lon="0.87429">
        <ele>133</ele>
        <time>2018-03-03T15:56:02.511Z</time>
      </trkpt>
      <trkpt lat="44.57958" lon="0.87429">
        <ele>133</ele>
        <time>2018-03-03T15:56:03.511Z</time>
      </trkpt>
      <trkpt lat="44.57958" lon="0.87429">
        <ele>133</ele>
        <time>2018-03-03T15:56:04.511Z</time>
      </trkpt>
      <trkpt lat="44.57958" lon="0.87429">
        <ele>133</ele>
        <time>2018-03-03T15:56:05.511Z</time>
      </trkpt>
      <trkpt lat="44.57958" lon="0.87429">
        <ele>133</ele>
        <time>2018-03-03T15:56:06.511Z</time>
      </trkpt>
      <trkpt lat="44.57957" lon="0.87428">
        <ele>134</ele>
        <time>2018-03-03T15:56:07.511Z</time>
      </trkpt>
      <trkpt lat="44.57957" lon="0.87428">
        <ele>134</ele>
        <time>2018-03-03T15:56:08.511Z</time>
      </trkpt>
      <trkpt lat="44.57956" lon="0.87427">
        <ele>134</ele>
        <time>2018-03-03T15:56:09.511Z</time>
      </trkpt>
      <trkpt lat="44.57954" lon="0.87426">
        <ele>134</ele>
        <time>2018-03-03T15:56:10.511Z</time>
      </trkpt>
      <trkpt lat="44.57952" lon="0.87425">
        <ele>134</ele>
        <time>2018-03-03T15:56:11.511Z</time>
      </trkpt>
      <trkpt lat="44.57949" lon="0.87424">
        <ele>134</ele>
        <time>2018-03-03T15:56:12.511Z</time>
      </trkpt>
      <trkpt lat="44.57947" lon="0.87423">
        <ele>134</ele>
        <time>2018-03-03T15:56:13.511Z</time>
      </trkpt>
      <trkpt lat="44.57945" lon="0.87423">
        <ele>135</ele>
        <time>2018-03-03T15:56:14.511Z</time>
      </trkpt>
      <trkpt lat="44.57942" lon="0.87422">
        <ele>135</ele>
        <time>2018-03-03T15:56:15.511Z</time>
      </trkpt>
      <trkpt lat="44.5794" lon="0.87421">
        <ele>135</ele>
        <time>2018-03-03T15:56:16.511Z</time>
      </trkpt>
      <trkpt lat="44.57938" lon="0.87421">
        <ele>135</ele>
        <time>2018-03-03T15:56:17.511Z</time>
      </trkpt>
      <trkpt lat="44.57935" lon="0.8742">
        <ele>135</ele>
        <time>2018-03-03T15:56:18.511Z</time>
      </trkpt>
      <trkpt lat="44.57933" lon="0.8742">
        <ele>136</ele>
        <time>2018-03-03T15:56:19.511Z</time>
      </trkpt>
      <trkpt lat="44.57931" lon="0.8742">
        <ele>136</ele>
        <time>2018-03-03T15:56:20.511Z</time>
      </trkpt>
      <trkpt lat="44.57929" lon="0.87419">
        <ele>136</ele>
        <time>2018-03-03T15:56:21.511Z</time>
      </trkpt>
      <trkpt lat="44.57927" lon="0.87419">
        <ele>136</ele>
        <time>2018-03-03T15:56:22.511Z</time>
      </trkpt>
      <trkpt lat="44.57925" lon="0.87419">
        <ele>137</ele>
        <time>2018-03-03T15:56:23.511Z</time>
      </trkpt>
      <trkpt lat="44.57924" lon="0.87418">
        <ele>137</ele>
        <time>2018-03-03T15:56:24.511Z</time>
      </trkpt>
      <trkpt lat="44.57922" lon="0.87418">
        <ele>137</ele>
        <time>2018-03-03T15:56:25.511Z</time>
      </trkpt>
      <trkpt lat="44.57921" lon="0.87418">
        <ele>138</ele>
        <time>2018-03-03T15:56:26.511Z</time>
      </trkpt>
      <trkpt lat="44.57919" lon="0.87417">
        <ele>138</ele>
        <time>2018-03-03T15:56:27.511Z</time>
      </trkpt>
      <trkpt lat="44.57918" lon="0.87417">
        <ele>138</ele>
        <time>2018-03-03T15:56:28.511Z</time>
      </trkpt>
      <trkpt lat="44.57916" lon="0.87417">
        <ele>139</ele>
        <time>2018-03-03T15:56:29.511Z</time>
      </trkpt>
      <trkpt lat="44.57915" lon="0.87417">
        <ele>139</ele>
        <time>2018-03-03T15:56:30.511Z</time>
      </trkpt>
      <trkpt lat="44.57913" lon="0.87417">
        <ele>139</ele>
        <time>2018-03-03T15:56:31.511Z</time>
      </trkpt>
      <trkpt lat="44.57912" lon="0.87417">
        <ele>139</ele>
        <time>2018-03-03T15:56:32.511Z</time>
      </trkpt>
      <trkpt lat="44.5791" lon="0.87417">
        <ele>139</ele>
        <time>2018-03-03T15:56:33.511Z</time>
      </trkpt>
      <trkpt lat="44.57909" lon="0.87417">
        <ele>140</ele>
        <time>2018-03-03T15:56:34.511Z</time>
      </trkpt>
      <trkpt lat="44.57907" lon="0.87417">
        <ele>140</ele>
        <time>2018-03-03T15:56:35.511Z</time>
      </trkpt>
      <trkpt lat="44.57906" lon="0.87417">
        <ele>140</ele>
        <time>2018-03-03T15:56:36.511Z</time>
      </trkpt>
      <trkpt lat="44.57905" lon="0.87417">
        <ele>140</ele>
        <time>2018-03-03T15:56:37.511Z</time>
      </trkpt>
      <trkpt lat="44.57905" lon="0.87417">
        <ele>141</ele>
        <time>2018-03-03T15:56:38.511Z</time>
      </trkpt>
      <trkpt lat="44.57905" lon="0.87417">
        <ele>141</ele>
        <time>2018-03-03T15:56:39.511Z</time>
      </trkpt>
      <trkpt lat="44.57904" lon="0.87417">
        <ele>141</ele>
        <time>2018-03-03T15:56:40.511Z</time>
      </trkpt>
      <trkpt lat="44.57904" lon="0.87417">
        <ele>141</ele>
        <time>2018-03-03T15:56:41.511Z</time>
      </trkpt>
      <trkpt lat="44.57904" lon="0.87417">
        <ele>142</ele>
        <time>2018-03-03T15:56:42.511Z</time>
      </trkpt>
      <trkpt lat="44.57904" lon="0.87417">
        <ele>142</ele>
        <time>2018-03-03T15:56:43.511Z</time>
      </trkpt>
      <trkpt lat="44.57902" lon="0.87417">
        <ele>142</ele>
        <time>2018-03-03T15:56:44.511Z</time>
      </trkpt>
      <trkpt lat="44.57899" lon="0.87417">
        <ele>142</ele>
        <time>2018-03-03T15:56:45.511Z</time>
      </trkpt>
      <trkpt lat="44.57896" lon="0.87418">
        <ele>143</ele>
        <time>2018-03-03T15:56:46.511Z</time>
      </trkpt>
      <trkpt lat="44.57894" lon="0.87418">
        <ele>143</ele>
        <time>2018-03-03T15:56:47.511Z</time>
      </trkpt>
      <trkpt lat="44.57893" lon="0.87418">
        <ele>143</ele>
        <time>2018-03-03T15:56:48.511Z</time>
      </trkpt>
      <trkpt lat="44.57892" lon="0.87418">
        <ele>143</ele>
        <time>2018-03-03T15:56:49.511Z</time>
      </trkpt>
      <trkpt lat="44.57892" lon="0.87418">
        <ele>144</ele>
        <time>2018-03-03T15:56:50.511Z</time>
      </trkpt>
      <trkpt lat="44.57891" lon="0.87418">
        <ele>144</ele>
        <time>2018-03-03T15:56:51.511Z</time>
      </trkpt>
      <trkpt lat="44.57891" lon="0.87418">
        <ele>144</ele>
        <time>2018-03-03T15:56:52.511Z</time>
      </trkpt>
      <trkpt lat="44.57891" lon="0.87418">
        <ele>144</ele>
        <time>2018-03-03T15:56:53.511Z</time>
      </trkpt>
      <trkpt lat="44.57891" lon="0.87418">
        <ele>144</ele>
        <time>2018-03-03T15:56:54.511Z</time>
      </trkpt>
      <trkpt lat="44.57891" lon="0.87418">
        <ele>144</ele>
        <time>2018-03-03T15:56:55.511Z</time>
      </trkpt>
      <trkpt lat="44.57891" lon="0.87418">
        <ele>144</ele>
        <time>2018-03-03T15:56:56.511Z</time>
      </trkpt>
      <trkpt lat="44.57891" lon="0.87418">
        <ele>144</ele>
        <time>2018-03-03T15:56:57.511Z</time>
      </trkpt>
      <trkpt lat="44.57891" lon="0.87418">
        <ele>145</ele>
        <time>2018-03-03T15:56:58.511Z</time>
      </trkpt>
      <trkpt lat="44.57891" lon="0.87418">
        <ele>145</ele>
        <time>2018-03-03T15:56:59.511Z</time>
      </trkpt>
      <trkpt lat="44.57891" lon="0.87418">
        <ele>145</ele>
        <time>2018-03-03T15:57:00.511Z</time>
      </trkpt>
      <trkpt lat="44.57891" lon="0.87418">
        <ele>145</ele>
        <time>2018-03-03T15:57:01.511Z</time>
      </trkpt>
      <trkpt lat="44.57891" lon="0.87418">
        <ele>145</ele>
        <time>2018-03-03T15:57:02.511Z</time>
      </trkpt>
      <trkpt lat="44.57891" lon="0.87418">
        <ele>145</ele>
        <time>2018-03-03T15:57:03.511Z</time>
      </trkpt>
      <trkpt lat="44.57891" lon="0.87418">
        <ele>145</ele>
        <time>2018-03-03T15:57:04.511Z</time>
      </trkpt>
      <trkpt lat="44.57891" lon="0.87418">
        <ele>145</ele>
        <time>2018-03-03T15:57:05.511Z</time>
      </trkpt>
      <trkpt lat="44.57891" lon="0.87418">
        <ele>145</ele>
        <time>2018-03-03T15:57:06.511Z</time>
      </trkpt>
      <trkpt lat="44.57891" lon="0.87418">
        <ele>145</ele>
        <time>2018-03-03T15:57:07.511Z</time>
      </trkpt>
      <trkpt lat="44.57891" lon="0.87418">
        <ele>145</ele>
        <time>2018-03-03T15:57:08.511Z</time>
      </trkpt>
      <trkpt lat="44.57891" lon="0.87418">
        <ele>145</ele>
        <time>2018-03-03T15:57:09.511Z</time>
      </trkpt>
      <trkpt lat="44.57891" lon="0.87418">
        <ele>145</ele>
        <time>2018-03-03T15:57:10.511Z</time>
      </trkpt>
      <trkpt lat="44.5789" lon="0.87418">
        <ele>145</ele>
        <time>2018-03-03T15:57:11.511Z</time>
      </trkpt>
      <trkpt lat="44.5789" lon="0.87418">
        <ele>145</ele>
        <time>2018-03-03T15:57:12.511Z</time>
      </trkpt>
      <trkpt lat="44.57889" lon="0.87418">
        <ele>145</ele>
        <time>2018-03-03T15:57:13.511Z</time>
      </trkpt>
      <trkpt lat="44.57888" lon="0.87419">
        <ele>145</ele>
        <time>2018-03-03T15:57:14.511Z</time>
      </trkpt>
      <trkpt lat="44.57885" lon="0.87419">
        <ele>145</ele>
        <time>2018-03-03T15:57:15.511Z</time>
      </trkpt>
      <trkpt lat="44.57883" lon="0.87419">
        <ele>146</ele>
        <time>2018-03-03T15:57:16.511Z</time>
      </trkpt>
      <trkpt lat="44.57881" lon="0.87419">
        <ele>146</ele>
        <time>2018-03-03T15:57:17.511Z</time>
      </trkpt>
      <trkpt lat="44.5788" lon="0.87419">
        <ele>146</ele>
        <time>2018-03-03T15:57:18.511Z</time>
      </trkpt>
      <trkpt lat="44.5788" lon="0.87419">
        <ele>146</ele>
        <time>2018-03-03T15:57:19.511Z</time>
      </trkpt>
      <trkpt lat="44.57879" lon="0.87419">
        <ele>146</ele>
        <time>2018-03-03T15:57:20.511Z</time>
      </trkpt>
      <trkpt lat="44.57878" lon="0.87419">
        <ele>147</ele>
        <time>2018-03-03T15:57:21.511Z</time>
      </trkpt>
      <trkpt lat="44.57876" lon="0.87419">
        <ele>147</ele>
        <time>2018-03-03T15:57:22.511Z</time>
      </trkpt>
      <trkpt lat="44.57874" lon="0.87418">
        <ele>147</ele>
        <time>2018-03-03T15:57:23.511Z</time>
      </trkpt>
      <trkpt lat="44.57872" lon="0.87418">
        <ele>148</ele>
        <time>2018-03-03T15:57:24.511Z</time>
      </trkpt>
      <trkpt lat="44.5787" lon="0.87417">
        <ele>148</ele>
        <time>2018-03-03T15:57:25.511Z</time>
      </trkpt>
      <trkpt lat="44.57869" lon="0.87417">
        <ele>148</ele>
        <time>2018-03-03T15:57:26.511Z</time>
      </trkpt>
      <trkpt lat="44.57869" lon="0.87417">
        <ele>148</ele>
        <time>2018-03-03T15:57:27.511Z</time>
      </trkpt>
      <trkpt lat="44.57869" lon="0.87417">
        <ele>149</ele>
        <time>2018-03-03T15:57:28.511Z</time>
      </trkpt>
      <trkpt lat="44.57868" lon="0.87417">
        <ele>149</ele>
        <time>2018-03-03T15:57:29.511Z</time>
      </trkpt>
      <trkpt lat="44.57868" lon="0.87417">
        <ele>149</ele>
        <time>2018-03-03T15:57:30.511Z</time>
      </trkpt>
      <trkpt lat="44.57867" lon="0.87417">
        <ele>149</ele>
        <time>2018-03-03T15:57:31.511Z</time>
      </trkpt>
      <trkpt lat="44.57867" lon="0.87417">
        <ele>149</ele>
        <time>2018-03-03T15:57:32.511Z</time>
      </trkpt>
      <trkpt lat="44.57865" lon="0.87417">
        <ele>150</ele>
        <time>2018-03-03T15:57:33.511Z</time>
      </trkpt>
      <trkpt lat="44.57862" lon="0.87416">
        <ele>150</ele>
        <time>2018-03-03T15:57:34.511Z</time>
      </trkpt>
      <trkpt lat="44.5786" lon="0.87415">
        <ele>150</ele>
        <time>2018-03-03T15:57:35.511Z</time>
      </trkpt>
      <trkpt lat="44.57858" lon="0.87415">
        <ele>150</ele>
        <time>2018-03-03T15:57:36.511Z</time>
      </trkpt>
      <trkpt lat="44.57857" lon="0.87415">
        <ele>150</ele>
        <time>2018-03-03T15:57:37.511Z</time>
      </trkpt>
      <trkpt lat="44.57856" lon="0.87415">
        <ele>150</ele>
        <time>2018-03-03T15:57:38.511Z</time>
      </trkpt>
      <trkpt lat="44.57856" lon="0.87415">
        <ele>151</ele>
        <time>2018-03-03T15:57:39.511Z</time>
      </trkpt>
      <trkpt lat="44.57856" lon="0.87415">
        <ele>151</ele>
        <time>2018-03-03T15:57:40.511Z</time>
      </trkpt>
      <trkpt lat="44.57856" lon="0.87415">
        <ele>151</ele>
        <time>2018-03-03T15:57:41.511Z</time>
      </trkpt>
      <trkpt lat="44.57856" lon="0.87415">
        <ele>151</ele>
        <time>2018-03-03T15:57:42.511Z</time>
      </trkpt>
      <trkpt lat="44.57854" lon="0.87415">
        <ele>151</ele>
        <time>2018-03-03T15:57:43.511Z</time>
      </trkpt>
      <trkpt lat="44.57852" lon="0.87415">
        <ele>151</ele>
        <time>2018-03-03T15:57:44.511Z</time>
      </trkpt>
      <trkpt lat="44.5785" lon="0.87415">
        <ele>152</ele>
        <time>2018-03-03T15:57:45.511Z</time>
      </trkpt>
      <trkpt lat="44.57847" lon="0.87415">
        <ele>152</ele>
        <time>2018-03-03T15:57:46.511Z</time>
      </trkpt>
      <trkpt lat="44.57845" lon="0.87415">
        <ele>152</ele>
        <time>2018-03-03T15:57:47.511Z</time>
      </trkpt>
      <trkpt lat="44.57843" lon="0.87415">
        <ele>152</ele>
        <time>2018-03-03T15:57:48.511Z</time>
      </trkpt>
      <trkpt lat="44.57842" lon="0.87415">
        <ele>152</ele>
        <time>2018-03-03T15:57:49.511Z</time>
      </trkpt>
      <trkpt lat="44.57841" lon="0.87414">
        <ele>153</ele>
        <time>2018-03-03T15:57:50.511Z</time>
      </trkpt>
      <trkpt lat="44.5784" lon="0.87414">
        <ele>153</ele>
        <time>2018-03-03T15:57:51.511Z</time>
      </trkpt>
      <trkpt lat="44.57839" lon="0.87414">
        <ele>153</ele>
        <time>2018-03-03T15:57:52.511Z</time>
      </trkpt>
      <trkpt lat="44.57839" lon="0.87414">
        <ele>153</ele>
        <time>2018-03-03T15:57:53.511Z</time>
      </trkpt>
      <trkpt lat="44.57839" lon="0.87414">
        <ele>153</ele>
        <time>2018-03-03T15:57:54.511Z</time>
      </trkpt>
      <trkpt lat="44.57839" lon="0.87414">
        <ele>153</ele>
        <time>2018-03-03T15:57:55.511Z</time>
      </trkpt>
      <trkpt lat="44.57839" lon="0.87414">
        <ele>154</ele>
        <time>2018-03-03T15:57:56.511Z</time>
      </trkpt>
      <trkpt lat="44.57839" lon="0.87414">
        <ele>154</ele>
        <time>2018-03-03T15:57:57.511Z</time>
      </trkpt>
      <trkpt lat="44.57839" lon="0.87414">
        <ele>154</ele>
        <time>2018-03-03T15:57:58.511Z</time>
      </trkpt>
      <trkpt lat="44.57839" lon="0.87414">
        <ele>154</ele>
        <time>2018-03-03T15:57:59.511Z</time>
      </trkpt>
      <trkpt lat="44.57839" lon="0.87414">
        <ele>154</ele>
        <time>2018-03-03T15:58:00.511Z</time>
      </trkpt>
      <trkpt lat="44.57839" lon="0.87414">
        <ele>154</ele>
        <time>2018-03-03T15:58:01.511Z</time>
      </trkpt>
      <trkpt lat="44.57839" lon="0.87414">
        <ele>154</ele>
        <time>2018-03-03T15:58:02.511Z</time>
      </trkpt>
      <trkpt lat="44.57839" lon="0.87414">
        <ele>155</ele>
        <time>2018-03-03T15:58:03.511Z</time>
      </trkpt>
      <trkpt lat="44.57839" lon="0.87414">
        <ele>154</ele>
        <time>2018-03-03T15:58:04.511Z</time>
      </trkpt>
      <trkpt lat="44.57839" lon="0.87414">
        <ele>154</ele>
        <time>2018-03-03T15:58:05.511Z</time>
      </trkpt>
      <trkpt lat="44.57839" lon="0.87414">
        <ele>154</ele>
        <time>2018-03-03T15:58:06.511Z</time>
      </trkpt>
      <trkpt lat="44.57839" lon="0.87414">
        <ele>155</ele>
        <time>2018-03-03T15:58:07.511Z</time>
      </trkpt>
      <trkpt lat="44.57839" lon="0.87414">
        <ele>155</ele>
        <time>2018-03-03T15:58:08.511Z</time>
      </trkpt>
      <trkpt lat="44.57838" lon="0.87414">
        <ele>155</ele>
        <time>2018-03-03T15:58:09.511Z</time>
      </trkpt>
      <trkpt lat="44.57837" lon="0.87414">
        <ele>155</ele>
        <time>2018-03-03T15:58:10.511Z</time>
      </trkpt>
      <trkpt lat="44.57833" lon="0.87413">
        <ele>155</ele>
        <time>2018-03-03T15:58:11.511Z</time>
      </trkpt>
      <trkpt lat="44.57831" lon="0.87412">
        <ele>155</ele>
        <time>2018-03-03T15:58:12.511Z</time>
      </trkpt>
      <trkpt lat="44.57831" lon="0.87412">
        <ele>155</ele>
        <time>2018-03-03T15:58:13.511Z</time>
      </trkpt>
      <trkpt lat="44.5783" lon="0.87412">
        <ele>155</ele>
        <time>2018-03-03T15:58:14.511Z</time>
      </trkpt>
      <trkpt lat="44.5783" lon="0.87412">
        <ele>155</ele>
        <time>2018-03-03T15:58:15.511Z</time>
      </trkpt>
      <trkpt lat="44.5783" lon="0.87412">
        <ele>156</ele>
        <time>2018-03-03T15:58:16.511Z</time>
      </trkpt>
      <trkpt lat="44.5783" lon="0.87412">
        <ele>156</ele>
        <time>2018-03-03T15:58:17.511Z</time>
      </trkpt>
      <trkpt lat="44.5783" lon="0.87412">
        <ele>156</ele>
        <time>2018-03-03T15:58:18.511Z</time>
      </trkpt>
      <trkpt lat="44.5783" lon="0.87412">
        <ele>156</ele>
        <time>2018-03-03T15:58:19.511Z</time>
      </trkpt>
      <trkpt lat="44.5783" lon="0.87412">
        <ele>156</ele>
        <time>2018-03-03T15:58:20.511Z</time>
      </trkpt>
      <trkpt lat="44.5783" lon="0.87412">
        <ele>156</ele>
        <time>2018-03-03T15:58:21.511Z</time>
      </trkpt>
      <trkpt lat="44.5783" lon="0.87412">
        <ele>156</ele>
        <time>2018-03-03T15:58:22.511Z</time>
      </trkpt>
      <trkpt lat="44.5783" lon="0.87412">
        <ele>156</ele>
        <time>2018-03-03T15:58:23.511Z</time>
      </trkpt>
      <trkpt lat="44.5783" lon="0.87412">
        <ele>156</ele>
        <time>2018-03-03T15:58:24.511Z</time>
      </trkpt>
      <trkpt lat="44.5783" lon="0.87412">
        <ele>156</ele>
        <time>2018-03-03T15:58:25.511Z</time>
      </trkpt>
      <trkpt lat="44.5783" lon="0.87412">
        <ele>156</ele>
        <time>2018-03-03T15:58:26.511Z</time>
      </trkpt>
      <trkpt lat="44.5783" lon="0.87412">
        <ele>156</ele>
        <time>2018-03-03T15:58:27.511Z</time>
      </trkpt>
      <trkpt lat="44.5783" lon="0.87412">
        <ele>156</ele>
        <time>2018-03-03T15:58:28.511Z</time>
      </trkpt>
      <trkpt lat="44.5783" lon="0.87412">
        <ele>156</ele>
        <time>2018-03-03T15:58:29.511Z</time>
      </trkpt>
      <trkpt lat="44.5783" lon="0.87412">
        <ele>156</ele>
        <time>2018-03-03T15:58:30.511Z</time>
      </trkpt>
      <trkpt lat="44.5783" lon="0.87412">
        <ele>156</ele>
        <time>2018-03-03T15:58:31.511Z</time>
      </trkpt>
      <trkpt lat="44.5783" lon="0.87412">
        <ele>156</ele>
        <time>2018-03-03T15:58:32.511Z</time>
      </trkpt>
      <trkpt lat="44.5783" lon="0.87412">
        <ele>156</ele>
        <time>2018-03-03T15:58:33.511Z</time>
      </trkpt>
      <trkpt lat="44.5783" lon="0.87412">
        <ele>156</ele>
        <time>2018-03-03T15:58:34.511Z</time>
      </trkpt>
      <trkpt lat="44.5783" lon="0.87412">
        <ele>156</ele>
        <time>2018-03-03T15:58:35.511Z</time>
      </trkpt>
      <trkpt lat="44.5783" lon="0.87412">
        <ele>156</ele>
        <time>2018-03-03T15:58:36.511Z</time>
      </trkpt>
      <trkpt lat="44.5783" lon="0.87412">
        <ele>156</ele>
        <time>2018-03-03T15:58:37.511Z</time>
      </trkpt>
      <trkpt lat="44.5783" lon="0.87412">
        <ele>156</ele>
        <time>2018-03-03T15:58:38.511Z</time>
      </trkpt>
      <trkpt lat="44.5783" lon="0.87412">
        <ele>156</ele>
        <time>2018-03-03T15:58:39.511Z</time>
      </trkpt>
      <trkpt lat="44.5783" lon="0.87412">
        <ele>156</ele>
        <time>2018-03-03T15:58:40.511Z</time>
      </trkpt>
      <trkpt lat="44.5783" lon="0.87412">
        <ele>156</ele>
        <time>2018-03-03T15:58:41.511Z</time>
      </trkpt>
      <trkpt lat="44.5783" lon="0.87412">
        <ele>156</ele>
        <time>2018-03-03T15:58:42.511Z</time>
      </trkpt>
      <trkpt lat="44.5783" lon="0.87412">
        <ele>156</ele>
        <time>2018-03-03T15:58:43.511Z</time>
      </trkpt>
      <trkpt lat="44.5783" lon="0.87412">
        <ele>156</ele>
        <time>2018-03-03T15:58:44.511Z</time>
      </trkpt>
      <trkpt lat="44.5783" lon="0.87412">
        <ele>156</ele>
        <time>2018-03-03T15:58:45.511Z</time>
      </trkpt>
      <trkpt lat="44.5783" lon="0.87412">
        <ele>156</ele>
        <time>2018-03-03T15:58:46.511Z</time>
      </trkpt>
      <trkpt lat="44.5783" lon="0.87412">
        <ele>157</ele>
        <time>2018-03-03T15:58:47.511Z</time>
      </trkpt>
      <trkpt lat="44.5783" lon="0.87412">
        <ele>157</ele>
        <time>2018-03-03T15:58:48.511Z</time>
      </trkpt>
      <trkpt lat="44.5783" lon="0.87412">
        <ele>157</ele>
        <time>2018-03-03T15:58:49.511Z</time>
      </trkpt>
      <trkpt lat="44.5783" lon="0.87412">
        <ele>157</ele>
        <time>2018-03-03T15:58:50.511Z</time>
      </trkpt>
      <trkpt lat="44.5783" lon="0.87412">
        <ele>157</ele>
        <time>2018-03-03T15:58:51.511Z</time>
      </trkpt>
      <trkpt lat="44.5783" lon="0.87412">
        <ele>157</ele>
        <time>2018-03-03T15:58:52.511Z</time>
      </trkpt>
      <trkpt lat="44.57827" lon="0.87411">
        <ele>157</ele>
        <time>2018-03-03T15:58:53.511Z</time>
      </trkpt>
      <trkpt lat="44.57825" lon="0.87411">
        <ele>157</ele>
        <time>2018-03-03T15:58:54.511Z</time>
      </trkpt>
      <trkpt lat="44.57822" lon="0.8741">
        <ele>157</ele>
        <time>2018-03-03T15:58:55.511Z</time>
      </trkpt>
      <trkpt lat="44.57822" lon="0.8741">
        <ele>157</ele>
        <time>2018-03-03T15:58:56.511Z</time>
      </trkpt>
      <trkpt lat="44.57822" lon="0.8741">
        <ele>157</ele>
        <time>2018-03-03T15:58:57.511Z</time>
      </trkpt>
      <trkpt lat="44.57822" lon="0.8741">
        <ele>157</ele>
        <time>2018-03-03T15:58:58.511Z</time>
      </trkpt>
      <trkpt lat="44.57822" lon="0.8741">
        <ele>157</ele>
        <time>2018-03-03T15:58:59.511Z</time>
      </trkpt>
      <trkpt lat="44.57822" lon="0.8741">
        <ele>157</ele>
        <time>2018-03-03T15:59:00.511Z</time>
      </trkpt>
      <trkpt lat="44.57822" lon="0.8741">
        <ele>157</ele>
        <time>2018-03-03T15:59:01.511Z</time>
      </trkpt>
      <trkpt lat="44.57822" lon="0.8741">
        <ele>157</ele>
        <time>2018-03-03T15:59:02.511Z</time>
      </trkpt>
      <trkpt lat="44.57822" lon="0.8741">
        <ele>157</ele>
        <time>2018-03-03T15:59:03.511Z</time>
      </trkpt>
      <trkpt lat="44.57822" lon="0.8741">
        <ele>157</ele>
        <time>2018-03-03T15:59:04.511Z</time>
      </trkpt>
      <trkpt lat="44.57822" lon="0.8741">
        <ele>157</ele>
        <time>2018-03-03T15:59:05.511Z</time>
      </trkpt>
      <trkpt lat="44.57822" lon="0.8741">
        <ele>157</ele>
        <time>2018-03-03T15:59:06.511Z</time>
      </trkpt>
      <trkpt lat="44.57822" lon="0.8741">
        <ele>157</ele>
        <time>2018-03-03T15:59:07.511Z</time>
      </trkpt>
      <trkpt lat="44.57822" lon="0.8741">
        <ele>157</ele>
        <time>2018-03-03T15:59:08.511Z</time>
      </trkpt>
      <trkpt lat="44.57822" lon="0.8741">
        <ele>157</ele>
        <time>2018-03-03T15:59:09.511Z</time>
      </trkpt>
      <trkpt lat="44.57822" lon="0.8741">
        <ele>157</ele>
        <time>2018-03-03T15:59:10.511Z</time>
      </trkpt>
      <trkpt lat="44.57822" lon="0.8741">
        <ele>157</ele>
        <time>2018-03-03T15:59:11.511Z</time>
      </trkpt>
      <trkpt lat="44.57822" lon="0.8741">
        <ele>157</ele>
        <time>2018-03-03T15:59:12.511Z</time>
      </trkpt>
      <trkpt lat="44.57822" lon="0.8741">
        <ele>157</ele>
        <time>2018-03-03T15:59:13.511Z</time>
      </trkpt>
      <trkpt lat="44.57822" lon="0.8741">
        <ele>157</ele>
        <time>2018-03-03T15:59:14.511Z</time>
      </trkpt>
      <trkpt lat="44.57822" lon="0.8741">
        <ele>157</ele>
        <time>2018-03-03T15:59:15.511Z</time>
      </trkpt>
      <trkpt lat="44.57822" lon="0.8741">
        <ele>157</ele>
        <time>2018-03-03T15:59:16.511Z</time>
      </trkpt>
      <trkpt lat="44.57822" lon="0.8741">
        <ele>157</ele>
        <time>2018-03-03T15:59:17.511Z</time>
      </trkpt>
      <trkpt lat="44.57822" lon="0.8741">
        <ele>157</ele>
        <time>2018-03-03T15:59:18.511Z</time>
      </trkpt>
      <trkpt lat="44.57822" lon="0.8741">
        <ele>157</ele>
        <time>2018-03-03T15:59:19.511Z</time>
      </trkpt>
      <trkpt lat="44.57822" lon="0.8741">
        <ele>157</ele>
        <time>2018-03-03T15:59:20.511Z</time>
      </trkpt>
      <trkpt lat="44.57822" lon="0.8741">
        <ele>157</ele>
        <time>2018-03-03T15:59:21.511Z</time>
      </trkpt>
      <trkpt lat="44.57822" lon="0.8741">
        <ele>157</ele>
        <time>2018-03-03T15:59:22.511Z</time>
      </trkpt>
      <trkpt lat="44.57822" lon="0.8741">
        <ele>157</ele>
        <time>2018-03-03T15:59:23.511Z</time>
      </trkpt>
      <trkpt lat="44.57822" lon="0.8741">
        <ele>157</ele>
        <time>2018-03-03T15:59:24.511Z</time>
      </trkpt>
      <trkpt lat="44.57822" lon="0.8741">
        <ele>157</ele>
        <time>2018-03-03T15:59:25.511Z</time>
      </trkpt>
      <trkpt lat="44.57822" lon="0.8741">
        <ele>157</ele>
        <time>2018-03-03T15:59:26.511Z</time>
      </trkpt>
      <trkpt lat="44.57822" lon="0.8741">
        <ele>157</ele>
        <time>2018-03-03T15:59:27.511Z</time>
      </trkpt>
      <trkpt lat="44.57822" lon="0.8741">
        <ele>157</ele>
        <time>2018-03-03T15:59:28.511Z</time>
      </trkpt>
      <trkpt lat="44.57822" lon="0.8741">
        <ele>157</ele>
        <time>2018-03-03T15:59:29.511Z</time>
      </trkpt>
      <trkpt lat="44.57822" lon="0.8741">
        <ele>158</ele>
        <time>2018-03-03T15:59:30.511Z</time>
      </trkpt>
      <trkpt lat="44.57822" lon="0.8741">
        <ele>158</ele>
        <time>2018-03-03T15:59:31.511Z</time>
      </trkpt>
      <trkpt lat="44.57822" lon="0.8741">
        <ele>158</ele>
        <time>2018-03-03T15:59:32.511Z</time>
      </trkpt>
      <trkpt lat="44.57822" lon="0.8741">
        <ele>158</ele>
        <time>2018-03-03T15:59:33.511Z</time>
      </trkpt>
      <trkpt lat="44.5782" lon="0.8741">
        <ele>158</ele>
        <time>2018-03-03T15:59:34.511Z</time>
      </trkpt>
      <trkpt lat="44.57814" lon="0.87408">
        <ele>158</ele>
        <time>2018-03-03T15:59:35.511Z</time>
      </trkpt>
      <trkpt lat="44.57812" lon="0.87407">
        <ele>159</ele>
        <time>2018-03-03T15:59:36.511Z</time>
      </trkpt>
      <trkpt lat="44.57812" lon="0.87407">
        <ele>159</ele>
        <time>2018-03-03T15:59:37.511Z</time>
      </trkpt>
      <trkpt lat="44.57812" lon="0.87407">
        <ele>159</ele>
        <time>2018-03-03T15:59:38.511Z</time>
      </trkpt>
      <trkpt lat="44.57812" lon="0.87407">
        <ele>159</ele>
        <time>2018-03-03T15:59:39.511Z</time>
      </trkpt>
      <trkpt lat="44.57812" lon="0.87407">
        <ele>159</ele>
        <time>2018-03-03T15:59:40.511Z</time>
      </trkpt>
      <trkpt lat="44.57812" lon="0.87407">
        <ele>159</ele>
        <time>2018-03-03T15:59:41.511Z</time>
      </trkpt>
      <trkpt lat="44.57812" lon="0.87407">
        <ele>159</ele>
        <time>2018-03-03T15:59:42.511Z</time>
      </trkpt>
      <trkpt lat="44.57812" lon="0.87407">
        <ele>159</ele>
        <time>2018-03-03T15:59:43.511Z</time>
      </trkpt>
      <trkpt lat="44.57812" lon="0.87407">
        <ele>160</ele>
        <time>2018-03-03T15:59:44.511Z</time>
      </trkpt>
      <trkpt lat="44.57812" lon="0.87407">
        <ele>160</ele>
        <time>2018-03-03T15:59:45.511Z</time>
      </trkpt>
      <trkpt lat="44.57812" lon="0.87407">
        <ele>160</ele>
        <time>2018-03-03T15:59:46.511Z</time>
      </trkpt>
      <trkpt lat="44.57812" lon="0.87407">
        <ele>160</ele>
        <time>2018-03-03T15:59:47.511Z</time>
      </trkpt>
      <trkpt lat="44.57812" lon="0.87407">
        <ele>160</ele>
        <time>2018-03-03T15:59:48.511Z</time>
      </trkpt>
      <trkpt lat="44.57812" lon="0.87407">
        <ele>160</ele>
        <time>2018-03-03T15:59:49.511Z</time>
      </trkpt>
      <trkpt lat="44.57812" lon="0.87407">
        <ele>160</ele>
        <time>2018-03-03T15:59:50.511Z</time>
      </trkpt>
      <trkpt lat="44.57811" lon="0.87407">
        <ele>161</ele>
        <time>2018-03-03T15:59:51.511Z</time>
      </trkpt>
      <trkpt lat="44.57811" lon="0.87406">
        <ele>161</ele>
        <time>2018-03-03T15:59:52.511Z</time>
      </trkpt>
      <trkpt lat="44.57808" lon="0.87405">
        <ele>161</ele>
        <time>2018-03-03T15:59:53.511Z</time>
      </trkpt>
      <trkpt lat="44.57803" lon="0.87401">
        <ele>161</ele>
        <time>2018-03-03T15:59:54.511Z</time>
      </trkpt>
      <trkpt lat="44.57802" lon="0.87401">
        <ele>162</ele>
        <time>2018-03-03T15:59:55.511Z</time>
      </trkpt>
      <trkpt lat="44.57801" lon="0.874">
        <ele>162</ele>
        <time>2018-03-03T15:59:56.511Z</time>
      </trkpt>
      <trkpt lat="44.57801" lon="0.874">
        <ele>162</ele>
        <time>2018-03-03T15:59:57.511Z</time>
      </trkpt>
      <trkpt lat="44.57801" lon="0.874">
        <ele>162</ele>
        <time>2018-03-03T15:59:58.511Z</time>
      </trkpt>
      <trkpt lat="44.578" lon="0.874">
        <ele>162</ele>
        <time>2018-03-03T15:59:59.511Z</time>
      </trkpt>
      <trkpt lat="44.57799" lon="0.874">
        <ele>162</ele>
        <time>2018-03-03T16:00:00.511Z</time>
      </trkpt>
      <trkpt lat="44.57797" lon="0.87399">
        <ele>162</ele>
        <time>2018-03-03T16:00:01.511Z</time>
      </trkpt>
      <trkpt lat="44.57795" lon="0.87398">
        <ele>162</ele>
        <time>2018-03-03T16:00:02.511Z</time>
      </trkpt>
      <trkpt lat="44.57793" lon="0.87397">
        <ele>163</ele>
        <time>2018-03-03T16:00:03.511Z</time>
      </trkpt>
      <trkpt lat="44.57791" lon="0.87397">
        <ele>163</ele>
        <time>2018-03-03T16:00:04.511Z</time>
      </trkpt>
      <trkpt lat="44.5779" lon="0.87397">
        <ele>163</ele>
        <time>2018-03-03T16:00:05.511Z</time>
      </trkpt>
      <trkpt lat="44.57789" lon="0.87396">
        <ele>163</ele>
        <time>2018-03-03T16:00:06.511Z</time>
      </trkpt>
      <trkpt lat="44.57787" lon="0.87396">
        <ele>163</ele>
        <time>2018-03-03T16:00:07.511Z</time>
      </trkpt>
      <trkpt lat="44.57785" lon="0.87396">
        <ele>164</ele>
        <time>2018-03-03T16:00:08.511Z</time>
      </trkpt>
      <trkpt lat="44.57782" lon="0.87395">
        <ele>164</ele>
        <time>2018-03-03T16:00:09.511Z</time>
      </trkpt>
      <trkpt lat="44.5778" lon="0.87395">
        <ele>165</ele>
        <time>2018-03-03T16:00:10.511Z</time>
      </trkpt>
      <trkpt lat="44.57778" lon="0.87394">
        <ele>165</ele>
        <time>2018-03-03T16:00:11.511Z</time>
      </trkpt>
      <trkpt lat="44.57776" lon="0.87394">
        <ele>166</ele>
        <time>2018-03-03T16:00:12.511Z</time>
      </trkpt>
      <trkpt lat="44.57774" lon="0.87393">
        <ele>166</ele>
        <time>2018-03-03T16:00:13.511Z</time>
      </trkpt>
      <trkpt lat="44.57773" lon="0.87393">
        <ele>167</ele>
        <time>2018-03-03T16:00:14.511Z</time>
      </trkpt>
      <trkpt lat="44.57771" lon="0.87392">
        <ele>167</ele>
        <time>2018-03-03T16:00:15.511Z</time>
      </trkpt>
      <trkpt lat="44.5777" lon="0.87391">
        <ele>168</ele>
        <time>2018-03-03T16:00:16.511Z</time>
      </trkpt>
      <trkpt lat="44.57768" lon="0.87391">
        <ele>168</ele>
        <time>2018-03-03T16:00:17.511Z</time>
      </trkpt>
      <trkpt lat="44.57766" lon="0.8739">
        <ele>168</ele>
        <time>2018-03-03T16:00:18.511Z</time>
      </trkpt>
      <trkpt lat="44.57765" lon="0.87389">
        <ele>168</ele>
        <time>2018-03-03T16:00:19.511Z</time>
      </trkpt>
      <trkpt lat="44.57764" lon="0.87388">
        <ele>169</ele>
        <time>2018-03-03T16:00:20.511Z</time>
      </trkpt>
      <trkpt lat="44.57763" lon="0.87388">
        <ele>169</ele>
        <time>2018-03-03T16:00:21.511Z</time>
      </trkpt>
      <trkpt lat="44.57762" lon="0.87388">
        <ele>169</ele>
        <time>2018-03-03T16:00:22.511Z</time>
      </trkpt>
      <trkpt lat="44.57762" lon="0.87387">
        <ele>169</ele>
        <time>2018-03-03T16:00:23.511Z</time>
      </trkpt>
      <trkpt lat="44.57762" lon="0.87387">
        <ele>169</ele>
        <time>2018-03-03T16:00:24.511Z</time>
      </trkpt>
      <trkpt lat="44.57762" lon="0.87387">
        <ele>169</ele>
        <time>2018-03-03T16:00:25.511Z</time>
      </trkpt>
      <trkpt lat="44.57762" lon="0.87387">
        <ele>169</ele>
        <time>2018-03-03T16:00:26.511Z</time>
      </trkpt>
      <trkpt lat="44.57762" lon="0.87387">
        <ele>169</ele>
        <time>2018-03-03T16:00:27.511Z</time>
      </trkpt>
      <trkpt lat="44.57762" lon="0.87387">
        <ele>169</ele>
        <time>2018-03-03T16:00:28.511Z</time>
      </trkpt>
      <trkpt lat="44.57762" lon="0.87387">
        <ele>169</ele>
        <time>2018-03-03T16:00:29.511Z</time>
      </trkpt>
      <trkpt lat="44.57762" lon="0.87387">
        <ele>169</ele>
        <time>2018-03-03T16:00:30.511Z</time>
      </trkpt>
      <trkpt lat="44.57762" lon="0.87387">
        <ele>169</ele>
        <time>2018-03-03T16:00:31.511Z</time>
      </trkpt>
      <trkpt lat="44.57762" lon="0.87387">
        <ele>169</ele>
        <time>2018-03-03T16:00:32.511Z</time>
      </trkpt>
      <trkpt lat="44.57762" lon="0.87387">
        <ele>169</ele>
        <time>2018-03-03T16:00:33.511Z</time>
      </trkpt>
      <trkpt lat="44.57762" lon="0.87387">
        <ele>169</ele>
        <time>2018-03-03T16:00:34.511Z</time>
      </trkpt>
      <trkpt lat="44.57762" lon="0.87387">
        <ele>169</ele>
        <time>2018-03-03T16:00:35.511Z</time>
      </trkpt>
      <trkpt lat="44.57762" lon="0.87387">
        <ele>169</ele>
        <time>2018-03-03T16:00:36.511Z</time>
      </trkpt>
      <trkpt lat="44.57762" lon="0.87387">
        <ele>169</ele>
        <time>2018-03-03T16:00:37.511Z</time>
      </trkpt>
      <trkpt lat="44.57762" lon="0.87387">
        <ele>169</ele>
        <time>2018-03-03T16:00:38.511Z</time>
      </trkpt>
      <trkpt lat="44.57762" lon="0.87387">
        <ele>169</ele>
        <time>2018-03-03T16:00:39.511Z</time>
      </trkpt>
      <trkpt lat="44.57762" lon="0.87387">
        <ele>169</ele>
        <time>2018-03-03T16:00:40.511Z</time>
      </trkpt>
      <trkpt lat="44.57762" lon="0.87387">
        <ele>169</ele>
        <time>2018-03-03T16:00:41.511Z</time>
      </trkpt>
      <trkpt lat="44.57762" lon="0.87387">
        <ele>169</ele>
        <time>2018-03-03T16:00:42.511Z</time>
      </trkpt>
      <trkpt lat="44.57762" lon="0.87387">
        <ele>169</ele>
        <time>2018-03-03T16:00:43.511Z</time>
      </trkpt>
      <trkpt lat="44.57762" lon="0.87387">
        <ele>169</ele>
        <time>2018-03-03T16:00:44.511Z</time>
      </trkpt>
      <trkpt lat="44.57762" lon="0.87387">
        <ele>169</ele>
        <time>2018-03-03T16:00:45.511Z</time>
      </trkpt>
      <trkpt lat="44.57762" lon="0.87387">
        <ele>169</ele>
        <time>2018-03-03T16:00:46.511Z</time>
      </trkpt>
      <trkpt lat="44.57762" lon="0.87387">
        <ele>169</ele>
        <time>2018-03-03T16:00:47.511Z</time>
      </trkpt>
      <trkpt lat="44.57762" lon="0.87387">
        <ele>169</ele>
        <time>2018-03-03T16:00:48.511Z</time>
      </trkpt>
      <trkpt lat="44.57762" lon="0.87387">
        <ele>169</ele>
        <time>2018-03-03T16:00:49.511Z</time>
      </trkpt>
      <trkpt lat="44.57762" lon="0.87387">
        <ele>169</ele>
        <time>2018-03-03T16:00:50.511Z</time>
      </trkpt>
      <trkpt lat="44.57762" lon="0.87387">
        <ele>169</ele>
        <time>2018-03-03T16:00:51.511Z</time>
      </trkpt>
      <trkpt lat="44.57762" lon="0.87387">
        <ele>169</ele>
        <time>2018-03-03T16:00:52.511Z</time>
      </trkpt>
      <trkpt lat="44.57762" lon="0.87387">
        <ele>169</ele>
        <time>2018-03-03T16:00:53.511Z</time>
      </trkpt>
      <trkpt lat="44.57762" lon="0.87387">
        <ele>169</ele>
        <time>2018-03-03T16:00:54.511Z</time>
      </trkpt>
      <trkpt lat="44.57762" lon="0.87387">
        <ele>169</ele>
        <time>2018-03-03T16:00:55.511Z</time>
      </trkpt>
      <trkpt lat="44.57762" lon="0.87387">
        <ele>169</ele>
        <time>2018-03-03T16:00:56.511Z</time>
      </trkpt>
      <trkpt lat="44.57762" lon="0.87387">
        <ele>169</ele>
        <time>2018-03-03T16:00:57.511Z</time>
      </trkpt>
      <trkpt lat="44.57762" lon="0.87387">
        <ele>169</ele>
        <time>2018-03-03T16:00:58.511Z</time>
      </trkpt>
      <trkpt lat="44.57762" lon="0.87387">
        <ele>169</ele>
        <time>2018-03-03T16:00:59.511Z</time>
      </trkpt>
      <trkpt lat="44.57762" lon="0.87387">
        <ele>169</ele>
        <time>2018-03-03T16:01:00.511Z</time>
      </trkpt>
      <trkpt lat="44.57762" lon="0.87387">
        <ele>169</ele>
        <time>2018-03-03T16:01:01.511Z</time>
      </trkpt>
      <trkpt lat="44.57762" lon="0.87387">
        <ele>169</ele>
        <time>2018-03-03T16:01:02.511Z</time>
      </trkpt>
      <trkpt lat="44.57762" lon="0.87387">
        <ele>169</ele>
        <time>2018-03-03T16:01:03.511Z</time>
      </trkpt>
      <trkpt lat="44.57762" lon="0.87387">
        <ele>169</ele>
        <time>2018-03-03T16:01:04.511Z</time>
      </trkpt>
      <trkpt lat="44.57762" lon="0.87387">
        <ele>169</ele>
        <time>2018-03-03T16:01:05.511Z</time>
      </trkpt>
      <trkpt lat="44.57762" lon="0.87387">
        <ele>169</ele>
        <time>2018-03-03T16:01:06.511Z</time>
      </trkpt>
      <trkpt lat="44.57762" lon="0.87387">
        <ele>169</ele>
        <time>2018-03-03T16:01:07.511Z</time>
      </trkpt>
      <trkpt lat="44.57762" lon="0.87387">
        <ele>169</ele>
        <time>2018-03-03T16:01:08.511Z</time>
      </trkpt>
      <trkpt lat="44.57762" lon="0.87387">
        <ele>169</ele>
        <time>2018-03-03T16:01:09.511Z</time>
      </trkpt>
      <trkpt lat="44.57762" lon="0.87387">
        <ele>169</ele>
        <time>2018-03-03T16:01:10.511Z</time>
      </trkpt>
      <trkpt lat="44.57762" lon="0.87387">
        <ele>169</ele>
        <time>2018-03-03T16:01:11.511Z</time>
      </trkpt>
      <trkpt lat="44.57762" lon="0.87387">
        <ele>169</ele>
        <time>2018-03-03T16:01:12.511Z</time>
      </trkpt>
      <trkpt lat="44.57762" lon="0.87387">
        <ele>169</ele>
        <time>2018-03-03T16:01:13.511Z</time>
      </trkpt>
      <trkpt lat="44.57762" lon="0.87387">
        <ele>169</ele>
        <time>2018-03-03T16:01:14.511Z</time>
      </trkpt>
      <trkpt lat="44.57762" lon="0.87387">
        <ele>169</ele>
        <time>2018-03-03T16:01:15.511Z</time>
      </trkpt>
      <trkpt lat="44.57762" lon="0.87387">
        <ele>169</ele>
        <time>2018-03-03T16:01:16.511Z</time>
      </trkpt>
      <trkpt lat="44.57762" lon="0.87387">
        <ele>169</ele>
        <time>2018-03-03T16:01:17.511Z</time>
      </trkpt>
      <trkpt lat="44.57762" lon="0.87387">
        <ele>168</ele>
        <time>2018-03-03T16:01:18.511Z</time>
      </trkpt>
      <trkpt lat="44.57762" lon="0.87387">
        <ele>168</ele>
        <time>2018-03-03T16:01:19.511Z</time>
      </trkpt>
      <trkpt lat="44.57762" lon="0.87387">
        <ele>169</ele>
        <time>2018-03-03T16:01:20.511Z</time>
      </trkpt>
      <trkpt lat="44.57762" lon="0.87387">
        <ele>169</ele>
        <time>2018-03-03T16:01:21.511Z</time>
      </trkpt>
      <trkpt lat="44.57762" lon="0.87387">
        <ele>169</ele>
        <time>2018-03-03T16:01:22.511Z</time>
      </trkpt>
      <trkpt lat="44.57762" lon="0.87387">
        <ele>169</ele>
        <time>2018-03-03T16:01:23.511Z</time>
      </trkpt>
      <trkpt lat="44.57762" lon="0.87387">
        <ele>169</ele>
        <time>2018-03-03T16:01:24.511Z</time>
      </trkpt>
      <trkpt lat="44.57762" lon="0.87387">
        <ele>169</ele>
        <time>2018-03-03T16:01:25.511Z</time>
      </trkpt>
      <trkpt lat="44.57762" lon="0.87387">
        <ele>169</ele>
        <time>2018-03-03T16:01:26.511Z</time>
      </trkpt>
      <trkpt lat="44.57762" lon="0.87387">
        <ele>169</ele>
        <time>2018-03-03T16:01:27.511Z</time>
      </trkpt>
      <trkpt lat="44.57762" lon="0.87387">
        <ele>169</ele>
        <time>2018-03-03T16:01:28.511Z</time>
      </trkpt>
      <trkpt lat="44.57762" lon="0.87387">
        <ele>169</ele>
        <time>2018-03-03T16:01:29.511Z</time>
      </trkpt>
      <trkpt lat="44.57762" lon="0.87387">
        <ele>169</ele>
        <time>2018-03-03T16:01:30.511Z</time>
      </trkpt>
      <trkpt lat="44.57762" lon="0.87387">
        <ele>169</ele>
        <time>2018-03-03T16:01:31.511Z</time>
      </trkpt>
      <trkpt lat="44.57762" lon="0.87387">
        <ele>169</ele>
        <time>2018-03-03T16:01:32.511Z</time>
      </trkpt>
      <trkpt lat="44.57762" lon="0.87387">
        <ele>169</ele>
        <time>2018-03-03T16:01:33.511Z</time>
      </trkpt>
      <trkpt lat="44.57762" lon="0.87387">
        <ele>169</ele>
        <time>2018-03-03T16:01:34.511Z</time>
      </trkpt>
      <trkpt lat="44.57762" lon="0.87387">
        <ele>169</ele>
        <time>2018-03-03T16:01:35.511Z</time>
      </trkpt>
      <trkpt lat="44.57762" lon="0.87387">
        <ele>169</ele>
        <time>2018-03-03T16:01:36.511Z</time>
      </trkpt>
      <trkpt lat="44.57762" lon="0.87387">
        <ele>169</ele>
        <time>2018-03-03T16:01:37.511Z</time>
      </trkpt>
      <trkpt lat="44.57762" lon="0.87387">
        <ele>169</ele>
        <time>2018-03-03T16:01:38.511Z</time>
      </trkpt>
      <trkpt lat="44.57762" lon="0.87387">
        <ele>169</ele>
        <time>2018-03-03T16:01:39.511Z</time>
      </trkpt>
      <trkpt lat="44.57762" lon="0.87387">
        <ele>169</ele>
        <time>2018-03-03T16:01:40.511Z</time>
      </trkpt>
      <trkpt lat="44.57762" lon="0.87387">
        <ele>169</ele>
        <time>2018-03-03T16:01:41.511Z</time>
      </trkpt>
      <trkpt lat="44.57762" lon="0.87387">
        <ele>169</ele>
        <time>2018-03-03T16:01:42.511Z</time>
      </trkpt>
      <trkpt lat="44.57762" lon="0.87387">
        <ele>169</ele>
        <time>2018-03-03T16:01:43.511Z</time>
      </trkpt>
      <trkpt lat="44.57762" lon="0.87387">
        <ele>169</ele>
        <time>2018-03-03T16:01:44.511Z</time>
      </trkpt>
      <trkpt lat="44.57762" lon="0.87387">
        <ele>169</ele>
        <time>2018-03-03T16:01:45.511Z</time>
      </trkpt>
      <trkpt lat="44.57762" lon="0.87387">
        <ele>169</ele>
        <time>2018-03-03T16:01:46.511Z</time>
      </trkpt>
      <trkpt lat="44.57762" lon="0.87387">
        <ele>169</ele>
        <time>2018-03-03T16:01:47.511Z</time>
      </trkpt>
      <trkpt lat="44.57762" lon="0.87387">
        <ele>169</ele>
        <time>2018-03-03T16:01:48.511Z</time>
      </trkpt>
      <trkpt lat="44.57762" lon="0.87387">
        <ele>169</ele>
        <time>2018-03-03T16:01:49.511Z</time>
      </trkpt>
      <trkpt lat="44.57762" lon="0.87387">
        <ele>169</ele>
        <time>2018-03-03T16:01:50.511Z</time>
      </trkpt>
      <trkpt lat="44.57762" lon="0.87387">
        <ele>169</ele>
        <time>2018-03-03T16:01:51.511Z</time>
      </trkpt>
      <trkpt lat="44.57762" lon="0.87387">
        <ele>169</ele>
        <time>2018-03-03T16:01:52.511Z</time>
      </trkpt>
      <trkpt lat="44.57762" lon="0.87387">
        <ele>169</ele>
        <time>2018-03-03T16:01:53.511Z</time>
      </trkpt>
      <trkpt lat="44.57762" lon="0.87387">
        <ele>169</ele>
        <time>2018-03-03T16:01:54.511Z</time>
      </trkpt>
      <trkpt lat="44.57762" lon="0.87387">
        <ele>169</ele>
        <time>2018-03-03T16:01:55.511Z</time>
      </trkpt>
      <trkpt lat="44.57762" lon="0.87387">
        <ele>169</ele>
        <time>2018-03-03T16:01:56.511Z</time>
      </trkpt>
      <trkpt lat="44.57762" lon="0.87387">
        <ele>169</ele>
        <time>2018-03-03T16:01:57.511Z</time>
      </trkpt>
      <trkpt lat="44.57762" lon="0.87387">
        <ele>169</ele>
        <time>2018-03-03T16:01:58.511Z</time>
      </trkpt>
      <trkpt lat="44.57762" lon="0.87387">
        <ele>169</ele>
        <time>2018-03-03T16:01:59.511Z</time>
      </trkpt>
      <trkpt lat="44.57762" lon="0.87387">
        <ele>169</ele>
        <time>2018-03-03T16:02:00.511Z</time>
      </trkpt>
      <trkpt lat="44.57762" lon="0.87387">
        <ele>169</ele>
        <time>2018-03-03T16:02:01.511Z</time>
      </trkpt>
      <trkpt lat="44.57762" lon="0.87387">
        <ele>170</ele>
        <time>2018-03-03T16:02:02.511Z</time>
      </trkpt>
      <trkpt lat="44.57762" lon="0.87387">
        <ele>170</ele>
        <time>2018-03-03T16:02:03.511Z</time>
      </trkpt>
      <trkpt lat="44.57761" lon="0.87387">
        <ele>170</ele>
        <time>2018-03-03T16:02:04.511Z</time>
      </trkpt>
      <trkpt lat="44.57759" lon="0.87386">
        <ele>170</ele>
        <time>2018-03-03T16:02:05.511Z</time>
      </trkpt>
      <trkpt lat="44.57758" lon="0.87386">
        <ele>170</ele>
        <time>2018-03-03T16:02:06.511Z</time>
      </trkpt>
      <trkpt lat="44.57757" lon="0.87385">
        <ele>170</ele>
        <time>2018-03-03T16:02:07.511Z</time>
      </trkpt>
      <trkpt lat="44.57755" lon="0.87383">
        <ele>171</ele>
        <time>2018-03-03T16:02:08.511Z</time>
      </trkpt>
      <trkpt lat="44.57754" lon="0.87382">
        <ele>171</ele>
        <time>2018-03-03T16:02:09.511Z</time>
      </trkpt>
      <trkpt lat="44.57752" lon="0.8738">
        <ele>171</ele>
        <time>2018-03-03T16:02:10.511Z</time>
      </trkpt>
      <trkpt lat="44.5775" lon="0.87379">
        <ele>172</ele>
        <time>2018-03-03T16:02:11.511Z</time>
      </trkpt>
      <trkpt lat="44.57749" lon="0.87377">
        <ele>172</ele>
        <time>2018-03-03T16:02:12.511Z</time>
      </trkpt>
      <trkpt lat="44.57747" lon="0.87376">
        <ele>172</ele>
        <time>2018-03-03T16:02:13.511Z</time>
      </trkpt>
      <trkpt lat="44.57746" lon="0.87374">
        <ele>173</ele>
        <time>2018-03-03T16:02:14.511Z</time>
      </trkpt>
      <trkpt lat="44.57744" lon="0.87373">
        <ele>173</ele>
        <time>2018-03-03T16:02:15.511Z</time>
      </trkpt>
      <trkpt lat="44.57743" lon="0.87371">
        <ele>173</ele>
        <time>2018-03-03T16:02:16.511Z</time>
      </trkpt>
      <trkpt lat="44.57741" lon="0.8737">
        <ele>174</ele>
        <time>2018-03-03T16:02:17.511Z</time>
      </trkpt>
      <trkpt lat="44.5774" lon="0.87368">
        <ele>174</ele>
        <time>2018-03-03T16:02:18.511Z</time>
      </trkpt>
      <trkpt lat="44.57739" lon="0.87367">
        <ele>174</ele>
        <time>2018-03-03T16:02:19.511Z</time>
      </trkpt>
      <trkpt lat="44.57737" lon="0.87366">
        <ele>174</ele>
        <time>2018-03-03T16:02:20.511Z</time>
      </trkpt>
      <trkpt lat="44.57736" lon="0.87364">
        <ele>175</ele>
        <time>2018-03-03T16:02:21.511Z</time>
      </trkpt>
      <trkpt lat="44.57734" lon="0.87363">
        <ele>175</ele>
        <time>2018-03-03T16:02:22.511Z</time>
      </trkpt>
      <trkpt lat="44.57733" lon="0.87362">
        <ele>175</ele>
        <time>2018-03-03T16:02:23.511Z</time>
      </trkpt>
      <trkpt lat="44.57732" lon="0.8736">
        <ele>175</ele>
        <time>2018-03-03T16:02:24.511Z</time>
      </trkpt>
      <trkpt lat="44.5773" lon="0.87359">
        <ele>176</ele>
        <time>2018-03-03T16:02:25.511Z</time>
      </trkpt>
      <trkpt lat="44.57729" lon="0.87358">
        <ele>176</ele>
        <time>2018-03-03T16:02:26.511Z</time>
      </trkpt>
      <trkpt lat="44.57728" lon="0.87356">
        <ele>176</ele>
        <time>2018-03-03T16:02:27.511Z</time>
      </trkpt>
      <trkpt lat="44.57726" lon="0.87355">
        <ele>177</ele>
        <time>2018-03-03T16:02:28.511Z</time>
      </trkpt>
      <trkpt lat="44.57725" lon="0.87353">
        <ele>177</ele>
        <time>2018-03-03T16:02:29.511Z</time>
      </trkpt>
      <trkpt lat="44.57724" lon="0.87352">
        <ele>177</ele>
        <time>2018-03-03T16:02:30.511Z</time>
      </trkpt>
      <trkpt lat="44.57722" lon="0.8735">
        <ele>177</ele>
        <time>2018-03-03T16:02:31.511Z</time>
      </trkpt>
      <trkpt lat="44.57721" lon="0.87349">
        <ele>177</ele>
        <time>2018-03-03T16:02:32.511Z</time>
      </trkpt>
      <trkpt lat="44.57719" lon="0.87347">
        <ele>178</ele>
        <time>2018-03-03T16:02:33.511Z</time>
      </trkpt>
      <trkpt lat="44.57718" lon="0.87345">
        <ele>178</ele>
        <time>2018-03-03T16:02:34.511Z</time>
      </trkpt>
      <trkpt lat="44.57717" lon="0.87343">
        <ele>178</ele>
        <time>2018-03-03T16:02:35.511Z</time>
      </trkpt>
      <trkpt lat="44.57715" lon="0.87341">
        <ele>178</ele>
        <time>2018-03-03T16:02:36.511Z</time>
      </trkpt>
      <trkpt lat="44.57714" lon="0.87339">
        <ele>179</ele>
        <time>2018-03-03T16:02:37.511Z</time>
      </trkpt>
      <trkpt lat="44.57712" lon="0.87337">
        <ele>179</ele>
        <time>2018-03-03T16:02:38.511Z</time>
      </trkpt>
      <trkpt lat="44.57711" lon="0.87335">
        <ele>179</ele>
        <time>2018-03-03T16:02:39.511Z</time>
      </trkpt>
      <trkpt lat="44.5771" lon="0.87333">
        <ele>179</ele>
        <time>2018-03-03T16:02:40.511Z</time>
      </trkpt>
      <trkpt lat="44.57708" lon="0.8733">
        <ele>179</ele>
        <time>2018-03-03T16:02:41.511Z</time>
      </trkpt>
      <trkpt lat="44.57707" lon="0.87328">
        <ele>180</ele>
        <time>2018-03-03T16:02:42.511Z</time>
      </trkpt>
      <trkpt lat="44.57705" lon="0.87326">
        <ele>180</ele>
        <time>2018-03-03T16:02:43.511Z</time>
      </trkpt>
      <trkpt lat="44.57703" lon="0.87324">
        <ele>180</ele>
        <time>2018-03-03T16:02:44.511Z</time>
      </trkpt>
      <trkpt lat="44.57702" lon="0.87322">
        <ele>180</ele>
        <time>2018-03-03T16:02:45.511Z</time>
      </trkpt>
      <trkpt lat="44.577" lon="0.87321">
        <ele>181</ele>
        <time>2018-03-03T16:02:46.511Z</time>
      </trkpt>
      <trkpt lat="44.57699" lon="0.87319">
        <ele>181</ele>
        <time>2018-03-03T16:02:47.511Z</time>
      </trkpt>
      <trkpt lat="44.57697" lon="0.87318">
        <ele>181</ele>
        <time>2018-03-03T16:02:48.511Z</time>
      </trkpt>
      <trkpt lat="44.57695" lon="0.87317">
        <ele>181</ele>
        <time>2018-03-03T16:02:49.511Z</time>
      </trkpt>
      <trkpt lat="44.57693" lon="0.87317">
        <ele>181</ele>
        <time>2018-03-03T16:02:50.511Z</time>
      </trkpt>
      <trkpt lat="44.57692" lon="0.87316">
        <ele>181</ele>
        <time>2018-03-03T16:02:51.511Z</time>
      </trkpt>
      <trkpt lat="44.5769" lon="0.87316">
        <ele>181</ele>
        <time>2018-03-03T16:02:52.511Z</time>
      </trkpt>
      <trkpt lat="44.57688" lon="0.87316">
        <ele>181</ele>
        <time>2018-03-03T16:02:53.511Z</time>
      </trkpt>
      <trkpt lat="44.57686" lon="0.87315">
        <ele>181</ele>
        <time>2018-03-03T16:02:54.511Z</time>
      </trkpt>
      <trkpt lat="44.57684" lon="0.87314">
        <ele>181</ele>
        <time>2018-03-03T16:02:55.511Z</time>
      </trkpt>
      <trkpt lat="44.57682" lon="0.87314">
        <ele>181</ele>
        <time>2018-03-03T16:02:56.511Z</time>
      </trkpt>
      <trkpt lat="44.5768" lon="0.87313">
        <ele>181</ele>
        <time>2018-03-03T16:02:57.511Z</time>
      </trkpt>
      <trkpt lat="44.57678" lon="0.87311">
        <ele>181</ele>
        <time>2018-03-03T16:02:58.511Z</time>
      </trkpt>
      <trkpt lat="44.57676" lon="0.8731">
        <ele>181</ele>
        <time>2018-03-03T16:02:59.511Z</time>
      </trkpt>
      <trkpt lat="44.57674" lon="0.87309">
        <ele>181</ele>
        <time>2018-03-03T16:03:00.511Z</time>
      </trkpt>
      <trkpt lat="44.57672" lon="0.87308">
        <ele>181</ele>
        <time>2018-03-03T16:03:01.511Z</time>
      </trkpt>
      <trkpt lat="44.5767" lon="0.87306">
        <ele>181</ele>
        <time>2018-03-03T16:03:02.511Z</time>
      </trkpt>
      <trkpt lat="44.57669" lon="0.87305">
        <ele>181</ele>
        <time>2018-03-03T16:03:03.511Z</time>
      </trkpt>
      <trkpt lat="44.57667" lon="0.87304">
        <ele>181</ele>
        <time>2018-03-03T16:03:04.511Z</time>
      </trkpt>
      <trkpt lat="44.57665" lon="0.87303">
        <ele>181</ele>
        <time>2018-03-03T16:03:05.511Z</time>
      </trkpt>
      <trkpt lat="44.57663" lon="0.87302">
        <ele>181</ele>
        <time>2018-03-03T16:03:06.511Z</time>
      </trkpt>
      <trkpt lat="44.57661" lon="0.87301">
        <ele>181</ele>
        <time>2018-03-03T16:03:07.511Z</time>
      </trkpt>
      <trkpt lat="44.57659" lon="0.87299">
        <ele>181</ele>
        <time>2018-03-03T16:03:08.511Z</time>
      </trkpt>
      <trkpt lat="44.57656" lon="0.87298">
        <ele>181</ele>
        <time>2018-03-03T16:03:09.511Z</time>
      </trkpt>
      <trkpt lat="44.57653" lon="0.87296">
        <ele>181</ele>
        <time>2018-03-03T16:03:10.511Z</time>
      </trkpt>
      <trkpt lat="44.57651" lon="0.87294">
        <ele>181</ele>
        <time>2018-03-03T16:03:11.511Z</time>
      </trkpt>
      <trkpt lat="44.57648" lon="0.87293">
        <ele>181</ele>
        <time>2018-03-03T16:03:12.511Z</time>
      </trkpt>
      <trkpt lat="44.57645" lon="0.87291">
        <ele>181</ele>
        <time>2018-03-03T16:03:13.511Z</time>
      </trkpt>
      <trkpt lat="44.57642" lon="0.87289">
        <ele>181</ele>
        <time>2018-03-03T16:03:14.511Z</time>
      </trkpt>
      <trkpt lat="44.5764" lon="0.87287">
        <ele>181</ele>
        <time>2018-03-03T16:03:15.511Z</time>
      </trkpt>
      <trkpt lat="44.57637" lon="0.87285">
        <ele>181</ele>
        <time>2018-03-03T16:03:16.511Z</time>
      </trkpt>
      <trkpt lat="44.57635" lon="0.87284">
        <ele>181</ele>
        <time>2018-03-03T16:03:17.511Z</time>
      </trkpt>
      <trkpt lat="44.57633" lon="0.87282">
        <ele>181</ele>
        <time>2018-03-03T16:03:18.511Z</time>
      </trkpt>
      <trkpt lat="44.5763" lon="0.87281">
        <ele>181</ele>
        <time>2018-03-03T16:03:19.511Z</time>
      </trkpt>
      <trkpt lat="44.57628" lon="0.87279">
        <ele>181</ele>
        <time>2018-03-03T16:03:20.511Z</time>
      </trkpt>
      <trkpt lat="44.57626" lon="0.87278">
        <ele>181</ele>
        <time>2018-03-03T16:03:21.511Z</time>
      </trkpt>
      <trkpt lat="44.57624" lon="0.87276">
        <ele>181</ele>
        <time>2018-03-03T16:03:22.511Z</time>
      </trkpt>
      <trkpt lat="44.57622" lon="0.87275">
        <ele>181</ele>
        <time>2018-03-03T16:03:23.511Z</time>
      </trkpt>
      <trkpt lat="44.57619" lon="0.87274">
        <ele>181</ele>
        <time>2018-03-03T16:03:24.511Z</time>
      </trkpt>
      <trkpt lat="44.57617" lon="0.87272">
        <ele>181</ele>
        <time>2018-03-03T16:03:25.511Z</time>
      </trkpt>
      <trkpt lat="44.57615" lon="0.87271">
        <ele>181</ele>
        <time>2018-03-03T16:03:26.511Z</time>
      </trkpt>
      <trkpt lat="44.57612" lon="0.87269">
        <ele>181</ele>
        <time>2018-03-03T16:03:27.511Z</time>
      </trkpt>
      <trkpt lat="44.5761" lon="0.87268">
        <ele>181</ele>
        <time>2018-03-03T16:03:28.511Z</time>
      </trkpt>
      <trkpt lat="44.57608" lon="0.87266">
        <ele>181</ele>
        <time>2018-03-03T16:03:29.511Z</time>
      </trkpt>
      <trkpt lat="44.57606" lon="0.87264">
        <ele>181</ele>
        <time>2018-03-03T16:03:30.511Z</time>
      </trkpt>
      <trkpt lat="44.57604" lon="0.87262">
        <ele>181</ele>
        <time>2018-03-03T16:03:31.511Z</time>
      </trkpt>
      <trkpt lat="44.57602" lon="0.8726">
        <ele>181</ele>
        <time>2018-03-03T16:03:32.511Z</time>
      </trkpt>
      <trkpt lat="44.57601" lon="0.87258">
        <ele>181</ele>
        <time>2018-03-03T16:03:33.511Z</time>
      </trkpt>
      <trkpt lat="44.576" lon="0.87255">
        <ele>181</ele>
        <time>2018-03-03T16:03:34.511Z</time>
      </trkpt>
      <trkpt lat="44.57599" lon="0.87252">
        <ele>181</ele>
        <time>2018-03-03T16:03:35.511Z</time>
      </trkpt>
      <trkpt lat="44.57599" lon="0.87249">
        <ele>181</ele>
        <time>2018-03-03T16:03:36.511Z</time>
      </trkpt>
      <trkpt lat="44.57599" lon="0.87246">
        <ele>181</ele>
        <time>2018-03-03T16:03:37.511Z</time>
      </trkpt>
      <trkpt lat="44.576" lon="0.87243">
        <ele>181</ele>
        <time>2018-03-03T16:03:38.511Z</time>
      </trkpt>
      <trkpt lat="44.576" lon="0.8724">
        <ele>181</ele>
        <time>2018-03-03T16:03:39.511Z</time>
      </trkpt>
      <trkpt lat="44.57601" lon="0.87237">
        <ele>181</ele>
        <time>2018-03-03T16:03:40.511Z</time>
      </trkpt>
      <trkpt lat="44.57602" lon="0.87234">
        <ele>181</ele>
        <time>2018-03-03T16:03:41.511Z</time>
      </trkpt>
      <trkpt lat="44.57603" lon="0.87231">
        <ele>181</ele>
        <time>2018-03-03T16:03:42.511Z</time>
      </trkpt>
      <trkpt lat="44.57604" lon="0.87228">
        <ele>182</ele>
        <time>2018-03-03T16:03:43.511Z</time>
      </trkpt>
      <trkpt lat="44.57605" lon="0.87225">
        <ele>182</ele>
        <time>2018-03-03T16:03:44.511Z</time>
      </trkpt>
      <trkpt lat="44.57606" lon="0.87222">
        <ele>182</ele>
        <time>2018-03-03T16:03:45.511Z</time>
      </trkpt>
      <trkpt lat="44.57607" lon="0.87219">
        <ele>182</ele>
        <time>2018-03-03T16:03:46.511Z</time>
      </trkpt>
      <trkpt lat="44.57608" lon="0.87215">
        <ele>182</ele>
        <time>2018-03-03T16:03:47.511Z</time>
      </trkpt>
      <trkpt lat="44.57609" lon="0.87211">
        <ele>182</ele>
        <time>2018-03-03T16:03:48.511Z</time>
      </trkpt>
      <trkpt lat="44.5761" lon="0.87208">
        <ele>182</ele>
        <time>2018-03-03T16:03:49.511Z</time>
      </trkpt>
      <trkpt lat="44.57611" lon="0.87204">
        <ele>182</ele>
        <time>2018-03-03T16:03:50.511Z</time>
      </trkpt>
      <trkpt lat="44.57613" lon="0.872">
        <ele>182</ele>
        <time>2018-03-03T16:03:51.511Z</time>
      </trkpt>
      <trkpt lat="44.57614" lon="0.87196">
        <ele>183</ele>
        <time>2018-03-03T16:03:52.511Z</time>
      </trkpt>
      <trkpt lat="44.57615" lon="0.87192">
        <ele>183</ele>
        <time>2018-03-03T16:03:53.511Z</time>
      </trkpt>
      <trkpt lat="44.57616" lon="0.87188">
        <ele>183</ele>
        <time>2018-03-03T16:03:54.511Z</time>
      </trkpt>
      <trkpt lat="44.57617" lon="0.87185">
        <ele>183</ele>
        <time>2018-03-03T16:03:55.511Z</time>
      </trkpt>
      <trkpt lat="44.57619" lon="0.87181">
        <ele>183</ele>
        <time>2018-03-03T16:03:56.511Z</time>
      </trkpt>
      <trkpt lat="44.5762" lon="0.87177">
        <ele>183</ele>
        <time>2018-03-03T16:03:57.511Z</time>
      </trkpt>
      <trkpt lat="44.57621" lon="0.87173">
        <ele>184</ele>
        <time>2018-03-03T16:03:58.511Z</time>
      </trkpt>
      <trkpt lat="44.57622" lon="0.87168">
        <ele>184</ele>
        <time>2018-03-03T16:03:59.511Z</time>
      </trkpt>
      <trkpt lat="44.57624" lon="0.87164">
        <ele>184</ele>
        <time>2018-03-03T16:04:00.511Z</time>
      </trkpt>
      <trkpt lat="44.57624" lon="0.8716">
        <ele>184</ele>
        <time>2018-03-03T16:04:01.511Z</time>
      </trkpt>
      <trkpt lat="44.57625" lon="0.87155">
        <ele>184</ele>
        <time>2018-03-03T16:04:02.511Z</time>
      </trkpt>
      <trkpt lat="44.57625" lon="0.87151">
        <ele>184</ele>
        <time>2018-03-03T16:04:03.511Z</time>
      </trkpt>
      <trkpt lat="44.57624" lon="0.87147">
        <ele>185</ele>
        <time>2018-03-03T16:04:04.511Z</time>
      </trkpt>
      <trkpt lat="44.57623" lon="0.87143">
        <ele>185</ele>
        <time>2018-03-03T16:04:05.511Z</time>
      </trkpt>
      <trkpt lat="44.57622" lon="0.87138">
        <ele>185</ele>
        <time>2018-03-03T16:04:06.511Z</time>
      </trkpt>
      <trkpt lat="44.5762" lon="0.87134">
        <ele>185</ele>
        <time>2018-03-03T16:04:07.511Z</time>
      </trkpt>
      <trkpt lat="44.57619" lon="0.8713">
        <ele>185</ele>
        <time>2018-03-03T16:04:08.511Z</time>
      </trkpt>
      <trkpt lat="44.57618" lon="0.87126">
        <ele>185</ele>
        <time>2018-03-03T16:04:09.511Z</time>
      </trkpt>
      <trkpt lat="44.57617" lon="0.87122">
        <ele>185</ele>
        <time>2018-03-03T16:04:10.511Z</time>
      </trkpt>
      <trkpt lat="44.57615" lon="0.87118">
        <ele>186</ele>
        <time>2018-03-03T16:04:11.511Z</time>
      </trkpt>
      <trkpt lat="44.57614" lon="0.87113">
        <ele>186</ele>
        <time>2018-03-03T16:04:12.511Z</time>
      </trkpt>
      <trkpt lat="44.57613" lon="0.87109">
        <ele>186</ele>
        <time>2018-03-03T16:04:13.511Z</time>
      </trkpt>
      <trkpt lat="44.57612" lon="0.87105">
        <ele>186</ele>
        <time>2018-03-03T16:04:14.511Z</time>
      </trkpt>
      <trkpt lat="44.5761" lon="0.87101">
        <ele>186</ele>
        <time>2018-03-03T16:04:15.511Z</time>
      </trkpt>
      <trkpt lat="44.57609" lon="0.87096">
        <ele>186</ele>
        <time>2018-03-03T16:04:16.511Z</time>
      </trkpt>
      <trkpt lat="44.57607" lon="0.87092">
        <ele>186</ele>
        <time>2018-03-03T16:04:17.511Z</time>
      </trkpt>
      <trkpt lat="44.57605" lon="0.87087">
        <ele>185</ele>
        <time>2018-03-03T16:04:18.511Z</time>
      </trkpt>
      <trkpt lat="44.57604" lon="0.87082">
        <ele>185</ele>
        <time>2018-03-03T16:04:19.511Z</time>
      </trkpt>
      <trkpt lat="44.57602" lon="0.87077">
        <ele>185</ele>
        <time>2018-03-03T16:04:20.511Z</time>
      </trkpt>
      <trkpt lat="44.576" lon="0.87071">
        <ele>185</ele>
        <time>2018-03-03T16:04:21.511Z</time>
      </trkpt>
      <trkpt lat="44.57599" lon="0.87065">
        <ele>185</ele>
        <time>2018-03-03T16:04:22.511Z</time>
      </trkpt>
      <trkpt lat="44.57597" lon="0.87057">
        <ele>184</ele>
        <time>2018-03-03T16:04:23.511Z</time>
      </trkpt>
      <trkpt lat="44.57595" lon="0.87049">
        <ele>184</ele>
        <time>2018-03-03T16:04:24.511Z</time>
      </trkpt>
      <trkpt lat="44.57594" lon="0.8704">
        <ele>184</ele>
        <time>2018-03-03T16:04:25.511Z</time>
      </trkpt>
      <trkpt lat="44.57592" lon="0.87031">
        <ele>183</ele>
        <time>2018-03-03T16:04:26.511Z</time>
      </trkpt>
      <trkpt lat="44.57591" lon="0.87022">
        <ele>183</ele>
        <time>2018-03-03T16:04:27.511Z</time>
      </trkpt>
      <trkpt lat="44.57589" lon="0.87012">
        <ele>182</ele>
        <time>2018-03-03T16:04:28.511Z</time>
      </trkpt>
      <trkpt lat="44.57588" lon="0.87003">
        <ele>182</ele>
        <time>2018-03-03T16:04:29.511Z</time>
      </trkpt>
      <trkpt lat="44.57586" lon="0.86993">
        <ele>182</ele>
        <time>2018-03-03T16:04:30.511Z</time>
      </trkpt>
      <trkpt lat="44.57585" lon="0.86984">
        <ele>181</ele>
        <time>2018-03-03T16:04:31.511Z</time>
      </trkpt>
      <trkpt lat="44.57583" lon="0.86976">
        <ele>181</ele>
        <time>2018-03-03T16:04:32.511Z</time>
      </trkpt>
      <trkpt lat="44.57582" lon="0.86968">
        <ele>181</ele>
        <time>2018-03-03T16:04:33.511Z</time>
      </trkpt>
      <trkpt lat="44.5758" lon="0.86961">
        <ele>181</ele>
        <time>2018-03-03T16:04:34.511Z</time>
      </trkpt>
      <trkpt lat="44.57578" lon="0.86953">
        <ele>181</ele>
        <time>2018-03-03T16:04:35.511Z</time>
      </trkpt>
      <trkpt lat="44.57577" lon="0.86945">
        <ele>181</ele>
        <time>2018-03-03T16:04:36.511Z</time>
      </trkpt>
      <trkpt lat="44.57575" lon="0.86938">
        <ele>181</ele>
        <time>2018-03-03T16:04:37.511Z</time>
      </trkpt>
      <trkpt lat="44.57574" lon="0.8693">
        <ele>181</ele>
        <time>2018-03-03T16:04:38.511Z</time>
      </trkpt>
      <trkpt lat="44.57573" lon="0.86923">
        <ele>181</ele>
        <time>2018-03-03T16:04:39.511Z</time>
      </trkpt>
      <trkpt lat="44.57573" lon="0.86916">
        <ele>181</ele>
        <time>2018-03-03T16:04:40.511Z</time>
      </trkpt>
      <trkpt lat="44.57572" lon="0.86909">
        <ele>181</ele>
        <time>2018-03-03T16:04:41.511Z</time>
      </trkpt>
      <trkpt lat="44.57572" lon="0.86903">
        <ele>182</ele>
        <time>2018-03-03T16:04:42.511Z</time>
      </trkpt>
      <trkpt lat="44.57572" lon="0.86897">
        <ele>182</ele>
        <time>2018-03-03T16:04:43.511Z</time>
      </trkpt>
      <trkpt lat="44.57572" lon="0.86891">
        <ele>182</ele>
        <time>2018-03-03T16:04:44.511Z</time>
      </trkpt>
      <trkpt lat="44.57572" lon="0.86885">
        <ele>182</ele>
        <time>2018-03-03T16:04:45.511Z</time>
      </trkpt>
      <trkpt lat="44.57572" lon="0.86879">
        <ele>182</ele>
        <time>2018-03-03T16:04:46.511Z</time>
      </trkpt>
      <trkpt lat="44.57571" lon="0.86873">
        <ele>182</ele>
        <time>2018-03-03T16:04:47.511Z</time>
      </trkpt>
      <trkpt lat="44.57571" lon="0.86867">
        <ele>183</ele>
        <time>2018-03-03T16:04:48.511Z</time>
      </trkpt>
      <trkpt lat="44.5757" lon="0.86861">
        <ele>183</ele>
        <time>2018-03-03T16:04:49.511Z</time>
      </trkpt>
      <trkpt lat="44.57569" lon="0.86854">
        <ele>183</ele>
        <time>2018-03-03T16:04:50.511Z</time>
      </trkpt>
      <trkpt lat="44.57567" lon="0.86848">
        <ele>183</ele>
        <time>2018-03-03T16:04:51.511Z</time>
      </trkpt>
      <trkpt lat="44.57566" lon="0.86841">
        <ele>182</ele>
        <time>2018-03-03T16:04:52.511Z</time>
      </trkpt>
      <trkpt lat="44.57564" lon="0.86834">
        <ele>182</ele>
        <time>2018-03-03T16:04:53.511Z</time>
      </trkpt>
      <trkpt lat="44.57562" lon="0.86827">
        <ele>182</ele>
        <time>2018-03-03T16:04:54.511Z</time>
      </trkpt>
      <trkpt lat="44.5756" lon="0.8682">
        <ele>181</ele>
        <time>2018-03-03T16:04:55.511Z</time>
      </trkpt>
      <trkpt lat="44.57557" lon="0.86812">
        <ele>181</ele>
        <time>2018-03-03T16:04:56.511Z</time>
      </trkpt>
      <trkpt lat="44.57555" lon="0.86804">
        <ele>181</ele>
        <time>2018-03-03T16:04:57.511Z</time>
      </trkpt>
      <trkpt lat="44.57553" lon="0.86797">
        <ele>180</ele>
        <time>2018-03-03T16:04:58.511Z</time>
      </trkpt>
      <trkpt lat="44.57551" lon="0.86789">
        <ele>180</ele>
        <time>2018-03-03T16:04:59.511Z</time>
      </trkpt>
      <trkpt lat="44.57549" lon="0.86781">
        <ele>179</ele>
        <time>2018-03-03T16:05:00.511Z</time>
      </trkpt>
      <trkpt lat="44.57547" lon="0.86774">
        <ele>179</ele>
        <time>2018-03-03T16:05:01.511Z</time>
      </trkpt>
      <trkpt lat="44.57545" lon="0.86767">
        <ele>179</ele>
        <time>2018-03-03T16:05:02.511Z</time>
      </trkpt>
      <trkpt lat="44.57543" lon="0.86761">
        <ele>178</ele>
        <time>2018-03-03T16:05:03.511Z</time>
      </trkpt>
      <trkpt lat="44.57542" lon="0.86755">
        <ele>178</ele>
        <time>2018-03-03T16:05:04.511Z</time>
      </trkpt>
      <trkpt lat="44.57542" lon="0.86751">
        <ele>178</ele>
        <time>2018-03-03T16:05:05.511Z</time>
      </trkpt>
      <trkpt lat="44.57542" lon="0.86747">
        <ele>178</ele>
        <time>2018-03-03T16:05:06.511Z</time>
      </trkpt>
      <trkpt lat="44.57544" lon="0.86745">
        <ele>177</ele>
        <time>2018-03-03T16:05:07.511Z</time>
      </trkpt>
      <trkpt lat="44.57546" lon="0.86743">
        <ele>177</ele>
        <time>2018-03-03T16:05:08.511Z</time>
      </trkpt>
      <trkpt lat="44.57548" lon="0.86742">
        <ele>177</ele>
        <time>2018-03-03T16:05:09.511Z</time>
      </trkpt>
      <trkpt lat="44.57551" lon="0.86742">
        <ele>177</ele>
        <time>2018-03-03T16:05:10.511Z</time>
      </trkpt>
      <trkpt lat="44.57553" lon="0.86741">
        <ele>177</ele>
        <time>2018-03-03T16:05:11.511Z</time>
      </trkpt>
      <trkpt lat="44.57555" lon="0.8674">
        <ele>177</ele>
        <time>2018-03-03T16:05:12.511Z</time>
      </trkpt>
      <trkpt lat="44.57558" lon="0.8674">
        <ele>177</ele>
        <time>2018-03-03T16:05:13.511Z</time>
      </trkpt>
      <trkpt lat="44.5756" lon="0.86739">
        <ele>176</ele>
        <time>2018-03-03T16:05:14.511Z</time>
      </trkpt>
      <trkpt lat="44.57562" lon="0.86738">
        <ele>176</ele>
        <time>2018-03-03T16:05:15.511Z</time>
      </trkpt>
      <trkpt lat="44.57565" lon="0.86738">
        <ele>176</ele>
        <time>2018-03-03T16:05:16.511Z</time>
      </trkpt>
      <trkpt lat="44.57567" lon="0.86737">
        <ele>176</ele>
        <time>2018-03-03T16:05:17.511Z</time>
      </trkpt>
      <trkpt lat="44.5757" lon="0.86736">
        <ele>176</ele>
        <time>2018-03-03T16:05:18.511Z</time>
      </trkpt>
      <trkpt lat="44.57572" lon="0.86735">
        <ele>176</ele>
        <time>2018-03-03T16:05:19.511Z</time>
      </trkpt>
      <trkpt lat="44.57575" lon="0.86733">
        <ele>176</ele>
        <time>2018-03-03T16:05:20.511Z</time>
      </trkpt>
      <trkpt lat="44.57578" lon="0.86732">
        <ele>175</ele>
        <time>2018-03-03T16:05:21.511Z</time>
      </trkpt>
      <trkpt lat="44.57581" lon="0.8673">
        <ele>175</ele>
        <time>2018-03-03T16:05:22.511Z</time>
      </trkpt>
      <trkpt lat="44.57584" lon="0.86728">
        <ele>175</ele>
        <time>2018-03-03T16:05:23.511Z</time>
      </trkpt>
      <trkpt lat="44.57588" lon="0.86727">
        <ele>175</ele>
        <time>2018-03-03T16:05:24.511Z</time>
      </trkpt>
      <trkpt lat="44.57591" lon="0.86725">
        <ele>175</ele>
        <time>2018-03-03T16:05:25.511Z</time>
      </trkpt>
      <trkpt lat="44.57595" lon="0.86723">
        <ele>175</ele>
        <time>2018-03-03T16:05:26.511Z</time>
      </trkpt>
      <trkpt lat="44.57599" lon="0.86721">
        <ele>175</ele>
        <time>2018-03-03T16:05:27.511Z</time>
      </trkpt>
      <trkpt lat="44.57604" lon="0.8672">
        <ele>174</ele>
        <time>2018-03-03T16:05:28.511Z</time>
      </trkpt>
      <trkpt lat="44.57608" lon="0.86718">
        <ele>174</ele>
        <time>2018-03-03T16:05:29.511Z</time>
      </trkpt>
      <trkpt lat="44.57613" lon="0.86716">
        <ele>174</ele>
        <time>2018-03-03T16:05:30.511Z</time>
      </trkpt>
      <trkpt lat="44.57617" lon="0.86715">
        <ele>174</ele>
        <time>2018-03-03T16:05:31.511Z</time>
      </trkpt>
      <trkpt lat="44.57621" lon="0.86714">
        <ele>173</ele>
        <time>2018-03-03T16:05:32.511Z</time>
      </trkpt>
      <trkpt lat="44.57626" lon="0.86713">
        <ele>173</ele>
        <time>2018-03-03T16:05:33.511Z</time>
      </trkpt>
      <trkpt lat="44.57631" lon="0.86712">
        <ele>173</ele>
        <time>2018-03-03T16:05:34.511Z</time>
      </trkpt>
      <trkpt lat="44.57637" lon="0.86711">
        <ele>173</ele>
        <time>2018-03-03T16:05:35.511Z</time>
      </trkpt>
      <trkpt lat="44.57642" lon="0.86711">
        <ele>172</ele>
        <time>2018-03-03T16:05:36.511Z</time>
      </trkpt>
      <trkpt lat="44.57648" lon="0.8671">
        <ele>172</ele>
        <time>2018-03-03T16:05:37.511Z</time>
      </trkpt>
      <trkpt lat="44.57654" lon="0.8671">
        <ele>172</ele>
        <time>2018-03-03T16:05:38.511Z</time>
      </trkpt>
      <trkpt lat="44.5766" lon="0.8671">
        <ele>171</ele>
        <time>2018-03-03T16:05:39.511Z</time>
      </trkpt>
      <trkpt lat="44.57667" lon="0.86711">
        <ele>171</ele>
        <time>2018-03-03T16:05:40.511Z</time>
      </trkpt>
      <trkpt lat="44.57673" lon="0.86711">
        <ele>171</ele>
        <time>2018-03-03T16:05:41.511Z</time>
      </trkpt>
      <trkpt lat="44.57679" lon="0.86711">
        <ele>170</ele>
        <time>2018-03-03T16:05:42.511Z</time>
      </trkpt>
      <trkpt lat="44.57686" lon="0.86711">
        <ele>170</ele>
        <time>2018-03-03T16:05:43.511Z</time>
      </trkpt>
      <trkpt lat="44.57692" lon="0.86711">
        <ele>169</ele>
        <time>2018-03-03T16:05:44.511Z</time>
      </trkpt>
      <trkpt lat="44.57699" lon="0.86711">
        <ele>169</ele>
        <time>2018-03-03T16:05:45.511Z</time>
      </trkpt>
      <trkpt lat="44.57705" lon="0.86711">
        <ele>169</ele>
        <time>2018-03-03T16:05:46.511Z</time>
      </trkpt>
      <trkpt lat="44.57712" lon="0.86712">
        <ele>168</ele>
        <time>2018-03-03T16:05:47.511Z</time>
      </trkpt>
      <trkpt lat="44.57718" lon="0.86713">
        <ele>168</ele>
        <time>2018-03-03T16:05:48.511Z</time>
      </trkpt>
      <trkpt lat="44.57725" lon="0.86714">
        <ele>167</ele>
        <time>2018-03-03T16:05:49.511Z</time>
      </trkpt>
      <trkpt lat="44.57731" lon="0.86715">
        <ele>167</ele>
        <time>2018-03-03T16:05:50.511Z</time>
      </trkpt>
      <trkpt lat="44.57738" lon="0.86717">
        <ele>166</ele>
        <time>2018-03-03T16:05:51.511Z</time>
      </trkpt>
      <trkpt lat="44.57745" lon="0.86718">
        <ele>166</ele>
        <time>2018-03-03T16:05:52.511Z</time>
      </trkpt>
      <trkpt lat="44.57752" lon="0.86721">
        <ele>165</ele>
        <time>2018-03-03T16:05:53.511Z</time>
      </trkpt>
      <trkpt lat="44.57759" lon="0.86723">
        <ele>165</ele>
        <time>2018-03-03T16:05:54.511Z</time>
      </trkpt>
      <trkpt lat="44.57766" lon="0.86725">
        <ele>164</ele>
        <time>2018-03-03T16:05:55.511Z</time>
      </trkpt>
      <trkpt lat="44.57774" lon="0.86728">
        <ele>164</ele>
        <time>2018-03-03T16:05:56.511Z</time>
      </trkpt>
      <trkpt lat="44.57782" lon="0.86731">
        <ele>163</ele>
        <time>2018-03-03T16:05:57.511Z</time>
      </trkpt>
      <trkpt lat="44.5779" lon="0.86735">
        <ele>163</ele>
        <time>2018-03-03T16:05:58.511Z</time>
      </trkpt>
      <trkpt lat="44.57798" lon="0.86738">
        <ele>162</ele>
        <time>2018-03-03T16:05:59.511Z</time>
      </trkpt>
      <trkpt lat="44.57807" lon="0.86742">
        <ele>161</ele>
        <time>2018-03-03T16:06:00.511Z</time>
      </trkpt>
      <trkpt lat="44.57815" lon="0.86746">
        <ele>161</ele>
        <time>2018-03-03T16:06:01.511Z</time>
      </trkpt>
      <trkpt lat="44.57824" lon="0.8675">
        <ele>160</ele>
        <time>2018-03-03T16:06:02.511Z</time>
      </trkpt>
      <trkpt lat="44.57833" lon="0.86754">
        <ele>160</ele>
        <time>2018-03-03T16:06:03.511Z</time>
      </trkpt>
      <trkpt lat="44.57842" lon="0.86757">
        <ele>159</ele>
        <time>2018-03-03T16:06:04.511Z</time>
      </trkpt>
      <trkpt lat="44.5785" lon="0.86761">
        <ele>159</ele>
        <time>2018-03-03T16:06:05.511Z</time>
      </trkpt>
      <trkpt lat="44.57859" lon="0.86765">
        <ele>158</ele>
        <time>2018-03-03T16:06:06.511Z</time>
      </trkpt>
      <trkpt lat="44.57867" lon="0.86768">
        <ele>159</ele>
        <time>2018-03-03T16:06:07.511Z</time>
      </trkpt>
      <trkpt lat="44.57875" lon="0.86772">
        <ele>158</ele>
        <time>2018-03-03T16:06:08.511Z</time>
      </trkpt>
      <trkpt lat="44.57883" lon="0.86775">
        <ele>158</ele>
        <time>2018-03-03T16:06:09.511Z</time>
      </trkpt>
      <trkpt lat="44.57891" lon="0.86778">
        <ele>157</ele>
        <time>2018-03-03T16:06:10.511Z</time>
      </trkpt>
      <trkpt lat="44.57899" lon="0.86781">
        <ele>157</ele>
        <time>2018-03-03T16:06:11.511Z</time>
      </trkpt>
      <trkpt lat="44.57906" lon="0.86784">
        <ele>157</ele>
        <time>2018-03-03T16:06:12.511Z</time>
      </trkpt>
      <trkpt lat="44.57913" lon="0.86787">
        <ele>157</ele>
        <time>2018-03-03T16:06:13.511Z</time>
      </trkpt>
      <trkpt lat="44.5792" lon="0.8679">
        <ele>157</ele>
        <time>2018-03-03T16:06:14.511Z</time>
      </trkpt>
      <trkpt lat="44.57927" lon="0.86793">
        <ele>157</ele>
        <time>2018-03-03T16:06:15.511Z</time>
      </trkpt>
      <trkpt lat="44.57934" lon="0.86796">
        <ele>157</ele>
        <time>2018-03-03T16:06:16.511Z</time>
      </trkpt>
      <trkpt lat="44.57941" lon="0.86799">
        <ele>157</ele>
        <time>2018-03-03T16:06:17.511Z</time>
      </trkpt>
      <trkpt lat="44.57948" lon="0.86802">
        <ele>156</ele>
        <time>2018-03-03T16:06:18.511Z</time>
      </trkpt>
      <trkpt lat="44.57955" lon="0.86804">
        <ele>157</ele>
        <time>2018-03-03T16:06:19.511Z</time>
      </trkpt>
      <trkpt lat="44.57962" lon="0.86807">
        <ele>157</ele>
        <time>2018-03-03T16:06:20.511Z</time>
      </trkpt>
      <trkpt lat="44.57969" lon="0.8681">
        <ele>157</ele>
        <time>2018-03-03T16:06:21.511Z</time>
      </trkpt>
      <trkpt lat="44.57975" lon="0.86813">
        <ele>156</ele>
        <time>2018-03-03T16:06:22.511Z</time>
      </trkpt>
      <trkpt lat="44.57982" lon="0.86815">
        <ele>156</ele>
        <time>2018-03-03T16:06:23.511Z</time>
      </trkpt>
      <trkpt lat="44.57988" lon="0.86818">
        <ele>156</ele>
        <time>2018-03-03T16:06:24.511Z</time>
      </trkpt>
      <trkpt lat="44.57994" lon="0.86821">
        <ele>156</ele>
        <time>2018-03-03T16:06:25.511Z</time>
      </trkpt>
      <trkpt lat="44.58" lon="0.86824">
        <ele>156</ele>
        <time>2018-03-03T16:06:26.511Z</time>
      </trkpt>
      <trkpt lat="44.58007" lon="0.86826">
        <ele>156</ele>
        <time>2018-03-03T16:06:27.511Z</time>
      </trkpt>
      <trkpt lat="44.58012" lon="0.86829">
        <ele>156</ele>
        <time>2018-03-03T16:06:28.511Z</time>
      </trkpt>
      <trkpt lat="44.58018" lon="0.86832">
        <ele>156</ele>
        <time>2018-03-03T16:06:29.511Z</time>
      </trkpt>
      <trkpt lat="44.58024" lon="0.86834">
        <ele>156</ele>
        <time>2018-03-03T16:06:30.511Z</time>
      </trkpt>
      <trkpt lat="44.5803" lon="0.86836">
        <ele>156</ele>
        <time>2018-03-03T16:06:31.511Z</time>
      </trkpt>
      <trkpt lat="44.58036" lon="0.86838">
        <ele>156</ele>
        <time>2018-03-03T16:06:32.511Z</time>
      </trkpt>
      <trkpt lat="44.58041" lon="0.8684">
        <ele>156</ele>
        <time>2018-03-03T16:06:33.511Z</time>
      </trkpt>
      <trkpt lat="44.58047" lon="0.86842">
        <ele>156</ele>
        <time>2018-03-03T16:06:34.511Z</time>
      </trkpt>
      <trkpt lat="44.58052" lon="0.86843">
        <ele>156</ele>
        <time>2018-03-03T16:06:35.511Z</time>
      </trkpt>
      <trkpt lat="44.58057" lon="0.86843">
        <ele>156</ele>
        <time>2018-03-03T16:06:36.511Z</time>
      </trkpt>
      <trkpt lat="44.58061" lon="0.86841">
        <ele>156</ele>
        <time>2018-03-03T16:06:37.511Z</time>
      </trkpt>
      <trkpt lat="44.58065" lon="0.86838">
        <ele>156</ele>
        <time>2018-03-03T16:06:38.511Z</time>
      </trkpt>
      <trkpt lat="44.58068" lon="0.86832">
        <ele>156</ele>
        <time>2018-03-03T16:06:39.511Z</time>
      </trkpt>
      <trkpt lat="44.5807" lon="0.86825">
        <ele>156</ele>
        <time>2018-03-03T16:06:40.511Z</time>
      </trkpt>
      <trkpt lat="44.58071" lon="0.86817">
        <ele>156</ele>
        <time>2018-03-03T16:06:41.511Z</time>
      </trkpt>
      <trkpt lat="44.58073" lon="0.86809">
        <ele>156</ele>
        <time>2018-03-03T16:06:42.511Z</time>
      </trkpt>
      <trkpt lat="44.58074" lon="0.86802">
        <ele>156</ele>
        <time>2018-03-03T16:06:43.511Z</time>
      </trkpt>
      <trkpt lat="44.58075" lon="0.86795">
        <ele>156</ele>
        <time>2018-03-03T16:06:44.511Z</time>
      </trkpt>
      <trkpt lat="44.58077" lon="0.86789">
        <ele>156</ele>
        <time>2018-03-03T16:06:45.511Z</time>
      </trkpt>
      <trkpt lat="44.58078" lon="0.86783">
        <ele>156</ele>
        <time>2018-03-03T16:06:46.511Z</time>
      </trkpt>
      <trkpt lat="44.58079" lon="0.86778">
        <ele>156</ele>
        <time>2018-03-03T16:06:47.511Z</time>
      </trkpt>
      <trkpt lat="44.58081" lon="0.86773">
        <ele>157</ele>
        <time>2018-03-03T16:06:48.511Z</time>
      </trkpt>
      <trkpt lat="44.58082" lon="0.86768">
        <ele>157</ele>
        <time>2018-03-03T16:06:49.511Z</time>
      </trkpt>
      <trkpt lat="44.58083" lon="0.86764">
        <ele>157</ele>
        <time>2018-03-03T16:06:50.511Z</time>
      </trkpt>
      <trkpt lat="44.58085" lon="0.8676">
        <ele>157</ele>
        <time>2018-03-03T16:06:51.511Z</time>
      </trkpt>
      <trkpt lat="44.58086" lon="0.86755">
        <ele>158</ele>
        <time>2018-03-03T16:06:52.511Z</time>
      </trkpt>
      <trkpt lat="44.58087" lon="0.86751">
        <ele>158</ele>
        <time>2018-03-03T16:06:53.511Z</time>
      </trkpt>
      <trkpt lat="44.58088" lon="0.86747">
        <ele>158</ele>
        <time>2018-03-03T16:06:54.511Z</time>
      </trkpt>
      <trkpt lat="44.58089" lon="0.86742">
        <ele>158</ele>
        <time>2018-03-03T16:06:55.511Z</time>
      </trkpt>
      <trkpt lat="44.5809" lon="0.86738">
        <ele>159</ele>
        <time>2018-03-03T16:06:56.511Z</time>
      </trkpt>
      <trkpt lat="44.58091" lon="0.86733">
        <ele>159</ele>
        <time>2018-03-03T16:06:57.511Z</time>
      </trkpt>
      <trkpt lat="44.58092" lon="0.86729">
        <ele>159</ele>
        <time>2018-03-03T16:06:58.511Z</time>
      </trkpt>
      <trkpt lat="44.58093" lon="0.86724">
        <ele>159</ele>
        <time>2018-03-03T16:06:59.511Z</time>
      </trkpt>
      <trkpt lat="44.58094" lon="0.86719">
        <ele>159</ele>
        <time>2018-03-03T16:07:00.511Z</time>
      </trkpt>
      <trkpt lat="44.58095" lon="0.86714">
        <ele>159</ele>
        <time>2018-03-03T16:07:01.511Z</time>
      </trkpt>
      <trkpt lat="44.58096" lon="0.86709">
        <ele>159</ele>
        <time>2018-03-03T16:07:02.511Z</time>
      </trkpt>
      <trkpt lat="44.58097" lon="0.86704">
        <ele>159</ele>
        <time>2018-03-03T16:07:03.511Z</time>
      </trkpt>
      <trkpt lat="44.58098" lon="0.86699">
        <ele>159</ele>
        <time>2018-03-03T16:07:04.511Z</time>
      </trkpt>
      <trkpt lat="44.58099" lon="0.86694">
        <ele>159</ele>
        <time>2018-03-03T16:07:05.511Z</time>
      </trkpt>
      <trkpt lat="44.58099" lon="0.86688">
        <ele>159</ele>
        <time>2018-03-03T16:07:06.511Z</time>
      </trkpt>
      <trkpt lat="44.581" lon="0.86683">
        <ele>159</ele>
        <time>2018-03-03T16:07:07.511Z</time>
      </trkpt>
      <trkpt lat="44.581" lon="0.86677">
        <ele>159</ele>
        <time>2018-03-03T16:07:08.511Z</time>
      </trkpt>
      <trkpt lat="44.581" lon="0.86671">
        <ele>159</ele>
        <time>2018-03-03T16:07:09.511Z</time>
      </trkpt>
      <trkpt lat="44.581" lon="0.86666">
        <ele>159</ele>
        <time>2018-03-03T16:07:10.511Z</time>
      </trkpt>
      <trkpt lat="44.581" lon="0.8666">
        <ele>159</ele>
        <time>2018-03-03T16:07:11.511Z</time>
      </trkpt>
      <trkpt lat="44.58099" lon="0.86654">
        <ele>159</ele>
        <time>2018-03-03T16:07:12.511Z</time>
      </trkpt>
      <trkpt lat="44.58098" lon="0.86648">
        <ele>159</ele>
        <time>2018-03-03T16:07:13.511Z</time>
      </trkpt>
      <trkpt lat="44.58097" lon="0.86643">
        <ele>159</ele>
        <time>2018-03-03T16:07:14.511Z</time>
      </trkpt>
      <trkpt lat="44.58095" lon="0.86637">
        <ele>159</ele>
        <time>2018-03-03T16:07:15.511Z</time>
      </trkpt>
      <trkpt lat="44.58094" lon="0.86631">
        <ele>159</ele>
        <time>2018-03-03T16:07:16.511Z</time>
      </trkpt>
      <trkpt lat="44.58093" lon="0.86626">
        <ele>159</ele>
        <time>2018-03-03T16:07:17.511Z</time>
      </trkpt>
      <trkpt lat="44.58091" lon="0.8662">
        <ele>159</ele>
        <time>2018-03-03T16:07:18.511Z</time>
      </trkpt>
      <trkpt lat="44.5809" lon="0.86615">
        <ele>159</ele>
        <time>2018-03-03T16:07:19.511Z</time>
      </trkpt>
      <trkpt lat="44.58089" lon="0.8661">
        <ele>159</ele>
        <time>2018-03-03T16:07:20.511Z</time>
      </trkpt>
      <trkpt lat="44.58087" lon="0.86605">
        <ele>159</ele>
        <time>2018-03-03T16:07:21.511Z</time>
      </trkpt>
      <trkpt lat="44.58086" lon="0.866">
        <ele>159</ele>
        <time>2018-03-03T16:07:22.511Z</time>
      </trkpt>
      <trkpt lat="44.58086" lon="0.86595">
        <ele>159</ele>
        <time>2018-03-03T16:07:23.511Z</time>
      </trkpt>
      <trkpt lat="44.58085" lon="0.8659">
        <ele>159</ele>
        <time>2018-03-03T16:07:24.511Z</time>
      </trkpt>
      <trkpt lat="44.58084" lon="0.86586">
        <ele>160</ele>
        <time>2018-03-03T16:07:25.511Z</time>
      </trkpt>
      <trkpt lat="44.58083" lon="0.86581">
        <ele>160</ele>
        <time>2018-03-03T16:07:26.511Z</time>
      </trkpt>
      <trkpt lat="44.58083" lon="0.86576">
        <ele>160</ele>
        <time>2018-03-03T16:07:27.511Z</time>
      </trkpt>
      <trkpt lat="44.58082" lon="0.86571">
        <ele>160</ele>
        <time>2018-03-03T16:07:28.511Z</time>
      </trkpt>
      <trkpt lat="44.58082" lon="0.86567">
        <ele>160</ele>
        <time>2018-03-03T16:07:29.511Z</time>
      </trkpt>
      <trkpt lat="44.58081" lon="0.86562">
        <ele>160</ele>
        <time>2018-03-03T16:07:30.511Z</time>
      </trkpt>
      <trkpt lat="44.58081" lon="0.86556">
        <ele>160</ele>
        <time>2018-03-03T16:07:31.511Z</time>
      </trkpt>
      <trkpt lat="44.5808" lon="0.86551">
        <ele>160</ele>
        <time>2018-03-03T16:07:32.511Z</time>
      </trkpt>
      <trkpt lat="44.58079" lon="0.86546">
        <ele>160</ele>
        <time>2018-03-03T16:07:33.511Z</time>
      </trkpt>
      <trkpt lat="44.58079" lon="0.8654">
        <ele>160</ele>
        <time>2018-03-03T16:07:34.511Z</time>
      </trkpt>
      <trkpt lat="44.58078" lon="0.86535">
        <ele>160</ele>
        <time>2018-03-03T16:07:35.511Z</time>
      </trkpt>
      <trkpt lat="44.58078" lon="0.8653">
        <ele>160</ele>
        <time>2018-03-03T16:07:36.511Z</time>
      </trkpt>
      <trkpt lat="44.58077" lon="0.86524">
        <ele>160</ele>
        <time>2018-03-03T16:07:37.511Z</time>
      </trkpt>
      <trkpt lat="44.58077" lon="0.86519">
        <ele>160</ele>
        <time>2018-03-03T16:07:38.511Z</time>
      </trkpt>
      <trkpt lat="44.58076" lon="0.86514">
        <ele>161</ele>
        <time>2018-03-03T16:07:39.511Z</time>
      </trkpt>
      <trkpt lat="44.58076" lon="0.86509">
        <ele>161</ele>
        <time>2018-03-03T16:07:40.511Z</time>
      </trkpt>
      <trkpt lat="44.58075" lon="0.86504">
        <ele>161</ele>
        <time>2018-03-03T16:07:41.511Z</time>
      </trkpt>
      <trkpt lat="44.58075" lon="0.86499">
        <ele>161</ele>
        <time>2018-03-03T16:07:42.511Z</time>
      </trkpt>
      <trkpt lat="44.58075" lon="0.86495">
        <ele>161</ele>
        <time>2018-03-03T16:07:43.511Z</time>
      </trkpt>
      <trkpt lat="44.58075" lon="0.8649">
        <ele>161</ele>
        <time>2018-03-03T16:07:44.511Z</time>
      </trkpt>
      <trkpt lat="44.58075" lon="0.86485">
        <ele>162</ele>
        <time>2018-03-03T16:07:45.511Z</time>
      </trkpt>
      <trkpt lat="44.58075" lon="0.8648">
        <ele>162</ele>
        <time>2018-03-03T16:07:46.511Z</time>
      </trkpt>
      <trkpt lat="44.58075" lon="0.86475">
        <ele>162</ele>
        <time>2018-03-03T16:07:47.511Z</time>
      </trkpt>
      <trkpt lat="44.58074" lon="0.86469">
        <ele>162</ele>
        <time>2018-03-03T16:07:48.511Z</time>
      </trkpt>
      <trkpt lat="44.58074" lon="0.86464">
        <ele>162</ele>
        <time>2018-03-03T16:07:49.511Z</time>
      </trkpt>
      <trkpt lat="44.58073" lon="0.86459">
        <ele>162</ele>
        <time>2018-03-03T16:07:50.511Z</time>
      </trkpt>
      <trkpt lat="44.58072" lon="0.86454">
        <ele>162</ele>
        <time>2018-03-03T16:07:51.511Z</time>
      </trkpt>
      <trkpt lat="44.58071" lon="0.86449">
        <ele>162</ele>
        <time>2018-03-03T16:07:52.511Z</time>
      </trkpt>
      <trkpt lat="44.5807" lon="0.86444">
        <ele>162</ele>
        <time>2018-03-03T16:07:53.511Z</time>
      </trkpt>
      <trkpt lat="44.58068" lon="0.8644">
        <ele>162</ele>
        <time>2018-03-03T16:07:54.511Z</time>
      </trkpt>
      <trkpt lat="44.58066" lon="0.86435">
        <ele>163</ele>
        <time>2018-03-03T16:07:55.511Z</time>
      </trkpt>
      <trkpt lat="44.58064" lon="0.8643">
        <ele>163</ele>
        <time>2018-03-03T16:07:56.511Z</time>
      </trkpt>
      <trkpt lat="44.58062" lon="0.86426">
        <ele>163</ele>
        <time>2018-03-03T16:07:57.511Z</time>
      </trkpt>
      <trkpt lat="44.5806" lon="0.86421">
        <ele>163</ele>
        <time>2018-03-03T16:07:58.511Z</time>
      </trkpt>
      <trkpt lat="44.58058" lon="0.86417">
        <ele>163</ele>
        <time>2018-03-03T16:07:59.511Z</time>
      </trkpt>
      <trkpt lat="44.58056" lon="0.86413">
        <ele>163</ele>
        <time>2018-03-03T16:08:00.511Z</time>
      </trkpt>
      <trkpt lat="44.58053" lon="0.86409">
        <ele>164</ele>
        <time>2018-03-03T16:08:01.511Z</time>
      </trkpt>
      <trkpt lat="44.58051" lon="0.86405">
        <ele>164</ele>
        <time>2018-03-03T16:08:02.511Z</time>
      </trkpt>
      <trkpt lat="44.58049" lon="0.86401">
        <ele>164</ele>
        <time>2018-03-03T16:08:03.511Z</time>
      </trkpt>
      <trkpt lat="44.58047" lon="0.86397">
        <ele>164</ele>
        <time>2018-03-03T16:08:04.511Z</time>
      </trkpt>
      <trkpt lat="44.58045" lon="0.86393">
        <ele>164</ele>
        <time>2018-03-03T16:08:05.511Z</time>
      </trkpt>
      <trkpt lat="44.58043" lon="0.86388">
        <ele>164</ele>
        <time>2018-03-03T16:08:06.511Z</time>
      </trkpt>
      <trkpt lat="44.58041" lon="0.86384">
        <ele>164</ele>
        <time>2018-03-03T16:08:07.511Z</time>
      </trkpt>
      <trkpt lat="44.5804" lon="0.8638">
        <ele>164</ele>
        <time>2018-03-03T16:08:08.511Z</time>
      </trkpt>
      <trkpt lat="44.58039" lon="0.86376">
        <ele>164</ele>
        <time>2018-03-03T16:08:09.511Z</time>
      </trkpt>
      <trkpt lat="44.58038" lon="0.86371">
        <ele>164</ele>
        <time>2018-03-03T16:08:10.511Z</time>
      </trkpt>
      <trkpt lat="44.58037" lon="0.86367">
        <ele>165</ele>
        <time>2018-03-03T16:08:11.511Z</time>
      </trkpt>
      <trkpt lat="44.58036" lon="0.86362">
        <ele>165</ele>
        <time>2018-03-03T16:08:12.511Z</time>
      </trkpt>
      <trkpt lat="44.58034" lon="0.86358">
        <ele>165</ele>
        <time>2018-03-03T16:08:13.511Z</time>
      </trkpt>
      <trkpt lat="44.58033" lon="0.86354">
        <ele>165</ele>
        <time>2018-03-03T16:08:14.511Z</time>
      </trkpt>
      <trkpt lat="44.58031" lon="0.86349">
        <ele>165</ele>
        <time>2018-03-03T16:08:15.511Z</time>
      </trkpt>
      <trkpt lat="44.58028" lon="0.86345">
        <ele>165</ele>
        <time>2018-03-03T16:08:16.511Z</time>
      </trkpt>
      <trkpt lat="44.58026" lon="0.86341">
        <ele>165</ele>
        <time>2018-03-03T16:08:17.511Z</time>
      </trkpt>
      <trkpt lat="44.58024" lon="0.86337">
        <ele>165</ele>
        <time>2018-03-03T16:08:18.511Z</time>
      </trkpt>
      <trkpt lat="44.58021" lon="0.86333">
        <ele>165</ele>
        <time>2018-03-03T16:08:19.511Z</time>
      </trkpt>
      <trkpt lat="44.58019" lon="0.86329">
        <ele>165</ele>
        <time>2018-03-03T16:08:20.511Z</time>
      </trkpt>
      <trkpt lat="44.58017" lon="0.86325">
        <ele>165</ele>
        <time>2018-03-03T16:08:21.511Z</time>
      </trkpt>
      <trkpt lat="44.58015" lon="0.86321">
        <ele>166</ele>
        <time>2018-03-03T16:08:22.511Z</time>
      </trkpt>
      <trkpt lat="44.58013" lon="0.86317">
        <ele>166</ele>
        <time>2018-03-03T16:08:23.511Z</time>
      </trkpt>
      <trkpt lat="44.58011" lon="0.86313">
        <ele>166</ele>
        <time>2018-03-03T16:08:24.511Z</time>
      </trkpt>
      <trkpt lat="44.58009" lon="0.86309">
        <ele>166</ele>
        <time>2018-03-03T16:08:25.511Z</time>
      </trkpt>
      <trkpt lat="44.58007" lon="0.86305">
        <ele>166</ele>
        <time>2018-03-03T16:08:26.511Z</time>
      </trkpt>
      <trkpt lat="44.58005" lon="0.86301">
        <ele>166</ele>
        <time>2018-03-03T16:08:27.511Z</time>
      </trkpt>
      <trkpt lat="44.58004" lon="0.86297">
        <ele>166</ele>
        <time>2018-03-03T16:08:28.511Z</time>
      </trkpt>
      <trkpt lat="44.58002" lon="0.86293">
        <ele>166</ele>
        <time>2018-03-03T16:08:29.511Z</time>
      </trkpt>
      <trkpt lat="44.58" lon="0.86289">
        <ele>166</ele>
        <time>2018-03-03T16:08:30.511Z</time>
      </trkpt>
      <trkpt lat="44.57999" lon="0.86284">
        <ele>166</ele>
        <time>2018-03-03T16:08:31.511Z</time>
      </trkpt>
      <trkpt lat="44.57998" lon="0.8628">
        <ele>167</ele>
        <time>2018-03-03T16:08:32.511Z</time>
      </trkpt>
      <trkpt lat="44.57996" lon="0.86276">
        <ele>167</ele>
        <time>2018-03-03T16:08:33.511Z</time>
      </trkpt>
      <trkpt lat="44.57995" lon="0.86272">
        <ele>167</ele>
        <time>2018-03-03T16:08:34.511Z</time>
      </trkpt>
      <trkpt lat="44.57993" lon="0.86268">
        <ele>167</ele>
        <time>2018-03-03T16:08:35.511Z</time>
      </trkpt>
      <trkpt lat="44.57991" lon="0.86264">
        <ele>167</ele>
        <time>2018-03-03T16:08:36.511Z</time>
      </trkpt>
      <trkpt lat="44.5799" lon="0.8626">
        <ele>167</ele>
        <time>2018-03-03T16:08:37.511Z</time>
      </trkpt>
      <trkpt lat="44.57988" lon="0.86257">
        <ele>167</ele>
        <time>2018-03-03T16:08:38.511Z</time>
      </trkpt>
      <trkpt lat="44.57986" lon="0.86253">
        <ele>167</ele>
        <time>2018-03-03T16:08:39.511Z</time>
      </trkpt>
      <trkpt lat="44.57984" lon="0.8625">
        <ele>167</ele>
        <time>2018-03-03T16:08:40.511Z</time>
      </trkpt>
      <trkpt lat="44.57982" lon="0.86247">
        <ele>168</ele>
        <time>2018-03-03T16:08:41.511Z</time>
      </trkpt>
      <trkpt lat="44.5798" lon="0.86243">
        <ele>168</ele>
        <time>2018-03-03T16:08:42.511Z</time>
      </trkpt>
      <trkpt lat="44.57979" lon="0.8624">
        <ele>168</ele>
        <time>2018-03-03T16:08:43.511Z</time>
      </trkpt>
      <trkpt lat="44.57977" lon="0.86236">
        <ele>168</ele>
        <time>2018-03-03T16:08:44.511Z</time>
      </trkpt>
      <trkpt lat="44.57975" lon="0.86233">
        <ele>168</ele>
        <time>2018-03-03T16:08:45.511Z</time>
      </trkpt>
      <trkpt lat="44.57974" lon="0.86229">
        <ele>168</ele>
        <time>2018-03-03T16:08:46.511Z</time>
      </trkpt>
      <trkpt lat="44.57972" lon="0.86225">
        <ele>169</ele>
        <time>2018-03-03T16:08:47.511Z</time>
      </trkpt>
      <trkpt lat="44.57971" lon="0.86221">
        <ele>169</ele>
        <time>2018-03-03T16:08:48.511Z</time>
      </trkpt>
      <trkpt lat="44.5797" lon="0.86217">
        <ele>170</ele>
        <time>2018-03-03T16:08:49.511Z</time>
      </trkpt>
      <trkpt lat="44.57969" lon="0.86213">
        <ele>170</ele>
        <time>2018-03-03T16:08:50.511Z</time>
      </trkpt>
      <trkpt lat="44.57968" lon="0.86208">
        <ele>170</ele>
        <time>2018-03-03T16:08:51.511Z</time>
      </trkpt>
      <trkpt lat="44.57967" lon="0.86204">
        <ele>170</ele>
        <time>2018-03-03T16:08:52.511Z</time>
      </trkpt>
      <trkpt lat="44.57966" lon="0.86199">
        <ele>170</ele>
        <time>2018-03-03T16:08:53.511Z</time>
      </trkpt>
      <trkpt lat="44.57965" lon="0.86195">
        <ele>170</ele>
        <time>2018-03-03T16:08:54.511Z</time>
      </trkpt>
      <trkpt lat="44.57963" lon="0.8619">
        <ele>171</ele>
        <time>2018-03-03T16:08:55.511Z</time>
      </trkpt>
      <trkpt lat="44.57962" lon="0.86186">
        <ele>171</ele>
        <time>2018-03-03T16:08:56.511Z</time>
      </trkpt>
      <trkpt lat="44.57961" lon="0.86182">
        <ele>171</ele>
        <time>2018-03-03T16:08:57.511Z</time>
      </trkpt>
      <trkpt lat="44.57959" lon="0.86177">
        <ele>171</ele>
        <time>2018-03-03T16:08:58.511Z</time>
      </trkpt>
      <trkpt lat="44.57958" lon="0.86173">
        <ele>171</ele>
        <time>2018-03-03T16:08:59.511Z</time>
      </trkpt>
      <trkpt lat="44.57956" lon="0.86168">
        <ele>171</ele>
        <time>2018-03-03T16:09:00.511Z</time>
      </trkpt>
      <trkpt lat="44.57955" lon="0.86164">
        <ele>171</ele>
        <time>2018-03-03T16:09:01.511Z</time>
      </trkpt>
      <trkpt lat="44.57953" lon="0.86159">
        <ele>171</ele>
        <time>2018-03-03T16:09:02.511Z</time>
      </trkpt>
      <trkpt lat="44.57951" lon="0.86155">
        <ele>171</ele>
        <time>2018-03-03T16:09:03.511Z</time>
      </trkpt>
      <trkpt lat="44.57949" lon="0.8615">
        <ele>171</ele>
        <time>2018-03-03T16:09:04.511Z</time>
      </trkpt>
      <trkpt lat="44.57946" lon="0.86145">
        <ele>172</ele>
        <time>2018-03-03T16:09:05.511Z</time>
      </trkpt>
      <trkpt lat="44.57944" lon="0.86141">
        <ele>172</ele>
        <time>2018-03-03T16:09:06.511Z</time>
      </trkpt>
      <trkpt lat="44.57942" lon="0.86136">
        <ele>172</ele>
        <time>2018-03-03T16:09:07.511Z</time>
      </trkpt>
      <trkpt lat="44.57939" lon="0.86132">
        <ele>172</ele>
        <time>2018-03-03T16:09:08.511Z</time>
      </trkpt>
      <trkpt lat="44.57937" lon="0.86127">
        <ele>172</ele>
        <time>2018-03-03T16:09:09.511Z</time>
      </trkpt>
      <trkpt lat="44.57935" lon="0.86123">
        <ele>172</ele>
        <time>2018-03-03T16:09:10.511Z</time>
      </trkpt>
      <trkpt lat="44.57932" lon="0.8612">
        <ele>172</ele>
        <time>2018-03-03T16:09:11.511Z</time>
      </trkpt>
      <trkpt lat="44.5793" lon="0.86117">
        <ele>172</ele>
        <time>2018-03-03T16:09:12.511Z</time>
      </trkpt>
      <trkpt lat="44.57927" lon="0.86114">
        <ele>172</ele>
        <time>2018-03-03T16:09:13.511Z</time>
      </trkpt>
      <trkpt lat="44.57925" lon="0.86113">
        <ele>172</ele>
        <time>2018-03-03T16:09:14.511Z</time>
      </trkpt>
      <trkpt lat="44.57922" lon="0.86111">
        <ele>173</ele>
        <time>2018-03-03T16:09:15.511Z</time>
      </trkpt>
      <trkpt lat="44.5792" lon="0.8611">
        <ele>173</ele>
        <time>2018-03-03T16:09:16.511Z</time>
      </trkpt>
      <trkpt lat="44.57917" lon="0.86109">
        <ele>173</ele>
        <time>2018-03-03T16:09:17.511Z</time>
      </trkpt>
      <trkpt lat="44.57915" lon="0.86107">
        <ele>173</ele>
        <time>2018-03-03T16:09:18.511Z</time>
      </trkpt>
      <trkpt lat="44.57913" lon="0.86105">
        <ele>173</ele>
        <time>2018-03-03T16:09:19.511Z</time>
      </trkpt>
      <trkpt lat="44.57911" lon="0.86103">
        <ele>173</ele>
        <time>2018-03-03T16:09:20.511Z</time>
      </trkpt>
      <trkpt lat="44.57909" lon="0.861">
        <ele>173</ele>
        <time>2018-03-03T16:09:21.511Z</time>
      </trkpt>
      <trkpt lat="44.57907" lon="0.86098">
        <ele>173</ele>
        <time>2018-03-03T16:09:22.511Z</time>
      </trkpt>
      <trkpt lat="44.57906" lon="0.86096">
        <ele>173</ele>
        <time>2018-03-03T16:09:23.511Z</time>
      </trkpt>
      <trkpt lat="44.57905" lon="0.86094">
        <ele>173</ele>
        <time>2018-03-03T16:09:24.511Z</time>
      </trkpt>
      <trkpt lat="44.57905" lon="0.86092">
        <ele>173</ele>
        <time>2018-03-03T16:09:25.511Z</time>
      </trkpt>
      <trkpt lat="44.57904" lon="0.86091">
        <ele>174</ele>
        <time>2018-03-03T16:09:26.511Z</time>
      </trkpt>
      <trkpt lat="44.57904" lon="0.8609">
        <ele>174</ele>
        <time>2018-03-03T16:09:27.511Z</time>
      </trkpt>
      <trkpt lat="44.57904" lon="0.8609">
        <ele>174</ele>
        <time>2018-03-03T16:09:28.511Z</time>
      </trkpt>
      <trkpt lat="44.57904" lon="0.8609">
        <ele>173</ele>
        <time>2018-03-03T16:09:29.511Z</time>
      </trkpt>
      <trkpt lat="44.57904" lon="0.8609">
        <ele>173</ele>
        <time>2018-03-03T16:09:30.511Z</time>
      </trkpt>
      <trkpt lat="44.57904" lon="0.86089">
        <ele>174</ele>
        <time>2018-03-03T16:09:31.511Z</time>
      </trkpt>
      <trkpt lat="44.57904" lon="0.86088">
        <ele>173</ele>
        <time>2018-03-03T16:09:32.511Z</time>
      </trkpt>
      <trkpt lat="44.57904" lon="0.86085">
        <ele>173</ele>
        <time>2018-03-03T16:09:33.511Z</time>
      </trkpt>
      <trkpt lat="44.57904" lon="0.86081">
        <ele>173</ele>
        <time>2018-03-03T16:09:34.511Z</time>
      </trkpt>
      <trkpt lat="44.57903" lon="0.86078">
        <ele>173</ele>
        <time>2018-03-03T16:09:35.511Z</time>
      </trkpt>
      <trkpt lat="44.57903" lon="0.86075">
        <ele>173</ele>
        <time>2018-03-03T16:09:36.511Z</time>
      </trkpt>
      <trkpt lat="44.57902" lon="0.86072">
        <ele>173</ele>
        <time>2018-03-03T16:09:37.511Z</time>
      </trkpt>
      <trkpt lat="44.57902" lon="0.8607">
        <ele>173</ele>
        <time>2018-03-03T16:09:38.511Z</time>
      </trkpt>
      <trkpt lat="44.57903" lon="0.86066">
        <ele>173</ele>
        <time>2018-03-03T16:09:39.511Z</time>
      </trkpt>
      <trkpt lat="44.57903" lon="0.86063">
        <ele>173</ele>
        <time>2018-03-03T16:09:40.511Z</time>
      </trkpt>
      <trkpt lat="44.57904" lon="0.86059">
        <ele>173</ele>
        <time>2018-03-03T16:09:41.511Z</time>
      </trkpt>
      <trkpt lat="44.57904" lon="0.86055">
        <ele>173</ele>
        <time>2018-03-03T16:09:42.511Z</time>
      </trkpt>
      <trkpt lat="44.57903" lon="0.86051">
        <ele>173</ele>
        <time>2018-03-03T16:09:43.511Z</time>
      </trkpt>
      <trkpt lat="44.57903" lon="0.86047">
        <ele>173</ele>
        <time>2018-03-03T16:09:44.511Z</time>
      </trkpt>
      <trkpt lat="44.57902" lon="0.86042">
        <ele>173</ele>
        <time>2018-03-03T16:09:45.511Z</time>
      </trkpt>
      <trkpt lat="44.57901" lon="0.86038">
        <ele>173</ele>
        <time>2018-03-03T16:09:46.511Z</time>
      </trkpt>
      <trkpt lat="44.579" lon="0.86033">
        <ele>173</ele>
        <time>2018-03-03T16:09:47.511Z</time>
      </trkpt>
      <trkpt lat="44.579" lon="0.86029">
        <ele>174</ele>
        <time>2018-03-03T16:09:48.511Z</time>
      </trkpt>
      <trkpt lat="44.57899" lon="0.86024">
        <ele>174</ele>
        <time>2018-03-03T16:09:49.511Z</time>
      </trkpt>
      <trkpt lat="44.57898" lon="0.8602">
        <ele>174</ele>
        <time>2018-03-03T16:09:50.511Z</time>
      </trkpt>
      <trkpt lat="44.57897" lon="0.86016">
        <ele>174</ele>
        <time>2018-03-03T16:09:51.511Z</time>
      </trkpt>
      <trkpt lat="44.57897" lon="0.86013">
        <ele>174</ele>
        <time>2018-03-03T16:09:52.511Z</time>
      </trkpt>
      <trkpt lat="44.57896" lon="0.86009">
        <ele>174</ele>
        <time>2018-03-03T16:09:53.511Z</time>
      </trkpt>
      <trkpt lat="44.57896" lon="0.86006">
        <ele>174</ele>
        <time>2018-03-03T16:09:54.511Z</time>
      </trkpt>
      <trkpt lat="44.57896" lon="0.86003">
        <ele>175</ele>
        <time>2018-03-03T16:09:55.511Z</time>
      </trkpt>
      <trkpt lat="44.57895" lon="0.85999">
        <ele>175</ele>
        <time>2018-03-03T16:09:56.511Z</time>
      </trkpt>
      <trkpt lat="44.57895" lon="0.85996">
        <ele>175</ele>
        <time>2018-03-03T16:09:57.511Z</time>
      </trkpt>
      <trkpt lat="44.57894" lon="0.85992">
        <ele>175</ele>
        <time>2018-03-03T16:09:58.511Z</time>
      </trkpt>
      <trkpt lat="44.57893" lon="0.85988">
        <ele>175</ele>
        <time>2018-03-03T16:09:59.511Z</time>
      </trkpt>
      <trkpt lat="44.57892" lon="0.85984">
        <ele>175</ele>
        <time>2018-03-03T16:10:00.511Z</time>
      </trkpt>
      <trkpt lat="44.57891" lon="0.8598">
        <ele>175</ele>
        <time>2018-03-03T16:10:01.511Z</time>
      </trkpt>
      <trkpt lat="44.5789" lon="0.85976">
        <ele>175</ele>
        <time>2018-03-03T16:10:02.511Z</time>
      </trkpt>
      <trkpt lat="44.57889" lon="0.85973">
        <ele>175</ele>
        <time>2018-03-03T16:10:03.511Z</time>
      </trkpt>
      <trkpt lat="44.57888" lon="0.85969">
        <ele>175</ele>
        <time>2018-03-03T16:10:04.511Z</time>
      </trkpt>
      <trkpt lat="44.57887" lon="0.85966">
        <ele>175</ele>
        <time>2018-03-03T16:10:05.511Z</time>
      </trkpt>
      <trkpt lat="44.57886" lon="0.85962">
        <ele>175</ele>
        <time>2018-03-03T16:10:06.511Z</time>
      </trkpt>
      <trkpt lat="44.57884" lon="0.85959">
        <ele>176</ele>
        <time>2018-03-03T16:10:07.511Z</time>
      </trkpt>
      <trkpt lat="44.57883" lon="0.85955">
        <ele>176</ele>
        <time>2018-03-03T16:10:08.511Z</time>
      </trkpt>
      <trkpt lat="44.57881" lon="0.85951">
        <ele>176</ele>
        <time>2018-03-03T16:10:09.511Z</time>
      </trkpt>
      <trkpt lat="44.5788" lon="0.85947">
        <ele>176</ele>
        <time>2018-03-03T16:10:10.511Z</time>
      </trkpt>
      <trkpt lat="44.57878" lon="0.85943">
        <ele>176</ele>
        <time>2018-03-03T16:10:11.511Z</time>
      </trkpt>
      <trkpt lat="44.57876" lon="0.85939">
        <ele>176</ele>
        <time>2018-03-03T16:10:12.511Z</time>
      </trkpt>
      <trkpt lat="44.57874" lon="0.85936">
        <ele>176</ele>
        <time>2018-03-03T16:10:13.511Z</time>
      </trkpt>
      <trkpt lat="44.57872" lon="0.85932">
        <ele>176</ele>
        <time>2018-03-03T16:10:14.511Z</time>
      </trkpt>
      <trkpt lat="44.57871" lon="0.85929">
        <ele>176</ele>
        <time>2018-03-03T16:10:15.511Z</time>
      </trkpt>
      <trkpt lat="44.57869" lon="0.85926">
        <ele>176</ele>
        <time>2018-03-03T16:10:16.511Z</time>
      </trkpt>
      <trkpt lat="44.57868" lon="0.85923">
        <ele>176</ele>
        <time>2018-03-03T16:10:17.511Z</time>
      </trkpt>
      <trkpt lat="44.57868" lon="0.85921">
        <ele>176</ele>
        <time>2018-03-03T16:10:18.511Z</time>
      </trkpt>
      <trkpt lat="44.57867" lon="0.85918">
        <ele>176</ele>
        <time>2018-03-03T16:10:19.511Z</time>
      </trkpt>
      <trkpt lat="44.57867" lon="0.85915">
        <ele>176</ele>
        <time>2018-03-03T16:10:20.511Z</time>
      </trkpt>
      <trkpt lat="44.57866" lon="0.85912">
        <ele>176</ele>
        <time>2018-03-03T16:10:21.511Z</time>
      </trkpt>
      <trkpt lat="44.57866" lon="0.85908">
        <ele>176</ele>
        <time>2018-03-03T16:10:22.511Z</time>
      </trkpt>
      <trkpt lat="44.57865" lon="0.85904">
        <ele>176</ele>
        <time>2018-03-03T16:10:23.511Z</time>
      </trkpt>
      <trkpt lat="44.57864" lon="0.85901">
        <ele>176</ele>
        <time>2018-03-03T16:10:24.511Z</time>
      </trkpt>
      <trkpt lat="44.57862" lon="0.859">
        <ele>176</ele>
        <time>2018-03-03T16:10:25.511Z</time>
      </trkpt>
      <trkpt lat="44.57861" lon="0.85899">
        <ele>176</ele>
        <time>2018-03-03T16:10:26.511Z</time>
      </trkpt>
      <trkpt lat="44.57859" lon="0.859">
        <ele>176</ele>
        <time>2018-03-03T16:10:27.511Z</time>
      </trkpt>
      <trkpt lat="44.57857" lon="0.85901">
        <ele>176</ele>
        <time>2018-03-03T16:10:28.511Z</time>
      </trkpt>
      <trkpt lat="44.57854" lon="0.85902">
        <ele>177</ele>
        <time>2018-03-03T16:10:29.511Z</time>
      </trkpt>
      <trkpt lat="44.57852" lon="0.85902">
        <ele>177</ele>
        <time>2018-03-03T16:10:30.511Z</time>
      </trkpt>
      <trkpt lat="44.57849" lon="0.85903">
        <ele>177</ele>
        <time>2018-03-03T16:10:31.511Z</time>
      </trkpt>
      <trkpt lat="44.57847" lon="0.85903">
        <ele>177</ele>
        <time>2018-03-03T16:10:32.511Z</time>
      </trkpt>
      <trkpt lat="44.57845" lon="0.85903">
        <ele>177</ele>
        <time>2018-03-03T16:10:33.511Z</time>
      </trkpt>
      <trkpt lat="44.57842" lon="0.85902">
        <ele>177</ele>
        <time>2018-03-03T16:10:34.511Z</time>
      </trkpt>
      <trkpt lat="44.5784" lon="0.85902">
        <ele>177</ele>
        <time>2018-03-03T16:10:35.511Z</time>
      </trkpt>
      <trkpt lat="44.57838" lon="0.85901">
        <ele>177</ele>
        <time>2018-03-03T16:10:36.511Z</time>
      </trkpt>
      <trkpt lat="44.57837" lon="0.859">
        <ele>177</ele>
        <time>2018-03-03T16:10:37.511Z</time>
      </trkpt>
      <trkpt lat="44.57835" lon="0.85899">
        <ele>177</ele>
        <time>2018-03-03T16:10:38.511Z</time>
      </trkpt>
      <trkpt lat="44.57833" lon="0.85897">
        <ele>177</ele>
        <time>2018-03-03T16:10:39.511Z</time>
      </trkpt>
      <trkpt lat="44.57831" lon="0.85895">
        <ele>177</ele>
        <time>2018-03-03T16:10:40.511Z</time>
      </trkpt>
      <trkpt lat="44.57829" lon="0.85892">
        <ele>177</ele>
        <time>2018-03-03T16:10:41.511Z</time>
      </trkpt>
      <trkpt lat="44.57826" lon="0.85889">
        <ele>176</ele>
        <time>2018-03-03T16:10:42.511Z</time>
      </trkpt>
      <trkpt lat="44.57824" lon="0.85885">
        <ele>176</ele>
        <time>2018-03-03T16:10:43.511Z</time>
      </trkpt>
      <trkpt lat="44.57821" lon="0.85882">
        <ele>175</ele>
        <time>2018-03-03T16:10:44.511Z</time>
      </trkpt>
      <trkpt lat="44.57818" lon="0.85877">
        <ele>175</ele>
        <time>2018-03-03T16:10:45.511Z</time>
      </trkpt>
      <trkpt lat="44.57815" lon="0.85873">
        <ele>175</ele>
        <time>2018-03-03T16:10:46.511Z</time>
      </trkpt>
      <trkpt lat="44.57811" lon="0.85868">
        <ele>174</ele>
        <time>2018-03-03T16:10:47.511Z</time>
      </trkpt>
      <trkpt lat="44.57808" lon="0.85863">
        <ele>174</ele>
        <time>2018-03-03T16:10:48.511Z</time>
      </trkpt>
      <trkpt lat="44.57805" lon="0.85858">
        <ele>174</ele>
        <time>2018-03-03T16:10:49.511Z</time>
      </trkpt>
      <trkpt lat="44.57803" lon="0.85853">
        <ele>174</ele>
        <time>2018-03-03T16:10:50.511Z</time>
      </trkpt>
      <trkpt lat="44.57801" lon="0.85847">
        <ele>173</ele>
        <time>2018-03-03T16:10:51.511Z</time>
      </trkpt>
      <trkpt lat="44.57799" lon="0.85842">
        <ele>173</ele>
        <time>2018-03-03T16:10:52.511Z</time>
      </trkpt>
      <trkpt lat="44.57796" lon="0.85836">
        <ele>173</ele>
        <time>2018-03-03T16:10:53.511Z</time>
      </trkpt>
      <trkpt lat="44.57794" lon="0.85831">
        <ele>172</ele>
        <time>2018-03-03T16:10:54.511Z</time>
      </trkpt>
      <trkpt lat="44.57791" lon="0.85826">
        <ele>172</ele>
        <time>2018-03-03T16:10:55.511Z</time>
      </trkpt>
      <trkpt lat="44.57788" lon="0.85821">
        <ele>172</ele>
        <time>2018-03-03T16:10:56.511Z</time>
      </trkpt>
      <trkpt lat="44.57786" lon="0.85816">
        <ele>172</ele>
        <time>2018-03-03T16:10:57.511Z</time>
      </trkpt>
      <trkpt lat="44.57783" lon="0.85811">
        <ele>172</ele>
        <time>2018-03-03T16:10:58.511Z</time>
      </trkpt>
      <trkpt lat="44.57781" lon="0.85806">
        <ele>171</ele>
        <time>2018-03-03T16:10:59.511Z</time>
      </trkpt>
      <trkpt lat="44.57778" lon="0.858">
        <ele>171</ele>
        <time>2018-03-03T16:11:00.511Z</time>
      </trkpt>
      <trkpt lat="44.57776" lon="0.85795">
        <ele>171</ele>
        <time>2018-03-03T16:11:01.511Z</time>
      </trkpt>
      <trkpt lat="44.57774" lon="0.85789">
        <ele>171</ele>
        <time>2018-03-03T16:11:02.511Z</time>
      </trkpt>
      <trkpt lat="44.57772" lon="0.85783">
        <ele>170</ele>
        <time>2018-03-03T16:11:03.511Z</time>
      </trkpt>
      <trkpt lat="44.5777" lon="0.85778">
        <ele>170</ele>
        <time>2018-03-03T16:11:04.511Z</time>
      </trkpt>
      <trkpt lat="44.57768" lon="0.85773">
        <ele>170</ele>
        <time>2018-03-03T16:11:05.511Z</time>
      </trkpt>
      <trkpt lat="44.57766" lon="0.85767">
        <ele>170</ele>
        <time>2018-03-03T16:11:06.511Z</time>
      </trkpt>
      <trkpt lat="44.57764" lon="0.85762">
        <ele>170</ele>
        <time>2018-03-03T16:11:07.511Z</time>
      </trkpt>
      <trkpt lat="44.57762" lon="0.85757">
        <ele>170</ele>
        <time>2018-03-03T16:11:08.511Z</time>
      </trkpt>
      <trkpt lat="44.5776" lon="0.85752">
        <ele>170</ele>
        <time>2018-03-03T16:11:09.511Z</time>
      </trkpt>
      <trkpt lat="44.57758" lon="0.85747">
        <ele>169</ele>
        <time>2018-03-03T16:11:10.511Z</time>
      </trkpt>
      <trkpt lat="44.57756" lon="0.85741">
        <ele>169</ele>
        <time>2018-03-03T16:11:11.511Z</time>
      </trkpt>
      <trkpt lat="44.57755" lon="0.85736">
        <ele>169</ele>
        <time>2018-03-03T16:11:12.511Z</time>
      </trkpt>
      <trkpt lat="44.57753" lon="0.8573">
        <ele>169</ele>
        <time>2018-03-03T16:11:13.511Z</time>
      </trkpt>
      <trkpt lat="44.57751" lon="0.85725">
        <ele>169</ele>
        <time>2018-03-03T16:11:14.511Z</time>
      </trkpt>
      <trkpt lat="44.5775" lon="0.85719">
        <ele>169</ele>
        <time>2018-03-03T16:11:15.511Z</time>
      </trkpt>
      <trkpt lat="44.57748" lon="0.85714">
        <ele>169</ele>
        <time>2018-03-03T16:11:16.511Z</time>
      </trkpt>
      <trkpt lat="44.57746" lon="0.85709">
        <ele>169</ele>
        <time>2018-03-03T16:11:17.511Z</time>
      </trkpt>
      <trkpt lat="44.57744" lon="0.85703">
        <ele>169</ele>
        <time>2018-03-03T16:11:18.511Z</time>
      </trkpt>
      <trkpt lat="44.57742" lon="0.85698">
        <ele>169</ele>
        <time>2018-03-03T16:11:19.511Z</time>
      </trkpt>
      <trkpt lat="44.5774" lon="0.85693">
        <ele>169</ele>
        <time>2018-03-03T16:11:20.511Z</time>
      </trkpt>
      <trkpt lat="44.57738" lon="0.85688">
        <ele>169</ele>
        <time>2018-03-03T16:11:21.511Z</time>
      </trkpt>
      <trkpt lat="44.57736" lon="0.85683">
        <ele>169</ele>
        <time>2018-03-03T16:11:22.511Z</time>
      </trkpt>
      <trkpt lat="44.57735" lon="0.85677">
        <ele>169</ele>
        <time>2018-03-03T16:11:23.511Z</time>
      </trkpt>
      <trkpt lat="44.57733" lon="0.85671">
        <ele>169</ele>
        <time>2018-03-03T16:11:24.511Z</time>
      </trkpt>
      <trkpt lat="44.57731" lon="0.85666">
        <ele>169</ele>
        <time>2018-03-03T16:11:25.511Z</time>
      </trkpt>
      <trkpt lat="44.5773" lon="0.8566">
        <ele>169</ele>
        <time>2018-03-03T16:11:26.511Z</time>
      </trkpt>
      <trkpt lat="44.57729" lon="0.85655">
        <ele>169</ele>
        <time>2018-03-03T16:11:27.511Z</time>
      </trkpt>
      <trkpt lat="44.57727" lon="0.85651">
        <ele>169</ele>
        <time>2018-03-03T16:11:28.511Z</time>
      </trkpt>
      <trkpt lat="44.57726" lon="0.85646">
        <ele>169</ele>
        <time>2018-03-03T16:11:29.511Z</time>
      </trkpt>
      <trkpt lat="44.57725" lon="0.85642">
        <ele>169</ele>
        <time>2018-03-03T16:11:30.511Z</time>
      </trkpt>
      <trkpt lat="44.57724" lon="0.85636">
        <ele>169</ele>
        <time>2018-03-03T16:11:31.511Z</time>
      </trkpt>
      <trkpt lat="44.57723" lon="0.8563">
        <ele>169</ele>
        <time>2018-03-03T16:11:32.511Z</time>
      </trkpt>
      <trkpt lat="44.57723" lon="0.85624">
        <ele>169</ele>
        <time>2018-03-03T16:11:33.511Z</time>
      </trkpt>
      <trkpt lat="44.57722" lon="0.85617">
        <ele>170</ele>
        <time>2018-03-03T16:11:34.511Z</time>
      </trkpt>
      <trkpt lat="44.57721" lon="0.85612">
        <ele>170</ele>
        <time>2018-03-03T16:11:35.511Z</time>
      </trkpt>
      <trkpt lat="44.57719" lon="0.85607">
        <ele>170</ele>
        <time>2018-03-03T16:11:36.511Z</time>
      </trkpt>
      <trkpt lat="44.57718" lon="0.85602">
        <ele>170</ele>
        <time>2018-03-03T16:11:37.511Z</time>
      </trkpt>
      <trkpt lat="44.57716" lon="0.85598">
        <ele>170</ele>
        <time>2018-03-03T16:11:38.511Z</time>
      </trkpt>
      <trkpt lat="44.57714" lon="0.85594">
        <ele>170</ele>
        <time>2018-03-03T16:11:39.511Z</time>
      </trkpt>
      <trkpt lat="44.57713" lon="0.85589">
        <ele>170</ele>
        <time>2018-03-03T16:11:40.511Z</time>
      </trkpt>
      <trkpt lat="44.57711" lon="0.85583">
        <ele>170</ele>
        <time>2018-03-03T16:11:41.511Z</time>
      </trkpt>
      <trkpt lat="44.5771" lon="0.85577">
        <ele>170</ele>
        <time>2018-03-03T16:11:42.511Z</time>
      </trkpt>
      <trkpt lat="44.57709" lon="0.8557">
        <ele>170</ele>
        <time>2018-03-03T16:11:43.511Z</time>
      </trkpt>
      <trkpt lat="44.5771" lon="0.85563">
        <ele>170</ele>
        <time>2018-03-03T16:11:44.511Z</time>
      </trkpt>
      <trkpt lat="44.5771" lon="0.85557">
        <ele>170</ele>
        <time>2018-03-03T16:11:45.511Z</time>
      </trkpt>
      <trkpt lat="44.57712" lon="0.85552">
        <ele>170</ele>
        <time>2018-03-03T16:11:46.511Z</time>
      </trkpt>
      <trkpt lat="44.57713" lon="0.85547">
        <ele>170</ele>
        <time>2018-03-03T16:11:47.511Z</time>
      </trkpt>
      <trkpt lat="44.57714" lon="0.85542">
        <ele>170</ele>
        <time>2018-03-03T16:11:48.511Z</time>
      </trkpt>
      <trkpt lat="44.57715" lon="0.85539">
        <ele>170</ele>
        <time>2018-03-03T16:11:49.511Z</time>
      </trkpt>
      <trkpt lat="44.57716" lon="0.85535">
        <ele>170</ele>
        <time>2018-03-03T16:11:50.511Z</time>
      </trkpt>
      <trkpt lat="44.57716" lon="0.85532">
        <ele>171</ele>
        <time>2018-03-03T16:11:51.511Z</time>
      </trkpt>
      <trkpt lat="44.57717" lon="0.85529">
        <ele>171</ele>
        <time>2018-03-03T16:11:52.511Z</time>
      </trkpt>
      <trkpt lat="44.57718" lon="0.85526">
        <ele>171</ele>
        <time>2018-03-03T16:11:53.511Z</time>
      </trkpt>
      <trkpt lat="44.57719" lon="0.85522">
        <ele>171</ele>
        <time>2018-03-03T16:11:54.511Z</time>
      </trkpt>
      <trkpt lat="44.57721" lon="0.85518">
        <ele>171</ele>
        <time>2018-03-03T16:11:55.511Z</time>
      </trkpt>
      <trkpt lat="44.57722" lon="0.85514">
        <ele>171</ele>
        <time>2018-03-03T16:11:56.511Z</time>
      </trkpt>
      <trkpt lat="44.57723" lon="0.8551">
        <ele>171</ele>
        <time>2018-03-03T16:11:57.511Z</time>
      </trkpt>
      <trkpt lat="44.57723" lon="0.85506">
        <ele>171</ele>
        <time>2018-03-03T16:11:58.511Z</time>
      </trkpt>
      <trkpt lat="44.57723" lon="0.85503">
        <ele>171</ele>
        <time>2018-03-03T16:11:59.511Z</time>
      </trkpt>
      <trkpt lat="44.57722" lon="0.855">
        <ele>171</ele>
        <time>2018-03-03T16:12:00.511Z</time>
      </trkpt>
      <trkpt lat="44.5772" lon="0.85497">
        <ele>172</ele>
        <time>2018-03-03T16:12:01.511Z</time>
      </trkpt>
      <trkpt lat="44.57719" lon="0.85493">
        <ele>172</ele>
        <time>2018-03-03T16:12:02.511Z</time>
      </trkpt>
      <trkpt lat="44.57719" lon="0.85489">
        <ele>172</ele>
        <time>2018-03-03T16:12:03.511Z</time>
      </trkpt>
      <trkpt lat="44.57718" lon="0.85485">
        <ele>172</ele>
        <time>2018-03-03T16:12:04.511Z</time>
      </trkpt>
      <trkpt lat="44.57717" lon="0.8548">
        <ele>172</ele>
        <time>2018-03-03T16:12:05.511Z</time>
      </trkpt>
      <trkpt lat="44.57715" lon="0.85476">
        <ele>172</ele>
        <time>2018-03-03T16:12:06.511Z</time>
      </trkpt>
      <trkpt lat="44.57713" lon="0.85472">
        <ele>172</ele>
        <time>2018-03-03T16:12:07.511Z</time>
      </trkpt>
      <trkpt lat="44.57711" lon="0.85469">
        <ele>172</ele>
        <time>2018-03-03T16:12:08.511Z</time>
      </trkpt>
      <trkpt lat="44.57709" lon="0.85466">
        <ele>172</ele>
        <time>2018-03-03T16:12:09.511Z</time>
      </trkpt>
      <trkpt lat="44.57706" lon="0.85463">
        <ele>172</ele>
        <time>2018-03-03T16:12:10.511Z</time>
      </trkpt>
      <trkpt lat="44.57704" lon="0.85459">
        <ele>172</ele>
        <time>2018-03-03T16:12:11.511Z</time>
      </trkpt>
      <trkpt lat="44.57702" lon="0.85456">
        <ele>173</ele>
        <time>2018-03-03T16:12:12.511Z</time>
      </trkpt>
      <trkpt lat="44.57699" lon="0.85454">
        <ele>173</ele>
        <time>2018-03-03T16:12:13.511Z</time>
      </trkpt>
      <trkpt lat="44.57697" lon="0.85452">
        <ele>173</ele>
        <time>2018-03-03T16:12:14.511Z</time>
      </trkpt>
      <trkpt lat="44.57693" lon="0.85451">
        <ele>173</ele>
        <time>2018-03-03T16:12:15.511Z</time>
      </trkpt>
      <trkpt lat="44.5769" lon="0.85451">
        <ele>173</ele>
        <time>2018-03-03T16:12:16.511Z</time>
      </trkpt>
      <trkpt lat="44.57687" lon="0.8545">
        <ele>173</ele>
        <time>2018-03-03T16:12:17.511Z</time>
      </trkpt>
      <trkpt lat="44.57684" lon="0.8545">
        <ele>174</ele>
        <time>2018-03-03T16:12:18.511Z</time>
      </trkpt>
      <trkpt lat="44.57682" lon="0.85449">
        <ele>174</ele>
        <time>2018-03-03T16:12:19.511Z</time>
      </trkpt>
      <trkpt lat="44.57679" lon="0.85448">
        <ele>174</ele>
        <time>2018-03-03T16:12:20.511Z</time>
      </trkpt>
      <trkpt lat="44.57677" lon="0.85447">
        <ele>174</ele>
        <time>2018-03-03T16:12:21.511Z</time>
      </trkpt>
      <trkpt lat="44.57675" lon="0.85445">
        <ele>174</ele>
        <time>2018-03-03T16:12:22.511Z</time>
      </trkpt>
      <trkpt lat="44.57673" lon="0.85443">
        <ele>175</ele>
        <time>2018-03-03T16:12:23.511Z</time>
      </trkpt>
      <trkpt lat="44.57672" lon="0.85442">
        <ele>175</ele>
        <time>2018-03-03T16:12:24.511Z</time>
      </trkpt>
      <trkpt lat="44.5767" lon="0.8544">
        <ele>175</ele>
        <time>2018-03-03T16:12:25.511Z</time>
      </trkpt>
      <trkpt lat="44.57669" lon="0.85438">
        <ele>175</ele>
        <time>2018-03-03T16:12:26.511Z</time>
      </trkpt>
      <trkpt lat="44.57668" lon="0.85437">
        <ele>175</ele>
        <time>2018-03-03T16:12:27.511Z</time>
      </trkpt>
      <trkpt lat="44.57666" lon="0.85435">
        <ele>175</ele>
        <time>2018-03-03T16:12:28.511Z</time>
      </trkpt>
      <trkpt lat="44.57665" lon="0.85433">
        <ele>176</ele>
        <time>2018-03-03T16:12:29.511Z</time>
      </trkpt>
      <trkpt lat="44.57664" lon="0.85431">
        <ele>176</ele>
        <time>2018-03-03T16:12:30.511Z</time>
      </trkpt>
      <trkpt lat="44.57663" lon="0.8543">
        <ele>176</ele>
        <time>2018-03-03T16:12:31.511Z</time>
      </trkpt>
      <trkpt lat="44.57661" lon="0.85428">
        <ele>176</ele>
        <time>2018-03-03T16:12:32.511Z</time>
      </trkpt>
      <trkpt lat="44.5766" lon="0.85426">
        <ele>176</ele>
        <time>2018-03-03T16:12:33.511Z</time>
      </trkpt>
      <trkpt lat="44.57659" lon="0.85425">
        <ele>177</ele>
        <time>2018-03-03T16:12:34.511Z</time>
      </trkpt>
      <trkpt lat="44.57657" lon="0.85423">
        <ele>177</ele>
        <time>2018-03-03T16:12:35.511Z</time>
      </trkpt>
      <trkpt lat="44.57656" lon="0.85422">
        <ele>177</ele>
        <time>2018-03-03T16:12:36.511Z</time>
      </trkpt>
      <trkpt lat="44.57654" lon="0.8542">
        <ele>177</ele>
        <time>2018-03-03T16:12:37.511Z</time>
      </trkpt>
      <trkpt lat="44.57653" lon="0.85419">
        <ele>177</ele>
        <time>2018-03-03T16:12:38.511Z</time>
      </trkpt>
      <trkpt lat="44.57651" lon="0.85418">
        <ele>177</ele>
        <time>2018-03-03T16:12:39.511Z</time>
      </trkpt>
      <trkpt lat="44.5765" lon="0.85418">
        <ele>178</ele>
        <time>2018-03-03T16:12:40.511Z</time>
      </trkpt>
      <trkpt lat="44.57649" lon="0.85418">
        <ele>178</ele>
        <time>2018-03-03T16:12:41.511Z</time>
      </trkpt>
      <trkpt lat="44.57647" lon="0.85418">
        <ele>178</ele>
        <time>2018-03-03T16:12:42.511Z</time>
      </trkpt>
      <trkpt lat="44.57646" lon="0.85419">
        <ele>178</ele>
        <time>2018-03-03T16:12:43.511Z</time>
      </trkpt>
      <trkpt lat="44.57645" lon="0.85421">
        <ele>178</ele>
        <time>2018-03-03T16:12:44.511Z</time>
      </trkpt>
      <trkpt lat="44.57644" lon="0.85422">
        <ele>179</ele>
        <time>2018-03-03T16:12:45.511Z</time>
      </trkpt>
      <trkpt lat="44.57643" lon="0.85424">
        <ele>179</ele>
        <time>2018-03-03T16:12:46.511Z</time>
      </trkpt>
      <trkpt lat="44.57642" lon="0.85427">
        <ele>179</ele>
        <time>2018-03-03T16:12:47.511Z</time>
      </trkpt>
      <trkpt lat="44.57642" lon="0.85429">
        <ele>179</ele>
        <time>2018-03-03T16:12:48.511Z</time>
      </trkpt>
      <trkpt lat="44.57641" lon="0.85432">
        <ele>179</ele>
        <time>2018-03-03T16:12:49.511Z</time>
      </trkpt>
      <trkpt lat="44.5764" lon="0.85434">
        <ele>179</ele>
        <time>2018-03-03T16:12:50.511Z</time>
      </trkpt>
      <trkpt lat="44.57639" lon="0.85436">
        <ele>179</ele>
        <time>2018-03-03T16:12:51.511Z</time>
      </trkpt>
      <trkpt lat="44.57638" lon="0.85439">
        <ele>179</ele>
        <time>2018-03-03T16:12:52.511Z</time>
      </trkpt>
      <trkpt lat="44.57637" lon="0.85441">
        <ele>179</ele>
        <time>2018-03-03T16:12:53.511Z</time>
      </trkpt>
      <trkpt lat="44.57636" lon="0.85443">
        <ele>179</ele>
        <time>2018-03-03T16:12:54.511Z</time>
      </trkpt>
      <trkpt lat="44.57635" lon="0.85445">
        <ele>179</ele>
        <time>2018-03-03T16:12:55.511Z</time>
      </trkpt>
      <trkpt lat="44.57634" lon="0.85447">
        <ele>179</ele>
        <time>2018-03-03T16:12:56.511Z</time>
      </trkpt>
      <trkpt lat="44.57633" lon="0.85449">
        <ele>179</ele>
        <time>2018-03-03T16:12:57.511Z</time>
      </trkpt>
      <trkpt lat="44.57632" lon="0.85451">
        <ele>179</ele>
        <time>2018-03-03T16:12:58.511Z</time>
      </trkpt>
      <trkpt lat="44.57631" lon="0.85453">
        <ele>179</ele>
        <time>2018-03-03T16:12:59.511Z</time>
      </trkpt>
      <trkpt lat="44.5763" lon="0.85455">
        <ele>179</ele>
        <time>2018-03-03T16:13:00.511Z</time>
      </trkpt>
      <trkpt lat="44.57629" lon="0.85457">
        <ele>179</ele>
        <time>2018-03-03T16:13:01.511Z</time>
      </trkpt>
      <trkpt lat="44.57628" lon="0.85459">
        <ele>179</ele>
        <time>2018-03-03T16:13:02.511Z</time>
      </trkpt>
      <trkpt lat="44.57627" lon="0.85461">
        <ele>179</ele>
        <time>2018-03-03T16:13:03.511Z</time>
      </trkpt>
      <trkpt lat="44.57626" lon="0.85463">
        <ele>179</ele>
        <time>2018-03-03T16:13:04.511Z</time>
      </trkpt>
      <trkpt lat="44.57625" lon="0.85465">
        <ele>180</ele>
        <time>2018-03-03T16:13:05.511Z</time>
      </trkpt>
      <trkpt lat="44.57624" lon="0.85467">
        <ele>180</ele>
        <time>2018-03-03T16:13:06.511Z</time>
      </trkpt>
      <trkpt lat="44.57623" lon="0.85467">
        <ele>180</ele>
        <time>2018-03-03T16:13:07.511Z</time>
      </trkpt>
      <trkpt lat="44.57622" lon="0.85467">
        <ele>180</ele>
        <time>2018-03-03T16:13:08.511Z</time>
      </trkpt>
      <trkpt lat="44.57621" lon="0.85467">
        <ele>180</ele>
        <time>2018-03-03T16:13:09.511Z</time>
      </trkpt>
      <trkpt lat="44.57621" lon="0.85467">
        <ele>180</ele>
        <time>2018-03-03T16:13:10.511Z</time>
      </trkpt>
      <trkpt lat="44.57621" lon="0.85467">
        <ele>180</ele>
        <time>2018-03-03T16:13:11.511Z</time>
      </trkpt>
      <trkpt lat="44.5762" lon="0.85467">
        <ele>180</ele>
        <time>2018-03-03T16:13:12.511Z</time>
      </trkpt>
      <trkpt lat="44.57619" lon="0.85467">
        <ele>180</ele>
        <time>2018-03-03T16:13:13.511Z</time>
      </trkpt>
      <trkpt lat="44.57617" lon="0.85467">
        <ele>180</ele>
        <time>2018-03-03T16:13:14.511Z</time>
      </trkpt>
      <trkpt lat="44.57616" lon="0.85466">
        <ele>180</ele>
        <time>2018-03-03T16:13:15.511Z</time>
      </trkpt>
      <trkpt lat="44.57614" lon="0.85465">
        <ele>180</ele>
        <time>2018-03-03T16:13:16.511Z</time>
      </trkpt>
      <trkpt lat="44.57613" lon="0.85465">
        <ele>180</ele>
        <time>2018-03-03T16:13:17.511Z</time>
      </trkpt>
      <trkpt lat="44.57611" lon="0.85463">
        <ele>181</ele>
        <time>2018-03-03T16:13:18.511Z</time>
      </trkpt>
      <trkpt lat="44.57609" lon="0.85462">
        <ele>181</ele>
        <time>2018-03-03T16:13:19.511Z</time>
      </trkpt>
      <trkpt lat="44.57608" lon="0.85461">
        <ele>181</ele>
        <time>2018-03-03T16:13:20.511Z</time>
      </trkpt>
      <trkpt lat="44.57606" lon="0.8546">
        <ele>181</ele>
        <time>2018-03-03T16:13:21.511Z</time>
      </trkpt>
      <trkpt lat="44.57604" lon="0.85458">
        <ele>181</ele>
        <time>2018-03-03T16:13:22.511Z</time>
      </trkpt>
      <trkpt lat="44.57602" lon="0.85457">
        <ele>181</ele>
        <time>2018-03-03T16:13:23.511Z</time>
      </trkpt>
      <trkpt lat="44.57599" lon="0.85455">
        <ele>181</ele>
        <time>2018-03-03T16:13:24.511Z</time>
      </trkpt>
      <trkpt lat="44.57597" lon="0.85453">
        <ele>181</ele>
        <time>2018-03-03T16:13:25.511Z</time>
      </trkpt>
      <trkpt lat="44.57594" lon="0.85451">
        <ele>180</ele>
        <time>2018-03-03T16:13:26.511Z</time>
      </trkpt>
      <trkpt lat="44.57591" lon="0.85449">
        <ele>180</ele>
        <time>2018-03-03T16:13:27.511Z</time>
      </trkpt>
      <trkpt lat="44.57588" lon="0.85446">
        <ele>180</ele>
        <time>2018-03-03T16:13:28.511Z</time>
      </trkpt>
      <trkpt lat="44.57585" lon="0.85443">
        <ele>180</ele>
        <time>2018-03-03T16:13:29.511Z</time>
      </trkpt>
      <trkpt lat="44.57581" lon="0.8544">
        <ele>180</ele>
        <time>2018-03-03T16:13:30.511Z</time>
      </trkpt>
      <trkpt lat="44.57577" lon="0.85437">
        <ele>179</ele>
        <time>2018-03-03T16:13:31.511Z</time>
      </trkpt>
      <trkpt lat="44.57572" lon="0.85433">
        <ele>179</ele>
        <time>2018-03-03T16:13:32.511Z</time>
      </trkpt>
      <trkpt lat="44.57567" lon="0.85429">
        <ele>179</ele>
        <time>2018-03-03T16:13:33.511Z</time>
      </trkpt>
      <trkpt lat="44.57561" lon="0.85424">
        <ele>178</ele>
        <time>2018-03-03T16:13:34.511Z</time>
      </trkpt>
      <trkpt lat="44.57554" lon="0.8542">
        <ele>178</ele>
        <time>2018-03-03T16:13:35.511Z</time>
      </trkpt>
      <trkpt lat="44.57547" lon="0.85415">
        <ele>177</ele>
        <time>2018-03-03T16:13:36.511Z</time>
      </trkpt>
      <trkpt lat="44.57539" lon="0.8541">
        <ele>176</ele>
        <time>2018-03-03T16:13:37.511Z</time>
      </trkpt>
      <trkpt lat="44.57531" lon="0.85406">
        <ele>175</ele>
        <time>2018-03-03T16:13:38.511Z</time>
      </trkpt>
      <trkpt lat="44.57524" lon="0.85401">
        <ele>175</ele>
        <time>2018-03-03T16:13:39.511Z</time>
      </trkpt>
      <trkpt lat="44.57517" lon="0.85395">
        <ele>174</ele>
        <time>2018-03-03T16:13:40.511Z</time>
      </trkpt>
      <trkpt lat="44.5751" lon="0.85388">
        <ele>174</ele>
        <time>2018-03-03T16:13:41.511Z</time>
      </trkpt>
      <trkpt lat="44.57505" lon="0.85381">
        <ele>174</ele>
        <time>2018-03-03T16:13:42.511Z</time>
      </trkpt>
      <trkpt lat="44.575" lon="0.85374">
        <ele>173</ele>
        <time>2018-03-03T16:13:43.511Z</time>
      </trkpt>
      <trkpt lat="44.57495" lon="0.85368">
        <ele>173</ele>
        <time>2018-03-03T16:13:44.511Z</time>
      </trkpt>
      <trkpt lat="44.5749" lon="0.85362">
        <ele>173</ele>
        <time>2018-03-03T16:13:45.511Z</time>
      </trkpt>
      <trkpt lat="44.57486" lon="0.85356">
        <ele>173</ele>
        <time>2018-03-03T16:13:46.511Z</time>
      </trkpt>
      <trkpt lat="44.5748" lon="0.85351">
        <ele>173</ele>
        <time>2018-03-03T16:13:47.511Z</time>
      </trkpt>
      <trkpt lat="44.57475" lon="0.85346">
        <ele>173</ele>
        <time>2018-03-03T16:13:48.511Z</time>
      </trkpt>
      <trkpt lat="44.57469" lon="0.85341">
        <ele>174</ele>
        <time>2018-03-03T16:13:49.511Z</time>
      </trkpt>
      <trkpt lat="44.57462" lon="0.85337">
        <ele>174</ele>
        <time>2018-03-03T16:13:50.511Z</time>
      </trkpt>
      <trkpt lat="44.57456" lon="0.85333">
        <ele>174</ele>
        <time>2018-03-03T16:13:51.511Z</time>
      </trkpt>
      <trkpt lat="44.5745" lon="0.85329">
        <ele>174</ele>
        <time>2018-03-03T16:13:52.511Z</time>
      </trkpt>
      <trkpt lat="44.57445" lon="0.85325">
        <ele>174</ele>
        <time>2018-03-03T16:13:53.511Z</time>
      </trkpt>
      <trkpt lat="44.5744" lon="0.85321">
        <ele>174</ele>
        <time>2018-03-03T16:13:54.511Z</time>
      </trkpt>
      <trkpt lat="44.57435" lon="0.85318">
        <ele>174</ele>
        <time>2018-03-03T16:13:55.511Z</time>
      </trkpt>
      <trkpt lat="44.57431" lon="0.85315">
        <ele>174</ele>
        <time>2018-03-03T16:13:56.511Z</time>
      </trkpt>
      <trkpt lat="44.57427" lon="0.85312">
        <ele>174</ele>
        <time>2018-03-03T16:13:57.511Z</time>
      </trkpt>
      <trkpt lat="44.57423" lon="0.8531">
        <ele>174</ele>
        <time>2018-03-03T16:13:58.511Z</time>
      </trkpt>
      <trkpt lat="44.57419" lon="0.85308">
        <ele>175</ele>
        <time>2018-03-03T16:13:59.511Z</time>
      </trkpt>
      <trkpt lat="44.57416" lon="0.85307">
        <ele>175</ele>
        <time>2018-03-03T16:14:00.511Z</time>
      </trkpt>
      <trkpt lat="44.57413" lon="0.85307">
        <ele>175</ele>
        <time>2018-03-03T16:14:01.511Z</time>
      </trkpt>
      <trkpt lat="44.5741" lon="0.85308">
        <ele>175</ele>
        <time>2018-03-03T16:14:02.511Z</time>
      </trkpt>
      <trkpt lat="44.57408" lon="0.85311">
        <ele>175</ele>
        <time>2018-03-03T16:14:03.511Z</time>
      </trkpt>
      <trkpt lat="44.57405" lon="0.85313">
        <ele>175</ele>
        <time>2018-03-03T16:14:04.511Z</time>
      </trkpt>
      <trkpt lat="44.57403" lon="0.85317">
        <ele>175</ele>
        <time>2018-03-03T16:14:05.511Z</time>
      </trkpt>
      <trkpt lat="44.57401" lon="0.8532">
        <ele>176</ele>
        <time>2018-03-03T16:14:06.511Z</time>
      </trkpt>
      <trkpt lat="44.57398" lon="0.85324">
        <ele>176</ele>
        <time>2018-03-03T16:14:07.511Z</time>
      </trkpt>
      <trkpt lat="44.57396" lon="0.85328">
        <ele>176</ele>
        <time>2018-03-03T16:14:08.511Z</time>
      </trkpt>
      <trkpt lat="44.57393" lon="0.85331">
        <ele>175</ele>
        <time>2018-03-03T16:14:09.511Z</time>
      </trkpt>
      <trkpt lat="44.5739" lon="0.85335">
        <ele>175</ele>
        <time>2018-03-03T16:14:10.511Z</time>
      </trkpt>
      <trkpt lat="44.57386" lon="0.85338">
        <ele>175</ele>
        <time>2018-03-03T16:14:11.511Z</time>
      </trkpt>
      <trkpt lat="44.57382" lon="0.85341">
        <ele>175</ele>
        <time>2018-03-03T16:14:12.511Z</time>
      </trkpt>
      <trkpt lat="44.57379" lon="0.85345">
        <ele>175</ele>
        <time>2018-03-03T16:14:13.511Z</time>
      </trkpt>
      <trkpt lat="44.57374" lon="0.85348">
        <ele>175</ele>
        <time>2018-03-03T16:14:14.511Z</time>
      </trkpt>
      <trkpt lat="44.5737" lon="0.85352">
        <ele>174</ele>
        <time>2018-03-03T16:14:15.511Z</time>
      </trkpt>
      <trkpt lat="44.57366" lon="0.85357">
        <ele>174</ele>
        <time>2018-03-03T16:14:16.511Z</time>
      </trkpt>
      <trkpt lat="44.57362" lon="0.85362">
        <ele>174</ele>
        <time>2018-03-03T16:14:17.511Z</time>
      </trkpt>
      <trkpt lat="44.57358" lon="0.85367">
        <ele>173</ele>
        <time>2018-03-03T16:14:18.511Z</time>
      </trkpt>
      <trkpt lat="44.57354" lon="0.85373">
        <ele>173</ele>
        <time>2018-03-03T16:14:19.511Z</time>
      </trkpt>
      <trkpt lat="44.57351" lon="0.85379">
        <ele>173</ele>
        <time>2018-03-03T16:14:20.511Z</time>
      </trkpt>
      <trkpt lat="44.57349" lon="0.85385">
        <ele>172</ele>
        <time>2018-03-03T16:14:21.511Z</time>
      </trkpt>
      <trkpt lat="44.57348" lon="0.8539">
        <ele>172</ele>
        <time>2018-03-03T16:14:22.511Z</time>
      </trkpt>
      <trkpt lat="44.57349" lon="0.85395">
        <ele>172</ele>
        <time>2018-03-03T16:14:23.511Z</time>
      </trkpt>
      <trkpt lat="44.5735" lon="0.85399">
        <ele>172</ele>
        <time>2018-03-03T16:14:24.511Z</time>
      </trkpt>
      <trkpt lat="44.57353" lon="0.85404">
        <ele>173</ele>
        <time>2018-03-03T16:14:25.511Z</time>
      </trkpt>
      <trkpt lat="44.57356" lon="0.8541">
        <ele>173</ele>
        <time>2018-03-03T16:14:26.511Z</time>
      </trkpt>
      <trkpt lat="44.57359" lon="0.85415">
        <ele>173</ele>
        <time>2018-03-03T16:14:27.511Z</time>
      </trkpt>
      <trkpt lat="44.57361" lon="0.8542">
        <ele>173</ele>
        <time>2018-03-03T16:14:28.511Z</time>
      </trkpt>
      <trkpt lat="44.57361" lon="0.85424">
        <ele>173</ele>
        <time>2018-03-03T16:14:29.511Z</time>
      </trkpt>
      <trkpt lat="44.57362" lon="0.85428">
        <ele>173</ele>
        <time>2018-03-03T16:14:30.511Z</time>
      </trkpt>
      <trkpt lat="44.57363" lon="0.85432">
        <ele>174</ele>
        <time>2018-03-03T16:14:31.511Z</time>
      </trkpt>
      <trkpt lat="44.57365" lon="0.85435">
        <ele>174</ele>
        <time>2018-03-03T16:14:32.511Z</time>
      </trkpt>
      <trkpt lat="44.57368" lon="0.85437">
        <ele>174</ele>
        <time>2018-03-03T16:14:33.511Z</time>
      </trkpt>
      <trkpt lat="44.57371" lon="0.85439">
        <ele>174</ele>
        <time>2018-03-03T16:14:34.511Z</time>
      </trkpt>
      <trkpt lat="44.57374" lon="0.8544">
        <ele>174</ele>
        <time>2018-03-03T16:14:35.511Z</time>
      </trkpt>
      <trkpt lat="44.57377" lon="0.85441">
        <ele>175</ele>
        <time>2018-03-03T16:14:36.511Z</time>
      </trkpt>
      <trkpt lat="44.57379" lon="0.85441">
        <ele>175</ele>
        <time>2018-03-03T16:14:37.511Z</time>
      </trkpt>
      <trkpt lat="44.57381" lon="0.85442">
        <ele>175</ele>
        <time>2018-03-03T16:14:38.511Z</time>
      </trkpt>
      <trkpt lat="44.57383" lon="0.85442">
        <ele>176</ele>
        <time>2018-03-03T16:14:39.511Z</time>
      </trkpt>
      <trkpt lat="44.57383" lon="0.85442">
        <ele>176</ele>
        <time>2018-03-03T16:14:40.511Z</time>
      </trkpt>
      <trkpt lat="44.57384" lon="0.85442">
        <ele>176</ele>
        <time>2018-03-03T16:14:41.511Z</time>
      </trkpt>
      <trkpt lat="44.57384" lon="0.85442">
        <ele>176</ele>
        <time>2018-03-03T16:14:42.511Z</time>
      </trkpt>
      <trkpt lat="44.57384" lon="0.85442">
        <ele>176</ele>
        <time>2018-03-03T16:14:43.511Z</time>
      </trkpt>
      <trkpt lat="44.57384" lon="0.85442">
        <ele>176</ele>
        <time>2018-03-03T16:14:44.511Z</time>
      </trkpt>
      <trkpt lat="44.57384" lon="0.85442">
        <ele>176</ele>
        <time>2018-03-03T16:14:45.511Z</time>
      </trkpt>
      <trkpt lat="44.57384" lon="0.85442">
        <ele>176</ele>
        <time>2018-03-03T16:14:46.511Z</time>
      </trkpt>
      <trkpt lat="44.57384" lon="0.85442">
        <ele>176</ele>
        <time>2018-03-03T16:14:47.511Z</time>
      </trkpt>
      <trkpt lat="44.57384" lon="0.85442">
        <ele>176</ele>
        <time>2018-03-03T16:14:48.511Z</time>
      </trkpt>
      <trkpt lat="44.57384" lon="0.85442">
        <ele>176</ele>
        <time>2018-03-03T16:14:49.511Z</time>
      </trkpt>
      <trkpt lat="44.57384" lon="0.85442">
        <ele>176</ele>
        <time>2018-03-03T16:14:50.511Z</time>
      </trkpt>
      <trkpt lat="44.57384" lon="0.85442">
        <ele>176</ele>
        <time>2018-03-03T16:14:51.511Z</time>
      </trkpt>
      <trkpt lat="44.57384" lon="0.85442">
        <ele>176</ele>
        <time>2018-03-03T16:14:52.511Z</time>
      </trkpt>
      <trkpt lat="44.57384" lon="0.85442">
        <ele>176</ele>
        <time>2018-03-03T16:14:53.511Z</time>
      </trkpt>
      <trkpt lat="44.57384" lon="0.85442">
        <ele>176</ele>
        <time>2018-03-03T16:14:54.511Z</time>
      </trkpt>
      <trkpt lat="44.57384" lon="0.85442">
        <ele>176</ele>
        <time>2018-03-03T16:14:55.511Z</time>
      </trkpt>
      <trkpt lat="44.57384" lon="0.85442">
        <ele>176</ele>
        <time>2018-03-03T16:14:56.511Z</time>
      </trkpt>
      <trkpt lat="44.57384" lon="0.85442">
        <ele>176</ele>
        <time>2018-03-03T16:14:57.511Z</time>
      </trkpt>
      <trkpt lat="44.57384" lon="0.85443">
        <ele>176</ele>
        <time>2018-03-03T16:14:58.511Z</time>
      </trkpt>
      <trkpt lat="44.57385" lon="0.85444">
        <ele>176</ele>
        <time>2018-03-03T16:14:59.511Z</time>
      </trkpt>
      <trkpt lat="44.57386" lon="0.85445">
        <ele>176</ele>
        <time>2018-03-03T16:15:00.511Z</time>
      </trkpt>
      <trkpt lat="44.57387" lon="0.85447">
        <ele>176</ele>
        <time>2018-03-03T16:15:01.511Z</time>
      </trkpt>
      <trkpt lat="44.57387" lon="0.85448">
        <ele>176</ele>
        <time>2018-03-03T16:15:02.511Z</time>
      </trkpt>
      <trkpt lat="44.57387" lon="0.85449">
        <ele>176</ele>
        <time>2018-03-03T16:15:03.511Z</time>
      </trkpt>
      <trkpt lat="44.57387" lon="0.8545">
        <ele>177</ele>
        <time>2018-03-03T16:15:04.511Z</time>
      </trkpt>
      <trkpt lat="44.57387" lon="0.8545">
        <ele>177</ele>
        <time>2018-03-03T16:15:05.511Z</time>
      </trkpt>
      <trkpt lat="44.57387" lon="0.85451">
        <ele>177</ele>
        <time>2018-03-03T16:15:06.511Z</time>
      </trkpt>
      <trkpt lat="44.57387" lon="0.85451">
        <ele>177</ele>
        <time>2018-03-03T16:15:07.511Z</time>
      </trkpt>
      <trkpt lat="44.57387" lon="0.85451">
        <ele>177</ele>
        <time>2018-03-03T16:15:08.511Z</time>
      </trkpt>
      <trkpt lat="44.57387" lon="0.85451">
        <ele>177</ele>
        <time>2018-03-03T16:15:09.511Z</time>
      </trkpt>
      <trkpt lat="44.57387" lon="0.85451">
        <ele>177</ele>
        <time>2018-03-03T16:15:10.511Z</time>
      </trkpt>
      <trkpt lat="44.57387" lon="0.85451">
        <ele>177</ele>
        <time>2018-03-03T16:15:11.511Z</time>
      </trkpt>
      <trkpt lat="44.57387" lon="0.85451">
        <ele>177</ele>
        <time>2018-03-03T16:15:12.511Z</time>
      </trkpt>
      <trkpt lat="44.57387" lon="0.85451">
        <ele>177</ele>
        <time>2018-03-03T16:15:13.511Z</time>
      </trkpt>
      <trkpt lat="44.57387" lon="0.85451">
        <ele>177</ele>
        <time>2018-03-03T16:15:14.511Z</time>
      </trkpt>
      <trkpt lat="44.57387" lon="0.85451">
        <ele>177</ele>
        <time>2018-03-03T16:15:15.511Z</time>
      </trkpt>
      <trkpt lat="44.57387" lon="0.85451">
        <ele>177</ele>
        <time>2018-03-03T16:15:16.511Z</time>
      </trkpt>
      <trkpt lat="44.57387" lon="0.85451">
        <ele>177</ele>
        <time>2018-03-03T16:15:17.511Z</time>
      </trkpt>
      <trkpt lat="44.57387" lon="0.85451">
        <ele>177</ele>
        <time>2018-03-03T16:15:18.511Z</time>
      </trkpt>
      <trkpt lat="44.57387" lon="0.85451">
        <ele>177</ele>
        <time>2018-03-03T16:15:19.511Z</time>
      </trkpt>
      <trkpt lat="44.57387" lon="0.85451">
        <ele>177</ele>
        <time>2018-03-03T16:15:20.511Z</time>
      </trkpt>
      <trkpt lat="44.57387" lon="0.85451">
        <ele>177</ele>
        <time>2018-03-03T16:15:21.511Z</time>
      </trkpt>
      <trkpt lat="44.57387" lon="0.85451">
        <ele>177</ele>
        <time>2018-03-03T16:15:22.511Z</time>
      </trkpt>
      <trkpt lat="44.57387" lon="0.85451">
        <ele>177</ele>
        <time>2018-03-03T16:15:23.511Z</time>
      </trkpt>
      <trkpt lat="44.57387" lon="0.85451">
        <ele>177</ele>
        <time>2018-03-03T16:15:24.511Z</time>
      </trkpt>
      <trkpt lat="44.57387" lon="0.85451">
        <ele>177</ele>
        <time>2018-03-03T16:15:25.511Z</time>
      </trkpt>
      <trkpt lat="44.57387" lon="0.85451">
        <ele>177</ele>
        <time>2018-03-03T16:15:26.511Z</time>
      </trkpt>
      <trkpt lat="44.57387" lon="0.85451">
        <ele>177</ele>
        <time>2018-03-03T16:15:27.511Z</time>
      </trkpt>
      <trkpt lat="44.57387" lon="0.85451">
        <ele>177</ele>
        <time>2018-03-03T16:15:28.511Z</time>
      </trkpt>
      <trkpt lat="44.57387" lon="0.85451">
        <ele>177</ele>
        <time>2018-03-03T16:15:29.511Z</time>
      </trkpt>
      <trkpt lat="44.57387" lon="0.85451">
        <ele>177</ele>
        <time>2018-03-03T16:15:30.511Z</time>
      </trkpt>
      <trkpt lat="44.57387" lon="0.85451">
        <ele>177</ele>
        <time>2018-03-03T16:15:31.511Z</time>
      </trkpt>
      <trkpt lat="44.57387" lon="0.85451">
        <ele>177</ele>
        <time>2018-03-03T16:15:32.511Z</time>
      </trkpt>
      <trkpt lat="44.57387" lon="0.85451">
        <ele>177</ele>
        <time>2018-03-03T16:15:33.511Z</time>
      </trkpt>
      <trkpt lat="44.57387" lon="0.85451">
        <ele>177</ele>
        <time>2018-03-03T16:15:34.511Z</time>
      </trkpt>
      <trkpt lat="44.57387" lon="0.85451">
        <ele>177</ele>
        <time>2018-03-03T16:15:35.511Z</time>
      </trkpt>
      <trkpt lat="44.57387" lon="0.85451">
        <ele>177</ele>
        <time>2018-03-03T16:15:36.511Z</time>
      </trkpt>
      <trkpt lat="44.57387" lon="0.85451">
        <ele>177</ele>
        <time>2018-03-03T16:15:37.511Z</time>
      </trkpt>
      <trkpt lat="44.57387" lon="0.85451">
        <ele>177</ele>
        <time>2018-03-03T16:15:38.511Z</time>
      </trkpt>
      <trkpt lat="44.57387" lon="0.85451">
        <ele>177</ele>
        <time>2018-03-03T16:15:39.511Z</time>
      </trkpt>
      <trkpt lat="44.57387" lon="0.85451">
        <ele>177</ele>
        <time>2018-03-03T16:15:40.511Z</time>
      </trkpt>
      <trkpt lat="44.57387" lon="0.85451">
        <ele>177</ele>
        <time>2018-03-03T16:15:41.511Z</time>
      </trkpt>
      <trkpt lat="44.57387" lon="0.85451">
        <ele>177</ele>
        <time>2018-03-03T16:15:42.511Z</time>
      </trkpt>
      <trkpt lat="44.57387" lon="0.85451">
        <ele>177</ele>
        <time>2018-03-03T16:15:43.511Z</time>
      </trkpt>
      <trkpt lat="44.57387" lon="0.85451">
        <ele>177</ele>
        <time>2018-03-03T16:15:44.511Z</time>
      </trkpt>
      <trkpt lat="44.57387" lon="0.85451">
        <ele>177</ele>
        <time>2018-03-03T16:15:45.511Z</time>
      </trkpt>
      <trkpt lat="44.57387" lon="0.85451">
        <ele>177</ele>
        <time>2018-03-03T16:15:46.511Z</time>
      </trkpt>
      <trkpt lat="44.57387" lon="0.85451">
        <ele>177</ele>
        <time>2018-03-03T16:15:47.511Z</time>
      </trkpt>
      <trkpt lat="44.57387" lon="0.85451">
        <ele>177</ele>
        <time>2018-03-03T16:15:48.511Z</time>
      </trkpt>
      <trkpt lat="44.57387" lon="0.85451">
        <ele>177</ele>
        <time>2018-03-03T16:15:49.511Z</time>
      </trkpt>
      <trkpt lat="44.57387" lon="0.85451">
        <ele>177</ele>
        <time>2018-03-03T16:15:50.511Z</time>
      </trkpt>
      <trkpt lat="44.57387" lon="0.85451">
        <ele>177</ele>
        <time>2018-03-03T16:15:51.511Z</time>
      </trkpt>
      <trkpt lat="44.57387" lon="0.85451">
        <ele>177</ele>
        <time>2018-03-03T16:15:52.511Z</time>
      </trkpt>
      <trkpt lat="44.57387" lon="0.85451">
        <ele>177</ele>
        <time>2018-03-03T16:15:53.511Z</time>
      </trkpt>
      <trkpt lat="44.57387" lon="0.85451">
        <ele>177</ele>
        <time>2018-03-03T16:15:54.511Z</time>
      </trkpt>
      <trkpt lat="44.57387" lon="0.85451">
        <ele>177</ele>
        <time>2018-03-03T16:15:55.511Z</time>
      </trkpt>
      <trkpt lat="44.57387" lon="0.85451">
        <ele>177</ele>
        <time>2018-03-03T16:15:56.511Z</time>
      </trkpt>
      <trkpt lat="44.57387" lon="0.85451">
        <ele>177</ele>
        <time>2018-03-03T16:15:57.511Z</time>
      </trkpt>
      <trkpt lat="44.57387" lon="0.85451">
        <ele>177</ele>
        <time>2018-03-03T16:15:58.511Z</time>
      </trkpt>
      <trkpt lat="44.57387" lon="0.85451">
        <ele>177</ele>
        <time>2018-03-03T16:15:59.511Z</time>
      </trkpt>
      <trkpt lat="44.57387" lon="0.85451">
        <ele>177</ele>
        <time>2018-03-03T16:16:00.511Z</time>
      </trkpt>
      <trkpt lat="44.57387" lon="0.85451">
        <ele>177</ele>
        <time>2018-03-03T16:16:01.511Z</time>
      </trkpt>
      <trkpt lat="44.57387" lon="0.85451">
        <ele>177</ele>
        <time>2018-03-03T16:16:02.511Z</time>
      </trkpt>
      <trkpt lat="44.57387" lon="0.85451">
        <ele>177</ele>
        <time>2018-03-03T16:16:03.511Z</time>
      </trkpt>
      <trkpt lat="44.57387" lon="0.85451">
        <ele>177</ele>
        <time>2018-03-03T16:16:04.511Z</time>
      </trkpt>
      <trkpt lat="44.57387" lon="0.85451">
        <ele>177</ele>
        <time>2018-03-03T16:16:05.511Z</time>
      </trkpt>
      <trkpt lat="44.57387" lon="0.85451">
        <ele>177</ele>
        <time>2018-03-03T16:16:06.511Z</time>
      </trkpt>
      <trkpt lat="44.57387" lon="0.85451">
        <ele>177</ele>
        <time>2018-03-03T16:16:07.511Z</time>
      </trkpt>
      <trkpt lat="44.57387" lon="0.85451">
        <ele>177</ele>
        <time>2018-03-03T16:16:08.511Z</time>
      </trkpt>
      <trkpt lat="44.57387" lon="0.85451">
        <ele>177</ele>
        <time>2018-03-03T16:16:09.511Z</time>
      </trkpt>
      <trkpt lat="44.57387" lon="0.85451">
        <ele>177</ele>
        <time>2018-03-03T16:16:10.511Z</time>
      </trkpt>
      <trkpt lat="44.57387" lon="0.85451">
        <ele>177</ele>
        <time>2018-03-03T16:16:11.511Z</time>
      </trkpt>
      <trkpt lat="44.57387" lon="0.85451">
        <ele>176</ele>
        <time>2018-03-03T16:16:12.511Z</time>
      </trkpt>
      <trkpt lat="44.57387" lon="0.85451">
        <ele>176</ele>
        <time>2018-03-03T16:16:13.511Z</time>
      </trkpt>
      <trkpt lat="44.57387" lon="0.85451">
        <ele>176</ele>
        <time>2018-03-03T16:16:14.511Z</time>
      </trkpt>
      <trkpt lat="44.57387" lon="0.85451">
        <ele>176</ele>
        <time>2018-03-03T16:16:15.511Z</time>
      </trkpt>
      <trkpt lat="44.57387" lon="0.85451">
        <ele>176</ele>
        <time>2018-03-03T16:16:16.511Z</time>
      </trkpt>
      <trkpt lat="44.57387" lon="0.85451">
        <ele>176</ele>
        <time>2018-03-03T16:16:17.511Z</time>
      </trkpt>
      <trkpt lat="44.57387" lon="0.85451">
        <ele>176</ele>
        <time>2018-03-03T16:16:18.511Z</time>
      </trkpt>
      <trkpt lat="44.57387" lon="0.85451">
        <ele>176</ele>
        <time>2018-03-03T16:16:19.511Z</time>
      </trkpt>
      <trkpt lat="44.57387" lon="0.85451">
        <ele>176</ele>
        <time>2018-03-03T16:16:20.511Z</time>
      </trkpt>
      <trkpt lat="44.57387" lon="0.85451">
        <ele>176</ele>
        <time>2018-03-03T16:16:21.511Z</time>
      </trkpt>
      <trkpt lat="44.57387" lon="0.85451">
        <ele>176</ele>
        <time>2018-03-03T16:16:22.511Z</time>
      </trkpt>
      <trkpt lat="44.57387" lon="0.85451">
        <ele>176</ele>
        <time>2018-03-03T16:16:23.511Z</time>
      </trkpt>
      <trkpt lat="44.57387" lon="0.85451">
        <ele>176</ele>
        <time>2018-03-03T16:16:24.511Z</time>
      </trkpt>
      <trkpt lat="44.57387" lon="0.85451">
        <ele>176</ele>
        <time>2018-03-03T16:16:25.511Z</time>
      </trkpt>
      <trkpt lat="44.57387" lon="0.85451">
        <ele>176</ele>
        <time>2018-03-03T16:16:26.511Z</time>
      </trkpt>
      <trkpt lat="44.57387" lon="0.85451">
        <ele>176</ele>
        <time>2018-03-03T16:16:27.511Z</time>
      </trkpt>
      <trkpt lat="44.57387" lon="0.85451">
        <ele>176</ele>
        <time>2018-03-03T16:16:28.511Z</time>
      </trkpt>
      <trkpt lat="44.57387" lon="0.85451">
        <ele>177</ele>
        <time>2018-03-03T16:16:29.511Z</time>
      </trkpt>
      <trkpt lat="44.57387" lon="0.85451">
        <ele>177</ele>
        <time>2018-03-03T16:16:30.511Z</time>
      </trkpt>
      <trkpt lat="44.57387" lon="0.85451">
        <ele>177</ele>
        <time>2018-03-03T16:16:31.511Z</time>
      </trkpt>
      <trkpt lat="44.57387" lon="0.85451">
        <ele>177</ele>
        <time>2018-03-03T16:16:32.511Z</time>
      </trkpt>
      <trkpt lat="44.57387" lon="0.85451">
        <ele>177</ele>
        <time>2018-03-03T16:16:33.511Z</time>
      </trkpt>
      <trkpt lat="44.57387" lon="0.85451">
        <ele>177</ele>
        <time>2018-03-03T16:16:34.511Z</time>
      </trkpt>
      <trkpt lat="44.57387" lon="0.85451">
        <ele>177</ele>
        <time>2018-03-03T16:16:35.511Z</time>
      </trkpt>
      <trkpt lat="44.57387" lon="0.85451">
        <ele>176</ele>
        <time>2018-03-03T16:16:36.511Z</time>
      </trkpt>
      <trkpt lat="44.57387" lon="0.85451">
        <ele>176</ele>
        <time>2018-03-03T16:16:37.511Z</time>
      </trkpt>
      <trkpt lat="44.57387" lon="0.85451">
        <ele>176</ele>
        <time>2018-03-03T16:16:38.511Z</time>
      </trkpt>
      <trkpt lat="44.57387" lon="0.85451">
        <ele>176</ele>
        <time>2018-03-03T16:16:39.511Z</time>
      </trkpt>
      <trkpt lat="44.57387" lon="0.85451">
        <ele>176</ele>
        <time>2018-03-03T16:16:40.511Z</time>
      </trkpt>
      <trkpt lat="44.57387" lon="0.85451">
        <ele>176</ele>
        <time>2018-03-03T16:16:41.511Z</time>
      </trkpt>
      <trkpt lat="44.57387" lon="0.85451">
        <ele>176</ele>
        <time>2018-03-03T16:16:42.511Z</time>
      </trkpt>
      <trkpt lat="44.57387" lon="0.85451">
        <ele>176</ele>
        <time>2018-03-03T16:16:43.511Z</time>
      </trkpt>
      <trkpt lat="44.57387" lon="0.85451">
        <ele>176</ele>
        <time>2018-03-03T16:16:44.511Z</time>
      </trkpt>
      <trkpt lat="44.57387" lon="0.85451">
        <ele>176</ele>
        <time>2018-03-03T16:16:45.511Z</time>
      </trkpt>
      <trkpt lat="44.57387" lon="0.85451">
        <ele>176</ele>
        <time>2018-03-03T16:16:46.511Z</time>
      </trkpt>
      <trkpt lat="44.57387" lon="0.85451">
        <ele>176</ele>
        <time>2018-03-03T16:16:47.511Z</time>
      </trkpt>
      <trkpt lat="44.57387" lon="0.85451">
        <ele>176</ele>
        <time>2018-03-03T16:16:48.511Z</time>
      </trkpt>
      <trkpt lat="44.57387" lon="0.85451">
        <ele>176</ele>
        <time>2018-03-03T16:16:49.511Z</time>
      </trkpt>
      <trkpt lat="44.57387" lon="0.85451">
        <ele>176</ele>
        <time>2018-03-03T16:16:50.511Z</time>
      </trkpt>
      <trkpt lat="44.57387" lon="0.85451">
        <ele>176</ele>
        <time>2018-03-03T16:16:51.511Z</time>
      </trkpt>
      <trkpt lat="44.57387" lon="0.85451">
        <ele>177</ele>
        <time>2018-03-03T16:16:52.511Z</time>
      </trkpt>
      <trkpt lat="44.57387" lon="0.85451">
        <ele>177</ele>
        <time>2018-03-03T16:16:53.511Z</time>
      </trkpt>
      <trkpt lat="44.57387" lon="0.85451">
        <ele>177</ele>
        <time>2018-03-03T16:16:54.511Z</time>
      </trkpt>
      <trkpt lat="44.57387" lon="0.85451">
        <ele>177</ele>
        <time>2018-03-03T16:16:55.511Z</time>
      </trkpt>
      <trkpt lat="44.57387" lon="0.85451">
        <ele>177</ele>
        <time>2018-03-03T16:16:56.511Z</time>
      </trkpt>
      <trkpt lat="44.57387" lon="0.85451">
        <ele>177</ele>
        <time>2018-03-03T16:16:57.511Z</time>
      </trkpt>
      <trkpt lat="44.57387" lon="0.85451">
        <ele>177</ele>
        <time>2018-03-03T16:16:58.511Z</time>
      </trkpt>
      <trkpt lat="44.57387" lon="0.85451">
        <ele>177</ele>
        <time>2018-03-03T16:16:59.511Z</time>
      </trkpt>
      <trkpt lat="44.57387" lon="0.85451">
        <ele>177</ele>
        <time>2018-03-03T16:17:00.511Z</time>
      </trkpt>
      <trkpt lat="44.57387" lon="0.85451">
        <ele>177</ele>
        <time>2018-03-03T16:17:01.511Z</time>
      </trkpt>
      <trkpt lat="44.57387" lon="0.85451">
        <ele>177</ele>
        <time>2018-03-03T16:17:02.511Z</time>
      </trkpt>
      <trkpt lat="44.57387" lon="0.85451">
        <ele>177</ele>
        <time>2018-03-03T16:17:03.511Z</time>
      </trkpt>
      <trkpt lat="44.57387" lon="0.85451">
        <ele>177</ele>
        <time>2018-03-03T16:17:04.511Z</time>
      </trkpt>
      <trkpt lat="44.57387" lon="0.85451">
        <ele>177</ele>
        <time>2018-03-03T16:17:05.511Z</time>
      </trkpt>
      <trkpt lat="44.57387" lon="0.85451">
        <ele>177</ele>
        <time>2018-03-03T16:17:06.511Z</time>
      </trkpt>
      <trkpt lat="44.57387" lon="0.85451">
        <ele>177</ele>
        <time>2018-03-03T16:17:07.511Z</time>
      </trkpt>
      <trkpt lat="44.57387" lon="0.85451">
        <ele>177</ele>
        <time>2018-03-03T16:17:08.511Z</time>
      </trkpt>
      <trkpt lat="44.57387" lon="0.85451">
        <ele>177</ele>
        <time>2018-03-03T16:17:09.511Z</time>
      </trkpt>
      <trkpt lat="44.57387" lon="0.85451">
        <ele>177</ele>
        <time>2018-03-03T16:17:10.511Z</time>
      </trkpt>
      <trkpt lat="44.57387" lon="0.85451">
        <ele>177</ele>
        <time>2018-03-03T16:17:11.511Z</time>
      </trkpt>
      <trkpt lat="44.57387" lon="0.85451">
        <ele>177</ele>
        <time>2018-03-03T16:17:12.511Z</time>
      </trkpt>
      <trkpt lat="44.57387" lon="0.85451">
        <ele>177</ele>
        <time>2018-03-03T16:17:13.511Z</time>
      </trkpt>
      <trkpt lat="44.57387" lon="0.85451">
        <ele>177</ele>
        <time>2018-03-03T16:17:14.511Z</time>
      </trkpt>
      <trkpt lat="44.57387" lon="0.85451">
        <ele>177</ele>
        <time>2018-03-03T16:17:15.511Z</time>
      </trkpt>
      <trkpt lat="44.57387" lon="0.85451">
        <ele>177</ele>
        <time>2018-03-03T16:17:16.511Z</time>
      </trkpt>
      <trkpt lat="44.57387" lon="0.85451">
        <ele>177</ele>
        <time>2018-03-03T16:17:17.511Z</time>
      </trkpt>
      <trkpt lat="44.57387" lon="0.85451">
        <ele>177</ele>
        <time>2018-03-03T16:17:18.511Z</time>
      </trkpt>
      <trkpt lat="44.57387" lon="0.85451">
        <ele>177</ele>
        <time>2018-03-03T16:17:19.511Z</time>
      </trkpt>
      <trkpt lat="44.57387" lon="0.85451">
        <ele>177</ele>
        <time>2018-03-03T16:17:20.511Z</time>
      </trkpt>
      <trkpt lat="44.57387" lon="0.85451">
        <ele>177</ele>
        <time>2018-03-03T16:17:21.511Z</time>
      </trkpt>
      <trkpt lat="44.57387" lon="0.85451">
        <ele>177</ele>
        <time>2018-03-03T16:17:22.511Z</time>
      </trkpt>
      <trkpt lat="44.57387" lon="0.85451">
        <ele>177</ele>
        <time>2018-03-03T16:17:23.511Z</time>
      </trkpt>
      <trkpt lat="44.57387" lon="0.85451">
        <ele>177</ele>
        <time>2018-03-03T16:17:24.511Z</time>
      </trkpt>
      <trkpt lat="44.57387" lon="0.85451">
        <ele>177</ele>
        <time>2018-03-03T16:17:25.511Z</time>
      </trkpt>
      <trkpt lat="44.57387" lon="0.85451">
        <ele>177</ele>
        <time>2018-03-03T16:17:26.511Z</time>
      </trkpt>
      <trkpt lat="44.57387" lon="0.85451">
        <ele>177</ele>
        <time>2018-03-03T16:17:27.511Z</time>
      </trkpt>
      <trkpt lat="44.57387" lon="0.85451">
        <ele>177</ele>
        <time>2018-03-03T16:17:28.511Z</time>
      </trkpt>
      <trkpt lat="44.57387" lon="0.85451">
        <ele>176</ele>
        <time>2018-03-03T16:17:29.511Z</time>
      </trkpt>
      <trkpt lat="44.57387" lon="0.85451">
        <ele>176</ele>
        <time>2018-03-03T16:17:30.511Z</time>
      </trkpt>
      <trkpt lat="44.57387" lon="0.85451">
        <ele>176</ele>
        <time>2018-03-03T16:17:31.511Z</time>
      </trkpt>
      <trkpt lat="44.57387" lon="0.85451">
        <ele>176</ele>
        <time>2018-03-03T16:17:32.511Z</time>
      </trkpt>
      <trkpt lat="44.57387" lon="0.85451">
        <ele>176</ele>
        <time>2018-03-03T16:17:33.511Z</time>
      </trkpt>
      <trkpt lat="44.57387" lon="0.85451">
        <ele>176</ele>
        <time>2018-03-03T16:17:34.511Z</time>
      </trkpt>
      <trkpt lat="44.57387" lon="0.85451">
        <ele>177</ele>
        <time>2018-03-03T16:17:35.511Z</time>
      </trkpt>
      <trkpt lat="44.57387" lon="0.85451">
        <ele>176</ele>
        <time>2018-03-03T16:17:36.511Z</time>
      </trkpt>
      <trkpt lat="44.57387" lon="0.85451">
        <ele>177</ele>
        <time>2018-03-03T16:17:37.511Z</time>
      </trkpt>
      <trkpt lat="44.57387" lon="0.85451">
        <ele>176</ele>
        <time>2018-03-03T16:17:38.511Z</time>
      </trkpt>
      <trkpt lat="44.57387" lon="0.85451">
        <ele>177</ele>
        <time>2018-03-03T16:17:39.511Z</time>
      </trkpt>
      <trkpt lat="44.57387" lon="0.85451">
        <ele>177</ele>
        <time>2018-03-03T16:17:40.511Z</time>
      </trkpt>
      <trkpt lat="44.57387" lon="0.85451">
        <ele>177</ele>
        <time>2018-03-03T16:17:41.511Z</time>
      </trkpt>
      <trkpt lat="44.57387" lon="0.85451">
        <ele>177</ele>
        <time>2018-03-03T16:17:42.511Z</time>
      </trkpt>
      <trkpt lat="44.57387" lon="0.85451">
        <ele>176</ele>
        <time>2018-03-03T16:17:43.511Z</time>
      </trkpt>
      <trkpt lat="44.57387" lon="0.85451">
        <ele>177</ele>
        <time>2018-03-03T16:17:44.511Z</time>
      </trkpt>
      <trkpt lat="44.57387" lon="0.85451">
        <ele>177</ele>
        <time>2018-03-03T16:17:45.511Z</time>
      </trkpt>
      <trkpt lat="44.57387" lon="0.85451">
        <ele>176</ele>
        <time>2018-03-03T16:17:46.511Z</time>
      </trkpt>
      <trkpt lat="44.57387" lon="0.85451">
        <ele>176</ele>
        <time>2018-03-03T16:17:47.511Z</time>
      </trkpt>
      <trkpt lat="44.57387" lon="0.85451">
        <ele>176</ele>
        <time>2018-03-03T16:17:48.511Z</time>
      </trkpt>
      <trkpt lat="44.57387" lon="0.85451">
        <ele>177</ele>
        <time>2018-03-03T16:17:49.511Z</time>
      </trkpt>
      <trkpt lat="44.57387" lon="0.85451">
        <ele>177</ele>
        <time>2018-03-03T16:17:50.511Z</time>
      </trkpt>
      <trkpt lat="44.57387" lon="0.85451">
        <ele>177</ele>
        <time>2018-03-03T16:17:51.511Z</time>
      </trkpt>
      <trkpt lat="44.57387" lon="0.85451">
        <ele>177</ele>
        <time>2018-03-03T16:17:52.511Z</time>
      </trkpt>
      <trkpt lat="44.57387" lon="0.85451">
        <ele>177</ele>
        <time>2018-03-03T16:17:53.511Z</time>
      </trkpt>
      <trkpt lat="44.57387" lon="0.85451">
        <ele>177</ele>
        <time>2018-03-03T16:17:54.511Z</time>
      </trkpt>
      <trkpt lat="44.57387" lon="0.85451">
        <ele>176</ele>
        <time>2018-03-03T16:17:55.511Z</time>
      </trkpt>
      <trkpt lat="44.57387" lon="0.85451">
        <ele>176</ele>
        <time>2018-03-03T16:17:56.511Z</time>
      </trkpt>
      <trkpt lat="44.57387" lon="0.85451">
        <ele>176</ele>
        <time>2018-03-03T16:17:57.511Z</time>
      </trkpt>
      <trkpt lat="44.57387" lon="0.85451">
        <ele>176</ele>
        <time>2018-03-03T16:17:58.511Z</time>
      </trkpt>
      <trkpt lat="44.57387" lon="0.85451">
        <ele>176</ele>
        <time>2018-03-03T16:17:59.511Z</time>
      </trkpt>
      <trkpt lat="44.57387" lon="0.85451">
        <ele>176</ele>
        <time>2018-03-03T16:18:00.511Z</time>
      </trkpt>
      <trkpt lat="44.57387" lon="0.85451">
        <ele>176</ele>
        <time>2018-03-03T16:18:01.511Z</time>
      </trkpt>
      <trkpt lat="44.57387" lon="0.85451">
        <ele>176</ele>
        <time>2018-03-03T16:18:02.511Z</time>
      </trkpt>
      <trkpt lat="44.57387" lon="0.85451">
        <ele>176</ele>
        <time>2018-03-03T16:18:03.511Z</time>
      </trkpt>
      <trkpt lat="44.57387" lon="0.85451">
        <ele>176</ele>
        <time>2018-03-03T16:18:04.511Z</time>
      </trkpt>
      <trkpt lat="44.57387" lon="0.85451">
        <ele>176</ele>
        <time>2018-03-03T16:18:05.511Z</time>
      </trkpt>
      <trkpt lat="44.57387" lon="0.85451">
        <ele>176</ele>
        <time>2018-03-03T16:18:06.511Z</time>
      </trkpt>
      <trkpt lat="44.57387" lon="0.85451">
        <ele>176</ele>
        <time>2018-03-03T16:18:07.511Z</time>
      </trkpt>
      <trkpt lat="44.57387" lon="0.85451">
        <ele>176</ele>
        <time>2018-03-03T16:18:08.511Z</time>
      </trkpt>
      <trkpt lat="44.57387" lon="0.85451">
        <ele>176</ele>
        <time>2018-03-03T16:18:09.511Z</time>
      </trkpt>
      <trkpt lat="44.57387" lon="0.85451">
        <ele>176</ele>
        <time>2018-03-03T16:18:10.511Z</time>
      </trkpt>
      <trkpt lat="44.57387" lon="0.85451">
        <ele>176</ele>
        <time>2018-03-03T16:18:11.511Z</time>
      </trkpt>
      <trkpt lat="44.57387" lon="0.85451">
        <ele>176</ele>
        <time>2018-03-03T16:18:12.511Z</time>
      </trkpt>
      <trkpt lat="44.57387" lon="0.85451">
        <ele>176</ele>
        <time>2018-03-03T16:18:13.511Z</time>
      </trkpt>
      <trkpt lat="44.57387" lon="0.85451">
        <ele>176</ele>
        <time>2018-03-03T16:18:14.511Z</time>
      </trkpt>
      <trkpt lat="44.57387" lon="0.85451">
        <ele>176</ele>
        <time>2018-03-03T16:18:15.511Z</time>
      </trkpt>
      <trkpt lat="44.57387" lon="0.85451">
        <ele>176</ele>
        <time>2018-03-03T16:18:16.511Z</time>
      </trkpt>
      <trkpt lat="44.57387" lon="0.85451">
        <ele>176</ele>
        <time>2018-03-03T16:18:17.511Z</time>
      </trkpt>
      <trkpt lat="44.57387" lon="0.85451">
        <ele>176</ele>
        <time>2018-03-03T16:18:18.511Z</time>
      </trkpt>
      <trkpt lat="44.57387" lon="0.85451">
        <ele>176</ele>
        <time>2018-03-03T16:18:19.511Z</time>
      </trkpt>
      <trkpt lat="44.57387" lon="0.85451">
        <ele>176</ele>
        <time>2018-03-03T16:18:20.511Z</time>
      </trkpt>
      <trkpt lat="44.57387" lon="0.85451">
        <ele>176</ele>
        <time>2018-03-03T16:18:21.511Z</time>
      </trkpt>
      <trkpt lat="44.57387" lon="0.85451">
        <ele>176</ele>
        <time>2018-03-03T16:18:22.511Z</time>
      </trkpt>
      <trkpt lat="44.57387" lon="0.85451">
        <ele>176</ele>
        <time>2018-03-03T16:18:23.511Z</time>
      </trkpt>
      <trkpt lat="44.57387" lon="0.85451">
        <ele>176</ele>
        <time>2018-03-03T16:18:24.511Z</time>
      </trkpt>
      <trkpt lat="44.57387" lon="0.85451">
        <ele>176</ele>
        <time>2018-03-03T16:18:25.511Z</time>
      </trkpt>
      <trkpt lat="44.57387" lon="0.85451">
        <ele>176</ele>
        <time>2018-03-03T16:18:26.511Z</time>
      </trkpt>
      <trkpt lat="44.57387" lon="0.85451">
        <ele>176</ele>
        <time>2018-03-03T16:18:27.511Z</time>
      </trkpt>
      <trkpt lat="44.57387" lon="0.85451">
        <ele>176</ele>
        <time>2018-03-03T16:18:28.511Z</time>
      </trkpt>
      <trkpt lat="44.57387" lon="0.85451">
        <ele>176</ele>
        <time>2018-03-03T16:18:29.511Z</time>
      </trkpt>
      <trkpt lat="44.57387" lon="0.85451">
        <ele>176</ele>
        <time>2018-03-03T16:18:30.511Z</time>
      </trkpt>
      <trkpt lat="44.57387" lon="0.85451">
        <ele>176</ele>
        <time>2018-03-03T16:18:31.511Z</time>
      </trkpt>
      <trkpt lat="44.57387" lon="0.85451">
        <ele>176</ele>
        <time>2018-03-03T16:18:32.511Z</time>
      </trkpt>
      <trkpt lat="44.57387" lon="0.85451">
        <ele>176</ele>
        <time>2018-03-03T16:18:33.511Z</time>
      </trkpt>
      <trkpt lat="44.57387" lon="0.85451">
        <ele>176</ele>
        <time>2018-03-03T16:18:34.511Z</time>
      </trkpt>
      <trkpt lat="44.57387" lon="0.85451">
        <ele>176</ele>
        <time>2018-03-03T16:18:35.511Z</time>
      </trkpt>
      <trkpt lat="44.57387" lon="0.85451">
        <ele>176</ele>
        <time>2018-03-03T16:18:36.511Z</time>
      </trkpt>
      <trkpt lat="44.57387" lon="0.85451">
        <ele>176</ele>
        <time>2018-03-03T16:18:37.511Z</time>
      </trkpt>
      <trkpt lat="44.57387" lon="0.85451">
        <ele>176</ele>
        <time>2018-03-03T16:18:38.511Z</time>
      </trkpt>
      <trkpt lat="44.57387" lon="0.85451">
        <ele>176</ele>
        <time>2018-03-03T16:18:39.511Z</time>
      </trkpt>
      <trkpt lat="44.57387" lon="0.85451">
        <ele>176</ele>
        <time>2018-03-03T16:18:40.511Z</time>
      </trkpt>
      <trkpt lat="44.57387" lon="0.85451">
        <ele>176</ele>
        <time>2018-03-03T16:18:41.511Z</time>
      </trkpt>
      <trkpt lat="44.57387" lon="0.85451">
        <ele>176</ele>
        <time>2018-03-03T16:18:42.511Z</time>
      </trkpt>
      <trkpt lat="44.57387" lon="0.85451">
        <ele>176</ele>
        <time>2018-03-03T16:18:43.511Z</time>
      </trkpt>
      <trkpt lat="44.57387" lon="0.85451">
        <ele>176</ele>
        <time>2018-03-03T16:18:44.511Z</time>
      </trkpt>
      <trkpt lat="44.57387" lon="0.85451">
        <ele>176</ele>
        <time>2018-03-03T16:18:45.511Z</time>
      </trkpt>
      <trkpt lat="44.57387" lon="0.85451">
        <ele>176</ele>
        <time>2018-03-03T16:18:46.511Z</time>
      </trkpt>
      <trkpt lat="44.57387" lon="0.85451">
        <ele>176</ele>
        <time>2018-03-03T16:18:47.511Z</time>
      </trkpt>
      <trkpt lat="44.57387" lon="0.85451">
        <ele>176</ele>
        <time>2018-03-03T16:18:48.511Z</time>
      </trkpt>
      <trkpt lat="44.57387" lon="0.85451">
        <ele>176</ele>
        <time>2018-03-03T16:18:49.511Z</time>
      </trkpt>
      <trkpt lat="44.57387" lon="0.85451">
        <ele>176</ele>
        <time>2018-03-03T16:18:50.511Z</time>
      </trkpt>
      <trkpt lat="44.57387" lon="0.85451">
        <ele>176</ele>
        <time>2018-03-03T16:18:51.511Z</time>
      </trkpt>
      <trkpt lat="44.57387" lon="0.85451">
        <ele>176</ele>
        <time>2018-03-03T16:18:52.511Z</time>
      </trkpt>
      <trkpt lat="44.57387" lon="0.85451">
        <ele>176</ele>
        <time>2018-03-03T16:18:53.511Z</time>
      </trkpt>
      <trkpt lat="44.57387" lon="0.85451">
        <ele>176</ele>
        <time>2018-03-03T16:18:54.511Z</time>
      </trkpt>
      <trkpt lat="44.57387" lon="0.85451">
        <ele>176</ele>
        <time>2018-03-03T16:18:55.511Z</time>
      </trkpt>
      <trkpt lat="44.57387" lon="0.85451">
        <ele>176</ele>
        <time>2018-03-03T16:18:56.511Z</time>
      </trkpt>
      <trkpt lat="44.57387" lon="0.85451">
        <ele>176</ele>
        <time>2018-03-03T16:18:57.511Z</time>
      </trkpt>
      <trkpt lat="44.57387" lon="0.85451">
        <ele>176</ele>
        <time>2018-03-03T16:18:58.511Z</time>
      </trkpt>
      <trkpt lat="44.57387" lon="0.85451">
        <ele>176</ele>
        <time>2018-03-03T16:18:59.511Z</time>
      </trkpt>
      <trkpt lat="44.57388" lon="0.85451">
        <ele>176</ele>
        <time>2018-03-03T16:19:00.511Z</time>
      </trkpt>
      <trkpt lat="44.57388" lon="0.85452">
        <ele>176</ele>
        <time>2018-03-03T16:19:01.511Z</time>
      </trkpt>
      <trkpt lat="44.57389" lon="0.85453">
        <ele>176</ele>
        <time>2018-03-03T16:19:02.511Z</time>
      </trkpt>
      <trkpt lat="44.5739" lon="0.85454">
        <ele>176</ele>
        <time>2018-03-03T16:19:03.511Z</time>
      </trkpt>
      <trkpt lat="44.57391" lon="0.85456">
        <ele>176</ele>
        <time>2018-03-03T16:19:04.511Z</time>
      </trkpt>
      <trkpt lat="44.57393" lon="0.85459">
        <ele>176</ele>
        <time>2018-03-03T16:19:05.511Z</time>
      </trkpt>
      <trkpt lat="44.57394" lon="0.8546">
        <ele>176</ele>
        <time>2018-03-03T16:19:06.511Z</time>
      </trkpt>
      <trkpt lat="44.57394" lon="0.85461">
        <ele>176</ele>
        <time>2018-03-03T16:19:07.511Z</time>
      </trkpt>
      <trkpt lat="44.57394" lon="0.85461">
        <ele>176</ele>
        <time>2018-03-03T16:19:08.511Z</time>
      </trkpt>
      <trkpt lat="44.57395" lon="0.85461">
        <ele>177</ele>
        <time>2018-03-03T16:19:09.511Z</time>
      </trkpt>
      <trkpt lat="44.57395" lon="0.85462">
        <ele>177</ele>
        <time>2018-03-03T16:19:10.511Z</time>
      </trkpt>
      <trkpt lat="44.57395" lon="0.85462">
        <ele>177</ele>
        <time>2018-03-03T16:19:11.511Z</time>
      </trkpt>
      <trkpt lat="44.57395" lon="0.85462">
        <ele>177</ele>
        <time>2018-03-03T16:19:12.511Z</time>
      </trkpt>
      <trkpt lat="44.57395" lon="0.85462">
        <ele>177</ele>
        <time>2018-03-03T16:19:13.511Z</time>
      </trkpt>
      <trkpt lat="44.57395" lon="0.85462">
        <ele>177</ele>
        <time>2018-03-03T16:19:14.511Z</time>
      </trkpt>
      <trkpt lat="44.57395" lon="0.85462">
        <ele>177</ele>
        <time>2018-03-03T16:19:15.511Z</time>
      </trkpt>
      <trkpt lat="44.57395" lon="0.85462">
        <ele>177</ele>
        <time>2018-03-03T16:19:16.511Z</time>
      </trkpt>
      <trkpt lat="44.57395" lon="0.85462">
        <ele>177</ele>
        <time>2018-03-03T16:19:17.511Z</time>
      </trkpt>
      <trkpt lat="44.57395" lon="0.85462">
        <ele>177</ele>
        <time>2018-03-03T16:19:18.511Z</time>
      </trkpt>
      <trkpt lat="44.57395" lon="0.85462">
        <ele>177</ele>
        <time>2018-03-03T16:19:19.511Z</time>
      </trkpt>
      <trkpt lat="44.57395" lon="0.85462">
        <ele>177</ele>
        <time>2018-03-03T16:19:20.511Z</time>
      </trkpt>
      <trkpt lat="44.57395" lon="0.85462">
        <ele>177</ele>
        <time>2018-03-03T16:19:21.511Z</time>
      </trkpt>
      <trkpt lat="44.57395" lon="0.85462">
        <ele>177</ele>
        <time>2018-03-03T16:19:22.511Z</time>
      </trkpt>
      <trkpt lat="44.57395" lon="0.85462">
        <ele>177</ele>
        <time>2018-03-03T16:19:23.511Z</time>
      </trkpt>
      <trkpt lat="44.57395" lon="0.85462">
        <ele>177</ele>
        <time>2018-03-03T16:19:24.511Z</time>
      </trkpt>
      <trkpt lat="44.57395" lon="0.85462">
        <ele>177</ele>
        <time>2018-03-03T16:19:25.511Z</time>
      </trkpt>
      <trkpt lat="44.57395" lon="0.85462">
        <ele>177</ele>
        <time>2018-03-03T16:19:26.511Z</time>
      </trkpt>
      <trkpt lat="44.57395" lon="0.85462">
        <ele>177</ele>
        <time>2018-03-03T16:19:27.511Z</time>
      </trkpt>
      <trkpt lat="44.57395" lon="0.85462">
        <ele>177</ele>
        <time>2018-03-03T16:19:28.511Z</time>
      </trkpt>
      <trkpt lat="44.57395" lon="0.85462">
        <ele>177</ele>
        <time>2018-03-03T16:19:29.511Z</time>
      </trkpt>
      <trkpt lat="44.57395" lon="0.85462">
        <ele>177</ele>
        <time>2018-03-03T16:19:30.511Z</time>
      </trkpt>
      <trkpt lat="44.57395" lon="0.85462">
        <ele>177</ele>
        <time>2018-03-03T16:19:31.511Z</time>
      </trkpt>
      <trkpt lat="44.57395" lon="0.85462">
        <ele>177</ele>
        <time>2018-03-03T16:19:32.511Z</time>
      </trkpt>
      <trkpt lat="44.57395" lon="0.85462">
        <ele>177</ele>
        <time>2018-03-03T16:19:33.511Z</time>
      </trkpt>
      <trkpt lat="44.57395" lon="0.85462">
        <ele>177</ele>
        <time>2018-03-03T16:19:34.511Z</time>
      </trkpt>
      <trkpt lat="44.57396" lon="0.85463">
        <ele>177</ele>
        <time>2018-03-03T16:19:35.511Z</time>
      </trkpt>
      <trkpt lat="44.57397" lon="0.85465">
        <ele>178</ele>
        <time>2018-03-03T16:19:36.511Z</time>
      </trkpt>
      <trkpt lat="44.57398" lon="0.85468">
        <ele>178</ele>
        <time>2018-03-03T16:19:37.511Z</time>
      </trkpt>
      <trkpt lat="44.574" lon="0.85471">
        <ele>178</ele>
        <time>2018-03-03T16:19:38.511Z</time>
      </trkpt>
      <trkpt lat="44.57401" lon="0.85474">
        <ele>178</ele>
        <time>2018-03-03T16:19:39.511Z</time>
      </trkpt>
      <trkpt lat="44.57403" lon="0.85477">
        <ele>178</ele>
        <time>2018-03-03T16:19:40.511Z</time>
      </trkpt>
      <trkpt lat="44.57404" lon="0.8548">
        <ele>178</ele>
        <time>2018-03-03T16:19:41.511Z</time>
      </trkpt>
      <trkpt lat="44.57404" lon="0.85483">
        <ele>178</ele>
        <time>2018-03-03T16:19:42.511Z</time>
      </trkpt>
      <trkpt lat="44.57404" lon="0.85487">
        <ele>178</ele>
        <time>2018-03-03T16:19:43.511Z</time>
      </trkpt>
      <trkpt lat="44.57405" lon="0.85491">
        <ele>178</ele>
        <time>2018-03-03T16:19:44.511Z</time>
      </trkpt>
      <trkpt lat="44.57405" lon="0.85496">
        <ele>178</ele>
        <time>2018-03-03T16:19:45.511Z</time>
      </trkpt>
      <trkpt lat="44.57405" lon="0.855">
        <ele>178</ele>
        <time>2018-03-03T16:19:46.511Z</time>
      </trkpt>
      <trkpt lat="44.57406" lon="0.85505">
        <ele>178</ele>
        <time>2018-03-03T16:19:47.511Z</time>
      </trkpt>
      <trkpt lat="44.57406" lon="0.8551">
        <ele>179</ele>
        <time>2018-03-03T16:19:48.511Z</time>
      </trkpt>
      <trkpt lat="44.57407" lon="0.85516">
        <ele>179</ele>
        <time>2018-03-03T16:19:49.511Z</time>
      </trkpt>
      <trkpt lat="44.57407" lon="0.85522">
        <ele>179</ele>
        <time>2018-03-03T16:19:50.511Z</time>
      </trkpt>
      <trkpt lat="44.57407" lon="0.85528">
        <ele>179</ele>
        <time>2018-03-03T16:19:51.511Z</time>
      </trkpt>
      <trkpt lat="44.57406" lon="0.85534">
        <ele>179</ele>
        <time>2018-03-03T16:19:52.511Z</time>
      </trkpt>
      <trkpt lat="44.57406" lon="0.85541">
        <ele>179</ele>
        <time>2018-03-03T16:19:53.511Z</time>
      </trkpt>
      <trkpt lat="44.57405" lon="0.85547">
        <ele>180</ele>
        <time>2018-03-03T16:19:54.511Z</time>
      </trkpt>
      <trkpt lat="44.57405" lon="0.85552">
        <ele>180</ele>
        <time>2018-03-03T16:19:55.511Z</time>
      </trkpt>
      <trkpt lat="44.57405" lon="0.85557">
        <ele>180</ele>
        <time>2018-03-03T16:19:56.511Z</time>
      </trkpt>
      <trkpt lat="44.57405" lon="0.85562">
        <ele>181</ele>
        <time>2018-03-03T16:19:57.511Z</time>
      </trkpt>
      <trkpt lat="44.57405" lon="0.85566">
        <ele>181</ele>
        <time>2018-03-03T16:19:58.511Z</time>
      </trkpt>
      <trkpt lat="44.57405" lon="0.85571">
        <ele>181</ele>
        <time>2018-03-03T16:19:59.511Z</time>
      </trkpt>
      <trkpt lat="44.57406" lon="0.85575">
        <ele>181</ele>
        <time>2018-03-03T16:20:00.511Z</time>
      </trkpt>
      <trkpt lat="44.57406" lon="0.8558">
        <ele>182</ele>
        <time>2018-03-03T16:20:01.511Z</time>
      </trkpt>
      <trkpt lat="44.57406" lon="0.85585">
        <ele>182</ele>
        <time>2018-03-03T16:20:02.511Z</time>
      </trkpt>
      <trkpt lat="44.57406" lon="0.8559">
        <ele>182</ele>
        <time>2018-03-03T16:20:03.511Z</time>
      </trkpt>
      <trkpt lat="44.57406" lon="0.85595">
        <ele>183</ele>
        <time>2018-03-03T16:20:04.511Z</time>
      </trkpt>
      <trkpt lat="44.57406" lon="0.85599">
        <ele>183</ele>
        <time>2018-03-03T16:20:05.511Z</time>
      </trkpt>
      <trkpt lat="44.57406" lon="0.85604">
        <ele>183</ele>
        <time>2018-03-03T16:20:06.511Z</time>
      </trkpt>
      <trkpt lat="44.57406" lon="0.85609">
        <ele>183</ele>
        <time>2018-03-03T16:20:07.511Z</time>
      </trkpt>
      <trkpt lat="44.57406" lon="0.85613">
        <ele>183</ele>
        <time>2018-03-03T16:20:08.511Z</time>
      </trkpt>
      <trkpt lat="44.57406" lon="0.85618">
        <ele>184</ele>
        <time>2018-03-03T16:20:09.511Z</time>
      </trkpt>
      <trkpt lat="44.57406" lon="0.85623">
        <ele>184</ele>
        <time>2018-03-03T16:20:10.511Z</time>
      </trkpt>
      <trkpt lat="44.57406" lon="0.85628">
        <ele>184</ele>
        <time>2018-03-03T16:20:11.511Z</time>
      </trkpt>
      <trkpt lat="44.57406" lon="0.85633">
        <ele>184</ele>
        <time>2018-03-03T16:20:12.511Z</time>
      </trkpt>
      <trkpt lat="44.57406" lon="0.85638">
        <ele>184</ele>
        <time>2018-03-03T16:20:13.511Z</time>
      </trkpt>
      <trkpt lat="44.57407" lon="0.85644">
        <ele>184</ele>
        <time>2018-03-03T16:20:14.511Z</time>
      </trkpt>
      <trkpt lat="44.57407" lon="0.85649">
        <ele>184</ele>
        <time>2018-03-03T16:20:15.511Z</time>
      </trkpt>
      <trkpt lat="44.57407" lon="0.85655">
        <ele>184</ele>
        <time>2018-03-03T16:20:16.511Z</time>
      </trkpt>
      <trkpt lat="44.57408" lon="0.85661">
        <ele>185</ele>
        <time>2018-03-03T16:20:17.511Z</time>
      </trkpt>
      <trkpt lat="44.57408" lon="0.85667">
        <ele>185</ele>
        <time>2018-03-03T16:20:18.511Z</time>
      </trkpt>
      <trkpt lat="44.57408" lon="0.85673">
        <ele>185</ele>
        <time>2018-03-03T16:20:19.511Z</time>
      </trkpt>
      <trkpt lat="44.57408" lon="0.85678">
        <ele>185</ele>
        <time>2018-03-03T16:20:20.511Z</time>
      </trkpt>
      <trkpt lat="44.57408" lon="0.85684">
        <ele>185</ele>
        <time>2018-03-03T16:20:21.511Z</time>
      </trkpt>
      <trkpt lat="44.57408" lon="0.85689">
        <ele>185</ele>
        <time>2018-03-03T16:20:22.511Z</time>
      </trkpt>
      <trkpt lat="44.57408" lon="0.85695">
        <ele>185</ele>
        <time>2018-03-03T16:20:23.511Z</time>
      </trkpt>
      <trkpt lat="44.57408" lon="0.857">
        <ele>186</ele>
        <time>2018-03-03T16:20:24.511Z</time>
      </trkpt>
      <trkpt lat="44.57408" lon="0.85704">
        <ele>186</ele>
        <time>2018-03-03T16:20:25.511Z</time>
      </trkpt>
      <trkpt lat="44.57407" lon="0.85709">
        <ele>186</ele>
        <time>2018-03-03T16:20:26.511Z</time>
      </trkpt>
      <trkpt lat="44.57407" lon="0.85714">
        <ele>186</ele>
        <time>2018-03-03T16:20:27.511Z</time>
      </trkpt>
      <trkpt lat="44.57407" lon="0.85719">
        <ele>186</ele>
        <time>2018-03-03T16:20:28.511Z</time>
      </trkpt>
      <trkpt lat="44.57407" lon="0.85724">
        <ele>185</ele>
        <time>2018-03-03T16:20:29.511Z</time>
      </trkpt>
      <trkpt lat="44.57407" lon="0.8573">
        <ele>185</ele>
        <time>2018-03-03T16:20:30.511Z</time>
      </trkpt>
      <trkpt lat="44.57407" lon="0.85736">
        <ele>185</ele>
        <time>2018-03-03T16:20:31.511Z</time>
      </trkpt>
      <trkpt lat="44.57407" lon="0.85742">
        <ele>185</ele>
        <time>2018-03-03T16:20:32.511Z</time>
      </trkpt>
      <trkpt lat="44.57408" lon="0.85748">
        <ele>185</ele>
        <time>2018-03-03T16:20:33.511Z</time>
      </trkpt>
      <trkpt lat="44.57409" lon="0.85754">
        <ele>185</ele>
        <time>2018-03-03T16:20:34.511Z</time>
      </trkpt>
      <trkpt lat="44.57409" lon="0.8576">
        <ele>185</ele>
        <time>2018-03-03T16:20:35.511Z</time>
      </trkpt>
      <trkpt lat="44.5741" lon="0.85767">
        <ele>185</ele>
        <time>2018-03-03T16:20:36.511Z</time>
      </trkpt>
      <trkpt lat="44.5741" lon="0.85773">
        <ele>185</ele>
        <time>2018-03-03T16:20:37.511Z</time>
      </trkpt>
      <trkpt lat="44.5741" lon="0.85779">
        <ele>185</ele>
        <time>2018-03-03T16:20:38.511Z</time>
      </trkpt>
      <trkpt lat="44.57409" lon="0.85785">
        <ele>185</ele>
        <time>2018-03-03T16:20:39.511Z</time>
      </trkpt>
      <trkpt lat="44.57408" lon="0.85791">
        <ele>185</ele>
        <time>2018-03-03T16:20:40.511Z</time>
      </trkpt>
      <trkpt lat="44.57406" lon="0.85797">
        <ele>185</ele>
        <time>2018-03-03T16:20:41.511Z</time>
      </trkpt>
      <trkpt lat="44.57405" lon="0.85803">
        <ele>185</ele>
        <time>2018-03-03T16:20:42.511Z</time>
      </trkpt>
      <trkpt lat="44.57404" lon="0.85809">
        <ele>185</ele>
        <time>2018-03-03T16:20:43.511Z</time>
      </trkpt>
      <trkpt lat="44.57403" lon="0.85814">
        <ele>185</ele>
        <time>2018-03-03T16:20:44.511Z</time>
      </trkpt>
      <trkpt lat="44.57401" lon="0.8582">
        <ele>185</ele>
        <time>2018-03-03T16:20:45.511Z</time>
      </trkpt>
      <trkpt lat="44.574" lon="0.85825">
        <ele>185</ele>
        <time>2018-03-03T16:20:46.511Z</time>
      </trkpt>
      <trkpt lat="44.57399" lon="0.85831">
        <ele>185</ele>
        <time>2018-03-03T16:20:47.511Z</time>
      </trkpt>
      <trkpt lat="44.57398" lon="0.85836">
        <ele>185</ele>
        <time>2018-03-03T16:20:48.511Z</time>
      </trkpt>
      <trkpt lat="44.57398" lon="0.85842">
        <ele>185</ele>
        <time>2018-03-03T16:20:49.511Z</time>
      </trkpt>
      <trkpt lat="44.57397" lon="0.85848">
        <ele>185</ele>
        <time>2018-03-03T16:20:50.511Z</time>
      </trkpt>
      <trkpt lat="44.57396" lon="0.85854">
        <ele>186</ele>
        <time>2018-03-03T16:20:51.511Z</time>
      </trkpt>
      <trkpt lat="44.57395" lon="0.85859">
        <ele>186</ele>
        <time>2018-03-03T16:20:52.511Z</time>
      </trkpt>
      <trkpt lat="44.57394" lon="0.85865">
        <ele>186</ele>
        <time>2018-03-03T16:20:53.511Z</time>
      </trkpt>
      <trkpt lat="44.57393" lon="0.8587">
        <ele>186</ele>
        <time>2018-03-03T16:20:54.511Z</time>
      </trkpt>
      <trkpt lat="44.57392" lon="0.85875">
        <ele>186</ele>
        <time>2018-03-03T16:20:55.511Z</time>
      </trkpt>
      <trkpt lat="44.57391" lon="0.8588">
        <ele>186</ele>
        <time>2018-03-03T16:20:56.511Z</time>
      </trkpt>
      <trkpt lat="44.57389" lon="0.85884">
        <ele>186</ele>
        <time>2018-03-03T16:20:57.511Z</time>
      </trkpt>
      <trkpt lat="44.57388" lon="0.85888">
        <ele>186</ele>
        <time>2018-03-03T16:20:58.511Z</time>
      </trkpt>
      <trkpt lat="44.57386" lon="0.85892">
        <ele>186</ele>
        <time>2018-03-03T16:20:59.511Z</time>
      </trkpt>
      <trkpt lat="44.57384" lon="0.85896">
        <ele>186</ele>
        <time>2018-03-03T16:21:00.511Z</time>
      </trkpt>
      <trkpt lat="44.57383" lon="0.859">
        <ele>186</ele>
        <time>2018-03-03T16:21:01.511Z</time>
      </trkpt>
      <trkpt lat="44.57381" lon="0.85905">
        <ele>186</ele>
        <time>2018-03-03T16:21:02.511Z</time>
      </trkpt>
      <trkpt lat="44.57379" lon="0.8591">
        <ele>187</ele>
        <time>2018-03-03T16:21:03.511Z</time>
      </trkpt>
      <trkpt lat="44.57378" lon="0.85915">
        <ele>187</ele>
        <time>2018-03-03T16:21:04.511Z</time>
      </trkpt>
      <trkpt lat="44.57376" lon="0.85921">
        <ele>187</ele>
        <time>2018-03-03T16:21:05.511Z</time>
      </trkpt>
      <trkpt lat="44.57374" lon="0.85926">
        <ele>187</ele>
        <time>2018-03-03T16:21:06.511Z</time>
      </trkpt>
      <trkpt lat="44.57373" lon="0.85932">
        <ele>187</ele>
        <time>2018-03-03T16:21:07.511Z</time>
      </trkpt>
      <trkpt lat="44.57371" lon="0.85937">
        <ele>187</ele>
        <time>2018-03-03T16:21:08.511Z</time>
      </trkpt>
      <trkpt lat="44.57369" lon="0.85942">
        <ele>187</ele>
        <time>2018-03-03T16:21:09.511Z</time>
      </trkpt>
      <trkpt lat="44.57368" lon="0.85947">
        <ele>187</ele>
        <time>2018-03-03T16:21:10.511Z</time>
      </trkpt>
      <trkpt lat="44.57366" lon="0.85951">
        <ele>187</ele>
        <time>2018-03-03T16:21:11.511Z</time>
      </trkpt>
      <trkpt lat="44.57364" lon="0.85955">
        <ele>188</ele>
        <time>2018-03-03T16:21:12.511Z</time>
      </trkpt>
      <trkpt lat="44.57363" lon="0.85959">
        <ele>188</ele>
        <time>2018-03-03T16:21:13.511Z</time>
      </trkpt>
      <trkpt lat="44.57361" lon="0.85962">
        <ele>188</ele>
        <time>2018-03-03T16:21:14.511Z</time>
      </trkpt>
      <trkpt lat="44.57359" lon="0.85966">
        <ele>188</ele>
        <time>2018-03-03T16:21:15.511Z</time>
      </trkpt>
      <trkpt lat="44.57357" lon="0.85969">
        <ele>188</ele>
        <time>2018-03-03T16:21:16.511Z</time>
      </trkpt>
      <trkpt lat="44.57355" lon="0.85972">
        <ele>188</ele>
        <time>2018-03-03T16:21:17.511Z</time>
      </trkpt>
      <trkpt lat="44.57354" lon="0.85975">
        <ele>188</ele>
        <time>2018-03-03T16:21:18.511Z</time>
      </trkpt>
      <trkpt lat="44.57352" lon="0.85979">
        <ele>188</ele>
        <time>2018-03-03T16:21:19.511Z</time>
      </trkpt>
      <trkpt lat="44.5735" lon="0.85982">
        <ele>188</ele>
        <time>2018-03-03T16:21:20.511Z</time>
      </trkpt>
      <trkpt lat="44.57348" lon="0.85986">
        <ele>188</ele>
        <time>2018-03-03T16:21:21.511Z</time>
      </trkpt>
      <trkpt lat="44.57346" lon="0.8599">
        <ele>188</ele>
        <time>2018-03-03T16:21:22.511Z</time>
      </trkpt>
      <trkpt lat="44.57344" lon="0.85994">
        <ele>188</ele>
        <time>2018-03-03T16:21:23.511Z</time>
      </trkpt>
      <trkpt lat="44.57342" lon="0.85998">
        <ele>188</ele>
        <time>2018-03-03T16:21:24.511Z</time>
      </trkpt>
      <trkpt lat="44.5734" lon="0.86003">
        <ele>188</ele>
        <time>2018-03-03T16:21:25.511Z</time>
      </trkpt>
      <trkpt lat="44.57337" lon="0.86008">
        <ele>188</ele>
        <time>2018-03-03T16:21:26.511Z</time>
      </trkpt>
      <trkpt lat="44.57335" lon="0.86013">
        <ele>188</ele>
        <time>2018-03-03T16:21:27.511Z</time>
      </trkpt>
      <trkpt lat="44.57332" lon="0.86018">
        <ele>188</ele>
        <time>2018-03-03T16:21:28.511Z</time>
      </trkpt>
      <trkpt lat="44.5733" lon="0.86023">
        <ele>188</ele>
        <time>2018-03-03T16:21:29.511Z</time>
      </trkpt>
      <trkpt lat="44.57328" lon="0.86028">
        <ele>189</ele>
        <time>2018-03-03T16:21:30.511Z</time>
      </trkpt>
      <trkpt lat="44.57326" lon="0.86034">
        <ele>189</ele>
        <time>2018-03-03T16:21:31.511Z</time>
      </trkpt>
      <trkpt lat="44.57324" lon="0.86039">
        <ele>189</ele>
        <time>2018-03-03T16:21:32.511Z</time>
      </trkpt>
      <trkpt lat="44.57323" lon="0.86044">
        <ele>189</ele>
        <time>2018-03-03T16:21:33.511Z</time>
      </trkpt>
      <trkpt lat="44.57322" lon="0.86049">
        <ele>189</ele>
        <time>2018-03-03T16:21:34.511Z</time>
      </trkpt>
      <trkpt lat="44.57321" lon="0.86054">
        <ele>190</ele>
        <time>2018-03-03T16:21:35.511Z</time>
      </trkpt>
      <trkpt lat="44.5732" lon="0.86059">
        <ele>190</ele>
        <time>2018-03-03T16:21:36.511Z</time>
      </trkpt>
      <trkpt lat="44.57319" lon="0.86063">
        <ele>190</ele>
        <time>2018-03-03T16:21:37.511Z</time>
      </trkpt>
      <trkpt lat="44.57319" lon="0.86068">
        <ele>190</ele>
        <time>2018-03-03T16:21:38.511Z</time>
      </trkpt>
      <trkpt lat="44.57318" lon="0.86073">
        <ele>190</ele>
        <time>2018-03-03T16:21:39.511Z</time>
      </trkpt>
      <trkpt lat="44.57317" lon="0.86077">
        <ele>190</ele>
        <time>2018-03-03T16:21:40.511Z</time>
      </trkpt>
      <trkpt lat="44.57317" lon="0.86083">
        <ele>191</ele>
        <time>2018-03-03T16:21:41.511Z</time>
      </trkpt>
      <trkpt lat="44.57316" lon="0.86088">
        <ele>191</ele>
        <time>2018-03-03T16:21:42.511Z</time>
      </trkpt>
      <trkpt lat="44.57315" lon="0.86093">
        <ele>191</ele>
        <time>2018-03-03T16:21:43.511Z</time>
      </trkpt>
      <trkpt lat="44.57314" lon="0.86098">
        <ele>191</ele>
        <time>2018-03-03T16:21:44.511Z</time>
      </trkpt>
      <trkpt lat="44.57314" lon="0.86103">
        <ele>191</ele>
        <time>2018-03-03T16:21:45.511Z</time>
      </trkpt>
      <trkpt lat="44.57313" lon="0.86109">
        <ele>191</ele>
        <time>2018-03-03T16:21:46.511Z</time>
      </trkpt>
      <trkpt lat="44.57313" lon="0.86114">
        <ele>192</ele>
        <time>2018-03-03T16:21:47.511Z</time>
      </trkpt>
      <trkpt lat="44.57313" lon="0.86119">
        <ele>192</ele>
        <time>2018-03-03T16:21:48.511Z</time>
      </trkpt>
      <trkpt lat="44.57313" lon="0.86125">
        <ele>192</ele>
        <time>2018-03-03T16:21:49.511Z</time>
      </trkpt>
      <trkpt lat="44.57313" lon="0.8613">
        <ele>192</ele>
        <time>2018-03-03T16:21:50.511Z</time>
      </trkpt>
      <trkpt lat="44.57313" lon="0.86136">
        <ele>192</ele>
        <time>2018-03-03T16:21:51.511Z</time>
      </trkpt>
      <trkpt lat="44.57314" lon="0.86141">
        <ele>192</ele>
        <time>2018-03-03T16:21:52.511Z</time>
      </trkpt>
      <trkpt lat="44.57314" lon="0.86147">
        <ele>192</ele>
        <time>2018-03-03T16:21:53.511Z</time>
      </trkpt>
      <trkpt lat="44.57314" lon="0.86153">
        <ele>193</ele>
        <time>2018-03-03T16:21:54.511Z</time>
      </trkpt>
      <trkpt lat="44.57315" lon="0.86158">
        <ele>193</ele>
        <time>2018-03-03T16:21:55.511Z</time>
      </trkpt>
      <trkpt lat="44.57315" lon="0.86164">
        <ele>193</ele>
        <time>2018-03-03T16:21:56.511Z</time>
      </trkpt>
      <trkpt lat="44.57315" lon="0.86169">
        <ele>193</ele>
        <time>2018-03-03T16:21:57.511Z</time>
      </trkpt>
      <trkpt lat="44.57316" lon="0.86174">
        <ele>193</ele>
        <time>2018-03-03T16:21:58.511Z</time>
      </trkpt>
      <trkpt lat="44.57316" lon="0.8618">
        <ele>193</ele>
        <time>2018-03-03T16:21:59.511Z</time>
      </trkpt>
      <trkpt lat="44.57316" lon="0.86185">
        <ele>193</ele>
        <time>2018-03-03T16:22:00.511Z</time>
      </trkpt>
      <trkpt lat="44.57317" lon="0.8619">
        <ele>194</ele>
        <time>2018-03-03T16:22:01.511Z</time>
      </trkpt>
      <trkpt lat="44.57317" lon="0.86195">
        <ele>194</ele>
        <time>2018-03-03T16:22:02.511Z</time>
      </trkpt>
      <trkpt lat="44.57317" lon="0.862">
        <ele>194</ele>
        <time>2018-03-03T16:22:03.511Z</time>
      </trkpt>
      <trkpt lat="44.57318" lon="0.86206">
        <ele>194</ele>
        <time>2018-03-03T16:22:04.511Z</time>
      </trkpt>
      <trkpt lat="44.57318" lon="0.86211">
        <ele>194</ele>
        <time>2018-03-03T16:22:05.511Z</time>
      </trkpt>
      <trkpt lat="44.57318" lon="0.86216">
        <ele>194</ele>
        <time>2018-03-03T16:22:06.511Z</time>
      </trkpt>
      <trkpt lat="44.57319" lon="0.86221">
        <ele>195</ele>
        <time>2018-03-03T16:22:07.511Z</time>
      </trkpt>
      <trkpt lat="44.57319" lon="0.86226">
        <ele>195</ele>
        <time>2018-03-03T16:22:08.511Z</time>
      </trkpt>
      <trkpt lat="44.5732" lon="0.86231">
        <ele>195</ele>
        <time>2018-03-03T16:22:09.511Z</time>
      </trkpt>
      <trkpt lat="44.5732" lon="0.86237">
        <ele>195</ele>
        <time>2018-03-03T16:22:10.511Z</time>
      </trkpt>
      <trkpt lat="44.57321" lon="0.86242">
        <ele>195</ele>
        <time>2018-03-03T16:22:11.511Z</time>
      </trkpt>
      <trkpt lat="44.57321" lon="0.86247">
        <ele>195</ele>
        <time>2018-03-03T16:22:12.511Z</time>
      </trkpt>
      <trkpt lat="44.57322" lon="0.86252">
        <ele>196</ele>
        <time>2018-03-03T16:22:13.511Z</time>
      </trkpt>
      <trkpt lat="44.57322" lon="0.86257">
        <ele>196</ele>
        <time>2018-03-03T16:22:14.511Z</time>
      </trkpt>
      <trkpt lat="44.57323" lon="0.86262">
        <ele>196</ele>
        <time>2018-03-03T16:22:15.511Z</time>
      </trkpt>
      <trkpt lat="44.57323" lon="0.86268">
        <ele>196</ele>
        <time>2018-03-03T16:22:16.511Z</time>
      </trkpt>
      <trkpt lat="44.57324" lon="0.86273">
        <ele>196</ele>
        <time>2018-03-03T16:22:17.511Z</time>
      </trkpt>
      <trkpt lat="44.57324" lon="0.86278">
        <ele>196</ele>
        <time>2018-03-03T16:22:18.511Z</time>
      </trkpt>
      <trkpt lat="44.57325" lon="0.86283">
        <ele>197</ele>
        <time>2018-03-03T16:22:19.511Z</time>
      </trkpt>
      <trkpt lat="44.57325" lon="0.86288">
        <ele>197</ele>
        <time>2018-03-03T16:22:20.511Z</time>
      </trkpt>
      <trkpt lat="44.57326" lon="0.86293">
        <ele>197</ele>
        <time>2018-03-03T16:22:21.511Z</time>
      </trkpt>
      <trkpt lat="44.57327" lon="0.86298">
        <ele>197</ele>
        <time>2018-03-03T16:22:22.511Z</time>
      </trkpt>
      <trkpt lat="44.57328" lon="0.86303">
        <ele>197</ele>
        <time>2018-03-03T16:22:23.511Z</time>
      </trkpt>
      <trkpt lat="44.57329" lon="0.86308">
        <ele>197</ele>
        <time>2018-03-03T16:22:24.511Z</time>
      </trkpt>
      <trkpt lat="44.5733" lon="0.86313">
        <ele>197</ele>
        <time>2018-03-03T16:22:25.511Z</time>
      </trkpt>
      <trkpt lat="44.5733" lon="0.86317">
        <ele>197</ele>
        <time>2018-03-03T16:22:26.511Z</time>
      </trkpt>
      <trkpt lat="44.57331" lon="0.86322">
        <ele>197</ele>
        <time>2018-03-03T16:22:27.511Z</time>
      </trkpt>
      <trkpt lat="44.57331" lon="0.86326">
        <ele>197</ele>
        <time>2018-03-03T16:22:28.511Z</time>
      </trkpt>
      <trkpt lat="44.57332" lon="0.86331">
        <ele>197</ele>
        <time>2018-03-03T16:22:29.511Z</time>
      </trkpt>
      <trkpt lat="44.57332" lon="0.86336">
        <ele>197</ele>
        <time>2018-03-03T16:22:30.511Z</time>
      </trkpt>
      <trkpt lat="44.57332" lon="0.86341">
        <ele>197</ele>
        <time>2018-03-03T16:22:31.511Z</time>
      </trkpt>
      <trkpt lat="44.57333" lon="0.86346">
        <ele>197</ele>
        <time>2018-03-03T16:22:32.511Z</time>
      </trkpt>
      <trkpt lat="44.57333" lon="0.86351">
        <ele>197</ele>
        <time>2018-03-03T16:22:33.511Z</time>
      </trkpt>
      <trkpt lat="44.57334" lon="0.86356">
        <ele>197</ele>
        <time>2018-03-03T16:22:34.511Z</time>
      </trkpt>
      <trkpt lat="44.57335" lon="0.86361">
        <ele>197</ele>
        <time>2018-03-03T16:22:35.511Z</time>
      </trkpt>
      <trkpt lat="44.57335" lon="0.86366">
        <ele>197</ele>
        <time>2018-03-03T16:22:36.511Z</time>
      </trkpt>
      <trkpt lat="44.57336" lon="0.86371">
        <ele>197</ele>
        <time>2018-03-03T16:22:37.511Z</time>
      </trkpt>
      <trkpt lat="44.57337" lon="0.86376">
        <ele>197</ele>
        <time>2018-03-03T16:22:38.511Z</time>
      </trkpt>
      <trkpt lat="44.57338" lon="0.8638">
        <ele>197</ele>
        <time>2018-03-03T16:22:39.511Z</time>
      </trkpt>
      <trkpt lat="44.57339" lon="0.86385">
        <ele>197</ele>
        <time>2018-03-03T16:22:40.511Z</time>
      </trkpt>
      <trkpt lat="44.57341" lon="0.8639">
        <ele>197</ele>
        <time>2018-03-03T16:22:41.511Z</time>
      </trkpt>
      <trkpt lat="44.57342" lon="0.86394">
        <ele>197</ele>
        <time>2018-03-03T16:22:42.511Z</time>
      </trkpt>
      <trkpt lat="44.57344" lon="0.86399">
        <ele>198</ele>
        <time>2018-03-03T16:22:43.511Z</time>
      </trkpt>
      <trkpt lat="44.57345" lon="0.86404">
        <ele>198</ele>
        <time>2018-03-03T16:22:44.511Z</time>
      </trkpt>
      <trkpt lat="44.57347" lon="0.86409">
        <ele>198</ele>
        <time>2018-03-03T16:22:45.511Z</time>
      </trkpt>
      <trkpt lat="44.57349" lon="0.86414">
        <ele>198</ele>
        <time>2018-03-03T16:22:46.511Z</time>
      </trkpt>
      <trkpt lat="44.57351" lon="0.86419">
        <ele>198</ele>
        <time>2018-03-03T16:22:47.511Z</time>
      </trkpt>
      <trkpt lat="44.57353" lon="0.86424">
        <ele>198</ele>
        <time>2018-03-03T16:22:48.511Z</time>
      </trkpt>
      <trkpt lat="44.57354" lon="0.86429">
        <ele>198</ele>
        <time>2018-03-03T16:22:49.511Z</time>
      </trkpt>
      <trkpt lat="44.57355" lon="0.86434">
        <ele>198</ele>
        <time>2018-03-03T16:22:50.511Z</time>
      </trkpt>
      <trkpt lat="44.57356" lon="0.86439">
        <ele>198</ele>
        <time>2018-03-03T16:22:51.511Z</time>
      </trkpt>
      <trkpt lat="44.57356" lon="0.86445">
        <ele>198</ele>
        <time>2018-03-03T16:22:52.511Z</time>
      </trkpt>
      <trkpt lat="44.57357" lon="0.8645">
        <ele>198</ele>
        <time>2018-03-03T16:22:53.511Z</time>
      </trkpt>
      <trkpt lat="44.57356" lon="0.86456">
        <ele>198</ele>
        <time>2018-03-03T16:22:54.511Z</time>
      </trkpt>
      <trkpt lat="44.57356" lon="0.86461">
        <ele>198</ele>
        <time>2018-03-03T16:22:55.511Z</time>
      </trkpt>
      <trkpt lat="44.57356" lon="0.86467">
        <ele>198</ele>
        <time>2018-03-03T16:22:56.511Z</time>
      </trkpt>
      <trkpt lat="44.57355" lon="0.86472">
        <ele>198</ele>
        <time>2018-03-03T16:22:57.511Z</time>
      </trkpt>
      <trkpt lat="44.57354" lon="0.86478">
        <ele>198</ele>
        <time>2018-03-03T16:22:58.511Z</time>
      </trkpt>
      <trkpt lat="44.57353" lon="0.86483">
        <ele>198</ele>
        <time>2018-03-03T16:22:59.511Z</time>
      </trkpt>
      <trkpt lat="44.57352" lon="0.86488">
        <ele>198</ele>
        <time>2018-03-03T16:23:00.511Z</time>
      </trkpt>
      <trkpt lat="44.57351" lon="0.86494">
        <ele>198</ele>
        <time>2018-03-03T16:23:01.511Z</time>
      </trkpt>
      <trkpt lat="44.5735" lon="0.86499">
        <ele>198</ele>
        <time>2018-03-03T16:23:02.511Z</time>
      </trkpt>
      <trkpt lat="44.57349" lon="0.86505">
        <ele>198</ele>
        <time>2018-03-03T16:23:03.511Z</time>
      </trkpt>
      <trkpt lat="44.57347" lon="0.8651">
        <ele>198</ele>
        <time>2018-03-03T16:23:04.511Z</time>
      </trkpt>
      <trkpt lat="44.57346" lon="0.86516">
        <ele>198</ele>
        <time>2018-03-03T16:23:05.511Z</time>
      </trkpt>
      <trkpt lat="44.57344" lon="0.86521">
        <ele>198</ele>
        <time>2018-03-03T16:23:06.511Z</time>
      </trkpt>
      <trkpt lat="44.57342" lon="0.86526">
        <ele>198</ele>
        <time>2018-03-03T16:23:07.511Z</time>
      </trkpt>
      <trkpt lat="44.57341" lon="0.86532">
        <ele>198</ele>
        <time>2018-03-03T16:23:08.511Z</time>
      </trkpt>
      <trkpt lat="44.57339" lon="0.86537">
        <ele>198</ele>
        <time>2018-03-03T16:23:09.511Z</time>
      </trkpt>
      <trkpt lat="44.57337" lon="0.86543">
        <ele>198</ele>
        <time>2018-03-03T16:23:10.511Z</time>
      </trkpt>
      <trkpt lat="44.57335" lon="0.86548">
        <ele>198</ele>
        <time>2018-03-03T16:23:11.511Z</time>
      </trkpt>
      <trkpt lat="44.57333" lon="0.86553">
        <ele>198</ele>
        <time>2018-03-03T16:23:12.511Z</time>
      </trkpt>
      <trkpt lat="44.57331" lon="0.86559">
        <ele>198</ele>
        <time>2018-03-03T16:23:13.511Z</time>
      </trkpt>
      <trkpt lat="44.57329" lon="0.86564">
        <ele>198</ele>
        <time>2018-03-03T16:23:14.511Z</time>
      </trkpt>
      <trkpt lat="44.57327" lon="0.8657">
        <ele>198</ele>
        <time>2018-03-03T16:23:15.511Z</time>
      </trkpt>
      <trkpt lat="44.57325" lon="0.86575">
        <ele>198</ele>
        <time>2018-03-03T16:23:16.511Z</time>
      </trkpt>
      <trkpt lat="44.57323" lon="0.86581">
        <ele>198</ele>
        <time>2018-03-03T16:23:17.511Z</time>
      </trkpt>
      <trkpt lat="44.57321" lon="0.86586">
        <ele>198</ele>
        <time>2018-03-03T16:23:18.511Z</time>
      </trkpt>
      <trkpt lat="44.57319" lon="0.86592">
        <ele>198</ele>
        <time>2018-03-03T16:23:19.511Z</time>
      </trkpt>
      <trkpt lat="44.57317" lon="0.86597">
        <ele>198</ele>
        <time>2018-03-03T16:23:20.511Z</time>
      </trkpt>
      <trkpt lat="44.57315" lon="0.86603">
        <ele>198</ele>
        <time>2018-03-03T16:23:21.511Z</time>
      </trkpt>
      <trkpt lat="44.57312" lon="0.86608">
        <ele>198</ele>
        <time>2018-03-03T16:23:22.511Z</time>
      </trkpt>
      <trkpt lat="44.5731" lon="0.86614">
        <ele>198</ele>
        <time>2018-03-03T16:23:23.511Z</time>
      </trkpt>
      <trkpt lat="44.57308" lon="0.86619">
        <ele>198</ele>
        <time>2018-03-03T16:23:24.511Z</time>
      </trkpt>
      <trkpt lat="44.57306" lon="0.86625">
        <ele>198</ele>
        <time>2018-03-03T16:23:25.511Z</time>
      </trkpt>
      <trkpt lat="44.57303" lon="0.86631">
        <ele>198</ele>
        <time>2018-03-03T16:23:26.511Z</time>
      </trkpt>
      <trkpt lat="44.57301" lon="0.86636">
        <ele>198</ele>
        <time>2018-03-03T16:23:27.511Z</time>
      </trkpt>
      <trkpt lat="44.57299" lon="0.86642">
        <ele>198</ele>
        <time>2018-03-03T16:23:28.511Z</time>
      </trkpt>
      <trkpt lat="44.57297" lon="0.86648">
        <ele>198</ele>
        <time>2018-03-03T16:23:29.511Z</time>
      </trkpt>
      <trkpt lat="44.57295" lon="0.86653">
        <ele>197</ele>
        <time>2018-03-03T16:23:30.511Z</time>
      </trkpt>
      <trkpt lat="44.57292" lon="0.86659">
        <ele>197</ele>
        <time>2018-03-03T16:23:31.511Z</time>
      </trkpt>
      <trkpt lat="44.5729" lon="0.86664">
        <ele>197</ele>
        <time>2018-03-03T16:23:32.511Z</time>
      </trkpt>
      <trkpt lat="44.57288" lon="0.8667">
        <ele>197</ele>
        <time>2018-03-03T16:23:33.511Z</time>
      </trkpt>
      <trkpt lat="44.57286" lon="0.86675">
        <ele>197</ele>
        <time>2018-03-03T16:23:34.511Z</time>
      </trkpt>
      <trkpt lat="44.57284" lon="0.8668">
        <ele>197</ele>
        <time>2018-03-03T16:23:35.511Z</time>
      </trkpt>
      <trkpt lat="44.57282" lon="0.86685">
        <ele>197</ele>
        <time>2018-03-03T16:23:36.511Z</time>
      </trkpt>
      <trkpt lat="44.5728" lon="0.8669">
        <ele>197</ele>
        <time>2018-03-03T16:23:37.511Z</time>
      </trkpt>
      <trkpt lat="44.57278" lon="0.86696">
        <ele>197</ele>
        <time>2018-03-03T16:23:38.511Z</time>
      </trkpt>
      <trkpt lat="44.57276" lon="0.86701">
        <ele>197</ele>
        <time>2018-03-03T16:23:39.511Z</time>
      </trkpt>
      <trkpt lat="44.57274" lon="0.86706">
        <ele>196</ele>
        <time>2018-03-03T16:23:40.511Z</time>
      </trkpt>
      <trkpt lat="44.57271" lon="0.86711">
        <ele>196</ele>
        <time>2018-03-03T16:23:41.511Z</time>
      </trkpt>
      <trkpt lat="44.57269" lon="0.86717">
        <ele>196</ele>
        <time>2018-03-03T16:23:42.511Z</time>
      </trkpt>
      <trkpt lat="44.57267" lon="0.86722">
        <ele>196</ele>
        <time>2018-03-03T16:23:43.511Z</time>
      </trkpt>
      <trkpt lat="44.57264" lon="0.86728">
        <ele>196</ele>
        <time>2018-03-03T16:23:44.511Z</time>
      </trkpt>
      <trkpt lat="44.57261" lon="0.86734">
        <ele>196</ele>
        <time>2018-03-03T16:23:45.511Z</time>
      </trkpt>
      <trkpt lat="44.57259" lon="0.8674">
        <ele>196</ele>
        <time>2018-03-03T16:23:46.511Z</time>
      </trkpt>
      <trkpt lat="44.57256" lon="0.86746">
        <ele>196</ele>
        <time>2018-03-03T16:23:47.511Z</time>
      </trkpt>
      <trkpt lat="44.57253" lon="0.86751">
        <ele>196</ele>
        <time>2018-03-03T16:23:48.511Z</time>
      </trkpt>
      <trkpt lat="44.57251" lon="0.86757">
        <ele>196</ele>
        <time>2018-03-03T16:23:49.511Z</time>
      </trkpt>
      <trkpt lat="44.57248" lon="0.86762">
        <ele>196</ele>
        <time>2018-03-03T16:23:50.511Z</time>
      </trkpt>
      <trkpt lat="44.57246" lon="0.86768">
        <ele>196</ele>
        <time>2018-03-03T16:23:51.511Z</time>
      </trkpt>
      <trkpt lat="44.57244" lon="0.86773">
        <ele>196</ele>
        <time>2018-03-03T16:23:52.511Z</time>
      </trkpt>
      <trkpt lat="44.57242" lon="0.86779">
        <ele>197</ele>
        <time>2018-03-03T16:23:53.511Z</time>
      </trkpt>
      <trkpt lat="44.57241" lon="0.86784">
        <ele>197</ele>
        <time>2018-03-03T16:23:54.511Z</time>
      </trkpt>
      <trkpt lat="44.57239" lon="0.86789">
        <ele>197</ele>
        <time>2018-03-03T16:23:55.511Z</time>
      </trkpt>
      <trkpt lat="44.57238" lon="0.86795">
        <ele>197</ele>
        <time>2018-03-03T16:23:56.511Z</time>
      </trkpt>
      <trkpt lat="44.57236" lon="0.868">
        <ele>197</ele>
        <time>2018-03-03T16:23:57.511Z</time>
      </trkpt>
      <trkpt lat="44.57235" lon="0.86805">
        <ele>197</ele>
        <time>2018-03-03T16:23:58.511Z</time>
      </trkpt>
      <trkpt lat="44.57234" lon="0.86811">
        <ele>197</ele>
        <time>2018-03-03T16:23:59.511Z</time>
      </trkpt>
      <trkpt lat="44.57232" lon="0.86816">
        <ele>196</ele>
        <time>2018-03-03T16:24:00.511Z</time>
      </trkpt>
      <trkpt lat="44.5723" lon="0.86822">
        <ele>196</ele>
        <time>2018-03-03T16:24:01.511Z</time>
      </trkpt>
      <trkpt lat="44.57228" lon="0.86827">
        <ele>196</ele>
        <time>2018-03-03T16:24:02.511Z</time>
      </trkpt>
      <trkpt lat="44.57226" lon="0.86833">
        <ele>196</ele>
        <time>2018-03-03T16:24:03.511Z</time>
      </trkpt>
      <trkpt lat="44.57224" lon="0.86838">
        <ele>196</ele>
        <time>2018-03-03T16:24:04.511Z</time>
      </trkpt>
      <trkpt lat="44.57222" lon="0.86844">
        <ele>196</ele>
        <time>2018-03-03T16:24:05.511Z</time>
      </trkpt>
      <trkpt lat="44.57221" lon="0.8685">
        <ele>196</ele>
        <time>2018-03-03T16:24:06.511Z</time>
      </trkpt>
      <trkpt lat="44.57219" lon="0.86856">
        <ele>196</ele>
        <time>2018-03-03T16:24:07.511Z</time>
      </trkpt>
      <trkpt lat="44.57217" lon="0.86862">
        <ele>196</ele>
        <time>2018-03-03T16:24:08.511Z</time>
      </trkpt>
      <trkpt lat="44.57216" lon="0.86867">
        <ele>196</ele>
        <time>2018-03-03T16:24:09.511Z</time>
      </trkpt>
      <trkpt lat="44.57214" lon="0.86872">
        <ele>197</ele>
        <time>2018-03-03T16:24:10.511Z</time>
      </trkpt>
      <trkpt lat="44.57212" lon="0.86876">
        <ele>197</ele>
        <time>2018-03-03T16:24:11.511Z</time>
      </trkpt>
      <trkpt lat="44.5721" lon="0.8688">
        <ele>197</ele>
        <time>2018-03-03T16:24:12.511Z</time>
      </trkpt>
      <trkpt lat="44.57209" lon="0.86883">
        <ele>197</ele>
        <time>2018-03-03T16:24:13.511Z</time>
      </trkpt>
      <trkpt lat="44.57207" lon="0.86885">
        <ele>197</ele>
        <time>2018-03-03T16:24:14.511Z</time>
      </trkpt>
      <trkpt lat="44.57205" lon="0.86887">
        <ele>197</ele>
        <time>2018-03-03T16:24:15.511Z</time>
      </trkpt>
      <trkpt lat="44.57204" lon="0.86889">
        <ele>196</ele>
        <time>2018-03-03T16:24:16.511Z</time>
      </trkpt>
      <trkpt lat="44.57203" lon="0.86892">
        <ele>196</ele>
        <time>2018-03-03T16:24:17.511Z</time>
      </trkpt>
      <trkpt lat="44.57202" lon="0.86895">
        <ele>196</ele>
        <time>2018-03-03T16:24:18.511Z</time>
      </trkpt>
      <trkpt lat="44.57202" lon="0.86897">
        <ele>196</ele>
        <time>2018-03-03T16:24:19.511Z</time>
      </trkpt>
      <trkpt lat="44.57201" lon="0.86898">
        <ele>196</ele>
        <time>2018-03-03T16:24:20.511Z</time>
      </trkpt>
      <trkpt lat="44.57201" lon="0.86899">
        <ele>196</ele>
        <time>2018-03-03T16:24:21.511Z</time>
      </trkpt>
      <trkpt lat="44.57201" lon="0.869">
        <ele>196</ele>
        <time>2018-03-03T16:24:22.511Z</time>
      </trkpt>
      <trkpt lat="44.57201" lon="0.869">
        <ele>196</ele>
        <time>2018-03-03T16:24:23.511Z</time>
      </trkpt>
      <trkpt lat="44.57201" lon="0.869">
        <ele>196</ele>
        <time>2018-03-03T16:24:24.511Z</time>
      </trkpt>
      <trkpt lat="44.57201" lon="0.869">
        <ele>196</ele>
        <time>2018-03-03T16:24:25.511Z</time>
      </trkpt>
      <trkpt lat="44.57201" lon="0.869">
        <ele>196</ele>
        <time>2018-03-03T16:24:26.511Z</time>
      </trkpt>
      <trkpt lat="44.572" lon="0.869">
        <ele>196</ele>
        <time>2018-03-03T16:24:27.511Z</time>
      </trkpt>
      <trkpt lat="44.572" lon="0.86901">
        <ele>196</ele>
        <time>2018-03-03T16:24:28.511Z</time>
      </trkpt>
      <trkpt lat="44.57199" lon="0.86902">
        <ele>196</ele>
        <time>2018-03-03T16:24:29.511Z</time>
      </trkpt>
      <trkpt lat="44.57198" lon="0.86904">
        <ele>196</ele>
        <time>2018-03-03T16:24:30.511Z</time>
      </trkpt>
      <trkpt lat="44.57196" lon="0.86907">
        <ele>196</ele>
        <time>2018-03-03T16:24:31.511Z</time>
      </trkpt>
      <trkpt lat="44.57194" lon="0.86909">
        <ele>196</ele>
        <time>2018-03-03T16:24:32.511Z</time>
      </trkpt>
      <trkpt lat="44.57193" lon="0.86911">
        <ele>196</ele>
        <time>2018-03-03T16:24:33.511Z</time>
      </trkpt>
      <trkpt lat="44.57192" lon="0.86912">
        <ele>196</ele>
        <time>2018-03-03T16:24:34.511Z</time>
      </trkpt>
      <trkpt lat="44.57192" lon="0.86912">
        <ele>196</ele>
        <time>2018-03-03T16:24:35.511Z</time>
      </trkpt>
      <trkpt lat="44.57192" lon="0.86912">
        <ele>196</ele>
        <time>2018-03-03T16:24:36.511Z</time>
      </trkpt>
      <trkpt lat="44.57192" lon="0.86912">
        <ele>196</ele>
        <time>2018-03-03T16:24:37.511Z</time>
      </trkpt>
      <trkpt lat="44.57192" lon="0.86912">
        <ele>196</ele>
        <time>2018-03-03T16:24:38.511Z</time>
      </trkpt>
      <trkpt lat="44.57192" lon="0.86912">
        <ele>196</ele>
        <time>2018-03-03T16:24:39.511Z</time>
      </trkpt>
      <trkpt lat="44.57192" lon="0.86912">
        <ele>196</ele>
        <time>2018-03-03T16:24:40.511Z</time>
      </trkpt>
      <trkpt lat="44.57192" lon="0.86913">
        <ele>196</ele>
        <time>2018-03-03T16:24:41.511Z</time>
      </trkpt>
      <trkpt lat="44.57192" lon="0.86913">
        <ele>195</ele>
        <time>2018-03-03T16:24:42.511Z</time>
      </trkpt>
      <trkpt lat="44.57191" lon="0.86914">
        <ele>196</ele>
        <time>2018-03-03T16:24:43.511Z</time>
      </trkpt>
      <trkpt lat="44.57191" lon="0.86915">
        <ele>196</ele>
        <time>2018-03-03T16:24:44.511Z</time>
      </trkpt>
      <trkpt lat="44.57191" lon="0.86917">
        <ele>196</ele>
        <time>2018-03-03T16:24:45.511Z</time>
      </trkpt>
      <trkpt lat="44.5719" lon="0.8692">
        <ele>196</ele>
        <time>2018-03-03T16:24:46.511Z</time>
      </trkpt>
      <trkpt lat="44.57188" lon="0.86923">
        <ele>196</ele>
        <time>2018-03-03T16:24:47.511Z</time>
      </trkpt>
      <trkpt lat="44.57186" lon="0.86925">
        <ele>196</ele>
        <time>2018-03-03T16:24:48.511Z</time>
      </trkpt>
      <trkpt lat="44.57184" lon="0.86927">
        <ele>196</ele>
        <time>2018-03-03T16:24:49.511Z</time>
      </trkpt>
      <trkpt lat="44.57183" lon="0.86928">
        <ele>195</ele>
        <time>2018-03-03T16:24:50.511Z</time>
      </trkpt>
      <trkpt lat="44.57181" lon="0.86931">
        <ele>195</ele>
        <time>2018-03-03T16:24:51.511Z</time>
      </trkpt>
      <trkpt lat="44.5718" lon="0.86933">
        <ele>195</ele>
        <time>2018-03-03T16:24:52.511Z</time>
      </trkpt>
      <trkpt lat="44.57178" lon="0.86936">
        <ele>195</ele>
        <time>2018-03-03T16:24:53.511Z</time>
      </trkpt>
      <trkpt lat="44.57177" lon="0.86939">
        <ele>195</ele>
        <time>2018-03-03T16:24:54.511Z</time>
      </trkpt>
      <trkpt lat="44.57175" lon="0.86942">
        <ele>195</ele>
        <time>2018-03-03T16:24:55.511Z</time>
      </trkpt>
      <trkpt lat="44.57174" lon="0.86945">
        <ele>195</ele>
        <time>2018-03-03T16:24:56.511Z</time>
      </trkpt>
      <trkpt lat="44.57172" lon="0.86948">
        <ele>195</ele>
        <time>2018-03-03T16:24:57.511Z</time>
      </trkpt>
      <trkpt lat="44.57171" lon="0.8695">
        <ele>195</ele>
        <time>2018-03-03T16:24:58.511Z</time>
      </trkpt>
      <trkpt lat="44.5717" lon="0.86953">
        <ele>196</ele>
        <time>2018-03-03T16:24:59.511Z</time>
      </trkpt>
      <trkpt lat="44.57169" lon="0.86956">
        <ele>196</ele>
        <time>2018-03-03T16:25:00.511Z</time>
      </trkpt>
      <trkpt lat="44.57169" lon="0.8696">
        <ele>196</ele>
        <time>2018-03-03T16:25:01.511Z</time>
      </trkpt>
      <trkpt lat="44.57168" lon="0.86964">
        <ele>197</ele>
        <time>2018-03-03T16:25:02.511Z</time>
      </trkpt>
      <trkpt lat="44.57168" lon="0.86969">
        <ele>197</ele>
        <time>2018-03-03T16:25:03.511Z</time>
      </trkpt>
      <trkpt lat="44.57168" lon="0.86974">
        <ele>197</ele>
        <time>2018-03-03T16:25:04.511Z</time>
      </trkpt>
      <trkpt lat="44.57167" lon="0.86978">
        <ele>197</ele>
        <time>2018-03-03T16:25:05.511Z</time>
      </trkpt>
      <trkpt lat="44.57167" lon="0.86982">
        <ele>197</ele>
        <time>2018-03-03T16:25:06.511Z</time>
      </trkpt>
      <trkpt lat="44.57165" lon="0.86985">
        <ele>197</ele>
        <time>2018-03-03T16:25:07.511Z</time>
      </trkpt>
      <trkpt lat="44.57164" lon="0.86987">
        <ele>197</ele>
        <time>2018-03-03T16:25:08.511Z</time>
      </trkpt>
      <trkpt lat="44.57162" lon="0.86989">
        <ele>197</ele>
        <time>2018-03-03T16:25:09.511Z</time>
      </trkpt>
      <trkpt lat="44.57159" lon="0.86991">
        <ele>197</ele>
        <time>2018-03-03T16:25:10.511Z</time>
      </trkpt>
      <trkpt lat="44.57156" lon="0.86993">
        <ele>197</ele>
        <time>2018-03-03T16:25:11.511Z</time>
      </trkpt>
      <trkpt lat="44.57154" lon="0.86995">
        <ele>197</ele>
        <time>2018-03-03T16:25:12.511Z</time>
      </trkpt>
      <trkpt lat="44.5715" lon="0.86998">
        <ele>197</ele>
        <time>2018-03-03T16:25:13.511Z</time>
      </trkpt>
      <trkpt lat="44.57147" lon="0.87001">
        <ele>197</ele>
        <time>2018-03-03T16:25:14.511Z</time>
      </trkpt>
      <trkpt lat="44.57144" lon="0.87003">
        <ele>197</ele>
        <time>2018-03-03T16:25:15.511Z</time>
      </trkpt>
      <trkpt lat="44.57141" lon="0.87006">
        <ele>197</ele>
        <time>2018-03-03T16:25:16.511Z</time>
      </trkpt>
      <trkpt lat="44.57139" lon="0.87009">
        <ele>197</ele>
        <time>2018-03-03T16:25:17.511Z</time>
      </trkpt>
      <trkpt lat="44.57136" lon="0.87012">
        <ele>197</ele>
        <time>2018-03-03T16:25:18.511Z</time>
      </trkpt>
      <trkpt lat="44.57134" lon="0.87014">
        <ele>197</ele>
        <time>2018-03-03T16:25:19.511Z</time>
      </trkpt>
      <trkpt lat="44.57131" lon="0.87017">
        <ele>197</ele>
        <time>2018-03-03T16:25:20.511Z</time>
      </trkpt>
      <trkpt lat="44.57129" lon="0.87019">
        <ele>197</ele>
        <time>2018-03-03T16:25:21.511Z</time>
      </trkpt>
      <trkpt lat="44.57127" lon="0.87022">
        <ele>197</ele>
        <time>2018-03-03T16:25:22.511Z</time>
      </trkpt>
      <trkpt lat="44.57125" lon="0.87024">
        <ele>197</ele>
        <time>2018-03-03T16:25:23.511Z</time>
      </trkpt>
      <trkpt lat="44.57123" lon="0.87027">
        <ele>197</ele>
        <time>2018-03-03T16:25:24.511Z</time>
      </trkpt>
      <trkpt lat="44.57121" lon="0.8703">
        <ele>197</ele>
        <time>2018-03-03T16:25:25.511Z</time>
      </trkpt>
      <trkpt lat="44.57119" lon="0.87032">
        <ele>197</ele>
        <time>2018-03-03T16:25:26.511Z</time>
      </trkpt>
      <trkpt lat="44.57117" lon="0.87035">
        <ele>197</ele>
        <time>2018-03-03T16:25:27.511Z</time>
      </trkpt>
      <trkpt lat="44.57115" lon="0.87037">
        <ele>197</ele>
        <time>2018-03-03T16:25:28.511Z</time>
      </trkpt>
      <trkpt lat="44.57113" lon="0.8704">
        <ele>197</ele>
        <time>2018-03-03T16:25:29.511Z</time>
      </trkpt>
      <trkpt lat="44.57111" lon="0.87042">
        <ele>197</ele>
        <time>2018-03-03T16:25:30.511Z</time>
      </trkpt>
      <trkpt lat="44.57109" lon="0.87045">
        <ele>197</ele>
        <time>2018-03-03T16:25:31.511Z</time>
      </trkpt>
      <trkpt lat="44.57107" lon="0.87048">
        <ele>197</ele>
        <time>2018-03-03T16:25:32.511Z</time>
      </trkpt>
      <trkpt lat="44.57105" lon="0.87051">
        <ele>197</ele>
        <time>2018-03-03T16:25:33.511Z</time>
      </trkpt>
      <trkpt lat="44.57103" lon="0.87054">
        <ele>197</ele>
        <time>2018-03-03T16:25:34.511Z</time>
      </trkpt>
      <trkpt lat="44.57101" lon="0.87056">
        <ele>197</ele>
        <time>2018-03-03T16:25:35.511Z</time>
      </trkpt>
      <trkpt lat="44.57098" lon="0.8706">
        <ele>197</ele>
        <time>2018-03-03T16:25:36.511Z</time>
      </trkpt>
      <trkpt lat="44.57096" lon="0.87063">
        <ele>197</ele>
        <time>2018-03-03T16:25:37.511Z</time>
      </trkpt>
      <trkpt lat="44.57093" lon="0.87066">
        <ele>197</ele>
        <time>2018-03-03T16:25:38.511Z</time>
      </trkpt>
      <trkpt lat="44.57091" lon="0.87069">
        <ele>197</ele>
        <time>2018-03-03T16:25:39.511Z</time>
      </trkpt>
      <trkpt lat="44.57088" lon="0.87072">
        <ele>198</ele>
        <time>2018-03-03T16:25:40.511Z</time>
      </trkpt>
      <trkpt lat="44.57085" lon="0.87075">
        <ele>198</ele>
        <time>2018-03-03T16:25:41.511Z</time>
      </trkpt>
      <trkpt lat="44.57082" lon="0.87078">
        <ele>198</ele>
        <time>2018-03-03T16:25:42.511Z</time>
      </trkpt>
      <trkpt lat="44.57079" lon="0.87081">
        <ele>198</ele>
        <time>2018-03-03T16:25:43.511Z</time>
      </trkpt>
      <trkpt lat="44.57076" lon="0.87084">
        <ele>198</ele>
        <time>2018-03-03T16:25:44.511Z</time>
      </trkpt>
      <trkpt lat="44.57073" lon="0.87087">
        <ele>198</ele>
        <time>2018-03-03T16:25:45.511Z</time>
      </trkpt>
      <trkpt lat="44.5707" lon="0.87089">
        <ele>198</ele>
        <time>2018-03-03T16:25:46.511Z</time>
      </trkpt>
      <trkpt lat="44.57066" lon="0.87092">
        <ele>198</ele>
        <time>2018-03-03T16:25:47.511Z</time>
      </trkpt>
      <trkpt lat="44.57063" lon="0.87094">
        <ele>198</ele>
        <time>2018-03-03T16:25:48.511Z</time>
      </trkpt>
      <trkpt lat="44.5706" lon="0.87097">
        <ele>198</ele>
        <time>2018-03-03T16:25:49.511Z</time>
      </trkpt>
      <trkpt lat="44.57056" lon="0.87099">
        <ele>198</ele>
        <time>2018-03-03T16:25:50.511Z</time>
      </trkpt>
      <trkpt lat="44.57053" lon="0.87101">
        <ele>198</ele>
        <time>2018-03-03T16:25:51.511Z</time>
      </trkpt>
      <trkpt lat="44.57049" lon="0.87103">
        <ele>198</ele>
        <time>2018-03-03T16:25:52.511Z</time>
      </trkpt>
      <trkpt lat="44.57045" lon="0.87105">
        <ele>198</ele>
        <time>2018-03-03T16:25:53.511Z</time>
      </trkpt>
      <trkpt lat="44.57042" lon="0.87107">
        <ele>198</ele>
        <time>2018-03-03T16:25:54.511Z</time>
      </trkpt>
      <trkpt lat="44.57038" lon="0.87109">
        <ele>198</ele>
        <time>2018-03-03T16:25:55.511Z</time>
      </trkpt>
      <trkpt lat="44.57035" lon="0.87111">
        <ele>198</ele>
        <time>2018-03-03T16:25:56.511Z</time>
      </trkpt>
      <trkpt lat="44.57031" lon="0.87113">
        <ele>198</ele>
        <time>2018-03-03T16:25:57.511Z</time>
      </trkpt>
      <trkpt lat="44.57028" lon="0.87114">
        <ele>198</ele>
        <time>2018-03-03T16:25:58.511Z</time>
      </trkpt>
      <trkpt lat="44.57024" lon="0.87116">
        <ele>198</ele>
        <time>2018-03-03T16:25:59.511Z</time>
      </trkpt>
      <trkpt lat="44.57021" lon="0.87118">
        <ele>198</ele>
        <time>2018-03-03T16:26:00.511Z</time>
      </trkpt>
      <trkpt lat="44.57018" lon="0.8712">
        <ele>198</ele>
        <time>2018-03-03T16:26:01.511Z</time>
      </trkpt>
      <trkpt lat="44.57014" lon="0.87122">
        <ele>198</ele>
        <time>2018-03-03T16:26:02.511Z</time>
      </trkpt>
      <trkpt lat="44.57011" lon="0.87124">
        <ele>198</ele>
        <time>2018-03-03T16:26:03.511Z</time>
      </trkpt>
      <trkpt lat="44.57007" lon="0.87126">
        <ele>199</ele>
        <time>2018-03-03T16:26:04.511Z</time>
      </trkpt>
      <trkpt lat="44.57003" lon="0.87127">
        <ele>198</ele>
        <time>2018-03-03T16:26:05.511Z</time>
      </trkpt>
      <trkpt lat="44.57" lon="0.87129">
        <ele>199</ele>
        <time>2018-03-03T16:26:06.511Z</time>
      </trkpt>
      <trkpt lat="44.56996" lon="0.8713">
        <ele>199</ele>
        <time>2018-03-03T16:26:07.511Z</time>
      </trkpt>
      <trkpt lat="44.56992" lon="0.87131">
        <ele>199</ele>
        <time>2018-03-03T16:26:08.511Z</time>
      </trkpt>
      <trkpt lat="44.56988" lon="0.87133">
        <ele>199</ele>
        <time>2018-03-03T16:26:09.511Z</time>
      </trkpt>
      <trkpt lat="44.56984" lon="0.87134">
        <ele>199</ele>
        <time>2018-03-03T16:26:10.511Z</time>
      </trkpt>
      <trkpt lat="44.5698" lon="0.87135">
        <ele>199</ele>
        <time>2018-03-03T16:26:11.511Z</time>
      </trkpt>
      <trkpt lat="44.56976" lon="0.87136">
        <ele>199</ele>
        <time>2018-03-03T16:26:12.511Z</time>
      </trkpt>
      <trkpt lat="44.56972" lon="0.87137">
        <ele>199</ele>
        <time>2018-03-03T16:26:13.511Z</time>
      </trkpt>
      <trkpt lat="44.56968" lon="0.87138">
        <ele>199</ele>
        <time>2018-03-03T16:26:14.511Z</time>
      </trkpt>
      <trkpt lat="44.56965" lon="0.87138">
        <ele>199</ele>
        <time>2018-03-03T16:26:15.511Z</time>
      </trkpt>
      <trkpt lat="44.56961" lon="0.87139">
        <ele>199</ele>
        <time>2018-03-03T16:26:16.511Z</time>
      </trkpt>
      <trkpt lat="44.56957" lon="0.8714">
        <ele>199</ele>
        <time>2018-03-03T16:26:17.511Z</time>
      </trkpt>
      <trkpt lat="44.56953" lon="0.8714">
        <ele>199</ele>
        <time>2018-03-03T16:26:18.511Z</time>
      </trkpt>
      <trkpt lat="44.56949" lon="0.87141">
        <ele>199</ele>
        <time>2018-03-03T16:26:19.511Z</time>
      </trkpt>
      <trkpt lat="44.56945" lon="0.87142">
        <ele>199</ele>
        <time>2018-03-03T16:26:20.511Z</time>
      </trkpt>
      <trkpt lat="44.56941" lon="0.87142">
        <ele>199</ele>
        <time>2018-03-03T16:26:21.511Z</time>
      </trkpt>
      <trkpt lat="44.56937" lon="0.87143">
        <ele>199</ele>
        <time>2018-03-03T16:26:22.511Z</time>
      </trkpt>
      <trkpt lat="44.56933" lon="0.87144">
        <ele>199</ele>
        <time>2018-03-03T16:26:23.511Z</time>
      </trkpt>
      <trkpt lat="44.56929" lon="0.87144">
        <ele>200</ele>
        <time>2018-03-03T16:26:24.511Z</time>
      </trkpt>
      <trkpt lat="44.56925" lon="0.87145">
        <ele>200</ele>
        <time>2018-03-03T16:26:25.511Z</time>
      </trkpt>
      <trkpt lat="44.56921" lon="0.87145">
        <ele>200</ele>
        <time>2018-03-03T16:26:26.511Z</time>
      </trkpt>
      <trkpt lat="44.56917" lon="0.87146">
        <ele>200</ele>
        <time>2018-03-03T16:26:27.511Z</time>
      </trkpt>
      <trkpt lat="44.56914" lon="0.87147">
        <ele>199</ele>
        <time>2018-03-03T16:26:28.511Z</time>
      </trkpt>
      <trkpt lat="44.5691" lon="0.87147">
        <ele>199</ele>
        <time>2018-03-03T16:26:29.511Z</time>
      </trkpt>
      <trkpt lat="44.56906" lon="0.87148">
        <ele>199</ele>
        <time>2018-03-03T16:26:30.511Z</time>
      </trkpt>
      <trkpt lat="44.56902" lon="0.87149">
        <ele>199</ele>
        <time>2018-03-03T16:26:31.511Z</time>
      </trkpt>
      <trkpt lat="44.56898" lon="0.87149">
        <ele>200</ele>
        <time>2018-03-03T16:26:32.511Z</time>
      </trkpt>
      <trkpt lat="44.56894" lon="0.8715">
        <ele>199</ele>
        <time>2018-03-03T16:26:33.511Z</time>
      </trkpt>
      <trkpt lat="44.5689" lon="0.87151">
        <ele>199</ele>
        <time>2018-03-03T16:26:34.511Z</time>
      </trkpt>
      <trkpt lat="44.56887" lon="0.87152">
        <ele>199</ele>
        <time>2018-03-03T16:26:35.511Z</time>
      </trkpt>
      <trkpt lat="44.56883" lon="0.87152">
        <ele>199</ele>
        <time>2018-03-03T16:26:36.511Z</time>
      </trkpt>
      <trkpt lat="44.56879" lon="0.87153">
        <ele>199</ele>
        <time>2018-03-03T16:26:37.511Z</time>
      </trkpt>
      <trkpt lat="44.56875" lon="0.87154">
        <ele>199</ele>
        <time>2018-03-03T16:26:38.511Z</time>
      </trkpt>
      <trkpt lat="44.56871" lon="0.87154">
        <ele>200</ele>
        <time>2018-03-03T16:26:39.511Z</time>
      </trkpt>
      <trkpt lat="44.56867" lon="0.87154">
        <ele>200</ele>
        <time>2018-03-03T16:26:40.511Z</time>
      </trkpt>
      <trkpt lat="44.56864" lon="0.87154">
        <ele>199</ele>
        <time>2018-03-03T16:26:41.511Z</time>
      </trkpt>
      <trkpt lat="44.5686" lon="0.87154">
        <ele>199</ele>
        <time>2018-03-03T16:26:42.511Z</time>
      </trkpt>
      <trkpt lat="44.56856" lon="0.87154">
        <ele>199</ele>
        <time>2018-03-03T16:26:43.511Z</time>
      </trkpt>
      <trkpt lat="44.56852" lon="0.87154">
        <ele>199</ele>
        <time>2018-03-03T16:26:44.511Z</time>
      </trkpt>
      <trkpt lat="44.56848" lon="0.87154">
        <ele>199</ele>
        <time>2018-03-03T16:26:45.511Z</time>
      </trkpt>
      <trkpt lat="44.56844" lon="0.87154">
        <ele>199</ele>
        <time>2018-03-03T16:26:46.511Z</time>
      </trkpt>
      <trkpt lat="44.5684" lon="0.87154">
        <ele>199</ele>
        <time>2018-03-03T16:26:47.511Z</time>
      </trkpt>
      <trkpt lat="44.56836" lon="0.87155">
        <ele>199</ele>
        <time>2018-03-03T16:26:48.511Z</time>
      </trkpt>
      <trkpt lat="44.56832" lon="0.87155">
        <ele>200</ele>
        <time>2018-03-03T16:26:49.511Z</time>
      </trkpt>
      <trkpt lat="44.56828" lon="0.87156">
        <ele>200</ele>
        <time>2018-03-03T16:26:50.511Z</time>
      </trkpt>
      <trkpt lat="44.56824" lon="0.87157">
        <ele>199</ele>
        <time>2018-03-03T16:26:51.511Z</time>
      </trkpt>
      <trkpt lat="44.56819" lon="0.87158">
        <ele>199</ele>
        <time>2018-03-03T16:26:52.511Z</time>
      </trkpt>
      <trkpt lat="44.56815" lon="0.8716">
        <ele>199</ele>
        <time>2018-03-03T16:26:53.511Z</time>
      </trkpt>
      <trkpt lat="44.56811" lon="0.87161">
        <ele>200</ele>
        <time>2018-03-03T16:26:54.511Z</time>
      </trkpt>
      <trkpt lat="44.56807" lon="0.87163">
        <ele>199</ele>
        <time>2018-03-03T16:26:55.511Z</time>
      </trkpt>
      <trkpt lat="44.56803" lon="0.87164">
        <ele>199</ele>
        <time>2018-03-03T16:26:56.511Z</time>
      </trkpt>
      <trkpt lat="44.56799" lon="0.87166">
        <ele>199</ele>
        <time>2018-03-03T16:26:57.511Z</time>
      </trkpt>
      <trkpt lat="44.56795" lon="0.87167">
        <ele>199</ele>
        <time>2018-03-03T16:26:58.511Z</time>
      </trkpt>
      <trkpt lat="44.56791" lon="0.87169">
        <ele>199</ele>
        <time>2018-03-03T16:26:59.511Z</time>
      </trkpt>
      <trkpt lat="44.56786" lon="0.8717">
        <ele>200</ele>
        <time>2018-03-03T16:27:00.511Z</time>
      </trkpt>
      <trkpt lat="44.56782" lon="0.87171">
        <ele>200</ele>
        <time>2018-03-03T16:27:01.511Z</time>
      </trkpt>
      <trkpt lat="44.56778" lon="0.87172">
        <ele>200</ele>
        <time>2018-03-03T16:27:02.511Z</time>
      </trkpt>
      <trkpt lat="44.56774" lon="0.87173">
        <ele>200</ele>
        <time>2018-03-03T16:27:03.511Z</time>
      </trkpt>
      <trkpt lat="44.5677" lon="0.87174">
        <ele>200</ele>
        <time>2018-03-03T16:27:04.511Z</time>
      </trkpt>
      <trkpt lat="44.56766" lon="0.87175">
        <ele>200</ele>
        <time>2018-03-03T16:27:05.511Z</time>
      </trkpt>
      <trkpt lat="44.56762" lon="0.87176">
        <ele>200</ele>
        <time>2018-03-03T16:27:06.511Z</time>
      </trkpt>
      <trkpt lat="44.56757" lon="0.87177">
        <ele>200</ele>
        <time>2018-03-03T16:27:07.511Z</time>
      </trkpt>
      <trkpt lat="44.56753" lon="0.87178">
        <ele>200</ele>
        <time>2018-03-03T16:27:08.511Z</time>
      </trkpt>
      <trkpt lat="44.56749" lon="0.87179">
        <ele>200</ele>
        <time>2018-03-03T16:27:09.511Z</time>
      </trkpt>
      <trkpt lat="44.56745" lon="0.8718">
        <ele>200</ele>
        <time>2018-03-03T16:27:10.511Z</time>
      </trkpt>
      <trkpt lat="44.5674" lon="0.87181">
        <ele>201</ele>
        <time>2018-03-03T16:27:11.511Z</time>
      </trkpt>
      <trkpt lat="44.56736" lon="0.87182">
        <ele>201</ele>
        <time>2018-03-03T16:27:12.511Z</time>
      </trkpt>
      <trkpt lat="44.56732" lon="0.87183">
        <ele>201</ele>
        <time>2018-03-03T16:27:13.511Z</time>
      </trkpt>
      <trkpt lat="44.56728" lon="0.87184">
        <ele>201</ele>
        <time>2018-03-03T16:27:14.511Z</time>
      </trkpt>
      <trkpt lat="44.56723" lon="0.87185">
        <ele>201</ele>
        <time>2018-03-03T16:27:15.511Z</time>
      </trkpt>
      <trkpt lat="44.56719" lon="0.87186">
        <ele>201</ele>
        <time>2018-03-03T16:27:16.511Z</time>
      </trkpt>
      <trkpt lat="44.56715" lon="0.87187">
        <ele>201</ele>
        <time>2018-03-03T16:27:17.511Z</time>
      </trkpt>
      <trkpt lat="44.56711" lon="0.87188">
        <ele>201</ele>
        <time>2018-03-03T16:27:18.511Z</time>
      </trkpt>
      <trkpt lat="44.56707" lon="0.87189">
        <ele>202</ele>
        <time>2018-03-03T16:27:19.511Z</time>
      </trkpt>
      <trkpt lat="44.56703" lon="0.8719">
        <ele>202</ele>
        <time>2018-03-03T16:27:20.511Z</time>
      </trkpt>
      <trkpt lat="44.56699" lon="0.87191">
        <ele>202</ele>
        <time>2018-03-03T16:27:21.511Z</time>
      </trkpt>
      <trkpt lat="44.56695" lon="0.87192">
        <ele>202</ele>
        <time>2018-03-03T16:27:22.511Z</time>
      </trkpt>
      <trkpt lat="44.56691" lon="0.87192">
        <ele>202</ele>
        <time>2018-03-03T16:27:23.511Z</time>
      </trkpt>
      <trkpt lat="44.56688" lon="0.87193">
        <ele>202</ele>
        <time>2018-03-03T16:27:24.511Z</time>
      </trkpt>
      <trkpt lat="44.56684" lon="0.87194">
        <ele>203</ele>
        <time>2018-03-03T16:27:25.511Z</time>
      </trkpt>
      <trkpt lat="44.5668" lon="0.87195">
        <ele>203</ele>
        <time>2018-03-03T16:27:26.511Z</time>
      </trkpt>
      <trkpt lat="44.56677" lon="0.87195">
        <ele>203</ele>
        <time>2018-03-03T16:27:27.511Z</time>
      </trkpt>
      <trkpt lat="44.56674" lon="0.87196">
        <ele>203</ele>
        <time>2018-03-03T16:27:28.511Z</time>
      </trkpt>
      <trkpt lat="44.5667" lon="0.87197">
        <ele>202</ele>
        <time>2018-03-03T16:27:29.511Z</time>
      </trkpt>
      <trkpt lat="44.56666" lon="0.87198">
        <ele>202</ele>
        <time>2018-03-03T16:27:30.511Z</time>
      </trkpt>
      <trkpt lat="44.56661" lon="0.87199">
        <ele>202</ele>
        <time>2018-03-03T16:27:31.511Z</time>
      </trkpt>
      <trkpt lat="44.56655" lon="0.872">
        <ele>201</ele>
        <time>2018-03-03T16:27:32.511Z</time>
      </trkpt>
      <trkpt lat="44.56649" lon="0.87201">
        <ele>201</ele>
        <time>2018-03-03T16:27:33.511Z</time>
      </trkpt>
      <trkpt lat="44.56643" lon="0.87201">
        <ele>200</ele>
        <time>2018-03-03T16:27:34.511Z</time>
      </trkpt>
      <trkpt lat="44.56636" lon="0.87202">
        <ele>200</ele>
        <time>2018-03-03T16:27:35.511Z</time>
      </trkpt>
      <trkpt lat="44.56629" lon="0.87202">
        <ele>200</ele>
        <time>2018-03-03T16:27:36.511Z</time>
      </trkpt>
      <trkpt lat="44.56623" lon="0.87203">
        <ele>199</ele>
        <time>2018-03-03T16:27:37.511Z</time>
      </trkpt>
      <trkpt lat="44.56616" lon="0.87203">
        <ele>199</ele>
        <time>2018-03-03T16:27:38.511Z</time>
      </trkpt>
      <trkpt lat="44.56608" lon="0.87203">
        <ele>198</ele>
        <time>2018-03-03T16:27:39.511Z</time>
      </trkpt>
      <trkpt lat="44.56601" lon="0.87203">
        <ele>198</ele>
        <time>2018-03-03T16:27:40.511Z</time>
      </trkpt>
      <trkpt lat="44.56594" lon="0.87203">
        <ele>198</ele>
        <time>2018-03-03T16:27:41.511Z</time>
      </trkpt>
      <trkpt lat="44.56587" lon="0.87203">
        <ele>197</ele>
        <time>2018-03-03T16:27:42.511Z</time>
      </trkpt>
      <trkpt lat="44.5658" lon="0.87203">
        <ele>197</ele>
        <time>2018-03-03T16:27:43.511Z</time>
      </trkpt>
      <trkpt lat="44.56574" lon="0.87203">
        <ele>197</ele>
        <time>2018-03-03T16:27:44.511Z</time>
      </trkpt>
      <trkpt lat="44.56567" lon="0.87204">
        <ele>196</ele>
        <time>2018-03-03T16:27:45.511Z</time>
      </trkpt>
      <trkpt lat="44.5656" lon="0.87204">
        <ele>196</ele>
        <time>2018-03-03T16:27:46.511Z</time>
      </trkpt>
      <trkpt lat="44.56553" lon="0.87205">
        <ele>196</ele>
        <time>2018-03-03T16:27:47.511Z</time>
      </trkpt>
      <trkpt lat="44.56546" lon="0.87205">
        <ele>196</ele>
        <time>2018-03-03T16:27:48.511Z</time>
      </trkpt>
      <trkpt lat="44.56538" lon="0.87206">
        <ele>195</ele>
        <time>2018-03-03T16:27:49.511Z</time>
      </trkpt>
      <trkpt lat="44.56531" lon="0.87206">
        <ele>195</ele>
        <time>2018-03-03T16:27:50.511Z</time>
      </trkpt>
      <trkpt lat="44.56524" lon="0.87207">
        <ele>195</ele>
        <time>2018-03-03T16:27:51.511Z</time>
      </trkpt>
      <trkpt lat="44.56518" lon="0.87207">
        <ele>195</ele>
        <time>2018-03-03T16:27:52.511Z</time>
      </trkpt>
      <trkpt lat="44.56511" lon="0.87207">
        <ele>195</ele>
        <time>2018-03-03T16:27:53.511Z</time>
      </trkpt>
      <trkpt lat="44.56505" lon="0.87207">
        <ele>195</ele>
        <time>2018-03-03T16:27:54.511Z</time>
      </trkpt>
      <trkpt lat="44.56499" lon="0.87207">
        <ele>195</ele>
        <time>2018-03-03T16:27:55.511Z</time>
      </trkpt>
      <trkpt lat="44.56493" lon="0.87207">
        <ele>195</ele>
        <time>2018-03-03T16:27:56.511Z</time>
      </trkpt>
      <trkpt lat="44.56487" lon="0.87206">
        <ele>195</ele>
        <time>2018-03-03T16:27:57.511Z</time>
      </trkpt>
      <trkpt lat="44.56482" lon="0.87206">
        <ele>195</ele>
        <time>2018-03-03T16:27:58.511Z</time>
      </trkpt>
      <trkpt lat="44.56476" lon="0.87206">
        <ele>195</ele>
        <time>2018-03-03T16:27:59.511Z</time>
      </trkpt>
      <trkpt lat="44.5647" lon="0.87205">
        <ele>195</ele>
        <time>2018-03-03T16:28:00.511Z</time>
      </trkpt>
      <trkpt lat="44.56465" lon="0.87205">
        <ele>195</ele>
        <time>2018-03-03T16:28:01.511Z</time>
      </trkpt>
      <trkpt lat="44.5646" lon="0.87205">
        <ele>196</ele>
        <time>2018-03-03T16:28:02.511Z</time>
      </trkpt>
      <trkpt lat="44.56454" lon="0.87205">
        <ele>196</ele>
        <time>2018-03-03T16:28:03.511Z</time>
      </trkpt>
      <trkpt lat="44.56449" lon="0.87205">
        <ele>196</ele>
        <time>2018-03-03T16:28:04.511Z</time>
      </trkpt>
      <trkpt lat="44.56444" lon="0.87205">
        <ele>196</ele>
        <time>2018-03-03T16:28:05.511Z</time>
      </trkpt>
      <trkpt lat="44.56439" lon="0.87205">
        <ele>197</ele>
        <time>2018-03-03T16:28:06.511Z</time>
      </trkpt>
      <trkpt lat="44.56433" lon="0.87206">
        <ele>197</ele>
        <time>2018-03-03T16:28:07.511Z</time>
      </trkpt>
      <trkpt lat="44.56429" lon="0.87207">
        <ele>197</ele>
        <time>2018-03-03T16:28:08.511Z</time>
      </trkpt>
      <trkpt lat="44.56424" lon="0.87208">
        <ele>197</ele>
        <time>2018-03-03T16:28:09.511Z</time>
      </trkpt>
      <trkpt lat="44.56421" lon="0.87209">
        <ele>198</ele>
        <time>2018-03-03T16:28:10.511Z</time>
      </trkpt>
      <trkpt lat="44.56418" lon="0.87209">
        <ele>198</ele>
        <time>2018-03-03T16:28:11.511Z</time>
      </trkpt>
      <trkpt lat="44.56415" lon="0.8721">
        <ele>198</ele>
        <time>2018-03-03T16:28:12.511Z</time>
      </trkpt>
      <trkpt lat="44.56414" lon="0.8721">
        <ele>198</ele>
        <time>2018-03-03T16:28:13.511Z</time>
      </trkpt>
      <trkpt lat="44.56413" lon="0.87211">
        <ele>198</ele>
        <time>2018-03-03T16:28:14.511Z</time>
      </trkpt>
      <trkpt lat="44.56412" lon="0.87211">
        <ele>198</ele>
        <time>2018-03-03T16:28:15.511Z</time>
      </trkpt>
      <trkpt lat="44.56411" lon="0.87212">
        <ele>198</ele>
        <time>2018-03-03T16:28:16.511Z</time>
      </trkpt>
      <trkpt lat="44.5641" lon="0.87212">
        <ele>198</ele>
        <time>2018-03-03T16:28:17.511Z</time>
      </trkpt>
      <trkpt lat="44.5641" lon="0.87212">
        <ele>198</ele>
        <time>2018-03-03T16:28:18.511Z</time>
      </trkpt>
      <trkpt lat="44.5641" lon="0.87212">
        <ele>198</ele>
        <time>2018-03-03T16:28:19.511Z</time>
      </trkpt>
      <trkpt lat="44.5641" lon="0.87212">
        <ele>198</ele>
        <time>2018-03-03T16:28:20.511Z</time>
      </trkpt>
      <trkpt lat="44.56409" lon="0.87212">
        <ele>198</ele>
        <time>2018-03-03T16:28:21.511Z</time>
      </trkpt>
      <trkpt lat="44.56409" lon="0.87212">
        <ele>198</ele>
        <time>2018-03-03T16:28:22.511Z</time>
      </trkpt>
      <trkpt lat="44.56409" lon="0.87212">
        <ele>198</ele>
        <time>2018-03-03T16:28:23.511Z</time>
      </trkpt>
      <trkpt lat="44.56409" lon="0.87212">
        <ele>198</ele>
        <time>2018-03-03T16:28:24.511Z</time>
      </trkpt>
      <trkpt lat="44.56409" lon="0.87212">
        <ele>198</ele>
        <time>2018-03-03T16:28:25.511Z</time>
      </trkpt>
      <trkpt lat="44.56409" lon="0.87212">
        <ele>198</ele>
        <time>2018-03-03T16:28:26.511Z</time>
      </trkpt>
      <trkpt lat="44.56409" lon="0.87212">
        <ele>198</ele>
        <time>2018-03-03T16:28:27.511Z</time>
      </trkpt>
      <trkpt lat="44.56409" lon="0.87212">
        <ele>198</ele>
        <time>2018-03-03T16:28:28.511Z</time>
      </trkpt>
      <trkpt lat="44.56409" lon="0.87212">
        <ele>198</ele>
        <time>2018-03-03T16:28:29.511Z</time>
      </trkpt>
      <trkpt lat="44.56409" lon="0.87212">
        <ele>198</ele>
        <time>2018-03-03T16:28:30.511Z</time>
      </trkpt>
      <trkpt lat="44.56409" lon="0.87212">
        <ele>198</ele>
        <time>2018-03-03T16:28:31.511Z</time>
      </trkpt>
      <trkpt lat="44.56409" lon="0.87212">
        <ele>198</ele>
        <time>2018-03-03T16:28:32.511Z</time>
      </trkpt>
      <trkpt lat="44.56409" lon="0.87212">
        <ele>198</ele>
        <time>2018-03-03T16:28:33.511Z</time>
      </trkpt>
      <trkpt lat="44.56409" lon="0.87212">
        <ele>198</ele>
        <time>2018-03-03T16:28:34.511Z</time>
      </trkpt>
      <trkpt lat="44.56409" lon="0.87212">
        <ele>198</ele>
        <time>2018-03-03T16:28:35.511Z</time>
      </trkpt>
      <trkpt lat="44.56409" lon="0.87212">
        <ele>198</ele>
        <time>2018-03-03T16:28:36.511Z</time>
      </trkpt>
      <trkpt lat="44.56409" lon="0.87212">
        <ele>198</ele>
        <time>2018-03-03T16:28:37.511Z</time>
      </trkpt>
      <trkpt lat="44.56409" lon="0.87212">
        <ele>198</ele>
        <time>2018-03-03T16:28:38.511Z</time>
      </trkpt>
      <trkpt lat="44.56409" lon="0.87212">
        <ele>198</ele>
        <time>2018-03-03T16:28:39.511Z</time>
      </trkpt>
      <trkpt lat="44.56409" lon="0.87212">
        <ele>198</ele>
        <time>2018-03-03T16:28:40.511Z</time>
      </trkpt>
      <trkpt lat="44.56409" lon="0.87212">
        <ele>198</ele>
        <time>2018-03-03T16:28:41.511Z</time>
      </trkpt>
      <trkpt lat="44.56409" lon="0.87212">
        <ele>198</ele>
        <time>2018-03-03T16:28:42.511Z</time>
      </trkpt>
      <trkpt lat="44.56409" lon="0.87212">
        <ele>198</ele>
        <time>2018-03-03T16:28:43.511Z</time>
      </trkpt>
      <trkpt lat="44.56409" lon="0.87212">
        <ele>198</ele>
        <time>2018-03-03T16:28:44.511Z</time>
      </trkpt>
      <trkpt lat="44.56409" lon="0.87212">
        <ele>198</ele>
        <time>2018-03-03T16:28:45.511Z</time>
      </trkpt>
      <trkpt lat="44.56409" lon="0.87212">
        <ele>198</ele>
        <time>2018-03-03T16:28:46.511Z</time>
      </trkpt>
      <trkpt lat="44.56409" lon="0.87212">
        <ele>198</ele>
        <time>2018-03-03T16:28:47.511Z</time>
      </trkpt>
      <trkpt lat="44.56409" lon="0.87212">
        <ele>198</ele>
        <time>2018-03-03T16:28:48.511Z</time>
      </trkpt>
      <trkpt lat="44.56409" lon="0.87212">
        <ele>198</ele>
        <time>2018-03-03T16:28:49.511Z</time>
      </trkpt>
      <trkpt lat="44.56409" lon="0.87212">
        <ele>198</ele>
        <time>2018-03-03T16:28:50.511Z</time>
      </trkpt>
      <trkpt lat="44.56409" lon="0.87212">
        <ele>198</ele>
        <time>2018-03-03T16:28:51.511Z</time>
      </trkpt>
      <trkpt lat="44.56409" lon="0.87212">
        <ele>198</ele>
        <time>2018-03-03T16:28:52.511Z</time>
      </trkpt>
      <trkpt lat="44.56409" lon="0.87212">
        <ele>198</ele>
        <time>2018-03-03T16:28:53.511Z</time>
      </trkpt>
      <trkpt lat="44.56409" lon="0.87212">
        <ele>198</ele>
        <time>2018-03-03T16:28:54.511Z</time>
      </trkpt>
      <trkpt lat="44.56409" lon="0.87212">
        <ele>198</ele>
        <time>2018-03-03T16:28:55.511Z</time>
      </trkpt>
      <trkpt lat="44.56409" lon="0.87212">
        <ele>198</ele>
        <time>2018-03-03T16:28:56.511Z</time>
      </trkpt>
      <trkpt lat="44.56409" lon="0.87212">
        <ele>198</ele>
        <time>2018-03-03T16:28:57.511Z</time>
      </trkpt>
      <trkpt lat="44.56409" lon="0.87212">
        <ele>198</ele>
        <time>2018-03-03T16:28:58.511Z</time>
      </trkpt>
      <trkpt lat="44.56409" lon="0.87212">
        <ele>198</ele>
        <time>2018-03-03T16:28:59.511Z</time>
      </trkpt>
      <trkpt lat="44.56409" lon="0.87212">
        <ele>198</ele>
        <time>2018-03-03T16:29:00.511Z</time>
      </trkpt>
      <trkpt lat="44.56409" lon="0.87212">
        <ele>198</ele>
        <time>2018-03-03T16:29:01.511Z</time>
      </trkpt>
      <trkpt lat="44.56409" lon="0.87212">
        <ele>198</ele>
        <time>2018-03-03T16:29:02.511Z</time>
      </trkpt>
      <trkpt lat="44.56409" lon="0.87212">
        <ele>198</ele>
        <time>2018-03-03T16:29:03.511Z</time>
      </trkpt>
      <trkpt lat="44.56409" lon="0.87212">
        <ele>198</ele>
        <time>2018-03-03T16:29:04.511Z</time>
      </trkpt>
      <trkpt lat="44.56409" lon="0.87212">
        <ele>198</ele>
        <time>2018-03-03T16:29:05.511Z</time>
      </trkpt>
      <trkpt lat="44.56409" lon="0.87212">
        <ele>198</ele>
        <time>2018-03-03T16:29:06.511Z</time>
      </trkpt>
      <trkpt lat="44.56409" lon="0.87212">
        <ele>198</ele>
        <time>2018-03-03T16:29:07.511Z</time>
      </trkpt>
      <trkpt lat="44.56409" lon="0.87212">
        <ele>198</ele>
        <time>2018-03-03T16:29:08.511Z</time>
      </trkpt>
      <trkpt lat="44.56409" lon="0.87212">
        <ele>198</ele>
        <time>2018-03-03T16:29:09.511Z</time>
      </trkpt>
      <trkpt lat="44.56409" lon="0.87212">
        <ele>198</ele>
        <time>2018-03-03T16:29:10.511Z</time>
      </trkpt>
      <trkpt lat="44.56409" lon="0.87212">
        <ele>198</ele>
        <time>2018-03-03T16:29:11.511Z</time>
      </trkpt>
      <trkpt lat="44.56409" lon="0.87212">
        <ele>198</ele>
        <time>2018-03-03T16:29:12.511Z</time>
      </trkpt>
      <trkpt lat="44.56409" lon="0.87212">
        <ele>198</ele>
        <time>2018-03-03T16:29:13.511Z</time>
      </trkpt>
      <trkpt lat="44.56409" lon="0.87212">
        <ele>198</ele>
        <time>2018-03-03T16:29:14.511Z</time>
      </trkpt>
      <trkpt lat="44.56409" lon="0.87212">
        <ele>198</ele>
        <time>2018-03-03T16:29:15.511Z</time>
      </trkpt>
      <trkpt lat="44.56409" lon="0.87212">
        <ele>198</ele>
        <time>2018-03-03T16:29:16.511Z</time>
      </trkpt>
      <trkpt lat="44.56409" lon="0.87212">
        <ele>198</ele>
        <time>2018-03-03T16:29:17.511Z</time>
      </trkpt>
      <trkpt lat="44.56409" lon="0.87212">
        <ele>198</ele>
        <time>2018-03-03T16:29:18.511Z</time>
      </trkpt>
      <trkpt lat="44.56409" lon="0.87212">
        <ele>198</ele>
        <time>2018-03-03T16:29:19.511Z</time>
      </trkpt>
      <trkpt lat="44.56409" lon="0.87212">
        <ele>198</ele>
        <time>2018-03-03T16:29:20.511Z</time>
      </trkpt>
      <trkpt lat="44.56409" lon="0.87212">
        <ele>198</ele>
        <time>2018-03-03T16:29:21.511Z</time>
      </trkpt>
      <trkpt lat="44.56409" lon="0.87212">
        <ele>198</ele>
        <time>2018-03-03T16:29:22.511Z</time>
      </trkpt>
      <trkpt lat="44.56409" lon="0.87212">
        <ele>198</ele>
        <time>2018-03-03T16:29:23.511Z</time>
      </trkpt>
      <trkpt lat="44.56409" lon="0.87212">
        <ele>198</ele>
        <time>2018-03-03T16:29:24.511Z</time>
      </trkpt>
      <trkpt lat="44.56409" lon="0.87212">
        <ele>198</ele>
        <time>2018-03-03T16:29:25.511Z</time>
      </trkpt>
      <trkpt lat="44.56409" lon="0.87212">
        <ele>198</ele>
        <time>2018-03-03T16:29:26.511Z</time>
      </trkpt>
      <trkpt lat="44.56409" lon="0.87212">
        <ele>198</ele>
        <time>2018-03-03T16:29:27.511Z</time>
      </trkpt>
      <trkpt lat="44.56409" lon="0.87212">
        <ele>198</ele>
        <time>2018-03-03T16:29:28.511Z</time>
      </trkpt>
      <trkpt lat="44.56409" lon="0.87212">
        <ele>198</ele>
        <time>2018-03-03T16:29:29.511Z</time>
      </trkpt>
      <trkpt lat="44.56409" lon="0.87212">
        <ele>198</ele>
        <time>2018-03-03T16:29:30.511Z</time>
      </trkpt>
      <trkpt lat="44.56409" lon="0.87212">
        <ele>198</ele>
        <time>2018-03-03T16:29:31.511Z</time>
      </trkpt>
      <trkpt lat="44.56409" lon="0.87212">
        <ele>198</ele>
        <time>2018-03-03T16:29:32.511Z</time>
      </trkpt>
      <trkpt lat="44.56409" lon="0.87212">
        <ele>198</ele>
        <time>2018-03-03T16:29:33.511Z</time>
      </trkpt>
      <trkpt lat="44.56409" lon="0.87212">
        <ele>198</ele>
        <time>2018-03-03T16:29:34.511Z</time>
      </trkpt>
      <trkpt lat="44.56409" lon="0.87212">
        <ele>198</ele>
        <time>2018-03-03T16:29:35.511Z</time>
      </trkpt>
      <trkpt lat="44.56409" lon="0.87212">
        <ele>198</ele>
        <time>2018-03-03T16:29:36.511Z</time>
      </trkpt>
      <trkpt lat="44.56409" lon="0.87212">
        <ele>198</ele>
        <time>2018-03-03T16:29:37.511Z</time>
      </trkpt>
      <trkpt lat="44.56409" lon="0.87212">
        <ele>198</ele>
        <time>2018-03-03T16:29:38.511Z</time>
      </trkpt>
      <trkpt lat="44.56409" lon="0.87212">
        <ele>198</ele>
        <time>2018-03-03T16:29:39.511Z</time>
      </trkpt>
      <trkpt lat="44.56409" lon="0.87212">
        <ele>198</ele>
        <time>2018-03-03T16:29:40.511Z</time>
      </trkpt>
      <trkpt lat="44.56409" lon="0.87212">
        <ele>198</ele>
        <time>2018-03-03T16:29:41.511Z</time>
      </trkpt>
      <trkpt lat="44.56409" lon="0.87212">
        <ele>198</ele>
        <time>2018-03-03T16:29:42.511Z</time>
      </trkpt>
      <trkpt lat="44.56409" lon="0.87212">
        <ele>198</ele>
        <time>2018-03-03T16:29:43.511Z</time>
      </trkpt>
      <trkpt lat="44.56409" lon="0.87212">
        <ele>198</ele>
        <time>2018-03-03T16:29:44.511Z</time>
      </trkpt>
      <trkpt lat="44.56409" lon="0.87212">
        <ele>198</ele>
        <time>2018-03-03T16:29:45.511Z</time>
      </trkpt>
      <trkpt lat="44.56409" lon="0.87212">
        <ele>198</ele>
        <time>2018-03-03T16:29:46.511Z</time>
      </trkpt>
      <trkpt lat="44.56409" lon="0.87212">
        <ele>198</ele>
        <time>2018-03-03T16:29:47.511Z</time>
      </trkpt>
      <trkpt lat="44.56409" lon="0.87212">
        <ele>198</ele>
        <time>2018-03-03T16:29:48.511Z</time>
      </trkpt>
      <trkpt lat="44.56409" lon="0.87212">
        <ele>198</ele>
        <time>2018-03-03T16:29:49.511Z</time>
      </trkpt>
      <trkpt lat="44.56409" lon="0.87212">
        <ele>198</ele>
        <time>2018-03-03T16:29:50.511Z</time>
      </trkpt>
      <trkpt lat="44.56409" lon="0.87212">
        <ele>198</ele>
        <time>2018-03-03T16:29:51.511Z</time>
      </trkpt>
      <trkpt lat="44.56409" lon="0.87212">
        <ele>198</ele>
        <time>2018-03-03T16:29:52.511Z</time>
      </trkpt>
      <trkpt lat="44.56409" lon="0.87212">
        <ele>198</ele>
        <time>2018-03-03T16:29:53.511Z</time>
      </trkpt>
      <trkpt lat="44.56409" lon="0.87212">
        <ele>198</ele>
        <time>2018-03-03T16:29:54.511Z</time>
      </trkpt>
      <trkpt lat="44.56409" lon="0.87212">
        <ele>198</ele>
        <time>2018-03-03T16:29:55.511Z</time>
      </trkpt>
      <trkpt lat="44.56409" lon="0.87212">
        <ele>198</ele>
        <time>2018-03-03T16:29:56.511Z</time>
      </trkpt>
      <trkpt lat="44.56409" lon="0.87212">
        <ele>198</ele>
        <time>2018-03-03T16:29:57.511Z</time>
      </trkpt>
      <trkpt lat="44.56409" lon="0.87212">
        <ele>198</ele>
        <time>2018-03-03T16:29:58.511Z</time>
      </trkpt>
      <trkpt lat="44.56409" lon="0.87212">
        <ele>198</ele>
        <time>2018-03-03T16:29:59.511Z</time>
      </trkpt>
      <trkpt lat="44.56409" lon="0.87212">
        <ele>198</ele>
        <time>2018-03-03T16:30:00.511Z</time>
      </trkpt>
      <trkpt lat="44.56409" lon="0.87212">
        <ele>198</ele>
        <time>2018-03-03T16:30:01.511Z</time>
      </trkpt>
      <trkpt lat="44.56409" lon="0.87212">
        <ele>198</ele>
        <time>2018-03-03T16:30:02.511Z</time>
      </trkpt>
      <trkpt lat="44.56409" lon="0.87212">
        <ele>198</ele>
        <time>2018-03-03T16:30:03.511Z</time>
      </trkpt>
      <trkpt lat="44.56409" lon="0.87212">
        <ele>198</ele>
        <time>2018-03-03T16:30:04.511Z</time>
      </trkpt>
      <trkpt lat="44.56408" lon="0.87212">
        <ele>198</ele>
        <time>2018-03-03T16:30:05.511Z</time>
      </trkpt>
      <trkpt lat="44.56407" lon="0.87212">
        <ele>198</ele>
        <time>2018-03-03T16:30:06.511Z</time>
      </trkpt>
      <trkpt lat="44.56406" lon="0.87212">
        <ele>198</ele>
        <time>2018-03-03T16:30:07.511Z</time>
      </trkpt>
      <trkpt lat="44.56404" lon="0.87213">
        <ele>198</ele>
        <time>2018-03-03T16:30:08.511Z</time>
      </trkpt>
      <trkpt lat="44.56401" lon="0.87213">
        <ele>198</ele>
        <time>2018-03-03T16:30:09.511Z</time>
      </trkpt>
      <trkpt lat="44.56398" lon="0.87214">
        <ele>198</ele>
        <time>2018-03-03T16:30:10.511Z</time>
      </trkpt>
      <trkpt lat="44.56394" lon="0.87214">
        <ele>198</ele>
        <time>2018-03-03T16:30:11.511Z</time>
      </trkpt>
      <trkpt lat="44.56391" lon="0.87215">
        <ele>198</ele>
        <time>2018-03-03T16:30:12.511Z</time>
      </trkpt>
      <trkpt lat="44.56388" lon="0.87216">
        <ele>198</ele>
        <time>2018-03-03T16:30:13.511Z</time>
      </trkpt>
      <trkpt lat="44.56385" lon="0.87216">
        <ele>197</ele>
        <time>2018-03-03T16:30:14.511Z</time>
      </trkpt>
      <trkpt lat="44.56384" lon="0.87216">
        <ele>197</ele>
        <time>2018-03-03T16:30:15.511Z</time>
      </trkpt>
      <trkpt lat="44.56383" lon="0.87216">
        <ele>197</ele>
        <time>2018-03-03T16:30:16.511Z</time>
      </trkpt>
      <trkpt lat="44.56382" lon="0.87216">
        <ele>197</ele>
        <time>2018-03-03T16:30:17.511Z</time>
      </trkpt>
      <trkpt lat="44.56382" lon="0.87216">
        <ele>197</ele>
        <time>2018-03-03T16:30:18.511Z</time>
      </trkpt>
      <trkpt lat="44.56382" lon="0.87216">
        <ele>197</ele>
        <time>2018-03-03T16:30:19.511Z</time>
      </trkpt>
      <trkpt lat="44.56381" lon="0.87216">
        <ele>197</ele>
        <time>2018-03-03T16:30:20.511Z</time>
      </trkpt>
      <trkpt lat="44.56381" lon="0.87216">
        <ele>197</ele>
        <time>2018-03-03T16:30:21.511Z</time>
      </trkpt>
      <trkpt lat="44.56381" lon="0.87216">
        <ele>197</ele>
        <time>2018-03-03T16:30:22.511Z</time>
      </trkpt>
      <trkpt lat="44.56381" lon="0.87216">
        <ele>197</ele>
        <time>2018-03-03T16:30:23.511Z</time>
      </trkpt>
      <trkpt lat="44.56381" lon="0.87216">
        <ele>197</ele>
        <time>2018-03-03T16:30:24.511Z</time>
      </trkpt>
      <trkpt lat="44.56381" lon="0.87216">
        <ele>197</ele>
        <time>2018-03-03T16:30:25.511Z</time>
      </trkpt>
      <trkpt lat="44.56381" lon="0.87216">
        <ele>197</ele>
        <time>2018-03-03T16:30:26.511Z</time>
      </trkpt>
      <trkpt lat="44.56381" lon="0.87216">
        <ele>197</ele>
        <time>2018-03-03T16:30:27.511Z</time>
      </trkpt>
      <trkpt lat="44.56381" lon="0.87216">
        <ele>197</ele>
        <time>2018-03-03T16:30:28.511Z</time>
      </trkpt>
      <trkpt lat="44.56381" lon="0.87216">
        <ele>197</ele>
        <time>2018-03-03T16:30:29.511Z</time>
      </trkpt>
      <trkpt lat="44.56381" lon="0.87216">
        <ele>197</ele>
        <time>2018-03-03T16:30:30.511Z</time>
      </trkpt>
      <trkpt lat="44.56381" lon="0.87216">
        <ele>197</ele>
        <time>2018-03-03T16:30:31.511Z</time>
      </trkpt>
      <trkpt lat="44.56381" lon="0.87216">
        <ele>197</ele>
        <time>2018-03-03T16:30:32.511Z</time>
      </trkpt>
      <trkpt lat="44.56381" lon="0.87216">
        <ele>197</ele>
        <time>2018-03-03T16:30:33.511Z</time>
      </trkpt>
      <trkpt lat="44.56381" lon="0.87216">
        <ele>197</ele>
        <time>2018-03-03T16:30:34.511Z</time>
      </trkpt>
      <trkpt lat="44.56381" lon="0.87216">
        <ele>197</ele>
        <time>2018-03-03T16:30:35.511Z</time>
      </trkpt>
      <trkpt lat="44.56381" lon="0.87216">
        <ele>197</ele>
        <time>2018-03-03T16:30:36.511Z</time>
      </trkpt>
      <trkpt lat="44.56381" lon="0.87216">
        <ele>197</ele>
        <time>2018-03-03T16:30:37.511Z</time>
      </trkpt>
      <trkpt lat="44.56381" lon="0.87216">
        <ele>197</ele>
        <time>2018-03-03T16:30:38.511Z</time>
      </trkpt>
      <trkpt lat="44.56381" lon="0.87216">
        <ele>197</ele>
        <time>2018-03-03T16:30:39.511Z</time>
      </trkpt>
      <trkpt lat="44.56381" lon="0.87216">
        <ele>197</ele>
        <time>2018-03-03T16:30:40.511Z</time>
      </trkpt>
      <trkpt lat="44.56381" lon="0.87216">
        <ele>197</ele>
        <time>2018-03-03T16:30:41.511Z</time>
      </trkpt>
      <trkpt lat="44.56381" lon="0.87216">
        <ele>197</ele>
        <time>2018-03-03T16:30:42.511Z</time>
      </trkpt>
      <trkpt lat="44.56381" lon="0.87216">
        <ele>197</ele>
        <time>2018-03-03T16:30:43.511Z</time>
      </trkpt>
      <trkpt lat="44.56381" lon="0.87216">
        <ele>197</ele>
        <time>2018-03-03T16:30:44.511Z</time>
      </trkpt>
      <trkpt lat="44.56381" lon="0.87216">
        <ele>197</ele>
        <time>2018-03-03T16:30:45.511Z</time>
      </trkpt>
      <trkpt lat="44.56381" lon="0.87216">
        <ele>197</ele>
        <time>2018-03-03T16:30:46.511Z</time>
      </trkpt>
      <trkpt lat="44.56381" lon="0.87216">
        <ele>197</ele>
        <time>2018-03-03T16:30:47.511Z</time>
      </trkpt>
      <trkpt lat="44.56381" lon="0.87216">
        <ele>197</ele>
        <time>2018-03-03T16:30:48.511Z</time>
      </trkpt>
      <trkpt lat="44.56381" lon="0.87216">
        <ele>197</ele>
        <time>2018-03-03T16:30:49.511Z</time>
      </trkpt>
      <trkpt lat="44.56381" lon="0.87216">
        <ele>197</ele>
        <time>2018-03-03T16:30:50.511Z</time>
      </trkpt>
      <trkpt lat="44.56381" lon="0.87216">
        <ele>197</ele>
        <time>2018-03-03T16:30:51.511Z</time>
      </trkpt>
      <trkpt lat="44.56381" lon="0.87216">
        <ele>197</ele>
        <time>2018-03-03T16:30:52.511Z</time>
      </trkpt>
      <trkpt lat="44.56381" lon="0.87216">
        <ele>197</ele>
        <time>2018-03-03T16:30:53.511Z</time>
      </trkpt>
      <trkpt lat="44.56381" lon="0.87216">
        <ele>197</ele>
        <time>2018-03-03T16:30:54.511Z</time>
      </trkpt>
      <trkpt lat="44.56381" lon="0.87216">
        <ele>197</ele>
        <time>2018-03-03T16:30:55.511Z</time>
      </trkpt>
      <trkpt lat="44.56381" lon="0.87216">
        <ele>197</ele>
        <time>2018-03-03T16:30:56.511Z</time>
      </trkpt>
      <trkpt lat="44.56381" lon="0.87216">
        <ele>197</ele>
        <time>2018-03-03T16:30:57.511Z</time>
      </trkpt>
      <trkpt lat="44.56381" lon="0.87216">
        <ele>197</ele>
        <time>2018-03-03T16:30:58.511Z</time>
      </trkpt>
      <trkpt lat="44.56381" lon="0.87216">
        <ele>197</ele>
        <time>2018-03-03T16:30:59.511Z</time>
      </trkpt>
      <trkpt lat="44.56381" lon="0.87216">
        <ele>197</ele>
        <time>2018-03-03T16:31:00.511Z</time>
      </trkpt>
      <trkpt lat="44.56381" lon="0.87216">
        <ele>197</ele>
        <time>2018-03-03T16:31:01.511Z</time>
      </trkpt>
      <trkpt lat="44.56381" lon="0.87216">
        <ele>197</ele>
        <time>2018-03-03T16:31:02.511Z</time>
      </trkpt>
      <trkpt lat="44.56381" lon="0.87216">
        <ele>197</ele>
        <time>2018-03-03T16:31:03.511Z</time>
      </trkpt>
      <trkpt lat="44.56381" lon="0.87216">
        <ele>197</ele>
        <time>2018-03-03T16:31:04.511Z</time>
      </trkpt>
      <trkpt lat="44.56381" lon="0.87216">
        <ele>197</ele>
        <time>2018-03-03T16:31:05.511Z</time>
      </trkpt>
      <trkpt lat="44.56381" lon="0.87216">
        <ele>197</ele>
        <time>2018-03-03T16:31:06.511Z</time>
      </trkpt>
      <trkpt lat="44.56381" lon="0.87216">
        <ele>197</ele>
        <time>2018-03-03T16:31:07.511Z</time>
      </trkpt>
      <trkpt lat="44.56381" lon="0.87216">
        <ele>197</ele>
        <time>2018-03-03T16:31:08.511Z</time>
      </trkpt>
      <trkpt lat="44.56381" lon="0.87216">
        <ele>197</ele>
        <time>2018-03-03T16:31:09.511Z</time>
      </trkpt>
      <trkpt lat="44.56381" lon="0.87216">
        <ele>197</ele>
        <time>2018-03-03T16:31:10.511Z</time>
      </trkpt>
      <trkpt lat="44.56381" lon="0.87216">
        <ele>197</ele>
        <time>2018-03-03T16:31:11.511Z</time>
      </trkpt>
      <trkpt lat="44.56381" lon="0.87216">
        <ele>197</ele>
        <time>2018-03-03T16:31:12.511Z</time>
      </trkpt>
      <trkpt lat="44.56381" lon="0.87216">
        <ele>197</ele>
        <time>2018-03-03T16:31:13.511Z</time>
      </trkpt>
      <trkpt lat="44.56381" lon="0.87216">
        <ele>197</ele>
        <time>2018-03-03T16:31:14.511Z</time>
      </trkpt>
      <trkpt lat="44.56381" lon="0.87216">
        <ele>197</ele>
        <time>2018-03-03T16:31:15.511Z</time>
      </trkpt>
      <trkpt lat="44.56381" lon="0.87216">
        <ele>197</ele>
        <time>2018-03-03T16:31:16.511Z</time>
      </trkpt>
      <trkpt lat="44.56381" lon="0.87216">
        <ele>197</ele>
        <time>2018-03-03T16:31:17.511Z</time>
      </trkpt>
      <trkpt lat="44.56381" lon="0.87216">
        <ele>197</ele>
        <time>2018-03-03T16:31:18.511Z</time>
      </trkpt>
      <trkpt lat="44.56381" lon="0.87216">
        <ele>197</ele>
        <time>2018-03-03T16:31:19.511Z</time>
      </trkpt>
      <trkpt lat="44.56381" lon="0.87216">
        <ele>197</ele>
        <time>2018-03-03T16:31:20.511Z</time>
      </trkpt>
      <trkpt lat="44.56381" lon="0.87216">
        <ele>197</ele>
        <time>2018-03-03T16:31:21.511Z</time>
      </trkpt>
      <trkpt lat="44.56381" lon="0.87216">
        <ele>197</ele>
        <time>2018-03-03T16:31:22.511Z</time>
      </trkpt>
      <trkpt lat="44.56381" lon="0.87216">
        <ele>197</ele>
        <time>2018-03-03T16:31:23.511Z</time>
      </trkpt>
      <trkpt lat="44.56381" lon="0.87216">
        <ele>197</ele>
        <time>2018-03-03T16:31:24.511Z</time>
      </trkpt>
      <trkpt lat="44.56381" lon="0.87216">
        <ele>197</ele>
        <time>2018-03-03T16:31:25.511Z</time>
      </trkpt>
      <trkpt lat="44.56381" lon="0.87216">
        <ele>197</ele>
        <time>2018-03-03T16:31:26.511Z</time>
      </trkpt>
      <trkpt lat="44.56381" lon="0.87216">
        <ele>197</ele>
        <time>2018-03-03T16:31:27.511Z</time>
      </trkpt>
      <trkpt lat="44.56381" lon="0.87216">
        <ele>197</ele>
        <time>2018-03-03T16:31:28.511Z</time>
      </trkpt>
      <trkpt lat="44.56381" lon="0.87216">
        <ele>197</ele>
        <time>2018-03-03T16:31:29.511Z</time>
      </trkpt>
      <trkpt lat="44.56381" lon="0.87216">
        <ele>197</ele>
        <time>2018-03-03T16:31:30.511Z</time>
      </trkpt>
      <trkpt lat="44.56381" lon="0.87216">
        <ele>197</ele>
        <time>2018-03-03T16:31:31.511Z</time>
      </trkpt>
      <trkpt lat="44.56381" lon="0.87216">
        <ele>197</ele>
        <time>2018-03-03T16:31:32.511Z</time>
      </trkpt>
      <trkpt lat="44.56381" lon="0.87216">
        <ele>197</ele>
        <time>2018-03-03T16:31:33.511Z</time>
      </trkpt>
      <trkpt lat="44.56381" lon="0.87216">
        <ele>197</ele>
        <time>2018-03-03T16:31:34.511Z</time>
      </trkpt>
      <trkpt lat="44.56381" lon="0.87216">
        <ele>197</ele>
        <time>2018-03-03T16:31:35.511Z</time>
      </trkpt>
      <trkpt lat="44.56381" lon="0.87216">
        <ele>197</ele>
        <time>2018-03-03T16:31:36.511Z</time>
      </trkpt>
      <trkpt lat="44.56381" lon="0.87216">
        <ele>197</ele>
        <time>2018-03-03T16:31:37.511Z</time>
      </trkpt>
      <trkpt lat="44.56381" lon="0.87216">
        <ele>197</ele>
        <time>2018-03-03T16:31:38.511Z</time>
      </trkpt>
      <trkpt lat="44.56381" lon="0.87216">
        <ele>197</ele>
        <time>2018-03-03T16:31:39.511Z</time>
      </trkpt>
      <trkpt lat="44.56381" lon="0.87216">
        <ele>197</ele>
        <time>2018-03-03T16:31:40.511Z</time>
      </trkpt>
      <trkpt lat="44.56381" lon="0.87216">
        <ele>197</ele>
        <time>2018-03-03T16:31:41.511Z</time>
      </trkpt>
      <trkpt lat="44.56381" lon="0.87216">
        <ele>197</ele>
        <time>2018-03-03T16:31:42.511Z</time>
      </trkpt>
      <trkpt lat="44.56381" lon="0.87216">
        <ele>197</ele>
        <time>2018-03-03T16:31:43.511Z</time>
      </trkpt>
      <trkpt lat="44.56381" lon="0.87216">
        <ele>197</ele>
        <time>2018-03-03T16:31:44.511Z</time>
      </trkpt>
      <trkpt lat="44.56381" lon="0.87216">
        <ele>197</ele>
        <time>2018-03-03T16:31:45.511Z</time>
      </trkpt>
      <trkpt lat="44.56381" lon="0.87216">
        <ele>197</ele>
        <time>2018-03-03T16:31:46.511Z</time>
      </trkpt>
      <trkpt lat="44.56381" lon="0.87216">
        <ele>197</ele>
        <time>2018-03-03T16:31:47.511Z</time>
      </trkpt>
      <trkpt lat="44.56381" lon="0.87216">
        <ele>197</ele>
        <time>2018-03-03T16:31:48.511Z</time>
      </trkpt>
      <trkpt lat="44.56381" lon="0.87216">
        <ele>197</ele>
        <time>2018-03-03T16:31:49.511Z</time>
      </trkpt>
      <trkpt lat="44.56381" lon="0.87216">
        <ele>197</ele>
        <time>2018-03-03T16:31:50.511Z</time>
      </trkpt>
      <trkpt lat="44.56381" lon="0.87216">
        <ele>197</ele>
        <time>2018-03-03T16:31:51.511Z</time>
      </trkpt>
      <trkpt lat="44.56381" lon="0.87216">
        <ele>197</ele>
        <time>2018-03-03T16:31:52.511Z</time>
      </trkpt>
      <trkpt lat="44.56381" lon="0.87216">
        <ele>197</ele>
        <time>2018-03-03T16:31:53.511Z</time>
      </trkpt>
      <trkpt lat="44.56381" lon="0.87216">
        <ele>197</ele>
        <time>2018-03-03T16:31:54.511Z</time>
      </trkpt>
      <trkpt lat="44.56381" lon="0.87216">
        <ele>197</ele>
        <time>2018-03-03T16:31:55.511Z</time>
      </trkpt>
      <trkpt lat="44.56381" lon="0.87216">
        <ele>197</ele>
        <time>2018-03-03T16:31:56.511Z</time>
      </trkpt>
      <trkpt lat="44.56381" lon="0.87216">
        <ele>197</ele>
        <time>2018-03-03T16:31:57.511Z</time>
      </trkpt>
      <trkpt lat="44.56381" lon="0.87216">
        <ele>197</ele>
        <time>2018-03-03T16:31:58.511Z</time>
      </trkpt>
      <trkpt lat="44.56381" lon="0.87216">
        <ele>197</ele>
        <time>2018-03-03T16:31:59.511Z</time>
      </trkpt>
      <trkpt lat="44.56381" lon="0.87216">
        <ele>197</ele>
        <time>2018-03-03T16:32:00.511Z</time>
      </trkpt>
      <trkpt lat="44.56381" lon="0.87216">
        <ele>197</ele>
        <time>2018-03-03T16:32:01.511Z</time>
      </trkpt>
      <trkpt lat="44.56381" lon="0.87216">
        <ele>197</ele>
        <time>2018-03-03T16:32:02.511Z</time>
      </trkpt>
      <trkpt lat="44.56381" lon="0.87216">
        <ele>197</ele>
        <time>2018-03-03T16:32:03.511Z</time>
      </trkpt>
      <trkpt lat="44.56381" lon="0.87216">
        <ele>197</ele>
        <time>2018-03-03T16:32:04.511Z</time>
      </trkpt>
      <trkpt lat="44.56381" lon="0.87216">
        <ele>197</ele>
        <time>2018-03-03T16:32:05.511Z</time>
      </trkpt>
      <trkpt lat="44.56381" lon="0.87216">
        <ele>197</ele>
        <time>2018-03-03T16:32:06.511Z</time>
      </trkpt>
      <trkpt lat="44.56381" lon="0.87216">
        <ele>197</ele>
        <time>2018-03-03T16:32:07.511Z</time>
      </trkpt>
      <trkpt lat="44.56381" lon="0.87216">
        <ele>197</ele>
        <time>2018-03-03T16:32:08.511Z</time>
      </trkpt>
      <trkpt lat="44.56381" lon="0.87216">
        <ele>198</ele>
        <time>2018-03-03T16:32:09.511Z</time>
      </trkpt>
      <trkpt lat="44.56381" lon="0.87216">
        <ele>198</ele>
        <time>2018-03-03T16:32:10.511Z</time>
      </trkpt>
      <trkpt lat="44.56381" lon="0.87216">
        <ele>198</ele>
        <time>2018-03-03T16:32:11.511Z</time>
      </trkpt>
      <trkpt lat="44.56381" lon="0.87215">
        <ele>198</ele>
        <time>2018-03-03T16:32:12.511Z</time>
      </trkpt>
      <trkpt lat="44.56381" lon="0.87212">
        <ele>198</ele>
        <time>2018-03-03T16:32:13.511Z</time>
      </trkpt>
      <trkpt lat="44.5638" lon="0.87208">
        <ele>197</ele>
        <time>2018-03-03T16:32:14.511Z</time>
      </trkpt>
      <trkpt lat="44.56379" lon="0.87206">
        <ele>197</ele>
        <time>2018-03-03T16:32:15.511Z</time>
      </trkpt>
      <trkpt lat="44.56379" lon="0.87204">
        <ele>197</ele>
        <time>2018-03-03T16:32:16.511Z</time>
      </trkpt>
      <trkpt lat="44.56379" lon="0.87203">
        <ele>197</ele>
        <time>2018-03-03T16:32:17.511Z</time>
      </trkpt>
      <trkpt lat="44.56379" lon="0.87203">
        <ele>197</ele>
        <time>2018-03-03T16:32:18.511Z</time>
      </trkpt>
      <trkpt lat="44.56379" lon="0.87202">
        <ele>197</ele>
        <time>2018-03-03T16:32:19.511Z</time>
      </trkpt>
      <trkpt lat="44.56379" lon="0.87202">
        <ele>197</ele>
        <time>2018-03-03T16:32:20.511Z</time>
      </trkpt>
      <trkpt lat="44.56379" lon="0.87202">
        <ele>197</ele>
        <time>2018-03-03T16:32:21.511Z</time>
      </trkpt>
      <trkpt lat="44.56379" lon="0.87202">
        <ele>197</ele>
        <time>2018-03-03T16:32:22.511Z</time>
      </trkpt>
      <trkpt lat="44.56379" lon="0.87202">
        <ele>197</ele>
        <time>2018-03-03T16:32:23.511Z</time>
      </trkpt>
      <trkpt lat="44.56379" lon="0.87202">
        <ele>197</ele>
        <time>2018-03-03T16:32:24.511Z</time>
      </trkpt>
      <trkpt lat="44.56379" lon="0.87202">
        <ele>197</ele>
        <time>2018-03-03T16:32:25.511Z</time>
      </trkpt>
      <trkpt lat="44.56379" lon="0.87202">
        <ele>197</ele>
        <time>2018-03-03T16:32:26.511Z</time>
      </trkpt>
      <trkpt lat="44.56379" lon="0.87202">
        <ele>197</ele>
        <time>2018-03-03T16:32:27.511Z</time>
      </trkpt>
      <trkpt lat="44.56379" lon="0.87202">
        <ele>197</ele>
        <time>2018-03-03T16:32:28.511Z</time>
      </trkpt>
      <trkpt lat="44.56379" lon="0.87202">
        <ele>198</ele>
        <time>2018-03-03T16:32:29.511Z</time>
      </trkpt>
      <trkpt lat="44.56379" lon="0.87202">
        <ele>198</ele>
        <time>2018-03-03T16:32:30.511Z</time>
      </trkpt>
      <trkpt lat="44.56379" lon="0.87202">
        <ele>197</ele>
        <time>2018-03-03T16:32:31.511Z</time>
      </trkpt>
      <trkpt lat="44.56379" lon="0.87202">
        <ele>197</ele>
        <time>2018-03-03T16:32:32.511Z</time>
      </trkpt>
      <trkpt lat="44.56379" lon="0.87202">
        <ele>197</ele>
        <time>2018-03-03T16:32:33.511Z</time>
      </trkpt>
      <trkpt lat="44.56379" lon="0.87202">
        <ele>197</ele>
        <time>2018-03-03T16:32:34.511Z</time>
      </trkpt>
      <trkpt lat="44.56379" lon="0.87202">
        <ele>197</ele>
        <time>2018-03-03T16:32:35.511Z</time>
      </trkpt>
      <trkpt lat="44.56379" lon="0.87202">
        <ele>197</ele>
        <time>2018-03-03T16:32:36.511Z</time>
      </trkpt>
      <trkpt lat="44.56379" lon="0.87202">
        <ele>196</ele>
        <time>2018-03-03T16:32:37.511Z</time>
      </trkpt>
      <trkpt lat="44.56379" lon="0.87202">
        <ele>196</ele>
        <time>2018-03-03T16:32:38.511Z</time>
      </trkpt>
      <trkpt lat="44.56379" lon="0.87202">
        <ele>196</ele>
        <time>2018-03-03T16:32:39.511Z</time>
      </trkpt>
      <trkpt lat="44.56379" lon="0.87202">
        <ele>196</ele>
        <time>2018-03-03T16:32:40.511Z</time>
      </trkpt>
      <trkpt lat="44.56379" lon="0.87202">
        <ele>196</ele>
        <time>2018-03-03T16:32:41.511Z</time>
      </trkpt>
      <trkpt lat="44.56379" lon="0.87202">
        <ele>196</ele>
        <time>2018-03-03T16:32:42.511Z</time>
      </trkpt>
      <trkpt lat="44.56379" lon="0.87202">
        <ele>196</ele>
        <time>2018-03-03T16:32:43.511Z</time>
      </trkpt>
      <trkpt lat="44.56379" lon="0.87202">
        <ele>196</ele>
        <time>2018-03-03T16:32:44.511Z</time>
      </trkpt>
      <trkpt lat="44.56379" lon="0.87202">
        <ele>196</ele>
        <time>2018-03-03T16:32:45.511Z</time>
      </trkpt>
      <trkpt lat="44.56379" lon="0.87202">
        <ele>196</ele>
        <time>2018-03-03T16:32:46.511Z</time>
      </trkpt>
      <trkpt lat="44.56379" lon="0.87202">
        <ele>196</ele>
        <time>2018-03-03T16:32:47.511Z</time>
      </trkpt>
      <trkpt lat="44.56379" lon="0.87202">
        <ele>196</ele>
        <time>2018-03-03T16:32:48.511Z</time>
      </trkpt>
      <trkpt lat="44.56379" lon="0.87202">
        <ele>196</ele>
        <time>2018-03-03T16:32:49.511Z</time>
      </trkpt>
      <trkpt lat="44.56379" lon="0.87202">
        <ele>196</ele>
        <time>2018-03-03T16:32:50.511Z</time>
      </trkpt>
      <trkpt lat="44.56379" lon="0.87202">
        <ele>196</ele>
        <time>2018-03-03T16:32:51.511Z</time>
      </trkpt>
      <trkpt lat="44.56379" lon="0.87202">
        <ele>196</ele>
        <time>2018-03-03T16:32:52.511Z</time>
      </trkpt>
      <trkpt lat="44.56379" lon="0.87202">
        <ele>196</ele>
        <time>2018-03-03T16:32:53.511Z</time>
      </trkpt>
      <trkpt lat="44.56379" lon="0.87202">
        <ele>197</ele>
        <time>2018-03-03T16:32:54.511Z</time>
      </trkpt>
      <trkpt lat="44.56379" lon="0.87202">
        <ele>197</ele>
        <time>2018-03-03T16:32:55.511Z</time>
      </trkpt>
      <trkpt lat="44.56379" lon="0.87202">
        <ele>197</ele>
        <time>2018-03-03T16:32:56.511Z</time>
      </trkpt>
      <trkpt lat="44.56379" lon="0.87202">
        <ele>197</ele>
        <time>2018-03-03T16:32:57.511Z</time>
      </trkpt>
      <trkpt lat="44.56379" lon="0.87202">
        <ele>197</ele>
        <time>2018-03-03T16:32:58.511Z</time>
      </trkpt>
      <trkpt lat="44.56379" lon="0.87202">
        <ele>197</ele>
        <time>2018-03-03T16:32:59.511Z</time>
      </trkpt>
      <trkpt lat="44.56379" lon="0.87202">
        <ele>197</ele>
        <time>2018-03-03T16:33:00.511Z</time>
      </trkpt>
      <trkpt lat="44.56379" lon="0.87202">
        <ele>197</ele>
        <time>2018-03-03T16:33:01.511Z</time>
      </trkpt>
      <trkpt lat="44.56379" lon="0.87202">
        <ele>197</ele>
        <time>2018-03-03T16:33:02.511Z</time>
      </trkpt>
      <trkpt lat="44.56379" lon="0.87202">
        <ele>197</ele>
        <time>2018-03-03T16:33:03.511Z</time>
      </trkpt>
      <trkpt lat="44.56379" lon="0.87202">
        <ele>198</ele>
        <time>2018-03-03T16:33:04.511Z</time>
      </trkpt>
      <trkpt lat="44.56379" lon="0.87202">
        <ele>198</ele>
        <time>2018-03-03T16:33:05.511Z</time>
      </trkpt>
      <trkpt lat="44.56379" lon="0.87202">
        <ele>198</ele>
        <time>2018-03-03T16:33:06.511Z</time>
      </trkpt>
      <trkpt lat="44.56379" lon="0.87202">
        <ele>198</ele>
        <time>2018-03-03T16:33:07.511Z</time>
      </trkpt>
      <trkpt lat="44.56379" lon="0.87202">
        <ele>198</ele>
        <time>2018-03-03T16:33:08.511Z</time>
      </trkpt>
      <trkpt lat="44.56379" lon="0.87202">
        <ele>198</ele>
        <time>2018-03-03T16:33:09.511Z</time>
      </trkpt>
      <trkpt lat="44.56379" lon="0.87202">
        <ele>198</ele>
        <time>2018-03-03T16:33:10.511Z</time>
      </trkpt>
      <trkpt lat="44.56379" lon="0.87202">
        <ele>198</ele>
        <time>2018-03-03T16:33:11.511Z</time>
      </trkpt>
      <trkpt lat="44.56379" lon="0.87202">
        <ele>198</ele>
        <time>2018-03-03T16:33:12.511Z</time>
      </trkpt>
      <trkpt lat="44.56379" lon="0.87202">
        <ele>198</ele>
        <time>2018-03-03T16:33:13.511Z</time>
      </trkpt>
      <trkpt lat="44.56379" lon="0.87202">
        <ele>198</ele>
        <time>2018-03-03T16:33:14.511Z</time>
      </trkpt>
      <trkpt lat="44.56379" lon="0.87202">
        <ele>198</ele>
        <time>2018-03-03T16:33:15.511Z</time>
      </trkpt>
      <trkpt lat="44.56379" lon="0.87202">
        <ele>198</ele>
        <time>2018-03-03T16:33:16.511Z</time>
      </trkpt>
      <trkpt lat="44.56379" lon="0.87202">
        <ele>198</ele>
        <time>2018-03-03T16:33:17.511Z</time>
      </trkpt>
      <trkpt lat="44.56379" lon="0.87202">
        <ele>198</ele>
        <time>2018-03-03T16:33:18.511Z</time>
      </trkpt>
      <trkpt lat="44.56379" lon="0.87202">
        <ele>198</ele>
        <time>2018-03-03T16:33:19.511Z</time>
      </trkpt>
      <trkpt lat="44.56379" lon="0.87202">
        <ele>198</ele>
        <time>2018-03-03T16:33:20.511Z</time>
      </trkpt>
      <trkpt lat="44.56379" lon="0.87202">
        <ele>198</ele>
        <time>2018-03-03T16:33:21.511Z</time>
      </trkpt>
      <trkpt lat="44.56379" lon="0.87202">
        <ele>198</ele>
        <time>2018-03-03T16:33:22.511Z</time>
      </trkpt>
      <trkpt lat="44.56379" lon="0.87202">
        <ele>198</ele>
        <time>2018-03-03T16:33:23.511Z</time>
      </trkpt>
      <trkpt lat="44.56379" lon="0.87202">
        <ele>198</ele>
        <time>2018-03-03T16:33:24.511Z</time>
      </trkpt>
      <trkpt lat="44.56379" lon="0.87202">
        <ele>198</ele>
        <time>2018-03-03T16:33:25.511Z</time>
      </trkpt>
      <trkpt lat="44.56379" lon="0.87202">
        <ele>198</ele>
        <time>2018-03-03T16:33:26.511Z</time>
      </trkpt>
      <trkpt lat="44.56379" lon="0.87202">
        <ele>198</ele>
        <time>2018-03-03T16:33:27.511Z</time>
      </trkpt>
      <trkpt lat="44.56379" lon="0.87202">
        <ele>198</ele>
        <time>2018-03-03T16:33:28.511Z</time>
      </trkpt>
      <trkpt lat="44.56379" lon="0.87202">
        <ele>198</ele>
        <time>2018-03-03T16:33:29.511Z</time>
      </trkpt>
      <trkpt lat="44.56379" lon="0.87202">
        <ele>198</ele>
        <time>2018-03-03T16:33:30.511Z</time>
      </trkpt>
      <trkpt lat="44.56379" lon="0.87202">
        <ele>198</ele>
        <time>2018-03-03T16:33:31.511Z</time>
      </trkpt>
      <trkpt lat="44.56379" lon="0.87202">
        <ele>198</ele>
        <time>2018-03-03T16:33:32.511Z</time>
      </trkpt>
      <trkpt lat="44.56379" lon="0.87202">
        <ele>198</ele>
        <time>2018-03-03T16:33:33.511Z</time>
      </trkpt>
      <trkpt lat="44.56379" lon="0.87202">
        <ele>198</ele>
        <time>2018-03-03T16:33:34.511Z</time>
      </trkpt>
      <trkpt lat="44.56379" lon="0.87202">
        <ele>198</ele>
        <time>2018-03-03T16:33:35.511Z</time>
      </trkpt>
      <trkpt lat="44.56379" lon="0.87203">
        <ele>198</ele>
        <time>2018-03-03T16:33:36.511Z</time>
      </trkpt>
      <trkpt lat="44.56379" lon="0.87202">
        <ele>198</ele>
        <time>2018-03-03T16:33:37.511Z</time>
      </trkpt>
      <trkpt lat="44.56379" lon="0.87202">
        <ele>198</ele>
        <time>2018-03-03T16:33:38.511Z</time>
      </trkpt>
      <trkpt lat="44.56379" lon="0.87202">
        <ele>198</ele>
        <time>2018-03-03T16:33:39.511Z</time>
      </trkpt>
      <trkpt lat="44.56378" lon="0.87201">
        <ele>198</ele>
        <time>2018-03-03T16:33:40.511Z</time>
      </trkpt>
      <trkpt lat="44.56378" lon="0.872">
        <ele>198</ele>
        <time>2018-03-03T16:33:41.511Z</time>
      </trkpt>
      <trkpt lat="44.56377" lon="0.87199">
        <ele>198</ele>
        <time>2018-03-03T16:33:42.511Z</time>
      </trkpt>
      <trkpt lat="44.56377" lon="0.87197">
        <ele>198</ele>
        <time>2018-03-03T16:33:43.511Z</time>
      </trkpt>
      <trkpt lat="44.56376" lon="0.87195">
        <ele>198</ele>
        <time>2018-03-03T16:33:44.511Z</time>
      </trkpt>
      <trkpt lat="44.56375" lon="0.87193">
        <ele>198</ele>
        <time>2018-03-03T16:33:45.511Z</time>
      </trkpt>
      <trkpt lat="44.56374" lon="0.8719">
        <ele>198</ele>
        <time>2018-03-03T16:33:46.511Z</time>
      </trkpt>
      <trkpt lat="44.56372" lon="0.87187">
        <ele>198</ele>
        <time>2018-03-03T16:33:47.511Z</time>
      </trkpt>
      <trkpt lat="44.5637" lon="0.87183">
        <ele>198</ele>
        <time>2018-03-03T16:33:48.511Z</time>
      </trkpt>
      <trkpt lat="44.56368" lon="0.87179">
        <ele>197</ele>
        <time>2018-03-03T16:33:49.511Z</time>
      </trkpt>
      <trkpt lat="44.56366" lon="0.87176">
        <ele>197</ele>
        <time>2018-03-03T16:33:50.511Z</time>
      </trkpt>
      <trkpt lat="44.56363" lon="0.87172">
        <ele>197</ele>
        <time>2018-03-03T16:33:51.511Z</time>
      </trkpt>
      <trkpt lat="44.5636" lon="0.87169">
        <ele>196</ele>
        <time>2018-03-03T16:33:52.511Z</time>
      </trkpt>
      <trkpt lat="44.56356" lon="0.87165">
        <ele>195</ele>
        <time>2018-03-03T16:33:53.511Z</time>
      </trkpt>
      <trkpt lat="44.56352" lon="0.87162">
        <ele>195</ele>
        <time>2018-03-03T16:33:54.511Z</time>
      </trkpt>
      <trkpt lat="44.56347" lon="0.87159">
        <ele>194</ele>
        <time>2018-03-03T16:33:55.511Z</time>
      </trkpt>
      <trkpt lat="44.56341" lon="0.87157">
        <ele>194</ele>
        <time>2018-03-03T16:33:56.511Z</time>
      </trkpt>
      <trkpt lat="44.56336" lon="0.87155">
        <ele>194</ele>
        <time>2018-03-03T16:33:57.511Z</time>
      </trkpt>
      <trkpt lat="44.5633" lon="0.87154">
        <ele>193</ele>
        <time>2018-03-03T16:33:58.511Z</time>
      </trkpt>
      <trkpt lat="44.56324" lon="0.87153">
        <ele>192</ele>
        <time>2018-03-03T16:33:59.511Z</time>
      </trkpt>
      <trkpt lat="44.56318" lon="0.87153">
        <ele>192</ele>
        <time>2018-03-03T16:34:00.511Z</time>
      </trkpt>
      <trkpt lat="44.56313" lon="0.87154">
        <ele>191</ele>
        <time>2018-03-03T16:34:01.511Z</time>
      </trkpt>
      <trkpt lat="44.56309" lon="0.87155">
        <ele>191</ele>
        <time>2018-03-03T16:34:02.511Z</time>
      </trkpt>
      <trkpt lat="44.56305" lon="0.87154">
        <ele>190</ele>
        <time>2018-03-03T16:34:03.511Z</time>
      </trkpt>
      <trkpt lat="44.56302" lon="0.87153">
        <ele>190</ele>
        <time>2018-03-03T16:34:04.511Z</time>
      </trkpt>
      <trkpt lat="44.56299" lon="0.8715">
        <ele>189</ele>
        <time>2018-03-03T16:34:05.511Z</time>
      </trkpt>
      <trkpt lat="44.56298" lon="0.87146">
        <ele>189</ele>
        <time>2018-03-03T16:34:06.511Z</time>
      </trkpt>
      <trkpt lat="44.56297" lon="0.87141">
        <ele>188</ele>
        <time>2018-03-03T16:34:07.511Z</time>
      </trkpt>
      <trkpt lat="44.56296" lon="0.87135">
        <ele>188</ele>
        <time>2018-03-03T16:34:08.511Z</time>
      </trkpt>
      <trkpt lat="44.56295" lon="0.87128">
        <ele>187</ele>
        <time>2018-03-03T16:34:09.511Z</time>
      </trkpt>
      <trkpt lat="44.56295" lon="0.8712">
        <ele>187</ele>
        <time>2018-03-03T16:34:10.511Z</time>
      </trkpt>
      <trkpt lat="44.56295" lon="0.87112">
        <ele>186</ele>
        <time>2018-03-03T16:34:11.511Z</time>
      </trkpt>
      <trkpt lat="44.56294" lon="0.87103">
        <ele>186</ele>
        <time>2018-03-03T16:34:12.511Z</time>
      </trkpt>
      <trkpt lat="44.56294" lon="0.87096">
        <ele>185</ele>
        <time>2018-03-03T16:34:13.511Z</time>
      </trkpt>
      <trkpt lat="44.56293" lon="0.87088">
        <ele>184</ele>
        <time>2018-03-03T16:34:14.511Z</time>
      </trkpt>
      <trkpt lat="44.56293" lon="0.8708">
        <ele>184</ele>
        <time>2018-03-03T16:34:15.511Z</time>
      </trkpt>
      <trkpt lat="44.56293" lon="0.87072">
        <ele>184</ele>
        <time>2018-03-03T16:34:16.511Z</time>
      </trkpt>
      <trkpt lat="44.56293" lon="0.87064">
        <ele>183</ele>
        <time>2018-03-03T16:34:17.511Z</time>
      </trkpt>
      <trkpt lat="44.56293" lon="0.87055">
        <ele>183</ele>
        <time>2018-03-03T16:34:18.511Z</time>
      </trkpt>
      <trkpt lat="44.56293" lon="0.87048">
        <ele>182</ele>
        <time>2018-03-03T16:34:19.511Z</time>
      </trkpt>
      <trkpt lat="44.56293" lon="0.87042">
        <ele>182</ele>
        <time>2018-03-03T16:34:20.511Z</time>
      </trkpt>
      <trkpt lat="44.56292" lon="0.87038">
        <ele>182</ele>
        <time>2018-03-03T16:34:21.511Z</time>
      </trkpt>
      <trkpt lat="44.56291" lon="0.87033">
        <ele>181</ele>
        <time>2018-03-03T16:34:22.511Z</time>
      </trkpt>
      <trkpt lat="44.56289" lon="0.87028">
        <ele>181</ele>
        <time>2018-03-03T16:34:23.511Z</time>
      </trkpt>
      <trkpt lat="44.56287" lon="0.87022">
        <ele>181</ele>
        <time>2018-03-03T16:34:24.511Z</time>
      </trkpt>
      <trkpt lat="44.56285" lon="0.87016">
        <ele>181</ele>
        <time>2018-03-03T16:34:25.511Z</time>
      </trkpt>
      <trkpt lat="44.56284" lon="0.87011">
        <ele>181</ele>
        <time>2018-03-03T16:34:26.511Z</time>
      </trkpt>
      <trkpt lat="44.56282" lon="0.87006">
        <ele>180</ele>
        <time>2018-03-03T16:34:27.511Z</time>
      </trkpt>
      <trkpt lat="44.56281" lon="0.87001">
        <ele>180</ele>
        <time>2018-03-03T16:34:28.511Z</time>
      </trkpt>
      <trkpt lat="44.56281" lon="0.86998">
        <ele>180</ele>
        <time>2018-03-03T16:34:29.511Z</time>
      </trkpt>
      <trkpt lat="44.5628" lon="0.86994">
        <ele>180</ele>
        <time>2018-03-03T16:34:30.511Z</time>
      </trkpt>
      <trkpt lat="44.5628" lon="0.86992">
        <ele>180</ele>
        <time>2018-03-03T16:34:31.511Z</time>
      </trkpt>
      <trkpt lat="44.5628" lon="0.8699">
        <ele>180</ele>
        <time>2018-03-03T16:34:32.511Z</time>
      </trkpt>
      <trkpt lat="44.56279" lon="0.86989">
        <ele>180</ele>
        <time>2018-03-03T16:34:33.511Z</time>
      </trkpt>
      <trkpt lat="44.56279" lon="0.86988">
        <ele>180</ele>
        <time>2018-03-03T16:34:34.511Z</time>
      </trkpt>
      <trkpt lat="44.56279" lon="0.86988">
        <ele>180</ele>
        <time>2018-03-03T16:34:35.511Z</time>
      </trkpt>
      <trkpt lat="44.56279" lon="0.86988">
        <ele>180</ele>
        <time>2018-03-03T16:34:36.511Z</time>
      </trkpt>
      <trkpt lat="44.56279" lon="0.86988">
        <ele>180</ele>
        <time>2018-03-03T16:34:37.511Z</time>
      </trkpt>
      <trkpt lat="44.56279" lon="0.86988">
        <ele>180</ele>
        <time>2018-03-03T16:34:38.511Z</time>
      </trkpt>
      <trkpt lat="44.56279" lon="0.86988">
        <ele>181</ele>
        <time>2018-03-03T16:34:39.511Z</time>
      </trkpt>
      <trkpt lat="44.56279" lon="0.86987">
        <ele>181</ele>
        <time>2018-03-03T16:34:40.511Z</time>
      </trkpt>
      <trkpt lat="44.56279" lon="0.86987">
        <ele>180</ele>
        <time>2018-03-03T16:34:41.511Z</time>
      </trkpt>
      <trkpt lat="44.56279" lon="0.86986">
        <ele>180</ele>
        <time>2018-03-03T16:34:42.511Z</time>
      </trkpt>
      <trkpt lat="44.56279" lon="0.86986">
        <ele>180</ele>
        <time>2018-03-03T16:34:43.511Z</time>
      </trkpt>
      <trkpt lat="44.56279" lon="0.86986">
        <ele>180</ele>
        <time>2018-03-03T16:34:44.511Z</time>
      </trkpt>
      <trkpt lat="44.56279" lon="0.86985">
        <ele>180</ele>
        <time>2018-03-03T16:34:45.511Z</time>
      </trkpt>
      <trkpt lat="44.56279" lon="0.86981">
        <ele>180</ele>
        <time>2018-03-03T16:34:46.511Z</time>
      </trkpt>
      <trkpt lat="44.56278" lon="0.86978">
        <ele>180</ele>
        <time>2018-03-03T16:34:47.511Z</time>
      </trkpt>
      <trkpt lat="44.56278" lon="0.86975">
        <ele>180</ele>
        <time>2018-03-03T16:34:48.511Z</time>
      </trkpt>
      <trkpt lat="44.56277" lon="0.86972">
        <ele>180</ele>
        <time>2018-03-03T16:34:49.511Z</time>
      </trkpt>
      <trkpt lat="44.56277" lon="0.86968">
        <ele>180</ele>
        <time>2018-03-03T16:34:50.511Z</time>
      </trkpt>
      <trkpt lat="44.56278" lon="0.86964">
        <ele>180</ele>
        <time>2018-03-03T16:34:51.511Z</time>
      </trkpt>
      <trkpt lat="44.56278" lon="0.86959">
        <ele>180</ele>
        <time>2018-03-03T16:34:52.511Z</time>
      </trkpt>
      <trkpt lat="44.56279" lon="0.86954">
        <ele>180</ele>
        <time>2018-03-03T16:34:53.511Z</time>
      </trkpt>
      <trkpt lat="44.5628" lon="0.86949">
        <ele>180</ele>
        <time>2018-03-03T16:34:54.511Z</time>
      </trkpt>
      <trkpt lat="44.56281" lon="0.86943">
        <ele>180</ele>
        <time>2018-03-03T16:34:55.511Z</time>
      </trkpt>
      <trkpt lat="44.56282" lon="0.86937">
        <ele>180</ele>
        <time>2018-03-03T16:34:56.511Z</time>
      </trkpt>
      <trkpt lat="44.56283" lon="0.86931">
        <ele>180</ele>
        <time>2018-03-03T16:34:57.511Z</time>
      </trkpt>
      <trkpt lat="44.56283" lon="0.86924">
        <ele>180</ele>
        <time>2018-03-03T16:34:58.511Z</time>
      </trkpt>
      <trkpt lat="44.56283" lon="0.86918">
        <ele>180</ele>
        <time>2018-03-03T16:34:59.511Z</time>
      </trkpt>
      <trkpt lat="44.56282" lon="0.86912">
        <ele>180</ele>
        <time>2018-03-03T16:35:00.511Z</time>
      </trkpt>
      <trkpt lat="44.56281" lon="0.86907">
        <ele>180</ele>
        <time>2018-03-03T16:35:01.511Z</time>
      </trkpt>
      <trkpt lat="44.56279" lon="0.86902">
        <ele>180</ele>
        <time>2018-03-03T16:35:02.511Z</time>
      </trkpt>
      <trkpt lat="44.56278" lon="0.86897">
        <ele>180</ele>
        <time>2018-03-03T16:35:03.511Z</time>
      </trkpt>
      <trkpt lat="44.56276" lon="0.86893">
        <ele>180</ele>
        <time>2018-03-03T16:35:04.511Z</time>
      </trkpt>
      <trkpt lat="44.56276" lon="0.8689">
        <ele>180</ele>
        <time>2018-03-03T16:35:05.511Z</time>
      </trkpt>
      <trkpt lat="44.56275" lon="0.86887">
        <ele>180</ele>
        <time>2018-03-03T16:35:06.511Z</time>
      </trkpt>
      <trkpt lat="44.56275" lon="0.86885">
        <ele>180</ele>
        <time>2018-03-03T16:35:07.511Z</time>
      </trkpt>
      <trkpt lat="44.56275" lon="0.86884">
        <ele>180</ele>
        <time>2018-03-03T16:35:08.511Z</time>
      </trkpt>
      <trkpt lat="44.56275" lon="0.86883">
        <ele>180</ele>
        <time>2018-03-03T16:35:09.511Z</time>
      </trkpt>
      <trkpt lat="44.56275" lon="0.86883">
        <ele>180</ele>
        <time>2018-03-03T16:35:10.511Z</time>
      </trkpt>
      <trkpt lat="44.56275" lon="0.86883">
        <ele>180</ele>
        <time>2018-03-03T16:35:11.511Z</time>
      </trkpt>
      <trkpt lat="44.56275" lon="0.86883">
        <ele>179</ele>
        <time>2018-03-03T16:35:12.511Z</time>
      </trkpt>
      <trkpt lat="44.56275" lon="0.86883">
        <ele>180</ele>
        <time>2018-03-03T16:35:13.511Z</time>
      </trkpt>
      <trkpt lat="44.56275" lon="0.86883">
        <ele>179</ele>
        <time>2018-03-03T16:35:14.511Z</time>
      </trkpt>
      <trkpt lat="44.56275" lon="0.86882">
        <ele>179</ele>
        <time>2018-03-03T16:35:15.511Z</time>
      </trkpt>
      <trkpt lat="44.56275" lon="0.86882">
        <ele>179</ele>
        <time>2018-03-03T16:35:16.511Z</time>
      </trkpt>
      <trkpt lat="44.56275" lon="0.86882">
        <ele>179</ele>
        <time>2018-03-03T16:35:17.511Z</time>
      </trkpt>
      <trkpt lat="44.56275" lon="0.86879">
        <ele>179</ele>
        <time>2018-03-03T16:35:18.511Z</time>
      </trkpt>
      <trkpt lat="44.56275" lon="0.86876">
        <ele>179</ele>
        <time>2018-03-03T16:35:19.511Z</time>
      </trkpt>
      <trkpt lat="44.56276" lon="0.86874">
        <ele>179</ele>
        <time>2018-03-03T16:35:20.511Z</time>
      </trkpt>
      <trkpt lat="44.56277" lon="0.86873">
        <ele>179</ele>
        <time>2018-03-03T16:35:21.511Z</time>
      </trkpt>
      <trkpt lat="44.56277" lon="0.86872">
        <ele>179</ele>
        <time>2018-03-03T16:35:22.511Z</time>
      </trkpt>
      <trkpt lat="44.56278" lon="0.86871">
        <ele>179</ele>
        <time>2018-03-03T16:35:23.511Z</time>
      </trkpt>
      <trkpt lat="44.56278" lon="0.86871">
        <ele>179</ele>
        <time>2018-03-03T16:35:24.511Z</time>
      </trkpt>
      <trkpt lat="44.56278" lon="0.8687">
        <ele>179</ele>
        <time>2018-03-03T16:35:25.511Z</time>
      </trkpt>
      <trkpt lat="44.56278" lon="0.8687">
        <ele>179</ele>
        <time>2018-03-03T16:35:26.511Z</time>
      </trkpt>
      <trkpt lat="44.56279" lon="0.86869">
        <ele>179</ele>
        <time>2018-03-03T16:35:27.511Z</time>
      </trkpt>
      <trkpt lat="44.56281" lon="0.86869">
        <ele>179</ele>
        <time>2018-03-03T16:35:28.511Z</time>
      </trkpt>
      <trkpt lat="44.56282" lon="0.86869">
        <ele>179</ele>
        <time>2018-03-03T16:35:29.511Z</time>
      </trkpt>
      <trkpt lat="44.56283" lon="0.8687">
        <ele>179</ele>
        <time>2018-03-03T16:35:30.511Z</time>
      </trkpt>
      <trkpt lat="44.56284" lon="0.86871">
        <ele>179</ele>
        <time>2018-03-03T16:35:31.511Z</time>
      </trkpt>
      <trkpt lat="44.56285" lon="0.86872">
        <ele>178</ele>
        <time>2018-03-03T16:35:32.511Z</time>
      </trkpt>
      <trkpt lat="44.56286" lon="0.86873">
        <ele>178</ele>
        <time>2018-03-03T16:35:33.511Z</time>
      </trkpt>
      <trkpt lat="44.56288" lon="0.86873">
        <ele>178</ele>
        <time>2018-03-03T16:35:34.511Z</time>
      </trkpt>
      <trkpt lat="44.5629" lon="0.86872">
        <ele>178</ele>
        <time>2018-03-03T16:35:35.511Z</time>
      </trkpt>
      <trkpt lat="44.56291" lon="0.86871">
        <ele>178</ele>
        <time>2018-03-03T16:35:36.511Z</time>
      </trkpt>
      <trkpt lat="44.56293" lon="0.8687">
        <ele>178</ele>
        <time>2018-03-03T16:35:37.511Z</time>
      </trkpt>
      <trkpt lat="44.56294" lon="0.86867">
        <ele>177</ele>
        <time>2018-03-03T16:35:38.511Z</time>
      </trkpt>
      <trkpt lat="44.56295" lon="0.86865">
        <ele>177</ele>
        <time>2018-03-03T16:35:39.511Z</time>
      </trkpt>
      <trkpt lat="44.56296" lon="0.86863">
        <ele>177</ele>
        <time>2018-03-03T16:35:40.511Z</time>
      </trkpt>
      <trkpt lat="44.56297" lon="0.86861">
        <ele>177</ele>
        <time>2018-03-03T16:35:41.511Z</time>
      </trkpt>
      <trkpt lat="44.56298" lon="0.8686">
        <ele>176</ele>
        <time>2018-03-03T16:35:42.511Z</time>
      </trkpt>
      <trkpt lat="44.56299" lon="0.86859">
        <ele>176</ele>
        <time>2018-03-03T16:35:43.511Z</time>
      </trkpt>
      <trkpt lat="44.56301" lon="0.86859">
        <ele>176</ele>
        <time>2018-03-03T16:35:44.511Z</time>
      </trkpt>
      <trkpt lat="44.56303" lon="0.86858">
        <ele>176</ele>
        <time>2018-03-03T16:35:45.511Z</time>
      </trkpt>
      <trkpt lat="44.56305" lon="0.86858">
        <ele>176</ele>
        <time>2018-03-03T16:35:46.511Z</time>
      </trkpt>
      <trkpt lat="44.56307" lon="0.86858">
        <ele>175</ele>
        <time>2018-03-03T16:35:47.511Z</time>
      </trkpt>
      <trkpt lat="44.56309" lon="0.86857">
        <ele>175</ele>
        <time>2018-03-03T16:35:48.511Z</time>
      </trkpt>
      <trkpt lat="44.56311" lon="0.86856">
        <ele>175</ele>
        <time>2018-03-03T16:35:49.511Z</time>
      </trkpt>
      <trkpt lat="44.56312" lon="0.86855">
        <ele>175</ele>
        <time>2018-03-03T16:35:50.511Z</time>
      </trkpt>
      <trkpt lat="44.56313" lon="0.86853">
        <ele>174</ele>
        <time>2018-03-03T16:35:51.511Z</time>
      </trkpt>
      <trkpt lat="44.56314" lon="0.86851">
        <ele>174</ele>
        <time>2018-03-03T16:35:52.511Z</time>
      </trkpt>
      <trkpt lat="44.56315" lon="0.86848">
        <ele>174</ele>
        <time>2018-03-03T16:35:53.511Z</time>
      </trkpt>
      <trkpt lat="44.56316" lon="0.86844">
        <ele>174</ele>
        <time>2018-03-03T16:35:54.511Z</time>
      </trkpt>
      <trkpt lat="44.56317" lon="0.8684">
        <ele>174</ele>
        <time>2018-03-03T16:35:55.511Z</time>
      </trkpt>
      <trkpt lat="44.56319" lon="0.86835">
        <ele>174</ele>
        <time>2018-03-03T16:35:56.511Z</time>
      </trkpt>
      <trkpt lat="44.56321" lon="0.86829">
        <ele>174</ele>
        <time>2018-03-03T16:35:57.511Z</time>
      </trkpt>
      <trkpt lat="44.56325" lon="0.86824">
        <ele>173</ele>
        <time>2018-03-03T16:35:58.511Z</time>
      </trkpt>
      <trkpt lat="44.56328" lon="0.86819">
        <ele>173</ele>
        <time>2018-03-03T16:35:59.511Z</time>
      </trkpt>
      <trkpt lat="44.56331" lon="0.86816">
        <ele>172</ele>
        <time>2018-03-03T16:36:00.511Z</time>
      </trkpt>
      <trkpt lat="44.56333" lon="0.86814">
        <ele>172</ele>
        <time>2018-03-03T16:36:01.511Z</time>
      </trkpt>
      <trkpt lat="44.56334" lon="0.86813">
        <ele>172</ele>
        <time>2018-03-03T16:36:02.511Z</time>
      </trkpt>
      <trkpt lat="44.56335" lon="0.86812">
        <ele>171</ele>
        <time>2018-03-03T16:36:03.511Z</time>
      </trkpt>
      <trkpt lat="44.56336" lon="0.86812">
        <ele>171</ele>
        <time>2018-03-03T16:36:04.511Z</time>
      </trkpt>
      <trkpt lat="44.56337" lon="0.86812">
        <ele>171</ele>
        <time>2018-03-03T16:36:05.511Z</time>
      </trkpt>
      <trkpt lat="44.56339" lon="0.86811">
        <ele>171</ele>
        <time>2018-03-03T16:36:06.511Z</time>
      </trkpt>
      <trkpt lat="44.5634" lon="0.86809">
        <ele>171</ele>
        <time>2018-03-03T16:36:07.511Z</time>
      </trkpt>
      <trkpt lat="44.56342" lon="0.86807">
        <ele>171</ele>
        <time>2018-03-03T16:36:08.511Z</time>
      </trkpt>
      <trkpt lat="44.56343" lon="0.86804">
        <ele>170</ele>
        <time>2018-03-03T16:36:09.511Z</time>
      </trkpt>
      <trkpt lat="44.56344" lon="0.86801">
        <ele>170</ele>
        <time>2018-03-03T16:36:10.511Z</time>
      </trkpt>
      <trkpt lat="44.56345" lon="0.86797">
        <ele>170</ele>
        <time>2018-03-03T16:36:11.511Z</time>
      </trkpt>
      <trkpt lat="44.56346" lon="0.86793">
        <ele>170</ele>
        <time>2018-03-03T16:36:12.511Z</time>
      </trkpt>
      <trkpt lat="44.56346" lon="0.86788">
        <ele>170</ele>
        <time>2018-03-03T16:36:13.511Z</time>
      </trkpt>
      <trkpt lat="44.56346" lon="0.86784">
        <ele>170</ele>
        <time>2018-03-03T16:36:14.511Z</time>
      </trkpt>
      <trkpt lat="44.56345" lon="0.86779">
        <ele>170</ele>
        <time>2018-03-03T16:36:15.511Z</time>
      </trkpt>
      <trkpt lat="44.56344" lon="0.86775">
        <ele>169</ele>
        <time>2018-03-03T16:36:16.511Z</time>
      </trkpt>
      <trkpt lat="44.56343" lon="0.86771">
        <ele>169</ele>
        <time>2018-03-03T16:36:17.511Z</time>
      </trkpt>
      <trkpt lat="44.56341" lon="0.86766">
        <ele>169</ele>
        <time>2018-03-03T16:36:18.511Z</time>
      </trkpt>
      <trkpt lat="44.56339" lon="0.86763">
        <ele>169</ele>
        <time>2018-03-03T16:36:19.511Z</time>
      </trkpt>
      <trkpt lat="44.56338" lon="0.86759">
        <ele>169</ele>
        <time>2018-03-03T16:36:20.511Z</time>
      </trkpt>
      <trkpt lat="44.56336" lon="0.86756">
        <ele>169</ele>
        <time>2018-03-03T16:36:21.511Z</time>
      </trkpt>
      <trkpt lat="44.56335" lon="0.86752">
        <ele>169</ele>
        <time>2018-03-03T16:36:22.511Z</time>
      </trkpt>
      <trkpt lat="44.56334" lon="0.86749">
        <ele>168</ele>
        <time>2018-03-03T16:36:23.511Z</time>
      </trkpt>
      <trkpt lat="44.56333" lon="0.86745">
        <ele>168</ele>
        <time>2018-03-03T16:36:24.511Z</time>
      </trkpt>
      <trkpt lat="44.56332" lon="0.86741">
        <ele>168</ele>
        <time>2018-03-03T16:36:25.511Z</time>
      </trkpt>
      <trkpt lat="44.56331" lon="0.86735">
        <ele>168</ele>
        <time>2018-03-03T16:36:26.511Z</time>
      </trkpt>
      <trkpt lat="44.5633" lon="0.86729">
        <ele>168</ele>
        <time>2018-03-03T16:36:27.511Z</time>
      </trkpt>
      <trkpt lat="44.56329" lon="0.86723">
        <ele>167</ele>
        <time>2018-03-03T16:36:28.511Z</time>
      </trkpt>
      <trkpt lat="44.56328" lon="0.86717">
        <ele>167</ele>
        <time>2018-03-03T16:36:29.511Z</time>
      </trkpt>
      <trkpt lat="44.56327" lon="0.86711">
        <ele>167</ele>
        <time>2018-03-03T16:36:30.511Z</time>
      </trkpt>
      <trkpt lat="44.56327" lon="0.86706">
        <ele>167</ele>
        <time>2018-03-03T16:36:31.511Z</time>
      </trkpt>
      <trkpt lat="44.56326" lon="0.86701">
        <ele>167</ele>
        <time>2018-03-03T16:36:32.511Z</time>
      </trkpt>
      <trkpt lat="44.56325" lon="0.86697">
        <ele>167</ele>
        <time>2018-03-03T16:36:33.511Z</time>
      </trkpt>
      <trkpt lat="44.56324" lon="0.86693">
        <ele>167</ele>
        <time>2018-03-03T16:36:34.511Z</time>
      </trkpt>
      <trkpt lat="44.56323" lon="0.86689">
        <ele>167</ele>
        <time>2018-03-03T16:36:35.511Z</time>
      </trkpt>
      <trkpt lat="44.56321" lon="0.86684">
        <ele>167</ele>
        <time>2018-03-03T16:36:36.511Z</time>
      </trkpt>
      <trkpt lat="44.5632" lon="0.86679">
        <ele>167</ele>
        <time>2018-03-03T16:36:37.511Z</time>
      </trkpt>
      <trkpt lat="44.56318" lon="0.86674">
        <ele>167</ele>
        <time>2018-03-03T16:36:38.511Z</time>
      </trkpt>
      <trkpt lat="44.56316" lon="0.86668">
        <ele>167</ele>
        <time>2018-03-03T16:36:39.511Z</time>
      </trkpt>
      <trkpt lat="44.56314" lon="0.86662">
        <ele>167</ele>
        <time>2018-03-03T16:36:40.511Z</time>
      </trkpt>
      <trkpt lat="44.56312" lon="0.86655">
        <ele>167</ele>
        <time>2018-03-03T16:36:41.511Z</time>
      </trkpt>
      <trkpt lat="44.5631" lon="0.86648">
        <ele>167</ele>
        <time>2018-03-03T16:36:42.511Z</time>
      </trkpt>
      <trkpt lat="44.56308" lon="0.8664">
        <ele>167</ele>
        <time>2018-03-03T16:36:43.511Z</time>
      </trkpt>
      <trkpt lat="44.56306" lon="0.86634">
        <ele>167</ele>
        <time>2018-03-03T16:36:44.511Z</time>
      </trkpt>
      <trkpt lat="44.56304" lon="0.86627">
        <ele>167</ele>
        <time>2018-03-03T16:36:45.511Z</time>
      </trkpt>
      <trkpt lat="44.56304" lon="0.86621">
        <ele>167</ele>
        <time>2018-03-03T16:36:46.511Z</time>
      </trkpt>
      <trkpt lat="44.56304" lon="0.86614">
        <ele>166</ele>
        <time>2018-03-03T16:36:47.511Z</time>
      </trkpt>
      <trkpt lat="44.56306" lon="0.86607">
        <ele>166</ele>
        <time>2018-03-03T16:36:48.511Z</time>
      </trkpt>
      <trkpt lat="44.56308" lon="0.86601">
        <ele>166</ele>
        <time>2018-03-03T16:36:49.511Z</time>
      </trkpt>
      <trkpt lat="44.56311" lon="0.86595">
        <ele>166</ele>
        <time>2018-03-03T16:36:50.511Z</time>
      </trkpt>
      <trkpt lat="44.56313" lon="0.8659">
        <ele>166</ele>
        <time>2018-03-03T16:36:51.511Z</time>
      </trkpt>
      <trkpt lat="44.56317" lon="0.86585">
        <ele>166</ele>
        <time>2018-03-03T16:36:52.511Z</time>
      </trkpt>
      <trkpt lat="44.5632" lon="0.8658">
        <ele>165</ele>
        <time>2018-03-03T16:36:53.511Z</time>
      </trkpt>
      <trkpt lat="44.56323" lon="0.86574">
        <ele>165</ele>
        <time>2018-03-03T16:36:54.511Z</time>
      </trkpt>
      <trkpt lat="44.56326" lon="0.86569">
        <ele>165</ele>
        <time>2018-03-03T16:36:55.511Z</time>
      </trkpt>
      <trkpt lat="44.56329" lon="0.86563">
        <ele>164</ele>
        <time>2018-03-03T16:36:56.511Z</time>
      </trkpt>
      <trkpt lat="44.56332" lon="0.86557">
        <ele>164</ele>
        <time>2018-03-03T16:36:57.511Z</time>
      </trkpt>
      <trkpt lat="44.56335" lon="0.86551">
        <ele>163</ele>
        <time>2018-03-03T16:36:58.511Z</time>
      </trkpt>
      <trkpt lat="44.56339" lon="0.86545">
        <ele>163</ele>
        <time>2018-03-03T16:36:59.511Z</time>
      </trkpt>
      <trkpt lat="44.56342" lon="0.86539">
        <ele>163</ele>
        <time>2018-03-03T16:37:00.511Z</time>
      </trkpt>
      <trkpt lat="44.56345" lon="0.86533">
        <ele>162</ele>
        <time>2018-03-03T16:37:01.511Z</time>
      </trkpt>
      <trkpt lat="44.56348" lon="0.86528">
        <ele>162</ele>
        <time>2018-03-03T16:37:02.511Z</time>
      </trkpt>
      <trkpt lat="44.5635" lon="0.86524">
        <ele>162</ele>
        <time>2018-03-03T16:37:03.511Z</time>
      </trkpt>
      <trkpt lat="44.56353" lon="0.86521">
        <ele>162</ele>
        <time>2018-03-03T16:37:04.511Z</time>
      </trkpt>
      <trkpt lat="44.56354" lon="0.86518">
        <ele>161</ele>
        <time>2018-03-03T16:37:05.511Z</time>
      </trkpt>
      <trkpt lat="44.56355" lon="0.86517">
        <ele>161</ele>
        <time>2018-03-03T16:37:06.511Z</time>
      </trkpt>
      <trkpt lat="44.56356" lon="0.86515">
        <ele>161</ele>
        <time>2018-03-03T16:37:07.511Z</time>
      </trkpt>
      <trkpt lat="44.56357" lon="0.86514">
        <ele>161</ele>
        <time>2018-03-03T16:37:08.511Z</time>
      </trkpt>
      <trkpt lat="44.56357" lon="0.86514">
        <ele>161</ele>
        <time>2018-03-03T16:37:09.511Z</time>
      </trkpt>
      <trkpt lat="44.56357" lon="0.86514">
        <ele>161</ele>
        <time>2018-03-03T16:37:10.511Z</time>
      </trkpt>
      <trkpt lat="44.56357" lon="0.86514">
        <ele>161</ele>
        <time>2018-03-03T16:37:11.511Z</time>
      </trkpt>
      <trkpt lat="44.56357" lon="0.86514">
        <ele>161</ele>
        <time>2018-03-03T16:37:12.511Z</time>
      </trkpt>
      <trkpt lat="44.56357" lon="0.86514">
        <ele>161</ele>
        <time>2018-03-03T16:37:13.511Z</time>
      </trkpt>
      <trkpt lat="44.56357" lon="0.86514">
        <ele>161</ele>
        <time>2018-03-03T16:37:14.511Z</time>
      </trkpt>
      <trkpt lat="44.56357" lon="0.86514">
        <ele>161</ele>
        <time>2018-03-03T16:37:15.511Z</time>
      </trkpt>
      <trkpt lat="44.56357" lon="0.86514">
        <ele>161</ele>
        <time>2018-03-03T16:37:16.511Z</time>
      </trkpt>
      <trkpt lat="44.56357" lon="0.86514">
        <ele>161</ele>
        <time>2018-03-03T16:37:17.511Z</time>
      </trkpt>
      <trkpt lat="44.56357" lon="0.86514">
        <ele>161</ele>
        <time>2018-03-03T16:37:18.511Z</time>
      </trkpt>
      <trkpt lat="44.56357" lon="0.86514">
        <ele>161</ele>
        <time>2018-03-03T16:37:19.511Z</time>
      </trkpt>
      <trkpt lat="44.56357" lon="0.86514">
        <ele>161</ele>
        <time>2018-03-03T16:37:20.511Z</time>
      </trkpt>
      <trkpt lat="44.56357" lon="0.86514">
        <ele>161</ele>
        <time>2018-03-03T16:37:21.511Z</time>
      </trkpt>
      <trkpt lat="44.56357" lon="0.86514">
        <ele>161</ele>
        <time>2018-03-03T16:37:22.511Z</time>
      </trkpt>
      <trkpt lat="44.56357" lon="0.86514">
        <ele>161</ele>
        <time>2018-03-03T16:37:23.511Z</time>
      </trkpt>
      <trkpt lat="44.56357" lon="0.86514">
        <ele>161</ele>
        <time>2018-03-03T16:37:24.511Z</time>
      </trkpt>
      <trkpt lat="44.56357" lon="0.86514">
        <ele>161</ele>
        <time>2018-03-03T16:37:25.511Z</time>
      </trkpt>
      <trkpt lat="44.56357" lon="0.86514">
        <ele>161</ele>
        <time>2018-03-03T16:37:26.511Z</time>
      </trkpt>
      <trkpt lat="44.56357" lon="0.86514">
        <ele>161</ele>
        <time>2018-03-03T16:37:27.511Z</time>
      </trkpt>
      <trkpt lat="44.56357" lon="0.86514">
        <ele>161</ele>
        <time>2018-03-03T16:37:28.511Z</time>
      </trkpt>
      <trkpt lat="44.56357" lon="0.86514">
        <ele>161</ele>
        <time>2018-03-03T16:37:29.511Z</time>
      </trkpt>
      <trkpt lat="44.56357" lon="0.86514">
        <ele>161</ele>
        <time>2018-03-03T16:37:30.511Z</time>
      </trkpt>
      <trkpt lat="44.56357" lon="0.86514">
        <ele>161</ele>
        <time>2018-03-03T16:37:31.511Z</time>
      </trkpt>
      <trkpt lat="44.56357" lon="0.86514">
        <ele>161</ele>
        <time>2018-03-03T16:37:32.511Z</time>
      </trkpt>
      <trkpt lat="44.56357" lon="0.86514">
        <ele>161</ele>
        <time>2018-03-03T16:37:33.511Z</time>
      </trkpt>
      <trkpt lat="44.56357" lon="0.86514">
        <ele>161</ele>
        <time>2018-03-03T16:37:34.511Z</time>
      </trkpt>
      <trkpt lat="44.56357" lon="0.86514">
        <ele>161</ele>
        <time>2018-03-03T16:37:35.511Z</time>
      </trkpt>
      <trkpt lat="44.56357" lon="0.86514">
        <ele>161</ele>
        <time>2018-03-03T16:37:36.511Z</time>
      </trkpt>
      <trkpt lat="44.56357" lon="0.86514">
        <ele>161</ele>
        <time>2018-03-03T16:37:37.511Z</time>
      </trkpt>
      <trkpt lat="44.56357" lon="0.86514">
        <ele>161</ele>
        <time>2018-03-03T16:37:38.511Z</time>
      </trkpt>
      <trkpt lat="44.56357" lon="0.86514">
        <ele>161</ele>
        <time>2018-03-03T16:37:39.511Z</time>
      </trkpt>
      <trkpt lat="44.56357" lon="0.86514">
        <ele>161</ele>
        <time>2018-03-03T16:37:40.511Z</time>
      </trkpt>
      <trkpt lat="44.56357" lon="0.86513">
        <ele>161</ele>
        <time>2018-03-03T16:37:41.511Z</time>
      </trkpt>
      <trkpt lat="44.56357" lon="0.8651">
        <ele>161</ele>
        <time>2018-03-03T16:37:42.511Z</time>
      </trkpt>
      <trkpt lat="44.56357" lon="0.86509">
        <ele>161</ele>
        <time>2018-03-03T16:37:43.511Z</time>
      </trkpt>
      <trkpt lat="44.56358" lon="0.86508">
        <ele>161</ele>
        <time>2018-03-03T16:37:44.511Z</time>
      </trkpt>
      <trkpt lat="44.56358" lon="0.86507">
        <ele>161</ele>
        <time>2018-03-03T16:37:45.511Z</time>
      </trkpt>
      <trkpt lat="44.56359" lon="0.86506">
        <ele>161</ele>
        <time>2018-03-03T16:37:46.511Z</time>
      </trkpt>
      <trkpt lat="44.56361" lon="0.86505">
        <ele>161</ele>
        <time>2018-03-03T16:37:47.511Z</time>
      </trkpt>
      <trkpt lat="44.56362" lon="0.86504">
        <ele>161</ele>
        <time>2018-03-03T16:37:48.511Z</time>
      </trkpt>
      <trkpt lat="44.56363" lon="0.86504">
        <ele>161</ele>
        <time>2018-03-03T16:37:49.511Z</time>
      </trkpt>
      <trkpt lat="44.56365" lon="0.86503">
        <ele>160</ele>
        <time>2018-03-03T16:37:50.511Z</time>
      </trkpt>
      <trkpt lat="44.56366" lon="0.86502">
        <ele>160</ele>
        <time>2018-03-03T16:37:51.511Z</time>
      </trkpt>
      <trkpt lat="44.56367" lon="0.86501">
        <ele>160</ele>
        <time>2018-03-03T16:37:52.511Z</time>
      </trkpt>
      <trkpt lat="44.56368" lon="0.865">
        <ele>160</ele>
        <time>2018-03-03T16:37:53.511Z</time>
      </trkpt>
      <trkpt lat="44.56368" lon="0.86499">
        <ele>160</ele>
        <time>2018-03-03T16:37:54.511Z</time>
      </trkpt>
      <trkpt lat="44.56369" lon="0.86498">
        <ele>160</ele>
        <time>2018-03-03T16:37:55.511Z</time>
      </trkpt>
      <trkpt lat="44.56369" lon="0.86498">
        <ele>160</ele>
        <time>2018-03-03T16:37:56.511Z</time>
      </trkpt>
      <trkpt lat="44.56369" lon="0.86498">
        <ele>160</ele>
        <time>2018-03-03T16:37:57.511Z</time>
      </trkpt>
      <trkpt lat="44.56369" lon="0.86497">
        <ele>160</ele>
        <time>2018-03-03T16:37:58.511Z</time>
      </trkpt>
      <trkpt lat="44.56369" lon="0.86497">
        <ele>160</ele>
        <time>2018-03-03T16:37:59.511Z</time>
      </trkpt>
      <trkpt lat="44.56369" lon="0.86497">
        <ele>160</ele>
        <time>2018-03-03T16:38:00.511Z</time>
      </trkpt>
      <trkpt lat="44.56369" lon="0.86497">
        <ele>160</ele>
        <time>2018-03-03T16:38:01.511Z</time>
      </trkpt>
      <trkpt lat="44.56369" lon="0.86497">
        <ele>160</ele>
        <time>2018-03-03T16:38:02.511Z</time>
      </trkpt>
      <trkpt lat="44.56369" lon="0.86497">
        <ele>160</ele>
        <time>2018-03-03T16:38:03.511Z</time>
      </trkpt>
      <trkpt lat="44.56369" lon="0.86497">
        <ele>160</ele>
        <time>2018-03-03T16:38:04.511Z</time>
      </trkpt>
      <trkpt lat="44.56369" lon="0.86497">
        <ele>160</ele>
        <time>2018-03-03T16:38:05.511Z</time>
      </trkpt>
      <trkpt lat="44.56369" lon="0.86497">
        <ele>160</ele>
        <time>2018-03-03T16:38:06.511Z</time>
      </trkpt>
      <trkpt lat="44.56369" lon="0.86497">
        <ele>160</ele>
        <time>2018-03-03T16:38:07.511Z</time>
      </trkpt>
      <trkpt lat="44.56369" lon="0.86497">
        <ele>160</ele>
        <time>2018-03-03T16:38:08.511Z</time>
      </trkpt>
      <trkpt lat="44.56369" lon="0.86497">
        <ele>160</ele>
        <time>2018-03-03T16:38:09.511Z</time>
      </trkpt>
      <trkpt lat="44.56369" lon="0.86497">
        <ele>160</ele>
        <time>2018-03-03T16:38:10.511Z</time>
      </trkpt>
      <trkpt lat="44.56369" lon="0.86497">
        <ele>160</ele>
        <time>2018-03-03T16:38:11.511Z</time>
      </trkpt>
      <trkpt lat="44.56369" lon="0.86497">
        <ele>160</ele>
        <time>2018-03-03T16:38:12.511Z</time>
      </trkpt>
      <trkpt lat="44.56369" lon="0.86497">
        <ele>160</ele>
        <time>2018-03-03T16:38:13.511Z</time>
      </trkpt>
      <trkpt lat="44.56369" lon="0.86497">
        <ele>160</ele>
        <time>2018-03-03T16:38:14.511Z</time>
      </trkpt>
      <trkpt lat="44.56369" lon="0.86497">
        <ele>160</ele>
        <time>2018-03-03T16:38:15.511Z</time>
      </trkpt>
      <trkpt lat="44.56369" lon="0.86497">
        <ele>160</ele>
        <time>2018-03-03T16:38:16.511Z</time>
      </trkpt>
      <trkpt lat="44.56369" lon="0.86497">
        <ele>160</ele>
        <time>2018-03-03T16:38:17.511Z</time>
      </trkpt>
      <trkpt lat="44.56369" lon="0.86497">
        <ele>160</ele>
        <time>2018-03-03T16:38:18.511Z</time>
      </trkpt>
      <trkpt lat="44.56369" lon="0.86497">
        <ele>160</ele>
        <time>2018-03-03T16:38:19.511Z</time>
      </trkpt>
      <trkpt lat="44.56369" lon="0.86497">
        <ele>160</ele>
        <time>2018-03-03T16:38:20.511Z</time>
      </trkpt>
      <trkpt lat="44.56369" lon="0.86497">
        <ele>160</ele>
        <time>2018-03-03T16:38:21.511Z</time>
      </trkpt>
      <trkpt lat="44.56369" lon="0.86497">
        <ele>160</ele>
        <time>2018-03-03T16:38:22.511Z</time>
      </trkpt>
      <trkpt lat="44.56369" lon="0.86497">
        <ele>160</ele>
        <time>2018-03-03T16:38:23.511Z</time>
      </trkpt>
      <trkpt lat="44.56369" lon="0.86497">
        <ele>160</ele>
        <time>2018-03-03T16:38:24.511Z</time>
      </trkpt>
      <trkpt lat="44.56369" lon="0.86497">
        <ele>160</ele>
        <time>2018-03-03T16:38:25.511Z</time>
      </trkpt>
      <trkpt lat="44.56369" lon="0.86497">
        <ele>160</ele>
        <time>2018-03-03T16:38:26.511Z</time>
      </trkpt>
      <trkpt lat="44.56369" lon="0.86497">
        <ele>160</ele>
        <time>2018-03-03T16:38:27.511Z</time>
      </trkpt>
      <trkpt lat="44.56369" lon="0.86497">
        <ele>160</ele>
        <time>2018-03-03T16:38:28.511Z</time>
      </trkpt>
      <trkpt lat="44.56369" lon="0.86497">
        <ele>160</ele>
        <time>2018-03-03T16:38:29.511Z</time>
      </trkpt>
      <trkpt lat="44.56369" lon="0.86497">
        <ele>160</ele>
        <time>2018-03-03T16:38:30.511Z</time>
      </trkpt>
      <trkpt lat="44.56369" lon="0.86497">
        <ele>160</ele>
        <time>2018-03-03T16:38:31.511Z</time>
      </trkpt>
      <trkpt lat="44.56369" lon="0.86497">
        <ele>160</ele>
        <time>2018-03-03T16:38:32.511Z</time>
      </trkpt>
      <trkpt lat="44.5637" lon="0.86497">
        <ele>160</ele>
        <time>2018-03-03T16:38:33.511Z</time>
      </trkpt>
      <trkpt lat="44.56371" lon="0.86494">
        <ele>160</ele>
        <time>2018-03-03T16:38:34.511Z</time>
      </trkpt>
      <trkpt lat="44.56373" lon="0.86492">
        <ele>160</ele>
        <time>2018-03-03T16:38:35.511Z</time>
      </trkpt>
      <trkpt lat="44.56374" lon="0.86489">
        <ele>160</ele>
        <time>2018-03-03T16:38:36.511Z</time>
      </trkpt>
      <trkpt lat="44.56376" lon="0.86487">
        <ele>160</ele>
        <time>2018-03-03T16:38:37.511Z</time>
      </trkpt>
      <trkpt lat="44.56377" lon="0.86484">
        <ele>160</ele>
        <time>2018-03-03T16:38:38.511Z</time>
      </trkpt>
      <trkpt lat="44.56378" lon="0.86482">
        <ele>160</ele>
        <time>2018-03-03T16:38:39.511Z</time>
      </trkpt>
      <trkpt lat="44.56378" lon="0.8648">
        <ele>159</ele>
        <time>2018-03-03T16:38:40.511Z</time>
      </trkpt>
      <trkpt lat="44.56379" lon="0.86478">
        <ele>159</ele>
        <time>2018-03-03T16:38:41.511Z</time>
      </trkpt>
      <trkpt lat="44.56379" lon="0.86477">
        <ele>159</ele>
        <time>2018-03-03T16:38:42.511Z</time>
      </trkpt>
      <trkpt lat="44.56379" lon="0.86476">
        <ele>159</ele>
        <time>2018-03-03T16:38:43.511Z</time>
      </trkpt>
      <trkpt lat="44.56379" lon="0.86476">
        <ele>159</ele>
        <time>2018-03-03T16:38:44.511Z</time>
      </trkpt>
      <trkpt lat="44.56379" lon="0.86476">
        <ele>159</ele>
        <time>2018-03-03T16:38:45.511Z</time>
      </trkpt>
      <trkpt lat="44.56379" lon="0.86476">
        <ele>159</ele>
        <time>2018-03-03T16:38:46.511Z</time>
      </trkpt>
      <trkpt lat="44.56379" lon="0.86476">
        <ele>159</ele>
        <time>2018-03-03T16:38:47.511Z</time>
      </trkpt>
      <trkpt lat="44.56379" lon="0.86476">
        <ele>159</ele>
        <time>2018-03-03T16:38:48.511Z</time>
      </trkpt>
      <trkpt lat="44.56379" lon="0.86476">
        <ele>159</ele>
        <time>2018-03-03T16:38:49.511Z</time>
      </trkpt>
      <trkpt lat="44.56379" lon="0.86476">
        <ele>159</ele>
        <time>2018-03-03T16:38:50.511Z</time>
      </trkpt>
      <trkpt lat="44.56379" lon="0.86476">
        <ele>159</ele>
        <time>2018-03-03T16:38:51.511Z</time>
      </trkpt>
      <trkpt lat="44.56379" lon="0.86476">
        <ele>159</ele>
        <time>2018-03-03T16:38:52.511Z</time>
      </trkpt>
      <trkpt lat="44.56379" lon="0.86475">
        <ele>159</ele>
        <time>2018-03-03T16:38:53.511Z</time>
      </trkpt>
      <trkpt lat="44.5638" lon="0.86473">
        <ele>159</ele>
        <time>2018-03-03T16:38:54.511Z</time>
      </trkpt>
      <trkpt lat="44.56382" lon="0.86463">
        <ele>159</ele>
        <time>2018-03-03T16:38:55.511Z</time>
      </trkpt>
      <trkpt lat="44.56382" lon="0.86461">
        <ele>159</ele>
        <time>2018-03-03T16:38:56.511Z</time>
      </trkpt>
      <trkpt lat="44.56382" lon="0.86461">
        <ele>159</ele>
        <time>2018-03-03T16:38:57.511Z</time>
      </trkpt>
      <trkpt lat="44.56382" lon="0.8646">
        <ele>159</ele>
        <time>2018-03-03T16:38:58.511Z</time>
      </trkpt>
      <trkpt lat="44.56382" lon="0.8646">
        <ele>159</ele>
        <time>2018-03-03T16:38:59.511Z</time>
      </trkpt>
      <trkpt lat="44.56382" lon="0.86459">
        <ele>159</ele>
        <time>2018-03-03T16:39:00.511Z</time>
      </trkpt>
      <trkpt lat="44.56382" lon="0.86458">
        <ele>159</ele>
        <time>2018-03-03T16:39:01.511Z</time>
      </trkpt>
      <trkpt lat="44.56383" lon="0.86456">
        <ele>159</ele>
        <time>2018-03-03T16:39:02.511Z</time>
      </trkpt>
      <trkpt lat="44.56383" lon="0.86453">
        <ele>158</ele>
        <time>2018-03-03T16:39:03.511Z</time>
      </trkpt>
      <trkpt lat="44.56384" lon="0.86451">
        <ele>158</ele>
        <time>2018-03-03T16:39:04.511Z</time>
      </trkpt>
      <trkpt lat="44.56385" lon="0.86449">
        <ele>158</ele>
        <time>2018-03-03T16:39:05.511Z</time>
      </trkpt>
      <trkpt lat="44.56386" lon="0.86445">
        <ele>158</ele>
        <time>2018-03-03T16:39:06.511Z</time>
      </trkpt>
      <trkpt lat="44.56386" lon="0.86441">
        <ele>158</ele>
        <time>2018-03-03T16:39:07.511Z</time>
      </trkpt>
      <trkpt lat="44.56387" lon="0.86436">
        <ele>158</ele>
        <time>2018-03-03T16:39:08.511Z</time>
      </trkpt>
      <trkpt lat="44.56388" lon="0.8643">
        <ele>157</ele>
        <time>2018-03-03T16:39:09.511Z</time>
      </trkpt>
      <trkpt lat="44.56388" lon="0.86424">
        <ele>157</ele>
        <time>2018-03-03T16:39:10.511Z</time>
      </trkpt>
      <trkpt lat="44.56388" lon="0.86417">
        <ele>157</ele>
        <time>2018-03-03T16:39:11.511Z</time>
      </trkpt>
      <trkpt lat="44.56388" lon="0.8641">
        <ele>157</ele>
        <time>2018-03-03T16:39:12.511Z</time>
      </trkpt>
      <trkpt lat="44.56387" lon="0.86404">
        <ele>157</ele>
        <time>2018-03-03T16:39:13.511Z</time>
      </trkpt>
      <trkpt lat="44.56385" lon="0.86398">
        <ele>157</ele>
        <time>2018-03-03T16:39:14.511Z</time>
      </trkpt>
      <trkpt lat="44.56384" lon="0.86392">
        <ele>156</ele>
        <time>2018-03-03T16:39:15.511Z</time>
      </trkpt>
      <trkpt lat="44.56381" lon="0.86386">
        <ele>156</ele>
        <time>2018-03-03T16:39:16.511Z</time>
      </trkpt>
      <trkpt lat="44.56379" lon="0.8638">
        <ele>156</ele>
        <time>2018-03-03T16:39:17.511Z</time>
      </trkpt>
      <trkpt lat="44.56376" lon="0.86375">
        <ele>156</ele>
        <time>2018-03-03T16:39:18.511Z</time>
      </trkpt>
      <trkpt lat="44.56373" lon="0.86369">
        <ele>156</ele>
        <time>2018-03-03T16:39:19.511Z</time>
      </trkpt>
      <trkpt lat="44.56371" lon="0.86362">
        <ele>156</ele>
        <time>2018-03-03T16:39:20.511Z</time>
      </trkpt>
      <trkpt lat="44.56368" lon="0.86355">
        <ele>155</ele>
        <time>2018-03-03T16:39:21.511Z</time>
      </trkpt>
      <trkpt lat="44.56366" lon="0.86348">
        <ele>155</ele>
        <time>2018-03-03T16:39:22.511Z</time>
      </trkpt>
      <trkpt lat="44.56364" lon="0.86341">
        <ele>155</ele>
        <time>2018-03-03T16:39:23.511Z</time>
      </trkpt>
      <trkpt lat="44.56362" lon="0.86333">
        <ele>155</ele>
        <time>2018-03-03T16:39:24.511Z</time>
      </trkpt>
      <trkpt lat="44.5636" lon="0.86326">
        <ele>155</ele>
        <time>2018-03-03T16:39:25.511Z</time>
      </trkpt>
      <trkpt lat="44.56359" lon="0.86319">
        <ele>154</ele>
        <time>2018-03-03T16:39:26.511Z</time>
      </trkpt>
      <trkpt lat="44.56358" lon="0.86312">
        <ele>154</ele>
        <time>2018-03-03T16:39:27.511Z</time>
      </trkpt>
      <trkpt lat="44.56357" lon="0.86306">
        <ele>154</ele>
        <time>2018-03-03T16:39:28.511Z</time>
      </trkpt>
      <trkpt lat="44.56355" lon="0.86299">
        <ele>154</ele>
        <time>2018-03-03T16:39:29.511Z</time>
      </trkpt>
      <trkpt lat="44.56355" lon="0.86293">
        <ele>154</ele>
        <time>2018-03-03T16:39:30.511Z</time>
      </trkpt>
      <trkpt lat="44.56354" lon="0.86286">
        <ele>153</ele>
        <time>2018-03-03T16:39:31.511Z</time>
      </trkpt>
      <trkpt lat="44.56353" lon="0.8628">
        <ele>153</ele>
        <time>2018-03-03T16:39:32.511Z</time>
      </trkpt>
      <trkpt lat="44.56353" lon="0.86273">
        <ele>152</ele>
        <time>2018-03-03T16:39:33.511Z</time>
      </trkpt>
      <trkpt lat="44.56353" lon="0.86266">
        <ele>152</ele>
        <time>2018-03-03T16:39:34.511Z</time>
      </trkpt>
      <trkpt lat="44.56354" lon="0.86258">
        <ele>152</ele>
        <time>2018-03-03T16:39:35.511Z</time>
      </trkpt>
      <trkpt lat="44.56354" lon="0.86251">
        <ele>151</ele>
        <time>2018-03-03T16:39:36.511Z</time>
      </trkpt>
      <trkpt lat="44.56354" lon="0.86243">
        <ele>151</ele>
        <time>2018-03-03T16:39:37.511Z</time>
      </trkpt>
      <trkpt lat="44.56353" lon="0.86236">
        <ele>150</ele>
        <time>2018-03-03T16:39:38.511Z</time>
      </trkpt>
      <trkpt lat="44.56352" lon="0.86229">
        <ele>150</ele>
        <time>2018-03-03T16:39:39.511Z</time>
      </trkpt>
      <trkpt lat="44.56349" lon="0.86222">
        <ele>150</ele>
        <time>2018-03-03T16:39:40.511Z</time>
      </trkpt>
      <trkpt lat="44.56346" lon="0.86215">
        <ele>150</ele>
        <time>2018-03-03T16:39:41.511Z</time>
      </trkpt>
      <trkpt lat="44.56343" lon="0.86209">
        <ele>150</ele>
        <time>2018-03-03T16:39:42.511Z</time>
      </trkpt>
      <trkpt lat="44.56339" lon="0.86203">
        <ele>149</ele>
        <time>2018-03-03T16:39:43.511Z</time>
      </trkpt>
      <trkpt lat="44.56334" lon="0.86197">
        <ele>149</ele>
        <time>2018-03-03T16:39:44.511Z</time>
      </trkpt>
      <trkpt lat="44.56329" lon="0.86192">
        <ele>148</ele>
        <time>2018-03-03T16:39:45.511Z</time>
      </trkpt>
      <trkpt lat="44.56325" lon="0.86186">
        <ele>148</ele>
        <time>2018-03-03T16:39:46.511Z</time>
      </trkpt>
      <trkpt lat="44.5632" lon="0.86181">
        <ele>148</ele>
        <time>2018-03-03T16:39:47.511Z</time>
      </trkpt>
      <trkpt lat="44.56315" lon="0.86177">
        <ele>147</ele>
        <time>2018-03-03T16:39:48.511Z</time>
      </trkpt>
      <trkpt lat="44.56311" lon="0.86173">
        <ele>147</ele>
        <time>2018-03-03T16:39:49.511Z</time>
      </trkpt>
      <trkpt lat="44.56306" lon="0.86169">
        <ele>146</ele>
        <time>2018-03-03T16:39:50.511Z</time>
      </trkpt>
      <trkpt lat="44.56302" lon="0.86165">
        <ele>146</ele>
        <time>2018-03-03T16:39:51.511Z</time>
      </trkpt>
      <trkpt lat="44.56298" lon="0.86161">
        <ele>146</ele>
        <time>2018-03-03T16:39:52.511Z</time>
      </trkpt>
      <trkpt lat="44.56293" lon="0.86158">
        <ele>146</ele>
        <time>2018-03-03T16:39:53.511Z</time>
      </trkpt>
      <trkpt lat="44.5629" lon="0.86154">
        <ele>146</ele>
        <time>2018-03-03T16:39:54.511Z</time>
      </trkpt>
      <trkpt lat="44.56287" lon="0.8615">
        <ele>146</ele>
        <time>2018-03-03T16:39:55.511Z</time>
      </trkpt>
      <trkpt lat="44.56285" lon="0.86146">
        <ele>146</ele>
        <time>2018-03-03T16:39:56.511Z</time>
      </trkpt>
      <trkpt lat="44.56285" lon="0.86142">
        <ele>146</ele>
        <time>2018-03-03T16:39:57.511Z</time>
      </trkpt>
      <trkpt lat="44.56287" lon="0.8614">
        <ele>146</ele>
        <time>2018-03-03T16:39:58.511Z</time>
      </trkpt>
      <trkpt lat="44.56288" lon="0.86139">
        <ele>146</ele>
        <time>2018-03-03T16:39:59.511Z</time>
      </trkpt>
      <trkpt lat="44.56291" lon="0.86139">
        <ele>146</ele>
        <time>2018-03-03T16:40:00.511Z</time>
      </trkpt>
      <trkpt lat="44.56294" lon="0.86139">
        <ele>147</ele>
        <time>2018-03-03T16:40:01.511Z</time>
      </trkpt>
      <trkpt lat="44.56297" lon="0.86139">
        <ele>147</ele>
        <time>2018-03-03T16:40:02.511Z</time>
      </trkpt>
      <trkpt lat="44.563" lon="0.86139">
        <ele>147</ele>
        <time>2018-03-03T16:40:03.511Z</time>
      </trkpt>
      <trkpt lat="44.56303" lon="0.86138">
        <ele>147</ele>
        <time>2018-03-03T16:40:04.511Z</time>
      </trkpt>
      <trkpt lat="44.56307" lon="0.86138">
        <ele>147</ele>
        <time>2018-03-03T16:40:05.511Z</time>
      </trkpt>
      <trkpt lat="44.5631" lon="0.86137">
        <ele>147</ele>
        <time>2018-03-03T16:40:06.511Z</time>
      </trkpt>
      <trkpt lat="44.56314" lon="0.86137">
        <ele>147</ele>
        <time>2018-03-03T16:40:07.511Z</time>
      </trkpt>
      <trkpt lat="44.56317" lon="0.86136">
        <ele>147</ele>
        <time>2018-03-03T16:40:08.511Z</time>
      </trkpt>
      <trkpt lat="44.56321" lon="0.86136">
        <ele>147</ele>
        <time>2018-03-03T16:40:09.511Z</time>
      </trkpt>
      <trkpt lat="44.56324" lon="0.86135">
        <ele>147</ele>
        <time>2018-03-03T16:40:10.511Z</time>
      </trkpt>
      <trkpt lat="44.56327" lon="0.86134">
        <ele>147</ele>
        <time>2018-03-03T16:40:11.511Z</time>
      </trkpt>
      <trkpt lat="44.56331" lon="0.86134">
        <ele>147</ele>
        <time>2018-03-03T16:40:12.511Z</time>
      </trkpt>
      <trkpt lat="44.56334" lon="0.86133">
        <ele>147</ele>
        <time>2018-03-03T16:40:13.511Z</time>
      </trkpt>
      <trkpt lat="44.56337" lon="0.86133">
        <ele>148</ele>
        <time>2018-03-03T16:40:14.511Z</time>
      </trkpt>
      <trkpt lat="44.5634" lon="0.86133">
        <ele>148</ele>
        <time>2018-03-03T16:40:15.511Z</time>
      </trkpt>
      <trkpt lat="44.56343" lon="0.86132">
        <ele>148</ele>
        <time>2018-03-03T16:40:16.511Z</time>
      </trkpt>
      <trkpt lat="44.56346" lon="0.86132">
        <ele>148</ele>
        <time>2018-03-03T16:40:17.511Z</time>
      </trkpt>
      <trkpt lat="44.56349" lon="0.86131">
        <ele>148</ele>
        <time>2018-03-03T16:40:18.511Z</time>
      </trkpt>
      <trkpt lat="44.56352" lon="0.86131">
        <ele>148</ele>
        <time>2018-03-03T16:40:19.511Z</time>
      </trkpt>
      <trkpt lat="44.56355" lon="0.86131">
        <ele>148</ele>
        <time>2018-03-03T16:40:20.511Z</time>
      </trkpt>
      <trkpt lat="44.56358" lon="0.8613">
        <ele>148</ele>
        <time>2018-03-03T16:40:21.511Z</time>
      </trkpt>
      <trkpt lat="44.56361" lon="0.8613">
        <ele>148</ele>
        <time>2018-03-03T16:40:22.511Z</time>
      </trkpt>
      <trkpt lat="44.56364" lon="0.86129">
        <ele>148</ele>
        <time>2018-03-03T16:40:23.511Z</time>
      </trkpt>
      <trkpt lat="44.56367" lon="0.86128">
        <ele>148</ele>
        <time>2018-03-03T16:40:24.511Z</time>
      </trkpt>
      <trkpt lat="44.5637" lon="0.86128">
        <ele>149</ele>
        <time>2018-03-03T16:40:25.511Z</time>
      </trkpt>
      <trkpt lat="44.56372" lon="0.86127">
        <ele>149</ele>
        <time>2018-03-03T16:40:26.511Z</time>
      </trkpt>
      <trkpt lat="44.56375" lon="0.86127">
        <ele>149</ele>
        <time>2018-03-03T16:40:27.511Z</time>
      </trkpt>
      <trkpt lat="44.56378" lon="0.86126">
        <ele>149</ele>
        <time>2018-03-03T16:40:28.511Z</time>
      </trkpt>
      <trkpt lat="44.56381" lon="0.86126">
        <ele>149</ele>
        <time>2018-03-03T16:40:29.511Z</time>
      </trkpt>
      <trkpt lat="44.56384" lon="0.86125">
        <ele>149</ele>
        <time>2018-03-03T16:40:30.511Z</time>
      </trkpt>
      <trkpt lat="44.56387" lon="0.86124">
        <ele>149</ele>
        <time>2018-03-03T16:40:31.511Z</time>
      </trkpt>
      <trkpt lat="44.5639" lon="0.86124">
        <ele>149</ele>
        <time>2018-03-03T16:40:32.511Z</time>
      </trkpt>
      <trkpt lat="44.56393" lon="0.86123">
        <ele>149</ele>
        <time>2018-03-03T16:40:33.511Z</time>
      </trkpt>
      <trkpt lat="44.56396" lon="0.86123">
        <ele>149</ele>
        <time>2018-03-03T16:40:34.511Z</time>
      </trkpt>
      <trkpt lat="44.56399" lon="0.86122">
        <ele>149</ele>
        <time>2018-03-03T16:40:35.511Z</time>
      </trkpt>
      <trkpt lat="44.56402" lon="0.86122">
        <ele>149</ele>
        <time>2018-03-03T16:40:36.511Z</time>
      </trkpt>
      <trkpt lat="44.56405" lon="0.86121">
        <ele>149</ele>
        <time>2018-03-03T16:40:37.511Z</time>
      </trkpt>
      <trkpt lat="44.56408" lon="0.86121">
        <ele>149</ele>
        <time>2018-03-03T16:40:38.511Z</time>
      </trkpt>
      <trkpt lat="44.56411" lon="0.8612">
        <ele>149</ele>
        <time>2018-03-03T16:40:39.511Z</time>
      </trkpt>
      <trkpt lat="44.56414" lon="0.8612">
        <ele>150</ele>
        <time>2018-03-03T16:40:40.511Z</time>
      </trkpt>
      <trkpt lat="44.56416" lon="0.8612">
        <ele>150</ele>
        <time>2018-03-03T16:40:41.511Z</time>
      </trkpt>
      <trkpt lat="44.56419" lon="0.8612">
        <ele>150</ele>
        <time>2018-03-03T16:40:42.511Z</time>
      </trkpt>
      <trkpt lat="44.56422" lon="0.8612">
        <ele>150</ele>
        <time>2018-03-03T16:40:43.511Z</time>
      </trkpt>
      <trkpt lat="44.56425" lon="0.86119">
        <ele>150</ele>
        <time>2018-03-03T16:40:44.511Z</time>
      </trkpt>
      <trkpt lat="44.56428" lon="0.86119">
        <ele>150</ele>
        <time>2018-03-03T16:40:45.511Z</time>
      </trkpt>
      <trkpt lat="44.56431" lon="0.86119">
        <ele>150</ele>
        <time>2018-03-03T16:40:46.511Z</time>
      </trkpt>
      <trkpt lat="44.56434" lon="0.86119">
        <ele>150</ele>
        <time>2018-03-03T16:40:47.511Z</time>
      </trkpt>
      <trkpt lat="44.56437" lon="0.86119">
        <ele>150</ele>
        <time>2018-03-03T16:40:48.511Z</time>
      </trkpt>
      <trkpt lat="44.5644" lon="0.86119">
        <ele>151</ele>
        <time>2018-03-03T16:40:49.511Z</time>
      </trkpt>
      <trkpt lat="44.56444" lon="0.86119">
        <ele>151</ele>
        <time>2018-03-03T16:40:50.511Z</time>
      </trkpt>
      <trkpt lat="44.56447" lon="0.86119">
        <ele>151</ele>
        <time>2018-03-03T16:40:51.511Z</time>
      </trkpt>
      <trkpt lat="44.5645" lon="0.86119">
        <ele>151</ele>
        <time>2018-03-03T16:40:52.511Z</time>
      </trkpt>
      <trkpt lat="44.56453" lon="0.86118">
        <ele>151</ele>
        <time>2018-03-03T16:40:53.511Z</time>
      </trkpt>
      <trkpt lat="44.56457" lon="0.86118">
        <ele>151</ele>
        <time>2018-03-03T16:40:54.511Z</time>
      </trkpt>
      <trkpt lat="44.5646" lon="0.86118">
        <ele>151</ele>
        <time>2018-03-03T16:40:55.511Z</time>
      </trkpt>
      <trkpt lat="44.56464" lon="0.86117">
        <ele>152</ele>
        <time>2018-03-03T16:40:56.511Z</time>
      </trkpt>
      <trkpt lat="44.56467" lon="0.86117">
        <ele>152</ele>
        <time>2018-03-03T16:40:57.511Z</time>
      </trkpt>
      <trkpt lat="44.56471" lon="0.86116">
        <ele>152</ele>
        <time>2018-03-03T16:40:58.511Z</time>
      </trkpt>
      <trkpt lat="44.56475" lon="0.86115">
        <ele>152</ele>
        <time>2018-03-03T16:40:59.511Z</time>
      </trkpt>
      <trkpt lat="44.56478" lon="0.86114">
        <ele>152</ele>
        <time>2018-03-03T16:41:00.511Z</time>
      </trkpt>
      <trkpt lat="44.56482" lon="0.86114">
        <ele>152</ele>
        <time>2018-03-03T16:41:01.511Z</time>
      </trkpt>
      <trkpt lat="44.56486" lon="0.86113">
        <ele>153</ele>
        <time>2018-03-03T16:41:02.511Z</time>
      </trkpt>
      <trkpt lat="44.5649" lon="0.86112">
        <ele>153</ele>
        <time>2018-03-03T16:41:03.511Z</time>
      </trkpt>
      <trkpt lat="44.56494" lon="0.86111">
        <ele>153</ele>
        <time>2018-03-03T16:41:04.511Z</time>
      </trkpt>
      <trkpt lat="44.56498" lon="0.86111">
        <ele>153</ele>
        <time>2018-03-03T16:41:05.511Z</time>
      </trkpt>
      <trkpt lat="44.56502" lon="0.8611">
        <ele>153</ele>
        <time>2018-03-03T16:41:06.511Z</time>
      </trkpt>
      <trkpt lat="44.56506" lon="0.8611">
        <ele>153</ele>
        <time>2018-03-03T16:41:07.511Z</time>
      </trkpt>
      <trkpt lat="44.5651" lon="0.86109">
        <ele>153</ele>
        <time>2018-03-03T16:41:08.511Z</time>
      </trkpt>
      <trkpt lat="44.56515" lon="0.86109">
        <ele>153</ele>
        <time>2018-03-03T16:41:09.511Z</time>
      </trkpt>
      <trkpt lat="44.56519" lon="0.86109">
        <ele>153</ele>
        <time>2018-03-03T16:41:10.511Z</time>
      </trkpt>
      <trkpt lat="44.56523" lon="0.86108">
        <ele>153</ele>
        <time>2018-03-03T16:41:11.511Z</time>
      </trkpt>
      <trkpt lat="44.56527" lon="0.86108">
        <ele>153</ele>
        <time>2018-03-03T16:41:12.511Z</time>
      </trkpt>
      <trkpt lat="44.56531" lon="0.86107">
        <ele>153</ele>
        <time>2018-03-03T16:41:13.511Z</time>
      </trkpt>
      <trkpt lat="44.56535" lon="0.86107">
        <ele>153</ele>
        <time>2018-03-03T16:41:14.511Z</time>
      </trkpt>
      <trkpt lat="44.56538" lon="0.86106">
        <ele>153</ele>
        <time>2018-03-03T16:41:15.511Z</time>
      </trkpt>
      <trkpt lat="44.56542" lon="0.86105">
        <ele>154</ele>
        <time>2018-03-03T16:41:16.511Z</time>
      </trkpt>
      <trkpt lat="44.56546" lon="0.86104">
        <ele>154</ele>
        <time>2018-03-03T16:41:17.511Z</time>
      </trkpt>
      <trkpt lat="44.56549" lon="0.86102">
        <ele>154</ele>
        <time>2018-03-03T16:41:18.511Z</time>
      </trkpt>
      <trkpt lat="44.56553" lon="0.861">
        <ele>153</ele>
        <time>2018-03-03T16:41:19.511Z</time>
      </trkpt>
      <trkpt lat="44.56556" lon="0.86098">
        <ele>154</ele>
        <time>2018-03-03T16:41:20.511Z</time>
      </trkpt>
      <trkpt lat="44.56559" lon="0.86096">
        <ele>154</ele>
        <time>2018-03-03T16:41:21.511Z</time>
      </trkpt>
      <trkpt lat="44.56563" lon="0.86093">
        <ele>154</ele>
        <time>2018-03-03T16:41:22.511Z</time>
      </trkpt>
      <trkpt lat="44.56566" lon="0.8609">
        <ele>154</ele>
        <time>2018-03-03T16:41:23.511Z</time>
      </trkpt>
      <trkpt lat="44.56569" lon="0.86086">
        <ele>154</ele>
        <time>2018-03-03T16:41:24.511Z</time>
      </trkpt>
      <trkpt lat="44.56573" lon="0.86083">
        <ele>154</ele>
        <time>2018-03-03T16:41:25.511Z</time>
      </trkpt>
      <trkpt lat="44.56576" lon="0.86079">
        <ele>154</ele>
        <time>2018-03-03T16:41:26.511Z</time>
      </trkpt>
      <trkpt lat="44.56579" lon="0.86076">
        <ele>154</ele>
        <time>2018-03-03T16:41:27.511Z</time>
      </trkpt>
      <trkpt lat="44.56583" lon="0.86072">
        <ele>154</ele>
        <time>2018-03-03T16:41:28.511Z</time>
      </trkpt>
      <trkpt lat="44.56586" lon="0.86069">
        <ele>155</ele>
        <time>2018-03-03T16:41:29.511Z</time>
      </trkpt>
      <trkpt lat="44.56589" lon="0.86065">
        <ele>155</ele>
        <time>2018-03-03T16:41:30.511Z</time>
      </trkpt>
      <trkpt lat="44.56591" lon="0.86061">
        <ele>155</ele>
        <time>2018-03-03T16:41:31.511Z</time>
      </trkpt>
      <trkpt lat="44.56594" lon="0.86057">
        <ele>155</ele>
        <time>2018-03-03T16:41:32.511Z</time>
      </trkpt>
      <trkpt lat="44.56596" lon="0.86052">
        <ele>156</ele>
        <time>2018-03-03T16:41:33.511Z</time>
      </trkpt>
      <trkpt lat="44.56598" lon="0.86047">
        <ele>156</ele>
        <time>2018-03-03T16:41:34.511Z</time>
      </trkpt>
      <trkpt lat="44.56599" lon="0.86042">
        <ele>156</ele>
        <time>2018-03-03T16:41:35.511Z</time>
      </trkpt>
      <trkpt lat="44.56601" lon="0.86036">
        <ele>156</ele>
        <time>2018-03-03T16:41:36.511Z</time>
      </trkpt>
      <trkpt lat="44.56602" lon="0.86031">
        <ele>156</ele>
        <time>2018-03-03T16:41:37.511Z</time>
      </trkpt>
      <trkpt lat="44.56603" lon="0.86025">
        <ele>157</ele>
        <time>2018-03-03T16:41:38.511Z</time>
      </trkpt>
      <trkpt lat="44.56605" lon="0.8602">
        <ele>157</ele>
        <time>2018-03-03T16:41:39.511Z</time>
      </trkpt>
      <trkpt lat="44.56606" lon="0.86014">
        <ele>157</ele>
        <time>2018-03-03T16:41:40.511Z</time>
      </trkpt>
      <trkpt lat="44.56607" lon="0.86009">
        <ele>157</ele>
        <time>2018-03-03T16:41:41.511Z</time>
      </trkpt>
      <trkpt lat="44.56608" lon="0.86003">
        <ele>157</ele>
        <time>2018-03-03T16:41:42.511Z</time>
      </trkpt>
      <trkpt lat="44.56609" lon="0.85998">
        <ele>158</ele>
        <time>2018-03-03T16:41:43.511Z</time>
      </trkpt>
      <trkpt lat="44.5661" lon="0.85993">
        <ele>158</ele>
        <time>2018-03-03T16:41:44.511Z</time>
      </trkpt>
      <trkpt lat="44.5661" lon="0.85988">
        <ele>158</ele>
        <time>2018-03-03T16:41:45.511Z</time>
      </trkpt>
      <trkpt lat="44.56611" lon="0.85983">
        <ele>158</ele>
        <time>2018-03-03T16:41:46.511Z</time>
      </trkpt>
      <trkpt lat="44.56612" lon="0.85978">
        <ele>158</ele>
        <time>2018-03-03T16:41:47.511Z</time>
      </trkpt>
      <trkpt lat="44.56612" lon="0.85973">
        <ele>159</ele>
        <time>2018-03-03T16:41:48.511Z</time>
      </trkpt>
      <trkpt lat="44.56613" lon="0.85969">
        <ele>159</ele>
        <time>2018-03-03T16:41:49.511Z</time>
      </trkpt>
      <trkpt lat="44.56613" lon="0.85964">
        <ele>159</ele>
        <time>2018-03-03T16:41:50.511Z</time>
      </trkpt>
      <trkpt lat="44.56613" lon="0.8596">
        <ele>159</ele>
        <time>2018-03-03T16:41:51.511Z</time>
      </trkpt>
      <trkpt lat="44.56614" lon="0.85955">
        <ele>159</ele>
        <time>2018-03-03T16:41:52.511Z</time>
      </trkpt>
      <trkpt lat="44.56614" lon="0.85951">
        <ele>160</ele>
        <time>2018-03-03T16:41:53.511Z</time>
      </trkpt>
      <trkpt lat="44.56615" lon="0.85947">
        <ele>160</ele>
        <time>2018-03-03T16:41:54.511Z</time>
      </trkpt>
      <trkpt lat="44.56615" lon="0.85942">
        <ele>160</ele>
        <time>2018-03-03T16:41:55.511Z</time>
      </trkpt>
      <trkpt lat="44.56615" lon="0.85938">
        <ele>160</ele>
        <time>2018-03-03T16:41:56.511Z</time>
      </trkpt>
      <trkpt lat="44.56616" lon="0.85934">
        <ele>160</ele>
        <time>2018-03-03T16:41:57.511Z</time>
      </trkpt>
      <trkpt lat="44.56616" lon="0.85929">
        <ele>160</ele>
        <time>2018-03-03T16:41:58.511Z</time>
      </trkpt>
      <trkpt lat="44.56616" lon="0.85925">
        <ele>161</ele>
        <time>2018-03-03T16:41:59.511Z</time>
      </trkpt>
      <trkpt lat="44.56617" lon="0.8592">
        <ele>161</ele>
        <time>2018-03-03T16:42:00.511Z</time>
      </trkpt>
      <trkpt lat="44.56617" lon="0.85916">
        <ele>161</ele>
        <time>2018-03-03T16:42:01.511Z</time>
      </trkpt>
      <trkpt lat="44.56617" lon="0.85912">
        <ele>161</ele>
        <time>2018-03-03T16:42:02.511Z</time>
      </trkpt>
      <trkpt lat="44.56618" lon="0.85907">
        <ele>161</ele>
        <time>2018-03-03T16:42:03.511Z</time>
      </trkpt>
      <trkpt lat="44.56618" lon="0.85903">
        <ele>162</ele>
        <time>2018-03-03T16:42:04.511Z</time>
      </trkpt>
      <trkpt lat="44.56618" lon="0.85899">
        <ele>162</ele>
        <time>2018-03-03T16:42:05.511Z</time>
      </trkpt>
      <trkpt lat="44.56619" lon="0.85894">
        <ele>162</ele>
        <time>2018-03-03T16:42:06.511Z</time>
      </trkpt>
      <trkpt lat="44.56619" lon="0.8589">
        <ele>162</ele>
        <time>2018-03-03T16:42:07.511Z</time>
      </trkpt>
      <trkpt lat="44.56619" lon="0.85886">
        <ele>163</ele>
        <time>2018-03-03T16:42:08.511Z</time>
      </trkpt>
      <trkpt lat="44.5662" lon="0.85881">
        <ele>163</ele>
        <time>2018-03-03T16:42:09.511Z</time>
      </trkpt>
      <trkpt lat="44.5662" lon="0.85877">
        <ele>163</ele>
        <time>2018-03-03T16:42:10.511Z</time>
      </trkpt>
      <trkpt lat="44.56621" lon="0.85872">
        <ele>163</ele>
        <time>2018-03-03T16:42:11.511Z</time>
      </trkpt>
      <trkpt lat="44.56621" lon="0.85868">
        <ele>163</ele>
        <time>2018-03-03T16:42:12.511Z</time>
      </trkpt>
      <trkpt lat="44.56621" lon="0.85863">
        <ele>163</ele>
        <time>2018-03-03T16:42:13.511Z</time>
      </trkpt>
      <trkpt lat="44.56622" lon="0.85859">
        <ele>164</ele>
        <time>2018-03-03T16:42:14.511Z</time>
      </trkpt>
      <trkpt lat="44.56622" lon="0.85854">
        <ele>164</ele>
        <time>2018-03-03T16:42:15.511Z</time>
      </trkpt>
      <trkpt lat="44.56622" lon="0.85849">
        <ele>164</ele>
        <time>2018-03-03T16:42:16.511Z</time>
      </trkpt>
      <trkpt lat="44.56623" lon="0.85845">
        <ele>164</ele>
        <time>2018-03-03T16:42:17.511Z</time>
      </trkpt>
      <trkpt lat="44.56623" lon="0.8584">
        <ele>164</ele>
        <time>2018-03-03T16:42:18.511Z</time>
      </trkpt>
      <trkpt lat="44.56623" lon="0.85835">
        <ele>165</ele>
        <time>2018-03-03T16:42:19.511Z</time>
      </trkpt>
      <trkpt lat="44.56624" lon="0.8583">
        <ele>165</ele>
        <time>2018-03-03T16:42:20.511Z</time>
      </trkpt>
      <trkpt lat="44.56624" lon="0.85825">
        <ele>165</ele>
        <time>2018-03-03T16:42:21.511Z</time>
      </trkpt>
      <trkpt lat="44.56624" lon="0.85821">
        <ele>165</ele>
        <time>2018-03-03T16:42:22.511Z</time>
      </trkpt>
      <trkpt lat="44.56624" lon="0.85816">
        <ele>165</ele>
        <time>2018-03-03T16:42:23.511Z</time>
      </trkpt>
      <trkpt lat="44.56624" lon="0.85811">
        <ele>165</ele>
        <time>2018-03-03T16:42:24.511Z</time>
      </trkpt>
      <trkpt lat="44.56624" lon="0.85806">
        <ele>166</ele>
        <time>2018-03-03T16:42:25.511Z</time>
      </trkpt>
      <trkpt lat="44.56624" lon="0.85801">
        <ele>166</ele>
        <time>2018-03-03T16:42:26.511Z</time>
      </trkpt>
      <trkpt lat="44.56624" lon="0.85797">
        <ele>166</ele>
        <time>2018-03-03T16:42:27.511Z</time>
      </trkpt>
      <trkpt lat="44.56624" lon="0.85792">
        <ele>166</ele>
        <time>2018-03-03T16:42:28.511Z</time>
      </trkpt>
      <trkpt lat="44.56624" lon="0.85787">
        <ele>166</ele>
        <time>2018-03-03T16:42:29.511Z</time>
      </trkpt>
      <trkpt lat="44.56623" lon="0.85783">
        <ele>166</ele>
        <time>2018-03-03T16:42:30.511Z</time>
      </trkpt>
      <trkpt lat="44.56623" lon="0.85778">
        <ele>167</ele>
        <time>2018-03-03T16:42:31.511Z</time>
      </trkpt>
      <trkpt lat="44.56623" lon="0.85774">
        <ele>167</ele>
        <time>2018-03-03T16:42:32.511Z</time>
      </trkpt>
      <trkpt lat="44.56623" lon="0.85769">
        <ele>167</ele>
        <time>2018-03-03T16:42:33.511Z</time>
      </trkpt>
      <trkpt lat="44.56623" lon="0.85765">
        <ele>167</ele>
        <time>2018-03-03T16:42:34.511Z</time>
      </trkpt>
      <trkpt lat="44.56623" lon="0.8576">
        <ele>167</ele>
        <time>2018-03-03T16:42:35.511Z</time>
      </trkpt>
      <trkpt lat="44.56623" lon="0.85756">
        <ele>167</ele>
        <time>2018-03-03T16:42:36.511Z</time>
      </trkpt>
      <trkpt lat="44.56623" lon="0.85751">
        <ele>168</ele>
        <time>2018-03-03T16:42:37.511Z</time>
      </trkpt>
      <trkpt lat="44.56623" lon="0.85746">
        <ele>168</ele>
        <time>2018-03-03T16:42:38.511Z</time>
      </trkpt>
      <trkpt lat="44.56623" lon="0.85741">
        <ele>168</ele>
        <time>2018-03-03T16:42:39.511Z</time>
      </trkpt>
      <trkpt lat="44.56623" lon="0.85736">
        <ele>168</ele>
        <time>2018-03-03T16:42:40.511Z</time>
      </trkpt>
      <trkpt lat="44.56624" lon="0.85731">
        <ele>168</ele>
        <time>2018-03-03T16:42:41.511Z</time>
      </trkpt>
      <trkpt lat="44.56624" lon="0.85725">
        <ele>168</ele>
        <time>2018-03-03T16:42:42.511Z</time>
      </trkpt>
      <trkpt lat="44.56625" lon="0.8572">
        <ele>168</ele>
        <time>2018-03-03T16:42:43.511Z</time>
      </trkpt>
      <trkpt lat="44.56625" lon="0.85715">
        <ele>168</ele>
        <time>2018-03-03T16:42:44.511Z</time>
      </trkpt>
      <trkpt lat="44.56626" lon="0.8571">
        <ele>169</ele>
        <time>2018-03-03T16:42:45.511Z</time>
      </trkpt>
      <trkpt lat="44.56626" lon="0.85704">
        <ele>169</ele>
        <time>2018-03-03T16:42:46.511Z</time>
      </trkpt>
      <trkpt lat="44.56627" lon="0.85699">
        <ele>169</ele>
        <time>2018-03-03T16:42:47.511Z</time>
      </trkpt>
      <trkpt lat="44.56628" lon="0.85694">
        <ele>169</ele>
        <time>2018-03-03T16:42:48.511Z</time>
      </trkpt>
      <trkpt lat="44.56629" lon="0.85689">
        <ele>169</ele>
        <time>2018-03-03T16:42:49.511Z</time>
      </trkpt>
      <trkpt lat="44.56629" lon="0.85685">
        <ele>169</ele>
        <time>2018-03-03T16:42:50.511Z</time>
      </trkpt>
      <trkpt lat="44.5663" lon="0.8568">
        <ele>169</ele>
        <time>2018-03-03T16:42:51.511Z</time>
      </trkpt>
      <trkpt lat="44.56631" lon="0.85675">
        <ele>170</ele>
        <time>2018-03-03T16:42:52.511Z</time>
      </trkpt>
      <trkpt lat="44.56631" lon="0.85671">
        <ele>170</ele>
        <time>2018-03-03T16:42:53.511Z</time>
      </trkpt>
      <trkpt lat="44.56632" lon="0.85666">
        <ele>170</ele>
        <time>2018-03-03T16:42:54.511Z</time>
      </trkpt>
      <trkpt lat="44.56633" lon="0.85662">
        <ele>170</ele>
        <time>2018-03-03T16:42:55.511Z</time>
      </trkpt>
      <trkpt lat="44.56633" lon="0.85658">
        <ele>170</ele>
        <time>2018-03-03T16:42:56.511Z</time>
      </trkpt>
      <trkpt lat="44.56634" lon="0.85653">
        <ele>170</ele>
        <time>2018-03-03T16:42:57.511Z</time>
      </trkpt>
      <trkpt lat="44.56635" lon="0.85649">
        <ele>170</ele>
        <time>2018-03-03T16:42:58.511Z</time>
      </trkpt>
      <trkpt lat="44.56635" lon="0.85645">
        <ele>171</ele>
        <time>2018-03-03T16:42:59.511Z</time>
      </trkpt>
      <trkpt lat="44.56636" lon="0.8564">
        <ele>171</ele>
        <time>2018-03-03T16:43:00.511Z</time>
      </trkpt>
      <trkpt lat="44.56637" lon="0.85635">
        <ele>171</ele>
        <time>2018-03-03T16:43:01.511Z</time>
      </trkpt>
      <trkpt lat="44.56638" lon="0.8563">
        <ele>171</ele>
        <time>2018-03-03T16:43:02.511Z</time>
      </trkpt>
      <trkpt lat="44.56639" lon="0.85625">
        <ele>171</ele>
        <time>2018-03-03T16:43:03.511Z</time>
      </trkpt>
      <trkpt lat="44.5664" lon="0.8562">
        <ele>171</ele>
        <time>2018-03-03T16:43:04.511Z</time>
      </trkpt>
      <trkpt lat="44.56641" lon="0.85615">
        <ele>171</ele>
        <time>2018-03-03T16:43:05.511Z</time>
      </trkpt>
      <trkpt lat="44.56641" lon="0.8561">
        <ele>171</ele>
        <time>2018-03-03T16:43:06.511Z</time>
      </trkpt>
      <trkpt lat="44.56642" lon="0.85605">
        <ele>171</ele>
        <time>2018-03-03T16:43:07.511Z</time>
      </trkpt>
      <trkpt lat="44.56643" lon="0.856">
        <ele>171</ele>
        <time>2018-03-03T16:43:08.511Z</time>
      </trkpt>
      <trkpt lat="44.56644" lon="0.85595">
        <ele>172</ele>
        <time>2018-03-03T16:43:09.511Z</time>
      </trkpt>
      <trkpt lat="44.56645" lon="0.85591">
        <ele>172</ele>
        <time>2018-03-03T16:43:10.511Z</time>
      </trkpt>
      <trkpt lat="44.56646" lon="0.85586">
        <ele>172</ele>
        <time>2018-03-03T16:43:11.511Z</time>
      </trkpt>
      <trkpt lat="44.56647" lon="0.85581">
        <ele>172</ele>
        <time>2018-03-03T16:43:12.511Z</time>
      </trkpt>
      <trkpt lat="44.56647" lon="0.85577">
        <ele>172</ele>
        <time>2018-03-03T16:43:13.511Z</time>
      </trkpt>
      <trkpt lat="44.56648" lon="0.85573">
        <ele>172</ele>
        <time>2018-03-03T16:43:14.511Z</time>
      </trkpt>
      <trkpt lat="44.56649" lon="0.85568">
        <ele>172</ele>
        <time>2018-03-03T16:43:15.511Z</time>
      </trkpt>
      <trkpt lat="44.5665" lon="0.85564">
        <ele>173</ele>
        <time>2018-03-03T16:43:16.511Z</time>
      </trkpt>
      <trkpt lat="44.5665" lon="0.8556">
        <ele>173</ele>
        <time>2018-03-03T16:43:17.511Z</time>
      </trkpt>
      <trkpt lat="44.56651" lon="0.85556">
        <ele>173</ele>
        <time>2018-03-03T16:43:18.511Z</time>
      </trkpt>
      <trkpt lat="44.56652" lon="0.85552">
        <ele>173</ele>
        <time>2018-03-03T16:43:19.511Z</time>
      </trkpt>
      <trkpt lat="44.56653" lon="0.85548">
        <ele>173</ele>
        <time>2018-03-03T16:43:20.511Z</time>
      </trkpt>
      <trkpt lat="44.56653" lon="0.85544">
        <ele>173</ele>
        <time>2018-03-03T16:43:21.511Z</time>
      </trkpt>
      <trkpt lat="44.56654" lon="0.8554">
        <ele>173</ele>
        <time>2018-03-03T16:43:22.511Z</time>
      </trkpt>
      <trkpt lat="44.56655" lon="0.85536">
        <ele>173</ele>
        <time>2018-03-03T16:43:23.511Z</time>
      </trkpt>
      <trkpt lat="44.56656" lon="0.85533">
        <ele>173</ele>
        <time>2018-03-03T16:43:24.511Z</time>
      </trkpt>
      <trkpt lat="44.56657" lon="0.85529">
        <ele>174</ele>
        <time>2018-03-03T16:43:25.511Z</time>
      </trkpt>
      <trkpt lat="44.56658" lon="0.85526">
        <ele>174</ele>
        <time>2018-03-03T16:43:26.511Z</time>
      </trkpt>
      <trkpt lat="44.56659" lon="0.85522">
        <ele>174</ele>
        <time>2018-03-03T16:43:27.511Z</time>
      </trkpt>
      <trkpt lat="44.56661" lon="0.85519">
        <ele>174</ele>
        <time>2018-03-03T16:43:28.511Z</time>
      </trkpt>
      <trkpt lat="44.56662" lon="0.85516">
        <ele>174</ele>
        <time>2018-03-03T16:43:29.511Z</time>
      </trkpt>
      <trkpt lat="44.56664" lon="0.85513">
        <ele>174</ele>
        <time>2018-03-03T16:43:30.511Z</time>
      </trkpt>
      <trkpt lat="44.56666" lon="0.8551">
        <ele>174</ele>
        <time>2018-03-03T16:43:31.511Z</time>
      </trkpt>
      <trkpt lat="44.56668" lon="0.85508">
        <ele>174</ele>
        <time>2018-03-03T16:43:32.511Z</time>
      </trkpt>
      <trkpt lat="44.5667" lon="0.85506">
        <ele>174</ele>
        <time>2018-03-03T16:43:33.511Z</time>
      </trkpt>
      <trkpt lat="44.56673" lon="0.85504">
        <ele>174</ele>
        <time>2018-03-03T16:43:34.511Z</time>
      </trkpt>
      <trkpt lat="44.56676" lon="0.85502">
        <ele>174</ele>
        <time>2018-03-03T16:43:35.511Z</time>
      </trkpt>
      <trkpt lat="44.56678" lon="0.85501">
        <ele>174</ele>
        <time>2018-03-03T16:43:36.511Z</time>
      </trkpt>
      <trkpt lat="44.56681" lon="0.855">
        <ele>174</ele>
        <time>2018-03-03T16:43:37.511Z</time>
      </trkpt>
      <trkpt lat="44.56685" lon="0.85498">
        <ele>174</ele>
        <time>2018-03-03T16:43:38.511Z</time>
      </trkpt>
      <trkpt lat="44.56688" lon="0.85497">
        <ele>174</ele>
        <time>2018-03-03T16:43:39.511Z</time>
      </trkpt>
      <trkpt lat="44.56691" lon="0.85495">
        <ele>174</ele>
        <time>2018-03-03T16:43:40.511Z</time>
      </trkpt>
      <trkpt lat="44.56694" lon="0.85493">
        <ele>174</ele>
        <time>2018-03-03T16:43:41.511Z</time>
      </trkpt>
      <trkpt lat="44.56697" lon="0.8549">
        <ele>174</ele>
        <time>2018-03-03T16:43:42.511Z</time>
      </trkpt>
      <trkpt lat="44.567" lon="0.85488">
        <ele>175</ele>
        <time>2018-03-03T16:43:43.511Z</time>
      </trkpt>
      <trkpt lat="44.56704" lon="0.85486">
        <ele>175</ele>
        <time>2018-03-03T16:43:44.511Z</time>
      </trkpt>
      <trkpt lat="44.56707" lon="0.85483">
        <ele>175</ele>
        <time>2018-03-03T16:43:45.511Z</time>
      </trkpt>
      <trkpt lat="44.56709" lon="0.85481">
        <ele>175</ele>
        <time>2018-03-03T16:43:46.511Z</time>
      </trkpt>
      <trkpt lat="44.56712" lon="0.85479">
        <ele>175</ele>
        <time>2018-03-03T16:43:47.511Z</time>
      </trkpt>
      <trkpt lat="44.56715" lon="0.85477">
        <ele>175</ele>
        <time>2018-03-03T16:43:48.511Z</time>
      </trkpt>
      <trkpt lat="44.56718" lon="0.85475">
        <ele>175</ele>
        <time>2018-03-03T16:43:49.511Z</time>
      </trkpt>
      <trkpt lat="44.56721" lon="0.85473">
        <ele>175</ele>
        <time>2018-03-03T16:43:50.511Z</time>
      </trkpt>
      <trkpt lat="44.56724" lon="0.85471">
        <ele>175</ele>
        <time>2018-03-03T16:43:51.511Z</time>
      </trkpt>
      <trkpt lat="44.56727" lon="0.85469">
        <ele>175</ele>
        <time>2018-03-03T16:43:52.511Z</time>
      </trkpt>
      <trkpt lat="44.5673" lon="0.85468">
        <ele>175</ele>
        <time>2018-03-03T16:43:53.511Z</time>
      </trkpt>
      <trkpt lat="44.56733" lon="0.85466">
        <ele>175</ele>
        <time>2018-03-03T16:43:54.511Z</time>
      </trkpt>
      <trkpt lat="44.56735" lon="0.85465">
        <ele>176</ele>
        <time>2018-03-03T16:43:55.511Z</time>
      </trkpt>
      <trkpt lat="44.56738" lon="0.85463">
        <ele>176</ele>
        <time>2018-03-03T16:43:56.511Z</time>
      </trkpt>
      <trkpt lat="44.56741" lon="0.85462">
        <ele>176</ele>
        <time>2018-03-03T16:43:57.511Z</time>
      </trkpt>
      <trkpt lat="44.56744" lon="0.8546">
        <ele>176</ele>
        <time>2018-03-03T16:43:58.511Z</time>
      </trkpt>
      <trkpt lat="44.56747" lon="0.85459">
        <ele>176</ele>
        <time>2018-03-03T16:43:59.511Z</time>
      </trkpt>
      <trkpt lat="44.5675" lon="0.85457">
        <ele>176</ele>
        <time>2018-03-03T16:44:00.511Z</time>
      </trkpt>
      <trkpt lat="44.56752" lon="0.85456">
        <ele>177</ele>
        <time>2018-03-03T16:44:01.511Z</time>
      </trkpt>
      <trkpt lat="44.56755" lon="0.85454">
        <ele>177</ele>
        <time>2018-03-03T16:44:02.511Z</time>
      </trkpt>
      <trkpt lat="44.56758" lon="0.85453">
        <ele>177</ele>
        <time>2018-03-03T16:44:03.511Z</time>
      </trkpt>
      <trkpt lat="44.56761" lon="0.85451">
        <ele>177</ele>
        <time>2018-03-03T16:44:04.511Z</time>
      </trkpt>
      <trkpt lat="44.56764" lon="0.85449">
        <ele>177</ele>
        <time>2018-03-03T16:44:05.511Z</time>
      </trkpt>
      <trkpt lat="44.56767" lon="0.85448">
        <ele>177</ele>
        <time>2018-03-03T16:44:06.511Z</time>
      </trkpt>
      <trkpt lat="44.5677" lon="0.85446">
        <ele>177</ele>
        <time>2018-03-03T16:44:07.511Z</time>
      </trkpt>
      <trkpt lat="44.56773" lon="0.85444">
        <ele>177</ele>
        <time>2018-03-03T16:44:08.511Z</time>
      </trkpt>
      <trkpt lat="44.56776" lon="0.85442">
        <ele>177</ele>
        <time>2018-03-03T16:44:09.511Z</time>
      </trkpt>
      <trkpt lat="44.56779" lon="0.8544">
        <ele>177</ele>
        <time>2018-03-03T16:44:10.511Z</time>
      </trkpt>
      <trkpt lat="44.56782" lon="0.85439">
        <ele>177</ele>
        <time>2018-03-03T16:44:11.511Z</time>
      </trkpt>
      <trkpt lat="44.56785" lon="0.85437">
        <ele>177</ele>
        <time>2018-03-03T16:44:12.511Z</time>
      </trkpt>
      <trkpt lat="44.56789" lon="0.85436">
        <ele>177</ele>
        <time>2018-03-03T16:44:13.511Z</time>
      </trkpt>
      <trkpt lat="44.56792" lon="0.85435">
        <ele>177</ele>
        <time>2018-03-03T16:44:14.511Z</time>
      </trkpt>
      <trkpt lat="44.56795" lon="0.85434">
        <ele>177</ele>
        <time>2018-03-03T16:44:15.511Z</time>
      </trkpt>
      <trkpt lat="44.56798" lon="0.85433">
        <ele>177</ele>
        <time>2018-03-03T16:44:16.511Z</time>
      </trkpt>
      <trkpt lat="44.56802" lon="0.85433">
        <ele>177</ele>
        <time>2018-03-03T16:44:17.511Z</time>
      </trkpt>
      <trkpt lat="44.56805" lon="0.85433">
        <ele>177</ele>
        <time>2018-03-03T16:44:18.511Z</time>
      </trkpt>
      <trkpt lat="44.56808" lon="0.85434">
        <ele>177</ele>
        <time>2018-03-03T16:44:19.511Z</time>
      </trkpt>
      <trkpt lat="44.56811" lon="0.85434">
        <ele>177</ele>
        <time>2018-03-03T16:44:20.511Z</time>
      </trkpt>
      <trkpt lat="44.56815" lon="0.85435">
        <ele>177</ele>
        <time>2018-03-03T16:44:21.511Z</time>
      </trkpt>
      <trkpt lat="44.56818" lon="0.85436">
        <ele>177</ele>
        <time>2018-03-03T16:44:22.511Z</time>
      </trkpt>
      <trkpt lat="44.56822" lon="0.85436">
        <ele>177</ele>
        <time>2018-03-03T16:44:23.511Z</time>
      </trkpt>
      <trkpt lat="44.56825" lon="0.85437">
        <ele>177</ele>
        <time>2018-03-03T16:44:24.511Z</time>
      </trkpt>
      <trkpt lat="44.56828" lon="0.85437">
        <ele>177</ele>
        <time>2018-03-03T16:44:25.511Z</time>
      </trkpt>
      <trkpt lat="44.56832" lon="0.85438">
        <ele>177</ele>
        <time>2018-03-03T16:44:26.511Z</time>
      </trkpt>
      <trkpt lat="44.56835" lon="0.85438">
        <ele>177</ele>
        <time>2018-03-03T16:44:27.511Z</time>
      </trkpt>
      <trkpt lat="44.56838" lon="0.85439">
        <ele>177</ele>
        <time>2018-03-03T16:44:28.511Z</time>
      </trkpt>
      <trkpt lat="44.56841" lon="0.85439">
        <ele>177</ele>
        <time>2018-03-03T16:44:29.511Z</time>
      </trkpt>
      <trkpt lat="44.56844" lon="0.85439">
        <ele>177</ele>
        <time>2018-03-03T16:44:30.511Z</time>
      </trkpt>
      <trkpt lat="44.56847" lon="0.8544">
        <ele>178</ele>
        <time>2018-03-03T16:44:31.511Z</time>
      </trkpt>
      <trkpt lat="44.5685" lon="0.8544">
        <ele>178</ele>
        <time>2018-03-03T16:44:32.511Z</time>
      </trkpt>
      <trkpt lat="44.56853" lon="0.8544">
        <ele>178</ele>
        <time>2018-03-03T16:44:33.511Z</time>
      </trkpt>
      <trkpt lat="44.56856" lon="0.85439">
        <ele>178</ele>
        <time>2018-03-03T16:44:34.511Z</time>
      </trkpt>
      <trkpt lat="44.56859" lon="0.85439">
        <ele>178</ele>
        <time>2018-03-03T16:44:35.511Z</time>
      </trkpt>
      <trkpt lat="44.56862" lon="0.85438">
        <ele>178</ele>
        <time>2018-03-03T16:44:36.511Z</time>
      </trkpt>
      <trkpt lat="44.56865" lon="0.85437">
        <ele>178</ele>
        <time>2018-03-03T16:44:37.511Z</time>
      </trkpt>
      <trkpt lat="44.56868" lon="0.85436">
        <ele>178</ele>
        <time>2018-03-03T16:44:38.511Z</time>
      </trkpt>
      <trkpt lat="44.56871" lon="0.85435">
        <ele>178</ele>
        <time>2018-03-03T16:44:39.511Z</time>
      </trkpt>
      <trkpt lat="44.56875" lon="0.85434">
        <ele>178</ele>
        <time>2018-03-03T16:44:40.511Z</time>
      </trkpt>
      <trkpt lat="44.56879" lon="0.85434">
        <ele>178</ele>
        <time>2018-03-03T16:44:41.511Z</time>
      </trkpt>
      <trkpt lat="44.56882" lon="0.85433">
        <ele>178</ele>
        <time>2018-03-03T16:44:42.511Z</time>
      </trkpt>
      <trkpt lat="44.56886" lon="0.85433">
        <ele>178</ele>
        <time>2018-03-03T16:44:43.511Z</time>
      </trkpt>
      <trkpt lat="44.5689" lon="0.85433">
        <ele>177</ele>
        <time>2018-03-03T16:44:44.511Z</time>
      </trkpt>
      <trkpt lat="44.56893" lon="0.85432">
        <ele>177</ele>
        <time>2018-03-03T16:44:45.511Z</time>
      </trkpt>
      <trkpt lat="44.56897" lon="0.85432">
        <ele>177</ele>
        <time>2018-03-03T16:44:46.511Z</time>
      </trkpt>
      <trkpt lat="44.56901" lon="0.85431">
        <ele>177</ele>
        <time>2018-03-03T16:44:47.511Z</time>
      </trkpt>
      <trkpt lat="44.56904" lon="0.85431">
        <ele>177</ele>
        <time>2018-03-03T16:44:48.511Z</time>
      </trkpt>
      <trkpt lat="44.56908" lon="0.85431">
        <ele>177</ele>
        <time>2018-03-03T16:44:49.511Z</time>
      </trkpt>
      <trkpt lat="44.56912" lon="0.85432">
        <ele>177</ele>
        <time>2018-03-03T16:44:50.511Z</time>
      </trkpt>
      <trkpt lat="44.56915" lon="0.85432">
        <ele>177</ele>
        <time>2018-03-03T16:44:51.511Z</time>
      </trkpt>
      <trkpt lat="44.56919" lon="0.85433">
        <ele>177</ele>
        <time>2018-03-03T16:44:52.511Z</time>
      </trkpt>
      <trkpt lat="44.56923" lon="0.85433">
        <ele>177</ele>
        <time>2018-03-03T16:44:53.511Z</time>
      </trkpt>
      <trkpt lat="44.56927" lon="0.85434">
        <ele>177</ele>
        <time>2018-03-03T16:44:54.511Z</time>
      </trkpt>
      <trkpt lat="44.56931" lon="0.85434">
        <ele>177</ele>
        <time>2018-03-03T16:44:55.511Z</time>
      </trkpt>
      <trkpt lat="44.56935" lon="0.85434">
        <ele>177</ele>
        <time>2018-03-03T16:44:56.511Z</time>
      </trkpt>
      <trkpt lat="44.56939" lon="0.85433">
        <ele>177</ele>
        <time>2018-03-03T16:44:57.511Z</time>
      </trkpt>
      <trkpt lat="44.56944" lon="0.85433">
        <ele>177</ele>
        <time>2018-03-03T16:44:58.511Z</time>
      </trkpt>
      <trkpt lat="44.56948" lon="0.85433">
        <ele>177</ele>
        <time>2018-03-03T16:44:59.511Z</time>
      </trkpt>
      <trkpt lat="44.56953" lon="0.85433">
        <ele>177</ele>
        <time>2018-03-03T16:45:00.511Z</time>
      </trkpt>
      <trkpt lat="44.56957" lon="0.85433">
        <ele>177</ele>
        <time>2018-03-03T16:45:01.511Z</time>
      </trkpt>
      <trkpt lat="44.56962" lon="0.85433">
        <ele>177</ele>
        <time>2018-03-03T16:45:02.511Z</time>
      </trkpt>
      <trkpt lat="44.56966" lon="0.85434">
        <ele>177</ele>
        <time>2018-03-03T16:45:03.511Z</time>
      </trkpt>
      <trkpt lat="44.56971" lon="0.85434">
        <ele>177</ele>
        <time>2018-03-03T16:45:04.511Z</time>
      </trkpt>
      <trkpt lat="44.56975" lon="0.85435">
        <ele>177</ele>
        <time>2018-03-03T16:45:05.511Z</time>
      </trkpt>
      <trkpt lat="44.5698" lon="0.85436">
        <ele>177</ele>
        <time>2018-03-03T16:45:06.511Z</time>
      </trkpt>
      <trkpt lat="44.56984" lon="0.85437">
        <ele>177</ele>
        <time>2018-03-03T16:45:07.511Z</time>
      </trkpt>
      <trkpt lat="44.56989" lon="0.85438">
        <ele>177</ele>
        <time>2018-03-03T16:45:08.511Z</time>
      </trkpt>
      <trkpt lat="44.56993" lon="0.85438">
        <ele>177</ele>
        <time>2018-03-03T16:45:09.511Z</time>
      </trkpt>
      <trkpt lat="44.56998" lon="0.85439">
        <ele>177</ele>
        <time>2018-03-03T16:45:10.511Z</time>
      </trkpt>
      <trkpt lat="44.57002" lon="0.8544">
        <ele>177</ele>
        <time>2018-03-03T16:45:11.511Z</time>
      </trkpt>
      <trkpt lat="44.57006" lon="0.8544">
        <ele>177</ele>
        <time>2018-03-03T16:45:12.511Z</time>
      </trkpt>
      <trkpt lat="44.5701" lon="0.8544">
        <ele>177</ele>
        <time>2018-03-03T16:45:13.511Z</time>
      </trkpt>
      <trkpt lat="44.57014" lon="0.8544">
        <ele>177</ele>
        <time>2018-03-03T16:45:14.511Z</time>
      </trkpt>
      <trkpt lat="44.57018" lon="0.85439">
        <ele>177</ele>
        <time>2018-03-03T16:45:15.511Z</time>
      </trkpt>
      <trkpt lat="44.57022" lon="0.85439">
        <ele>177</ele>
        <time>2018-03-03T16:45:16.511Z</time>
      </trkpt>
      <trkpt lat="44.57027" lon="0.85438">
        <ele>177</ele>
        <time>2018-03-03T16:45:17.511Z</time>
      </trkpt>
      <trkpt lat="44.57031" lon="0.85437">
        <ele>177</ele>
        <time>2018-03-03T16:45:18.511Z</time>
      </trkpt>
      <trkpt lat="44.57035" lon="0.85435">
        <ele>177</ele>
        <time>2018-03-03T16:45:19.511Z</time>
      </trkpt>
      <trkpt lat="44.57039" lon="0.85434">
        <ele>177</ele>
        <time>2018-03-03T16:45:20.511Z</time>
      </trkpt>
      <trkpt lat="44.57043" lon="0.85431">
        <ele>177</ele>
        <time>2018-03-03T16:45:21.511Z</time>
      </trkpt>
      <trkpt lat="44.57046" lon="0.85429">
        <ele>177</ele>
        <time>2018-03-03T16:45:22.511Z</time>
      </trkpt>
      <trkpt lat="44.57049" lon="0.85425">
        <ele>177</ele>
        <time>2018-03-03T16:45:23.511Z</time>
      </trkpt>
      <trkpt lat="44.57051" lon="0.85421">
        <ele>177</ele>
        <time>2018-03-03T16:45:24.511Z</time>
      </trkpt>
      <trkpt lat="44.57053" lon="0.85417">
        <ele>177</ele>
        <time>2018-03-03T16:45:25.511Z</time>
      </trkpt>
      <trkpt lat="44.57054" lon="0.85412">
        <ele>176</ele>
        <time>2018-03-03T16:45:26.511Z</time>
      </trkpt>
      <trkpt lat="44.57054" lon="0.85407">
        <ele>176</ele>
        <time>2018-03-03T16:45:27.511Z</time>
      </trkpt>
      <trkpt lat="44.57054" lon="0.85402">
        <ele>176</ele>
        <time>2018-03-03T16:45:28.511Z</time>
      </trkpt>
      <trkpt lat="44.57054" lon="0.85397">
        <ele>176</ele>
        <time>2018-03-03T16:45:29.511Z</time>
      </trkpt>
      <trkpt lat="44.57053" lon="0.85391">
        <ele>176</ele>
        <time>2018-03-03T16:45:30.511Z</time>
      </trkpt>
      <trkpt lat="44.57053" lon="0.85385">
        <ele>176</ele>
        <time>2018-03-03T16:45:31.511Z</time>
      </trkpt>
      <trkpt lat="44.57052" lon="0.85379">
        <ele>176</ele>
        <time>2018-03-03T16:45:32.511Z</time>
      </trkpt>
      <trkpt lat="44.57052" lon="0.85372">
        <ele>176</ele>
        <time>2018-03-03T16:45:33.511Z</time>
      </trkpt>
      <trkpt lat="44.57051" lon="0.85366">
        <ele>175</ele>
        <time>2018-03-03T16:45:34.511Z</time>
      </trkpt>
      <trkpt lat="44.57051" lon="0.85359">
        <ele>175</ele>
        <time>2018-03-03T16:45:35.511Z</time>
      </trkpt>
      <trkpt lat="44.5705" lon="0.85352">
        <ele>175</ele>
        <time>2018-03-03T16:45:36.511Z</time>
      </trkpt>
      <trkpt lat="44.57048" lon="0.85346">
        <ele>174</ele>
        <time>2018-03-03T16:45:37.511Z</time>
      </trkpt>
      <trkpt lat="44.57047" lon="0.85339">
        <ele>174</ele>
        <time>2018-03-03T16:45:38.511Z</time>
      </trkpt>
      <trkpt lat="44.57048" lon="0.85333">
        <ele>174</ele>
        <time>2018-03-03T16:45:39.511Z</time>
      </trkpt>
      <trkpt lat="44.57049" lon="0.85328">
        <ele>173</ele>
        <time>2018-03-03T16:45:40.511Z</time>
      </trkpt>
      <trkpt lat="44.57052" lon="0.85322">
        <ele>173</ele>
        <time>2018-03-03T16:45:41.511Z</time>
      </trkpt>
      <trkpt lat="44.57056" lon="0.85317">
        <ele>173</ele>
        <time>2018-03-03T16:45:42.511Z</time>
      </trkpt>
      <trkpt lat="44.5706" lon="0.85313">
        <ele>172</ele>
        <time>2018-03-03T16:45:43.511Z</time>
      </trkpt>
      <trkpt lat="44.57065" lon="0.8531">
        <ele>172</ele>
        <time>2018-03-03T16:45:44.511Z</time>
      </trkpt>
      <trkpt lat="44.5707" lon="0.85308">
        <ele>172</ele>
        <time>2018-03-03T16:45:45.511Z</time>
      </trkpt>
      <trkpt lat="44.57075" lon="0.85307">
        <ele>172</ele>
        <time>2018-03-03T16:45:46.511Z</time>
      </trkpt>
      <trkpt lat="44.57079" lon="0.85307">
        <ele>172</ele>
        <time>2018-03-03T16:45:47.511Z</time>
      </trkpt>
      <trkpt lat="44.57084" lon="0.85306">
        <ele>172</ele>
        <time>2018-03-03T16:45:48.511Z</time>
      </trkpt>
      <trkpt lat="44.57089" lon="0.85303">
        <ele>172</ele>
        <time>2018-03-03T16:45:49.511Z</time>
      </trkpt>
      <trkpt lat="44.57093" lon="0.85301">
        <ele>171</ele>
        <time>2018-03-03T16:45:50.511Z</time>
      </trkpt>
      <trkpt lat="44.57098" lon="0.853">
        <ele>171</ele>
        <time>2018-03-03T16:45:51.511Z</time>
      </trkpt>
      <trkpt lat="44.57102" lon="0.85301">
        <ele>170</ele>
        <time>2018-03-03T16:45:52.511Z</time>
      </trkpt>
      <trkpt lat="44.57107" lon="0.85301">
        <ele>169</ele>
        <time>2018-03-03T16:45:53.511Z</time>
      </trkpt>
      <trkpt lat="44.57111" lon="0.853">
        <ele>169</ele>
        <time>2018-03-03T16:45:54.511Z</time>
      </trkpt>
      <trkpt lat="44.57114" lon="0.85298">
        <ele>168</ele>
        <time>2018-03-03T16:45:55.511Z</time>
      </trkpt>
      <trkpt lat="44.57117" lon="0.85293">
        <ele>168</ele>
        <time>2018-03-03T16:45:56.511Z</time>
      </trkpt>
      <trkpt lat="44.57119" lon="0.85287">
        <ele>168</ele>
        <time>2018-03-03T16:45:57.511Z</time>
      </trkpt>
      <trkpt lat="44.57122" lon="0.85281">
        <ele>167</ele>
        <time>2018-03-03T16:45:58.511Z</time>
      </trkpt>
      <trkpt lat="44.57125" lon="0.85275">
        <ele>167</ele>
        <time>2018-03-03T16:45:59.511Z</time>
      </trkpt>
      <trkpt lat="44.57129" lon="0.8527">
        <ele>167</ele>
        <time>2018-03-03T16:46:00.511Z</time>
      </trkpt>
      <trkpt lat="44.57134" lon="0.85267">
        <ele>167</ele>
        <time>2018-03-03T16:46:01.511Z</time>
      </trkpt>
      <trkpt lat="44.57139" lon="0.85264">
        <ele>167</ele>
        <time>2018-03-03T16:46:02.511Z</time>
      </trkpt>
      <trkpt lat="44.57144" lon="0.85261">
        <ele>167</ele>
        <time>2018-03-03T16:46:03.511Z</time>
      </trkpt>
      <trkpt lat="44.57148" lon="0.85256">
        <ele>167</ele>
        <time>2018-03-03T16:46:04.511Z</time>
      </trkpt>
      <trkpt lat="44.57151" lon="0.8525">
        <ele>166</ele>
        <time>2018-03-03T16:46:05.511Z</time>
      </trkpt>
      <trkpt lat="44.57153" lon="0.85243">
        <ele>166</ele>
        <time>2018-03-03T16:46:06.511Z</time>
      </trkpt>
      <trkpt lat="44.57154" lon="0.85235">
        <ele>165</ele>
        <time>2018-03-03T16:46:07.511Z</time>
      </trkpt>
      <trkpt lat="44.57155" lon="0.85227">
        <ele>164</ele>
        <time>2018-03-03T16:46:08.511Z</time>
      </trkpt>
      <trkpt lat="44.57157" lon="0.85221">
        <ele>163</ele>
        <time>2018-03-03T16:46:09.511Z</time>
      </trkpt>
      <trkpt lat="44.57159" lon="0.85215">
        <ele>163</ele>
        <time>2018-03-03T16:46:10.511Z</time>
      </trkpt>
      <trkpt lat="44.5716" lon="0.85209">
        <ele>162</ele>
        <time>2018-03-03T16:46:11.511Z</time>
      </trkpt>
      <trkpt lat="44.57161" lon="0.85203">
        <ele>161</ele>
        <time>2018-03-03T16:46:12.511Z</time>
      </trkpt>
      <trkpt lat="44.57162" lon="0.85197">
        <ele>161</ele>
        <time>2018-03-03T16:46:13.511Z</time>
      </trkpt>
      <trkpt lat="44.57163" lon="0.85191">
        <ele>161</ele>
        <time>2018-03-03T16:46:14.511Z</time>
      </trkpt>
      <trkpt lat="44.57163" lon="0.85184">
        <ele>161</ele>
        <time>2018-03-03T16:46:15.511Z</time>
      </trkpt>
      <trkpt lat="44.57162" lon="0.85177">
        <ele>161</ele>
        <time>2018-03-03T16:46:16.511Z</time>
      </trkpt>
      <trkpt lat="44.57162" lon="0.85169">
        <ele>161</ele>
        <time>2018-03-03T16:46:17.511Z</time>
      </trkpt>
      <trkpt lat="44.57161" lon="0.85162">
        <ele>162</ele>
        <time>2018-03-03T16:46:18.511Z</time>
      </trkpt>
      <trkpt lat="44.57161" lon="0.85154">
        <ele>162</ele>
        <time>2018-03-03T16:46:19.511Z</time>
      </trkpt>
      <trkpt lat="44.5716" lon="0.85147">
        <ele>163</ele>
        <time>2018-03-03T16:46:20.511Z</time>
      </trkpt>
      <trkpt lat="44.5716" lon="0.8514">
        <ele>163</ele>
        <time>2018-03-03T16:46:21.511Z</time>
      </trkpt>
      <trkpt lat="44.57159" lon="0.85134">
        <ele>163</ele>
        <time>2018-03-03T16:46:22.511Z</time>
      </trkpt>
      <trkpt lat="44.57159" lon="0.85128">
        <ele>164</ele>
        <time>2018-03-03T16:46:23.511Z</time>
      </trkpt>
      <trkpt lat="44.57159" lon="0.85122">
        <ele>164</ele>
        <time>2018-03-03T16:46:24.511Z</time>
      </trkpt>
      <trkpt lat="44.57159" lon="0.85116">
        <ele>164</ele>
        <time>2018-03-03T16:46:25.511Z</time>
      </trkpt>
      <trkpt lat="44.57159" lon="0.85111">
        <ele>165</ele>
        <time>2018-03-03T16:46:26.511Z</time>
      </trkpt>
      <trkpt lat="44.57159" lon="0.85106">
        <ele>165</ele>
        <time>2018-03-03T16:46:27.511Z</time>
      </trkpt>
      <trkpt lat="44.57159" lon="0.85102">
        <ele>165</ele>
        <time>2018-03-03T16:46:28.511Z</time>
      </trkpt>
      <trkpt lat="44.5716" lon="0.85098">
        <ele>166</ele>
        <time>2018-03-03T16:46:29.511Z</time>
      </trkpt>
      <trkpt lat="44.57161" lon="0.85094">
        <ele>166</ele>
        <time>2018-03-03T16:46:30.511Z</time>
      </trkpt>
      <trkpt lat="44.57162" lon="0.85091">
        <ele>166</ele>
        <time>2018-03-03T16:46:31.511Z</time>
      </trkpt>
      <trkpt lat="44.57163" lon="0.85087">
        <ele>167</ele>
        <time>2018-03-03T16:46:32.511Z</time>
      </trkpt>
      <trkpt lat="44.57164" lon="0.85084">
        <ele>167</ele>
        <time>2018-03-03T16:46:33.511Z</time>
      </trkpt>
      <trkpt lat="44.57166" lon="0.8508">
        <ele>167</ele>
        <time>2018-03-03T16:46:34.511Z</time>
      </trkpt>
      <trkpt lat="44.57168" lon="0.85076">
        <ele>167</ele>
        <time>2018-03-03T16:46:35.511Z</time>
      </trkpt>
      <trkpt lat="44.5717" lon="0.85072">
        <ele>167</ele>
        <time>2018-03-03T16:46:36.511Z</time>
      </trkpt>
      <trkpt lat="44.57172" lon="0.85068">
        <ele>167</ele>
        <time>2018-03-03T16:46:37.511Z</time>
      </trkpt>
      <trkpt lat="44.57174" lon="0.85063">
        <ele>168</ele>
        <time>2018-03-03T16:46:38.511Z</time>
      </trkpt>
      <trkpt lat="44.57176" lon="0.85058">
        <ele>168</ele>
        <time>2018-03-03T16:46:39.511Z</time>
      </trkpt>
      <trkpt lat="44.57179" lon="0.85052">
        <ele>168</ele>
        <time>2018-03-03T16:46:40.511Z</time>
      </trkpt>
      <trkpt lat="44.57181" lon="0.85046">
        <ele>167</ele>
        <time>2018-03-03T16:46:41.511Z</time>
      </trkpt>
      <trkpt lat="44.57183" lon="0.85041">
        <ele>168</ele>
        <time>2018-03-03T16:46:42.511Z</time>
      </trkpt>
      <trkpt lat="44.57185" lon="0.85035">
        <ele>168</ele>
        <time>2018-03-03T16:46:43.511Z</time>
      </trkpt>
      <trkpt lat="44.57188" lon="0.85029">
        <ele>168</ele>
        <time>2018-03-03T16:46:44.511Z</time>
      </trkpt>
      <trkpt lat="44.5719" lon="0.85023">
        <ele>168</ele>
        <time>2018-03-03T16:46:45.511Z</time>
      </trkpt>
      <trkpt lat="44.57192" lon="0.85018">
        <ele>168</ele>
        <time>2018-03-03T16:46:46.511Z</time>
      </trkpt>
      <trkpt lat="44.57194" lon="0.85013">
        <ele>168</ele>
        <time>2018-03-03T16:46:47.511Z</time>
      </trkpt>
      <trkpt lat="44.57196" lon="0.85009">
        <ele>168</ele>
        <time>2018-03-03T16:46:48.511Z</time>
      </trkpt>
      <trkpt lat="44.57197" lon="0.85004">
        <ele>168</ele>
        <time>2018-03-03T16:46:49.511Z</time>
      </trkpt>
      <trkpt lat="44.57199" lon="0.85">
        <ele>169</ele>
        <time>2018-03-03T16:46:50.511Z</time>
      </trkpt>
      <trkpt lat="44.57201" lon="0.84996">
        <ele>169</ele>
        <time>2018-03-03T16:46:51.511Z</time>
      </trkpt>
      <trkpt lat="44.57202" lon="0.84992">
        <ele>169</ele>
        <time>2018-03-03T16:46:52.511Z</time>
      </trkpt>
      <trkpt lat="44.57204" lon="0.84989">
        <ele>170</ele>
        <time>2018-03-03T16:46:53.511Z</time>
      </trkpt>
      <trkpt lat="44.57205" lon="0.84985">
        <ele>170</ele>
        <time>2018-03-03T16:46:54.511Z</time>
      </trkpt>
      <trkpt lat="44.57207" lon="0.8498">
        <ele>170</ele>
        <time>2018-03-03T16:46:55.511Z</time>
      </trkpt>
      <trkpt lat="44.57208" lon="0.84976">
        <ele>171</ele>
        <time>2018-03-03T16:46:56.511Z</time>
      </trkpt>
      <trkpt lat="44.5721" lon="0.84972">
        <ele>171</ele>
        <time>2018-03-03T16:46:57.511Z</time>
      </trkpt>
      <trkpt lat="44.57211" lon="0.84967">
        <ele>171</ele>
        <time>2018-03-03T16:46:58.511Z</time>
      </trkpt>
      <trkpt lat="44.57213" lon="0.84963">
        <ele>171</ele>
        <time>2018-03-03T16:46:59.511Z</time>
      </trkpt>
      <trkpt lat="44.57214" lon="0.84959">
        <ele>172</ele>
        <time>2018-03-03T16:47:00.511Z</time>
      </trkpt>
      <trkpt lat="44.57216" lon="0.84955">
        <ele>172</ele>
        <time>2018-03-03T16:47:01.511Z</time>
      </trkpt>
      <trkpt lat="44.57217" lon="0.84951">
        <ele>172</ele>
        <time>2018-03-03T16:47:02.511Z</time>
      </trkpt>
      <trkpt lat="44.57219" lon="0.84948">
        <ele>172</ele>
        <time>2018-03-03T16:47:03.511Z</time>
      </trkpt>
      <trkpt lat="44.57221" lon="0.84944">
        <ele>173</ele>
        <time>2018-03-03T16:47:04.511Z</time>
      </trkpt>
      <trkpt lat="44.57222" lon="0.8494">
        <ele>173</ele>
        <time>2018-03-03T16:47:05.511Z</time>
      </trkpt>
      <trkpt lat="44.57224" lon="0.84936">
        <ele>173</ele>
        <time>2018-03-03T16:47:06.511Z</time>
      </trkpt>
      <trkpt lat="44.57225" lon="0.84933">
        <ele>173</ele>
        <time>2018-03-03T16:47:07.511Z</time>
      </trkpt>
      <trkpt lat="44.57226" lon="0.84929">
        <ele>173</ele>
        <time>2018-03-03T16:47:08.511Z</time>
      </trkpt>
      <trkpt lat="44.57228" lon="0.84925">
        <ele>173</ele>
        <time>2018-03-03T16:47:09.511Z</time>
      </trkpt>
      <trkpt lat="44.57229" lon="0.84922">
        <ele>173</ele>
        <time>2018-03-03T16:47:10.511Z</time>
      </trkpt>
      <trkpt lat="44.5723" lon="0.84919">
        <ele>173</ele>
        <time>2018-03-03T16:47:11.511Z</time>
      </trkpt>
      <trkpt lat="44.57232" lon="0.84917">
        <ele>173</ele>
        <time>2018-03-03T16:47:12.511Z</time>
      </trkpt>
      <trkpt lat="44.57234" lon="0.84916">
        <ele>173</ele>
        <time>2018-03-03T16:47:13.511Z</time>
      </trkpt>
      <trkpt lat="44.57236" lon="0.84915">
        <ele>173</ele>
        <time>2018-03-03T16:47:14.511Z</time>
      </trkpt>
      <trkpt lat="44.57239" lon="0.84916">
        <ele>173</ele>
        <time>2018-03-03T16:47:15.511Z</time>
      </trkpt>
      <trkpt lat="44.57241" lon="0.84918">
        <ele>173</ele>
        <time>2018-03-03T16:47:16.511Z</time>
      </trkpt>
      <trkpt lat="44.57243" lon="0.8492">
        <ele>173</ele>
        <time>2018-03-03T16:47:17.511Z</time>
      </trkpt>
      <trkpt lat="44.57245" lon="0.84922">
        <ele>173</ele>
        <time>2018-03-03T16:47:18.511Z</time>
      </trkpt>
      <trkpt lat="44.57247" lon="0.84922">
        <ele>173</ele>
        <time>2018-03-03T16:47:19.511Z</time>
      </trkpt>
      <trkpt lat="44.57248" lon="0.84921">
        <ele>173</ele>
        <time>2018-03-03T16:47:20.511Z</time>
      </trkpt>
      <trkpt lat="44.57248" lon="0.84919">
        <ele>173</ele>
        <time>2018-03-03T16:47:21.511Z</time>
      </trkpt>
      <trkpt lat="44.57248" lon="0.84916">
        <ele>173</ele>
        <time>2018-03-03T16:47:22.511Z</time>
      </trkpt>
      <trkpt lat="44.57248" lon="0.84913">
        <ele>173</ele>
        <time>2018-03-03T16:47:23.511Z</time>
      </trkpt>
      <trkpt lat="44.57247" lon="0.84909">
        <ele>173</ele>
        <time>2018-03-03T16:47:24.511Z</time>
      </trkpt>
      <trkpt lat="44.57246" lon="0.84905">
        <ele>173</ele>
        <time>2018-03-03T16:47:25.511Z</time>
      </trkpt>
      <trkpt lat="44.57245" lon="0.84901">
        <ele>173</ele>
        <time>2018-03-03T16:47:26.511Z</time>
      </trkpt>
      <trkpt lat="44.57245" lon="0.84897">
        <ele>173</ele>
        <time>2018-03-03T16:47:27.511Z</time>
      </trkpt>
      <trkpt lat="44.57244" lon="0.84893">
        <ele>174</ele>
        <time>2018-03-03T16:47:28.511Z</time>
      </trkpt>
      <trkpt lat="44.57243" lon="0.84889">
        <ele>174</ele>
        <time>2018-03-03T16:47:29.511Z</time>
      </trkpt>
      <trkpt lat="44.57242" lon="0.84885">
        <ele>174</ele>
        <time>2018-03-03T16:47:30.511Z</time>
      </trkpt>
      <trkpt lat="44.57241" lon="0.84882">
        <ele>174</ele>
        <time>2018-03-03T16:47:31.511Z</time>
      </trkpt>
      <trkpt lat="44.5724" lon="0.84879">
        <ele>174</ele>
        <time>2018-03-03T16:47:32.511Z</time>
      </trkpt>
      <trkpt lat="44.57239" lon="0.84875">
        <ele>174</ele>
        <time>2018-03-03T16:47:33.511Z</time>
      </trkpt>
      <trkpt lat="44.57238" lon="0.84872">
        <ele>175</ele>
        <time>2018-03-03T16:47:34.511Z</time>
      </trkpt>
      <trkpt lat="44.57237" lon="0.84869">
        <ele>175</ele>
        <time>2018-03-03T16:47:35.511Z</time>
      </trkpt>
      <trkpt lat="44.57236" lon="0.84866">
        <ele>175</ele>
        <time>2018-03-03T16:47:36.511Z</time>
      </trkpt>
      <trkpt lat="44.57235" lon="0.84863">
        <ele>175</ele>
        <time>2018-03-03T16:47:37.511Z</time>
      </trkpt>
      <trkpt lat="44.57234" lon="0.8486">
        <ele>175</ele>
        <time>2018-03-03T16:47:38.511Z</time>
      </trkpt>
      <trkpt lat="44.57233" lon="0.84857">
        <ele>175</ele>
        <time>2018-03-03T16:47:39.511Z</time>
      </trkpt>
      <trkpt lat="44.57233" lon="0.84853">
        <ele>175</ele>
        <time>2018-03-03T16:47:40.511Z</time>
      </trkpt>
      <trkpt lat="44.57232" lon="0.8485">
        <ele>175</ele>
        <time>2018-03-03T16:47:41.511Z</time>
      </trkpt>
      <trkpt lat="44.57231" lon="0.84847">
        <ele>175</ele>
        <time>2018-03-03T16:47:42.511Z</time>
      </trkpt>
      <trkpt lat="44.5723" lon="0.84843">
        <ele>176</ele>
        <time>2018-03-03T16:47:43.511Z</time>
      </trkpt>
      <trkpt lat="44.57229" lon="0.8484">
        <ele>176</ele>
        <time>2018-03-03T16:47:44.511Z</time>
      </trkpt>
      <trkpt lat="44.57229" lon="0.84836">
        <ele>176</ele>
        <time>2018-03-03T16:47:45.511Z</time>
      </trkpt>
      <trkpt lat="44.57228" lon="0.84833">
        <ele>176</ele>
        <time>2018-03-03T16:47:46.511Z</time>
      </trkpt>
      <trkpt lat="44.57228" lon="0.84829">
        <ele>176</ele>
        <time>2018-03-03T16:47:47.511Z</time>
      </trkpt>
      <trkpt lat="44.57227" lon="0.84825">
        <ele>176</ele>
        <time>2018-03-03T16:47:48.511Z</time>
      </trkpt>
      <trkpt lat="44.57227" lon="0.84821">
        <ele>176</ele>
        <time>2018-03-03T16:47:49.511Z</time>
      </trkpt>
      <trkpt lat="44.57226" lon="0.84817">
        <ele>176</ele>
        <time>2018-03-03T16:47:50.511Z</time>
      </trkpt>
      <trkpt lat="44.57226" lon="0.84813">
        <ele>176</ele>
        <time>2018-03-03T16:47:51.511Z</time>
      </trkpt>
      <trkpt lat="44.57226" lon="0.84809">
        <ele>176</ele>
        <time>2018-03-03T16:47:52.511Z</time>
      </trkpt>
      <trkpt lat="44.57226" lon="0.84804">
        <ele>176</ele>
        <time>2018-03-03T16:47:53.511Z</time>
      </trkpt>
      <trkpt lat="44.57226" lon="0.848">
        <ele>176</ele>
        <time>2018-03-03T16:47:54.511Z</time>
      </trkpt>
      <trkpt lat="44.57227" lon="0.84795">
        <ele>176</ele>
        <time>2018-03-03T16:47:55.511Z</time>
      </trkpt>
      <trkpt lat="44.57227" lon="0.84791">
        <ele>176</ele>
        <time>2018-03-03T16:47:56.511Z</time>
      </trkpt>
      <trkpt lat="44.57227" lon="0.84786">
        <ele>176</ele>
        <time>2018-03-03T16:47:57.511Z</time>
      </trkpt>
      <trkpt lat="44.57228" lon="0.84781">
        <ele>176</ele>
        <time>2018-03-03T16:47:58.511Z</time>
      </trkpt>
      <trkpt lat="44.57228" lon="0.84777">
        <ele>176</ele>
        <time>2018-03-03T16:47:59.511Z</time>
      </trkpt>
      <trkpt lat="44.57228" lon="0.84772">
        <ele>176</ele>
        <time>2018-03-03T16:48:00.511Z</time>
      </trkpt>
      <trkpt lat="44.57228" lon="0.84767">
        <ele>176</ele>
        <time>2018-03-03T16:48:01.511Z</time>
      </trkpt>
      <trkpt lat="44.57228" lon="0.84763">
        <ele>176</ele>
        <time>2018-03-03T16:48:02.511Z</time>
      </trkpt>
      <trkpt lat="44.57228" lon="0.84758">
        <ele>176</ele>
        <time>2018-03-03T16:48:03.511Z</time>
      </trkpt>
      <trkpt lat="44.57227" lon="0.84753">
        <ele>176</ele>
        <time>2018-03-03T16:48:04.511Z</time>
      </trkpt>
      <trkpt lat="44.57227" lon="0.84748">
        <ele>176</ele>
        <time>2018-03-03T16:48:05.511Z</time>
      </trkpt>
      <trkpt lat="44.57226" lon="0.84743">
        <ele>176</ele>
        <time>2018-03-03T16:48:06.511Z</time>
      </trkpt>
      <trkpt lat="44.57225" lon="0.84738">
        <ele>176</ele>
        <time>2018-03-03T16:48:07.511Z</time>
      </trkpt>
      <trkpt lat="44.57225" lon="0.84733">
        <ele>176</ele>
        <time>2018-03-03T16:48:08.511Z</time>
      </trkpt>
      <trkpt lat="44.57224" lon="0.84728">
        <ele>176</ele>
        <time>2018-03-03T16:48:09.511Z</time>
      </trkpt>
      <trkpt lat="44.57223" lon="0.84722">
        <ele>175</ele>
        <time>2018-03-03T16:48:10.511Z</time>
      </trkpt>
      <trkpt lat="44.57223" lon="0.84717">
        <ele>175</ele>
        <time>2018-03-03T16:48:11.511Z</time>
      </trkpt>
      <trkpt lat="44.57222" lon="0.84711">
        <ele>175</ele>
        <time>2018-03-03T16:48:12.511Z</time>
      </trkpt>
      <trkpt lat="44.57222" lon="0.84704">
        <ele>175</ele>
        <time>2018-03-03T16:48:13.511Z</time>
      </trkpt>
      <trkpt lat="44.57221" lon="0.84698">
        <ele>175</ele>
        <time>2018-03-03T16:48:14.511Z</time>
      </trkpt>
      <trkpt lat="44.57221" lon="0.84691">
        <ele>175</ele>
        <time>2018-03-03T16:48:15.511Z</time>
      </trkpt>
      <trkpt lat="44.57221" lon="0.84685">
        <ele>175</ele>
        <time>2018-03-03T16:48:16.511Z</time>
      </trkpt>
      <trkpt lat="44.57222" lon="0.84678">
        <ele>175</ele>
        <time>2018-03-03T16:48:17.511Z</time>
      </trkpt>
      <trkpt lat="44.57222" lon="0.84672">
        <ele>175</ele>
        <time>2018-03-03T16:48:18.511Z</time>
      </trkpt>
      <trkpt lat="44.57223" lon="0.84665">
        <ele>174</ele>
        <time>2018-03-03T16:48:19.511Z</time>
      </trkpt>
      <trkpt lat="44.57223" lon="0.84658">
        <ele>174</ele>
        <time>2018-03-03T16:48:20.511Z</time>
      </trkpt>
      <trkpt lat="44.57223" lon="0.84651">
        <ele>174</ele>
        <time>2018-03-03T16:48:21.511Z</time>
      </trkpt>
      <trkpt lat="44.57223" lon="0.84643">
        <ele>174</ele>
        <time>2018-03-03T16:48:22.511Z</time>
      </trkpt>
      <trkpt lat="44.57223" lon="0.84636">
        <ele>174</ele>
        <time>2018-03-03T16:48:23.511Z</time>
      </trkpt>
      <trkpt lat="44.57223" lon="0.84628">
        <ele>174</ele>
        <time>2018-03-03T16:48:24.511Z</time>
      </trkpt>
      <trkpt lat="44.57222" lon="0.8462">
        <ele>174</ele>
        <time>2018-03-03T16:48:25.511Z</time>
      </trkpt>
      <trkpt lat="44.57221" lon="0.84612">
        <ele>173</ele>
        <time>2018-03-03T16:48:26.511Z</time>
      </trkpt>
      <trkpt lat="44.5722" lon="0.84603">
        <ele>173</ele>
        <time>2018-03-03T16:48:27.511Z</time>
      </trkpt>
      <trkpt lat="44.57219" lon="0.84595">
        <ele>172</ele>
        <time>2018-03-03T16:48:28.511Z</time>
      </trkpt>
      <trkpt lat="44.57218" lon="0.84586">
        <ele>172</ele>
        <time>2018-03-03T16:48:29.511Z</time>
      </trkpt>
      <trkpt lat="44.57217" lon="0.84577">
        <ele>172</ele>
        <time>2018-03-03T16:48:30.511Z</time>
      </trkpt>
      <trkpt lat="44.57216" lon="0.84568">
        <ele>171</ele>
        <time>2018-03-03T16:48:31.511Z</time>
      </trkpt>
      <trkpt lat="44.57215" lon="0.84559">
        <ele>171</ele>
        <time>2018-03-03T16:48:32.511Z</time>
      </trkpt>
      <trkpt lat="44.57214" lon="0.8455">
        <ele>171</ele>
        <time>2018-03-03T16:48:33.511Z</time>
      </trkpt>
      <trkpt lat="44.57213" lon="0.84542">
        <ele>171</ele>
        <time>2018-03-03T16:48:34.511Z</time>
      </trkpt>
      <trkpt lat="44.57212" lon="0.84534">
        <ele>171</ele>
        <time>2018-03-03T16:48:35.511Z</time>
      </trkpt>
      <trkpt lat="44.57211" lon="0.84526">
        <ele>171</ele>
        <time>2018-03-03T16:48:36.511Z</time>
      </trkpt>
      <trkpt lat="44.5721" lon="0.84519">
        <ele>171</ele>
        <time>2018-03-03T16:48:37.511Z</time>
      </trkpt>
      <trkpt lat="44.57209" lon="0.84512">
        <ele>171</ele>
        <time>2018-03-03T16:48:38.511Z</time>
      </trkpt>
      <trkpt lat="44.57208" lon="0.84506">
        <ele>171</ele>
        <time>2018-03-03T16:48:39.511Z</time>
      </trkpt>
      <trkpt lat="44.57207" lon="0.84499">
        <ele>171</ele>
        <time>2018-03-03T16:48:40.511Z</time>
      </trkpt>
      <trkpt lat="44.57205" lon="0.84493">
        <ele>170</ele>
        <time>2018-03-03T16:48:41.511Z</time>
      </trkpt>
      <trkpt lat="44.57204" lon="0.84487">
        <ele>170</ele>
        <time>2018-03-03T16:48:42.511Z</time>
      </trkpt>
      <trkpt lat="44.57203" lon="0.8448">
        <ele>170</ele>
        <time>2018-03-03T16:48:43.511Z</time>
      </trkpt>
      <trkpt lat="44.57204" lon="0.84473">
        <ele>170</ele>
        <time>2018-03-03T16:48:44.511Z</time>
      </trkpt>
      <trkpt lat="44.57205" lon="0.84466">
        <ele>170</ele>
        <time>2018-03-03T16:48:45.511Z</time>
      </trkpt>
      <trkpt lat="44.57206" lon="0.84459">
        <ele>170</ele>
        <time>2018-03-03T16:48:46.511Z</time>
      </trkpt>
      <trkpt lat="44.57207" lon="0.84452">
        <ele>170</ele>
        <time>2018-03-03T16:48:47.511Z</time>
      </trkpt>
      <trkpt lat="44.57208" lon="0.84445">
        <ele>170</ele>
        <time>2018-03-03T16:48:48.511Z</time>
      </trkpt>
      <trkpt lat="44.57209" lon="0.84438">
        <ele>170</ele>
        <time>2018-03-03T16:48:49.511Z</time>
      </trkpt>
      <trkpt lat="44.57209" lon="0.8443">
        <ele>170</ele>
        <time>2018-03-03T16:48:50.511Z</time>
      </trkpt>
      <trkpt lat="44.5721" lon="0.84422">
        <ele>169</ele>
        <time>2018-03-03T16:48:51.511Z</time>
      </trkpt>
      <trkpt lat="44.5721" lon="0.84415">
        <ele>169</ele>
        <time>2018-03-03T16:48:52.511Z</time>
      </trkpt>
      <trkpt lat="44.5721" lon="0.84408">
        <ele>169</ele>
        <time>2018-03-03T16:48:53.511Z</time>
      </trkpt>
      <trkpt lat="44.5721" lon="0.84403">
        <ele>168</ele>
        <time>2018-03-03T16:48:54.511Z</time>
      </trkpt>
      <trkpt lat="44.5721" lon="0.844">
        <ele>168</ele>
        <time>2018-03-03T16:48:55.511Z</time>
      </trkpt>
      <trkpt lat="44.5721" lon="0.84397">
        <ele>168</ele>
        <time>2018-03-03T16:48:56.511Z</time>
      </trkpt>
      <trkpt lat="44.5721" lon="0.84395">
        <ele>168</ele>
        <time>2018-03-03T16:48:57.511Z</time>
      </trkpt>
      <trkpt lat="44.57211" lon="0.84393">
        <ele>168</ele>
        <time>2018-03-03T16:48:58.511Z</time>
      </trkpt>
      <trkpt lat="44.57211" lon="0.84391">
        <ele>168</ele>
        <time>2018-03-03T16:48:59.511Z</time>
      </trkpt>
      <trkpt lat="44.57212" lon="0.84389">
        <ele>168</ele>
        <time>2018-03-03T16:49:00.511Z</time>
      </trkpt>
      <trkpt lat="44.57213" lon="0.84387">
        <ele>168</ele>
        <time>2018-03-03T16:49:01.511Z</time>
      </trkpt>
      <trkpt lat="44.57213" lon="0.84386">
        <ele>167</ele>
        <time>2018-03-03T16:49:02.511Z</time>
      </trkpt>
      <trkpt lat="44.57214" lon="0.84385">
        <ele>167</ele>
        <time>2018-03-03T16:49:03.511Z</time>
      </trkpt>
      <trkpt lat="44.57214" lon="0.84384">
        <ele>167</ele>
        <time>2018-03-03T16:49:04.511Z</time>
      </trkpt>
      <trkpt lat="44.57214" lon="0.84383">
        <ele>167</ele>
        <time>2018-03-03T16:49:05.511Z</time>
      </trkpt>
      <trkpt lat="44.57215" lon="0.84382">
        <ele>167</ele>
        <time>2018-03-03T16:49:06.511Z</time>
      </trkpt>
      <trkpt lat="44.57215" lon="0.84382">
        <ele>167</ele>
        <time>2018-03-03T16:49:07.511Z</time>
      </trkpt>
      <trkpt lat="44.57215" lon="0.84381">
        <ele>167</ele>
        <time>2018-03-03T16:49:08.511Z</time>
      </trkpt>
      <trkpt lat="44.57215" lon="0.84381">
        <ele>167</ele>
        <time>2018-03-03T16:49:09.511Z</time>
      </trkpt>
      <trkpt lat="44.57215" lon="0.84381">
        <ele>167</ele>
        <time>2018-03-03T16:49:10.511Z</time>
      </trkpt>
      <trkpt lat="44.57215" lon="0.84381">
        <ele>167</ele>
        <time>2018-03-03T16:49:11.511Z</time>
      </trkpt>
      <trkpt lat="44.57215" lon="0.84381">
        <ele>167</ele>
        <time>2018-03-03T16:49:12.511Z</time>
      </trkpt>
      <trkpt lat="44.57215" lon="0.84381">
        <ele>167</ele>
        <time>2018-03-03T16:49:13.511Z</time>
      </trkpt>
      <trkpt lat="44.57215" lon="0.84381">
        <ele>167</ele>
        <time>2018-03-03T16:49:14.511Z</time>
      </trkpt>
      <trkpt lat="44.57215" lon="0.84381">
        <ele>167</ele>
        <time>2018-03-03T16:49:15.511Z</time>
      </trkpt>
      <trkpt lat="44.57215" lon="0.84381">
        <ele>167</ele>
        <time>2018-03-03T16:49:16.511Z</time>
      </trkpt>
      <trkpt lat="44.57215" lon="0.84381">
        <ele>167</ele>
        <time>2018-03-03T16:49:17.511Z</time>
      </trkpt>
      <trkpt lat="44.57215" lon="0.84381">
        <ele>167</ele>
        <time>2018-03-03T16:49:18.511Z</time>
      </trkpt>
      <trkpt lat="44.57215" lon="0.84381">
        <ele>167</ele>
        <time>2018-03-03T16:49:19.511Z</time>
      </trkpt>
      <trkpt lat="44.57215" lon="0.8438">
        <ele>167</ele>
        <time>2018-03-03T16:49:20.511Z</time>
      </trkpt>
      <trkpt lat="44.57216" lon="0.84379">
        <ele>167</ele>
        <time>2018-03-03T16:49:21.511Z</time>
      </trkpt>
      <trkpt lat="44.57217" lon="0.84378">
        <ele>167</ele>
        <time>2018-03-03T16:49:22.511Z</time>
      </trkpt>
      <trkpt lat="44.57217" lon="0.84377">
        <ele>167</ele>
        <time>2018-03-03T16:49:23.511Z</time>
      </trkpt>
      <trkpt lat="44.57218" lon="0.84376">
        <ele>167</ele>
        <time>2018-03-03T16:49:24.511Z</time>
      </trkpt>
      <trkpt lat="44.57218" lon="0.84375">
        <ele>167</ele>
        <time>2018-03-03T16:49:25.511Z</time>
      </trkpt>
      <trkpt lat="44.57218" lon="0.84374">
        <ele>167</ele>
        <time>2018-03-03T16:49:26.511Z</time>
      </trkpt>
      <trkpt lat="44.57218" lon="0.84374">
        <ele>167</ele>
        <time>2018-03-03T16:49:27.511Z</time>
      </trkpt>
      <trkpt lat="44.57218" lon="0.84374">
        <ele>167</ele>
        <time>2018-03-03T16:49:28.511Z</time>
      </trkpt>
      <trkpt lat="44.57219" lon="0.84373">
        <ele>167</ele>
        <time>2018-03-03T16:49:29.511Z</time>
      </trkpt>
      <trkpt lat="44.5722" lon="0.84371">
        <ele>166</ele>
        <time>2018-03-03T16:49:30.511Z</time>
      </trkpt>
      <trkpt lat="44.57221" lon="0.8437">
        <ele>166</ele>
        <time>2018-03-03T16:49:31.511Z</time>
      </trkpt>
      <trkpt lat="44.57222" lon="0.84369">
        <ele>167</ele>
        <time>2018-03-03T16:49:32.511Z</time>
      </trkpt>
      <trkpt lat="44.57222" lon="0.84367">
        <ele>167</ele>
        <time>2018-03-03T16:49:33.511Z</time>
      </trkpt>
      <trkpt lat="44.57223" lon="0.84365">
        <ele>167</ele>
        <time>2018-03-03T16:49:34.511Z</time>
      </trkpt>
      <trkpt lat="44.57224" lon="0.84362">
        <ele>166</ele>
        <time>2018-03-03T16:49:35.511Z</time>
      </trkpt>
      <trkpt lat="44.57224" lon="0.84359">
        <ele>166</ele>
        <time>2018-03-03T16:49:36.511Z</time>
      </trkpt>
      <trkpt lat="44.57225" lon="0.84356">
        <ele>166</ele>
        <time>2018-03-03T16:49:37.511Z</time>
      </trkpt>
      <trkpt lat="44.57226" lon="0.84353">
        <ele>166</ele>
        <time>2018-03-03T16:49:38.511Z</time>
      </trkpt>
      <trkpt lat="44.57227" lon="0.8435">
        <ele>166</ele>
        <time>2018-03-03T16:49:39.511Z</time>
      </trkpt>
      <trkpt lat="44.57228" lon="0.84347">
        <ele>166</ele>
        <time>2018-03-03T16:49:40.511Z</time>
      </trkpt>
      <trkpt lat="44.57229" lon="0.84343">
        <ele>166</ele>
        <time>2018-03-03T16:49:41.511Z</time>
      </trkpt>
      <trkpt lat="44.5723" lon="0.84338">
        <ele>165</ele>
        <time>2018-03-03T16:49:42.511Z</time>
      </trkpt>
      <trkpt lat="44.57232" lon="0.84332">
        <ele>165</ele>
        <time>2018-03-03T16:49:43.511Z</time>
      </trkpt>
      <trkpt lat="44.57233" lon="0.84326">
        <ele>165</ele>
        <time>2018-03-03T16:49:44.511Z</time>
      </trkpt>
      <trkpt lat="44.57234" lon="0.84318">
        <ele>165</ele>
        <time>2018-03-03T16:49:45.511Z</time>
      </trkpt>
      <trkpt lat="44.57236" lon="0.84308">
        <ele>164</ele>
        <time>2018-03-03T16:49:46.511Z</time>
      </trkpt>
      <trkpt lat="44.57237" lon="0.84298">
        <ele>164</ele>
        <time>2018-03-03T16:49:47.511Z</time>
      </trkpt>
      <trkpt lat="44.57239" lon="0.84289">
        <ele>164</ele>
        <time>2018-03-03T16:49:48.511Z</time>
      </trkpt>
      <trkpt lat="44.57241" lon="0.8428">
        <ele>164</ele>
        <time>2018-03-03T16:49:49.511Z</time>
      </trkpt>
      <trkpt lat="44.57243" lon="0.84273">
        <ele>164</ele>
        <time>2018-03-03T16:49:50.511Z</time>
      </trkpt>
      <trkpt lat="44.57244" lon="0.84266">
        <ele>164</ele>
        <time>2018-03-03T16:49:51.511Z</time>
      </trkpt>
      <trkpt lat="44.57246" lon="0.84261">
        <ele>163</ele>
        <time>2018-03-03T16:49:52.511Z</time>
      </trkpt>
      <trkpt lat="44.57249" lon="0.84256">
        <ele>163</ele>
        <time>2018-03-03T16:49:53.511Z</time>
      </trkpt>
      <trkpt lat="44.57251" lon="0.84252">
        <ele>163</ele>
        <time>2018-03-03T16:49:54.511Z</time>
      </trkpt>
      <trkpt lat="44.57254" lon="0.84248">
        <ele>163</ele>
        <time>2018-03-03T16:49:55.511Z</time>
      </trkpt>
      <trkpt lat="44.57258" lon="0.84245">
        <ele>162</ele>
        <time>2018-03-03T16:49:56.511Z</time>
      </trkpt>
      <trkpt lat="44.57262" lon="0.84243">
        <ele>162</ele>
        <time>2018-03-03T16:49:57.511Z</time>
      </trkpt>
      <trkpt lat="44.57265" lon="0.84239">
        <ele>162</ele>
        <time>2018-03-03T16:49:58.511Z</time>
      </trkpt>
      <trkpt lat="44.57268" lon="0.84235">
        <ele>162</ele>
        <time>2018-03-03T16:49:59.511Z</time>
      </trkpt>
      <trkpt lat="44.5727" lon="0.8423">
        <ele>162</ele>
        <time>2018-03-03T16:50:00.511Z</time>
      </trkpt>
      <trkpt lat="44.57272" lon="0.84225">
        <ele>162</ele>
        <time>2018-03-03T16:50:01.511Z</time>
      </trkpt>
      <trkpt lat="44.57273" lon="0.84221">
        <ele>162</ele>
        <time>2018-03-03T16:50:02.511Z</time>
      </trkpt>
      <trkpt lat="44.57273" lon="0.84217">
        <ele>162</ele>
        <time>2018-03-03T16:50:03.511Z</time>
      </trkpt>
      <trkpt lat="44.57272" lon="0.84213">
        <ele>162</ele>
        <time>2018-03-03T16:50:04.511Z</time>
      </trkpt>
      <trkpt lat="44.57271" lon="0.84208">
        <ele>162</ele>
        <time>2018-03-03T16:50:05.511Z</time>
      </trkpt>
      <trkpt lat="44.5727" lon="0.84203">
        <ele>162</ele>
        <time>2018-03-03T16:50:06.511Z</time>
      </trkpt>
      <trkpt lat="44.5727" lon="0.84197">
        <ele>162</ele>
        <time>2018-03-03T16:50:07.511Z</time>
      </trkpt>
      <trkpt lat="44.57271" lon="0.84191">
        <ele>162</ele>
        <time>2018-03-03T16:50:08.511Z</time>
      </trkpt>
      <trkpt lat="44.57273" lon="0.84186">
        <ele>162</ele>
        <time>2018-03-03T16:50:09.511Z</time>
      </trkpt>
      <trkpt lat="44.57276" lon="0.84181">
        <ele>162</ele>
        <time>2018-03-03T16:50:10.511Z</time>
      </trkpt>
      <trkpt lat="44.57279" lon="0.84177">
        <ele>162</ele>
        <time>2018-03-03T16:50:11.511Z</time>
      </trkpt>
      <trkpt lat="44.57282" lon="0.84174">
        <ele>162</ele>
        <time>2018-03-03T16:50:12.511Z</time>
      </trkpt>
      <trkpt lat="44.57285" lon="0.8417">
        <ele>162</ele>
        <time>2018-03-03T16:50:13.511Z</time>
      </trkpt>
      <trkpt lat="44.57289" lon="0.84167">
        <ele>161</ele>
        <time>2018-03-03T16:50:14.511Z</time>
      </trkpt>
      <trkpt lat="44.57292" lon="0.84163">
        <ele>161</ele>
        <time>2018-03-03T16:50:15.511Z</time>
      </trkpt>
      <trkpt lat="44.57296" lon="0.84159">
        <ele>161</ele>
        <time>2018-03-03T16:50:16.511Z</time>
      </trkpt>
      <trkpt lat="44.57299" lon="0.84155">
        <ele>161</ele>
        <time>2018-03-03T16:50:17.511Z</time>
      </trkpt>
      <trkpt lat="44.57303" lon="0.84151">
        <ele>161</ele>
        <time>2018-03-03T16:50:18.511Z</time>
      </trkpt>
      <trkpt lat="44.57307" lon="0.84147">
        <ele>160</ele>
        <time>2018-03-03T16:50:19.511Z</time>
      </trkpt>
      <trkpt lat="44.57311" lon="0.84143">
        <ele>160</ele>
        <time>2018-03-03T16:50:20.511Z</time>
      </trkpt>
      <trkpt lat="44.57314" lon="0.8414">
        <ele>160</ele>
        <time>2018-03-03T16:50:21.511Z</time>
      </trkpt>
      <trkpt lat="44.57318" lon="0.84136">
        <ele>160</ele>
        <time>2018-03-03T16:50:22.511Z</time>
      </trkpt>
      <trkpt lat="44.57321" lon="0.84131">
        <ele>159</ele>
        <time>2018-03-03T16:50:23.511Z</time>
      </trkpt>
      <trkpt lat="44.57324" lon="0.84127">
        <ele>159</ele>
        <time>2018-03-03T16:50:24.511Z</time>
      </trkpt>
      <trkpt lat="44.57326" lon="0.84122">
        <ele>159</ele>
        <time>2018-03-03T16:50:25.511Z</time>
      </trkpt>
      <trkpt lat="44.57329" lon="0.84116">
        <ele>159</ele>
        <time>2018-03-03T16:50:26.511Z</time>
      </trkpt>
      <trkpt lat="44.57331" lon="0.8411">
        <ele>159</ele>
        <time>2018-03-03T16:50:27.511Z</time>
      </trkpt>
      <trkpt lat="44.57333" lon="0.84104">
        <ele>159</ele>
        <time>2018-03-03T16:50:28.511Z</time>
      </trkpt>
      <trkpt lat="44.57335" lon="0.84097">
        <ele>158</ele>
        <time>2018-03-03T16:50:29.511Z</time>
      </trkpt>
      <trkpt lat="44.57337" lon="0.84089">
        <ele>158</ele>
        <time>2018-03-03T16:50:30.511Z</time>
      </trkpt>
      <trkpt lat="44.57339" lon="0.84082">
        <ele>158</ele>
        <time>2018-03-03T16:50:31.511Z</time>
      </trkpt>
      <trkpt lat="44.57342" lon="0.84075">
        <ele>157</ele>
        <time>2018-03-03T16:50:32.511Z</time>
      </trkpt>
      <trkpt lat="44.57345" lon="0.84069">
        <ele>157</ele>
        <time>2018-03-03T16:50:33.511Z</time>
      </trkpt>
      <trkpt lat="44.57348" lon="0.84064">
        <ele>157</ele>
        <time>2018-03-03T16:50:34.511Z</time>
      </trkpt>
      <trkpt lat="44.57352" lon="0.84059">
        <ele>156</ele>
        <time>2018-03-03T16:50:35.511Z</time>
      </trkpt>
      <trkpt lat="44.57357" lon="0.84055">
        <ele>156</ele>
        <time>2018-03-03T16:50:36.511Z</time>
      </trkpt>
      <trkpt lat="44.57362" lon="0.84051">
        <ele>155</ele>
        <time>2018-03-03T16:50:37.511Z</time>
      </trkpt>
      <trkpt lat="44.57366" lon="0.84046">
        <ele>155</ele>
        <time>2018-03-03T16:50:38.511Z</time>
      </trkpt>
      <trkpt lat="44.57371" lon="0.84041">
        <ele>155</ele>
        <time>2018-03-03T16:50:39.511Z</time>
      </trkpt>
      <trkpt lat="44.57375" lon="0.84036">
        <ele>154</ele>
        <time>2018-03-03T16:50:40.511Z</time>
      </trkpt>
      <trkpt lat="44.57378" lon="0.84029">
        <ele>154</ele>
        <time>2018-03-03T16:50:41.511Z</time>
      </trkpt>
      <trkpt lat="44.57381" lon="0.84022">
        <ele>153</ele>
        <time>2018-03-03T16:50:42.511Z</time>
      </trkpt>
      <trkpt lat="44.57382" lon="0.84015">
        <ele>152</ele>
        <time>2018-03-03T16:50:43.511Z</time>
      </trkpt>
      <trkpt lat="44.57383" lon="0.84007">
        <ele>152</ele>
        <time>2018-03-03T16:50:44.511Z</time>
      </trkpt>
      <trkpt lat="44.57383" lon="0.83999">
        <ele>152</ele>
        <time>2018-03-03T16:50:45.511Z</time>
      </trkpt>
      <trkpt lat="44.57383" lon="0.83991">
        <ele>151</ele>
        <time>2018-03-03T16:50:46.511Z</time>
      </trkpt>
      <trkpt lat="44.57383" lon="0.83983">
        <ele>151</ele>
        <time>2018-03-03T16:50:47.511Z</time>
      </trkpt>
      <trkpt lat="44.57383" lon="0.83975">
        <ele>151</ele>
        <time>2018-03-03T16:50:48.511Z</time>
      </trkpt>
      <trkpt lat="44.57384" lon="0.83967">
        <ele>150</ele>
        <time>2018-03-03T16:50:49.511Z</time>
      </trkpt>
      <trkpt lat="44.57386" lon="0.83959">
        <ele>150</ele>
        <time>2018-03-03T16:50:50.511Z</time>
      </trkpt>
      <trkpt lat="44.57389" lon="0.83952">
        <ele>150</ele>
        <time>2018-03-03T16:50:51.511Z</time>
      </trkpt>
      <trkpt lat="44.57392" lon="0.83945">
        <ele>150</ele>
        <time>2018-03-03T16:50:52.511Z</time>
      </trkpt>
      <trkpt lat="44.57396" lon="0.83937">
        <ele>149</ele>
        <time>2018-03-03T16:50:53.511Z</time>
      </trkpt>
      <trkpt lat="44.574" lon="0.8393">
        <ele>148</ele>
        <time>2018-03-03T16:50:54.511Z</time>
      </trkpt>
      <trkpt lat="44.57404" lon="0.83923">
        <ele>148</ele>
        <time>2018-03-03T16:50:55.511Z</time>
      </trkpt>
      <trkpt lat="44.57407" lon="0.83915">
        <ele>147</ele>
        <time>2018-03-03T16:50:56.511Z</time>
      </trkpt>
      <trkpt lat="44.5741" lon="0.83907">
        <ele>146</ele>
        <time>2018-03-03T16:50:57.511Z</time>
      </trkpt>
      <trkpt lat="44.57412" lon="0.83898">
        <ele>146</ele>
        <time>2018-03-03T16:50:58.511Z</time>
      </trkpt>
      <trkpt lat="44.57414" lon="0.83891">
        <ele>145</ele>
        <time>2018-03-03T16:50:59.511Z</time>
      </trkpt>
      <trkpt lat="44.57415" lon="0.83887">
        <ele>144</ele>
        <time>2018-03-03T16:51:00.511Z</time>
      </trkpt>
      <trkpt lat="44.57417" lon="0.83885">
        <ele>144</ele>
        <time>2018-03-03T16:51:01.511Z</time>
      </trkpt>
      <trkpt lat="44.57418" lon="0.83882">
        <ele>143</ele>
        <time>2018-03-03T16:51:02.511Z</time>
      </trkpt>
      <trkpt lat="44.5742" lon="0.83879">
        <ele>143</ele>
        <time>2018-03-03T16:51:03.511Z</time>
      </trkpt>
      <trkpt lat="44.57422" lon="0.83877">
        <ele>143</ele>
        <time>2018-03-03T16:51:04.511Z</time>
      </trkpt>
      <trkpt lat="44.57424" lon="0.83874">
        <ele>143</ele>
        <time>2018-03-03T16:51:05.511Z</time>
      </trkpt>
      <trkpt lat="44.57426" lon="0.83871">
        <ele>143</ele>
        <time>2018-03-03T16:51:06.511Z</time>
      </trkpt>
      <trkpt lat="44.57429" lon="0.83869">
        <ele>142</ele>
        <time>2018-03-03T16:51:07.511Z</time>
      </trkpt>
      <trkpt lat="44.57433" lon="0.83868">
        <ele>142</ele>
        <time>2018-03-03T16:51:08.511Z</time>
      </trkpt>
      <trkpt lat="44.57436" lon="0.83867">
        <ele>142</ele>
        <time>2018-03-03T16:51:09.511Z</time>
      </trkpt>
      <trkpt lat="44.5744" lon="0.83865">
        <ele>142</ele>
        <time>2018-03-03T16:51:10.511Z</time>
      </trkpt>
      <trkpt lat="44.57444" lon="0.83864">
        <ele>142</ele>
        <time>2018-03-03T16:51:11.511Z</time>
      </trkpt>
      <trkpt lat="44.57448" lon="0.83863">
        <ele>142</ele>
        <time>2018-03-03T16:51:12.511Z</time>
      </trkpt>
      <trkpt lat="44.57451" lon="0.83861">
        <ele>142</ele>
        <time>2018-03-03T16:51:13.511Z</time>
      </trkpt>
      <trkpt lat="44.57454" lon="0.83859">
        <ele>142</ele>
        <time>2018-03-03T16:51:14.511Z</time>
      </trkpt>
      <trkpt lat="44.57457" lon="0.83856">
        <ele>142</ele>
        <time>2018-03-03T16:51:15.511Z</time>
      </trkpt>
      <trkpt lat="44.57459" lon="0.83853">
        <ele>142</ele>
        <time>2018-03-03T16:51:16.511Z</time>
      </trkpt>
      <trkpt lat="44.57461" lon="0.8385">
        <ele>143</ele>
        <time>2018-03-03T16:51:17.511Z</time>
      </trkpt>
      <trkpt lat="44.57463" lon="0.83846">
        <ele>143</ele>
        <time>2018-03-03T16:51:18.511Z</time>
      </trkpt>
      <trkpt lat="44.57464" lon="0.83842">
        <ele>143</ele>
        <time>2018-03-03T16:51:19.511Z</time>
      </trkpt>
      <trkpt lat="44.57465" lon="0.83838">
        <ele>144</ele>
        <time>2018-03-03T16:51:20.511Z</time>
      </trkpt>
      <trkpt lat="44.57466" lon="0.83834">
        <ele>144</ele>
        <time>2018-03-03T16:51:21.511Z</time>
      </trkpt>
      <trkpt lat="44.57466" lon="0.8383">
        <ele>144</ele>
        <time>2018-03-03T16:51:22.511Z</time>
      </trkpt>
      <trkpt lat="44.57467" lon="0.83825">
        <ele>145</ele>
        <time>2018-03-03T16:51:23.511Z</time>
      </trkpt>
      <trkpt lat="44.57468" lon="0.83822">
        <ele>145</ele>
        <time>2018-03-03T16:51:24.511Z</time>
      </trkpt>
      <trkpt lat="44.57469" lon="0.83818">
        <ele>145</ele>
        <time>2018-03-03T16:51:25.511Z</time>
      </trkpt>
      <trkpt lat="44.57469" lon="0.83814">
        <ele>146</ele>
        <time>2018-03-03T16:51:26.511Z</time>
      </trkpt>
      <trkpt lat="44.5747" lon="0.83811">
        <ele>146</ele>
        <time>2018-03-03T16:51:27.511Z</time>
      </trkpt>
      <trkpt lat="44.5747" lon="0.83808">
        <ele>146</ele>
        <time>2018-03-03T16:51:28.511Z</time>
      </trkpt>
      <trkpt lat="44.57471" lon="0.83805">
        <ele>146</ele>
        <time>2018-03-03T16:51:29.511Z</time>
      </trkpt>
      <trkpt lat="44.57472" lon="0.83802">
        <ele>147</ele>
        <time>2018-03-03T16:51:30.511Z</time>
      </trkpt>
      <trkpt lat="44.57473" lon="0.83798">
        <ele>147</ele>
        <time>2018-03-03T16:51:31.511Z</time>
      </trkpt>
      <trkpt lat="44.57474" lon="0.83795">
        <ele>147</ele>
        <time>2018-03-03T16:51:32.511Z</time>
      </trkpt>
      <trkpt lat="44.57475" lon="0.83792">
        <ele>147</ele>
        <time>2018-03-03T16:51:33.511Z</time>
      </trkpt>
      <trkpt lat="44.57477" lon="0.83789">
        <ele>148</ele>
        <time>2018-03-03T16:51:34.511Z</time>
      </trkpt>
      <trkpt lat="44.57479" lon="0.83786">
        <ele>148</ele>
        <time>2018-03-03T16:51:35.511Z</time>
      </trkpt>
      <trkpt lat="44.57481" lon="0.83785">
        <ele>148</ele>
        <time>2018-03-03T16:51:36.511Z</time>
      </trkpt>
      <trkpt lat="44.57484" lon="0.83784">
        <ele>148</ele>
        <time>2018-03-03T16:51:37.511Z</time>
      </trkpt>
      <trkpt lat="44.57487" lon="0.83783">
        <ele>148</ele>
        <time>2018-03-03T16:51:38.511Z</time>
      </trkpt>
      <trkpt lat="44.5749" lon="0.83782">
        <ele>148</ele>
        <time>2018-03-03T16:51:39.511Z</time>
      </trkpt>
      <trkpt lat="44.57493" lon="0.83781">
        <ele>149</ele>
        <time>2018-03-03T16:51:40.511Z</time>
      </trkpt>
      <trkpt lat="44.57495" lon="0.83779">
        <ele>149</ele>
        <time>2018-03-03T16:51:41.511Z</time>
      </trkpt>
      <trkpt lat="44.57498" lon="0.83778">
        <ele>149</ele>
        <time>2018-03-03T16:51:42.511Z</time>
      </trkpt>
      <trkpt lat="44.575" lon="0.83776">
        <ele>149</ele>
        <time>2018-03-03T16:51:43.511Z</time>
      </trkpt>
      <trkpt lat="44.57503" lon="0.83774">
        <ele>149</ele>
        <time>2018-03-03T16:51:44.511Z</time>
      </trkpt>
      <trkpt lat="44.57505" lon="0.83771">
        <ele>149</ele>
        <time>2018-03-03T16:51:45.511Z</time>
      </trkpt>
      <trkpt lat="44.57507" lon="0.83769">
        <ele>150</ele>
        <time>2018-03-03T16:51:46.511Z</time>
      </trkpt>
      <trkpt lat="44.5751" lon="0.83766">
        <ele>150</ele>
        <time>2018-03-03T16:51:47.511Z</time>
      </trkpt>
      <trkpt lat="44.57512" lon="0.83763">
        <ele>150</ele>
        <time>2018-03-03T16:51:48.511Z</time>
      </trkpt>
      <trkpt lat="44.57514" lon="0.8376">
        <ele>150</ele>
        <time>2018-03-03T16:51:49.511Z</time>
      </trkpt>
      <trkpt lat="44.57516" lon="0.83757">
        <ele>150</ele>
        <time>2018-03-03T16:51:50.511Z</time>
      </trkpt>
      <trkpt lat="44.57518" lon="0.83755">
        <ele>151</ele>
        <time>2018-03-03T16:51:51.511Z</time>
      </trkpt>
      <trkpt lat="44.5752" lon="0.83752">
        <ele>151</ele>
        <time>2018-03-03T16:51:52.511Z</time>
      </trkpt>
      <trkpt lat="44.57522" lon="0.8375">
        <ele>151</ele>
        <time>2018-03-03T16:51:53.511Z</time>
      </trkpt>
      <trkpt lat="44.57524" lon="0.83749">
        <ele>151</ele>
        <time>2018-03-03T16:51:54.511Z</time>
      </trkpt>
      <trkpt lat="44.57527" lon="0.83748">
        <ele>151</ele>
        <time>2018-03-03T16:51:55.511Z</time>
      </trkpt>
      <trkpt lat="44.5753" lon="0.83746">
        <ele>151</ele>
        <time>2018-03-03T16:51:56.511Z</time>
      </trkpt>
      <trkpt lat="44.57532" lon="0.83745">
        <ele>151</ele>
        <time>2018-03-03T16:51:57.511Z</time>
      </trkpt>
      <trkpt lat="44.57535" lon="0.83745">
        <ele>151</ele>
        <time>2018-03-03T16:51:58.511Z</time>
      </trkpt>
      <trkpt lat="44.57538" lon="0.83744">
        <ele>152</ele>
        <time>2018-03-03T16:51:59.511Z</time>
      </trkpt>
      <trkpt lat="44.5754" lon="0.83743">
        <ele>152</ele>
        <time>2018-03-03T16:52:00.511Z</time>
      </trkpt>
      <trkpt lat="44.57543" lon="0.83742">
        <ele>152</ele>
        <time>2018-03-03T16:52:01.511Z</time>
      </trkpt>
      <trkpt lat="44.57545" lon="0.83741">
        <ele>152</ele>
        <time>2018-03-03T16:52:02.511Z</time>
      </trkpt>
      <trkpt lat="44.57548" lon="0.83739">
        <ele>152</ele>
        <time>2018-03-03T16:52:03.511Z</time>
      </trkpt>
      <trkpt lat="44.5755" lon="0.83738">
        <ele>153</ele>
        <time>2018-03-03T16:52:04.511Z</time>
      </trkpt>
      <trkpt lat="44.57552" lon="0.83737">
        <ele>153</ele>
        <time>2018-03-03T16:52:05.511Z</time>
      </trkpt>
      <trkpt lat="44.57554" lon="0.83735">
        <ele>153</ele>
        <time>2018-03-03T16:52:06.511Z</time>
      </trkpt>
      <trkpt lat="44.57556" lon="0.83734">
        <ele>153</ele>
        <time>2018-03-03T16:52:07.511Z</time>
      </trkpt>
      <trkpt lat="44.57559" lon="0.83733">
        <ele>153</ele>
        <time>2018-03-03T16:52:08.511Z</time>
      </trkpt>
      <trkpt lat="44.57562" lon="0.83732">
        <ele>154</ele>
        <time>2018-03-03T16:52:09.511Z</time>
      </trkpt>
      <trkpt lat="44.57564" lon="0.83731">
        <ele>154</ele>
        <time>2018-03-03T16:52:10.511Z</time>
      </trkpt>
      <trkpt lat="44.57567" lon="0.83731">
        <ele>154</ele>
        <time>2018-03-03T16:52:11.511Z</time>
      </trkpt>
      <trkpt lat="44.5757" lon="0.8373">
        <ele>154</ele>
        <time>2018-03-03T16:52:12.511Z</time>
      </trkpt>
      <trkpt lat="44.57573" lon="0.83729">
        <ele>155</ele>
        <time>2018-03-03T16:52:13.511Z</time>
      </trkpt>
      <trkpt lat="44.57576" lon="0.83728">
        <ele>155</ele>
        <time>2018-03-03T16:52:14.511Z</time>
      </trkpt>
      <trkpt lat="44.57579" lon="0.83727">
        <ele>155</ele>
        <time>2018-03-03T16:52:15.511Z</time>
      </trkpt>
      <trkpt lat="44.57582" lon="0.83726">
        <ele>155</ele>
        <time>2018-03-03T16:52:16.511Z</time>
      </trkpt>
      <trkpt lat="44.57584" lon="0.83724">
        <ele>155</ele>
        <time>2018-03-03T16:52:17.511Z</time>
      </trkpt>
      <trkpt lat="44.57587" lon="0.83723">
        <ele>156</ele>
        <time>2018-03-03T16:52:18.511Z</time>
      </trkpt>
      <trkpt lat="44.57589" lon="0.83721">
        <ele>156</ele>
        <time>2018-03-03T16:52:19.511Z</time>
      </trkpt>
      <trkpt lat="44.57592" lon="0.83719">
        <ele>156</ele>
        <time>2018-03-03T16:52:20.511Z</time>
      </trkpt>
      <trkpt lat="44.57594" lon="0.83717">
        <ele>156</ele>
        <time>2018-03-03T16:52:21.511Z</time>
      </trkpt>
      <trkpt lat="44.57596" lon="0.83716">
        <ele>156</ele>
        <time>2018-03-03T16:52:22.511Z</time>
      </trkpt>
      <trkpt lat="44.57598" lon="0.83714">
        <ele>156</ele>
        <time>2018-03-03T16:52:23.511Z</time>
      </trkpt>
      <trkpt lat="44.57601" lon="0.83713">
        <ele>156</ele>
        <time>2018-03-03T16:52:24.511Z</time>
      </trkpt>
      <trkpt lat="44.57603" lon="0.83712">
        <ele>156</ele>
        <time>2018-03-03T16:52:25.511Z</time>
      </trkpt>
      <trkpt lat="44.57605" lon="0.83712">
        <ele>156</ele>
        <time>2018-03-03T16:52:26.511Z</time>
      </trkpt>
      <trkpt lat="44.57607" lon="0.83711">
        <ele>156</ele>
        <time>2018-03-03T16:52:27.511Z</time>
      </trkpt>
      <trkpt lat="44.5761" lon="0.83711">
        <ele>157</ele>
        <time>2018-03-03T16:52:28.511Z</time>
      </trkpt>
      <trkpt lat="44.57612" lon="0.83711">
        <ele>157</ele>
        <time>2018-03-03T16:52:29.511Z</time>
      </trkpt>
      <trkpt lat="44.57614" lon="0.83711">
        <ele>157</ele>
        <time>2018-03-03T16:52:30.511Z</time>
      </trkpt>
      <trkpt lat="44.57617" lon="0.83711">
        <ele>157</ele>
        <time>2018-03-03T16:52:31.511Z</time>
      </trkpt>
      <trkpt lat="44.57619" lon="0.83712">
        <ele>157</ele>
        <time>2018-03-03T16:52:32.511Z</time>
      </trkpt>
      <trkpt lat="44.57622" lon="0.83712">
        <ele>157</ele>
        <time>2018-03-03T16:52:33.511Z</time>
      </trkpt>
      <trkpt lat="44.57624" lon="0.83712">
        <ele>158</ele>
        <time>2018-03-03T16:52:34.511Z</time>
      </trkpt>
      <trkpt lat="44.57626" lon="0.83712">
        <ele>158</ele>
        <time>2018-03-03T16:52:35.511Z</time>
      </trkpt>
      <trkpt lat="44.57629" lon="0.83712">
        <ele>158</ele>
        <time>2018-03-03T16:52:36.511Z</time>
      </trkpt>
      <trkpt lat="44.57631" lon="0.83712">
        <ele>158</ele>
        <time>2018-03-03T16:52:37.511Z</time>
      </trkpt>
      <trkpt lat="44.57633" lon="0.83712">
        <ele>159</ele>
        <time>2018-03-03T16:52:38.511Z</time>
      </trkpt>
      <trkpt lat="44.57635" lon="0.83713">
        <ele>159</ele>
        <time>2018-03-03T16:52:39.511Z</time>
      </trkpt>
      <trkpt lat="44.57638" lon="0.83713">
        <ele>159</ele>
        <time>2018-03-03T16:52:40.511Z</time>
      </trkpt>
      <trkpt lat="44.5764" lon="0.83713">
        <ele>159</ele>
        <time>2018-03-03T16:52:41.511Z</time>
      </trkpt>
      <trkpt lat="44.57643" lon="0.83714">
        <ele>159</ele>
        <time>2018-03-03T16:52:42.511Z</time>
      </trkpt>
      <trkpt lat="44.57645" lon="0.83714">
        <ele>159</ele>
        <time>2018-03-03T16:52:43.511Z</time>
      </trkpt>
      <trkpt lat="44.57647" lon="0.83715">
        <ele>160</ele>
        <time>2018-03-03T16:52:44.511Z</time>
      </trkpt>
      <trkpt lat="44.5765" lon="0.83716">
        <ele>160</ele>
        <time>2018-03-03T16:52:45.511Z</time>
      </trkpt>
      <trkpt lat="44.57653" lon="0.83716">
        <ele>160</ele>
        <time>2018-03-03T16:52:46.511Z</time>
      </trkpt>
      <trkpt lat="44.57656" lon="0.83717">
        <ele>160</ele>
        <time>2018-03-03T16:52:47.511Z</time>
      </trkpt>
      <trkpt lat="44.57658" lon="0.83717">
        <ele>160</ele>
        <time>2018-03-03T16:52:48.511Z</time>
      </trkpt>
      <trkpt lat="44.57661" lon="0.83717">
        <ele>160</ele>
        <time>2018-03-03T16:52:49.511Z</time>
      </trkpt>
      <trkpt lat="44.57664" lon="0.83718">
        <ele>161</ele>
        <time>2018-03-03T16:52:50.511Z</time>
      </trkpt>
      <trkpt lat="44.57666" lon="0.83718">
        <ele>161</ele>
        <time>2018-03-03T16:52:51.511Z</time>
      </trkpt>
      <trkpt lat="44.57669" lon="0.83718">
        <ele>161</ele>
        <time>2018-03-03T16:52:52.511Z</time>
      </trkpt>
      <trkpt lat="44.57671" lon="0.83718">
        <ele>161</ele>
        <time>2018-03-03T16:52:53.511Z</time>
      </trkpt>
      <trkpt lat="44.57674" lon="0.83718">
        <ele>161</ele>
        <time>2018-03-03T16:52:54.511Z</time>
      </trkpt>
      <trkpt lat="44.57676" lon="0.83718">
        <ele>161</ele>
        <time>2018-03-03T16:52:55.511Z</time>
      </trkpt>
      <trkpt lat="44.57679" lon="0.83718">
        <ele>161</ele>
        <time>2018-03-03T16:52:56.511Z</time>
      </trkpt>
      <trkpt lat="44.57682" lon="0.83719">
        <ele>161</ele>
        <time>2018-03-03T16:52:57.511Z</time>
      </trkpt>
      <trkpt lat="44.57684" lon="0.8372">
        <ele>161</ele>
        <time>2018-03-03T16:52:58.511Z</time>
      </trkpt>
      <trkpt lat="44.57687" lon="0.8372">
        <ele>162</ele>
        <time>2018-03-03T16:52:59.511Z</time>
      </trkpt>
      <trkpt lat="44.5769" lon="0.83721">
        <ele>162</ele>
        <time>2018-03-03T16:53:00.511Z</time>
      </trkpt>
      <trkpt lat="44.57693" lon="0.83722">
        <ele>162</ele>
        <time>2018-03-03T16:53:01.511Z</time>
      </trkpt>
      <trkpt lat="44.57696" lon="0.83723">
        <ele>162</ele>
        <time>2018-03-03T16:53:02.511Z</time>
      </trkpt>
      <trkpt lat="44.57699" lon="0.83723">
        <ele>162</ele>
        <time>2018-03-03T16:53:03.511Z</time>
      </trkpt>
      <trkpt lat="44.57702" lon="0.83724">
        <ele>162</ele>
        <time>2018-03-03T16:53:04.511Z</time>
      </trkpt>
      <trkpt lat="44.57705" lon="0.83725">
        <ele>162</ele>
        <time>2018-03-03T16:53:05.511Z</time>
      </trkpt>
      <trkpt lat="44.57708" lon="0.83725">
        <ele>162</ele>
        <time>2018-03-03T16:53:06.511Z</time>
      </trkpt>
      <trkpt lat="44.57711" lon="0.83726">
        <ele>162</ele>
        <time>2018-03-03T16:53:07.511Z</time>
      </trkpt>
      <trkpt lat="44.57714" lon="0.83726">
        <ele>162</ele>
        <time>2018-03-03T16:53:08.511Z</time>
      </trkpt>
      <trkpt lat="44.57718" lon="0.83727">
        <ele>163</ele>
        <time>2018-03-03T16:53:09.511Z</time>
      </trkpt>
      <trkpt lat="44.57721" lon="0.83727">
        <ele>163</ele>
        <time>2018-03-03T16:53:10.511Z</time>
      </trkpt>
      <trkpt lat="44.57724" lon="0.83728">
        <ele>163</ele>
        <time>2018-03-03T16:53:11.511Z</time>
      </trkpt>
      <trkpt lat="44.57727" lon="0.83729">
        <ele>163</ele>
        <time>2018-03-03T16:53:12.511Z</time>
      </trkpt>
      <trkpt lat="44.57729" lon="0.8373">
        <ele>163</ele>
        <time>2018-03-03T16:53:13.511Z</time>
      </trkpt>
      <trkpt lat="44.57732" lon="0.83731">
        <ele>163</ele>
        <time>2018-03-03T16:53:14.511Z</time>
      </trkpt>
      <trkpt lat="44.57735" lon="0.83731">
        <ele>163</ele>
        <time>2018-03-03T16:53:15.511Z</time>
      </trkpt>
      <trkpt lat="44.57738" lon="0.83732">
        <ele>163</ele>
        <time>2018-03-03T16:53:16.511Z</time>
      </trkpt>
      <trkpt lat="44.5774" lon="0.83732">
        <ele>163</ele>
        <time>2018-03-03T16:53:17.511Z</time>
      </trkpt>
      <trkpt lat="44.57743" lon="0.83732">
        <ele>163</ele>
        <time>2018-03-03T16:53:18.511Z</time>
      </trkpt>
      <trkpt lat="44.57745" lon="0.83731">
        <ele>163</ele>
        <time>2018-03-03T16:53:19.511Z</time>
      </trkpt>
      <trkpt lat="44.57748" lon="0.83731">
        <ele>163</ele>
        <time>2018-03-03T16:53:20.511Z</time>
      </trkpt>
      <trkpt lat="44.5775" lon="0.8373">
        <ele>163</ele>
        <time>2018-03-03T16:53:21.511Z</time>
      </trkpt>
      <trkpt lat="44.57753" lon="0.83729">
        <ele>163</ele>
        <time>2018-03-03T16:53:22.511Z</time>
      </trkpt>
      <trkpt lat="44.57755" lon="0.83729">
        <ele>163</ele>
        <time>2018-03-03T16:53:23.511Z</time>
      </trkpt>
      <trkpt lat="44.57757" lon="0.83728">
        <ele>163</ele>
        <time>2018-03-03T16:53:24.511Z</time>
      </trkpt>
      <trkpt lat="44.57759" lon="0.83728">
        <ele>163</ele>
        <time>2018-03-03T16:53:25.511Z</time>
      </trkpt>
      <trkpt lat="44.5776" lon="0.83728">
        <ele>163</ele>
        <time>2018-03-03T16:53:26.511Z</time>
      </trkpt>
      <trkpt lat="44.57762" lon="0.83728">
        <ele>163</ele>
        <time>2018-03-03T16:53:27.511Z</time>
      </trkpt>
      <trkpt lat="44.57763" lon="0.83728">
        <ele>163</ele>
        <time>2018-03-03T16:53:28.511Z</time>
      </trkpt>
      <trkpt lat="44.57764" lon="0.83728">
        <ele>163</ele>
        <time>2018-03-03T16:53:29.511Z</time>
      </trkpt>
      <trkpt lat="44.57766" lon="0.83728">
        <ele>163</ele>
        <time>2018-03-03T16:53:30.511Z</time>
      </trkpt>
      <trkpt lat="44.57767" lon="0.83727">
        <ele>163</ele>
        <time>2018-03-03T16:53:31.511Z</time>
      </trkpt>
      <trkpt lat="44.57769" lon="0.83727">
        <ele>162</ele>
        <time>2018-03-03T16:53:32.511Z</time>
      </trkpt>
      <trkpt lat="44.57771" lon="0.83727">
        <ele>162</ele>
        <time>2018-03-03T16:53:33.511Z</time>
      </trkpt>
      <trkpt lat="44.57773" lon="0.83726">
        <ele>162</ele>
        <time>2018-03-03T16:53:34.511Z</time>
      </trkpt>
      <trkpt lat="44.57775" lon="0.83726">
        <ele>162</ele>
        <time>2018-03-03T16:53:35.511Z</time>
      </trkpt>
      <trkpt lat="44.57777" lon="0.83725">
        <ele>162</ele>
        <time>2018-03-03T16:53:36.511Z</time>
      </trkpt>
      <trkpt lat="44.5778" lon="0.83724">
        <ele>162</ele>
        <time>2018-03-03T16:53:37.511Z</time>
      </trkpt>
      <trkpt lat="44.57782" lon="0.83723">
        <ele>162</ele>
        <time>2018-03-03T16:53:38.511Z</time>
      </trkpt>
      <trkpt lat="44.57784" lon="0.83722">
        <ele>162</ele>
        <time>2018-03-03T16:53:39.511Z</time>
      </trkpt>
      <trkpt lat="44.57787" lon="0.83722">
        <ele>162</ele>
        <time>2018-03-03T16:53:40.511Z</time>
      </trkpt>
      <trkpt lat="44.57789" lon="0.83721">
        <ele>162</ele>
        <time>2018-03-03T16:53:41.511Z</time>
      </trkpt>
      <trkpt lat="44.57791" lon="0.83721">
        <ele>162</ele>
        <time>2018-03-03T16:53:42.511Z</time>
      </trkpt>
      <trkpt lat="44.57794" lon="0.83722">
        <ele>162</ele>
        <time>2018-03-03T16:53:43.511Z</time>
      </trkpt>
      <trkpt lat="44.57796" lon="0.83722">
        <ele>162</ele>
        <time>2018-03-03T16:53:44.511Z</time>
      </trkpt>
      <trkpt lat="44.57797" lon="0.83723">
        <ele>162</ele>
        <time>2018-03-03T16:53:45.511Z</time>
      </trkpt>
      <trkpt lat="44.57799" lon="0.83723">
        <ele>162</ele>
        <time>2018-03-03T16:53:46.511Z</time>
      </trkpt>
      <trkpt lat="44.57799" lon="0.83724">
        <ele>162</ele>
        <time>2018-03-03T16:53:47.511Z</time>
      </trkpt>
      <trkpt lat="44.57799" lon="0.83724">
        <ele>162</ele>
        <time>2018-03-03T16:53:48.511Z</time>
      </trkpt>
      <trkpt lat="44.57799" lon="0.83724">
        <ele>162</ele>
        <time>2018-03-03T16:53:49.511Z</time>
      </trkpt>
      <trkpt lat="44.57799" lon="0.83724">
        <ele>162</ele>
        <time>2018-03-03T16:53:50.511Z</time>
      </trkpt>
      <trkpt lat="44.57799" lon="0.83724">
        <ele>162</ele>
        <time>2018-03-03T16:53:51.511Z</time>
      </trkpt>
      <trkpt lat="44.57799" lon="0.83724">
        <ele>162</ele>
        <time>2018-03-03T16:53:52.511Z</time>
      </trkpt>
      <trkpt lat="44.57799" lon="0.83724">
        <ele>162</ele>
        <time>2018-03-03T16:53:53.511Z</time>
      </trkpt>
      <trkpt lat="44.57799" lon="0.83724">
        <ele>162</ele>
        <time>2018-03-03T16:53:54.511Z</time>
      </trkpt>
      <trkpt lat="44.57799" lon="0.83724">
        <ele>162</ele>
        <time>2018-03-03T16:53:55.511Z</time>
      </trkpt>
      <trkpt lat="44.57799" lon="0.83724">
        <ele>162</ele>
        <time>2018-03-03T16:53:56.511Z</time>
      </trkpt>
      <trkpt lat="44.57799" lon="0.83724">
        <ele>162</ele>
        <time>2018-03-03T16:53:57.511Z</time>
      </trkpt>
      <trkpt lat="44.57799" lon="0.83724">
        <ele>162</ele>
        <time>2018-03-03T16:53:58.511Z</time>
      </trkpt>
      <trkpt lat="44.57799" lon="0.83724">
        <ele>162</ele>
        <time>2018-03-03T16:53:59.511Z</time>
      </trkpt>
      <trkpt lat="44.57799" lon="0.83724">
        <ele>162</ele>
        <time>2018-03-03T16:54:00.511Z</time>
      </trkpt>
      <trkpt lat="44.57799" lon="0.83724">
        <ele>162</ele>
        <time>2018-03-03T16:54:01.511Z</time>
      </trkpt>
      <trkpt lat="44.57799" lon="0.83724">
        <ele>162</ele>
        <time>2018-03-03T16:54:02.511Z</time>
      </trkpt>
      <trkpt lat="44.578" lon="0.83725">
        <ele>162</ele>
        <time>2018-03-03T16:54:03.511Z</time>
      </trkpt>
      <trkpt lat="44.57802" lon="0.83726">
        <ele>162</ele>
        <time>2018-03-03T16:54:04.511Z</time>
      </trkpt>
      <trkpt lat="44.57803" lon="0.83727">
        <ele>162</ele>
        <time>2018-03-03T16:54:05.511Z</time>
      </trkpt>
      <trkpt lat="44.57804" lon="0.83729">
        <ele>162</ele>
        <time>2018-03-03T16:54:06.511Z</time>
      </trkpt>
      <trkpt lat="44.57805" lon="0.83731">
        <ele>162</ele>
        <time>2018-03-03T16:54:07.511Z</time>
      </trkpt>
      <trkpt lat="44.57807" lon="0.83734">
        <ele>162</ele>
        <time>2018-03-03T16:54:08.511Z</time>
      </trkpt>
      <trkpt lat="44.57809" lon="0.83736">
        <ele>162</ele>
        <time>2018-03-03T16:54:09.511Z</time>
      </trkpt>
      <trkpt lat="44.57811" lon="0.83737">
        <ele>162</ele>
        <time>2018-03-03T16:54:10.511Z</time>
      </trkpt>
      <trkpt lat="44.57813" lon="0.83738">
        <ele>162</ele>
        <time>2018-03-03T16:54:11.511Z</time>
      </trkpt>
      <trkpt lat="44.57816" lon="0.83738">
        <ele>162</ele>
        <time>2018-03-03T16:54:12.511Z</time>
      </trkpt>
      <trkpt lat="44.57818" lon="0.83738">
        <ele>162</ele>
        <time>2018-03-03T16:54:13.511Z</time>
      </trkpt>
      <trkpt lat="44.57821" lon="0.83737">
        <ele>162</ele>
        <time>2018-03-03T16:54:14.511Z</time>
      </trkpt>
      <trkpt lat="44.57824" lon="0.83736">
        <ele>162</ele>
        <time>2018-03-03T16:54:15.511Z</time>
      </trkpt>
      <trkpt lat="44.57826" lon="0.83733">
        <ele>162</ele>
        <time>2018-03-03T16:54:16.511Z</time>
      </trkpt>
      <trkpt lat="44.57829" lon="0.83731">
        <ele>162</ele>
        <time>2018-03-03T16:54:17.511Z</time>
      </trkpt>
      <trkpt lat="44.57832" lon="0.83727">
        <ele>162</ele>
        <time>2018-03-03T16:54:18.511Z</time>
      </trkpt>
      <trkpt lat="44.57834" lon="0.83724">
        <ele>161</ele>
        <time>2018-03-03T16:54:19.511Z</time>
      </trkpt>
      <trkpt lat="44.57837" lon="0.8372">
        <ele>161</ele>
        <time>2018-03-03T16:54:20.511Z</time>
      </trkpt>
      <trkpt lat="44.57839" lon="0.83716">
        <ele>161</ele>
        <time>2018-03-03T16:54:21.511Z</time>
      </trkpt>
      <trkpt lat="44.57842" lon="0.83712">
        <ele>161</ele>
        <time>2018-03-03T16:54:22.511Z</time>
      </trkpt>
      <trkpt lat="44.57846" lon="0.83708">
        <ele>161</ele>
        <time>2018-03-03T16:54:23.511Z</time>
      </trkpt>
      <trkpt lat="44.5785" lon="0.83706">
        <ele>161</ele>
        <time>2018-03-03T16:54:24.511Z</time>
      </trkpt>
      <trkpt lat="44.57854" lon="0.83704">
        <ele>161</ele>
        <time>2018-03-03T16:54:25.511Z</time>
      </trkpt>
      <trkpt lat="44.57858" lon="0.83702">
        <ele>161</ele>
        <time>2018-03-03T16:54:26.511Z</time>
      </trkpt>
      <trkpt lat="44.57863" lon="0.83701">
        <ele>161</ele>
        <time>2018-03-03T16:54:27.511Z</time>
      </trkpt>
      <trkpt lat="44.57868" lon="0.83699">
        <ele>161</ele>
        <time>2018-03-03T16:54:28.511Z</time>
      </trkpt>
      <trkpt lat="44.57873" lon="0.83698">
        <ele>161</ele>
        <time>2018-03-03T16:54:29.511Z</time>
      </trkpt>
      <trkpt lat="44.57878" lon="0.83697">
        <ele>161</ele>
        <time>2018-03-03T16:54:30.511Z</time>
      </trkpt>
      <trkpt lat="44.57882" lon="0.83697">
        <ele>161</ele>
        <time>2018-03-03T16:54:31.511Z</time>
      </trkpt>
      <trkpt lat="44.57887" lon="0.83697">
        <ele>161</ele>
        <time>2018-03-03T16:54:32.511Z</time>
      </trkpt>
      <trkpt lat="44.5789" lon="0.83698">
        <ele>161</ele>
        <time>2018-03-03T16:54:33.511Z</time>
      </trkpt>
      <trkpt lat="44.57894" lon="0.837">
        <ele>161</ele>
        <time>2018-03-03T16:54:34.511Z</time>
      </trkpt>
      <trkpt lat="44.57898" lon="0.83702">
        <ele>161</ele>
        <time>2018-03-03T16:54:35.511Z</time>
      </trkpt>
      <trkpt lat="44.57901" lon="0.83703">
        <ele>161</ele>
        <time>2018-03-03T16:54:36.511Z</time>
      </trkpt>
      <trkpt lat="44.57905" lon="0.83705">
        <ele>161</ele>
        <time>2018-03-03T16:54:37.511Z</time>
      </trkpt>
      <trkpt lat="44.57909" lon="0.83706">
        <ele>161</ele>
        <time>2018-03-03T16:54:38.511Z</time>
      </trkpt>
      <trkpt lat="44.57912" lon="0.83707">
        <ele>161</ele>
        <time>2018-03-03T16:54:39.511Z</time>
      </trkpt>
      <trkpt lat="44.57916" lon="0.83707">
        <ele>161</ele>
        <time>2018-03-03T16:54:40.511Z</time>
      </trkpt>
      <trkpt lat="44.5792" lon="0.83707">
        <ele>161</ele>
        <time>2018-03-03T16:54:41.511Z</time>
      </trkpt>
      <trkpt lat="44.57924" lon="0.83707">
        <ele>161</ele>
        <time>2018-03-03T16:54:42.511Z</time>
      </trkpt>
      <trkpt lat="44.57927" lon="0.83706">
        <ele>160</ele>
        <time>2018-03-03T16:54:43.511Z</time>
      </trkpt>
      <trkpt lat="44.57931" lon="0.83706">
        <ele>161</ele>
        <time>2018-03-03T16:54:44.511Z</time>
      </trkpt>
      <trkpt lat="44.57937" lon="0.83707">
        <ele>160</ele>
        <time>2018-03-03T16:54:45.511Z</time>
      </trkpt>
      <trkpt lat="44.57943" lon="0.83707">
        <ele>160</ele>
        <time>2018-03-03T16:54:46.511Z</time>
      </trkpt>
      <trkpt lat="44.57949" lon="0.83707">
        <ele>160</ele>
        <time>2018-03-03T16:54:47.511Z</time>
      </trkpt>
      <trkpt lat="44.57954" lon="0.83707">
        <ele>160</ele>
        <time>2018-03-03T16:54:48.511Z</time>
      </trkpt>
      <trkpt lat="44.5796" lon="0.83707">
        <ele>160</ele>
        <time>2018-03-03T16:54:49.511Z</time>
      </trkpt>
      <trkpt lat="44.57965" lon="0.83708">
        <ele>159</ele>
        <time>2018-03-03T16:54:50.511Z</time>
      </trkpt>
      <trkpt lat="44.5797" lon="0.83708">
        <ele>159</ele>
        <time>2018-03-03T16:54:51.511Z</time>
      </trkpt>
      <trkpt lat="44.57975" lon="0.83709">
        <ele>159</ele>
        <time>2018-03-03T16:54:52.511Z</time>
      </trkpt>
      <trkpt lat="44.57979" lon="0.8371">
        <ele>159</ele>
        <time>2018-03-03T16:54:53.511Z</time>
      </trkpt>
      <trkpt lat="44.57983" lon="0.83711">
        <ele>159</ele>
        <time>2018-03-03T16:54:54.511Z</time>
      </trkpt>
      <trkpt lat="44.57987" lon="0.83713">
        <ele>159</ele>
        <time>2018-03-03T16:54:55.511Z</time>
      </trkpt>
      <trkpt lat="44.57992" lon="0.83715">
        <ele>158</ele>
        <time>2018-03-03T16:54:56.511Z</time>
      </trkpt>
      <trkpt lat="44.57996" lon="0.83717">
        <ele>158</ele>
        <time>2018-03-03T16:54:57.511Z</time>
      </trkpt>
      <trkpt lat="44.58001" lon="0.8372">
        <ele>158</ele>
        <time>2018-03-03T16:54:58.511Z</time>
      </trkpt>
      <trkpt lat="44.58006" lon="0.83722">
        <ele>158</ele>
        <time>2018-03-03T16:54:59.511Z</time>
      </trkpt>
      <trkpt lat="44.58011" lon="0.83724">
        <ele>157</ele>
        <time>2018-03-03T16:55:00.511Z</time>
      </trkpt>
      <trkpt lat="44.58016" lon="0.83726">
        <ele>157</ele>
        <time>2018-03-03T16:55:01.511Z</time>
      </trkpt>
      <trkpt lat="44.58022" lon="0.83727">
        <ele>157</ele>
        <time>2018-03-03T16:55:02.511Z</time>
      </trkpt>
      <trkpt lat="44.58027" lon="0.83728">
        <ele>156</ele>
        <time>2018-03-03T16:55:03.511Z</time>
      </trkpt>
      <trkpt lat="44.58033" lon="0.83728">
        <ele>156</ele>
        <time>2018-03-03T16:55:04.511Z</time>
      </trkpt>
      <trkpt lat="44.58039" lon="0.83728">
        <ele>156</ele>
        <time>2018-03-03T16:55:05.511Z</time>
      </trkpt>
      <trkpt lat="44.58044" lon="0.83728">
        <ele>156</ele>
        <time>2018-03-03T16:55:06.511Z</time>
      </trkpt>
      <trkpt lat="44.58049" lon="0.83728">
        <ele>155</ele>
        <time>2018-03-03T16:55:07.511Z</time>
      </trkpt>
      <trkpt lat="44.58055" lon="0.83728">
        <ele>155</ele>
        <time>2018-03-03T16:55:08.511Z</time>
      </trkpt>
      <trkpt lat="44.5806" lon="0.83728">
        <ele>155</ele>
        <time>2018-03-03T16:55:09.511Z</time>
      </trkpt>
      <trkpt lat="44.58065" lon="0.83729">
        <ele>154</ele>
        <time>2018-03-03T16:55:10.511Z</time>
      </trkpt>
      <trkpt lat="44.5807" lon="0.83729">
        <ele>154</ele>
        <time>2018-03-03T16:55:11.511Z</time>
      </trkpt>
      <trkpt lat="44.58074" lon="0.83729">
        <ele>154</ele>
        <time>2018-03-03T16:55:12.511Z</time>
      </trkpt>
      <trkpt lat="44.58079" lon="0.8373">
        <ele>154</ele>
        <time>2018-03-03T16:55:13.511Z</time>
      </trkpt>
      <trkpt lat="44.58084" lon="0.83731">
        <ele>154</ele>
        <time>2018-03-03T16:55:14.511Z</time>
      </trkpt>
      <trkpt lat="44.58089" lon="0.83731">
        <ele>154</ele>
        <time>2018-03-03T16:55:15.511Z</time>
      </trkpt>
      <trkpt lat="44.58094" lon="0.83732">
        <ele>153</ele>
        <time>2018-03-03T16:55:16.511Z</time>
      </trkpt>
      <trkpt lat="44.58099" lon="0.83733">
        <ele>153</ele>
        <time>2018-03-03T16:55:17.511Z</time>
      </trkpt>
      <trkpt lat="44.58104" lon="0.83734">
        <ele>153</ele>
        <time>2018-03-03T16:55:18.511Z</time>
      </trkpt>
      <trkpt lat="44.58109" lon="0.83736">
        <ele>153</ele>
        <time>2018-03-03T16:55:19.511Z</time>
      </trkpt>
      <trkpt lat="44.58115" lon="0.83737">
        <ele>153</ele>
        <time>2018-03-03T16:55:20.511Z</time>
      </trkpt>
      <trkpt lat="44.5812" lon="0.83737">
        <ele>153</ele>
        <time>2018-03-03T16:55:21.511Z</time>
      </trkpt>
      <trkpt lat="44.58126" lon="0.83738">
        <ele>153</ele>
        <time>2018-03-03T16:55:22.511Z</time>
      </trkpt>
      <trkpt lat="44.58131" lon="0.83739">
        <ele>152</ele>
        <time>2018-03-03T16:55:23.511Z</time>
      </trkpt>
      <trkpt lat="44.58136" lon="0.83739">
        <ele>152</ele>
        <time>2018-03-03T16:55:24.511Z</time>
      </trkpt>
      <trkpt lat="44.58141" lon="0.8374">
        <ele>152</ele>
        <time>2018-03-03T16:55:25.511Z</time>
      </trkpt>
      <trkpt lat="44.58145" lon="0.8374">
        <ele>152</ele>
        <time>2018-03-03T16:55:26.511Z</time>
      </trkpt>
      <trkpt lat="44.5815" lon="0.8374">
        <ele>152</ele>
        <time>2018-03-03T16:55:27.511Z</time>
      </trkpt>
      <trkpt lat="44.58154" lon="0.83739">
        <ele>152</ele>
        <time>2018-03-03T16:55:28.511Z</time>
      </trkpt>
      <trkpt lat="44.58159" lon="0.83739">
        <ele>152</ele>
        <time>2018-03-03T16:55:29.511Z</time>
      </trkpt>
      <trkpt lat="44.58163" lon="0.83739">
        <ele>152</ele>
        <time>2018-03-03T16:55:30.511Z</time>
      </trkpt>
      <trkpt lat="44.58167" lon="0.83739">
        <ele>151</ele>
        <time>2018-03-03T16:55:31.511Z</time>
      </trkpt>
      <trkpt lat="44.58171" lon="0.83739">
        <ele>151</ele>
        <time>2018-03-03T16:55:32.511Z</time>
      </trkpt>
      <trkpt lat="44.58175" lon="0.83739">
        <ele>151</ele>
        <time>2018-03-03T16:55:33.511Z</time>
      </trkpt>
      <trkpt lat="44.58178" lon="0.83739">
        <ele>151</ele>
        <time>2018-03-03T16:55:34.511Z</time>
      </trkpt>
      <trkpt lat="44.58181" lon="0.83739">
        <ele>151</ele>
        <time>2018-03-03T16:55:35.511Z</time>
      </trkpt>
      <trkpt lat="44.58184" lon="0.83739">
        <ele>151</ele>
        <time>2018-03-03T16:55:36.511Z</time>
      </trkpt>
      <trkpt lat="44.58187" lon="0.8374">
        <ele>151</ele>
        <time>2018-03-03T16:55:37.511Z</time>
      </trkpt>
      <trkpt lat="44.5819" lon="0.8374">
        <ele>151</ele>
        <time>2018-03-03T16:55:38.511Z</time>
      </trkpt>
      <trkpt lat="44.58194" lon="0.83741">
        <ele>151</ele>
        <time>2018-03-03T16:55:39.511Z</time>
      </trkpt>
      <trkpt lat="44.58198" lon="0.83741">
        <ele>151</ele>
        <time>2018-03-03T16:55:40.511Z</time>
      </trkpt>
      <trkpt lat="44.58202" lon="0.83742">
        <ele>151</ele>
        <time>2018-03-03T16:55:41.511Z</time>
      </trkpt>
      <trkpt lat="44.58207" lon="0.83742">
        <ele>151</ele>
        <time>2018-03-03T16:55:42.511Z</time>
      </trkpt>
      <trkpt lat="44.58211" lon="0.83742">
        <ele>151</ele>
        <time>2018-03-03T16:55:43.511Z</time>
      </trkpt>
      <trkpt lat="44.58216" lon="0.83742">
        <ele>151</ele>
        <time>2018-03-03T16:55:44.511Z</time>
      </trkpt>
      <trkpt lat="44.5822" lon="0.83742">
        <ele>151</ele>
        <time>2018-03-03T16:55:45.511Z</time>
      </trkpt>
      <trkpt lat="44.58224" lon="0.83742">
        <ele>151</ele>
        <time>2018-03-03T16:55:46.511Z</time>
      </trkpt>
      <trkpt lat="44.58229" lon="0.83743">
        <ele>151</ele>
        <time>2018-03-03T16:55:47.511Z</time>
      </trkpt>
      <trkpt lat="44.58233" lon="0.83744">
        <ele>151</ele>
        <time>2018-03-03T16:55:48.511Z</time>
      </trkpt>
      <trkpt lat="44.58238" lon="0.83745">
        <ele>151</ele>
        <time>2018-03-03T16:55:49.511Z</time>
      </trkpt>
      <trkpt lat="44.58242" lon="0.83747">
        <ele>151</ele>
        <time>2018-03-03T16:55:50.511Z</time>
      </trkpt>
      <trkpt lat="44.58246" lon="0.83751">
        <ele>151</ele>
        <time>2018-03-03T16:55:51.511Z</time>
      </trkpt>
      <trkpt lat="44.5825" lon="0.83755">
        <ele>151</ele>
        <time>2018-03-03T16:55:52.511Z</time>
      </trkpt>
      <trkpt lat="44.58252" lon="0.8376">
        <ele>152</ele>
        <time>2018-03-03T16:55:53.511Z</time>
      </trkpt>
      <trkpt lat="44.58253" lon="0.83766">
        <ele>152</ele>
        <time>2018-03-03T16:55:54.511Z</time>
      </trkpt>
      <trkpt lat="44.58253" lon="0.83772">
        <ele>152</ele>
        <time>2018-03-03T16:55:55.511Z</time>
      </trkpt>
      <trkpt lat="44.58253" lon="0.83779">
        <ele>152</ele>
        <time>2018-03-03T16:55:56.511Z</time>
      </trkpt>
      <trkpt lat="44.58253" lon="0.83784">
        <ele>152</ele>
        <time>2018-03-03T16:55:57.511Z</time>
      </trkpt>
      <trkpt lat="44.58254" lon="0.83788">
        <ele>152</ele>
        <time>2018-03-03T16:55:58.511Z</time>
      </trkpt>
      <trkpt lat="44.58257" lon="0.83789">
        <ele>152</ele>
        <time>2018-03-03T16:55:59.511Z</time>
      </trkpt>
      <trkpt lat="44.58261" lon="0.83789">
        <ele>152</ele>
        <time>2018-03-03T16:56:00.511Z</time>
      </trkpt>
      <trkpt lat="44.58265" lon="0.83787">
        <ele>152</ele>
        <time>2018-03-03T16:56:01.511Z</time>
      </trkpt>
      <trkpt lat="44.5827" lon="0.83786">
        <ele>152</ele>
        <time>2018-03-03T16:56:02.511Z</time>
      </trkpt>
      <trkpt lat="44.58274" lon="0.83787">
        <ele>152</ele>
        <time>2018-03-03T16:56:03.511Z</time>
      </trkpt>
      <trkpt lat="44.58278" lon="0.83788">
        <ele>152</ele>
        <time>2018-03-03T16:56:04.511Z</time>
      </trkpt>
      <trkpt lat="44.58282" lon="0.83791">
        <ele>152</ele>
        <time>2018-03-03T16:56:05.511Z</time>
      </trkpt>
      <trkpt lat="44.58286" lon="0.83794">
        <ele>151</ele>
        <time>2018-03-03T16:56:06.511Z</time>
      </trkpt>
      <trkpt lat="44.5829" lon="0.83798">
        <ele>151</ele>
        <time>2018-03-03T16:56:07.511Z</time>
      </trkpt>
      <trkpt lat="44.58296" lon="0.83802">
        <ele>150</ele>
        <time>2018-03-03T16:56:08.511Z</time>
      </trkpt>
      <trkpt lat="44.58302" lon="0.83806">
        <ele>150</ele>
        <time>2018-03-03T16:56:09.511Z</time>
      </trkpt>
      <trkpt lat="44.58308" lon="0.83811">
        <ele>149</ele>
        <time>2018-03-03T16:56:10.511Z</time>
      </trkpt>
      <trkpt lat="44.58315" lon="0.83816">
        <ele>149</ele>
        <time>2018-03-03T16:56:11.511Z</time>
      </trkpt>
      <trkpt lat="44.58323" lon="0.83821">
        <ele>148</ele>
        <time>2018-03-03T16:56:12.511Z</time>
      </trkpt>
      <trkpt lat="44.5833" lon="0.83827">
        <ele>147</ele>
        <time>2018-03-03T16:56:13.511Z</time>
      </trkpt>
      <trkpt lat="44.58338" lon="0.83833">
        <ele>147</ele>
        <time>2018-03-03T16:56:14.511Z</time>
      </trkpt>
      <trkpt lat="44.58345" lon="0.83839">
        <ele>146</ele>
        <time>2018-03-03T16:56:15.511Z</time>
      </trkpt>
      <trkpt lat="44.58352" lon="0.83845">
        <ele>145</ele>
        <time>2018-03-03T16:56:16.511Z</time>
      </trkpt>
      <trkpt lat="44.58358" lon="0.83851">
        <ele>144</ele>
        <time>2018-03-03T16:56:17.511Z</time>
      </trkpt>
      <trkpt lat="44.58364" lon="0.83856">
        <ele>143</ele>
        <time>2018-03-03T16:56:18.511Z</time>
      </trkpt>
      <trkpt lat="44.58368" lon="0.83862">
        <ele>142</ele>
        <time>2018-03-03T16:56:19.511Z</time>
      </trkpt>
      <trkpt lat="44.58372" lon="0.83866">
        <ele>141</ele>
        <time>2018-03-03T16:56:20.511Z</time>
      </trkpt>
      <trkpt lat="44.58376" lon="0.8387">
        <ele>141</ele>
        <time>2018-03-03T16:56:21.511Z</time>
      </trkpt>
      <trkpt lat="44.5838" lon="0.83873">
        <ele>140</ele>
        <time>2018-03-03T16:56:22.511Z</time>
      </trkpt>
      <trkpt lat="44.58384" lon="0.83876">
        <ele>139</ele>
        <time>2018-03-03T16:56:23.511Z</time>
      </trkpt>
      <trkpt lat="44.5839" lon="0.83878">
        <ele>138</ele>
        <time>2018-03-03T16:56:24.511Z</time>
      </trkpt>
      <trkpt lat="44.58396" lon="0.83879">
        <ele>137</ele>
        <time>2018-03-03T16:56:25.511Z</time>
      </trkpt>
      <trkpt lat="44.58403" lon="0.83881">
        <ele>136</ele>
        <time>2018-03-03T16:56:26.511Z</time>
      </trkpt>
      <trkpt lat="44.58408" lon="0.83882">
        <ele>136</ele>
        <time>2018-03-03T16:56:27.511Z</time>
      </trkpt>
      <trkpt lat="44.58413" lon="0.83882">
        <ele>135</ele>
        <time>2018-03-03T16:56:28.511Z</time>
      </trkpt>
      <trkpt lat="44.58418" lon="0.83883">
        <ele>134</ele>
        <time>2018-03-03T16:56:29.511Z</time>
      </trkpt>
      <trkpt lat="44.58421" lon="0.83883">
        <ele>133</ele>
        <time>2018-03-03T16:56:30.511Z</time>
      </trkpt>
      <trkpt lat="44.58424" lon="0.83882">
        <ele>133</ele>
        <time>2018-03-03T16:56:31.511Z</time>
      </trkpt>
      <trkpt lat="44.58427" lon="0.83882">
        <ele>132</ele>
        <time>2018-03-03T16:56:32.511Z</time>
      </trkpt>
      <trkpt lat="44.58429" lon="0.83881">
        <ele>132</ele>
        <time>2018-03-03T16:56:33.511Z</time>
      </trkpt>
      <trkpt lat="44.58431" lon="0.83879">
        <ele>132</ele>
        <time>2018-03-03T16:56:34.511Z</time>
      </trkpt>
      <trkpt lat="44.58432" lon="0.83876">
        <ele>132</ele>
        <time>2018-03-03T16:56:35.511Z</time>
      </trkpt>
      <trkpt lat="44.58433" lon="0.83873">
        <ele>131</ele>
        <time>2018-03-03T16:56:36.511Z</time>
      </trkpt>
      <trkpt lat="44.58434" lon="0.8387">
        <ele>131</ele>
        <time>2018-03-03T16:56:37.511Z</time>
      </trkpt>
      <trkpt lat="44.58435" lon="0.83868">
        <ele>131</ele>
        <time>2018-03-03T16:56:38.511Z</time>
      </trkpt>
      <trkpt lat="44.58435" lon="0.83866">
        <ele>131</ele>
        <time>2018-03-03T16:56:39.511Z</time>
      </trkpt>
      <trkpt lat="44.58436" lon="0.83864">
        <ele>131</ele>
        <time>2018-03-03T16:56:40.511Z</time>
      </trkpt>
      <trkpt lat="44.58438" lon="0.83862">
        <ele>131</ele>
        <time>2018-03-03T16:56:41.511Z</time>
      </trkpt>
      <trkpt lat="44.58439" lon="0.8386">
        <ele>131</ele>
        <time>2018-03-03T16:56:42.511Z</time>
      </trkpt>
      <trkpt lat="44.5844" lon="0.83858">
        <ele>131</ele>
        <time>2018-03-03T16:56:43.511Z</time>
      </trkpt>
      <trkpt lat="44.58442" lon="0.83856">
        <ele>131</ele>
        <time>2018-03-03T16:56:44.511Z</time>
      </trkpt>
      <trkpt lat="44.58443" lon="0.83855">
        <ele>131</ele>
        <time>2018-03-03T16:56:45.511Z</time>
      </trkpt>
      <trkpt lat="44.58445" lon="0.83853">
        <ele>131</ele>
        <time>2018-03-03T16:56:46.511Z</time>
      </trkpt>
      <trkpt lat="44.58446" lon="0.83851">
        <ele>131</ele>
        <time>2018-03-03T16:56:47.511Z</time>
      </trkpt>
      <trkpt lat="44.58448" lon="0.83849">
        <ele>131</ele>
        <time>2018-03-03T16:56:48.511Z</time>
      </trkpt>
      <trkpt lat="44.5845" lon="0.83848">
        <ele>131</ele>
        <time>2018-03-03T16:56:49.511Z</time>
      </trkpt>
      <trkpt lat="44.58452" lon="0.83846">
        <ele>131</ele>
        <time>2018-03-03T16:56:50.511Z</time>
      </trkpt>
      <trkpt lat="44.58454" lon="0.83844">
        <ele>131</ele>
        <time>2018-03-03T16:56:51.511Z</time>
      </trkpt>
      <trkpt lat="44.58456" lon="0.83842">
        <ele>131</ele>
        <time>2018-03-03T16:56:52.511Z</time>
      </trkpt>
      <trkpt lat="44.58458" lon="0.83841">
        <ele>131</ele>
        <time>2018-03-03T16:56:53.511Z</time>
      </trkpt>
      <trkpt lat="44.5846" lon="0.83839">
        <ele>131</ele>
        <time>2018-03-03T16:56:54.511Z</time>
      </trkpt>
      <trkpt lat="44.58462" lon="0.83837">
        <ele>131</ele>
        <time>2018-03-03T16:56:55.511Z</time>
      </trkpt>
      <trkpt lat="44.58465" lon="0.83835">
        <ele>131</ele>
        <time>2018-03-03T16:56:56.511Z</time>
      </trkpt>
      <trkpt lat="44.58467" lon="0.83834">
        <ele>132</ele>
        <time>2018-03-03T16:56:57.511Z</time>
      </trkpt>
      <trkpt lat="44.58469" lon="0.83832">
        <ele>132</ele>
        <time>2018-03-03T16:56:58.511Z</time>
      </trkpt>
      <trkpt lat="44.58471" lon="0.8383">
        <ele>132</ele>
        <time>2018-03-03T16:56:59.511Z</time>
      </trkpt>
      <trkpt lat="44.58473" lon="0.83828">
        <ele>132</ele>
        <time>2018-03-03T16:57:00.511Z</time>
      </trkpt>
      <trkpt lat="44.58476" lon="0.83826">
        <ele>132</ele>
        <time>2018-03-03T16:57:01.511Z</time>
      </trkpt>
      <trkpt lat="44.58478" lon="0.83824">
        <ele>132</ele>
        <time>2018-03-03T16:57:02.511Z</time>
      </trkpt>
      <trkpt lat="44.5848" lon="0.83822">
        <ele>132</ele>
        <time>2018-03-03T16:57:03.511Z</time>
      </trkpt>
      <trkpt lat="44.58483" lon="0.8382">
        <ele>132</ele>
        <time>2018-03-03T16:57:04.511Z</time>
      </trkpt>
      <trkpt lat="44.58485" lon="0.83818">
        <ele>132</ele>
        <time>2018-03-03T16:57:05.511Z</time>
      </trkpt>
      <trkpt lat="44.58488" lon="0.83816">
        <ele>132</ele>
        <time>2018-03-03T16:57:06.511Z</time>
      </trkpt>
      <trkpt lat="44.58491" lon="0.83813">
        <ele>132</ele>
        <time>2018-03-03T16:57:07.511Z</time>
      </trkpt>
      <trkpt lat="44.58494" lon="0.83811">
        <ele>131</ele>
        <time>2018-03-03T16:57:08.511Z</time>
      </trkpt>
      <trkpt lat="44.58497" lon="0.83808">
        <ele>131</ele>
        <time>2018-03-03T16:57:09.511Z</time>
      </trkpt>
      <trkpt lat="44.58501" lon="0.83805">
        <ele>131</ele>
        <time>2018-03-03T16:57:10.511Z</time>
      </trkpt>
      <trkpt lat="44.58505" lon="0.83802">
        <ele>131</ele>
        <time>2018-03-03T16:57:11.511Z</time>
      </trkpt>
      <trkpt lat="44.58509" lon="0.83799">
        <ele>131</ele>
        <time>2018-03-03T16:57:12.511Z</time>
      </trkpt>
      <trkpt lat="44.58513" lon="0.83795">
        <ele>131</ele>
        <time>2018-03-03T16:57:13.511Z</time>
      </trkpt>
      <trkpt lat="44.58517" lon="0.83792">
        <ele>131</ele>
        <time>2018-03-03T16:57:14.511Z</time>
      </trkpt>
      <trkpt lat="44.58522" lon="0.83788">
        <ele>130</ele>
        <time>2018-03-03T16:57:15.511Z</time>
      </trkpt>
      <trkpt lat="44.58526" lon="0.83785">
        <ele>130</ele>
        <time>2018-03-03T16:57:16.511Z</time>
      </trkpt>
      <trkpt lat="44.58531" lon="0.83781">
        <ele>130</ele>
        <time>2018-03-03T16:57:17.511Z</time>
      </trkpt>
      <trkpt lat="44.58536" lon="0.83777">
        <ele>130</ele>
        <time>2018-03-03T16:57:18.511Z</time>
      </trkpt>
      <trkpt lat="44.58542" lon="0.83774">
        <ele>129</ele>
        <time>2018-03-03T16:57:19.511Z</time>
      </trkpt>
      <trkpt lat="44.58547" lon="0.8377">
        <ele>129</ele>
        <time>2018-03-03T16:57:20.511Z</time>
      </trkpt>
      <trkpt lat="44.58553" lon="0.83767">
        <ele>129</ele>
        <time>2018-03-03T16:57:21.511Z</time>
      </trkpt>
      <trkpt lat="44.58559" lon="0.83763">
        <ele>128</ele>
        <time>2018-03-03T16:57:22.511Z</time>
      </trkpt>
      <trkpt lat="44.58565" lon="0.8376">
        <ele>128</ele>
        <time>2018-03-03T16:57:23.511Z</time>
      </trkpt>
      <trkpt lat="44.58571" lon="0.83757">
        <ele>128</ele>
        <time>2018-03-03T16:57:24.511Z</time>
      </trkpt>
      <trkpt lat="44.58578" lon="0.83755">
        <ele>127</ele>
        <time>2018-03-03T16:57:25.511Z</time>
      </trkpt>
      <trkpt lat="44.58584" lon="0.83752">
        <ele>127</ele>
        <time>2018-03-03T16:57:26.511Z</time>
      </trkpt>
      <trkpt lat="44.58589" lon="0.8375">
        <ele>127</ele>
        <time>2018-03-03T16:57:27.511Z</time>
      </trkpt>
      <trkpt lat="44.58595" lon="0.83747">
        <ele>126</ele>
        <time>2018-03-03T16:57:28.511Z</time>
      </trkpt>
      <trkpt lat="44.58599" lon="0.83744">
        <ele>126</ele>
        <time>2018-03-03T16:57:29.511Z</time>
      </trkpt>
      <trkpt lat="44.58604" lon="0.83742">
        <ele>126</ele>
        <time>2018-03-03T16:57:30.511Z</time>
      </trkpt>
      <trkpt lat="44.58607" lon="0.8374">
        <ele>126</ele>
        <time>2018-03-03T16:57:31.511Z</time>
      </trkpt>
      <trkpt lat="44.58611" lon="0.83739">
        <ele>126</ele>
        <time>2018-03-03T16:57:32.511Z</time>
      </trkpt>
      <trkpt lat="44.58614" lon="0.83738">
        <ele>126</ele>
        <time>2018-03-03T16:57:33.511Z</time>
      </trkpt>
      <trkpt lat="44.58616" lon="0.83739">
        <ele>126</ele>
        <time>2018-03-03T16:57:34.511Z</time>
      </trkpt>
      <trkpt lat="44.58618" lon="0.8374">
        <ele>126</ele>
        <time>2018-03-03T16:57:35.511Z</time>
      </trkpt>
      <trkpt lat="44.5862" lon="0.83742">
        <ele>126</ele>
        <time>2018-03-03T16:57:36.511Z</time>
      </trkpt>
      <trkpt lat="44.58621" lon="0.83744">
        <ele>126</ele>
        <time>2018-03-03T16:57:37.511Z</time>
      </trkpt>
      <trkpt lat="44.58623" lon="0.83747">
        <ele>126</ele>
        <time>2018-03-03T16:57:38.511Z</time>
      </trkpt>
      <trkpt lat="44.58624" lon="0.8375">
        <ele>127</ele>
        <time>2018-03-03T16:57:39.511Z</time>
      </trkpt>
      <trkpt lat="44.58626" lon="0.83752">
        <ele>127</ele>
        <time>2018-03-03T16:57:40.511Z</time>
      </trkpt>
      <trkpt lat="44.58627" lon="0.83755">
        <ele>127</ele>
        <time>2018-03-03T16:57:41.511Z</time>
      </trkpt>
      <trkpt lat="44.58629" lon="0.83757">
        <ele>127</ele>
        <time>2018-03-03T16:57:42.511Z</time>
      </trkpt>
      <trkpt lat="44.5863" lon="0.83759">
        <ele>128</ele>
        <time>2018-03-03T16:57:43.511Z</time>
      </trkpt>
      <trkpt lat="44.58631" lon="0.83762">
        <ele>128</ele>
        <time>2018-03-03T16:57:44.511Z</time>
      </trkpt>
      <trkpt lat="44.58632" lon="0.83765">
        <ele>128</ele>
        <time>2018-03-03T16:57:45.511Z</time>
      </trkpt>
      <trkpt lat="44.58633" lon="0.83767">
        <ele>129</ele>
        <time>2018-03-03T16:57:46.511Z</time>
      </trkpt>
      <trkpt lat="44.58634" lon="0.8377">
        <ele>129</ele>
        <time>2018-03-03T16:57:47.511Z</time>
      </trkpt>
      <trkpt lat="44.58635" lon="0.83772">
        <ele>129</ele>
        <time>2018-03-03T16:57:48.511Z</time>
      </trkpt>
      <trkpt lat="44.58637" lon="0.83775">
        <ele>130</ele>
        <time>2018-03-03T16:57:49.511Z</time>
      </trkpt>
      <trkpt lat="44.58638" lon="0.83777">
        <ele>130</ele>
        <time>2018-03-03T16:57:50.511Z</time>
      </trkpt>
      <trkpt lat="44.58639" lon="0.83779">
        <ele>130</ele>
        <time>2018-03-03T16:57:51.511Z</time>
      </trkpt>
      <trkpt lat="44.58641" lon="0.83781">
        <ele>131</ele>
        <time>2018-03-03T16:57:52.511Z</time>
      </trkpt>
      <trkpt lat="44.58642" lon="0.83783">
        <ele>131</ele>
        <time>2018-03-03T16:57:53.511Z</time>
      </trkpt>
      <trkpt lat="44.58644" lon="0.83784">
        <ele>132</ele>
        <time>2018-03-03T16:57:54.511Z</time>
      </trkpt>
      <trkpt lat="44.58645" lon="0.83786">
        <ele>132</ele>
        <time>2018-03-03T16:57:55.511Z</time>
      </trkpt>
      <trkpt lat="44.58647" lon="0.83788">
        <ele>132</ele>
        <time>2018-03-03T16:57:56.511Z</time>
      </trkpt>
      <trkpt lat="44.58648" lon="0.83789">
        <ele>133</ele>
        <time>2018-03-03T16:57:57.511Z</time>
      </trkpt>
      <trkpt lat="44.5865" lon="0.83791">
        <ele>133</ele>
        <time>2018-03-03T16:57:58.511Z</time>
      </trkpt>
      <trkpt lat="44.58651" lon="0.83792">
        <ele>133</ele>
        <time>2018-03-03T16:57:59.511Z</time>
      </trkpt>
      <trkpt lat="44.58653" lon="0.83793">
        <ele>134</ele>
        <time>2018-03-03T16:58:00.511Z</time>
      </trkpt>
      <trkpt lat="44.58655" lon="0.83795">
        <ele>134</ele>
        <time>2018-03-03T16:58:01.511Z</time>
      </trkpt>
      <trkpt lat="44.58656" lon="0.83796">
        <ele>135</ele>
        <time>2018-03-03T16:58:02.511Z</time>
      </trkpt>
      <trkpt lat="44.58658" lon="0.83797">
        <ele>135</ele>
        <time>2018-03-03T16:58:03.511Z</time>
      </trkpt>
      <trkpt lat="44.58659" lon="0.83798">
        <ele>135</ele>
        <time>2018-03-03T16:58:04.511Z</time>
      </trkpt>
      <trkpt lat="44.58661" lon="0.838">
        <ele>136</ele>
        <time>2018-03-03T16:58:05.511Z</time>
      </trkpt>
      <trkpt lat="44.58662" lon="0.83801">
        <ele>136</ele>
        <time>2018-03-03T16:58:06.511Z</time>
      </trkpt>
      <trkpt lat="44.58664" lon="0.83802">
        <ele>136</ele>
        <time>2018-03-03T16:58:07.511Z</time>
      </trkpt>
      <trkpt lat="44.58665" lon="0.83804">
        <ele>136</ele>
        <time>2018-03-03T16:58:08.511Z</time>
      </trkpt>
      <trkpt lat="44.58667" lon="0.83805">
        <ele>137</ele>
        <time>2018-03-03T16:58:09.511Z</time>
      </trkpt>
      <trkpt lat="44.58668" lon="0.83807">
        <ele>137</ele>
        <time>2018-03-03T16:58:10.511Z</time>
      </trkpt>
      <trkpt lat="44.5867" lon="0.83808">
        <ele>137</ele>
        <time>2018-03-03T16:58:11.511Z</time>
      </trkpt>
      <trkpt lat="44.58671" lon="0.83809">
        <ele>138</ele>
        <time>2018-03-03T16:58:12.511Z</time>
      </trkpt>
      <trkpt lat="44.58673" lon="0.83811">
        <ele>138</ele>
        <time>2018-03-03T16:58:13.511Z</time>
      </trkpt>
      <trkpt lat="44.58674" lon="0.83812">
        <ele>138</ele>
        <time>2018-03-03T16:58:14.511Z</time>
      </trkpt>
      <trkpt lat="44.58676" lon="0.83814">
        <ele>138</ele>
        <time>2018-03-03T16:58:15.511Z</time>
      </trkpt>
      <trkpt lat="44.58677" lon="0.83815">
        <ele>139</ele>
        <time>2018-03-03T16:58:16.511Z</time>
      </trkpt>
      <trkpt lat="44.58679" lon="0.83816">
        <ele>139</ele>
        <time>2018-03-03T16:58:17.511Z</time>
      </trkpt>
      <trkpt lat="44.5868" lon="0.83818">
        <ele>139</ele>
        <time>2018-03-03T16:58:18.511Z</time>
      </trkpt>
      <trkpt lat="44.58682" lon="0.83819">
        <ele>140</ele>
        <time>2018-03-03T16:58:19.511Z</time>
      </trkpt>
      <trkpt lat="44.58684" lon="0.8382">
        <ele>140</ele>
        <time>2018-03-03T16:58:20.511Z</time>
      </trkpt>
      <trkpt lat="44.58685" lon="0.83821">
        <ele>140</ele>
        <time>2018-03-03T16:58:21.511Z</time>
      </trkpt>
      <trkpt lat="44.58687" lon="0.83823">
        <ele>141</ele>
        <time>2018-03-03T16:58:22.511Z</time>
      </trkpt>
      <trkpt lat="44.58688" lon="0.83824">
        <ele>141</ele>
        <time>2018-03-03T16:58:23.511Z</time>
      </trkpt>
      <trkpt lat="44.5869" lon="0.83825">
        <ele>141</ele>
        <time>2018-03-03T16:58:24.511Z</time>
      </trkpt>
      <trkpt lat="44.58691" lon="0.83827">
        <ele>142</ele>
        <time>2018-03-03T16:58:25.511Z</time>
      </trkpt>
      <trkpt lat="44.58693" lon="0.83828">
        <ele>142</ele>
        <time>2018-03-03T16:58:26.511Z</time>
      </trkpt>
      <trkpt lat="44.58695" lon="0.8383">
        <ele>142</ele>
        <time>2018-03-03T16:58:27.511Z</time>
      </trkpt>
      <trkpt lat="44.58696" lon="0.83831">
        <ele>142</ele>
        <time>2018-03-03T16:58:28.511Z</time>
      </trkpt>
      <trkpt lat="44.58698" lon="0.83832">
        <ele>142</ele>
        <time>2018-03-03T16:58:29.511Z</time>
      </trkpt>
      <trkpt lat="44.58699" lon="0.83833">
        <ele>143</ele>
        <time>2018-03-03T16:58:30.511Z</time>
      </trkpt>
      <trkpt lat="44.58701" lon="0.83834">
        <ele>143</ele>
        <time>2018-03-03T16:58:31.511Z</time>
      </trkpt>
      <trkpt lat="44.58702" lon="0.83835">
        <ele>143</ele>
        <time>2018-03-03T16:58:32.511Z</time>
      </trkpt>
      <trkpt lat="44.58704" lon="0.83836">
        <ele>143</ele>
        <time>2018-03-03T16:58:33.511Z</time>
      </trkpt>
      <trkpt lat="44.58706" lon="0.83836">
        <ele>143</ele>
        <time>2018-03-03T16:58:34.511Z</time>
      </trkpt>
      <trkpt lat="44.58708" lon="0.83837">
        <ele>143</ele>
        <time>2018-03-03T16:58:35.511Z</time>
      </trkpt>
      <trkpt lat="44.58709" lon="0.83837">
        <ele>143</ele>
        <time>2018-03-03T16:58:36.511Z</time>
      </trkpt>
      <trkpt lat="44.58711" lon="0.83838">
        <ele>144</ele>
        <time>2018-03-03T16:58:37.511Z</time>
      </trkpt>
      <trkpt lat="44.58713" lon="0.83838">
        <ele>144</ele>
        <time>2018-03-03T16:58:38.511Z</time>
      </trkpt>
      <trkpt lat="44.58715" lon="0.83839">
        <ele>144</ele>
        <time>2018-03-03T16:58:39.511Z</time>
      </trkpt>
      <trkpt lat="44.58717" lon="0.8384">
        <ele>144</ele>
        <time>2018-03-03T16:58:40.511Z</time>
      </trkpt>
      <trkpt lat="44.58718" lon="0.83842">
        <ele>144</ele>
        <time>2018-03-03T16:58:41.511Z</time>
      </trkpt>
      <trkpt lat="44.5872" lon="0.83843">
        <ele>144</ele>
        <time>2018-03-03T16:58:42.511Z</time>
      </trkpt>
      <trkpt lat="44.58722" lon="0.83844">
        <ele>144</ele>
        <time>2018-03-03T16:58:43.511Z</time>
      </trkpt>
      <trkpt lat="44.58724" lon="0.83844">
        <ele>145</ele>
        <time>2018-03-03T16:58:44.511Z</time>
      </trkpt>
      <trkpt lat="44.58726" lon="0.83845">
        <ele>145</ele>
        <time>2018-03-03T16:58:45.511Z</time>
      </trkpt>
      <trkpt lat="44.58728" lon="0.83845">
        <ele>145</ele>
        <time>2018-03-03T16:58:46.511Z</time>
      </trkpt>
      <trkpt lat="44.5873" lon="0.83845">
        <ele>145</ele>
        <time>2018-03-03T16:58:47.511Z</time>
      </trkpt>
      <trkpt lat="44.58731" lon="0.83845">
        <ele>145</ele>
        <time>2018-03-03T16:58:48.511Z</time>
      </trkpt>
      <trkpt lat="44.58733" lon="0.83845">
        <ele>145</ele>
        <time>2018-03-03T16:58:49.511Z</time>
      </trkpt>
      <trkpt lat="44.58735" lon="0.83845">
        <ele>145</ele>
        <time>2018-03-03T16:58:50.511Z</time>
      </trkpt>
      <trkpt lat="44.58736" lon="0.83846">
        <ele>145</ele>
        <time>2018-03-03T16:58:51.511Z</time>
      </trkpt>
      <trkpt lat="44.58738" lon="0.83846">
        <ele>145</ele>
        <time>2018-03-03T16:58:52.511Z</time>
      </trkpt>
      <trkpt lat="44.5874" lon="0.83847">
        <ele>145</ele>
        <time>2018-03-03T16:58:53.511Z</time>
      </trkpt>
      <trkpt lat="44.58741" lon="0.83848">
        <ele>146</ele>
        <time>2018-03-03T16:58:54.511Z</time>
      </trkpt>
      <trkpt lat="44.58743" lon="0.83849">
        <ele>146</ele>
        <time>2018-03-03T16:58:55.511Z</time>
      </trkpt>
      <trkpt lat="44.58744" lon="0.8385">
        <ele>146</ele>
        <time>2018-03-03T16:58:56.511Z</time>
      </trkpt>
      <trkpt lat="44.58746" lon="0.83852">
        <ele>146</ele>
        <time>2018-03-03T16:58:57.511Z</time>
      </trkpt>
      <trkpt lat="44.58747" lon="0.83854">
        <ele>146</ele>
        <time>2018-03-03T16:58:58.511Z</time>
      </trkpt>
      <trkpt lat="44.58749" lon="0.83855">
        <ele>146</ele>
        <time>2018-03-03T16:58:59.511Z</time>
      </trkpt>
      <trkpt lat="44.5875" lon="0.83857">
        <ele>146</ele>
        <time>2018-03-03T16:59:00.511Z</time>
      </trkpt>
      <trkpt lat="44.58751" lon="0.83859">
        <ele>146</ele>
        <time>2018-03-03T16:59:01.511Z</time>
      </trkpt>
      <trkpt lat="44.58753" lon="0.83862">
        <ele>146</ele>
        <time>2018-03-03T16:59:02.511Z</time>
      </trkpt>
      <trkpt lat="44.58754" lon="0.83864">
        <ele>146</ele>
        <time>2018-03-03T16:59:03.511Z</time>
      </trkpt>
      <trkpt lat="44.58755" lon="0.83866">
        <ele>147</ele>
        <time>2018-03-03T16:59:04.511Z</time>
      </trkpt>
      <trkpt lat="44.58757" lon="0.83868">
        <ele>147</ele>
        <time>2018-03-03T16:59:05.511Z</time>
      </trkpt>
      <trkpt lat="44.58758" lon="0.83871">
        <ele>147</ele>
        <time>2018-03-03T16:59:06.511Z</time>
      </trkpt>
      <trkpt lat="44.58759" lon="0.83873">
        <ele>147</ele>
        <time>2018-03-03T16:59:07.511Z</time>
      </trkpt>
      <trkpt lat="44.58761" lon="0.83875">
        <ele>147</ele>
        <time>2018-03-03T16:59:08.511Z</time>
      </trkpt>
      <trkpt lat="44.58762" lon="0.83877">
        <ele>147</ele>
        <time>2018-03-03T16:59:09.511Z</time>
      </trkpt>
      <trkpt lat="44.58763" lon="0.83879">
        <ele>147</ele>
        <time>2018-03-03T16:59:10.511Z</time>
      </trkpt>
      <trkpt lat="44.58764" lon="0.83881">
        <ele>147</ele>
        <time>2018-03-03T16:59:11.511Z</time>
      </trkpt>
      <trkpt lat="44.58766" lon="0.83883">
        <ele>147</ele>
        <time>2018-03-03T16:59:12.511Z</time>
      </trkpt>
      <trkpt lat="44.58767" lon="0.83885">
        <ele>148</ele>
        <time>2018-03-03T16:59:13.511Z</time>
      </trkpt>
      <trkpt lat="44.58768" lon="0.83887">
        <ele>148</ele>
        <time>2018-03-03T16:59:14.511Z</time>
      </trkpt>
      <trkpt lat="44.58769" lon="0.83889">
        <ele>148</ele>
        <time>2018-03-03T16:59:15.511Z</time>
      </trkpt>
      <trkpt lat="44.58771" lon="0.8389">
        <ele>148</ele>
        <time>2018-03-03T16:59:16.511Z</time>
      </trkpt>
      <trkpt lat="44.58772" lon="0.83892">
        <ele>148</ele>
        <time>2018-03-03T16:59:17.511Z</time>
      </trkpt>
      <trkpt lat="44.58773" lon="0.83893">
        <ele>148</ele>
        <time>2018-03-03T16:59:18.511Z</time>
      </trkpt>
      <trkpt lat="44.58775" lon="0.83895">
        <ele>149</ele>
        <time>2018-03-03T16:59:19.511Z</time>
      </trkpt>
      <trkpt lat="44.58777" lon="0.83896">
        <ele>149</ele>
        <time>2018-03-03T16:59:20.511Z</time>
      </trkpt>
      <trkpt lat="44.58778" lon="0.83898">
        <ele>149</ele>
        <time>2018-03-03T16:59:21.511Z</time>
      </trkpt>
      <trkpt lat="44.5878" lon="0.83899">
        <ele>149</ele>
        <time>2018-03-03T16:59:22.511Z</time>
      </trkpt>
      <trkpt lat="44.58782" lon="0.839">
        <ele>149</ele>
        <time>2018-03-03T16:59:23.511Z</time>
      </trkpt>
      <trkpt lat="44.58783" lon="0.83902">
        <ele>149</ele>
        <time>2018-03-03T16:59:24.511Z</time>
      </trkpt>
      <trkpt lat="44.58785" lon="0.83903">
        <ele>149</ele>
        <time>2018-03-03T16:59:25.511Z</time>
      </trkpt>
      <trkpt lat="44.58787" lon="0.83904">
        <ele>149</ele>
        <time>2018-03-03T16:59:26.511Z</time>
      </trkpt>
      <trkpt lat="44.58789" lon="0.83906">
        <ele>149</ele>
        <time>2018-03-03T16:59:27.511Z</time>
      </trkpt>
      <trkpt lat="44.58791" lon="0.83907">
        <ele>149</ele>
        <time>2018-03-03T16:59:28.511Z</time>
      </trkpt>
      <trkpt lat="44.58792" lon="0.83909">
        <ele>150</ele>
        <time>2018-03-03T16:59:29.511Z</time>
      </trkpt>
      <trkpt lat="44.58794" lon="0.8391">
        <ele>150</ele>
        <time>2018-03-03T16:59:30.511Z</time>
      </trkpt>
      <trkpt lat="44.58796" lon="0.83912">
        <ele>150</ele>
        <time>2018-03-03T16:59:31.511Z</time>
      </trkpt>
      <trkpt lat="44.58797" lon="0.83914">
        <ele>150</ele>
        <time>2018-03-03T16:59:32.511Z</time>
      </trkpt>
      <trkpt lat="44.58799" lon="0.83915">
        <ele>150</ele>
        <time>2018-03-03T16:59:33.511Z</time>
      </trkpt>
      <trkpt lat="44.588" lon="0.83917">
        <ele>151</ele>
        <time>2018-03-03T16:59:34.511Z</time>
      </trkpt>
      <trkpt lat="44.58802" lon="0.83919">
        <ele>151</ele>
        <time>2018-03-03T16:59:35.511Z</time>
      </trkpt>
      <trkpt lat="44.58803" lon="0.83921">
        <ele>151</ele>
        <time>2018-03-03T16:59:36.511Z</time>
      </trkpt>
      <trkpt lat="44.58805" lon="0.83923">
        <ele>151</ele>
        <time>2018-03-03T16:59:37.511Z</time>
      </trkpt>
      <trkpt lat="44.58806" lon="0.83925">
        <ele>152</ele>
        <time>2018-03-03T16:59:38.511Z</time>
      </trkpt>
      <trkpt lat="44.58808" lon="0.83927">
        <ele>152</ele>
        <time>2018-03-03T16:59:39.511Z</time>
      </trkpt>
      <trkpt lat="44.58809" lon="0.83929">
        <ele>152</ele>
        <time>2018-03-03T16:59:40.511Z</time>
      </trkpt>
      <trkpt lat="44.58811" lon="0.83931">
        <ele>152</ele>
        <time>2018-03-03T16:59:41.511Z</time>
      </trkpt>
      <trkpt lat="44.58812" lon="0.83933">
        <ele>152</ele>
        <time>2018-03-03T16:59:42.511Z</time>
      </trkpt>
      <trkpt lat="44.58813" lon="0.83936">
        <ele>152</ele>
        <time>2018-03-03T16:59:43.511Z</time>
      </trkpt>
      <trkpt lat="44.58814" lon="0.83938">
        <ele>152</ele>
        <time>2018-03-03T16:59:44.511Z</time>
      </trkpt>
      <trkpt lat="44.58815" lon="0.83939">
        <ele>153</ele>
        <time>2018-03-03T16:59:45.511Z</time>
      </trkpt>
      <trkpt lat="44.58816" lon="0.83941">
        <ele>153</ele>
        <time>2018-03-03T16:59:46.511Z</time>
      </trkpt>
      <trkpt lat="44.58817" lon="0.83943">
        <ele>153</ele>
        <time>2018-03-03T16:59:47.511Z</time>
      </trkpt>
      <trkpt lat="44.58817" lon="0.83945">
        <ele>153</ele>
        <time>2018-03-03T16:59:48.511Z</time>
      </trkpt>
      <trkpt lat="44.58818" lon="0.83947">
        <ele>153</ele>
        <time>2018-03-03T16:59:49.511Z</time>
      </trkpt>
      <trkpt lat="44.58819" lon="0.83949">
        <ele>153</ele>
        <time>2018-03-03T16:59:50.511Z</time>
      </trkpt>
      <trkpt lat="44.58821" lon="0.83951">
        <ele>153</ele>
        <time>2018-03-03T16:59:51.511Z</time>
      </trkpt>
      <trkpt lat="44.58822" lon="0.83954">
        <ele>153</ele>
        <time>2018-03-03T16:59:52.511Z</time>
      </trkpt>
      <trkpt lat="44.58824" lon="0.83956">
        <ele>153</ele>
        <time>2018-03-03T16:59:53.511Z</time>
      </trkpt>
      <trkpt lat="44.58825" lon="0.83959">
        <ele>153</ele>
        <time>2018-03-03T16:59:54.511Z</time>
      </trkpt>
      <trkpt lat="44.58827" lon="0.83961">
        <ele>153</ele>
        <time>2018-03-03T16:59:55.511Z</time>
      </trkpt>
      <trkpt lat="44.5883" lon="0.83965">
        <ele>153</ele>
        <time>2018-03-03T16:59:56.511Z</time>
      </trkpt>
      <trkpt lat="44.58832" lon="0.83968">
        <ele>153</ele>
        <time>2018-03-03T16:59:57.511Z</time>
      </trkpt>
      <trkpt lat="44.58834" lon="0.83973">
        <ele>153</ele>
        <time>2018-03-03T16:59:58.511Z</time>
      </trkpt>
      <trkpt lat="44.58836" lon="0.83978">
        <ele>152</ele>
        <time>2018-03-03T16:59:59.511Z</time>
      </trkpt>
      <trkpt lat="44.58839" lon="0.83983">
        <ele>152</ele>
        <time>2018-03-03T17:00:00.511Z</time>
      </trkpt>
      <trkpt lat="44.58841" lon="0.83989">
        <ele>152</ele>
        <time>2018-03-03T17:00:01.511Z</time>
      </trkpt>
      <trkpt lat="44.58843" lon="0.83996">
        <ele>152</ele>
        <time>2018-03-03T17:00:02.511Z</time>
      </trkpt>
      <trkpt lat="44.58845" lon="0.84002">
        <ele>151</ele>
        <time>2018-03-03T17:00:03.511Z</time>
      </trkpt>
      <trkpt lat="44.58847" lon="0.84007">
        <ele>151</ele>
        <time>2018-03-03T17:00:04.511Z</time>
      </trkpt>
      <trkpt lat="44.58849" lon="0.84013">
        <ele>151</ele>
        <time>2018-03-03T17:00:05.511Z</time>
      </trkpt>
      <trkpt lat="44.58851" lon="0.84018">
        <ele>151</ele>
        <time>2018-03-03T17:00:06.511Z</time>
      </trkpt>
      <trkpt lat="44.58854" lon="0.84023">
        <ele>151</ele>
        <time>2018-03-03T17:00:07.511Z</time>
      </trkpt>
      <trkpt lat="44.58856" lon="0.84028">
        <ele>151</ele>
        <time>2018-03-03T17:00:08.511Z</time>
      </trkpt>
      <trkpt lat="44.58859" lon="0.84033">
        <ele>151</ele>
        <time>2018-03-03T17:00:09.511Z</time>
      </trkpt>
      <trkpt lat="44.58861" lon="0.84037">
        <ele>151</ele>
        <time>2018-03-03T17:00:10.511Z</time>
      </trkpt>
      <trkpt lat="44.58864" lon="0.84041">
        <ele>151</ele>
        <time>2018-03-03T17:00:11.511Z</time>
      </trkpt>
      <trkpt lat="44.58866" lon="0.84044">
        <ele>151</ele>
        <time>2018-03-03T17:00:12.511Z</time>
      </trkpt>
      <trkpt lat="44.58868" lon="0.84047">
        <ele>151</ele>
        <time>2018-03-03T17:00:13.511Z</time>
      </trkpt>
      <trkpt lat="44.5887" lon="0.84049">
        <ele>151</ele>
        <time>2018-03-03T17:00:14.511Z</time>
      </trkpt>
      <trkpt lat="44.58871" lon="0.8405">
        <ele>151</ele>
        <time>2018-03-03T17:00:15.511Z</time>
      </trkpt>
      <trkpt lat="44.58873" lon="0.84052">
        <ele>151</ele>
        <time>2018-03-03T17:00:16.511Z</time>
      </trkpt>
      <trkpt lat="44.58875" lon="0.84053">
        <ele>151</ele>
        <time>2018-03-03T17:00:17.511Z</time>
      </trkpt>
      <trkpt lat="44.58877" lon="0.84055">
        <ele>151</ele>
        <time>2018-03-03T17:00:18.511Z</time>
      </trkpt>
      <trkpt lat="44.58879" lon="0.84056">
        <ele>151</ele>
        <time>2018-03-03T17:00:19.511Z</time>
      </trkpt>
      <trkpt lat="44.58882" lon="0.84059">
        <ele>151</ele>
        <time>2018-03-03T17:00:20.511Z</time>
      </trkpt>
      <trkpt lat="44.58885" lon="0.84062">
        <ele>151</ele>
        <time>2018-03-03T17:00:21.511Z</time>
      </trkpt>
      <trkpt lat="44.58888" lon="0.84065">
        <ele>151</ele>
        <time>2018-03-03T17:00:22.511Z</time>
      </trkpt>
      <trkpt lat="44.58891" lon="0.84068">
        <ele>151</ele>
        <time>2018-03-03T17:00:23.511Z</time>
      </trkpt>
      <trkpt lat="44.58894" lon="0.84071">
        <ele>151</ele>
        <time>2018-03-03T17:00:24.511Z</time>
      </trkpt>
      <trkpt lat="44.58897" lon="0.84074">
        <ele>151</ele>
        <time>2018-03-03T17:00:25.511Z</time>
      </trkpt>
      <trkpt lat="44.589" lon="0.84077">
        <ele>151</ele>
        <time>2018-03-03T17:00:26.511Z</time>
      </trkpt>
      <trkpt lat="44.58902" lon="0.8408">
        <ele>151</ele>
        <time>2018-03-03T17:00:27.511Z</time>
      </trkpt>
      <trkpt lat="44.58905" lon="0.84084">
        <ele>151</ele>
        <time>2018-03-03T17:00:28.511Z</time>
      </trkpt>
      <trkpt lat="44.58908" lon="0.84087">
        <ele>151</ele>
        <time>2018-03-03T17:00:29.511Z</time>
      </trkpt>
      <trkpt lat="44.5891" lon="0.84091">
        <ele>151</ele>
        <time>2018-03-03T17:00:30.511Z</time>
      </trkpt>
      <trkpt lat="44.58913" lon="0.84095">
        <ele>151</ele>
        <time>2018-03-03T17:00:31.511Z</time>
      </trkpt>
      <trkpt lat="44.58915" lon="0.84098">
        <ele>151</ele>
        <time>2018-03-03T17:00:32.511Z</time>
      </trkpt>
      <trkpt lat="44.58918" lon="0.84102">
        <ele>150</ele>
        <time>2018-03-03T17:00:33.511Z</time>
      </trkpt>
      <trkpt lat="44.5892" lon="0.84105">
        <ele>150</ele>
        <time>2018-03-03T17:00:34.511Z</time>
      </trkpt>
      <trkpt lat="44.58923" lon="0.84108">
        <ele>150</ele>
        <time>2018-03-03T17:00:35.511Z</time>
      </trkpt>
      <trkpt lat="44.58925" lon="0.84109">
        <ele>150</ele>
        <time>2018-03-03T17:00:36.511Z</time>
      </trkpt>
      <trkpt lat="44.58928" lon="0.8411">
        <ele>150</ele>
        <time>2018-03-03T17:00:37.511Z</time>
      </trkpt>
      <trkpt lat="44.58931" lon="0.8411">
        <ele>150</ele>
        <time>2018-03-03T17:00:38.511Z</time>
      </trkpt>
      <trkpt lat="44.58934" lon="0.8411">
        <ele>150</ele>
        <time>2018-03-03T17:00:39.511Z</time>
      </trkpt>
      <trkpt lat="44.58937" lon="0.84108">
        <ele>150</ele>
        <time>2018-03-03T17:00:40.511Z</time>
      </trkpt>
      <trkpt lat="44.5894" lon="0.84106">
        <ele>150</ele>
        <time>2018-03-03T17:00:41.511Z</time>
      </trkpt>
      <trkpt lat="44.58943" lon="0.84104">
        <ele>150</ele>
        <time>2018-03-03T17:00:42.511Z</time>
      </trkpt>
      <trkpt lat="44.58946" lon="0.84102">
        <ele>150</ele>
        <time>2018-03-03T17:00:43.511Z</time>
      </trkpt>
      <trkpt lat="44.58949" lon="0.841">
        <ele>150</ele>
        <time>2018-03-03T17:00:44.511Z</time>
      </trkpt>
      <trkpt lat="44.58952" lon="0.84098">
        <ele>150</ele>
        <time>2018-03-03T17:00:45.511Z</time>
      </trkpt>
      <trkpt lat="44.58955" lon="0.84096">
        <ele>150</ele>
        <time>2018-03-03T17:00:46.511Z</time>
      </trkpt>
      <trkpt lat="44.58957" lon="0.84094">
        <ele>150</ele>
        <time>2018-03-03T17:00:47.511Z</time>
      </trkpt>
      <trkpt lat="44.5896" lon="0.84093">
        <ele>150</ele>
        <time>2018-03-03T17:00:48.511Z</time>
      </trkpt>
      <trkpt lat="44.58962" lon="0.84092">
        <ele>150</ele>
        <time>2018-03-03T17:00:49.511Z</time>
      </trkpt>
      <trkpt lat="44.58964" lon="0.84091">
        <ele>150</ele>
        <time>2018-03-03T17:00:50.511Z</time>
      </trkpt>
      <trkpt lat="44.58966" lon="0.84089">
        <ele>150</ele>
        <time>2018-03-03T17:00:51.511Z</time>
      </trkpt>
      <trkpt lat="44.58969" lon="0.84088">
        <ele>150</ele>
        <time>2018-03-03T17:00:52.511Z</time>
      </trkpt>
      <trkpt lat="44.58971" lon="0.84086">
        <ele>150</ele>
        <time>2018-03-03T17:00:53.511Z</time>
      </trkpt>
      <trkpt lat="44.58974" lon="0.84084">
        <ele>150</ele>
        <time>2018-03-03T17:00:54.511Z</time>
      </trkpt>
      <trkpt lat="44.58976" lon="0.84082">
        <ele>151</ele>
        <time>2018-03-03T17:00:55.511Z</time>
      </trkpt>
      <trkpt lat="44.58979" lon="0.8408">
        <ele>151</ele>
        <time>2018-03-03T17:00:56.511Z</time>
      </trkpt>
      <trkpt lat="44.58981" lon="0.84079">
        <ele>151</ele>
        <time>2018-03-03T17:00:57.511Z</time>
      </trkpt>
      <trkpt lat="44.58984" lon="0.84077">
        <ele>151</ele>
        <time>2018-03-03T17:00:58.511Z</time>
      </trkpt>
      <trkpt lat="44.58987" lon="0.84076">
        <ele>151</ele>
        <time>2018-03-03T17:00:59.511Z</time>
      </trkpt>
      <trkpt lat="44.58989" lon="0.84074">
        <ele>151</ele>
        <time>2018-03-03T17:01:00.511Z</time>
      </trkpt>
      <trkpt lat="44.58992" lon="0.84073">
        <ele>151</ele>
        <time>2018-03-03T17:01:01.511Z</time>
      </trkpt>
      <trkpt lat="44.58995" lon="0.84071">
        <ele>151</ele>
        <time>2018-03-03T17:01:02.511Z</time>
      </trkpt>
      <trkpt lat="44.58997" lon="0.8407">
        <ele>151</ele>
        <time>2018-03-03T17:01:03.511Z</time>
      </trkpt>
      <trkpt lat="44.59" lon="0.84068">
        <ele>152</ele>
        <time>2018-03-03T17:01:04.511Z</time>
      </trkpt>
      <trkpt lat="44.59003" lon="0.84067">
        <ele>152</ele>
        <time>2018-03-03T17:01:05.511Z</time>
      </trkpt>
      <trkpt lat="44.59006" lon="0.84065">
        <ele>152</ele>
        <time>2018-03-03T17:01:06.511Z</time>
      </trkpt>
      <trkpt lat="44.59009" lon="0.84063">
        <ele>152</ele>
        <time>2018-03-03T17:01:07.511Z</time>
      </trkpt>
      <trkpt lat="44.59012" lon="0.84061">
        <ele>152</ele>
        <time>2018-03-03T17:01:08.511Z</time>
      </trkpt>
      <trkpt lat="44.59016" lon="0.84058">
        <ele>152</ele>
        <time>2018-03-03T17:01:09.511Z</time>
      </trkpt>
      <trkpt lat="44.59019" lon="0.84056">
        <ele>153</ele>
        <time>2018-03-03T17:01:10.511Z</time>
      </trkpt>
      <trkpt lat="44.59022" lon="0.84053">
        <ele>153</ele>
        <time>2018-03-03T17:01:11.511Z</time>
      </trkpt>
      <trkpt lat="44.59025" lon="0.8405">
        <ele>153</ele>
        <time>2018-03-03T17:01:12.511Z</time>
      </trkpt>
      <trkpt lat="44.59029" lon="0.84047">
        <ele>153</ele>
        <time>2018-03-03T17:01:13.511Z</time>
      </trkpt>
      <trkpt lat="44.59032" lon="0.84044">
        <ele>153</ele>
        <time>2018-03-03T17:01:14.511Z</time>
      </trkpt>
      <trkpt lat="44.59036" lon="0.84041">
        <ele>154</ele>
        <time>2018-03-03T17:01:15.511Z</time>
      </trkpt>
      <trkpt lat="44.5904" lon="0.84037">
        <ele>154</ele>
        <time>2018-03-03T17:01:16.511Z</time>
      </trkpt>
      <trkpt lat="44.59044" lon="0.84033">
        <ele>154</ele>
        <time>2018-03-03T17:01:17.511Z</time>
      </trkpt>
      <trkpt lat="44.59049" lon="0.8403">
        <ele>154</ele>
        <time>2018-03-03T17:01:18.511Z</time>
      </trkpt>
      <trkpt lat="44.59053" lon="0.84026">
        <ele>154</ele>
        <time>2018-03-03T17:01:19.511Z</time>
      </trkpt>
      <trkpt lat="44.59057" lon="0.84022">
        <ele>154</ele>
        <time>2018-03-03T17:01:20.511Z</time>
      </trkpt>
      <trkpt lat="44.59062" lon="0.84019">
        <ele>154</ele>
        <time>2018-03-03T17:01:21.511Z</time>
      </trkpt>
      <trkpt lat="44.59066" lon="0.84016">
        <ele>154</ele>
        <time>2018-03-03T17:01:22.511Z</time>
      </trkpt>
      <trkpt lat="44.59071" lon="0.84013">
        <ele>154</ele>
        <time>2018-03-03T17:01:23.511Z</time>
      </trkpt>
      <trkpt lat="44.59075" lon="0.8401">
        <ele>154</ele>
        <time>2018-03-03T17:01:24.511Z</time>
      </trkpt>
      <trkpt lat="44.5908" lon="0.84008">
        <ele>154</ele>
        <time>2018-03-03T17:01:25.511Z</time>
      </trkpt>
      <trkpt lat="44.59084" lon="0.84006">
        <ele>154</ele>
        <time>2018-03-03T17:01:26.511Z</time>
      </trkpt>
      <trkpt lat="44.59088" lon="0.84004">
        <ele>154</ele>
        <time>2018-03-03T17:01:27.511Z</time>
      </trkpt>
      <trkpt lat="44.59092" lon="0.84002">
        <ele>154</ele>
        <time>2018-03-03T17:01:28.511Z</time>
      </trkpt>
      <trkpt lat="44.59097" lon="0.83999">
        <ele>154</ele>
        <time>2018-03-03T17:01:29.511Z</time>
      </trkpt>
      <trkpt lat="44.59101" lon="0.83997">
        <ele>154</ele>
        <time>2018-03-03T17:01:30.511Z</time>
      </trkpt>
      <trkpt lat="44.59105" lon="0.83995">
        <ele>154</ele>
        <time>2018-03-03T17:01:31.511Z</time>
      </trkpt>
      <trkpt lat="44.59109" lon="0.83992">
        <ele>154</ele>
        <time>2018-03-03T17:01:32.511Z</time>
      </trkpt>
      <trkpt lat="44.59112" lon="0.83989">
        <ele>153</ele>
        <time>2018-03-03T17:01:33.511Z</time>
      </trkpt>
      <trkpt lat="44.59116" lon="0.83985">
        <ele>153</ele>
        <time>2018-03-03T17:01:34.511Z</time>
      </trkpt>
      <trkpt lat="44.5912" lon="0.83981">
        <ele>153</ele>
        <time>2018-03-03T17:01:35.511Z</time>
      </trkpt>
      <trkpt lat="44.59123" lon="0.83977">
        <ele>153</ele>
        <time>2018-03-03T17:01:36.511Z</time>
      </trkpt>
      <trkpt lat="44.59126" lon="0.83972">
        <ele>153</ele>
        <time>2018-03-03T17:01:37.511Z</time>
      </trkpt>
      <trkpt lat="44.5913" lon="0.83967">
        <ele>153</ele>
        <time>2018-03-03T17:01:38.511Z</time>
      </trkpt>
      <trkpt lat="44.59133" lon="0.83961">
        <ele>153</ele>
        <time>2018-03-03T17:01:39.511Z</time>
      </trkpt>
      <trkpt lat="44.59136" lon="0.83955">
        <ele>153</ele>
        <time>2018-03-03T17:01:40.511Z</time>
      </trkpt>
      <trkpt lat="44.5914" lon="0.83949">
        <ele>153</ele>
        <time>2018-03-03T17:01:41.511Z</time>
      </trkpt>
      <trkpt lat="44.59143" lon="0.83943">
        <ele>153</ele>
        <time>2018-03-03T17:01:42.511Z</time>
      </trkpt>
      <trkpt lat="44.59146" lon="0.83937">
        <ele>153</ele>
        <time>2018-03-03T17:01:43.511Z</time>
      </trkpt>
      <trkpt lat="44.5915" lon="0.8393">
        <ele>153</ele>
        <time>2018-03-03T17:01:44.511Z</time>
      </trkpt>
      <trkpt lat="44.59153" lon="0.83924">
        <ele>152</ele>
        <time>2018-03-03T17:01:45.511Z</time>
      </trkpt>
      <trkpt lat="44.59156" lon="0.83917">
        <ele>152</ele>
        <time>2018-03-03T17:01:46.511Z</time>
      </trkpt>
      <trkpt lat="44.5916" lon="0.8391">
        <ele>152</ele>
        <time>2018-03-03T17:01:47.511Z</time>
      </trkpt>
      <trkpt lat="44.59163" lon="0.83902">
        <ele>152</ele>
        <time>2018-03-03T17:01:48.511Z</time>
      </trkpt>
      <trkpt lat="44.59166" lon="0.83895">
        <ele>151</ele>
        <time>2018-03-03T17:01:49.511Z</time>
      </trkpt>
      <trkpt lat="44.59169" lon="0.83888">
        <ele>151</ele>
        <time>2018-03-03T17:01:50.511Z</time>
      </trkpt>
      <trkpt lat="44.59172" lon="0.8388">
        <ele>151</ele>
        <time>2018-03-03T17:01:51.511Z</time>
      </trkpt>
      <trkpt lat="44.59175" lon="0.83872">
        <ele>150</ele>
        <time>2018-03-03T17:01:52.511Z</time>
      </trkpt>
      <trkpt lat="44.59178" lon="0.83864">
        <ele>150</ele>
        <time>2018-03-03T17:01:53.511Z</time>
      </trkpt>
      <trkpt lat="44.59181" lon="0.83856">
        <ele>150</ele>
        <time>2018-03-03T17:01:54.511Z</time>
      </trkpt>
      <trkpt lat="44.59183" lon="0.83847">
        <ele>150</ele>
        <time>2018-03-03T17:01:55.511Z</time>
      </trkpt>
      <trkpt lat="44.59186" lon="0.83839">
        <ele>150</ele>
        <time>2018-03-03T17:01:56.511Z</time>
      </trkpt>
      <trkpt lat="44.59188" lon="0.8383">
        <ele>149</ele>
        <time>2018-03-03T17:01:57.511Z</time>
      </trkpt>
      <trkpt lat="44.5919" lon="0.83821">
        <ele>149</ele>
        <time>2018-03-03T17:01:58.511Z</time>
      </trkpt>
      <trkpt lat="44.59192" lon="0.83812">
        <ele>149</ele>
        <time>2018-03-03T17:01:59.511Z</time>
      </trkpt>
      <trkpt lat="44.59194" lon="0.83803">
        <ele>149</ele>
        <time>2018-03-03T17:02:00.511Z</time>
      </trkpt>
      <trkpt lat="44.59195" lon="0.83793">
        <ele>149</ele>
        <time>2018-03-03T17:02:01.511Z</time>
      </trkpt>
      <trkpt lat="44.59196" lon="0.83783">
        <ele>149</ele>
        <time>2018-03-03T17:02:02.511Z</time>
      </trkpt>
      <trkpt lat="44.59197" lon="0.83774">
        <ele>148</ele>
        <time>2018-03-03T17:02:03.511Z</time>
      </trkpt>
      <trkpt lat="44.59198" lon="0.83764">
        <ele>148</ele>
        <time>2018-03-03T17:02:04.511Z</time>
      </trkpt>
      <trkpt lat="44.59198" lon="0.83754">
        <ele>148</ele>
        <time>2018-03-03T17:02:05.511Z</time>
      </trkpt>
      <trkpt lat="44.59197" lon="0.83744">
        <ele>148</ele>
        <time>2018-03-03T17:02:06.511Z</time>
      </trkpt>
      <trkpt lat="44.59197" lon="0.83734">
        <ele>148</ele>
        <time>2018-03-03T17:02:07.511Z</time>
      </trkpt>
      <trkpt lat="44.59197" lon="0.83724">
        <ele>148</ele>
        <time>2018-03-03T17:02:08.511Z</time>
      </trkpt>
      <trkpt lat="44.59196" lon="0.83715">
        <ele>148</ele>
        <time>2018-03-03T17:02:09.511Z</time>
      </trkpt>
      <trkpt lat="44.59197" lon="0.83705">
        <ele>147</ele>
        <time>2018-03-03T17:02:10.511Z</time>
      </trkpt>
      <trkpt lat="44.59198" lon="0.83696">
        <ele>148</ele>
        <time>2018-03-03T17:02:11.511Z</time>
      </trkpt>
      <trkpt lat="44.59201" lon="0.83687">
        <ele>148</ele>
        <time>2018-03-03T17:02:12.511Z</time>
      </trkpt>
      <trkpt lat="44.59203" lon="0.83679">
        <ele>147</ele>
        <time>2018-03-03T17:02:13.511Z</time>
      </trkpt>
      <trkpt lat="44.59207" lon="0.83671">
        <ele>147</ele>
        <time>2018-03-03T17:02:14.511Z</time>
      </trkpt>
      <trkpt lat="44.5921" lon="0.83662">
        <ele>147</ele>
        <time>2018-03-03T17:02:15.511Z</time>
      </trkpt>
      <trkpt lat="44.59214" lon="0.83655">
        <ele>147</ele>
        <time>2018-03-03T17:02:16.511Z</time>
      </trkpt>
      <trkpt lat="44.59218" lon="0.83647">
        <ele>147</ele>
        <time>2018-03-03T17:02:17.511Z</time>
      </trkpt>
      <trkpt lat="44.59222" lon="0.83639">
        <ele>147</ele>
        <time>2018-03-03T17:02:18.511Z</time>
      </trkpt>
      <trkpt lat="44.59226" lon="0.83632">
        <ele>146</ele>
        <time>2018-03-03T17:02:19.511Z</time>
      </trkpt>
      <trkpt lat="44.5923" lon="0.83625">
        <ele>146</ele>
        <time>2018-03-03T17:02:20.511Z</time>
      </trkpt>
      <trkpt lat="44.59233" lon="0.83618">
        <ele>146</ele>
        <time>2018-03-03T17:02:21.511Z</time>
      </trkpt>
      <trkpt lat="44.59237" lon="0.83611">
        <ele>146</ele>
        <time>2018-03-03T17:02:22.511Z</time>
      </trkpt>
      <trkpt lat="44.5924" lon="0.83606">
        <ele>146</ele>
        <time>2018-03-03T17:02:23.511Z</time>
      </trkpt>
      <trkpt lat="44.59243" lon="0.83603">
        <ele>145</ele>
        <time>2018-03-03T17:02:24.511Z</time>
      </trkpt>
      <trkpt lat="44.59245" lon="0.83603">
        <ele>145</ele>
        <time>2018-03-03T17:02:25.511Z</time>
      </trkpt>
      <trkpt lat="44.59247" lon="0.83606">
        <ele>145</ele>
        <time>2018-03-03T17:02:26.511Z</time>
      </trkpt>
      <trkpt lat="44.59248" lon="0.8361">
        <ele>145</ele>
        <time>2018-03-03T17:02:27.511Z</time>
      </trkpt>
      <trkpt lat="44.59248" lon="0.83613">
        <ele>145</ele>
        <time>2018-03-03T17:02:28.511Z</time>
      </trkpt>
      <trkpt lat="44.59248" lon="0.83616">
        <ele>145</ele>
        <time>2018-03-03T17:02:29.511Z</time>
      </trkpt>
      <trkpt lat="44.59247" lon="0.83619">
        <ele>145</ele>
        <time>2018-03-03T17:02:30.511Z</time>
      </trkpt>
      <trkpt lat="44.59246" lon="0.83622">
        <ele>145</ele>
        <time>2018-03-03T17:02:31.511Z</time>
      </trkpt>
      <trkpt lat="44.59245" lon="0.83626">
        <ele>145</ele>
        <time>2018-03-03T17:02:32.511Z</time>
      </trkpt>
      <trkpt lat="44.59244" lon="0.83629">
        <ele>145</ele>
        <time>2018-03-03T17:02:33.511Z</time>
      </trkpt>
      <trkpt lat="44.59242" lon="0.83633">
        <ele>145</ele>
        <time>2018-03-03T17:02:34.511Z</time>
      </trkpt>
      <trkpt lat="44.59239" lon="0.83638">
        <ele>146</ele>
        <time>2018-03-03T17:02:35.511Z</time>
      </trkpt>
      <trkpt lat="44.59237" lon="0.83643">
        <ele>146</ele>
        <time>2018-03-03T17:02:36.511Z</time>
      </trkpt>
      <trkpt lat="44.59235" lon="0.83648">
        <ele>146</ele>
        <time>2018-03-03T17:02:37.511Z</time>
      </trkpt>
      <trkpt lat="44.59234" lon="0.83653">
        <ele>146</ele>
        <time>2018-03-03T17:02:38.511Z</time>
      </trkpt>
      <trkpt lat="44.59234" lon="0.83658">
        <ele>145</ele>
        <time>2018-03-03T17:02:39.511Z</time>
      </trkpt>
      <trkpt lat="44.59236" lon="0.83663">
        <ele>145</ele>
        <time>2018-03-03T17:02:40.511Z</time>
      </trkpt>
      <trkpt lat="44.59238" lon="0.83669">
        <ele>145</ele>
        <time>2018-03-03T17:02:41.511Z</time>
      </trkpt>
      <trkpt lat="44.59242" lon="0.83675">
        <ele>145</ele>
        <time>2018-03-03T17:02:42.511Z</time>
      </trkpt>
      <trkpt lat="44.59245" lon="0.83682">
        <ele>145</ele>
        <time>2018-03-03T17:02:43.511Z</time>
      </trkpt>
      <trkpt lat="44.59248" lon="0.8369">
        <ele>145</ele>
        <time>2018-03-03T17:02:44.511Z</time>
      </trkpt>
      <trkpt lat="44.59249" lon="0.83699">
        <ele>145</ele>
        <time>2018-03-03T17:02:45.511Z</time>
      </trkpt>
      <trkpt lat="44.59251" lon="0.83707">
        <ele>145</ele>
        <time>2018-03-03T17:02:46.511Z</time>
      </trkpt>
      <trkpt lat="44.59254" lon="0.83715">
        <ele>145</ele>
        <time>2018-03-03T17:02:47.511Z</time>
      </trkpt>
      <trkpt lat="44.59258" lon="0.83723">
        <ele>145</ele>
        <time>2018-03-03T17:02:48.511Z</time>
      </trkpt>
      <trkpt lat="44.59261" lon="0.83731">
        <ele>145</ele>
        <time>2018-03-03T17:02:49.511Z</time>
      </trkpt>
      <trkpt lat="44.59265" lon="0.83738">
        <ele>145</ele>
        <time>2018-03-03T17:02:50.511Z</time>
      </trkpt>
      <trkpt lat="44.59269" lon="0.83745">
        <ele>145</ele>
        <time>2018-03-03T17:02:51.511Z</time>
      </trkpt>
      <trkpt lat="44.59273" lon="0.83751">
        <ele>145</ele>
        <time>2018-03-03T17:02:52.511Z</time>
      </trkpt>
      <trkpt lat="44.59277" lon="0.83757">
        <ele>145</ele>
        <time>2018-03-03T17:02:53.511Z</time>
      </trkpt>
      <trkpt lat="44.59281" lon="0.83762">
        <ele>145</ele>
        <time>2018-03-03T17:02:54.511Z</time>
      </trkpt>
      <trkpt lat="44.59286" lon="0.83766">
        <ele>145</ele>
        <time>2018-03-03T17:02:55.511Z</time>
      </trkpt>
      <trkpt lat="44.5929" lon="0.8377">
        <ele>145</ele>
        <time>2018-03-03T17:02:56.511Z</time>
      </trkpt>
      <trkpt lat="44.59294" lon="0.83775">
        <ele>145</ele>
        <time>2018-03-03T17:02:57.511Z</time>
      </trkpt>
      <trkpt lat="44.59297" lon="0.83779">
        <ele>145</ele>
        <time>2018-03-03T17:02:58.511Z</time>
      </trkpt>
      <trkpt lat="44.59299" lon="0.83783">
        <ele>145</ele>
        <time>2018-03-03T17:02:59.511Z</time>
      </trkpt>
      <trkpt lat="44.59301" lon="0.83786">
        <ele>145</ele>
        <time>2018-03-03T17:03:00.511Z</time>
      </trkpt>
      <trkpt lat="44.59304" lon="0.83789">
        <ele>145</ele>
        <time>2018-03-03T17:03:01.511Z</time>
      </trkpt>
      <trkpt lat="44.59308" lon="0.8379">
        <ele>145</ele>
        <time>2018-03-03T17:03:02.511Z</time>
      </trkpt>
      <trkpt lat="44.59312" lon="0.8379">
        <ele>144</ele>
        <time>2018-03-03T17:03:03.511Z</time>
      </trkpt>
      <trkpt lat="44.59318" lon="0.83789">
        <ele>144</ele>
        <time>2018-03-03T17:03:04.511Z</time>
      </trkpt>
      <trkpt lat="44.59325" lon="0.83787">
        <ele>144</ele>
        <time>2018-03-03T17:03:05.511Z</time>
      </trkpt>
      <trkpt lat="44.59332" lon="0.83785">
        <ele>144</ele>
        <time>2018-03-03T17:03:06.511Z</time>
      </trkpt>
      <trkpt lat="44.59339" lon="0.83784">
        <ele>143</ele>
        <time>2018-03-03T17:03:07.511Z</time>
      </trkpt>
      <trkpt lat="44.59346" lon="0.83785">
        <ele>142</ele>
        <time>2018-03-03T17:03:08.511Z</time>
      </trkpt>
      <trkpt lat="44.59353" lon="0.83786">
        <ele>142</ele>
        <time>2018-03-03T17:03:09.511Z</time>
      </trkpt>
      <trkpt lat="44.5936" lon="0.83787">
        <ele>142</ele>
        <time>2018-03-03T17:03:10.511Z</time>
      </trkpt>
      <trkpt lat="44.59367" lon="0.83787">
        <ele>141</ele>
        <time>2018-03-03T17:03:11.511Z</time>
      </trkpt>
      <trkpt lat="44.59373" lon="0.83785">
        <ele>141</ele>
        <time>2018-03-03T17:03:12.511Z</time>
      </trkpt>
      <trkpt lat="44.59379" lon="0.83781">
        <ele>140</ele>
        <time>2018-03-03T17:03:13.511Z</time>
      </trkpt>
      <trkpt lat="44.59385" lon="0.83779">
        <ele>140</ele>
        <time>2018-03-03T17:03:14.511Z</time>
      </trkpt>
      <trkpt lat="44.59391" lon="0.8378">
        <ele>139</ele>
        <time>2018-03-03T17:03:15.511Z</time>
      </trkpt>
      <trkpt lat="44.59396" lon="0.83782">
        <ele>139</ele>
        <time>2018-03-03T17:03:16.511Z</time>
      </trkpt>
      <trkpt lat="44.59401" lon="0.83785">
        <ele>138</ele>
        <time>2018-03-03T17:03:17.511Z</time>
      </trkpt>
      <trkpt lat="44.59406" lon="0.83786">
        <ele>138</ele>
        <time>2018-03-03T17:03:18.511Z</time>
      </trkpt>
      <trkpt lat="44.59411" lon="0.83788">
        <ele>137</ele>
        <time>2018-03-03T17:03:19.511Z</time>
      </trkpt>
      <trkpt lat="44.59416" lon="0.83791">
        <ele>136</ele>
        <time>2018-03-03T17:03:20.511Z</time>
      </trkpt>
      <trkpt lat="44.5942" lon="0.83795">
        <ele>136</ele>
        <time>2018-03-03T17:03:21.511Z</time>
      </trkpt>
      <trkpt lat="44.59424" lon="0.83801">
        <ele>136</ele>
        <time>2018-03-03T17:03:22.511Z</time>
      </trkpt>
      <trkpt lat="44.59428" lon="0.83807">
        <ele>135</ele>
        <time>2018-03-03T17:03:23.511Z</time>
      </trkpt>
      <trkpt lat="44.59431" lon="0.83815">
        <ele>134</ele>
        <time>2018-03-03T17:03:24.511Z</time>
      </trkpt>
      <trkpt lat="44.59434" lon="0.83824">
        <ele>133</ele>
        <time>2018-03-03T17:03:25.511Z</time>
      </trkpt>
      <trkpt lat="44.59437" lon="0.83833">
        <ele>132</ele>
        <time>2018-03-03T17:03:26.511Z</time>
      </trkpt>
      <trkpt lat="44.5944" lon="0.83842">
        <ele>131</ele>
        <time>2018-03-03T17:03:27.511Z</time>
      </trkpt>
      <trkpt lat="44.59442" lon="0.83852">
        <ele>130</ele>
        <time>2018-03-03T17:03:28.511Z</time>
      </trkpt>
      <trkpt lat="44.59444" lon="0.83862">
        <ele>129</ele>
        <time>2018-03-03T17:03:29.511Z</time>
      </trkpt>
      <trkpt lat="44.59447" lon="0.83871">
        <ele>128</ele>
        <time>2018-03-03T17:03:30.511Z</time>
      </trkpt>
      <trkpt lat="44.59451" lon="0.83881">
        <ele>127</ele>
        <time>2018-03-03T17:03:31.511Z</time>
      </trkpt>
      <trkpt lat="44.59456" lon="0.83891">
        <ele>126</ele>
        <time>2018-03-03T17:03:32.511Z</time>
      </trkpt>
      <trkpt lat="44.59461" lon="0.83901">
        <ele>126</ele>
        <time>2018-03-03T17:03:33.511Z</time>
      </trkpt>
      <trkpt lat="44.59467" lon="0.8391">
        <ele>125</ele>
        <time>2018-03-03T17:03:34.511Z</time>
      </trkpt>
      <trkpt lat="44.59473" lon="0.83918">
        <ele>125</ele>
        <time>2018-03-03T17:03:35.511Z</time>
      </trkpt>
      <trkpt lat="44.5948" lon="0.83925">
        <ele>124</ele>
        <time>2018-03-03T17:03:36.511Z</time>
      </trkpt>
      <trkpt lat="44.59486" lon="0.83931">
        <ele>124</ele>
        <time>2018-03-03T17:03:37.511Z</time>
      </trkpt>
      <trkpt lat="44.59492" lon="0.83937">
        <ele>124</ele>
        <time>2018-03-03T17:03:38.511Z</time>
      </trkpt>
      <trkpt lat="44.59498" lon="0.83943">
        <ele>125</ele>
        <time>2018-03-03T17:03:39.511Z</time>
      </trkpt>
      <trkpt lat="44.59502" lon="0.83948">
        <ele>125</ele>
        <time>2018-03-03T17:03:40.511Z</time>
      </trkpt>
      <trkpt lat="44.59506" lon="0.83953">
        <ele>125</ele>
        <time>2018-03-03T17:03:41.511Z</time>
      </trkpt>
      <trkpt lat="44.59509" lon="0.83958">
        <ele>126</ele>
        <time>2018-03-03T17:03:42.511Z</time>
      </trkpt>
      <trkpt lat="44.59511" lon="0.83963">
        <ele>126</ele>
        <time>2018-03-03T17:03:43.511Z</time>
      </trkpt>
      <trkpt lat="44.59513" lon="0.83968">
        <ele>127</ele>
        <time>2018-03-03T17:03:44.511Z</time>
      </trkpt>
      <trkpt lat="44.59515" lon="0.83972">
        <ele>127</ele>
        <time>2018-03-03T17:03:45.511Z</time>
      </trkpt>
      <trkpt lat="44.59516" lon="0.83976">
        <ele>128</ele>
        <time>2018-03-03T17:03:46.511Z</time>
      </trkpt>
      <trkpt lat="44.59518" lon="0.8398">
        <ele>129</ele>
        <time>2018-03-03T17:03:47.511Z</time>
      </trkpt>
      <trkpt lat="44.5952" lon="0.83983">
        <ele>129</ele>
        <time>2018-03-03T17:03:48.511Z</time>
      </trkpt>
      <trkpt lat="44.59521" lon="0.83987">
        <ele>130</ele>
        <time>2018-03-03T17:03:49.511Z</time>
      </trkpt>
      <trkpt lat="44.59522" lon="0.8399">
        <ele>130</ele>
        <time>2018-03-03T17:03:50.511Z</time>
      </trkpt>
      <trkpt lat="44.59524" lon="0.83993">
        <ele>131</ele>
        <time>2018-03-03T17:03:51.511Z</time>
      </trkpt>
      <trkpt lat="44.59525" lon="0.83995">
        <ele>131</ele>
        <time>2018-03-03T17:03:52.511Z</time>
      </trkpt>
      <trkpt lat="44.59528" lon="0.83998">
        <ele>131</ele>
        <time>2018-03-03T17:03:53.511Z</time>
      </trkpt>
      <trkpt lat="44.59532" lon="0.84">
        <ele>131</ele>
        <time>2018-03-03T17:03:54.511Z</time>
      </trkpt>
      <trkpt lat="44.59536" lon="0.84002">
        <ele>131</ele>
        <time>2018-03-03T17:03:55.511Z</time>
      </trkpt>
      <trkpt lat="44.5954" lon="0.84004">
        <ele>131</ele>
        <time>2018-03-03T17:03:56.511Z</time>
      </trkpt>
      <trkpt lat="44.59544" lon="0.84007">
        <ele>131</ele>
        <time>2018-03-03T17:03:57.511Z</time>
      </trkpt>
      <trkpt lat="44.59548" lon="0.84009">
        <ele>131</ele>
        <time>2018-03-03T17:03:58.511Z</time>
      </trkpt>
      <trkpt lat="44.59553" lon="0.84012">
        <ele>131</ele>
        <time>2018-03-03T17:03:59.511Z</time>
      </trkpt>
      <trkpt lat="44.59557" lon="0.84015">
        <ele>131</ele>
        <time>2018-03-03T17:04:00.511Z</time>
      </trkpt>
      <trkpt lat="44.59561" lon="0.84019">
        <ele>130</ele>
        <time>2018-03-03T17:04:01.511Z</time>
      </trkpt>
      <trkpt lat="44.59565" lon="0.84022">
        <ele>130</ele>
        <time>2018-03-03T17:04:02.511Z</time>
      </trkpt>
      <trkpt lat="44.59569" lon="0.84024">
        <ele>130</ele>
        <time>2018-03-03T17:04:03.511Z</time>
      </trkpt>
      <trkpt lat="44.59573" lon="0.84026">
        <ele>130</ele>
        <time>2018-03-03T17:04:04.511Z</time>
      </trkpt>
      <trkpt lat="44.59577" lon="0.84028">
        <ele>130</ele>
        <time>2018-03-03T17:04:05.511Z</time>
      </trkpt>
      <trkpt lat="44.5958" lon="0.84029">
        <ele>130</ele>
        <time>2018-03-03T17:04:06.511Z</time>
      </trkpt>
      <trkpt lat="44.59584" lon="0.8403">
        <ele>131</ele>
        <time>2018-03-03T17:04:07.511Z</time>
      </trkpt>
      <trkpt lat="44.59587" lon="0.8403">
        <ele>131</ele>
        <time>2018-03-03T17:04:08.511Z</time>
      </trkpt>
      <trkpt lat="44.5959" lon="0.8403">
        <ele>131</ele>
        <time>2018-03-03T17:04:09.511Z</time>
      </trkpt>
      <trkpt lat="44.59593" lon="0.8403">
        <ele>131</ele>
        <time>2018-03-03T17:04:10.511Z</time>
      </trkpt>
      <trkpt lat="44.59596" lon="0.84029">
        <ele>131</ele>
        <time>2018-03-03T17:04:11.511Z</time>
      </trkpt>
      <trkpt lat="44.59599" lon="0.84029">
        <ele>132</ele>
        <time>2018-03-03T17:04:12.511Z</time>
      </trkpt>
      <trkpt lat="44.59601" lon="0.84028">
        <ele>132</ele>
        <time>2018-03-03T17:04:13.511Z</time>
      </trkpt>
      <trkpt lat="44.59604" lon="0.84027">
        <ele>132</ele>
        <time>2018-03-03T17:04:14.511Z</time>
      </trkpt>
      <trkpt lat="44.59607" lon="0.84027">
        <ele>132</ele>
        <time>2018-03-03T17:04:15.511Z</time>
      </trkpt>
      <trkpt lat="44.5961" lon="0.84027">
        <ele>132</ele>
        <time>2018-03-03T17:04:16.511Z</time>
      </trkpt>
      <trkpt lat="44.59613" lon="0.84026">
        <ele>133</ele>
        <time>2018-03-03T17:04:17.511Z</time>
      </trkpt>
      <trkpt lat="44.59616" lon="0.84026">
        <ele>133</ele>
        <time>2018-03-03T17:04:18.511Z</time>
      </trkpt>
      <trkpt lat="44.59618" lon="0.84026">
        <ele>133</ele>
        <time>2018-03-03T17:04:19.511Z</time>
      </trkpt>
      <trkpt lat="44.59621" lon="0.84026">
        <ele>133</ele>
        <time>2018-03-03T17:04:20.511Z</time>
      </trkpt>
      <trkpt lat="44.59624" lon="0.84026">
        <ele>133</ele>
        <time>2018-03-03T17:04:21.511Z</time>
      </trkpt>
      <trkpt lat="44.59627" lon="0.84026">
        <ele>133</ele>
        <time>2018-03-03T17:04:22.511Z</time>
      </trkpt>
      <trkpt lat="44.59629" lon="0.84026">
        <ele>134</ele>
        <time>2018-03-03T17:04:23.511Z</time>
      </trkpt>
      <trkpt lat="44.59632" lon="0.84027">
        <ele>134</ele>
        <time>2018-03-03T17:04:24.511Z</time>
      </trkpt>
      <trkpt lat="44.59634" lon="0.84027">
        <ele>134</ele>
        <time>2018-03-03T17:04:25.511Z</time>
      </trkpt>
      <trkpt lat="44.59637" lon="0.84028">
        <ele>134</ele>
        <time>2018-03-03T17:04:26.511Z</time>
      </trkpt>
      <trkpt lat="44.59639" lon="0.84029">
        <ele>134</ele>
        <time>2018-03-03T17:04:27.511Z</time>
      </trkpt>
      <trkpt lat="44.59642" lon="0.8403">
        <ele>135</ele>
        <time>2018-03-03T17:04:28.511Z</time>
      </trkpt>
      <trkpt lat="44.59644" lon="0.84031">
        <ele>135</ele>
        <time>2018-03-03T17:04:29.511Z</time>
      </trkpt>
      <trkpt lat="44.59646" lon="0.84033">
        <ele>135</ele>
        <time>2018-03-03T17:04:30.511Z</time>
      </trkpt>
      <trkpt lat="44.59648" lon="0.84035">
        <ele>135</ele>
        <time>2018-03-03T17:04:31.511Z</time>
      </trkpt>
      <trkpt lat="44.5965" lon="0.84037">
        <ele>135</ele>
        <time>2018-03-03T17:04:32.511Z</time>
      </trkpt>
      <trkpt lat="44.59652" lon="0.84039">
        <ele>135</ele>
        <time>2018-03-03T17:04:33.511Z</time>
      </trkpt>
      <trkpt lat="44.59654" lon="0.84041">
        <ele>135</ele>
        <time>2018-03-03T17:04:34.511Z</time>
      </trkpt>
      <trkpt lat="44.59656" lon="0.84043">
        <ele>136</ele>
        <time>2018-03-03T17:04:35.511Z</time>
      </trkpt>
      <trkpt lat="44.59658" lon="0.84045">
        <ele>136</ele>
        <time>2018-03-03T17:04:36.511Z</time>
      </trkpt>
      <trkpt lat="44.5966" lon="0.84047">
        <ele>136</ele>
        <time>2018-03-03T17:04:37.511Z</time>
      </trkpt>
      <trkpt lat="44.59662" lon="0.8405">
        <ele>136</ele>
        <time>2018-03-03T17:04:38.511Z</time>
      </trkpt>
      <trkpt lat="44.59664" lon="0.84052">
        <ele>136</ele>
        <time>2018-03-03T17:04:39.511Z</time>
      </trkpt>
      <trkpt lat="44.59666" lon="0.84053">
        <ele>136</ele>
        <time>2018-03-03T17:04:40.511Z</time>
      </trkpt>
      <trkpt lat="44.59668" lon="0.84055">
        <ele>136</ele>
        <time>2018-03-03T17:04:41.511Z</time>
      </trkpt>
      <trkpt lat="44.59671" lon="0.84056">
        <ele>136</ele>
        <time>2018-03-03T17:04:42.511Z</time>
      </trkpt>
      <trkpt lat="44.59673" lon="0.84057">
        <ele>136</ele>
        <time>2018-03-03T17:04:43.511Z</time>
      </trkpt>
      <trkpt lat="44.59676" lon="0.84058">
        <ele>136</ele>
        <time>2018-03-03T17:04:44.511Z</time>
      </trkpt>
      <trkpt lat="44.59678" lon="0.8406">
        <ele>136</ele>
        <time>2018-03-03T17:04:45.511Z</time>
      </trkpt>
      <trkpt lat="44.59681" lon="0.84061">
        <ele>136</ele>
        <time>2018-03-03T17:04:46.511Z</time>
      </trkpt>
      <trkpt lat="44.59684" lon="0.84062">
        <ele>136</ele>
        <time>2018-03-03T17:04:47.511Z</time>
      </trkpt>
      <trkpt lat="44.59687" lon="0.84064">
        <ele>136</ele>
        <time>2018-03-03T17:04:48.511Z</time>
      </trkpt>
      <trkpt lat="44.59689" lon="0.84065">
        <ele>136</ele>
        <time>2018-03-03T17:04:49.511Z</time>
      </trkpt>
      <trkpt lat="44.59692" lon="0.84066">
        <ele>136</ele>
        <time>2018-03-03T17:04:50.511Z</time>
      </trkpt>
      <trkpt lat="44.59695" lon="0.84067">
        <ele>136</ele>
        <time>2018-03-03T17:04:51.511Z</time>
      </trkpt>
      <trkpt lat="44.59698" lon="0.84066">
        <ele>136</ele>
        <time>2018-03-03T17:04:52.511Z</time>
      </trkpt>
      <trkpt lat="44.59702" lon="0.84066">
        <ele>136</ele>
        <time>2018-03-03T17:04:53.511Z</time>
      </trkpt>
      <trkpt lat="44.59705" lon="0.84065">
        <ele>136</ele>
        <time>2018-03-03T17:04:54.511Z</time>
      </trkpt>
      <trkpt lat="44.59708" lon="0.84063">
        <ele>136</ele>
        <time>2018-03-03T17:04:55.511Z</time>
      </trkpt>
      <trkpt lat="44.59711" lon="0.84062">
        <ele>136</ele>
        <time>2018-03-03T17:04:56.511Z</time>
      </trkpt>
      <trkpt lat="44.59714" lon="0.8406">
        <ele>136</ele>
        <time>2018-03-03T17:04:57.511Z</time>
      </trkpt>
      <trkpt lat="44.59718" lon="0.84058">
        <ele>136</ele>
        <time>2018-03-03T17:04:58.511Z</time>
      </trkpt>
      <trkpt lat="44.59721" lon="0.84057">
        <ele>136</ele>
        <time>2018-03-03T17:04:59.511Z</time>
      </trkpt>
      <trkpt lat="44.59724" lon="0.84056">
        <ele>136</ele>
        <time>2018-03-03T17:05:00.511Z</time>
      </trkpt>
      <trkpt lat="44.59727" lon="0.84055">
        <ele>136</ele>
        <time>2018-03-03T17:05:01.511Z</time>
      </trkpt>
      <trkpt lat="44.59731" lon="0.84055">
        <ele>136</ele>
        <time>2018-03-03T17:05:02.511Z</time>
      </trkpt>
      <trkpt lat="44.59734" lon="0.84055">
        <ele>137</ele>
        <time>2018-03-03T17:05:03.511Z</time>
      </trkpt>
      <trkpt lat="44.59737" lon="0.84055">
        <ele>137</ele>
        <time>2018-03-03T17:05:04.511Z</time>
      </trkpt>
      <trkpt lat="44.5974" lon="0.84055">
        <ele>137</ele>
        <time>2018-03-03T17:05:05.511Z</time>
      </trkpt>
      <trkpt lat="44.59743" lon="0.84056">
        <ele>137</ele>
        <time>2018-03-03T17:05:06.511Z</time>
      </trkpt>
      <trkpt lat="44.59746" lon="0.84056">
        <ele>137</ele>
        <time>2018-03-03T17:05:07.511Z</time>
      </trkpt>
      <trkpt lat="44.5975" lon="0.84057">
        <ele>137</ele>
        <time>2018-03-03T17:05:08.511Z</time>
      </trkpt>
      <trkpt lat="44.59753" lon="0.84057">
        <ele>137</ele>
        <time>2018-03-03T17:05:09.511Z</time>
      </trkpt>
      <trkpt lat="44.59756" lon="0.84058">
        <ele>137</ele>
        <time>2018-03-03T17:05:10.511Z</time>
      </trkpt>
      <trkpt lat="44.59759" lon="0.84058">
        <ele>137</ele>
        <time>2018-03-03T17:05:11.511Z</time>
      </trkpt>
      <trkpt lat="44.59762" lon="0.84058">
        <ele>137</ele>
        <time>2018-03-03T17:05:12.511Z</time>
      </trkpt>
      <trkpt lat="44.59764" lon="0.84059">
        <ele>138</ele>
        <time>2018-03-03T17:05:13.511Z</time>
      </trkpt>
      <trkpt lat="44.59767" lon="0.84059">
        <ele>138</ele>
        <time>2018-03-03T17:05:14.511Z</time>
      </trkpt>
      <trkpt lat="44.59769" lon="0.8406">
        <ele>138</ele>
        <time>2018-03-03T17:05:15.511Z</time>
      </trkpt>
      <trkpt lat="44.5977" lon="0.84061">
        <ele>138</ele>
        <time>2018-03-03T17:05:16.511Z</time>
      </trkpt>
      <trkpt lat="44.59772" lon="0.84062">
        <ele>138</ele>
        <time>2018-03-03T17:05:17.511Z</time>
      </trkpt>
      <trkpt lat="44.59774" lon="0.84063">
        <ele>138</ele>
        <time>2018-03-03T17:05:18.511Z</time>
      </trkpt>
      <trkpt lat="44.59775" lon="0.84063">
        <ele>139</ele>
        <time>2018-03-03T17:05:19.511Z</time>
      </trkpt>
      <trkpt lat="44.59777" lon="0.84064">
        <ele>139</ele>
        <time>2018-03-03T17:05:20.511Z</time>
      </trkpt>
      <trkpt lat="44.59779" lon="0.84065">
        <ele>139</ele>
        <time>2018-03-03T17:05:21.511Z</time>
      </trkpt>
      <trkpt lat="44.59781" lon="0.84066">
        <ele>139</ele>
        <time>2018-03-03T17:05:22.511Z</time>
      </trkpt>
      <trkpt lat="44.59783" lon="0.84067">
        <ele>139</ele>
        <time>2018-03-03T17:05:23.511Z</time>
      </trkpt>
      <trkpt lat="44.59785" lon="0.84068">
        <ele>139</ele>
        <time>2018-03-03T17:05:24.511Z</time>
      </trkpt>
      <trkpt lat="44.59787" lon="0.8407">
        <ele>139</ele>
        <time>2018-03-03T17:05:25.511Z</time>
      </trkpt>
      <trkpt lat="44.59788" lon="0.84072">
        <ele>139</ele>
        <time>2018-03-03T17:05:26.511Z</time>
      </trkpt>
      <trkpt lat="44.59789" lon="0.84073">
        <ele>140</ele>
        <time>2018-03-03T17:05:27.511Z</time>
      </trkpt>
      <trkpt lat="44.5979" lon="0.84075">
        <ele>140</ele>
        <time>2018-03-03T17:05:28.511Z</time>
      </trkpt>
      <trkpt lat="44.59791" lon="0.84076">
        <ele>140</ele>
        <time>2018-03-03T17:05:29.511Z</time>
      </trkpt>
      <trkpt lat="44.59793" lon="0.84076">
        <ele>140</ele>
        <time>2018-03-03T17:05:30.511Z</time>
      </trkpt>
      <trkpt lat="44.59794" lon="0.84076">
        <ele>140</ele>
        <time>2018-03-03T17:05:31.511Z</time>
      </trkpt>
      <trkpt lat="44.59795" lon="0.84076">
        <ele>140</ele>
        <time>2018-03-03T17:05:32.511Z</time>
      </trkpt>
      <trkpt lat="44.59796" lon="0.84076">
        <ele>140</ele>
        <time>2018-03-03T17:05:33.511Z</time>
      </trkpt>
      <trkpt lat="44.59797" lon="0.84075">
        <ele>141</ele>
        <time>2018-03-03T17:05:34.511Z</time>
      </trkpt>
      <trkpt lat="44.59798" lon="0.84074">
        <ele>141</ele>
        <time>2018-03-03T17:05:35.511Z</time>
      </trkpt>
      <trkpt lat="44.59799" lon="0.84073">
        <ele>141</ele>
        <time>2018-03-03T17:05:36.511Z</time>
      </trkpt>
      <trkpt lat="44.59801" lon="0.84071">
        <ele>141</ele>
        <time>2018-03-03T17:05:37.511Z</time>
      </trkpt>
      <trkpt lat="44.59802" lon="0.8407">
        <ele>141</ele>
        <time>2018-03-03T17:05:38.511Z</time>
      </trkpt>
      <trkpt lat="44.59803" lon="0.84068">
        <ele>141</ele>
        <time>2018-03-03T17:05:39.511Z</time>
      </trkpt>
      <trkpt lat="44.59805" lon="0.84067">
        <ele>141</ele>
        <time>2018-03-03T17:05:40.511Z</time>
      </trkpt>
      <trkpt lat="44.59806" lon="0.84065">
        <ele>141</ele>
        <time>2018-03-03T17:05:41.511Z</time>
      </trkpt>
      <trkpt lat="44.59808" lon="0.84064">
        <ele>141</ele>
        <time>2018-03-03T17:05:42.511Z</time>
      </trkpt>
      <trkpt lat="44.59809" lon="0.84062">
        <ele>141</ele>
        <time>2018-03-03T17:05:43.511Z</time>
      </trkpt>
      <trkpt lat="44.59811" lon="0.84061">
        <ele>141</ele>
        <time>2018-03-03T17:05:44.511Z</time>
      </trkpt>
      <trkpt lat="44.59813" lon="0.84059">
        <ele>141</ele>
        <time>2018-03-03T17:05:45.511Z</time>
      </trkpt>
      <trkpt lat="44.59814" lon="0.84058">
        <ele>141</ele>
        <time>2018-03-03T17:05:46.511Z</time>
      </trkpt>
      <trkpt lat="44.59816" lon="0.84056">
        <ele>141</ele>
        <time>2018-03-03T17:05:47.511Z</time>
      </trkpt>
      <trkpt lat="44.59817" lon="0.84054">
        <ele>141</ele>
        <time>2018-03-03T17:05:48.511Z</time>
      </trkpt>
      <trkpt lat="44.59819" lon="0.84053">
        <ele>141</ele>
        <time>2018-03-03T17:05:49.511Z</time>
      </trkpt>
      <trkpt lat="44.5982" lon="0.84051">
        <ele>141</ele>
        <time>2018-03-03T17:05:50.511Z</time>
      </trkpt>
      <trkpt lat="44.59822" lon="0.84049">
        <ele>141</ele>
        <time>2018-03-03T17:05:51.511Z</time>
      </trkpt>
      <trkpt lat="44.59823" lon="0.84047">
        <ele>142</ele>
        <time>2018-03-03T17:05:52.511Z</time>
      </trkpt>
      <trkpt lat="44.59824" lon="0.84045">
        <ele>142</ele>
        <time>2018-03-03T17:05:53.511Z</time>
      </trkpt>
      <trkpt lat="44.59826" lon="0.84043">
        <ele>142</ele>
        <time>2018-03-03T17:05:54.511Z</time>
      </trkpt>
      <trkpt lat="44.59828" lon="0.8404">
        <ele>142</ele>
        <time>2018-03-03T17:05:55.511Z</time>
      </trkpt>
      <trkpt lat="44.59829" lon="0.84038">
        <ele>142</ele>
        <time>2018-03-03T17:05:56.511Z</time>
      </trkpt>
      <trkpt lat="44.59831" lon="0.84035">
        <ele>142</ele>
        <time>2018-03-03T17:05:57.511Z</time>
      </trkpt>
      <trkpt lat="44.59832" lon="0.84032">
        <ele>142</ele>
        <time>2018-03-03T17:05:58.511Z</time>
      </trkpt>
      <trkpt lat="44.59834" lon="0.84029">
        <ele>142</ele>
        <time>2018-03-03T17:05:59.511Z</time>
      </trkpt>
      <trkpt lat="44.59836" lon="0.84025">
        <ele>142</ele>
        <time>2018-03-03T17:06:00.511Z</time>
      </trkpt>
      <trkpt lat="44.59837" lon="0.84022">
        <ele>142</ele>
        <time>2018-03-03T17:06:01.511Z</time>
      </trkpt>
      <trkpt lat="44.59839" lon="0.8402">
        <ele>142</ele>
        <time>2018-03-03T17:06:02.511Z</time>
      </trkpt>
      <trkpt lat="44.5984" lon="0.84017">
        <ele>142</ele>
        <time>2018-03-03T17:06:03.511Z</time>
      </trkpt>
      <trkpt lat="44.59842" lon="0.84015">
        <ele>142</ele>
        <time>2018-03-03T17:06:04.511Z</time>
      </trkpt>
      <trkpt lat="44.59843" lon="0.84014">
        <ele>142</ele>
        <time>2018-03-03T17:06:05.511Z</time>
      </trkpt>
      <trkpt lat="44.59844" lon="0.84012">
        <ele>142</ele>
        <time>2018-03-03T17:06:06.511Z</time>
      </trkpt>
      <trkpt lat="44.59846" lon="0.8401">
        <ele>142</ele>
        <time>2018-03-03T17:06:07.511Z</time>
      </trkpt>
      <trkpt lat="44.59847" lon="0.84009">
        <ele>142</ele>
        <time>2018-03-03T17:06:08.511Z</time>
      </trkpt>
      <trkpt lat="44.59849" lon="0.84007">
        <ele>142</ele>
        <time>2018-03-03T17:06:09.511Z</time>
      </trkpt>
      <trkpt lat="44.5985" lon="0.84006">
        <ele>142</ele>
        <time>2018-03-03T17:06:10.511Z</time>
      </trkpt>
      <trkpt lat="44.59852" lon="0.84006">
        <ele>142</ele>
        <time>2018-03-03T17:06:11.511Z</time>
      </trkpt>
      <trkpt lat="44.59854" lon="0.84007">
        <ele>142</ele>
        <time>2018-03-03T17:06:12.511Z</time>
      </trkpt>
      <trkpt lat="44.59855" lon="0.84008">
        <ele>143</ele>
        <time>2018-03-03T17:06:13.511Z</time>
      </trkpt>
      <trkpt lat="44.59857" lon="0.8401">
        <ele>143</ele>
        <time>2018-03-03T17:06:14.511Z</time>
      </trkpt>
      <trkpt lat="44.59858" lon="0.84013">
        <ele>143</ele>
        <time>2018-03-03T17:06:15.511Z</time>
      </trkpt>
      <trkpt lat="44.5986" lon="0.84015">
        <ele>143</ele>
        <time>2018-03-03T17:06:16.511Z</time>
      </trkpt>
      <trkpt lat="44.59861" lon="0.84018">
        <ele>143</ele>
        <time>2018-03-03T17:06:17.511Z</time>
      </trkpt>
      <trkpt lat="44.59863" lon="0.84021">
        <ele>143</ele>
        <time>2018-03-03T17:06:18.511Z</time>
      </trkpt>
      <trkpt lat="44.59865" lon="0.84024">
        <ele>143</ele>
        <time>2018-03-03T17:06:19.511Z</time>
      </trkpt>
      <trkpt lat="44.59867" lon="0.84027">
        <ele>143</ele>
        <time>2018-03-03T17:06:20.511Z</time>
      </trkpt>
      <trkpt lat="44.59869" lon="0.84031">
        <ele>143</ele>
        <time>2018-03-03T17:06:21.511Z</time>
      </trkpt>
      <trkpt lat="44.59871" lon="0.84034">
        <ele>143</ele>
        <time>2018-03-03T17:06:22.511Z</time>
      </trkpt>
      <trkpt lat="44.59873" lon="0.84037">
        <ele>143</ele>
        <time>2018-03-03T17:06:23.511Z</time>
      </trkpt>
      <trkpt lat="44.59875" lon="0.84041">
        <ele>144</ele>
        <time>2018-03-03T17:06:24.511Z</time>
      </trkpt>
      <trkpt lat="44.59877" lon="0.84044">
        <ele>144</ele>
        <time>2018-03-03T17:06:25.511Z</time>
      </trkpt>
      <trkpt lat="44.59879" lon="0.84048">
        <ele>144</ele>
        <time>2018-03-03T17:06:26.511Z</time>
      </trkpt>
      <trkpt lat="44.59881" lon="0.84051">
        <ele>144</ele>
        <time>2018-03-03T17:06:27.511Z</time>
      </trkpt>
      <trkpt lat="44.59883" lon="0.84055">
        <ele>144</ele>
        <time>2018-03-03T17:06:28.511Z</time>
      </trkpt>
      <trkpt lat="44.59885" lon="0.84059">
        <ele>144</ele>
        <time>2018-03-03T17:06:29.511Z</time>
      </trkpt>
      <trkpt lat="44.59887" lon="0.84062">
        <ele>144</ele>
        <time>2018-03-03T17:06:30.511Z</time>
      </trkpt>
      <trkpt lat="44.5989" lon="0.84066">
        <ele>144</ele>
        <time>2018-03-03T17:06:31.511Z</time>
      </trkpt>
      <trkpt lat="44.59892" lon="0.8407">
        <ele>144</ele>
        <time>2018-03-03T17:06:32.511Z</time>
      </trkpt>
      <trkpt lat="44.59894" lon="0.84074">
        <ele>144</ele>
        <time>2018-03-03T17:06:33.511Z</time>
      </trkpt>
      <trkpt lat="44.59896" lon="0.84078">
        <ele>145</ele>
        <time>2018-03-03T17:06:34.511Z</time>
      </trkpt>
      <trkpt lat="44.59898" lon="0.84082">
        <ele>145</ele>
        <time>2018-03-03T17:06:35.511Z</time>
      </trkpt>
      <trkpt lat="44.599" lon="0.84087">
        <ele>145</ele>
        <time>2018-03-03T17:06:36.511Z</time>
      </trkpt>
      <trkpt lat="44.59901" lon="0.84091">
        <ele>145</ele>
        <time>2018-03-03T17:06:37.511Z</time>
      </trkpt>
      <trkpt lat="44.59903" lon="0.84096">
        <ele>145</ele>
        <time>2018-03-03T17:06:38.511Z</time>
      </trkpt>
      <trkpt lat="44.59905" lon="0.841">
        <ele>145</ele>
        <time>2018-03-03T17:06:39.511Z</time>
      </trkpt>
      <trkpt lat="44.59907" lon="0.84105">
        <ele>145</ele>
        <time>2018-03-03T17:06:40.511Z</time>
      </trkpt>
      <trkpt lat="44.59909" lon="0.84109">
        <ele>145</ele>
        <time>2018-03-03T17:06:41.511Z</time>
      </trkpt>
      <trkpt lat="44.5991" lon="0.84113">
        <ele>145</ele>
        <time>2018-03-03T17:06:42.511Z</time>
      </trkpt>
      <trkpt lat="44.59912" lon="0.84118">
        <ele>145</ele>
        <time>2018-03-03T17:06:43.511Z</time>
      </trkpt>
      <trkpt lat="44.59914" lon="0.84123">
        <ele>144</ele>
        <time>2018-03-03T17:06:44.511Z</time>
      </trkpt>
      <trkpt lat="44.59916" lon="0.84128">
        <ele>144</ele>
        <time>2018-03-03T17:06:45.511Z</time>
      </trkpt>
      <trkpt lat="44.59918" lon="0.84134">
        <ele>144</ele>
        <time>2018-03-03T17:06:46.511Z</time>
      </trkpt>
      <trkpt lat="44.59921" lon="0.84141">
        <ele>144</ele>
        <time>2018-03-03T17:06:47.511Z</time>
      </trkpt>
      <trkpt lat="44.59923" lon="0.84148">
        <ele>144</ele>
        <time>2018-03-03T17:06:48.511Z</time>
      </trkpt>
      <trkpt lat="44.59926" lon="0.84155">
        <ele>143</ele>
        <time>2018-03-03T17:06:49.511Z</time>
      </trkpt>
      <trkpt lat="44.5993" lon="0.84163">
        <ele>143</ele>
        <time>2018-03-03T17:06:50.511Z</time>
      </trkpt>
      <trkpt lat="44.59933" lon="0.84172">
        <ele>143</ele>
        <time>2018-03-03T17:06:51.511Z</time>
      </trkpt>
      <trkpt lat="44.59937" lon="0.84181">
        <ele>142</ele>
        <time>2018-03-03T17:06:52.511Z</time>
      </trkpt>
      <trkpt lat="44.5994" lon="0.8419">
        <ele>141</ele>
        <time>2018-03-03T17:06:53.511Z</time>
      </trkpt>
      <trkpt lat="44.59944" lon="0.842">
        <ele>141</ele>
        <time>2018-03-03T17:06:54.511Z</time>
      </trkpt>
      <trkpt lat="44.59948" lon="0.8421">
        <ele>141</ele>
        <time>2018-03-03T17:06:55.511Z</time>
      </trkpt>
      <trkpt lat="44.59953" lon="0.8422">
        <ele>140</ele>
        <time>2018-03-03T17:06:56.511Z</time>
      </trkpt>
      <trkpt lat="44.59958" lon="0.8423">
        <ele>139</ele>
        <time>2018-03-03T17:06:57.511Z</time>
      </trkpt>
      <trkpt lat="44.59964" lon="0.84239">
        <ele>138</ele>
        <time>2018-03-03T17:06:58.511Z</time>
      </trkpt>
      <trkpt lat="44.59972" lon="0.84247">
        <ele>136</ele>
        <time>2018-03-03T17:06:59.511Z</time>
      </trkpt>
      <trkpt lat="44.5998" lon="0.84252">
        <ele>135</ele>
        <time>2018-03-03T17:07:00.511Z</time>
      </trkpt>
      <trkpt lat="44.5999" lon="0.84254">
        <ele>134</ele>
        <time>2018-03-03T17:07:01.511Z</time>
      </trkpt>
      <trkpt lat="44.6" lon="0.84255">
        <ele>133</ele>
        <time>2018-03-03T17:07:02.511Z</time>
      </trkpt>
      <trkpt lat="44.6001" lon="0.84255">
        <ele>132</ele>
        <time>2018-03-03T17:07:03.511Z</time>
      </trkpt>
      <trkpt lat="44.6002" lon="0.84256">
        <ele>131</ele>
        <time>2018-03-03T17:07:04.511Z</time>
      </trkpt>
      <trkpt lat="44.6003" lon="0.84259">
        <ele>130</ele>
        <time>2018-03-03T17:07:05.511Z</time>
      </trkpt>
      <trkpt lat="44.60042" lon="0.84263">
        <ele>128</ele>
        <time>2018-03-03T17:07:06.511Z</time>
      </trkpt>
      <trkpt lat="44.60052" lon="0.84268">
        <ele>127</ele>
        <time>2018-03-03T17:07:07.511Z</time>
      </trkpt>
      <trkpt lat="44.60061" lon="0.84276">
        <ele>126</ele>
        <time>2018-03-03T17:07:08.511Z</time>
      </trkpt>
      <trkpt lat="44.60068" lon="0.84285">
        <ele>125</ele>
        <time>2018-03-03T17:07:09.511Z</time>
      </trkpt>
      <trkpt lat="44.60073" lon="0.84293">
        <ele>124</ele>
        <time>2018-03-03T17:07:10.511Z</time>
      </trkpt>
      <trkpt lat="44.60077" lon="0.84298">
        <ele>124</ele>
        <time>2018-03-03T17:07:11.511Z</time>
      </trkpt>
      <trkpt lat="44.60081" lon="0.84301">
        <ele>124</ele>
        <time>2018-03-03T17:07:12.511Z</time>
      </trkpt>
      <trkpt lat="44.60084" lon="0.84302">
        <ele>124</ele>
        <time>2018-03-03T17:07:13.511Z</time>
      </trkpt>
      <trkpt lat="44.60088" lon="0.84301">
        <ele>124</ele>
        <time>2018-03-03T17:07:14.511Z</time>
      </trkpt>
      <trkpt lat="44.60091" lon="0.84298">
        <ele>124</ele>
        <time>2018-03-03T17:07:15.511Z</time>
      </trkpt>
      <trkpt lat="44.60094" lon="0.84295">
        <ele>124</ele>
        <time>2018-03-03T17:07:16.511Z</time>
      </trkpt>
      <trkpt lat="44.60097" lon="0.84291">
        <ele>124</ele>
        <time>2018-03-03T17:07:17.511Z</time>
      </trkpt>
      <trkpt lat="44.601" lon="0.84286">
        <ele>124</ele>
        <time>2018-03-03T17:07:18.511Z</time>
      </trkpt>
      <trkpt lat="44.60103" lon="0.84281">
        <ele>124</ele>
        <time>2018-03-03T17:07:19.511Z</time>
      </trkpt>
      <trkpt lat="44.60107" lon="0.84276">
        <ele>124</ele>
        <time>2018-03-03T17:07:20.511Z</time>
      </trkpt>
      <trkpt lat="44.6011" lon="0.84269">
        <ele>123</ele>
        <time>2018-03-03T17:07:21.511Z</time>
      </trkpt>
      <trkpt lat="44.60113" lon="0.84263">
        <ele>123</ele>
        <time>2018-03-03T17:07:22.511Z</time>
      </trkpt>
      <trkpt lat="44.60116" lon="0.84256">
        <ele>123</ele>
        <time>2018-03-03T17:07:23.511Z</time>
      </trkpt>
      <trkpt lat="44.60118" lon="0.84249">
        <ele>123</ele>
        <time>2018-03-03T17:07:24.511Z</time>
      </trkpt>
      <trkpt lat="44.60121" lon="0.84241">
        <ele>123</ele>
        <time>2018-03-03T17:07:25.511Z</time>
      </trkpt>
      <trkpt lat="44.60124" lon="0.84233">
        <ele>122</ele>
        <time>2018-03-03T17:07:26.511Z</time>
      </trkpt>
      <trkpt lat="44.60126" lon="0.84225">
        <ele>122</ele>
        <time>2018-03-03T17:07:27.511Z</time>
      </trkpt>
      <trkpt lat="44.60128" lon="0.84217">
        <ele>122</ele>
        <time>2018-03-03T17:07:28.511Z</time>
      </trkpt>
      <trkpt lat="44.6013" lon="0.84209">
        <ele>122</ele>
        <time>2018-03-03T17:07:29.511Z</time>
      </trkpt>
      <trkpt lat="44.60132" lon="0.84201">
        <ele>121</ele>
        <time>2018-03-03T17:07:30.511Z</time>
      </trkpt>
      <trkpt lat="44.60134" lon="0.84193">
        <ele>121</ele>
        <time>2018-03-03T17:07:31.511Z</time>
      </trkpt>
      <trkpt lat="44.60135" lon="0.84185">
        <ele>121</ele>
        <time>2018-03-03T17:07:32.511Z</time>
      </trkpt>
      <trkpt lat="44.60137" lon="0.84177">
        <ele>121</ele>
        <time>2018-03-03T17:07:33.511Z</time>
      </trkpt>
      <trkpt lat="44.60138" lon="0.8417">
        <ele>121</ele>
        <time>2018-03-03T17:07:34.511Z</time>
      </trkpt>
      <trkpt lat="44.60139" lon="0.84163">
        <ele>121</ele>
        <time>2018-03-03T17:07:35.511Z</time>
      </trkpt>
      <trkpt lat="44.6014" lon="0.84157">
        <ele>121</ele>
        <time>2018-03-03T17:07:36.511Z</time>
      </trkpt>
      <trkpt lat="44.60141" lon="0.84152">
        <ele>121</ele>
        <time>2018-03-03T17:07:37.511Z</time>
      </trkpt>
      <trkpt lat="44.60142" lon="0.84148">
        <ele>121</ele>
        <time>2018-03-03T17:07:38.511Z</time>
      </trkpt>
      <trkpt lat="44.60145" lon="0.84145">
        <ele>121</ele>
        <time>2018-03-03T17:07:39.511Z</time>
      </trkpt>
      <trkpt lat="44.60148" lon="0.84144">
        <ele>121</ele>
        <time>2018-03-03T17:07:40.511Z</time>
      </trkpt>
      <trkpt lat="44.60151" lon="0.84143">
        <ele>121</ele>
        <time>2018-03-03T17:07:41.511Z</time>
      </trkpt>
      <trkpt lat="44.60154" lon="0.84142">
        <ele>121</ele>
        <time>2018-03-03T17:07:42.511Z</time>
      </trkpt>
      <trkpt lat="44.60156" lon="0.84141">
        <ele>121</ele>
        <time>2018-03-03T17:07:43.511Z</time>
      </trkpt>
      <trkpt lat="44.60158" lon="0.84141">
        <ele>121</ele>
        <time>2018-03-03T17:07:44.511Z</time>
      </trkpt>
      <trkpt lat="44.6016" lon="0.84139">
        <ele>122</ele>
        <time>2018-03-03T17:07:45.511Z</time>
      </trkpt>
      <trkpt lat="44.60162" lon="0.84138">
        <ele>122</ele>
        <time>2018-03-03T17:07:46.511Z</time>
      </trkpt>
      <trkpt lat="44.60163" lon="0.84136">
        <ele>122</ele>
        <time>2018-03-03T17:07:47.511Z</time>
      </trkpt>
      <trkpt lat="44.60165" lon="0.84134">
        <ele>123</ele>
        <time>2018-03-03T17:07:48.511Z</time>
      </trkpt>
      <trkpt lat="44.60166" lon="0.84131">
        <ele>123</ele>
        <time>2018-03-03T17:07:49.511Z</time>
      </trkpt>
      <trkpt lat="44.60168" lon="0.84129">
        <ele>123</ele>
        <time>2018-03-03T17:07:50.511Z</time>
      </trkpt>
      <trkpt lat="44.60169" lon="0.84126">
        <ele>123</ele>
        <time>2018-03-03T17:07:51.511Z</time>
      </trkpt>
      <trkpt lat="44.60171" lon="0.84123">
        <ele>124</ele>
        <time>2018-03-03T17:07:52.511Z</time>
      </trkpt>
      <trkpt lat="44.60172" lon="0.84121">
        <ele>124</ele>
        <time>2018-03-03T17:07:53.511Z</time>
      </trkpt>
      <trkpt lat="44.60173" lon="0.84118">
        <ele>125</ele>
        <time>2018-03-03T17:07:54.511Z</time>
      </trkpt>
      <trkpt lat="44.60173" lon="0.84116">
        <ele>125</ele>
        <time>2018-03-03T17:07:55.511Z</time>
      </trkpt>
      <trkpt lat="44.60174" lon="0.84114">
        <ele>125</ele>
        <time>2018-03-03T17:07:56.511Z</time>
      </trkpt>
      <trkpt lat="44.60174" lon="0.84112">
        <ele>125</ele>
        <time>2018-03-03T17:07:57.511Z</time>
      </trkpt>
      <trkpt lat="44.60173" lon="0.8411">
        <ele>126</ele>
        <time>2018-03-03T17:07:58.511Z</time>
      </trkpt>
      <trkpt lat="44.60174" lon="0.84107">
        <ele>126</ele>
        <time>2018-03-03T17:07:59.511Z</time>
      </trkpt>
      <trkpt lat="44.60174" lon="0.84105">
        <ele>126</ele>
        <time>2018-03-03T17:08:00.511Z</time>
      </trkpt>
      <trkpt lat="44.60174" lon="0.84102">
        <ele>126</ele>
        <time>2018-03-03T17:08:01.511Z</time>
      </trkpt>
      <trkpt lat="44.60175" lon="0.84099">
        <ele>127</ele>
        <time>2018-03-03T17:08:02.511Z</time>
      </trkpt>
      <trkpt lat="44.60176" lon="0.84097">
        <ele>127</ele>
        <time>2018-03-03T17:08:03.511Z</time>
      </trkpt>
      <trkpt lat="44.60178" lon="0.84096">
        <ele>127</ele>
        <time>2018-03-03T17:08:04.511Z</time>
      </trkpt>
      <trkpt lat="44.60179" lon="0.84095">
        <ele>128</ele>
        <time>2018-03-03T17:08:05.511Z</time>
      </trkpt>
      <trkpt lat="44.60181" lon="0.84096">
        <ele>128</ele>
        <time>2018-03-03T17:08:06.511Z</time>
      </trkpt>
      <trkpt lat="44.60182" lon="0.84097">
        <ele>128</ele>
        <time>2018-03-03T17:08:07.511Z</time>
      </trkpt>
      <trkpt lat="44.60184" lon="0.84098">
        <ele>128</ele>
        <time>2018-03-03T17:08:08.511Z</time>
      </trkpt>
      <trkpt lat="44.60185" lon="0.84099">
        <ele>129</ele>
        <time>2018-03-03T17:08:09.511Z</time>
      </trkpt>
      <trkpt lat="44.60187" lon="0.84099">
        <ele>129</ele>
        <time>2018-03-03T17:08:10.511Z</time>
      </trkpt>
      <trkpt lat="44.60188" lon="0.84099">
        <ele>129</ele>
        <time>2018-03-03T17:08:11.511Z</time>
      </trkpt>
      <trkpt lat="44.6019" lon="0.84099">
        <ele>129</ele>
        <time>2018-03-03T17:08:12.511Z</time>
      </trkpt>
      <trkpt lat="44.60191" lon="0.84098">
        <ele>130</ele>
        <time>2018-03-03T17:08:13.511Z</time>
      </trkpt>
      <trkpt lat="44.60192" lon="0.84097">
        <ele>130</ele>
        <time>2018-03-03T17:08:14.511Z</time>
      </trkpt>
      <trkpt lat="44.60193" lon="0.84096">
        <ele>130</ele>
        <time>2018-03-03T17:08:15.511Z</time>
      </trkpt>
      <trkpt lat="44.60194" lon="0.84095">
        <ele>130</ele>
        <time>2018-03-03T17:08:16.511Z</time>
      </trkpt>
      <trkpt lat="44.60195" lon="0.84093">
        <ele>130</ele>
        <time>2018-03-03T17:08:17.511Z</time>
      </trkpt>
      <trkpt lat="44.60196" lon="0.84091">
        <ele>131</ele>
        <time>2018-03-03T17:08:18.511Z</time>
      </trkpt>
      <trkpt lat="44.60197" lon="0.84089">
        <ele>131</ele>
        <time>2018-03-03T17:08:19.511Z</time>
      </trkpt>
      <trkpt lat="44.60199" lon="0.84088">
        <ele>131</ele>
        <time>2018-03-03T17:08:20.511Z</time>
      </trkpt>
      <trkpt lat="44.602" lon="0.84086">
        <ele>131</ele>
        <time>2018-03-03T17:08:21.511Z</time>
      </trkpt>
      <trkpt lat="44.60201" lon="0.84084">
        <ele>132</ele>
        <time>2018-03-03T17:08:22.511Z</time>
      </trkpt>
      <trkpt lat="44.60202" lon="0.84082">
        <ele>132</ele>
        <time>2018-03-03T17:08:23.511Z</time>
      </trkpt>
      <trkpt lat="44.60203" lon="0.8408">
        <ele>132</ele>
        <time>2018-03-03T17:08:24.511Z</time>
      </trkpt>
      <trkpt lat="44.60204" lon="0.84079">
        <ele>132</ele>
        <time>2018-03-03T17:08:25.511Z</time>
      </trkpt>
      <trkpt lat="44.60205" lon="0.84077">
        <ele>132</ele>
        <time>2018-03-03T17:08:26.511Z</time>
      </trkpt>
      <trkpt lat="44.60207" lon="0.84076">
        <ele>133</ele>
        <time>2018-03-03T17:08:27.511Z</time>
      </trkpt>
      <trkpt lat="44.60208" lon="0.84075">
        <ele>133</ele>
        <time>2018-03-03T17:08:28.511Z</time>
      </trkpt>
      <trkpt lat="44.60209" lon="0.84075">
        <ele>133</ele>
        <time>2018-03-03T17:08:29.511Z</time>
      </trkpt>
      <trkpt lat="44.60211" lon="0.84074">
        <ele>133</ele>
        <time>2018-03-03T17:08:30.511Z</time>
      </trkpt>
      <trkpt lat="44.60212" lon="0.84074">
        <ele>134</ele>
        <time>2018-03-03T17:08:31.511Z</time>
      </trkpt>
      <trkpt lat="44.60213" lon="0.84074">
        <ele>134</ele>
        <time>2018-03-03T17:08:32.511Z</time>
      </trkpt>
      <trkpt lat="44.60215" lon="0.84074">
        <ele>134</ele>
        <time>2018-03-03T17:08:33.511Z</time>
      </trkpt>
      <trkpt lat="44.60216" lon="0.84074">
        <ele>134</ele>
        <time>2018-03-03T17:08:34.511Z</time>
      </trkpt>
      <trkpt lat="44.60218" lon="0.84075">
        <ele>134</ele>
        <time>2018-03-03T17:08:35.511Z</time>
      </trkpt>
      <trkpt lat="44.60219" lon="0.84076">
        <ele>135</ele>
        <time>2018-03-03T17:08:36.511Z</time>
      </trkpt>
      <trkpt lat="44.6022" lon="0.84076">
        <ele>135</ele>
        <time>2018-03-03T17:08:37.511Z</time>
      </trkpt>
      <trkpt lat="44.60222" lon="0.84077">
        <ele>135</ele>
        <time>2018-03-03T17:08:38.511Z</time>
      </trkpt>
      <trkpt lat="44.60223" lon="0.84078">
        <ele>135</ele>
        <time>2018-03-03T17:08:39.511Z</time>
      </trkpt>
      <trkpt lat="44.60224" lon="0.84079">
        <ele>136</ele>
        <time>2018-03-03T17:08:40.511Z</time>
      </trkpt>
      <trkpt lat="44.60225" lon="0.8408">
        <ele>136</ele>
        <time>2018-03-03T17:08:41.511Z</time>
      </trkpt>
      <trkpt lat="44.60227" lon="0.84081">
        <ele>136</ele>
        <time>2018-03-03T17:08:42.511Z</time>
      </trkpt>
      <trkpt lat="44.60228" lon="0.84082">
        <ele>136</ele>
        <time>2018-03-03T17:08:43.511Z</time>
      </trkpt>
      <trkpt lat="44.60229" lon="0.84083">
        <ele>136</ele>
        <time>2018-03-03T17:08:44.511Z</time>
      </trkpt>
      <trkpt lat="44.6023" lon="0.84084">
        <ele>137</ele>
        <time>2018-03-03T17:08:45.511Z</time>
      </trkpt>
      <trkpt lat="44.60231" lon="0.84085">
        <ele>137</ele>
        <time>2018-03-03T17:08:46.511Z</time>
      </trkpt>
      <trkpt lat="44.60232" lon="0.84086">
        <ele>137</ele>
        <time>2018-03-03T17:08:47.511Z</time>
      </trkpt>
      <trkpt lat="44.60233" lon="0.84087">
        <ele>137</ele>
        <time>2018-03-03T17:08:48.511Z</time>
      </trkpt>
      <trkpt lat="44.60234" lon="0.84087">
        <ele>137</ele>
        <time>2018-03-03T17:08:49.511Z</time>
      </trkpt>
      <trkpt lat="44.60235" lon="0.84088">
        <ele>137</ele>
        <time>2018-03-03T17:08:50.511Z</time>
      </trkpt>
      <trkpt lat="44.60236" lon="0.84089">
        <ele>138</ele>
        <time>2018-03-03T17:08:51.511Z</time>
      </trkpt>
      <trkpt lat="44.60237" lon="0.8409">
        <ele>138</ele>
        <time>2018-03-03T17:08:52.511Z</time>
      </trkpt>
      <trkpt lat="44.60238" lon="0.8409">
        <ele>138</ele>
        <time>2018-03-03T17:08:53.511Z</time>
      </trkpt>
      <trkpt lat="44.60239" lon="0.84091">
        <ele>138</ele>
        <time>2018-03-03T17:08:54.511Z</time>
      </trkpt>
      <trkpt lat="44.6024" lon="0.84092">
        <ele>138</ele>
        <time>2018-03-03T17:08:55.511Z</time>
      </trkpt>
      <trkpt lat="44.60241" lon="0.84092">
        <ele>139</ele>
        <time>2018-03-03T17:08:56.511Z</time>
      </trkpt>
      <trkpt lat="44.60242" lon="0.84093">
        <ele>139</ele>
        <time>2018-03-03T17:08:57.511Z</time>
      </trkpt>
      <trkpt lat="44.60243" lon="0.84094">
        <ele>139</ele>
        <time>2018-03-03T17:08:58.511Z</time>
      </trkpt>
      <trkpt lat="44.60245" lon="0.84095">
        <ele>139</ele>
        <time>2018-03-03T17:08:59.511Z</time>
      </trkpt>
      <trkpt lat="44.60246" lon="0.84096">
        <ele>139</ele>
        <time>2018-03-03T17:09:00.511Z</time>
      </trkpt>
      <trkpt lat="44.60247" lon="0.84096">
        <ele>139</ele>
        <time>2018-03-03T17:09:01.511Z</time>
      </trkpt>
      <trkpt lat="44.60249" lon="0.84097">
        <ele>140</ele>
        <time>2018-03-03T17:09:02.511Z</time>
      </trkpt>
      <trkpt lat="44.6025" lon="0.84098">
        <ele>140</ele>
        <time>2018-03-03T17:09:03.511Z</time>
      </trkpt>
      <trkpt lat="44.60251" lon="0.84099">
        <ele>140</ele>
        <time>2018-03-03T17:09:04.511Z</time>
      </trkpt>
      <trkpt lat="44.60253" lon="0.84099">
        <ele>140</ele>
        <time>2018-03-03T17:09:05.511Z</time>
      </trkpt>
      <trkpt lat="44.60254" lon="0.841">
        <ele>140</ele>
        <time>2018-03-03T17:09:06.511Z</time>
      </trkpt>
      <trkpt lat="44.60255" lon="0.841">
        <ele>141</ele>
        <time>2018-03-03T17:09:07.511Z</time>
      </trkpt>
      <trkpt lat="44.60257" lon="0.84101">
        <ele>141</ele>
        <time>2018-03-03T17:09:08.511Z</time>
      </trkpt>
      <trkpt lat="44.60258" lon="0.84101">
        <ele>141</ele>
        <time>2018-03-03T17:09:09.511Z</time>
      </trkpt>
      <trkpt lat="44.60259" lon="0.84102">
        <ele>141</ele>
        <time>2018-03-03T17:09:10.511Z</time>
      </trkpt>
      <trkpt lat="44.60261" lon="0.84102">
        <ele>141</ele>
        <time>2018-03-03T17:09:11.511Z</time>
      </trkpt>
      <trkpt lat="44.60262" lon="0.84102">
        <ele>141</ele>
        <time>2018-03-03T17:09:12.511Z</time>
      </trkpt>
      <trkpt lat="44.60263" lon="0.84103">
        <ele>141</ele>
        <time>2018-03-03T17:09:13.511Z</time>
      </trkpt>
      <trkpt lat="44.60265" lon="0.84103">
        <ele>141</ele>
        <time>2018-03-03T17:09:14.511Z</time>
      </trkpt>
      <trkpt lat="44.60266" lon="0.84103">
        <ele>142</ele>
        <time>2018-03-03T17:09:15.511Z</time>
      </trkpt>
      <trkpt lat="44.60267" lon="0.84103">
        <ele>142</ele>
        <time>2018-03-03T17:09:16.511Z</time>
      </trkpt>
      <trkpt lat="44.60269" lon="0.84103">
        <ele>142</ele>
        <time>2018-03-03T17:09:17.511Z</time>
      </trkpt>
      <trkpt lat="44.6027" lon="0.84103">
        <ele>142</ele>
        <time>2018-03-03T17:09:18.511Z</time>
      </trkpt>
      <trkpt lat="44.60272" lon="0.84104">
        <ele>142</ele>
        <time>2018-03-03T17:09:19.511Z</time>
      </trkpt>
      <trkpt lat="44.60274" lon="0.84104">
        <ele>142</ele>
        <time>2018-03-03T17:09:20.511Z</time>
      </trkpt>
      <trkpt lat="44.60276" lon="0.84104">
        <ele>143</ele>
        <time>2018-03-03T17:09:21.511Z</time>
      </trkpt>
      <trkpt lat="44.60277" lon="0.84104">
        <ele>143</ele>
        <time>2018-03-03T17:09:22.511Z</time>
      </trkpt>
      <trkpt lat="44.60279" lon="0.84104">
        <ele>143</ele>
        <time>2018-03-03T17:09:23.511Z</time>
      </trkpt>
      <trkpt lat="44.60281" lon="0.84105">
        <ele>143</ele>
        <time>2018-03-03T17:09:24.511Z</time>
      </trkpt>
      <trkpt lat="44.60283" lon="0.84105">
        <ele>143</ele>
        <time>2018-03-03T17:09:25.511Z</time>
      </trkpt>
      <trkpt lat="44.60285" lon="0.84105">
        <ele>143</ele>
        <time>2018-03-03T17:09:26.511Z</time>
      </trkpt>
      <trkpt lat="44.60287" lon="0.84105">
        <ele>143</ele>
        <time>2018-03-03T17:09:27.511Z</time>
      </trkpt>
      <trkpt lat="44.60289" lon="0.84105">
        <ele>143</ele>
        <time>2018-03-03T17:09:28.511Z</time>
      </trkpt>
      <trkpt lat="44.60292" lon="0.84105">
        <ele>143</ele>
        <time>2018-03-03T17:09:29.511Z</time>
      </trkpt>
      <trkpt lat="44.60294" lon="0.84105">
        <ele>144</ele>
        <time>2018-03-03T17:09:30.511Z</time>
      </trkpt>
      <trkpt lat="44.60296" lon="0.84105">
        <ele>144</ele>
        <time>2018-03-03T17:09:31.511Z</time>
      </trkpt>
      <trkpt lat="44.60298" lon="0.84105">
        <ele>144</ele>
        <time>2018-03-03T17:09:32.511Z</time>
      </trkpt>
      <trkpt lat="44.603" lon="0.84105">
        <ele>144</ele>
        <time>2018-03-03T17:09:33.511Z</time>
      </trkpt>
      <trkpt lat="44.60302" lon="0.84104">
        <ele>144</ele>
        <time>2018-03-03T17:09:34.511Z</time>
      </trkpt>
      <trkpt lat="44.60304" lon="0.84104">
        <ele>144</ele>
        <time>2018-03-03T17:09:35.511Z</time>
      </trkpt>
      <trkpt lat="44.60306" lon="0.84103">
        <ele>144</ele>
        <time>2018-03-03T17:09:36.511Z</time>
      </trkpt>
      <trkpt lat="44.60308" lon="0.84102">
        <ele>144</ele>
        <time>2018-03-03T17:09:37.511Z</time>
      </trkpt>
      <trkpt lat="44.6031" lon="0.84101">
        <ele>144</ele>
        <time>2018-03-03T17:09:38.511Z</time>
      </trkpt>
      <trkpt lat="44.60312" lon="0.84099">
        <ele>144</ele>
        <time>2018-03-03T17:09:39.511Z</time>
      </trkpt>
      <trkpt lat="44.60315" lon="0.84098">
        <ele>144</ele>
        <time>2018-03-03T17:09:40.511Z</time>
      </trkpt>
      <trkpt lat="44.60317" lon="0.84097">
        <ele>144</ele>
        <time>2018-03-03T17:09:41.511Z</time>
      </trkpt>
      <trkpt lat="44.60319" lon="0.84096">
        <ele>144</ele>
        <time>2018-03-03T17:09:42.511Z</time>
      </trkpt>
      <trkpt lat="44.60321" lon="0.84095">
        <ele>144</ele>
        <time>2018-03-03T17:09:43.511Z</time>
      </trkpt>
      <trkpt lat="44.60324" lon="0.84094">
        <ele>144</ele>
        <time>2018-03-03T17:09:44.511Z</time>
      </trkpt>
      <trkpt lat="44.60327" lon="0.84093">
        <ele>144</ele>
        <time>2018-03-03T17:09:45.511Z</time>
      </trkpt>
      <trkpt lat="44.6033" lon="0.84092">
        <ele>144</ele>
        <time>2018-03-03T17:09:46.511Z</time>
      </trkpt>
      <trkpt lat="44.60333" lon="0.8409">
        <ele>144</ele>
        <time>2018-03-03T17:09:47.511Z</time>
      </trkpt>
      <trkpt lat="44.60336" lon="0.84089">
        <ele>144</ele>
        <time>2018-03-03T17:09:48.511Z</time>
      </trkpt>
      <trkpt lat="44.6034" lon="0.84087">
        <ele>144</ele>
        <time>2018-03-03T17:09:49.511Z</time>
      </trkpt>
      <trkpt lat="44.60344" lon="0.84086">
        <ele>144</ele>
        <time>2018-03-03T17:09:50.511Z</time>
      </trkpt>
      <trkpt lat="44.60347" lon="0.84085">
        <ele>144</ele>
        <time>2018-03-03T17:09:51.511Z</time>
      </trkpt>
      <trkpt lat="44.60351" lon="0.84084">
        <ele>144</ele>
        <time>2018-03-03T17:09:52.511Z</time>
      </trkpt>
      <trkpt lat="44.60355" lon="0.84083">
        <ele>144</ele>
        <time>2018-03-03T17:09:53.511Z</time>
      </trkpt>
      <trkpt lat="44.60359" lon="0.84083">
        <ele>144</ele>
        <time>2018-03-03T17:09:54.511Z</time>
      </trkpt>
      <trkpt lat="44.60363" lon="0.84082">
        <ele>144</ele>
        <time>2018-03-03T17:09:55.511Z</time>
      </trkpt>
      <trkpt lat="44.60367" lon="0.84082">
        <ele>144</ele>
        <time>2018-03-03T17:09:56.511Z</time>
      </trkpt>
      <trkpt lat="44.60371" lon="0.84082">
        <ele>144</ele>
        <time>2018-03-03T17:09:57.511Z</time>
      </trkpt>
      <trkpt lat="44.60375" lon="0.84082">
        <ele>144</ele>
        <time>2018-03-03T17:09:58.511Z</time>
      </trkpt>
      <trkpt lat="44.60379" lon="0.84083">
        <ele>144</ele>
        <time>2018-03-03T17:09:59.511Z</time>
      </trkpt>
      <trkpt lat="44.60383" lon="0.84083">
        <ele>144</ele>
        <time>2018-03-03T17:10:00.511Z</time>
      </trkpt>
      <trkpt lat="44.60387" lon="0.84083">
        <ele>144</ele>
        <time>2018-03-03T17:10:01.511Z</time>
      </trkpt>
      <trkpt lat="44.60391" lon="0.84082">
        <ele>144</ele>
        <time>2018-03-03T17:10:02.511Z</time>
      </trkpt>
      <trkpt lat="44.60395" lon="0.84082">
        <ele>144</ele>
        <time>2018-03-03T17:10:03.511Z</time>
      </trkpt>
      <trkpt lat="44.604" lon="0.84081">
        <ele>144</ele>
        <time>2018-03-03T17:10:04.511Z</time>
      </trkpt>
      <trkpt lat="44.60404" lon="0.8408">
        <ele>144</ele>
        <time>2018-03-03T17:10:05.511Z</time>
      </trkpt>
      <trkpt lat="44.60408" lon="0.8408">
        <ele>144</ele>
        <time>2018-03-03T17:10:06.511Z</time>
      </trkpt>
      <trkpt lat="44.60412" lon="0.84078">
        <ele>144</ele>
        <time>2018-03-03T17:10:07.511Z</time>
      </trkpt>
      <trkpt lat="44.60416" lon="0.84077">
        <ele>144</ele>
        <time>2018-03-03T17:10:08.511Z</time>
      </trkpt>
      <trkpt lat="44.60421" lon="0.84076">
        <ele>144</ele>
        <time>2018-03-03T17:10:09.511Z</time>
      </trkpt>
      <trkpt lat="44.60425" lon="0.84074">
        <ele>144</ele>
        <time>2018-03-03T17:10:10.511Z</time>
      </trkpt>
      <trkpt lat="44.60429" lon="0.84072">
        <ele>145</ele>
        <time>2018-03-03T17:10:11.511Z</time>
      </trkpt>
      <trkpt lat="44.60433" lon="0.84071">
        <ele>145</ele>
        <time>2018-03-03T17:10:12.511Z</time>
      </trkpt>
      <trkpt lat="44.60437" lon="0.84069">
        <ele>145</ele>
        <time>2018-03-03T17:10:13.511Z</time>
      </trkpt>
      <trkpt lat="44.60441" lon="0.84067">
        <ele>145</ele>
        <time>2018-03-03T17:10:14.511Z</time>
      </trkpt>
      <trkpt lat="44.60445" lon="0.84065">
        <ele>145</ele>
        <time>2018-03-03T17:10:15.511Z</time>
      </trkpt>
      <trkpt lat="44.60449" lon="0.84063">
        <ele>145</ele>
        <time>2018-03-03T17:10:16.511Z</time>
      </trkpt>
      <trkpt lat="44.60453" lon="0.84061">
        <ele>145</ele>
        <time>2018-03-03T17:10:17.511Z</time>
      </trkpt>
      <trkpt lat="44.60457" lon="0.84059">
        <ele>145</ele>
        <time>2018-03-03T17:10:18.511Z</time>
      </trkpt>
      <trkpt lat="44.60461" lon="0.84057">
        <ele>145</ele>
        <time>2018-03-03T17:10:19.511Z</time>
      </trkpt>
      <trkpt lat="44.60464" lon="0.84055">
        <ele>146</ele>
        <time>2018-03-03T17:10:20.511Z</time>
      </trkpt>
      <trkpt lat="44.60467" lon="0.84053">
        <ele>146</ele>
        <time>2018-03-03T17:10:21.511Z</time>
      </trkpt>
      <trkpt lat="44.6047" lon="0.84052">
        <ele>146</ele>
        <time>2018-03-03T17:10:22.511Z</time>
      </trkpt>
      <trkpt lat="44.60473" lon="0.84051">
        <ele>146</ele>
        <time>2018-03-03T17:10:23.511Z</time>
      </trkpt>
      <trkpt lat="44.60475" lon="0.8405">
        <ele>146</ele>
        <time>2018-03-03T17:10:24.511Z</time>
      </trkpt>
      <trkpt lat="44.60477" lon="0.84049">
        <ele>146</ele>
        <time>2018-03-03T17:10:25.511Z</time>
      </trkpt>
      <trkpt lat="44.60478" lon="0.84048">
        <ele>146</ele>
        <time>2018-03-03T17:10:26.511Z</time>
      </trkpt>
      <trkpt lat="44.6048" lon="0.84047">
        <ele>146</ele>
        <time>2018-03-03T17:10:27.511Z</time>
      </trkpt>
      <trkpt lat="44.60481" lon="0.84047">
        <ele>146</ele>
        <time>2018-03-03T17:10:28.511Z</time>
      </trkpt>
      <trkpt lat="44.60482" lon="0.84046">
        <ele>146</ele>
        <time>2018-03-03T17:10:29.511Z</time>
      </trkpt>
      <trkpt lat="44.60482" lon="0.84045">
        <ele>146</ele>
        <time>2018-03-03T17:10:30.511Z</time>
      </trkpt>
      <trkpt lat="44.60483" lon="0.84045">
        <ele>146</ele>
        <time>2018-03-03T17:10:31.511Z</time>
      </trkpt>
      <trkpt lat="44.60483" lon="0.84045">
        <ele>146</ele>
        <time>2018-03-03T17:10:32.511Z</time>
      </trkpt>
      <trkpt lat="44.60484" lon="0.84044">
        <ele>146</ele>
        <time>2018-03-03T17:10:33.511Z</time>
      </trkpt>
      <trkpt lat="44.60484" lon="0.84044">
        <ele>146</ele>
        <time>2018-03-03T17:10:34.511Z</time>
      </trkpt>
      <trkpt lat="44.60484" lon="0.84044">
        <ele>146</ele>
        <time>2018-03-03T17:10:35.511Z</time>
      </trkpt>
      <trkpt lat="44.60484" lon="0.84044">
        <ele>146</ele>
        <time>2018-03-03T17:10:36.511Z</time>
      </trkpt>
      <trkpt lat="44.60484" lon="0.84044">
        <ele>146</ele>
        <time>2018-03-03T17:10:37.511Z</time>
      </trkpt>
      <trkpt lat="44.60484" lon="0.84044">
        <ele>147</ele>
        <time>2018-03-03T17:10:38.511Z</time>
      </trkpt>
      <trkpt lat="44.60484" lon="0.84044">
        <ele>147</ele>
        <time>2018-03-03T17:10:39.511Z</time>
      </trkpt>
      <trkpt lat="44.60484" lon="0.84044">
        <ele>147</ele>
        <time>2018-03-03T17:10:40.511Z</time>
      </trkpt>
      <trkpt lat="44.60484" lon="0.84044">
        <ele>147</ele>
        <time>2018-03-03T17:10:41.511Z</time>
      </trkpt>
      <trkpt lat="44.60484" lon="0.84044">
        <ele>147</ele>
        <time>2018-03-03T17:10:42.511Z</time>
      </trkpt>
      <trkpt lat="44.60484" lon="0.84044">
        <ele>146</ele>
        <time>2018-03-03T17:10:43.511Z</time>
      </trkpt>
      <trkpt lat="44.60484" lon="0.84044">
        <ele>146</ele>
        <time>2018-03-03T17:10:44.511Z</time>
      </trkpt>
      <trkpt lat="44.60484" lon="0.84044">
        <ele>146</ele>
        <time>2018-03-03T17:10:45.511Z</time>
      </trkpt>
      <trkpt lat="44.60484" lon="0.84044">
        <ele>146</ele>
        <time>2018-03-03T17:10:46.511Z</time>
      </trkpt>
      <trkpt lat="44.60484" lon="0.84044">
        <ele>146</ele>
        <time>2018-03-03T17:10:47.511Z</time>
      </trkpt>
      <trkpt lat="44.60484" lon="0.84044">
        <ele>146</ele>
        <time>2018-03-03T17:10:48.511Z</time>
      </trkpt>
      <trkpt lat="44.60484" lon="0.84044">
        <ele>146</ele>
        <time>2018-03-03T17:10:49.511Z</time>
      </trkpt>
      <trkpt lat="44.60484" lon="0.84044">
        <ele>146</ele>
        <time>2018-03-03T17:10:50.511Z</time>
      </trkpt>
      <trkpt lat="44.60484" lon="0.84044">
        <ele>146</ele>
        <time>2018-03-03T17:10:51.511Z</time>
      </trkpt>
      <trkpt lat="44.60484" lon="0.84044">
        <ele>146</ele>
        <time>2018-03-03T17:10:52.511Z</time>
      </trkpt>
      <trkpt lat="44.60484" lon="0.84044">
        <ele>146</ele>
        <time>2018-03-03T17:10:53.511Z</time>
      </trkpt>
      <trkpt lat="44.60484" lon="0.84044">
        <ele>146</ele>
        <time>2018-03-03T17:10:54.511Z</time>
      </trkpt>
      <trkpt lat="44.60484" lon="0.84044">
        <ele>146</ele>
        <time>2018-03-03T17:10:55.511Z</time>
      </trkpt>
      <trkpt lat="44.60484" lon="0.84044">
        <ele>146</ele>
        <time>2018-03-03T17:10:56.511Z</time>
      </trkpt>
      <trkpt lat="44.60484" lon="0.84044">
        <ele>146</ele>
        <time>2018-03-03T17:10:57.511Z</time>
      </trkpt>
      <trkpt lat="44.60484" lon="0.84044">
        <ele>146</ele>
        <time>2018-03-03T17:10:58.511Z</time>
      </trkpt>
      <trkpt lat="44.60484" lon="0.84044">
        <ele>146</ele>
        <time>2018-03-03T17:10:59.511Z</time>
      </trkpt>
      <trkpt lat="44.60484" lon="0.84044">
        <ele>146</ele>
        <time>2018-03-03T17:11:00.511Z</time>
      </trkpt>
      <trkpt lat="44.60484" lon="0.84044">
        <ele>146</ele>
        <time>2018-03-03T17:11:01.511Z</time>
      </trkpt>
      <trkpt lat="44.60484" lon="0.84044">
        <ele>146</ele>
        <time>2018-03-03T17:11:02.511Z</time>
      </trkpt>
      <trkpt lat="44.60484" lon="0.84044">
        <ele>146</ele>
        <time>2018-03-03T17:11:03.511Z</time>
      </trkpt>
      <trkpt lat="44.60484" lon="0.84044">
        <ele>146</ele>
        <time>2018-03-03T17:11:04.511Z</time>
      </trkpt>
      <trkpt lat="44.60484" lon="0.84044">
        <ele>146</ele>
        <time>2018-03-03T17:11:05.511Z</time>
      </trkpt>
      <trkpt lat="44.60484" lon="0.84044">
        <ele>146</ele>
        <time>2018-03-03T17:11:06.511Z</time>
      </trkpt>
      <trkpt lat="44.60484" lon="0.84044">
        <ele>146</ele>
        <time>2018-03-03T17:11:07.511Z</time>
      </trkpt>
      <trkpt lat="44.60484" lon="0.84044">
        <ele>146</ele>
        <time>2018-03-03T17:11:08.511Z</time>
      </trkpt>
      <trkpt lat="44.60484" lon="0.84044">
        <ele>146</ele>
        <time>2018-03-03T17:11:09.511Z</time>
      </trkpt>
      <trkpt lat="44.60484" lon="0.84044">
        <ele>146</ele>
        <time>2018-03-03T17:11:10.511Z</time>
      </trkpt>
      <trkpt lat="44.60484" lon="0.84044">
        <ele>146</ele>
        <time>2018-03-03T17:11:11.511Z</time>
      </trkpt>
      <trkpt lat="44.60484" lon="0.84044">
        <ele>146</ele>
        <time>2018-03-03T17:11:12.511Z</time>
      </trkpt>
      <trkpt lat="44.60484" lon="0.84044">
        <ele>146</ele>
        <time>2018-03-03T17:11:13.511Z</time>
      </trkpt>
      <trkpt lat="44.60484" lon="0.84044">
        <ele>146</ele>
        <time>2018-03-03T17:11:14.511Z</time>
      </trkpt>
      <trkpt lat="44.60484" lon="0.84044">
        <ele>146</ele>
        <time>2018-03-03T17:11:15.511Z</time>
      </trkpt>
      <trkpt lat="44.60484" lon="0.84044">
        <ele>146</ele>
        <time>2018-03-03T17:11:16.511Z</time>
      </trkpt>
      <trkpt lat="44.60484" lon="0.84044">
        <ele>146</ele>
        <time>2018-03-03T17:11:17.511Z</time>
      </trkpt>
      <trkpt lat="44.60484" lon="0.84044">
        <ele>146</ele>
        <time>2018-03-03T17:11:18.511Z</time>
      </trkpt>
      <trkpt lat="44.60484" lon="0.84044">
        <ele>146</ele>
        <time>2018-03-03T17:11:19.511Z</time>
      </trkpt>
      <trkpt lat="44.60484" lon="0.84044">
        <ele>146</ele>
        <time>2018-03-03T17:11:20.511Z</time>
      </trkpt>
      <trkpt lat="44.60484" lon="0.84044">
        <ele>146</ele>
        <time>2018-03-03T17:11:21.511Z</time>
      </trkpt>
      <trkpt lat="44.60484" lon="0.84044">
        <ele>146</ele>
        <time>2018-03-03T17:11:22.511Z</time>
      </trkpt>
      <trkpt lat="44.60484" lon="0.84044">
        <ele>146</ele>
        <time>2018-03-03T17:11:23.511Z</time>
      </trkpt>
      <trkpt lat="44.60484" lon="0.84044">
        <ele>146</ele>
        <time>2018-03-03T17:11:24.511Z</time>
      </trkpt>
      <trkpt lat="44.60484" lon="0.84044">
        <ele>146</ele>
        <time>2018-03-03T17:11:25.511Z</time>
      </trkpt>
      <trkpt lat="44.60484" lon="0.84044">
        <ele>146</ele>
        <time>2018-03-03T17:11:26.511Z</time>
      </trkpt>
      <trkpt lat="44.60484" lon="0.84044">
        <ele>146</ele>
        <time>2018-03-03T17:11:27.511Z</time>
      </trkpt>
      <trkpt lat="44.60484" lon="0.84044">
        <ele>146</ele>
        <time>2018-03-03T17:11:28.511Z</time>
      </trkpt>
      <trkpt lat="44.60484" lon="0.84044">
        <ele>146</ele>
        <time>2018-03-03T17:11:29.511Z</time>
      </trkpt>
      <trkpt lat="44.60484" lon="0.84044">
        <ele>146</ele>
        <time>2018-03-03T17:11:30.511Z</time>
      </trkpt>
      <trkpt lat="44.60484" lon="0.84044">
        <ele>146</ele>
        <time>2018-03-03T17:11:31.511Z</time>
      </trkpt>
      <trkpt lat="44.60484" lon="0.84044">
        <ele>146</ele>
        <time>2018-03-03T17:11:32.511Z</time>
      </trkpt>
      <trkpt lat="44.60484" lon="0.84044">
        <ele>146</ele>
        <time>2018-03-03T17:11:33.511Z</time>
      </trkpt>
      <trkpt lat="44.60484" lon="0.84044">
        <ele>146</ele>
        <time>2018-03-03T17:11:34.511Z</time>
      </trkpt>
      <trkpt lat="44.60484" lon="0.84044">
        <ele>146</ele>
        <time>2018-03-03T17:11:35.511Z</time>
      </trkpt>
      <trkpt lat="44.60484" lon="0.84044">
        <ele>146</ele>
        <time>2018-03-03T17:11:36.511Z</time>
      </trkpt>
      <trkpt lat="44.60484" lon="0.84044">
        <ele>147</ele>
        <time>2018-03-03T17:11:37.511Z</time>
      </trkpt>
      <trkpt lat="44.60484" lon="0.84044">
        <ele>147</ele>
        <time>2018-03-03T17:11:38.511Z</time>
      </trkpt>
      <trkpt lat="44.60484" lon="0.84044">
        <ele>146</ele>
        <time>2018-03-03T17:11:39.511Z</time>
      </trkpt>
      <trkpt lat="44.60484" lon="0.84044">
        <ele>146</ele>
        <time>2018-03-03T17:11:40.511Z</time>
      </trkpt>
      <trkpt lat="44.60484" lon="0.84044">
        <ele>146</ele>
        <time>2018-03-03T17:11:41.511Z</time>
      </trkpt>
      <trkpt lat="44.60484" lon="0.84044">
        <ele>146</ele>
        <time>2018-03-03T17:11:42.511Z</time>
      </trkpt>
      <trkpt lat="44.60484" lon="0.84044">
        <ele>146</ele>
        <time>2018-03-03T17:11:43.511Z</time>
      </trkpt>
      <trkpt lat="44.60484" lon="0.84044">
        <ele>146</ele>
        <time>2018-03-03T17:11:44.511Z</time>
      </trkpt>
      <trkpt lat="44.60484" lon="0.84044">
        <ele>146</ele>
        <time>2018-03-03T17:11:45.511Z</time>
      </trkpt>
      <trkpt lat="44.60484" lon="0.84044">
        <ele>146</ele>
        <time>2018-03-03T17:11:46.511Z</time>
      </trkpt>
      <trkpt lat="44.60484" lon="0.84044">
        <ele>146</ele>
        <time>2018-03-03T17:11:47.511Z</time>
      </trkpt>
      <trkpt lat="44.60484" lon="0.84044">
        <ele>146</ele>
        <time>2018-03-03T17:11:48.511Z</time>
      </trkpt>
      <trkpt lat="44.60484" lon="0.84044">
        <ele>146</ele>
        <time>2018-03-03T17:11:49.511Z</time>
      </trkpt>
      <trkpt lat="44.60484" lon="0.84044">
        <ele>146</ele>
        <time>2018-03-03T17:11:50.511Z</time>
      </trkpt>
      <trkpt lat="44.60484" lon="0.84044">
        <ele>146</ele>
        <time>2018-03-03T17:11:51.511Z</time>
      </trkpt>
      <trkpt lat="44.60484" lon="0.84044">
        <ele>146</ele>
        <time>2018-03-03T17:11:52.511Z</time>
      </trkpt>
      <trkpt lat="44.60484" lon="0.84044">
        <ele>146</ele>
        <time>2018-03-03T17:11:53.511Z</time>
      </trkpt>
      <trkpt lat="44.60484" lon="0.84044">
        <ele>146</ele>
        <time>2018-03-03T17:11:54.511Z</time>
      </trkpt>
      <trkpt lat="44.60484" lon="0.84044">
        <ele>146</ele>
        <time>2018-03-03T17:11:55.511Z</time>
      </trkpt>
      <trkpt lat="44.60484" lon="0.84044">
        <ele>146</ele>
        <time>2018-03-03T17:11:56.511Z</time>
      </trkpt>
      <trkpt lat="44.60484" lon="0.84044">
        <ele>146</ele>
        <time>2018-03-03T17:11:57.511Z</time>
      </trkpt>
      <trkpt lat="44.60484" lon="0.84044">
        <ele>146</ele>
        <time>2018-03-03T17:11:58.511Z</time>
      </trkpt>
      <trkpt lat="44.60484" lon="0.84044">
        <ele>146</ele>
        <time>2018-03-03T17:11:59.511Z</time>
      </trkpt>
      <trkpt lat="44.60484" lon="0.84044">
        <ele>146</ele>
        <time>2018-03-03T17:12:00.511Z</time>
      </trkpt>
      <trkpt lat="44.60484" lon="0.84044">
        <ele>146</ele>
        <time>2018-03-03T17:12:01.511Z</time>
      </trkpt>
      <trkpt lat="44.60484" lon="0.84044">
        <ele>146</ele>
        <time>2018-03-03T17:12:02.511Z</time>
      </trkpt>
      <trkpt lat="44.60484" lon="0.84044">
        <ele>146</ele>
        <time>2018-03-03T17:12:03.511Z</time>
      </trkpt>
      <trkpt lat="44.60484" lon="0.84044">
        <ele>146</ele>
        <time>2018-03-03T17:12:04.511Z</time>
      </trkpt>
      <trkpt lat="44.60484" lon="0.84044">
        <ele>146</ele>
        <time>2018-03-03T17:12:05.511Z</time>
      </trkpt>
      <trkpt lat="44.60484" lon="0.84044">
        <ele>146</ele>
        <time>2018-03-03T17:12:06.511Z</time>
      </trkpt>
      <trkpt lat="44.60484" lon="0.84044">
        <ele>146</ele>
        <time>2018-03-03T17:12:07.511Z</time>
      </trkpt>
      <trkpt lat="44.60484" lon="0.84044">
        <ele>146</ele>
        <time>2018-03-03T17:12:08.511Z</time>
      </trkpt>
      <trkpt lat="44.60484" lon="0.84044">
        <ele>146</ele>
        <time>2018-03-03T17:12:09.511Z</time>
      </trkpt>
      <trkpt lat="44.60484" lon="0.84044">
        <ele>146</ele>
        <time>2018-03-03T17:12:10.511Z</time>
      </trkpt>
      <trkpt lat="44.60484" lon="0.84044">
        <ele>146</ele>
        <time>2018-03-03T17:12:11.511Z</time>
      </trkpt>
      <trkpt lat="44.60484" lon="0.84044">
        <ele>146</ele>
        <time>2018-03-03T17:12:12.511Z</time>
      </trkpt>
      <trkpt lat="44.60484" lon="0.84044">
        <ele>146</ele>
        <time>2018-03-03T17:12:13.511Z</time>
      </trkpt>
      <trkpt lat="44.60484" lon="0.84044">
        <ele>146</ele>
        <time>2018-03-03T17:12:14.511Z</time>
      </trkpt>
      <trkpt lat="44.60484" lon="0.84044">
        <ele>146</ele>
        <time>2018-03-03T17:12:15.511Z</time>
      </trkpt>
      <trkpt lat="44.60484" lon="0.84044">
        <ele>146</ele>
        <time>2018-03-03T17:12:16.511Z</time>
      </trkpt>
      <trkpt lat="44.60484" lon="0.84044">
        <ele>146</ele>
        <time>2018-03-03T17:12:17.511Z</time>
      </trkpt>
      <trkpt lat="44.60484" lon="0.84044">
        <ele>146</ele>
        <time>2018-03-03T17:12:18.511Z</time>
      </trkpt>
      <trkpt lat="44.60484" lon="0.84044">
        <ele>146</ele>
        <time>2018-03-03T17:12:19.511Z</time>
      </trkpt>
      <trkpt lat="44.60484" lon="0.84044">
        <ele>146</ele>
        <time>2018-03-03T17:12:20.511Z</time>
      </trkpt>
      <trkpt lat="44.60484" lon="0.84044">
        <ele>146</ele>
        <time>2018-03-03T17:12:21.511Z</time>
      </trkpt>
      <trkpt lat="44.60484" lon="0.84044">
        <ele>146</ele>
        <time>2018-03-03T17:12:22.511Z</time>
      </trkpt>
      <trkpt lat="44.60484" lon="0.84044">
        <ele>146</ele>
        <time>2018-03-03T17:12:23.511Z</time>
      </trkpt>
      <trkpt lat="44.60484" lon="0.84044">
        <ele>146</ele>
        <time>2018-03-03T17:12:24.511Z</time>
      </trkpt>
      <trkpt lat="44.60484" lon="0.84044">
        <ele>146</ele>
        <time>2018-03-03T17:12:25.511Z</time>
      </trkpt>
      <trkpt lat="44.60484" lon="0.84044">
        <ele>146</ele>
        <time>2018-03-03T17:12:26.511Z</time>
      </trkpt>
      <trkpt lat="44.60484" lon="0.84044">
        <ele>146</ele>
        <time>2018-03-03T17:12:27.511Z</time>
      </trkpt>
      <trkpt lat="44.60484" lon="0.84044">
        <ele>146</ele>
        <time>2018-03-03T17:12:28.511Z</time>
      </trkpt>
      <trkpt lat="44.60484" lon="0.84044">
        <ele>146</ele>
        <time>2018-03-03T17:12:29.511Z</time>
      </trkpt>
      <trkpt lat="44.60484" lon="0.84044">
        <ele>146</ele>
        <time>2018-03-03T17:12:30.511Z</time>
      </trkpt>
      <trkpt lat="44.60484" lon="0.84044">
        <ele>146</ele>
        <time>2018-03-03T17:12:31.511Z</time>
      </trkpt>
      <trkpt lat="44.60484" lon="0.84044">
        <ele>146</ele>
        <time>2018-03-03T17:12:32.511Z</time>
      </trkpt>
      <trkpt lat="44.60484" lon="0.84044">
        <ele>146</ele>
        <time>2018-03-03T17:12:33.511Z</time>
      </trkpt>
      <trkpt lat="44.60484" lon="0.84044">
        <ele>146</ele>
        <time>2018-03-03T17:12:34.511Z</time>
      </trkpt>
      <trkpt lat="44.60484" lon="0.84044">
        <ele>146</ele>
        <time>2018-03-03T17:12:35.511Z</time>
      </trkpt>
      <trkpt lat="44.60484" lon="0.84044">
        <ele>146</ele>
        <time>2018-03-03T17:12:36.511Z</time>
      </trkpt>
      <trkpt lat="44.60484" lon="0.84044">
        <ele>146</ele>
        <time>2018-03-03T17:12:37.511Z</time>
      </trkpt>
      <trkpt lat="44.60484" lon="0.84044">
        <ele>146</ele>
        <time>2018-03-03T17:12:38.511Z</time>
      </trkpt>
      <trkpt lat="44.60484" lon="0.84044">
        <ele>146</ele>
        <time>2018-03-03T17:12:39.511Z</time>
      </trkpt>
      <trkpt lat="44.60484" lon="0.84044">
        <ele>146</ele>
        <time>2018-03-03T17:12:40.511Z</time>
      </trkpt>
      <trkpt lat="44.60484" lon="0.84044">
        <ele>146</ele>
        <time>2018-03-03T17:12:41.511Z</time>
      </trkpt>
      <trkpt lat="44.60484" lon="0.84044">
        <ele>146</ele>
        <time>2018-03-03T17:12:42.511Z</time>
      </trkpt>
      <trkpt lat="44.60484" lon="0.84044">
        <ele>146</ele>
        <time>2018-03-03T17:12:43.511Z</time>
      </trkpt>
      <trkpt lat="44.60484" lon="0.84044">
        <ele>146</ele>
        <time>2018-03-03T17:12:44.511Z</time>
      </trkpt>
      <trkpt lat="44.60484" lon="0.84044">
        <ele>146</ele>
        <time>2018-03-03T17:12:45.511Z</time>
      </trkpt>
      <trkpt lat="44.60484" lon="0.84044">
        <ele>146</ele>
        <time>2018-03-03T17:12:46.511Z</time>
      </trkpt>
      <trkpt lat="44.60484" lon="0.84044">
        <ele>146</ele>
        <time>2018-03-03T17:12:47.511Z</time>
      </trkpt>
      <trkpt lat="44.60484" lon="0.84044">
        <ele>146</ele>
        <time>2018-03-03T17:12:48.511Z</time>
      </trkpt>
      <trkpt lat="44.60484" lon="0.84044">
        <ele>146</ele>
        <time>2018-03-03T17:12:49.511Z</time>
      </trkpt>
      <trkpt lat="44.60484" lon="0.84044">
        <ele>146</ele>
        <time>2018-03-03T17:12:50.511Z</time>
      </trkpt>
      <trkpt lat="44.60484" lon="0.84044">
        <ele>146</ele>
        <time>2018-03-03T17:12:51.511Z</time>
      </trkpt>
      <trkpt lat="44.60484" lon="0.84044">
        <ele>146</ele>
        <time>2018-03-03T17:12:52.511Z</time>
      </trkpt>
      <trkpt lat="44.60484" lon="0.84044">
        <ele>146</ele>
        <time>2018-03-03T17:12:53.511Z</time>
      </trkpt>
      <trkpt lat="44.60484" lon="0.84044">
        <ele>146</ele>
        <time>2018-03-03T17:12:54.511Z</time>
      </trkpt>
      <trkpt lat="44.60484" lon="0.84044">
        <ele>146</ele>
        <time>2018-03-03T17:12:55.511Z</time>
      </trkpt>
      <trkpt lat="44.60484" lon="0.84044">
        <ele>147</ele>
        <time>2018-03-03T17:12:56.511Z</time>
      </trkpt>
      <trkpt lat="44.60484" lon="0.84044">
        <ele>147</ele>
        <time>2018-03-03T17:12:57.511Z</time>
      </trkpt>
      <trkpt lat="44.60484" lon="0.84044">
        <ele>147</ele>
        <time>2018-03-03T17:12:58.511Z</time>
      </trkpt>
      <trkpt lat="44.60484" lon="0.84044">
        <ele>147</ele>
        <time>2018-03-03T17:12:59.511Z</time>
      </trkpt>
      <trkpt lat="44.60484" lon="0.84044">
        <ele>146</ele>
        <time>2018-03-03T17:13:00.511Z</time>
      </trkpt>
      <trkpt lat="44.60484" lon="0.84044">
        <ele>146</ele>
        <time>2018-03-03T17:13:01.511Z</time>
      </trkpt>
      <trkpt lat="44.60484" lon="0.84044">
        <ele>146</ele>
        <time>2018-03-03T17:13:02.511Z</time>
      </trkpt>
      <trkpt lat="44.60484" lon="0.84044">
        <ele>147</ele>
        <time>2018-03-03T17:13:03.511Z</time>
      </trkpt>
      <trkpt lat="44.60484" lon="0.84044">
        <ele>147</ele>
        <time>2018-03-03T17:13:04.511Z</time>
      </trkpt>
      <trkpt lat="44.60484" lon="0.84044">
        <ele>147</ele>
        <time>2018-03-03T17:13:05.511Z</time>
      </trkpt>
      <trkpt lat="44.60484" lon="0.84044">
        <ele>147</ele>
        <time>2018-03-03T17:13:06.511Z</time>
      </trkpt>
      <trkpt lat="44.60484" lon="0.84044">
        <ele>147</ele>
        <time>2018-03-03T17:13:07.511Z</time>
      </trkpt>
      <trkpt lat="44.60484" lon="0.84044">
        <ele>146</ele>
        <time>2018-03-03T17:13:08.511Z</time>
      </trkpt>
      <trkpt lat="44.60484" lon="0.84044">
        <ele>146</ele>
        <time>2018-03-03T17:13:09.511Z</time>
      </trkpt>
      <trkpt lat="44.60484" lon="0.84044">
        <ele>146</ele>
        <time>2018-03-03T17:13:10.511Z</time>
      </trkpt>
      <trkpt lat="44.60484" lon="0.84044">
        <ele>146</ele>
        <time>2018-03-03T17:13:11.511Z</time>
      </trkpt>
      <trkpt lat="44.60484" lon="0.84044">
        <ele>146</ele>
        <time>2018-03-03T17:13:12.511Z</time>
      </trkpt>
      <trkpt lat="44.60484" lon="0.84044">
        <ele>146</ele>
        <time>2018-03-03T17:13:13.511Z</time>
      </trkpt>
      <trkpt lat="44.60484" lon="0.84044">
        <ele>146</ele>
        <time>2018-03-03T17:13:14.511Z</time>
      </trkpt>
      <trkpt lat="44.60484" lon="0.84044">
        <ele>146</ele>
        <time>2018-03-03T17:13:15.511Z</time>
      </trkpt>
      <trkpt lat="44.60484" lon="0.84044">
        <ele>146</ele>
        <time>2018-03-03T17:13:16.511Z</time>
      </trkpt>
      <trkpt lat="44.60484" lon="0.84044">
        <ele>146</ele>
        <time>2018-03-03T17:13:17.511Z</time>
      </trkpt>
      <trkpt lat="44.60484" lon="0.84044">
        <ele>146</ele>
        <time>2018-03-03T17:13:18.511Z</time>
      </trkpt>
      <trkpt lat="44.60484" lon="0.84044">
        <ele>146</ele>
        <time>2018-03-03T17:13:19.511Z</time>
      </trkpt>
      <trkpt lat="44.60484" lon="0.84044">
        <ele>146</ele>
        <time>2018-03-03T17:13:20.511Z</time>
      </trkpt>
      <trkpt lat="44.60484" lon="0.84044">
        <ele>146</ele>
        <time>2018-03-03T17:13:21.511Z</time>
      </trkpt>
      <trkpt lat="44.60484" lon="0.84044">
        <ele>146</ele>
        <time>2018-03-03T17:13:22.511Z</time>
      </trkpt>
      <trkpt lat="44.60484" lon="0.84044">
        <ele>146</ele>
        <time>2018-03-03T17:13:23.511Z</time>
      </trkpt>
      <trkpt lat="44.60484" lon="0.84044">
        <ele>146</ele>
        <time>2018-03-03T17:13:24.511Z</time>
      </trkpt>
      <trkpt lat="44.60484" lon="0.84044">
        <ele>146</ele>
        <time>2018-03-03T17:13:25.511Z</time>
      </trkpt>
      <trkpt lat="44.60484" lon="0.84044">
        <ele>146</ele>
        <time>2018-03-03T17:13:26.511Z</time>
      </trkpt>
      <trkpt lat="44.60484" lon="0.84044">
        <ele>146</ele>
        <time>2018-03-03T17:13:27.511Z</time>
      </trkpt>
      <trkpt lat="44.60484" lon="0.84044">
        <ele>146</ele>
        <time>2018-03-03T17:13:28.511Z</time>
      </trkpt>
      <trkpt lat="44.60484" lon="0.84044">
        <ele>146</ele>
        <time>2018-03-03T17:13:29.511Z</time>
      </trkpt>
      <trkpt lat="44.60484" lon="0.84044">
        <ele>147</ele>
        <time>2018-03-03T17:13:30.511Z</time>
      </trkpt>
      <trkpt lat="44.60484" lon="0.84044">
        <ele>147</ele>
        <time>2018-03-03T17:13:31.511Z</time>
      </trkpt>
      <trkpt lat="44.60484" lon="0.84044">
        <ele>147</ele>
        <time>2018-03-03T17:13:32.511Z</time>
      </trkpt>
      <trkpt lat="44.60484" lon="0.84044">
        <ele>147</ele>
        <time>2018-03-03T17:13:33.511Z</time>
      </trkpt>
      <trkpt lat="44.60484" lon="0.84044">
        <ele>147</ele>
        <time>2018-03-03T17:13:34.511Z</time>
      </trkpt>
      <trkpt lat="44.60484" lon="0.84044">
        <ele>147</ele>
        <time>2018-03-03T17:13:35.511Z</time>
      </trkpt>
      <trkpt lat="44.60484" lon="0.84044">
        <ele>147</ele>
        <time>2018-03-03T17:13:36.511Z</time>
      </trkpt>
      <trkpt lat="44.60484" lon="0.84044">
        <ele>147</ele>
        <time>2018-03-03T17:13:37.511Z</time>
      </trkpt>
      <trkpt lat="44.60484" lon="0.84044">
        <ele>147</ele>
        <time>2018-03-03T17:13:38.511Z</time>
      </trkpt>
      <trkpt lat="44.60484" lon="0.84044">
        <ele>147</ele>
        <time>2018-03-03T17:13:39.511Z</time>
      </trkpt>
      <trkpt lat="44.60484" lon="0.84044">
        <ele>146</ele>
        <time>2018-03-03T17:13:40.511Z</time>
      </trkpt>
      <trkpt lat="44.60484" lon="0.84044">
        <ele>146</ele>
        <time>2018-03-03T17:13:41.511Z</time>
      </trkpt>
      <trkpt lat="44.60484" lon="0.84044">
        <ele>146</ele>
        <time>2018-03-03T17:13:42.511Z</time>
      </trkpt>
      <trkpt lat="44.60484" lon="0.84044">
        <ele>146</ele>
        <time>2018-03-03T17:13:43.511Z</time>
      </trkpt>
      <trkpt lat="44.60484" lon="0.84044">
        <ele>146</ele>
        <time>2018-03-03T17:13:44.511Z</time>
      </trkpt>
      <trkpt lat="44.60484" lon="0.84044">
        <ele>146</ele>
        <time>2018-03-03T17:13:45.511Z</time>
      </trkpt>
      <trkpt lat="44.60484" lon="0.84044">
        <ele>146</ele>
        <time>2018-03-03T17:13:46.511Z</time>
      </trkpt>
      <trkpt lat="44.60484" lon="0.84044">
        <ele>146</ele>
        <time>2018-03-03T17:13:47.511Z</time>
      </trkpt>
      <trkpt lat="44.60484" lon="0.84044">
        <ele>146</ele>
        <time>2018-03-03T17:13:48.511Z</time>
      </trkpt>
      <trkpt lat="44.60484" lon="0.84044">
        <ele>146</ele>
        <time>2018-03-03T17:13:49.511Z</time>
      </trkpt>
      <trkpt lat="44.60484" lon="0.84044">
        <ele>146</ele>
        <time>2018-03-03T17:13:50.511Z</time>
      </trkpt>
      <trkpt lat="44.60484" lon="0.84044">
        <ele>146</ele>
        <time>2018-03-03T17:13:51.511Z</time>
      </trkpt>
      <trkpt lat="44.60484" lon="0.84044">
        <ele>146</ele>
        <time>2018-03-03T17:13:52.511Z</time>
      </trkpt>
      <trkpt lat="44.60484" lon="0.84044">
        <ele>146</ele>
        <time>2018-03-03T17:13:53.511Z</time>
      </trkpt>
      <trkpt lat="44.60484" lon="0.84044">
        <ele>146</ele>
        <time>2018-03-03T17:13:54.511Z</time>
      </trkpt>
      <trkpt lat="44.60484" lon="0.84044">
        <ele>146</ele>
        <time>2018-03-03T17:13:55.511Z</time>
      </trkpt>
      <trkpt lat="44.60484" lon="0.84044">
        <ele>146</ele>
        <time>2018-03-03T17:13:56.511Z</time>
      </trkpt>
      <trkpt lat="44.60484" lon="0.84044">
        <ele>146</ele>
        <time>2018-03-03T17:13:57.511Z</time>
      </trkpt>
      <trkpt lat="44.60484" lon="0.84044">
        <ele>146</ele>
        <time>2018-03-03T17:13:58.511Z</time>
      </trkpt>
      <trkpt lat="44.60484" lon="0.84044">
        <ele>146</ele>
        <time>2018-03-03T17:13:59.511Z</time>
      </trkpt>
      <trkpt lat="44.60484" lon="0.84044">
        <ele>146</ele>
        <time>2018-03-03T17:14:00.511Z</time>
      </trkpt>
      <trkpt lat="44.60484" lon="0.84044">
        <ele>146</ele>
        <time>2018-03-03T17:14:01.511Z</time>
      </trkpt>
      <trkpt lat="44.60484" lon="0.84044">
        <ele>146</ele>
        <time>2018-03-03T17:14:02.511Z</time>
      </trkpt>
      <trkpt lat="44.60484" lon="0.84044">
        <ele>146</ele>
        <time>2018-03-03T17:14:03.511Z</time>
      </trkpt>
      <trkpt lat="44.60484" lon="0.84044">
        <ele>146</ele>
        <time>2018-03-03T17:14:04.511Z</time>
      </trkpt>
      <trkpt lat="44.60484" lon="0.84044">
        <ele>146</ele>
        <time>2018-03-03T17:14:05.511Z</time>
      </trkpt>
      <trkpt lat="44.60484" lon="0.84044">
        <ele>146</ele>
        <time>2018-03-03T17:14:06.511Z</time>
      </trkpt>
      <trkpt lat="44.60484" lon="0.84044">
        <ele>146</ele>
        <time>2018-03-03T17:14:07.511Z</time>
      </trkpt>
      <trkpt lat="44.60484" lon="0.84044">
        <ele>146</ele>
        <time>2018-03-03T17:14:08.511Z</time>
      </trkpt>
      <trkpt lat="44.60484" lon="0.84044">
        <ele>146</ele>
        <time>2018-03-03T17:14:09.511Z</time>
      </trkpt>
      <trkpt lat="44.60484" lon="0.84044">
        <ele>146</ele>
        <time>2018-03-03T17:14:10.511Z</time>
      </trkpt>
      <trkpt lat="44.60484" lon="0.84044">
        <ele>146</ele>
        <time>2018-03-03T17:14:11.511Z</time>
      </trkpt>
      <trkpt lat="44.60484" lon="0.84044">
        <ele>146</ele>
        <time>2018-03-03T17:14:12.511Z</time>
      </trkpt>
      <trkpt lat="44.60484" lon="0.84044">
        <ele>146</ele>
        <time>2018-03-03T17:14:13.511Z</time>
      </trkpt>
      <trkpt lat="44.60484" lon="0.84044">
        <ele>147</ele>
        <time>2018-03-03T17:14:14.511Z</time>
      </trkpt>
      <trkpt lat="44.60484" lon="0.84044">
        <ele>147</ele>
        <time>2018-03-03T17:14:15.511Z</time>
      </trkpt>
      <trkpt lat="44.60484" lon="0.84044">
        <ele>147</ele>
        <time>2018-03-03T17:14:16.511Z</time>
      </trkpt>
      <trkpt lat="44.60484" lon="0.84044">
        <ele>147</ele>
        <time>2018-03-03T17:14:17.511Z</time>
      </trkpt>
      <trkpt lat="44.60484" lon="0.84044">
        <ele>147</ele>
        <time>2018-03-03T17:14:18.511Z</time>
      </trkpt>
      <trkpt lat="44.60484" lon="0.84044">
        <ele>147</ele>
        <time>2018-03-03T17:14:19.511Z</time>
      </trkpt>
      <trkpt lat="44.60484" lon="0.84044">
        <ele>147</ele>
        <time>2018-03-03T17:14:20.511Z</time>
      </trkpt>
      <trkpt lat="44.60484" lon="0.84044">
        <ele>147</ele>
        <time>2018-03-03T17:14:21.511Z</time>
      </trkpt>
      <trkpt lat="44.60484" lon="0.84044">
        <ele>147</ele>
        <time>2018-03-03T17:14:22.511Z</time>
      </trkpt>
      <trkpt lat="44.60484" lon="0.84044">
        <ele>147</ele>
        <time>2018-03-03T17:14:23.511Z</time>
      </trkpt>
      <trkpt lat="44.60484" lon="0.84044">
        <ele>147</ele>
        <time>2018-03-03T17:14:24.511Z</time>
      </trkpt>
      <trkpt lat="44.60484" lon="0.84044">
        <ele>147</ele>
        <time>2018-03-03T17:14:25.511Z</time>
      </trkpt>
      <trkpt lat="44.60484" lon="0.84044">
        <ele>147</ele>
        <time>2018-03-03T17:14:26.511Z</time>
      </trkpt>
      <trkpt lat="44.60484" lon="0.84044">
        <ele>147</ele>
        <time>2018-03-03T17:14:27.511Z</time>
      </trkpt>
      <trkpt lat="44.60484" lon="0.84044">
        <ele>146</ele>
        <time>2018-03-03T17:14:28.511Z</time>
      </trkpt>
      <trkpt lat="44.60484" lon="0.84044">
        <ele>146</ele>
        <time>2018-03-03T17:14:29.511Z</time>
      </trkpt>
      <trkpt lat="44.60484" lon="0.84044">
        <ele>146</ele>
        <time>2018-03-03T17:14:30.511Z</time>
      </trkpt>
      <trkpt lat="44.60484" lon="0.84044">
        <ele>146</ele>
        <time>2018-03-03T17:14:31.511Z</time>
      </trkpt>
      <trkpt lat="44.60484" lon="0.84044">
        <ele>146</ele>
        <time>2018-03-03T17:14:32.511Z</time>
      </trkpt>
      <trkpt lat="44.60484" lon="0.84044">
        <ele>146</ele>
        <time>2018-03-03T17:14:33.511Z</time>
      </trkpt>
      <trkpt lat="44.60484" lon="0.84044">
        <ele>146</ele>
        <time>2018-03-03T17:14:34.511Z</time>
      </trkpt>
      <trkpt lat="44.60484" lon="0.84044">
        <ele>146</ele>
        <time>2018-03-03T17:14:35.511Z</time>
      </trkpt>
      <trkpt lat="44.60484" lon="0.84044">
        <ele>146</ele>
        <time>2018-03-03T17:14:36.511Z</time>
      </trkpt>
      <trkpt lat="44.60484" lon="0.84044">
        <ele>146</ele>
        <time>2018-03-03T17:14:37.511Z</time>
      </trkpt>
      <trkpt lat="44.60484" lon="0.84044">
        <ele>146</ele>
        <time>2018-03-03T17:14:38.511Z</time>
      </trkpt>
      <trkpt lat="44.60484" lon="0.84044">
        <ele>146</ele>
        <time>2018-03-03T17:14:39.511Z</time>
      </trkpt>
      <trkpt lat="44.60484" lon="0.84044">
        <ele>146</ele>
        <time>2018-03-03T17:14:40.511Z</time>
      </trkpt>
      <trkpt lat="44.60484" lon="0.84044">
        <ele>146</ele>
        <time>2018-03-03T17:14:41.511Z</time>
      </trkpt>
      <trkpt lat="44.60484" lon="0.84044">
        <ele>146</ele>
        <time>2018-03-03T17:14:42.511Z</time>
      </trkpt>
      <trkpt lat="44.60484" lon="0.84044">
        <ele>146</ele>
        <time>2018-03-03T17:14:43.511Z</time>
      </trkpt>
      <trkpt lat="44.60484" lon="0.84044">
        <ele>146</ele>
        <time>2018-03-03T17:14:44.511Z</time>
      </trkpt>
      <trkpt lat="44.60484" lon="0.84044">
        <ele>146</ele>
        <time>2018-03-03T17:14:45.511Z</time>
      </trkpt>
      <trkpt lat="44.60484" lon="0.84044">
        <ele>146</ele>
        <time>2018-03-03T17:14:46.511Z</time>
      </trkpt>
      <trkpt lat="44.60484" lon="0.84044">
        <ele>146</ele>
        <time>2018-03-03T17:14:47.511Z</time>
      </trkpt>
      <trkpt lat="44.60484" lon="0.84044">
        <ele>147</ele>
        <time>2018-03-03T17:14:48.511Z</time>
      </trkpt>
      <trkpt lat="44.60484" lon="0.84044">
        <ele>147</ele>
        <time>2018-03-03T17:14:49.511Z</time>
      </trkpt>
      <trkpt lat="44.60484" lon="0.84044">
        <ele>147</ele>
        <time>2018-03-03T17:14:50.511Z</time>
      </trkpt>
      <trkpt lat="44.60484" lon="0.84044">
        <ele>147</ele>
        <time>2018-03-03T17:14:51.511Z</time>
      </trkpt>
      <trkpt lat="44.60484" lon="0.84044">
        <ele>147</ele>
        <time>2018-03-03T17:14:52.511Z</time>
      </trkpt>
      <trkpt lat="44.60484" lon="0.84044">
        <ele>147</ele>
        <time>2018-03-03T17:14:53.511Z</time>
      </trkpt>
      <trkpt lat="44.60484" lon="0.84044">
        <ele>147</ele>
        <time>2018-03-03T17:14:54.511Z</time>
      </trkpt>
      <trkpt lat="44.60484" lon="0.84044">
        <ele>147</ele>
        <time>2018-03-03T17:14:55.511Z</time>
      </trkpt>
      <trkpt lat="44.60484" lon="0.84044">
        <ele>147</ele>
        <time>2018-03-03T17:14:56.511Z</time>
      </trkpt>
      <trkpt lat="44.60484" lon="0.84044">
        <ele>147</ele>
        <time>2018-03-03T17:14:57.511Z</time>
      </trkpt>
      <trkpt lat="44.60484" lon="0.84044">
        <ele>147</ele>
        <time>2018-03-03T17:14:58.511Z</time>
      </trkpt>
      <trkpt lat="44.60484" lon="0.84044">
        <ele>147</ele>
        <time>2018-03-03T17:14:59.511Z</time>
      </trkpt>
      <trkpt lat="44.60484" lon="0.84044">
        <ele>147</ele>
        <time>2018-03-03T17:15:00.511Z</time>
      </trkpt>
      <trkpt lat="44.60485" lon="0.84044">
        <ele>147</ele>
        <time>2018-03-03T17:15:01.511Z</time>
      </trkpt>
      <trkpt lat="44.60486" lon="0.84044">
        <ele>147</ele>
        <time>2018-03-03T17:15:02.511Z</time>
      </trkpt>
      <trkpt lat="44.60487" lon="0.84044">
        <ele>147</ele>
        <time>2018-03-03T17:15:03.511Z</time>
      </trkpt>
      <trkpt lat="44.60488" lon="0.84043">
        <ele>147</ele>
        <time>2018-03-03T17:15:04.511Z</time>
      </trkpt>
      <trkpt lat="44.60488" lon="0.84043">
        <ele>147</ele>
        <time>2018-03-03T17:15:05.511Z</time>
      </trkpt>
      <trkpt lat="44.60489" lon="0.84043">
        <ele>147</ele>
        <time>2018-03-03T17:15:06.511Z</time>
      </trkpt>
      <trkpt lat="44.60489" lon="0.84043">
        <ele>147</ele>
        <time>2018-03-03T17:15:07.511Z</time>
      </trkpt>
      <trkpt lat="44.60489" lon="0.84043">
        <ele>147</ele>
        <time>2018-03-03T17:15:08.511Z</time>
      </trkpt>
      <trkpt lat="44.6049" lon="0.84043">
        <ele>147</ele>
        <time>2018-03-03T17:15:09.511Z</time>
      </trkpt>
      <trkpt lat="44.6049" lon="0.84043">
        <ele>147</ele>
        <time>2018-03-03T17:15:10.511Z</time>
      </trkpt>
      <trkpt lat="44.6049" lon="0.84043">
        <ele>147</ele>
        <time>2018-03-03T17:15:11.511Z</time>
      </trkpt>
      <trkpt lat="44.6049" lon="0.84043">
        <ele>147</ele>
        <time>2018-03-03T17:15:12.511Z</time>
      </trkpt>
      <trkpt lat="44.6049" lon="0.84043">
        <ele>147</ele>
        <time>2018-03-03T17:15:13.511Z</time>
      </trkpt>
      <trkpt lat="44.6049" lon="0.84043">
        <ele>147</ele>
        <time>2018-03-03T17:15:14.511Z</time>
      </trkpt>
      <trkpt lat="44.6049" lon="0.84043">
        <ele>147</ele>
        <time>2018-03-03T17:15:15.511Z</time>
      </trkpt>
      <trkpt lat="44.6049" lon="0.84043">
        <ele>147</ele>
        <time>2018-03-03T17:15:16.511Z</time>
      </trkpt>
      <trkpt lat="44.6049" lon="0.84043">
        <ele>147</ele>
        <time>2018-03-03T17:15:17.511Z</time>
      </trkpt>
      <trkpt lat="44.6049" lon="0.84043">
        <ele>147</ele>
        <time>2018-03-03T17:15:18.511Z</time>
      </trkpt>
      <trkpt lat="44.6049" lon="0.84043">
        <ele>147</ele>
        <time>2018-03-03T17:15:19.511Z</time>
      </trkpt>
      <trkpt lat="44.6049" lon="0.84043">
        <ele>147</ele>
        <time>2018-03-03T17:15:20.511Z</time>
      </trkpt>
      <trkpt lat="44.6049" lon="0.84043">
        <ele>147</ele>
        <time>2018-03-03T17:15:21.511Z</time>
      </trkpt>
      <trkpt lat="44.6049" lon="0.84043">
        <ele>147</ele>
        <time>2018-03-03T17:15:22.511Z</time>
      </trkpt>
      <trkpt lat="44.6049" lon="0.84043">
        <ele>147</ele>
        <time>2018-03-03T17:15:23.511Z</time>
      </trkpt>
      <trkpt lat="44.6049" lon="0.84043">
        <ele>147</ele>
        <time>2018-03-03T17:15:24.511Z</time>
      </trkpt>
      <trkpt lat="44.6049" lon="0.84043">
        <ele>147</ele>
        <time>2018-03-03T17:15:25.511Z</time>
      </trkpt>
      <trkpt lat="44.6049" lon="0.84043">
        <ele>147</ele>
        <time>2018-03-03T17:15:26.511Z</time>
      </trkpt>
      <trkpt lat="44.6049" lon="0.84043">
        <ele>147</ele>
        <time>2018-03-03T17:15:27.511Z</time>
      </trkpt>
      <trkpt lat="44.6049" lon="0.84043">
        <ele>147</ele>
        <time>2018-03-03T17:15:28.511Z</time>
      </trkpt>
      <trkpt lat="44.6049" lon="0.84043">
        <ele>147</ele>
        <time>2018-03-03T17:15:29.511Z</time>
      </trkpt>
      <trkpt lat="44.6049" lon="0.84043">
        <ele>147</ele>
        <time>2018-03-03T17:15:30.511Z</time>
      </trkpt>
      <trkpt lat="44.6049" lon="0.84043">
        <ele>147</ele>
        <time>2018-03-03T17:15:31.511Z</time>
      </trkpt>
      <trkpt lat="44.6049" lon="0.84043">
        <ele>147</ele>
        <time>2018-03-03T17:15:32.511Z</time>
      </trkpt>
      <trkpt lat="44.6049" lon="0.84043">
        <ele>147</ele>
        <time>2018-03-03T17:15:33.511Z</time>
      </trkpt>
      <trkpt lat="44.6049" lon="0.84043">
        <ele>147</ele>
        <time>2018-03-03T17:15:34.511Z</time>
      </trkpt>
      <trkpt lat="44.6049" lon="0.84043">
        <ele>147</ele>
        <time>2018-03-03T17:15:35.511Z</time>
      </trkpt>
      <trkpt lat="44.6049" lon="0.84043">
        <ele>147</ele>
        <time>2018-03-03T17:15:36.511Z</time>
      </trkpt>
      <trkpt lat="44.6049" lon="0.84043">
        <ele>147</ele>
        <time>2018-03-03T17:15:37.511Z</time>
      </trkpt>
      <trkpt lat="44.6049" lon="0.84043">
        <ele>147</ele>
        <time>2018-03-03T17:15:38.511Z</time>
      </trkpt>
      <trkpt lat="44.6049" lon="0.84043">
        <ele>147</ele>
        <time>2018-03-03T17:15:39.511Z</time>
      </trkpt>
      <trkpt lat="44.6049" lon="0.84043">
        <ele>147</ele>
        <time>2018-03-03T17:15:40.511Z</time>
      </trkpt>
      <trkpt lat="44.6049" lon="0.84043">
        <ele>147</ele>
        <time>2018-03-03T17:15:41.511Z</time>
      </trkpt>
      <trkpt lat="44.6049" lon="0.84043">
        <ele>147</ele>
        <time>2018-03-03T17:15:42.511Z</time>
      </trkpt>
      <trkpt lat="44.6049" lon="0.84043">
        <ele>147</ele>
        <time>2018-03-03T17:15:43.511Z</time>
      </trkpt>
      <trkpt lat="44.6049" lon="0.84043">
        <ele>147</ele>
        <time>2018-03-03T17:15:44.511Z</time>
      </trkpt>
      <trkpt lat="44.6049" lon="0.84043">
        <ele>147</ele>
        <time>2018-03-03T17:15:45.511Z</time>
      </trkpt>
      <trkpt lat="44.6049" lon="0.84043">
        <ele>147</ele>
        <time>2018-03-03T17:15:46.511Z</time>
      </trkpt>
      <trkpt lat="44.6049" lon="0.84043">
        <ele>147</ele>
        <time>2018-03-03T17:15:47.511Z</time>
      </trkpt>
      <trkpt lat="44.6049" lon="0.84043">
        <ele>147</ele>
        <time>2018-03-03T17:15:48.511Z</time>
      </trkpt>
      <trkpt lat="44.6049" lon="0.84043">
        <ele>147</ele>
        <time>2018-03-03T17:15:49.511Z</time>
      </trkpt>
      <trkpt lat="44.6049" lon="0.84043">
        <ele>147</ele>
        <time>2018-03-03T17:15:50.511Z</time>
      </trkpt>
      <trkpt lat="44.6049" lon="0.84043">
        <ele>147</ele>
        <time>2018-03-03T17:15:51.511Z</time>
      </trkpt>
      <trkpt lat="44.6049" lon="0.84043">
        <ele>147</ele>
        <time>2018-03-03T17:15:52.511Z</time>
      </trkpt>
      <trkpt lat="44.6049" lon="0.84043">
        <ele>147</ele>
        <time>2018-03-03T17:15:53.511Z</time>
      </trkpt>
      <trkpt lat="44.6049" lon="0.84043">
        <ele>147</ele>
        <time>2018-03-03T17:15:54.511Z</time>
      </trkpt>
      <trkpt lat="44.6049" lon="0.84043">
        <ele>147</ele>
        <time>2018-03-03T17:15:55.511Z</time>
      </trkpt>
      <trkpt lat="44.6049" lon="0.84043">
        <ele>147</ele>
        <time>2018-03-03T17:15:56.511Z</time>
      </trkpt>
      <trkpt lat="44.6049" lon="0.84043">
        <ele>147</ele>
        <time>2018-03-03T17:15:57.511Z</time>
      </trkpt>
      <trkpt lat="44.6049" lon="0.84043">
        <ele>147</ele>
        <time>2018-03-03T17:15:58.511Z</time>
      </trkpt>
      <trkpt lat="44.6049" lon="0.84043">
        <ele>147</ele>
        <time>2018-03-03T17:15:59.511Z</time>
      </trkpt>
      <trkpt lat="44.6049" lon="0.84043">
        <ele>147</ele>
        <time>2018-03-03T17:16:00.511Z</time>
      </trkpt>
      <trkpt lat="44.6049" lon="0.84043">
        <ele>147</ele>
        <time>2018-03-03T17:16:01.511Z</time>
      </trkpt>
      <trkpt lat="44.6049" lon="0.84043">
        <ele>147</ele>
        <time>2018-03-03T17:16:02.511Z</time>
      </trkpt>
      <trkpt lat="44.6049" lon="0.84043">
        <ele>147</ele>
        <time>2018-03-03T17:16:03.511Z</time>
      </trkpt>
      <trkpt lat="44.6049" lon="0.84043">
        <ele>147</ele>
        <time>2018-03-03T17:16:04.511Z</time>
      </trkpt>
      <trkpt lat="44.6049" lon="0.84043">
        <ele>147</ele>
        <time>2018-03-03T17:16:05.511Z</time>
      </trkpt>
      <trkpt lat="44.6049" lon="0.84043">
        <ele>147</ele>
        <time>2018-03-03T17:16:06.511Z</time>
      </trkpt>
      <trkpt lat="44.6049" lon="0.84043">
        <ele>147</ele>
        <time>2018-03-03T17:16:07.511Z</time>
      </trkpt>
      <trkpt lat="44.6049" lon="0.84043">
        <ele>147</ele>
        <time>2018-03-03T17:16:08.511Z</time>
      </trkpt>
      <trkpt lat="44.6049" lon="0.84043">
        <ele>147</ele>
        <time>2018-03-03T17:16:09.511Z</time>
      </trkpt>
      <trkpt lat="44.6049" lon="0.84043">
        <ele>147</ele>
        <time>2018-03-03T17:16:10.511Z</time>
      </trkpt>
      <trkpt lat="44.6049" lon="0.84043">
        <ele>147</ele>
        <time>2018-03-03T17:16:11.511Z</time>
      </trkpt>
      <trkpt lat="44.6049" lon="0.84043">
        <ele>147</ele>
        <time>2018-03-03T17:16:12.511Z</time>
      </trkpt>
      <trkpt lat="44.6049" lon="0.84043">
        <ele>147</ele>
        <time>2018-03-03T17:16:13.511Z</time>
      </trkpt>
      <trkpt lat="44.6049" lon="0.84043">
        <ele>147</ele>
        <time>2018-03-03T17:16:14.511Z</time>
      </trkpt>
      <trkpt lat="44.6049" lon="0.84043">
        <ele>147</ele>
        <time>2018-03-03T17:16:15.511Z</time>
      </trkpt>
      <trkpt lat="44.6049" lon="0.84043">
        <ele>147</ele>
        <time>2018-03-03T17:16:16.511Z</time>
      </trkpt>
      <trkpt lat="44.6049" lon="0.84043">
        <ele>147</ele>
        <time>2018-03-03T17:16:17.511Z</time>
      </trkpt>
      <trkpt lat="44.6049" lon="0.84043">
        <ele>147</ele>
        <time>2018-03-03T17:16:18.511Z</time>
      </trkpt>
      <trkpt lat="44.6049" lon="0.84043">
        <ele>147</ele>
        <time>2018-03-03T17:16:19.511Z</time>
      </trkpt>
      <trkpt lat="44.6049" lon="0.84043">
        <ele>147</ele>
        <time>2018-03-03T17:16:20.511Z</time>
      </trkpt>
      <trkpt lat="44.6049" lon="0.84043">
        <ele>147</ele>
        <time>2018-03-03T17:16:21.511Z</time>
      </trkpt>
      <trkpt lat="44.6049" lon="0.84043">
        <ele>147</ele>
        <time>2018-03-03T17:16:22.511Z</time>
      </trkpt>
      <trkpt lat="44.6049" lon="0.84043">
        <ele>147</ele>
        <time>2018-03-03T17:16:23.511Z</time>
      </trkpt>
      <trkpt lat="44.6049" lon="0.84043">
        <ele>147</ele>
        <time>2018-03-03T17:16:24.511Z</time>
      </trkpt>
      <trkpt lat="44.6049" lon="0.84043">
        <ele>147</ele>
        <time>2018-03-03T17:16:25.511Z</time>
      </trkpt>
      <trkpt lat="44.6049" lon="0.84043">
        <ele>147</ele>
        <time>2018-03-03T17:16:26.511Z</time>
      </trkpt>
      <trkpt lat="44.6049" lon="0.84043">
        <ele>147</ele>
        <time>2018-03-03T17:16:27.511Z</time>
      </trkpt>
      <trkpt lat="44.6049" lon="0.84043">
        <ele>147</ele>
        <time>2018-03-03T17:16:28.511Z</time>
      </trkpt>
      <trkpt lat="44.6049" lon="0.84043">
        <ele>147</ele>
        <time>2018-03-03T17:16:29.511Z</time>
      </trkpt>
      <trkpt lat="44.6049" lon="0.84043">
        <ele>147</ele>
        <time>2018-03-03T17:16:30.511Z</time>
      </trkpt>
      <trkpt lat="44.6049" lon="0.84043">
        <ele>147</ele>
        <time>2018-03-03T17:16:31.511Z</time>
      </trkpt>
      <trkpt lat="44.6049" lon="0.84043">
        <ele>147</ele>
        <time>2018-03-03T17:16:32.511Z</time>
      </trkpt>
      <trkpt lat="44.6049" lon="0.84043">
        <ele>147</ele>
        <time>2018-03-03T17:16:33.511Z</time>
      </trkpt>
      <trkpt lat="44.6049" lon="0.84043">
        <ele>147</ele>
        <time>2018-03-03T17:16:34.511Z</time>
      </trkpt>
      <trkpt lat="44.6049" lon="0.84043">
        <ele>147</ele>
        <time>2018-03-03T17:16:35.511Z</time>
      </trkpt>
      <trkpt lat="44.6049" lon="0.84043">
        <ele>147</ele>
        <time>2018-03-03T17:16:36.511Z</time>
      </trkpt>
      <trkpt lat="44.6049" lon="0.84043">
        <ele>147</ele>
        <time>2018-03-03T17:16:37.511Z</time>
      </trkpt>
      <trkpt lat="44.6049" lon="0.84043">
        <ele>147</ele>
        <time>2018-03-03T17:16:38.511Z</time>
      </trkpt>
      <trkpt lat="44.6049" lon="0.84043">
        <ele>147</ele>
        <time>2018-03-03T17:16:39.511Z</time>
      </trkpt>
      <trkpt lat="44.6049" lon="0.84043">
        <ele>147</ele>
        <time>2018-03-03T17:16:40.511Z</time>
      </trkpt>
      <trkpt lat="44.6049" lon="0.84043">
        <ele>147</ele>
        <time>2018-03-03T17:16:41.511Z</time>
      </trkpt>
      <trkpt lat="44.6049" lon="0.84043">
        <ele>147</ele>
        <time>2018-03-03T17:16:42.511Z</time>
      </trkpt>
      <trkpt lat="44.6049" lon="0.84043">
        <ele>147</ele>
        <time>2018-03-03T17:16:43.511Z</time>
      </trkpt>
      <trkpt lat="44.6049" lon="0.84043">
        <ele>147</ele>
        <time>2018-03-03T17:16:44.511Z</time>
      </trkpt>
      <trkpt lat="44.6049" lon="0.84043">
        <ele>147</ele>
        <time>2018-03-03T17:16:45.511Z</time>
      </trkpt>
      <trkpt lat="44.6049" lon="0.84043">
        <ele>147</ele>
        <time>2018-03-03T17:16:46.511Z</time>
      </trkpt>
      <trkpt lat="44.6049" lon="0.84043">
        <ele>147</ele>
        <time>2018-03-03T17:16:47.511Z</time>
      </trkpt>
      <trkpt lat="44.6049" lon="0.84043">
        <ele>147</ele>
        <time>2018-03-03T17:16:48.511Z</time>
      </trkpt>
      <trkpt lat="44.6049" lon="0.84043">
        <ele>147</ele>
        <time>2018-03-03T17:16:49.511Z</time>
      </trkpt>
      <trkpt lat="44.6049" lon="0.84043">
        <ele>147</ele>
        <time>2018-03-03T17:16:50.511Z</time>
      </trkpt>
      <trkpt lat="44.6049" lon="0.84043">
        <ele>147</ele>
        <time>2018-03-03T17:16:51.511Z</time>
      </trkpt>
      <trkpt lat="44.60491" lon="0.84044">
        <ele>147</ele>
        <time>2018-03-03T17:16:52.511Z</time>
      </trkpt>
      <trkpt lat="44.60493" lon="0.84047">
        <ele>147</ele>
        <time>2018-03-03T17:16:53.511Z</time>
      </trkpt>
      <trkpt lat="44.60494" lon="0.84049">
        <ele>147</ele>
        <time>2018-03-03T17:16:54.511Z</time>
      </trkpt>
      <trkpt lat="44.60495" lon="0.84052">
        <ele>147</ele>
        <time>2018-03-03T17:16:55.511Z</time>
      </trkpt>
      <trkpt lat="44.60495" lon="0.84054">
        <ele>147</ele>
        <time>2018-03-03T17:16:56.511Z</time>
      </trkpt>
      <trkpt lat="44.60496" lon="0.84056">
        <ele>147</ele>
        <time>2018-03-03T17:16:57.511Z</time>
      </trkpt>
      <trkpt lat="44.60496" lon="0.84059">
        <ele>147</ele>
        <time>2018-03-03T17:16:58.511Z</time>
      </trkpt>
      <trkpt lat="44.60497" lon="0.84062">
        <ele>147</ele>
        <time>2018-03-03T17:16:59.511Z</time>
      </trkpt>
      <trkpt lat="44.60498" lon="0.84065">
        <ele>147</ele>
        <time>2018-03-03T17:17:00.511Z</time>
      </trkpt>
      <trkpt lat="44.60499" lon="0.84069">
        <ele>147</ele>
        <time>2018-03-03T17:17:01.511Z</time>
      </trkpt>
      <trkpt lat="44.60501" lon="0.84072">
        <ele>147</ele>
        <time>2018-03-03T17:17:02.511Z</time>
      </trkpt>
      <trkpt lat="44.60503" lon="0.84076">
        <ele>147</ele>
        <time>2018-03-03T17:17:03.511Z</time>
      </trkpt>
      <trkpt lat="44.60505" lon="0.84079">
        <ele>147</ele>
        <time>2018-03-03T17:17:04.511Z</time>
      </trkpt>
      <trkpt lat="44.60508" lon="0.84083">
        <ele>147</ele>
        <time>2018-03-03T17:17:05.511Z</time>
      </trkpt>
      <trkpt lat="44.60511" lon="0.84086">
        <ele>146</ele>
        <time>2018-03-03T17:17:06.511Z</time>
      </trkpt>
      <trkpt lat="44.60515" lon="0.84089">
        <ele>146</ele>
        <time>2018-03-03T17:17:07.511Z</time>
      </trkpt>
      <trkpt lat="44.60519" lon="0.84093">
        <ele>146</ele>
        <time>2018-03-03T17:17:08.511Z</time>
      </trkpt>
      <trkpt lat="44.60524" lon="0.84096">
        <ele>146</ele>
        <time>2018-03-03T17:17:09.511Z</time>
      </trkpt>
      <trkpt lat="44.60529" lon="0.841">
        <ele>145</ele>
        <time>2018-03-03T17:17:10.511Z</time>
      </trkpt>
      <trkpt lat="44.60534" lon="0.84103">
        <ele>145</ele>
        <time>2018-03-03T17:17:11.511Z</time>
      </trkpt>
      <trkpt lat="44.6054" lon="0.84106">
        <ele>145</ele>
        <time>2018-03-03T17:17:12.511Z</time>
      </trkpt>
      <trkpt lat="44.60546" lon="0.8411">
        <ele>145</ele>
        <time>2018-03-03T17:17:13.511Z</time>
      </trkpt>
      <trkpt lat="44.60552" lon="0.84113">
        <ele>144</ele>
        <time>2018-03-03T17:17:14.511Z</time>
      </trkpt>
      <trkpt lat="44.60558" lon="0.84117">
        <ele>144</ele>
        <time>2018-03-03T17:17:15.511Z</time>
      </trkpt>
      <trkpt lat="44.60564" lon="0.84121">
        <ele>143</ele>
        <time>2018-03-03T17:17:16.511Z</time>
      </trkpt>
      <trkpt lat="44.6057" lon="0.84124">
        <ele>143</ele>
        <time>2018-03-03T17:17:17.511Z</time>
      </trkpt>
      <trkpt lat="44.60576" lon="0.84128">
        <ele>143</ele>
        <time>2018-03-03T17:17:18.511Z</time>
      </trkpt>
      <trkpt lat="44.60582" lon="0.84132">
        <ele>143</ele>
        <time>2018-03-03T17:17:19.511Z</time>
      </trkpt>
      <trkpt lat="44.60587" lon="0.84135">
        <ele>143</ele>
        <time>2018-03-03T17:17:20.511Z</time>
      </trkpt>
      <trkpt lat="44.60592" lon="0.84139">
        <ele>143</ele>
        <time>2018-03-03T17:17:21.511Z</time>
      </trkpt>
      <trkpt lat="44.60596" lon="0.84142">
        <ele>143</ele>
        <time>2018-03-03T17:17:22.511Z</time>
      </trkpt>
      <trkpt lat="44.606" lon="0.84146">
        <ele>143</ele>
        <time>2018-03-03T17:17:23.511Z</time>
      </trkpt>
      <trkpt lat="44.60602" lon="0.8415">
        <ele>143</ele>
        <time>2018-03-03T17:17:24.511Z</time>
      </trkpt>
      <trkpt lat="44.60602" lon="0.84155">
        <ele>143</ele>
        <time>2018-03-03T17:17:25.511Z</time>
      </trkpt>
      <trkpt lat="44.60601" lon="0.84161">
        <ele>143</ele>
        <time>2018-03-03T17:17:26.511Z</time>
      </trkpt>
      <trkpt lat="44.60599" lon="0.84166">
        <ele>143</ele>
        <time>2018-03-03T17:17:27.511Z</time>
      </trkpt>
      <trkpt lat="44.60597" lon="0.84171">
        <ele>143</ele>
        <time>2018-03-03T17:17:28.511Z</time>
      </trkpt>
      <trkpt lat="44.60595" lon="0.84175">
        <ele>143</ele>
        <time>2018-03-03T17:17:29.511Z</time>
      </trkpt>
      <trkpt lat="44.60594" lon="0.84179">
        <ele>143</ele>
        <time>2018-03-03T17:17:30.511Z</time>
      </trkpt>
      <trkpt lat="44.60592" lon="0.84183">
        <ele>143</ele>
        <time>2018-03-03T17:17:31.511Z</time>
      </trkpt>
      <trkpt lat="44.60591" lon="0.84187">
        <ele>142</ele>
        <time>2018-03-03T17:17:32.511Z</time>
      </trkpt>
      <trkpt lat="44.60589" lon="0.84192">
        <ele>142</ele>
        <time>2018-03-03T17:17:33.511Z</time>
      </trkpt>
      <trkpt lat="44.60587" lon="0.84196">
        <ele>142</ele>
        <time>2018-03-03T17:17:34.511Z</time>
      </trkpt>
      <trkpt lat="44.60586" lon="0.842">
        <ele>142</ele>
        <time>2018-03-03T17:17:35.511Z</time>
      </trkpt>
      <trkpt lat="44.60586" lon="0.84203">
        <ele>142</ele>
        <time>2018-03-03T17:17:36.511Z</time>
      </trkpt>
      <trkpt lat="44.60587" lon="0.84206">
        <ele>142</ele>
        <time>2018-03-03T17:17:37.511Z</time>
      </trkpt>
      <trkpt lat="44.60588" lon="0.84208">
        <ele>142</ele>
        <time>2018-03-03T17:17:38.511Z</time>
      </trkpt>
      <trkpt lat="44.6059" lon="0.84211">
        <ele>142</ele>
        <time>2018-03-03T17:17:39.511Z</time>
      </trkpt>
      <trkpt lat="44.60593" lon="0.84213">
        <ele>142</ele>
        <time>2018-03-03T17:17:40.511Z</time>
      </trkpt>
      <trkpt lat="44.60596" lon="0.84215">
        <ele>142</ele>
        <time>2018-03-03T17:17:41.511Z</time>
      </trkpt>
      <trkpt lat="44.60599" lon="0.84218">
        <ele>142</ele>
        <time>2018-03-03T17:17:42.511Z</time>
      </trkpt>
      <trkpt lat="44.60602" lon="0.8422">
        <ele>143</ele>
        <time>2018-03-03T17:17:43.511Z</time>
      </trkpt>
      <trkpt lat="44.60605" lon="0.84222">
        <ele>143</ele>
        <time>2018-03-03T17:17:44.511Z</time>
      </trkpt>
      <trkpt lat="44.60607" lon="0.84224">
        <ele>143</ele>
        <time>2018-03-03T17:17:45.511Z</time>
      </trkpt>
      <trkpt lat="44.60609" lon="0.84226">
        <ele>143</ele>
        <time>2018-03-03T17:17:46.511Z</time>
      </trkpt>
      <trkpt lat="44.60611" lon="0.84229">
        <ele>144</ele>
        <time>2018-03-03T17:17:47.511Z</time>
      </trkpt>
      <trkpt lat="44.60612" lon="0.84232">
        <ele>144</ele>
        <time>2018-03-03T17:17:48.511Z</time>
      </trkpt>
      <trkpt lat="44.60613" lon="0.84235">
        <ele>144</ele>
        <time>2018-03-03T17:17:49.511Z</time>
      </trkpt>
      <trkpt lat="44.60614" lon="0.84239">
        <ele>144</ele>
        <time>2018-03-03T17:17:50.511Z</time>
      </trkpt>
      <trkpt lat="44.60614" lon="0.84243">
        <ele>144</ele>
        <time>2018-03-03T17:17:51.511Z</time>
      </trkpt>
      <trkpt lat="44.60615" lon="0.84247">
        <ele>145</ele>
        <time>2018-03-03T17:17:52.511Z</time>
      </trkpt>
      <trkpt lat="44.60615" lon="0.8425">
        <ele>145</ele>
        <time>2018-03-03T17:17:53.511Z</time>
      </trkpt>
      <trkpt lat="44.60615" lon="0.84254">
        <ele>145</ele>
        <time>2018-03-03T17:17:54.511Z</time>
      </trkpt>
      <trkpt lat="44.60616" lon="0.84257">
        <ele>145</ele>
        <time>2018-03-03T17:17:55.511Z</time>
      </trkpt>
      <trkpt lat="44.60617" lon="0.8426">
        <ele>145</ele>
        <time>2018-03-03T17:17:56.511Z</time>
      </trkpt>
      <trkpt lat="44.60617" lon="0.84263">
        <ele>145</ele>
        <time>2018-03-03T17:17:57.511Z</time>
      </trkpt>
      <trkpt lat="44.60618" lon="0.84266">
        <ele>145</ele>
        <time>2018-03-03T17:17:58.511Z</time>
      </trkpt>
      <trkpt lat="44.60619" lon="0.84269">
        <ele>145</ele>
        <time>2018-03-03T17:17:59.511Z</time>
      </trkpt>
      <trkpt lat="44.6062" lon="0.84272">
        <ele>146</ele>
        <time>2018-03-03T17:18:00.511Z</time>
      </trkpt>
      <trkpt lat="44.60622" lon="0.84275">
        <ele>146</ele>
        <time>2018-03-03T17:18:01.511Z</time>
      </trkpt>
      <trkpt lat="44.60623" lon="0.84278">
        <ele>146</ele>
        <time>2018-03-03T17:18:02.511Z</time>
      </trkpt>
      <trkpt lat="44.60624" lon="0.84281">
        <ele>146</ele>
        <time>2018-03-03T17:18:03.511Z</time>
      </trkpt>
      <trkpt lat="44.60626" lon="0.84283">
        <ele>146</ele>
        <time>2018-03-03T17:18:04.511Z</time>
      </trkpt>
      <trkpt lat="44.60627" lon="0.84286">
        <ele>146</ele>
        <time>2018-03-03T17:18:05.511Z</time>
      </trkpt>
      <trkpt lat="44.60628" lon="0.84289">
        <ele>147</ele>
        <time>2018-03-03T17:18:06.511Z</time>
      </trkpt>
      <trkpt lat="44.60629" lon="0.84291">
        <ele>147</ele>
        <time>2018-03-03T17:18:07.511Z</time>
      </trkpt>
      <trkpt lat="44.6063" lon="0.84294">
        <ele>147</ele>
        <time>2018-03-03T17:18:08.511Z</time>
      </trkpt>
      <trkpt lat="44.60632" lon="0.84296">
        <ele>147</ele>
        <time>2018-03-03T17:18:09.511Z</time>
      </trkpt>
      <trkpt lat="44.60633" lon="0.84299">
        <ele>148</ele>
        <time>2018-03-03T17:18:10.511Z</time>
      </trkpt>
      <trkpt lat="44.60634" lon="0.84302">
        <ele>148</ele>
        <time>2018-03-03T17:18:11.511Z</time>
      </trkpt>
      <trkpt lat="44.60635" lon="0.84305">
        <ele>148</ele>
        <time>2018-03-03T17:18:12.511Z</time>
      </trkpt>
      <trkpt lat="44.60637" lon="0.84308">
        <ele>148</ele>
        <time>2018-03-03T17:18:13.511Z</time>
      </trkpt>
      <trkpt lat="44.60638" lon="0.84311">
        <ele>149</ele>
        <time>2018-03-03T17:18:14.511Z</time>
      </trkpt>
      <trkpt lat="44.60639" lon="0.84314">
        <ele>149</ele>
        <time>2018-03-03T17:18:15.511Z</time>
      </trkpt>
      <trkpt lat="44.6064" lon="0.84317">
        <ele>149</ele>
        <time>2018-03-03T17:18:16.511Z</time>
      </trkpt>
      <trkpt lat="44.6064" lon="0.8432">
        <ele>149</ele>
        <time>2018-03-03T17:18:17.511Z</time>
      </trkpt>
      <trkpt lat="44.60641" lon="0.84323">
        <ele>150</ele>
        <time>2018-03-03T17:18:18.511Z</time>
      </trkpt>
      <trkpt lat="44.6064" lon="0.84326">
        <ele>150</ele>
        <time>2018-03-03T17:18:19.511Z</time>
      </trkpt>
      <trkpt lat="44.6064" lon="0.8433">
        <ele>150</ele>
        <time>2018-03-03T17:18:20.511Z</time>
      </trkpt>
      <trkpt lat="44.60639" lon="0.84333">
        <ele>150</ele>
        <time>2018-03-03T17:18:21.511Z</time>
      </trkpt>
      <trkpt lat="44.60639" lon="0.84336">
        <ele>150</ele>
        <time>2018-03-03T17:18:22.511Z</time>
      </trkpt>
      <trkpt lat="44.60638" lon="0.84339">
        <ele>151</ele>
        <time>2018-03-03T17:18:23.511Z</time>
      </trkpt>
      <trkpt lat="44.60637" lon="0.84342">
        <ele>151</ele>
        <time>2018-03-03T17:18:24.511Z</time>
      </trkpt>
      <trkpt lat="44.60637" lon="0.84345">
        <ele>151</ele>
        <time>2018-03-03T17:18:25.511Z</time>
      </trkpt>
      <trkpt lat="44.60636" lon="0.84348">
        <ele>151</ele>
        <time>2018-03-03T17:18:26.511Z</time>
      </trkpt>
      <trkpt lat="44.60635" lon="0.8435">
        <ele>152</ele>
        <time>2018-03-03T17:18:27.511Z</time>
      </trkpt>
      <trkpt lat="44.60635" lon="0.84353">
        <ele>152</ele>
        <time>2018-03-03T17:18:28.511Z</time>
      </trkpt>
      <trkpt lat="44.60635" lon="0.84356">
        <ele>152</ele>
        <time>2018-03-03T17:18:29.511Z</time>
      </trkpt>
      <trkpt lat="44.60635" lon="0.84358">
        <ele>152</ele>
        <time>2018-03-03T17:18:30.511Z</time>
      </trkpt>
      <trkpt lat="44.60636" lon="0.84361">
        <ele>152</ele>
        <time>2018-03-03T17:18:31.511Z</time>
      </trkpt>
      <trkpt lat="44.60636" lon="0.84363">
        <ele>153</ele>
        <time>2018-03-03T17:18:32.511Z</time>
      </trkpt>
      <trkpt lat="44.60637" lon="0.84365">
        <ele>153</ele>
        <time>2018-03-03T17:18:33.511Z</time>
      </trkpt>
      <trkpt lat="44.60638" lon="0.84367">
        <ele>153</ele>
        <time>2018-03-03T17:18:34.511Z</time>
      </trkpt>
      <trkpt lat="44.6064" lon="0.84369">
        <ele>153</ele>
        <time>2018-03-03T17:18:35.511Z</time>
      </trkpt>
      <trkpt lat="44.60641" lon="0.84371">
        <ele>153</ele>
        <time>2018-03-03T17:18:36.511Z</time>
      </trkpt>
      <trkpt lat="44.60643" lon="0.84373">
        <ele>154</ele>
        <time>2018-03-03T17:18:37.511Z</time>
      </trkpt>
      <trkpt lat="44.60645" lon="0.84374">
        <ele>154</ele>
        <time>2018-03-03T17:18:38.511Z</time>
      </trkpt>
      <trkpt lat="44.60646" lon="0.84376">
        <ele>154</ele>
        <time>2018-03-03T17:18:39.511Z</time>
      </trkpt>
      <trkpt lat="44.60648" lon="0.84378">
        <ele>154</ele>
        <time>2018-03-03T17:18:40.511Z</time>
      </trkpt>
      <trkpt lat="44.6065" lon="0.8438">
        <ele>155</ele>
        <time>2018-03-03T17:18:41.511Z</time>
      </trkpt>
      <trkpt lat="44.60651" lon="0.84381">
        <ele>155</ele>
        <time>2018-03-03T17:18:42.511Z</time>
      </trkpt>
      <trkpt lat="44.60653" lon="0.84383">
        <ele>155</ele>
        <time>2018-03-03T17:18:43.511Z</time>
      </trkpt>
      <trkpt lat="44.60654" lon="0.84385">
        <ele>155</ele>
        <time>2018-03-03T17:18:44.511Z</time>
      </trkpt>
      <trkpt lat="44.60656" lon="0.84387">
        <ele>156</ele>
        <time>2018-03-03T17:18:45.511Z</time>
      </trkpt>
      <trkpt lat="44.60657" lon="0.84388">
        <ele>156</ele>
        <time>2018-03-03T17:18:46.511Z</time>
      </trkpt>
      <trkpt lat="44.60658" lon="0.8439">
        <ele>156</ele>
        <time>2018-03-03T17:18:47.511Z</time>
      </trkpt>
      <trkpt lat="44.6066" lon="0.84392">
        <ele>156</ele>
        <time>2018-03-03T17:18:48.511Z</time>
      </trkpt>
      <trkpt lat="44.60661" lon="0.84394">
        <ele>157</ele>
        <time>2018-03-03T17:18:49.511Z</time>
      </trkpt>
      <trkpt lat="44.60662" lon="0.84396">
        <ele>157</ele>
        <time>2018-03-03T17:18:50.511Z</time>
      </trkpt>
      <trkpt lat="44.60664" lon="0.84398">
        <ele>157</ele>
        <time>2018-03-03T17:18:51.511Z</time>
      </trkpt>
      <trkpt lat="44.60665" lon="0.844">
        <ele>157</ele>
        <time>2018-03-03T17:18:52.511Z</time>
      </trkpt>
      <trkpt lat="44.60666" lon="0.84401">
        <ele>157</ele>
        <time>2018-03-03T17:18:53.511Z</time>
      </trkpt>
      <trkpt lat="44.60668" lon="0.84403">
        <ele>157</ele>
        <time>2018-03-03T17:18:54.511Z</time>
      </trkpt>
      <trkpt lat="44.60669" lon="0.84405">
        <ele>158</ele>
        <time>2018-03-03T17:18:55.511Z</time>
      </trkpt>
      <trkpt lat="44.6067" lon="0.84408">
        <ele>158</ele>
        <time>2018-03-03T17:18:56.511Z</time>
      </trkpt>
      <trkpt lat="44.60672" lon="0.8441">
        <ele>158</ele>
        <time>2018-03-03T17:18:57.511Z</time>
      </trkpt>
      <trkpt lat="44.60673" lon="0.84412">
        <ele>158</ele>
        <time>2018-03-03T17:18:58.511Z</time>
      </trkpt>
      <trkpt lat="44.60674" lon="0.84414">
        <ele>158</ele>
        <time>2018-03-03T17:18:59.511Z</time>
      </trkpt>
      <trkpt lat="44.60676" lon="0.84416">
        <ele>158</ele>
        <time>2018-03-03T17:19:00.511Z</time>
      </trkpt>
      <trkpt lat="44.60677" lon="0.84418">
        <ele>158</ele>
        <time>2018-03-03T17:19:01.511Z</time>
      </trkpt>
      <trkpt lat="44.60679" lon="0.84421">
        <ele>158</ele>
        <time>2018-03-03T17:19:02.511Z</time>
      </trkpt>
      <trkpt lat="44.6068" lon="0.84423">
        <ele>159</ele>
        <time>2018-03-03T17:19:03.511Z</time>
      </trkpt>
      <trkpt lat="44.60682" lon="0.84425">
        <ele>159</ele>
        <time>2018-03-03T17:19:04.511Z</time>
      </trkpt>
      <trkpt lat="44.60683" lon="0.84427">
        <ele>159</ele>
        <time>2018-03-03T17:19:05.511Z</time>
      </trkpt>
      <trkpt lat="44.60684" lon="0.84429">
        <ele>159</ele>
        <time>2018-03-03T17:19:06.511Z</time>
      </trkpt>
      <trkpt lat="44.60686" lon="0.8443">
        <ele>159</ele>
        <time>2018-03-03T17:19:07.511Z</time>
      </trkpt>
      <trkpt lat="44.60687" lon="0.84432">
        <ele>159</ele>
        <time>2018-03-03T17:19:08.511Z</time>
      </trkpt>
      <trkpt lat="44.60689" lon="0.84434">
        <ele>159</ele>
        <time>2018-03-03T17:19:09.511Z</time>
      </trkpt>
      <trkpt lat="44.60691" lon="0.84436">
        <ele>159</ele>
        <time>2018-03-03T17:19:10.511Z</time>
      </trkpt>
      <trkpt lat="44.60693" lon="0.84438">
        <ele>159</ele>
        <time>2018-03-03T17:19:11.511Z</time>
      </trkpt>
      <trkpt lat="44.60695" lon="0.8444">
        <ele>159</ele>
        <time>2018-03-03T17:19:12.511Z</time>
      </trkpt>
      <trkpt lat="44.60697" lon="0.84442">
        <ele>159</ele>
        <time>2018-03-03T17:19:13.511Z</time>
      </trkpt>
      <trkpt lat="44.60699" lon="0.84445">
        <ele>159</ele>
        <time>2018-03-03T17:19:14.511Z</time>
      </trkpt>
      <trkpt lat="44.60701" lon="0.84447">
        <ele>159</ele>
        <time>2018-03-03T17:19:15.511Z</time>
      </trkpt>
      <trkpt lat="44.60704" lon="0.8445">
        <ele>159</ele>
        <time>2018-03-03T17:19:16.511Z</time>
      </trkpt>
      <trkpt lat="44.60706" lon="0.84453">
        <ele>159</ele>
        <time>2018-03-03T17:19:17.511Z</time>
      </trkpt>
      <trkpt lat="44.60708" lon="0.84455">
        <ele>159</ele>
        <time>2018-03-03T17:19:18.511Z</time>
      </trkpt>
      <trkpt lat="44.60709" lon="0.84458">
        <ele>159</ele>
        <time>2018-03-03T17:19:19.511Z</time>
      </trkpt>
      <trkpt lat="44.60711" lon="0.8446">
        <ele>159</ele>
        <time>2018-03-03T17:19:20.511Z</time>
      </trkpt>
      <trkpt lat="44.60712" lon="0.84463">
        <ele>159</ele>
        <time>2018-03-03T17:19:21.511Z</time>
      </trkpt>
      <trkpt lat="44.60713" lon="0.84465">
        <ele>159</ele>
        <time>2018-03-03T17:19:22.511Z</time>
      </trkpt>
      <trkpt lat="44.60715" lon="0.84467">
        <ele>159</ele>
        <time>2018-03-03T17:19:23.511Z</time>
      </trkpt>
      <trkpt lat="44.60716" lon="0.84469">
        <ele>159</ele>
        <time>2018-03-03T17:19:24.511Z</time>
      </trkpt>
      <trkpt lat="44.60718" lon="0.84471">
        <ele>159</ele>
        <time>2018-03-03T17:19:25.511Z</time>
      </trkpt>
      <trkpt lat="44.6072" lon="0.84472">
        <ele>159</ele>
        <time>2018-03-03T17:19:26.511Z</time>
      </trkpt>
      <trkpt lat="44.60723" lon="0.84474">
        <ele>159</ele>
        <time>2018-03-03T17:19:27.511Z</time>
      </trkpt>
      <trkpt lat="44.60725" lon="0.84477">
        <ele>159</ele>
        <time>2018-03-03T17:19:28.511Z</time>
      </trkpt>
      <trkpt lat="44.60727" lon="0.84479">
        <ele>159</ele>
        <time>2018-03-03T17:19:29.511Z</time>
      </trkpt>
      <trkpt lat="44.6073" lon="0.84481">
        <ele>159</ele>
        <time>2018-03-03T17:19:30.511Z</time>
      </trkpt>
      <trkpt lat="44.60732" lon="0.84484">
        <ele>159</ele>
        <time>2018-03-03T17:19:31.511Z</time>
      </trkpt>
      <trkpt lat="44.60734" lon="0.84486">
        <ele>159</ele>
        <time>2018-03-03T17:19:32.511Z</time>
      </trkpt>
      <trkpt lat="44.60736" lon="0.84489">
        <ele>159</ele>
        <time>2018-03-03T17:19:33.511Z</time>
      </trkpt>
      <trkpt lat="44.60738" lon="0.84491">
        <ele>159</ele>
        <time>2018-03-03T17:19:34.511Z</time>
      </trkpt>
      <trkpt lat="44.6074" lon="0.84493">
        <ele>159</ele>
        <time>2018-03-03T17:19:35.511Z</time>
      </trkpt>
      <trkpt lat="44.60742" lon="0.84494">
        <ele>159</ele>
        <time>2018-03-03T17:19:36.511Z</time>
      </trkpt>
      <trkpt lat="44.60745" lon="0.84495">
        <ele>159</ele>
        <time>2018-03-03T17:19:37.511Z</time>
      </trkpt>
      <trkpt lat="44.60747" lon="0.84496">
        <ele>159</ele>
        <time>2018-03-03T17:19:38.511Z</time>
      </trkpt>
      <trkpt lat="44.60748" lon="0.84497">
        <ele>159</ele>
        <time>2018-03-03T17:19:39.511Z</time>
      </trkpt>
      <trkpt lat="44.6075" lon="0.84498">
        <ele>159</ele>
        <time>2018-03-03T17:19:40.511Z</time>
      </trkpt>
      <trkpt lat="44.60752" lon="0.84499">
        <ele>159</ele>
        <time>2018-03-03T17:19:41.511Z</time>
      </trkpt>
      <trkpt lat="44.60754" lon="0.84501">
        <ele>159</ele>
        <time>2018-03-03T17:19:42.511Z</time>
      </trkpt>
      <trkpt lat="44.60755" lon="0.84504">
        <ele>159</ele>
        <time>2018-03-03T17:19:43.511Z</time>
      </trkpt>
      <trkpt lat="44.60757" lon="0.84507">
        <ele>158</ele>
        <time>2018-03-03T17:19:44.511Z</time>
      </trkpt>
      <trkpt lat="44.60759" lon="0.8451">
        <ele>158</ele>
        <time>2018-03-03T17:19:45.511Z</time>
      </trkpt>
      <trkpt lat="44.6076" lon="0.84513">
        <ele>158</ele>
        <time>2018-03-03T17:19:46.511Z</time>
      </trkpt>
      <trkpt lat="44.60762" lon="0.84516">
        <ele>158</ele>
        <time>2018-03-03T17:19:47.511Z</time>
      </trkpt>
      <trkpt lat="44.60764" lon="0.84519">
        <ele>158</ele>
        <time>2018-03-03T17:19:48.511Z</time>
      </trkpt>
      <trkpt lat="44.60766" lon="0.84522">
        <ele>158</ele>
        <time>2018-03-03T17:19:49.511Z</time>
      </trkpt>
      <trkpt lat="44.60768" lon="0.84525">
        <ele>158</ele>
        <time>2018-03-03T17:19:50.511Z</time>
      </trkpt>
      <trkpt lat="44.6077" lon="0.84528">
        <ele>157</ele>
        <time>2018-03-03T17:19:51.511Z</time>
      </trkpt>
      <trkpt lat="44.60772" lon="0.84531">
        <ele>157</ele>
        <time>2018-03-03T17:19:52.511Z</time>
      </trkpt>
      <trkpt lat="44.60774" lon="0.84534">
        <ele>157</ele>
        <time>2018-03-03T17:19:53.511Z</time>
      </trkpt>
      <trkpt lat="44.60776" lon="0.84537">
        <ele>157</ele>
        <time>2018-03-03T17:19:54.511Z</time>
      </trkpt>
      <trkpt lat="44.60779" lon="0.8454">
        <ele>157</ele>
        <time>2018-03-03T17:19:55.511Z</time>
      </trkpt>
      <trkpt lat="44.60781" lon="0.84543">
        <ele>157</ele>
        <time>2018-03-03T17:19:56.511Z</time>
      </trkpt>
      <trkpt lat="44.60783" lon="0.84547">
        <ele>157</ele>
        <time>2018-03-03T17:19:57.511Z</time>
      </trkpt>
      <trkpt lat="44.60786" lon="0.8455">
        <ele>157</ele>
        <time>2018-03-03T17:19:58.511Z</time>
      </trkpt>
      <trkpt lat="44.60788" lon="0.84554">
        <ele>157</ele>
        <time>2018-03-03T17:19:59.511Z</time>
      </trkpt>
      <trkpt lat="44.6079" lon="0.84557">
        <ele>157</ele>
        <time>2018-03-03T17:20:00.511Z</time>
      </trkpt>
      <trkpt lat="44.60793" lon="0.84561">
        <ele>156</ele>
        <time>2018-03-03T17:20:01.511Z</time>
      </trkpt>
      <trkpt lat="44.60795" lon="0.84565">
        <ele>156</ele>
        <time>2018-03-03T17:20:02.511Z</time>
      </trkpt>
      <trkpt lat="44.60797" lon="0.84569">
        <ele>156</ele>
        <time>2018-03-03T17:20:03.511Z</time>
      </trkpt>
      <trkpt lat="44.60799" lon="0.84574">
        <ele>156</ele>
        <time>2018-03-03T17:20:04.511Z</time>
      </trkpt>
      <trkpt lat="44.60801" lon="0.84578">
        <ele>156</ele>
        <time>2018-03-03T17:20:05.511Z</time>
      </trkpt>
      <trkpt lat="44.60803" lon="0.84583">
        <ele>156</ele>
        <time>2018-03-03T17:20:06.511Z</time>
      </trkpt>
      <trkpt lat="44.60805" lon="0.84588">
        <ele>156</ele>
        <time>2018-03-03T17:20:07.511Z</time>
      </trkpt>
      <trkpt lat="44.60807" lon="0.84592">
        <ele>156</ele>
        <time>2018-03-03T17:20:08.511Z</time>
      </trkpt>
      <trkpt lat="44.60808" lon="0.84597">
        <ele>156</ele>
        <time>2018-03-03T17:20:09.511Z</time>
      </trkpt>
      <trkpt lat="44.6081" lon="0.84601">
        <ele>155</ele>
        <time>2018-03-03T17:20:10.511Z</time>
      </trkpt>
      <trkpt lat="44.60812" lon="0.84604">
        <ele>155</ele>
        <time>2018-03-03T17:20:11.511Z</time>
      </trkpt>
      <trkpt lat="44.60813" lon="0.84607">
        <ele>155</ele>
        <time>2018-03-03T17:20:12.511Z</time>
      </trkpt>
      <trkpt lat="44.60815" lon="0.84611">
        <ele>155</ele>
        <time>2018-03-03T17:20:13.511Z</time>
      </trkpt>
      <trkpt lat="44.60818" lon="0.84614">
        <ele>155</ele>
        <time>2018-03-03T17:20:14.511Z</time>
      </trkpt>
      <trkpt lat="44.60821" lon="0.84617">
        <ele>155</ele>
        <time>2018-03-03T17:20:15.511Z</time>
      </trkpt>
      <trkpt lat="44.60824" lon="0.84621">
        <ele>155</ele>
        <time>2018-03-03T17:20:16.511Z</time>
      </trkpt>
      <trkpt lat="44.60828" lon="0.84624">
        <ele>155</ele>
        <time>2018-03-03T17:20:17.511Z</time>
      </trkpt>
      <trkpt lat="44.60832" lon="0.84628">
        <ele>156</ele>
        <time>2018-03-03T17:20:18.511Z</time>
      </trkpt>
      <trkpt lat="44.60835" lon="0.84631">
        <ele>156</ele>
        <time>2018-03-03T17:20:19.511Z</time>
      </trkpt>
      <trkpt lat="44.60838" lon="0.84635">
        <ele>156</ele>
        <time>2018-03-03T17:20:20.511Z</time>
      </trkpt>
      <trkpt lat="44.60841" lon="0.84638">
        <ele>156</ele>
        <time>2018-03-03T17:20:21.511Z</time>
      </trkpt>
      <trkpt lat="44.60843" lon="0.84641">
        <ele>156</ele>
        <time>2018-03-03T17:20:22.511Z</time>
      </trkpt>
      <trkpt lat="44.60846" lon="0.84643">
        <ele>156</ele>
        <time>2018-03-03T17:20:23.511Z</time>
      </trkpt>
      <trkpt lat="44.60848" lon="0.84646">
        <ele>156</ele>
        <time>2018-03-03T17:20:24.511Z</time>
      </trkpt>
      <trkpt lat="44.60851" lon="0.84648">
        <ele>156</ele>
        <time>2018-03-03T17:20:25.511Z</time>
      </trkpt>
      <trkpt lat="44.60853" lon="0.84651">
        <ele>156</ele>
        <time>2018-03-03T17:20:26.511Z</time>
      </trkpt>
      <trkpt lat="44.60856" lon="0.84653">
        <ele>156</ele>
        <time>2018-03-03T17:20:27.511Z</time>
      </trkpt>
      <trkpt lat="44.60859" lon="0.84655">
        <ele>156</ele>
        <time>2018-03-03T17:20:28.511Z</time>
      </trkpt>
      <trkpt lat="44.60862" lon="0.84657">
        <ele>156</ele>
        <time>2018-03-03T17:20:29.511Z</time>
      </trkpt>
      <trkpt lat="44.60864" lon="0.84659">
        <ele>156</ele>
        <time>2018-03-03T17:20:30.511Z</time>
      </trkpt>
      <trkpt lat="44.60867" lon="0.8466">
        <ele>156</ele>
        <time>2018-03-03T17:20:31.511Z</time>
      </trkpt>
      <trkpt lat="44.60869" lon="0.84662">
        <ele>156</ele>
        <time>2018-03-03T17:20:32.511Z</time>
      </trkpt>
      <trkpt lat="44.60872" lon="0.84664">
        <ele>157</ele>
        <time>2018-03-03T17:20:33.511Z</time>
      </trkpt>
      <trkpt lat="44.60874" lon="0.84666">
        <ele>157</ele>
        <time>2018-03-03T17:20:34.511Z</time>
      </trkpt>
      <trkpt lat="44.60876" lon="0.84667">
        <ele>157</ele>
        <time>2018-03-03T17:20:35.511Z</time>
      </trkpt>
      <trkpt lat="44.60878" lon="0.8467">
        <ele>157</ele>
        <time>2018-03-03T17:20:36.511Z</time>
      </trkpt>
      <trkpt lat="44.6088" lon="0.84672">
        <ele>157</ele>
        <time>2018-03-03T17:20:37.511Z</time>
      </trkpt>
      <trkpt lat="44.60881" lon="0.84675">
        <ele>157</ele>
        <time>2018-03-03T17:20:38.511Z</time>
      </trkpt>
      <trkpt lat="44.60882" lon="0.84679">
        <ele>157</ele>
        <time>2018-03-03T17:20:39.511Z</time>
      </trkpt>
      <trkpt lat="44.60883" lon="0.84683">
        <ele>157</ele>
        <time>2018-03-03T17:20:40.511Z</time>
      </trkpt>
      <trkpt lat="44.60883" lon="0.84687">
        <ele>158</ele>
        <time>2018-03-03T17:20:41.511Z</time>
      </trkpt>
      <trkpt lat="44.60884" lon="0.84691">
        <ele>158</ele>
        <time>2018-03-03T17:20:42.511Z</time>
      </trkpt>
      <trkpt lat="44.60884" lon="0.84695">
        <ele>158</ele>
        <time>2018-03-03T17:20:43.511Z</time>
      </trkpt>
      <trkpt lat="44.60885" lon="0.84699">
        <ele>158</ele>
        <time>2018-03-03T17:20:44.511Z</time>
      </trkpt>
      <trkpt lat="44.60886" lon="0.84703">
        <ele>158</ele>
        <time>2018-03-03T17:20:45.511Z</time>
      </trkpt>
      <trkpt lat="44.60887" lon="0.84707">
        <ele>158</ele>
        <time>2018-03-03T17:20:46.511Z</time>
      </trkpt>
      <trkpt lat="44.60888" lon="0.8471">
        <ele>159</ele>
        <time>2018-03-03T17:20:47.511Z</time>
      </trkpt>
      <trkpt lat="44.6089" lon="0.84713">
        <ele>159</ele>
        <time>2018-03-03T17:20:48.511Z</time>
      </trkpt>
      <trkpt lat="44.60892" lon="0.84716">
        <ele>159</ele>
        <time>2018-03-03T17:20:49.511Z</time>
      </trkpt>
      <trkpt lat="44.60894" lon="0.84718">
        <ele>159</ele>
        <time>2018-03-03T17:20:50.511Z</time>
      </trkpt>
      <trkpt lat="44.60896" lon="0.84719">
        <ele>159</ele>
        <time>2018-03-03T17:20:51.511Z</time>
      </trkpt>
      <trkpt lat="44.60899" lon="0.84718">
        <ele>159</ele>
        <time>2018-03-03T17:20:52.511Z</time>
      </trkpt>
      <trkpt lat="44.60901" lon="0.84715">
        <ele>159</ele>
        <time>2018-03-03T17:20:53.511Z</time>
      </trkpt>
      <trkpt lat="44.60904" lon="0.84711">
        <ele>158</ele>
        <time>2018-03-03T17:20:54.511Z</time>
      </trkpt>
      <trkpt lat="44.60907" lon="0.84708">
        <ele>158</ele>
        <time>2018-03-03T17:20:55.511Z</time>
      </trkpt>
      <trkpt lat="44.60911" lon="0.84706">
        <ele>158</ele>
        <time>2018-03-03T17:20:56.511Z</time>
      </trkpt>
      <trkpt lat="44.60915" lon="0.84704">
        <ele>158</ele>
        <time>2018-03-03T17:20:57.511Z</time>
      </trkpt>
      <trkpt lat="44.60919" lon="0.84701">
        <ele>158</ele>
        <time>2018-03-03T17:20:58.511Z</time>
      </trkpt>
      <trkpt lat="44.60923" lon="0.84698">
        <ele>158</ele>
        <time>2018-03-03T17:20:59.511Z</time>
      </trkpt>
      <trkpt lat="44.60926" lon="0.84694">
        <ele>158</ele>
        <time>2018-03-03T17:21:00.511Z</time>
      </trkpt>
      <trkpt lat="44.60929" lon="0.8469">
        <ele>158</ele>
        <time>2018-03-03T17:21:01.511Z</time>
      </trkpt>
      <trkpt lat="44.60933" lon="0.84686">
        <ele>157</ele>
        <time>2018-03-03T17:21:02.511Z</time>
      </trkpt>
      <trkpt lat="44.60936" lon="0.84682">
        <ele>157</ele>
        <time>2018-03-03T17:21:03.511Z</time>
      </trkpt>
      <trkpt lat="44.6094" lon="0.84679">
        <ele>157</ele>
        <time>2018-03-03T17:21:04.511Z</time>
      </trkpt>
      <trkpt lat="44.60944" lon="0.84677">
        <ele>157</ele>
        <time>2018-03-03T17:21:05.511Z</time>
      </trkpt>
      <trkpt lat="44.60948" lon="0.84676">
        <ele>157</ele>
        <time>2018-03-03T17:21:06.511Z</time>
      </trkpt>
      <trkpt lat="44.60952" lon="0.84676">
        <ele>157</ele>
        <time>2018-03-03T17:21:07.511Z</time>
      </trkpt>
      <trkpt lat="44.60955" lon="0.84678">
        <ele>157</ele>
        <time>2018-03-03T17:21:08.511Z</time>
      </trkpt>
      <trkpt lat="44.60959" lon="0.84681">
        <ele>157</ele>
        <time>2018-03-03T17:21:09.511Z</time>
      </trkpt>
      <trkpt lat="44.60963" lon="0.84684">
        <ele>157</ele>
        <time>2018-03-03T17:21:10.511Z</time>
      </trkpt>
      <trkpt lat="44.60967" lon="0.84687">
        <ele>157</ele>
        <time>2018-03-03T17:21:11.511Z</time>
      </trkpt>
      <trkpt lat="44.6097" lon="0.84688">
        <ele>157</ele>
        <time>2018-03-03T17:21:12.511Z</time>
      </trkpt>
      <trkpt lat="44.60974" lon="0.8469">
        <ele>157</ele>
        <time>2018-03-03T17:21:13.511Z</time>
      </trkpt>
      <trkpt lat="44.60978" lon="0.8469">
        <ele>157</ele>
        <time>2018-03-03T17:21:14.511Z</time>
      </trkpt>
      <trkpt lat="44.60982" lon="0.84691">
        <ele>157</ele>
        <time>2018-03-03T17:21:15.511Z</time>
      </trkpt>
      <trkpt lat="44.60986" lon="0.84692">
        <ele>157</ele>
        <time>2018-03-03T17:21:16.511Z</time>
      </trkpt>
      <trkpt lat="44.60991" lon="0.84693">
        <ele>157</ele>
        <time>2018-03-03T17:21:17.511Z</time>
      </trkpt>
      <trkpt lat="44.60995" lon="0.84694">
        <ele>157</ele>
        <time>2018-03-03T17:21:18.511Z</time>
      </trkpt>
      <trkpt lat="44.60999" lon="0.84693">
        <ele>156</ele>
        <time>2018-03-03T17:21:19.511Z</time>
      </trkpt>
      <trkpt lat="44.61003" lon="0.8469">
        <ele>156</ele>
        <time>2018-03-03T17:21:20.511Z</time>
      </trkpt>
      <trkpt lat="44.61008" lon="0.84685">
        <ele>156</ele>
        <time>2018-03-03T17:21:21.511Z</time>
      </trkpt>
      <trkpt lat="44.61012" lon="0.84679">
        <ele>155</ele>
        <time>2018-03-03T17:21:22.511Z</time>
      </trkpt>
      <trkpt lat="44.61016" lon="0.84673">
        <ele>155</ele>
        <time>2018-03-03T17:21:23.511Z</time>
      </trkpt>
      <trkpt lat="44.61019" lon="0.84667">
        <ele>154</ele>
        <time>2018-03-03T17:21:24.511Z</time>
      </trkpt>
      <trkpt lat="44.61023" lon="0.8466">
        <ele>154</ele>
        <time>2018-03-03T17:21:25.511Z</time>
      </trkpt>
      <trkpt lat="44.61025" lon="0.84653">
        <ele>153</ele>
        <time>2018-03-03T17:21:26.511Z</time>
      </trkpt>
      <trkpt lat="44.61027" lon="0.84646">
        <ele>153</ele>
        <time>2018-03-03T17:21:27.511Z</time>
      </trkpt>
      <trkpt lat="44.61029" lon="0.84639">
        <ele>153</ele>
        <time>2018-03-03T17:21:28.511Z</time>
      </trkpt>
      <trkpt lat="44.6103" lon="0.84632">
        <ele>152</ele>
        <time>2018-03-03T17:21:29.511Z</time>
      </trkpt>
      <trkpt lat="44.61032" lon="0.84624">
        <ele>151</ele>
        <time>2018-03-03T17:21:30.511Z</time>
      </trkpt>
      <trkpt lat="44.61033" lon="0.84616">
        <ele>150</ele>
        <time>2018-03-03T17:21:31.511Z</time>
      </trkpt>
      <trkpt lat="44.61036" lon="0.84608">
        <ele>149</ele>
        <time>2018-03-03T17:21:32.511Z</time>
      </trkpt>
      <trkpt lat="44.61038" lon="0.84599">
        <ele>149</ele>
        <time>2018-03-03T17:21:33.511Z</time>
      </trkpt>
      <trkpt lat="44.6104" lon="0.84589">
        <ele>148</ele>
        <time>2018-03-03T17:21:34.511Z</time>
      </trkpt>
      <trkpt lat="44.61042" lon="0.84579">
        <ele>147</ele>
        <time>2018-03-03T17:21:35.511Z</time>
      </trkpt>
      <trkpt lat="44.61045" lon="0.84569">
        <ele>146</ele>
        <time>2018-03-03T17:21:36.511Z</time>
      </trkpt>
      <trkpt lat="44.61047" lon="0.84557">
        <ele>146</ele>
        <time>2018-03-03T17:21:37.511Z</time>
      </trkpt>
      <trkpt lat="44.61049" lon="0.84545">
        <ele>146</ele>
        <time>2018-03-03T17:21:38.511Z</time>
      </trkpt>
      <trkpt lat="44.6105" lon="0.84534">
        <ele>145</ele>
        <time>2018-03-03T17:21:39.511Z</time>
      </trkpt>
      <trkpt lat="44.61052" lon="0.84522">
        <ele>145</ele>
        <time>2018-03-03T17:21:40.511Z</time>
      </trkpt>
      <trkpt lat="44.61055" lon="0.84512">
        <ele>144</ele>
        <time>2018-03-03T17:21:41.511Z</time>
      </trkpt>
      <trkpt lat="44.61057" lon="0.84502">
        <ele>144</ele>
        <time>2018-03-03T17:21:42.511Z</time>
      </trkpt>
      <trkpt lat="44.6106" lon="0.84494">
        <ele>143</ele>
        <time>2018-03-03T17:21:43.511Z</time>
      </trkpt>
      <trkpt lat="44.61063" lon="0.84488">
        <ele>143</ele>
        <time>2018-03-03T17:21:44.511Z</time>
      </trkpt>
      <trkpt lat="44.61066" lon="0.84482">
        <ele>142</ele>
        <time>2018-03-03T17:21:45.511Z</time>
      </trkpt>
      <trkpt lat="44.61069" lon="0.84478">
        <ele>142</ele>
        <time>2018-03-03T17:21:46.511Z</time>
      </trkpt>
      <trkpt lat="44.61072" lon="0.84474">
        <ele>142</ele>
        <time>2018-03-03T17:21:47.511Z</time>
      </trkpt>
      <trkpt lat="44.61074" lon="0.84473">
        <ele>142</ele>
        <time>2018-03-03T17:21:48.511Z</time>
      </trkpt>
      <trkpt lat="44.61076" lon="0.84473">
        <ele>142</ele>
        <time>2018-03-03T17:21:49.511Z</time>
      </trkpt>
      <trkpt lat="44.61078" lon="0.84474">
        <ele>142</ele>
        <time>2018-03-03T17:21:50.511Z</time>
      </trkpt>
      <trkpt lat="44.6108" lon="0.84477">
        <ele>142</ele>
        <time>2018-03-03T17:21:51.511Z</time>
      </trkpt>
      <trkpt lat="44.61082" lon="0.84481">
        <ele>142</ele>
        <time>2018-03-03T17:21:52.511Z</time>
      </trkpt>
      <trkpt lat="44.61084" lon="0.84486">
        <ele>142</ele>
        <time>2018-03-03T17:21:53.511Z</time>
      </trkpt>
      <trkpt lat="44.61085" lon="0.84491">
        <ele>142</ele>
        <time>2018-03-03T17:21:54.511Z</time>
      </trkpt>
      <trkpt lat="44.61087" lon="0.84496">
        <ele>143</ele>
        <time>2018-03-03T17:21:55.511Z</time>
      </trkpt>
      <trkpt lat="44.61089" lon="0.84501">
        <ele>143</ele>
        <time>2018-03-03T17:21:56.511Z</time>
      </trkpt>
      <trkpt lat="44.61091" lon="0.84506">
        <ele>143</ele>
        <time>2018-03-03T17:21:57.511Z</time>
      </trkpt>
      <trkpt lat="44.61093" lon="0.8451">
        <ele>143</ele>
        <time>2018-03-03T17:21:58.511Z</time>
      </trkpt>
      <trkpt lat="44.61095" lon="0.84515">
        <ele>144</ele>
        <time>2018-03-03T17:21:59.511Z</time>
      </trkpt>
      <trkpt lat="44.61097" lon="0.84519">
        <ele>144</ele>
        <time>2018-03-03T17:22:00.511Z</time>
      </trkpt>
      <trkpt lat="44.611" lon="0.84524">
        <ele>144</ele>
        <time>2018-03-03T17:22:01.511Z</time>
      </trkpt>
      <trkpt lat="44.61102" lon="0.84528">
        <ele>144</ele>
        <time>2018-03-03T17:22:02.511Z</time>
      </trkpt>
      <trkpt lat="44.61104" lon="0.84532">
        <ele>144</ele>
        <time>2018-03-03T17:22:03.511Z</time>
      </trkpt>
      <trkpt lat="44.61106" lon="0.84536">
        <ele>145</ele>
        <time>2018-03-03T17:22:04.511Z</time>
      </trkpt>
      <trkpt lat="44.61108" lon="0.8454">
        <ele>145</ele>
        <time>2018-03-03T17:22:05.511Z</time>
      </trkpt>
      <trkpt lat="44.6111" lon="0.84545">
        <ele>145</ele>
        <time>2018-03-03T17:22:06.511Z</time>
      </trkpt>
      <trkpt lat="44.61112" lon="0.84549">
        <ele>145</ele>
        <time>2018-03-03T17:22:07.511Z</time>
      </trkpt>
      <trkpt lat="44.61114" lon="0.84554">
        <ele>145</ele>
        <time>2018-03-03T17:22:08.511Z</time>
      </trkpt>
      <trkpt lat="44.61115" lon="0.84558">
        <ele>146</ele>
        <time>2018-03-03T17:22:09.511Z</time>
      </trkpt>
      <trkpt lat="44.61116" lon="0.84563">
        <ele>146</ele>
        <time>2018-03-03T17:22:10.511Z</time>
      </trkpt>
      <trkpt lat="44.61116" lon="0.84569">
        <ele>146</ele>
        <time>2018-03-03T17:22:11.511Z</time>
      </trkpt>
      <trkpt lat="44.61115" lon="0.84574">
        <ele>146</ele>
        <time>2018-03-03T17:22:12.511Z</time>
      </trkpt>
      <trkpt lat="44.61114" lon="0.84579">
        <ele>146</ele>
        <time>2018-03-03T17:22:13.511Z</time>
      </trkpt>
      <trkpt lat="44.61113" lon="0.84584">
        <ele>147</ele>
        <time>2018-03-03T17:22:14.511Z</time>
      </trkpt>
      <trkpt lat="44.61112" lon="0.84589">
        <ele>147</ele>
        <time>2018-03-03T17:22:15.511Z</time>
      </trkpt>
      <trkpt lat="44.61112" lon="0.84593">
        <ele>147</ele>
        <time>2018-03-03T17:22:16.511Z</time>
      </trkpt>
      <trkpt lat="44.61112" lon="0.84598">
        <ele>147</ele>
        <time>2018-03-03T17:22:17.511Z</time>
      </trkpt>
      <trkpt lat="44.61112" lon="0.84602">
        <ele>147</ele>
        <time>2018-03-03T17:22:18.511Z</time>
      </trkpt>
      <trkpt lat="44.61113" lon="0.84606">
        <ele>147</ele>
        <time>2018-03-03T17:22:19.511Z</time>
      </trkpt>
      <trkpt lat="44.61115" lon="0.8461">
        <ele>147</ele>
        <time>2018-03-03T17:22:20.511Z</time>
      </trkpt>
      <trkpt lat="44.61117" lon="0.84614">
        <ele>148</ele>
        <time>2018-03-03T17:22:21.511Z</time>
      </trkpt>
      <trkpt lat="44.6112" lon="0.84616">
        <ele>148</ele>
        <time>2018-03-03T17:22:22.511Z</time>
      </trkpt>
      <trkpt lat="44.61122" lon="0.84618">
        <ele>148</ele>
        <time>2018-03-03T17:22:23.511Z</time>
      </trkpt>
      <trkpt lat="44.61125" lon="0.84619">
        <ele>148</ele>
        <time>2018-03-03T17:22:24.511Z</time>
      </trkpt>
      <trkpt lat="44.61128" lon="0.8462">
        <ele>148</ele>
        <time>2018-03-03T17:22:25.511Z</time>
      </trkpt>
      <trkpt lat="44.61131" lon="0.84622">
        <ele>148</ele>
        <time>2018-03-03T17:22:26.511Z</time>
      </trkpt>
      <trkpt lat="44.61134" lon="0.84623">
        <ele>148</ele>
        <time>2018-03-03T17:22:27.511Z</time>
      </trkpt>
      <trkpt lat="44.61137" lon="0.84626">
        <ele>149</ele>
        <time>2018-03-03T17:22:28.511Z</time>
      </trkpt>
      <trkpt lat="44.61139" lon="0.84628">
        <ele>149</ele>
        <time>2018-03-03T17:22:29.511Z</time>
      </trkpt>
      <trkpt lat="44.61141" lon="0.8463">
        <ele>149</ele>
        <time>2018-03-03T17:22:30.511Z</time>
      </trkpt>
      <trkpt lat="44.61143" lon="0.84633">
        <ele>149</ele>
        <time>2018-03-03T17:22:31.511Z</time>
      </trkpt>
      <trkpt lat="44.61145" lon="0.84635">
        <ele>150</ele>
        <time>2018-03-03T17:22:32.511Z</time>
      </trkpt>
      <trkpt lat="44.61147" lon="0.84637">
        <ele>150</ele>
        <time>2018-03-03T17:22:33.511Z</time>
      </trkpt>
      <trkpt lat="44.61149" lon="0.84639">
        <ele>150</ele>
        <time>2018-03-03T17:22:34.511Z</time>
      </trkpt>
      <trkpt lat="44.61151" lon="0.84641">
        <ele>150</ele>
        <time>2018-03-03T17:22:35.511Z</time>
      </trkpt>
      <trkpt lat="44.61153" lon="0.84643">
        <ele>150</ele>
        <time>2018-03-03T17:22:36.511Z</time>
      </trkpt>
      <trkpt lat="44.61155" lon="0.84645">
        <ele>151</ele>
        <time>2018-03-03T17:22:37.511Z</time>
      </trkpt>
      <trkpt lat="44.61157" lon="0.84646">
        <ele>151</ele>
        <time>2018-03-03T17:22:38.511Z</time>
      </trkpt>
      <trkpt lat="44.61159" lon="0.84648">
        <ele>151</ele>
        <time>2018-03-03T17:22:39.511Z</time>
      </trkpt>
      <trkpt lat="44.61161" lon="0.8465">
        <ele>151</ele>
        <time>2018-03-03T17:22:40.511Z</time>
      </trkpt>
      <trkpt lat="44.61163" lon="0.84651">
        <ele>152</ele>
        <time>2018-03-03T17:22:41.511Z</time>
      </trkpt>
      <trkpt lat="44.61165" lon="0.84653">
        <ele>152</ele>
        <time>2018-03-03T17:22:42.511Z</time>
      </trkpt>
      <trkpt lat="44.61167" lon="0.84654">
        <ele>152</ele>
        <time>2018-03-03T17:22:43.511Z</time>
      </trkpt>
      <trkpt lat="44.6117" lon="0.84656">
        <ele>152</ele>
        <time>2018-03-03T17:22:44.511Z</time>
      </trkpt>
      <trkpt lat="44.61172" lon="0.84658">
        <ele>152</ele>
        <time>2018-03-03T17:22:45.511Z</time>
      </trkpt>
      <trkpt lat="44.61174" lon="0.8466">
        <ele>152</ele>
        <time>2018-03-03T17:22:46.511Z</time>
      </trkpt>
      <trkpt lat="44.61177" lon="0.84662">
        <ele>152</ele>
        <time>2018-03-03T17:22:47.511Z</time>
      </trkpt>
      <trkpt lat="44.61179" lon="0.84664">
        <ele>152</ele>
        <time>2018-03-03T17:22:48.511Z</time>
      </trkpt>
      <trkpt lat="44.61182" lon="0.84667">
        <ele>152</ele>
        <time>2018-03-03T17:22:49.511Z</time>
      </trkpt>
      <trkpt lat="44.61185" lon="0.8467">
        <ele>152</ele>
        <time>2018-03-03T17:22:50.511Z</time>
      </trkpt>
      <trkpt lat="44.61188" lon="0.84673">
        <ele>152</ele>
        <time>2018-03-03T17:22:51.511Z</time>
      </trkpt>
      <trkpt lat="44.6119" lon="0.84676">
        <ele>152</ele>
        <time>2018-03-03T17:22:52.511Z</time>
      </trkpt>
      <trkpt lat="44.61194" lon="0.8468">
        <ele>152</ele>
        <time>2018-03-03T17:22:53.511Z</time>
      </trkpt>
      <trkpt lat="44.61197" lon="0.84682">
        <ele>152</ele>
        <time>2018-03-03T17:22:54.511Z</time>
      </trkpt>
      <trkpt lat="44.61201" lon="0.84685">
        <ele>151</ele>
        <time>2018-03-03T17:22:55.511Z</time>
      </trkpt>
      <trkpt lat="44.61205" lon="0.84686">
        <ele>151</ele>
        <time>2018-03-03T17:22:56.511Z</time>
      </trkpt>
      <trkpt lat="44.6121" lon="0.84687">
        <ele>151</ele>
        <time>2018-03-03T17:22:57.511Z</time>
      </trkpt>
      <trkpt lat="44.61216" lon="0.84688">
        <ele>151</ele>
        <time>2018-03-03T17:22:58.511Z</time>
      </trkpt>
      <trkpt lat="44.61221" lon="0.84688">
        <ele>150</ele>
        <time>2018-03-03T17:22:59.511Z</time>
      </trkpt>
      <trkpt lat="44.61227" lon="0.84688">
        <ele>150</ele>
        <time>2018-03-03T17:23:00.511Z</time>
      </trkpt>
      <trkpt lat="44.61233" lon="0.84688">
        <ele>150</ele>
        <time>2018-03-03T17:23:01.511Z</time>
      </trkpt>
      <trkpt lat="44.61239" lon="0.84688">
        <ele>149</ele>
        <time>2018-03-03T17:23:02.511Z</time>
      </trkpt>
      <trkpt lat="44.61244" lon="0.84687">
        <ele>149</ele>
        <time>2018-03-03T17:23:03.511Z</time>
      </trkpt>
      <trkpt lat="44.61249" lon="0.84687">
        <ele>149</ele>
        <time>2018-03-03T17:23:04.511Z</time>
      </trkpt>
      <trkpt lat="44.61253" lon="0.84686">
        <ele>149</ele>
        <time>2018-03-03T17:23:05.511Z</time>
      </trkpt>
      <trkpt lat="44.61256" lon="0.84685">
        <ele>149</ele>
        <time>2018-03-03T17:23:06.511Z</time>
      </trkpt>
      <trkpt lat="44.61259" lon="0.84684">
        <ele>149</ele>
        <time>2018-03-03T17:23:07.511Z</time>
      </trkpt>
      <trkpt lat="44.61261" lon="0.84683">
        <ele>148</ele>
        <time>2018-03-03T17:23:08.511Z</time>
      </trkpt>
      <trkpt lat="44.61263" lon="0.84682">
        <ele>148</ele>
        <time>2018-03-03T17:23:09.511Z</time>
      </trkpt>
      <trkpt lat="44.61265" lon="0.84682">
        <ele>148</ele>
        <time>2018-03-03T17:23:10.511Z</time>
      </trkpt>
      <trkpt lat="44.61266" lon="0.84682">
        <ele>148</ele>
        <time>2018-03-03T17:23:11.511Z</time>
      </trkpt>
      <trkpt lat="44.61267" lon="0.84682">
        <ele>148</ele>
        <time>2018-03-03T17:23:12.511Z</time>
      </trkpt>
      <trkpt lat="44.61267" lon="0.84683">
        <ele>147</ele>
        <time>2018-03-03T17:23:13.511Z</time>
      </trkpt>
      <trkpt lat="44.61268" lon="0.84683">
        <ele>147</ele>
        <time>2018-03-03T17:23:14.511Z</time>
      </trkpt>
      <trkpt lat="44.61268" lon="0.84683">
        <ele>147</ele>
        <time>2018-03-03T17:23:15.511Z</time>
      </trkpt>
      <trkpt lat="44.61268" lon="0.84683">
        <ele>147</ele>
        <time>2018-03-03T17:23:16.511Z</time>
      </trkpt>
      <trkpt lat="44.61268" lon="0.84683">
        <ele>147</ele>
        <time>2018-03-03T17:23:17.511Z</time>
      </trkpt>
      <trkpt lat="44.61268" lon="0.84683">
        <ele>147</ele>
        <time>2018-03-03T17:23:18.511Z</time>
      </trkpt>
      <trkpt lat="44.61268" lon="0.84683">
        <ele>146</ele>
        <time>2018-03-03T17:23:19.511Z</time>
      </trkpt>
      <trkpt lat="44.61269" lon="0.84683">
        <ele>146</ele>
        <time>2018-03-03T17:23:20.511Z</time>
      </trkpt>
      <trkpt lat="44.61269" lon="0.84683">
        <ele>146</ele>
        <time>2018-03-03T17:23:21.511Z</time>
      </trkpt>
      <trkpt lat="44.6127" lon="0.84683">
        <ele>146</ele>
        <time>2018-03-03T17:23:22.511Z</time>
      </trkpt>
      <trkpt lat="44.61272" lon="0.84683">
        <ele>146</ele>
        <time>2018-03-03T17:23:23.511Z</time>
      </trkpt>
      <trkpt lat="44.61274" lon="0.84683">
        <ele>146</ele>
        <time>2018-03-03T17:23:24.511Z</time>
      </trkpt>
      <trkpt lat="44.61275" lon="0.84683">
        <ele>146</ele>
        <time>2018-03-03T17:23:25.511Z</time>
      </trkpt>
      <trkpt lat="44.61276" lon="0.84683">
        <ele>146</ele>
        <time>2018-03-03T17:23:26.511Z</time>
      </trkpt>
      <trkpt lat="44.61278" lon="0.84684">
        <ele>147</ele>
        <time>2018-03-03T17:23:27.511Z</time>
      </trkpt>
      <trkpt lat="44.61281" lon="0.84686">
        <ele>147</ele>
        <time>2018-03-03T17:23:28.511Z</time>
      </trkpt>
      <trkpt lat="44.61283" lon="0.84688">
        <ele>147</ele>
        <time>2018-03-03T17:23:29.511Z</time>
      </trkpt>
      <trkpt lat="44.61285" lon="0.8469">
        <ele>147</ele>
        <time>2018-03-03T17:23:30.511Z</time>
      </trkpt>
      <trkpt lat="44.61288" lon="0.84692">
        <ele>147</ele>
        <time>2018-03-03T17:23:31.511Z</time>
      </trkpt>
      <trkpt lat="44.61289" lon="0.84693">
        <ele>147</ele>
        <time>2018-03-03T17:23:32.511Z</time>
      </trkpt>
      <trkpt lat="44.6129" lon="0.84695">
        <ele>148</ele>
        <time>2018-03-03T17:23:33.511Z</time>
      </trkpt>
      <trkpt lat="44.61292" lon="0.84697">
        <ele>148</ele>
        <time>2018-03-03T17:23:34.511Z</time>
      </trkpt>
      <trkpt lat="44.61294" lon="0.847">
        <ele>148</ele>
        <time>2018-03-03T17:23:35.511Z</time>
      </trkpt>
      <trkpt lat="44.61296" lon="0.84703">
        <ele>149</ele>
        <time>2018-03-03T17:23:36.511Z</time>
      </trkpt>
      <trkpt lat="44.61298" lon="0.84706">
        <ele>149</ele>
        <time>2018-03-03T17:23:37.511Z</time>
      </trkpt>
      <trkpt lat="44.613" lon="0.84709">
        <ele>149</ele>
        <time>2018-03-03T17:23:38.511Z</time>
      </trkpt>
      <trkpt lat="44.61302" lon="0.84712">
        <ele>150</ele>
        <time>2018-03-03T17:23:39.511Z</time>
      </trkpt>
      <trkpt lat="44.61305" lon="0.84715">
        <ele>150</ele>
        <time>2018-03-03T17:23:40.511Z</time>
      </trkpt>
      <trkpt lat="44.61307" lon="0.84718">
        <ele>150</ele>
        <time>2018-03-03T17:23:41.511Z</time>
      </trkpt>
      <trkpt lat="44.61309" lon="0.84721">
        <ele>151</ele>
        <time>2018-03-03T17:23:42.511Z</time>
      </trkpt>
      <trkpt lat="44.6131" lon="0.84724">
        <ele>151</ele>
        <time>2018-03-03T17:23:43.511Z</time>
      </trkpt>
      <trkpt lat="44.61312" lon="0.84726">
        <ele>151</ele>
        <time>2018-03-03T17:23:44.511Z</time>
      </trkpt>
      <trkpt lat="44.61314" lon="0.84728">
        <ele>151</ele>
        <time>2018-03-03T17:23:45.511Z</time>
      </trkpt>
      <trkpt lat="44.61315" lon="0.8473">
        <ele>152</ele>
        <time>2018-03-03T17:23:46.511Z</time>
      </trkpt>
      <trkpt lat="44.61316" lon="0.84733">
        <ele>152</ele>
        <time>2018-03-03T17:23:47.511Z</time>
      </trkpt>
      <trkpt lat="44.61318" lon="0.84735">
        <ele>152</ele>
        <time>2018-03-03T17:23:48.511Z</time>
      </trkpt>
      <trkpt lat="44.61319" lon="0.84736">
        <ele>152</ele>
        <time>2018-03-03T17:23:49.511Z</time>
      </trkpt>
      <trkpt lat="44.61321" lon="0.84738">
        <ele>152</ele>
        <time>2018-03-03T17:23:50.511Z</time>
      </trkpt>
      <trkpt lat="44.61322" lon="0.8474">
        <ele>152</ele>
        <time>2018-03-03T17:23:51.511Z</time>
      </trkpt>
      <trkpt lat="44.61324" lon="0.84742">
        <ele>153</ele>
        <time>2018-03-03T17:23:52.511Z</time>
      </trkpt>
      <trkpt lat="44.61325" lon="0.84744">
        <ele>153</ele>
        <time>2018-03-03T17:23:53.511Z</time>
      </trkpt>
      <trkpt lat="44.61327" lon="0.84746">
        <ele>153</ele>
        <time>2018-03-03T17:23:54.511Z</time>
      </trkpt>
      <trkpt lat="44.61329" lon="0.84748">
        <ele>153</ele>
        <time>2018-03-03T17:23:55.511Z</time>
      </trkpt>
      <trkpt lat="44.6133" lon="0.8475">
        <ele>154</ele>
        <time>2018-03-03T17:23:56.511Z</time>
      </trkpt>
      <trkpt lat="44.61332" lon="0.84752">
        <ele>154</ele>
        <time>2018-03-03T17:23:57.511Z</time>
      </trkpt>
      <trkpt lat="44.61333" lon="0.84754">
        <ele>154</ele>
        <time>2018-03-03T17:23:58.511Z</time>
      </trkpt>
      <trkpt lat="44.61335" lon="0.84756">
        <ele>154</ele>
        <time>2018-03-03T17:23:59.511Z</time>
      </trkpt>
      <trkpt lat="44.61336" lon="0.84759">
        <ele>154</ele>
        <time>2018-03-03T17:24:00.511Z</time>
      </trkpt>
      <trkpt lat="44.61336" lon="0.84761">
        <ele>155</ele>
        <time>2018-03-03T17:24:01.511Z</time>
      </trkpt>
      <trkpt lat="44.61337" lon="0.84764">
        <ele>155</ele>
        <time>2018-03-03T17:24:02.511Z</time>
      </trkpt>
      <trkpt lat="44.61337" lon="0.84767">
        <ele>155</ele>
        <time>2018-03-03T17:24:03.511Z</time>
      </trkpt>
      <trkpt lat="44.61337" lon="0.84769">
        <ele>155</ele>
        <time>2018-03-03T17:24:04.511Z</time>
      </trkpt>
      <trkpt lat="44.61338" lon="0.84772">
        <ele>155</ele>
        <time>2018-03-03T17:24:05.511Z</time>
      </trkpt>
      <trkpt lat="44.61338" lon="0.84775">
        <ele>156</ele>
        <time>2018-03-03T17:24:06.511Z</time>
      </trkpt>
      <trkpt lat="44.61339" lon="0.84778">
        <ele>156</ele>
        <time>2018-03-03T17:24:07.511Z</time>
      </trkpt>
      <trkpt lat="44.6134" lon="0.84781">
        <ele>156</ele>
        <time>2018-03-03T17:24:08.511Z</time>
      </trkpt>
      <trkpt lat="44.61341" lon="0.84784">
        <ele>156</ele>
        <time>2018-03-03T17:24:09.511Z</time>
      </trkpt>
      <trkpt lat="44.61342" lon="0.84786">
        <ele>156</ele>
        <time>2018-03-03T17:24:10.511Z</time>
      </trkpt>
      <trkpt lat="44.61344" lon="0.84789">
        <ele>157</ele>
        <time>2018-03-03T17:24:11.511Z</time>
      </trkpt>
      <trkpt lat="44.61345" lon="0.84791">
        <ele>157</ele>
        <time>2018-03-03T17:24:12.511Z</time>
      </trkpt>
      <trkpt lat="44.61347" lon="0.84792">
        <ele>157</ele>
        <time>2018-03-03T17:24:13.511Z</time>
      </trkpt>
      <trkpt lat="44.61348" lon="0.84793">
        <ele>157</ele>
        <time>2018-03-03T17:24:14.511Z</time>
      </trkpt>
      <trkpt lat="44.6135" lon="0.84794">
        <ele>157</ele>
        <time>2018-03-03T17:24:15.511Z</time>
      </trkpt>
      <trkpt lat="44.61351" lon="0.84795">
        <ele>157</ele>
        <time>2018-03-03T17:24:16.511Z</time>
      </trkpt>
      <trkpt lat="44.61353" lon="0.84796">
        <ele>158</ele>
        <time>2018-03-03T17:24:17.511Z</time>
      </trkpt>
      <trkpt lat="44.61354" lon="0.84796">
        <ele>158</ele>
        <time>2018-03-03T17:24:18.511Z</time>
      </trkpt>
      <trkpt lat="44.61356" lon="0.84797">
        <ele>158</ele>
        <time>2018-03-03T17:24:19.511Z</time>
      </trkpt>
      <trkpt lat="44.61358" lon="0.84798">
        <ele>158</ele>
        <time>2018-03-03T17:24:20.511Z</time>
      </trkpt>
      <trkpt lat="44.61359" lon="0.84799">
        <ele>158</ele>
        <time>2018-03-03T17:24:21.511Z</time>
      </trkpt>
      <trkpt lat="44.61361" lon="0.848">
        <ele>158</ele>
        <time>2018-03-03T17:24:22.511Z</time>
      </trkpt>
      <trkpt lat="44.61363" lon="0.84801">
        <ele>158</ele>
        <time>2018-03-03T17:24:23.511Z</time>
      </trkpt>
      <trkpt lat="44.61364" lon="0.84803">
        <ele>159</ele>
        <time>2018-03-03T17:24:24.511Z</time>
      </trkpt>
      <trkpt lat="44.61366" lon="0.84805">
        <ele>159</ele>
        <time>2018-03-03T17:24:25.511Z</time>
      </trkpt>
      <trkpt lat="44.61367" lon="0.84807">
        <ele>159</ele>
        <time>2018-03-03T17:24:26.511Z</time>
      </trkpt>
      <trkpt lat="44.61368" lon="0.84809">
        <ele>159</ele>
        <time>2018-03-03T17:24:27.511Z</time>
      </trkpt>
      <trkpt lat="44.61369" lon="0.84811">
        <ele>159</ele>
        <time>2018-03-03T17:24:28.511Z</time>
      </trkpt>
      <trkpt lat="44.61369" lon="0.84814">
        <ele>159</ele>
        <time>2018-03-03T17:24:29.511Z</time>
      </trkpt>
      <trkpt lat="44.6137" lon="0.84817">
        <ele>159</ele>
        <time>2018-03-03T17:24:30.511Z</time>
      </trkpt>
      <trkpt lat="44.6137" lon="0.84821">
        <ele>159</ele>
        <time>2018-03-03T17:24:31.511Z</time>
      </trkpt>
      <trkpt lat="44.6137" lon="0.84824">
        <ele>159</ele>
        <time>2018-03-03T17:24:32.511Z</time>
      </trkpt>
      <trkpt lat="44.6137" lon="0.84827">
        <ele>159</ele>
        <time>2018-03-03T17:24:33.511Z</time>
      </trkpt>
      <trkpt lat="44.6137" lon="0.84831">
        <ele>159</ele>
        <time>2018-03-03T17:24:34.511Z</time>
      </trkpt>
      <trkpt lat="44.6137" lon="0.84835">
        <ele>159</ele>
        <time>2018-03-03T17:24:35.511Z</time>
      </trkpt>
      <trkpt lat="44.61371" lon="0.84838">
        <ele>159</ele>
        <time>2018-03-03T17:24:36.511Z</time>
      </trkpt>
      <trkpt lat="44.61372" lon="0.84842">
        <ele>159</ele>
        <time>2018-03-03T17:24:37.511Z</time>
      </trkpt>
      <trkpt lat="44.61373" lon="0.84845">
        <ele>159</ele>
        <time>2018-03-03T17:24:38.511Z</time>
      </trkpt>
      <trkpt lat="44.61374" lon="0.84849">
        <ele>159</ele>
        <time>2018-03-03T17:24:39.511Z</time>
      </trkpt>
      <trkpt lat="44.61375" lon="0.84853">
        <ele>159</ele>
        <time>2018-03-03T17:24:40.511Z</time>
      </trkpt>
      <trkpt lat="44.61375" lon="0.84857">
        <ele>159</ele>
        <time>2018-03-03T17:24:41.511Z</time>
      </trkpt>
      <trkpt lat="44.61376" lon="0.84861">
        <ele>159</ele>
        <time>2018-03-03T17:24:42.511Z</time>
      </trkpt>
      <trkpt lat="44.61377" lon="0.84865">
        <ele>159</ele>
        <time>2018-03-03T17:24:43.511Z</time>
      </trkpt>
      <trkpt lat="44.61377" lon="0.84869">
        <ele>159</ele>
        <time>2018-03-03T17:24:44.511Z</time>
      </trkpt>
      <trkpt lat="44.61378" lon="0.84873">
        <ele>159</ele>
        <time>2018-03-03T17:24:45.511Z</time>
      </trkpt>
      <trkpt lat="44.61379" lon="0.84877">
        <ele>159</ele>
        <time>2018-03-03T17:24:46.511Z</time>
      </trkpt>
      <trkpt lat="44.61379" lon="0.84881">
        <ele>160</ele>
        <time>2018-03-03T17:24:47.511Z</time>
      </trkpt>
      <trkpt lat="44.6138" lon="0.84885">
        <ele>160</ele>
        <time>2018-03-03T17:24:48.511Z</time>
      </trkpt>
      <trkpt lat="44.61381" lon="0.84889">
        <ele>160</ele>
        <time>2018-03-03T17:24:49.511Z</time>
      </trkpt>
      <trkpt lat="44.61382" lon="0.84892">
        <ele>160</ele>
        <time>2018-03-03T17:24:50.511Z</time>
      </trkpt>
      <trkpt lat="44.61384" lon="0.84896">
        <ele>160</ele>
        <time>2018-03-03T17:24:51.511Z</time>
      </trkpt>
      <trkpt lat="44.61385" lon="0.849">
        <ele>160</ele>
        <time>2018-03-03T17:24:52.511Z</time>
      </trkpt>
      <trkpt lat="44.61386" lon="0.84903">
        <ele>160</ele>
        <time>2018-03-03T17:24:53.511Z</time>
      </trkpt>
      <trkpt lat="44.61387" lon="0.84907">
        <ele>160</ele>
        <time>2018-03-03T17:24:54.511Z</time>
      </trkpt>
      <trkpt lat="44.61389" lon="0.8491">
        <ele>160</ele>
        <time>2018-03-03T17:24:55.511Z</time>
      </trkpt>
      <trkpt lat="44.6139" lon="0.84914">
        <ele>160</ele>
        <time>2018-03-03T17:24:56.511Z</time>
      </trkpt>
      <trkpt lat="44.61392" lon="0.84918">
        <ele>160</ele>
        <time>2018-03-03T17:24:57.511Z</time>
      </trkpt>
      <trkpt lat="44.61393" lon="0.84922">
        <ele>160</ele>
        <time>2018-03-03T17:24:58.511Z</time>
      </trkpt>
      <trkpt lat="44.61395" lon="0.84926">
        <ele>160</ele>
        <time>2018-03-03T17:24:59.511Z</time>
      </trkpt>
      <trkpt lat="44.61396" lon="0.8493">
        <ele>161</ele>
        <time>2018-03-03T17:25:00.511Z</time>
      </trkpt>
      <trkpt lat="44.61398" lon="0.84935">
        <ele>161</ele>
        <time>2018-03-03T17:25:01.511Z</time>
      </trkpt>
      <trkpt lat="44.61399" lon="0.84939">
        <ele>161</ele>
        <time>2018-03-03T17:25:02.511Z</time>
      </trkpt>
      <trkpt lat="44.61401" lon="0.84943">
        <ele>161</ele>
        <time>2018-03-03T17:25:03.511Z</time>
      </trkpt>
      <trkpt lat="44.61403" lon="0.84948">
        <ele>161</ele>
        <time>2018-03-03T17:25:04.511Z</time>
      </trkpt>
      <trkpt lat="44.61405" lon="0.84952">
        <ele>161</ele>
        <time>2018-03-03T17:25:05.511Z</time>
      </trkpt>
      <trkpt lat="44.61407" lon="0.84957">
        <ele>160</ele>
        <time>2018-03-03T17:25:06.511Z</time>
      </trkpt>
      <trkpt lat="44.61409" lon="0.84961">
        <ele>160</ele>
        <time>2018-03-03T17:25:07.511Z</time>
      </trkpt>
      <trkpt lat="44.61412" lon="0.84965">
        <ele>160</ele>
        <time>2018-03-03T17:25:08.511Z</time>
      </trkpt>
      <trkpt lat="44.61415" lon="0.8497">
        <ele>160</ele>
        <time>2018-03-03T17:25:09.511Z</time>
      </trkpt>
      <trkpt lat="44.61417" lon="0.84974">
        <ele>160</ele>
        <time>2018-03-03T17:25:10.511Z</time>
      </trkpt>
      <trkpt lat="44.61419" lon="0.84978">
        <ele>160</ele>
        <time>2018-03-03T17:25:11.511Z</time>
      </trkpt>
      <trkpt lat="44.61421" lon="0.84982">
        <ele>160</ele>
        <time>2018-03-03T17:25:12.511Z</time>
      </trkpt>
      <trkpt lat="44.61423" lon="0.84987">
        <ele>160</ele>
        <time>2018-03-03T17:25:13.511Z</time>
      </trkpt>
      <trkpt lat="44.61424" lon="0.84991">
        <ele>160</ele>
        <time>2018-03-03T17:25:14.511Z</time>
      </trkpt>
      <trkpt lat="44.61424" lon="0.84995">
        <ele>160</ele>
        <time>2018-03-03T17:25:15.511Z</time>
      </trkpt>
      <trkpt lat="44.61424" lon="0.84999">
        <ele>160</ele>
        <time>2018-03-03T17:25:16.511Z</time>
      </trkpt>
      <trkpt lat="44.61423" lon="0.85003">
        <ele>160</ele>
        <time>2018-03-03T17:25:17.511Z</time>
      </trkpt>
      <trkpt lat="44.61421" lon="0.85008">
        <ele>160</ele>
        <time>2018-03-03T17:25:18.511Z</time>
      </trkpt>
      <trkpt lat="44.61418" lon="0.85012">
        <ele>160</ele>
        <time>2018-03-03T17:25:19.511Z</time>
      </trkpt>
      <trkpt lat="44.61415" lon="0.85016">
        <ele>160</ele>
        <time>2018-03-03T17:25:20.511Z</time>
      </trkpt>
      <trkpt lat="44.61413" lon="0.85021">
        <ele>160</ele>
        <time>2018-03-03T17:25:21.511Z</time>
      </trkpt>
      <trkpt lat="44.61411" lon="0.85025">
        <ele>160</ele>
        <time>2018-03-03T17:25:22.511Z</time>
      </trkpt>
      <trkpt lat="44.61409" lon="0.8503">
        <ele>161</ele>
        <time>2018-03-03T17:25:23.511Z</time>
      </trkpt>
      <trkpt lat="44.61407" lon="0.85035">
        <ele>161</ele>
        <time>2018-03-03T17:25:24.511Z</time>
      </trkpt>
      <trkpt lat="44.61405" lon="0.8504">
        <ele>161</ele>
        <time>2018-03-03T17:25:25.511Z</time>
      </trkpt>
      <trkpt lat="44.61403" lon="0.85045">
        <ele>161</ele>
        <time>2018-03-03T17:25:26.511Z</time>
      </trkpt>
      <trkpt lat="44.61402" lon="0.8505">
        <ele>161</ele>
        <time>2018-03-03T17:25:27.511Z</time>
      </trkpt>
      <trkpt lat="44.614" lon="0.85055">
        <ele>161</ele>
        <time>2018-03-03T17:25:28.511Z</time>
      </trkpt>
      <trkpt lat="44.61399" lon="0.85061">
        <ele>162</ele>
        <time>2018-03-03T17:25:29.511Z</time>
      </trkpt>
      <trkpt lat="44.61398" lon="0.85066">
        <ele>162</ele>
        <time>2018-03-03T17:25:30.511Z</time>
      </trkpt>
      <trkpt lat="44.61397" lon="0.85072">
        <ele>162</ele>
        <time>2018-03-03T17:25:31.511Z</time>
      </trkpt>
      <trkpt lat="44.61397" lon="0.85077">
        <ele>162</ele>
        <time>2018-03-03T17:25:32.511Z</time>
      </trkpt>
      <trkpt lat="44.61397" lon="0.85082">
        <ele>162</ele>
        <time>2018-03-03T17:25:33.511Z</time>
      </trkpt>
      <trkpt lat="44.61397" lon="0.85087">
        <ele>162</ele>
        <time>2018-03-03T17:25:34.511Z</time>
      </trkpt>
      <trkpt lat="44.61397" lon="0.85093">
        <ele>163</ele>
        <time>2018-03-03T17:25:35.511Z</time>
      </trkpt>
      <trkpt lat="44.61396" lon="0.85098">
        <ele>163</ele>
        <time>2018-03-03T17:25:36.511Z</time>
      </trkpt>
      <trkpt lat="44.61396" lon="0.85103">
        <ele>163</ele>
        <time>2018-03-03T17:25:37.511Z</time>
      </trkpt>
      <trkpt lat="44.61395" lon="0.85108">
        <ele>163</ele>
        <time>2018-03-03T17:25:38.511Z</time>
      </trkpt>
      <trkpt lat="44.61395" lon="0.85113">
        <ele>163</ele>
        <time>2018-03-03T17:25:39.511Z</time>
      </trkpt>
      <trkpt lat="44.61394" lon="0.85118">
        <ele>163</ele>
        <time>2018-03-03T17:25:40.511Z</time>
      </trkpt>
      <trkpt lat="44.61393" lon="0.85123">
        <ele>164</ele>
        <time>2018-03-03T17:25:41.511Z</time>
      </trkpt>
      <trkpt lat="44.61392" lon="0.85128">
        <ele>164</ele>
        <time>2018-03-03T17:25:42.511Z</time>
      </trkpt>
      <trkpt lat="44.61391" lon="0.85133">
        <ele>164</ele>
        <time>2018-03-03T17:25:43.511Z</time>
      </trkpt>
      <trkpt lat="44.6139" lon="0.85138">
        <ele>164</ele>
        <time>2018-03-03T17:25:44.511Z</time>
      </trkpt>
      <trkpt lat="44.61389" lon="0.85143">
        <ele>164</ele>
        <time>2018-03-03T17:25:45.511Z</time>
      </trkpt>
      <trkpt lat="44.61387" lon="0.85148">
        <ele>164</ele>
        <time>2018-03-03T17:25:46.511Z</time>
      </trkpt>
      <trkpt lat="44.61386" lon="0.85153">
        <ele>164</ele>
        <time>2018-03-03T17:25:47.511Z</time>
      </trkpt>
      <trkpt lat="44.61385" lon="0.85157">
        <ele>165</ele>
        <time>2018-03-03T17:25:48.511Z</time>
      </trkpt>
      <trkpt lat="44.61383" lon="0.85162">
        <ele>165</ele>
        <time>2018-03-03T17:25:49.511Z</time>
      </trkpt>
      <trkpt lat="44.61382" lon="0.85167">
        <ele>165</ele>
        <time>2018-03-03T17:25:50.511Z</time>
      </trkpt>
      <trkpt lat="44.61381" lon="0.85172">
        <ele>165</ele>
        <time>2018-03-03T17:25:51.511Z</time>
      </trkpt>
      <trkpt lat="44.6138" lon="0.85177">
        <ele>165</ele>
        <time>2018-03-03T17:25:52.511Z</time>
      </trkpt>
      <trkpt lat="44.61379" lon="0.85182">
        <ele>165</ele>
        <time>2018-03-03T17:25:53.511Z</time>
      </trkpt>
      <trkpt lat="44.61379" lon="0.85187">
        <ele>165</ele>
        <time>2018-03-03T17:25:54.511Z</time>
      </trkpt>
      <trkpt lat="44.61379" lon="0.85192">
        <ele>165</ele>
        <time>2018-03-03T17:25:55.511Z</time>
      </trkpt>
      <trkpt lat="44.6138" lon="0.85196">
        <ele>166</ele>
        <time>2018-03-03T17:25:56.511Z</time>
      </trkpt>
      <trkpt lat="44.61381" lon="0.85201">
        <ele>166</ele>
        <time>2018-03-03T17:25:57.511Z</time>
      </trkpt>
      <trkpt lat="44.61382" lon="0.85205">
        <ele>166</ele>
        <time>2018-03-03T17:25:58.511Z</time>
      </trkpt>
      <trkpt lat="44.61383" lon="0.85209">
        <ele>166</ele>
        <time>2018-03-03T17:25:59.511Z</time>
      </trkpt>
      <trkpt lat="44.61383" lon="0.85214">
        <ele>166</ele>
        <time>2018-03-03T17:26:00.511Z</time>
      </trkpt>
      <trkpt lat="44.61383" lon="0.85218">
        <ele>167</ele>
        <time>2018-03-03T17:26:01.511Z</time>
      </trkpt>
      <trkpt lat="44.61382" lon="0.85223">
        <ele>167</ele>
        <time>2018-03-03T17:26:02.511Z</time>
      </trkpt>
      <trkpt lat="44.61381" lon="0.85227">
        <ele>167</ele>
        <time>2018-03-03T17:26:03.511Z</time>
      </trkpt>
      <trkpt lat="44.6138" lon="0.85232">
        <ele>167</ele>
        <time>2018-03-03T17:26:04.511Z</time>
      </trkpt>
      <trkpt lat="44.61379" lon="0.85236">
        <ele>167</ele>
        <time>2018-03-03T17:26:05.511Z</time>
      </trkpt>
      <trkpt lat="44.61378" lon="0.8524">
        <ele>167</ele>
        <time>2018-03-03T17:26:06.511Z</time>
      </trkpt>
      <trkpt lat="44.61377" lon="0.85245">
        <ele>167</ele>
        <time>2018-03-03T17:26:07.511Z</time>
      </trkpt>
      <trkpt lat="44.61376" lon="0.85249">
        <ele>168</ele>
        <time>2018-03-03T17:26:08.511Z</time>
      </trkpt>
      <trkpt lat="44.61375" lon="0.85253">
        <ele>168</ele>
        <time>2018-03-03T17:26:09.511Z</time>
      </trkpt>
      <trkpt lat="44.61374" lon="0.85257">
        <ele>168</ele>
        <time>2018-03-03T17:26:10.511Z</time>
      </trkpt>
      <trkpt lat="44.61373" lon="0.85261">
        <ele>168</ele>
        <time>2018-03-03T17:26:11.511Z</time>
      </trkpt>
      <trkpt lat="44.61372" lon="0.85265">
        <ele>169</ele>
        <time>2018-03-03T17:26:12.511Z</time>
      </trkpt>
      <trkpt lat="44.6137" lon="0.85268">
        <ele>169</ele>
        <time>2018-03-03T17:26:13.511Z</time>
      </trkpt>
      <trkpt lat="44.61369" lon="0.85272">
        <ele>169</ele>
        <time>2018-03-03T17:26:14.511Z</time>
      </trkpt>
      <trkpt lat="44.61368" lon="0.85275">
        <ele>169</ele>
        <time>2018-03-03T17:26:15.511Z</time>
      </trkpt>
      <trkpt lat="44.61367" lon="0.85278">
        <ele>170</ele>
        <time>2018-03-03T17:26:16.511Z</time>
      </trkpt>
      <trkpt lat="44.61366" lon="0.85281">
        <ele>170</ele>
        <time>2018-03-03T17:26:17.511Z</time>
      </trkpt>
      <trkpt lat="44.61365" lon="0.85284">
        <ele>170</ele>
        <time>2018-03-03T17:26:18.511Z</time>
      </trkpt>
      <trkpt lat="44.61364" lon="0.85287">
        <ele>170</ele>
        <time>2018-03-03T17:26:19.511Z</time>
      </trkpt>
      <trkpt lat="44.61363" lon="0.85289">
        <ele>170</ele>
        <time>2018-03-03T17:26:20.511Z</time>
      </trkpt>
      <trkpt lat="44.61362" lon="0.85292">
        <ele>171</ele>
        <time>2018-03-03T17:26:21.511Z</time>
      </trkpt>
      <trkpt lat="44.61361" lon="0.85294">
        <ele>171</ele>
        <time>2018-03-03T17:26:22.511Z</time>
      </trkpt>
      <trkpt lat="44.6136" lon="0.85296">
        <ele>171</ele>
        <time>2018-03-03T17:26:23.511Z</time>
      </trkpt>
      <trkpt lat="44.61359" lon="0.85298">
        <ele>172</ele>
        <time>2018-03-03T17:26:24.511Z</time>
      </trkpt>
      <trkpt lat="44.61358" lon="0.853">
        <ele>172</ele>
        <time>2018-03-03T17:26:25.511Z</time>
      </trkpt>
      <trkpt lat="44.61357" lon="0.85302">
        <ele>172</ele>
        <time>2018-03-03T17:26:26.511Z</time>
      </trkpt>
      <trkpt lat="44.61356" lon="0.85304">
        <ele>172</ele>
        <time>2018-03-03T17:26:27.511Z</time>
      </trkpt>
      <trkpt lat="44.61355" lon="0.85306">
        <ele>172</ele>
        <time>2018-03-03T17:26:28.511Z</time>
      </trkpt>
      <trkpt lat="44.61354" lon="0.85308">
        <ele>172</ele>
        <time>2018-03-03T17:26:29.511Z</time>
      </trkpt>
      <trkpt lat="44.61353" lon="0.85311">
        <ele>172</ele>
        <time>2018-03-03T17:26:30.511Z</time>
      </trkpt>
      <trkpt lat="44.61351" lon="0.85315">
        <ele>172</ele>
        <time>2018-03-03T17:26:31.511Z</time>
      </trkpt>
      <trkpt lat="44.6135" lon="0.85319">
        <ele>172</ele>
        <time>2018-03-03T17:26:32.511Z</time>
      </trkpt>
      <trkpt lat="44.61348" lon="0.85323">
        <ele>172</ele>
        <time>2018-03-03T17:26:33.511Z</time>
      </trkpt>
      <trkpt lat="44.61347" lon="0.85328">
        <ele>172</ele>
        <time>2018-03-03T17:26:34.511Z</time>
      </trkpt>
      <trkpt lat="44.61345" lon="0.85334">
        <ele>172</ele>
        <time>2018-03-03T17:26:35.511Z</time>
      </trkpt>
      <trkpt lat="44.61342" lon="0.85339">
        <ele>171</ele>
        <time>2018-03-03T17:26:36.511Z</time>
      </trkpt>
      <trkpt lat="44.61339" lon="0.85344">
        <ele>171</ele>
        <time>2018-03-03T17:26:37.511Z</time>
      </trkpt>
      <trkpt lat="44.61335" lon="0.85349">
        <ele>171</ele>
        <time>2018-03-03T17:26:38.511Z</time>
      </trkpt>
      <trkpt lat="44.61331" lon="0.85353">
        <ele>171</ele>
        <time>2018-03-03T17:26:39.511Z</time>
      </trkpt>
      <trkpt lat="44.61327" lon="0.85357">
        <ele>171</ele>
        <time>2018-03-03T17:26:40.511Z</time>
      </trkpt>
      <trkpt lat="44.61323" lon="0.85361">
        <ele>170</ele>
        <time>2018-03-03T17:26:41.511Z</time>
      </trkpt>
      <trkpt lat="44.61318" lon="0.85364">
        <ele>170</ele>
        <time>2018-03-03T17:26:42.511Z</time>
      </trkpt>
      <trkpt lat="44.61314" lon="0.85368">
        <ele>170</ele>
        <time>2018-03-03T17:26:43.511Z</time>
      </trkpt>
      <trkpt lat="44.61311" lon="0.85373">
        <ele>170</ele>
        <time>2018-03-03T17:26:44.511Z</time>
      </trkpt>
      <trkpt lat="44.61308" lon="0.85378">
        <ele>170</ele>
        <time>2018-03-03T17:26:45.511Z</time>
      </trkpt>
      <trkpt lat="44.61304" lon="0.85383">
        <ele>170</ele>
        <time>2018-03-03T17:26:46.511Z</time>
      </trkpt>
      <trkpt lat="44.61301" lon="0.85389">
        <ele>170</ele>
        <time>2018-03-03T17:26:47.511Z</time>
      </trkpt>
      <trkpt lat="44.61299" lon="0.85394">
        <ele>170</ele>
        <time>2018-03-03T17:26:48.511Z</time>
      </trkpt>
      <trkpt lat="44.61297" lon="0.854">
        <ele>169</ele>
        <time>2018-03-03T17:26:49.511Z</time>
      </trkpt>
      <trkpt lat="44.61297" lon="0.85407">
        <ele>169</ele>
        <time>2018-03-03T17:26:50.511Z</time>
      </trkpt>
      <trkpt lat="44.61298" lon="0.85414">
        <ele>169</ele>
        <time>2018-03-03T17:26:51.511Z</time>
      </trkpt>
      <trkpt lat="44.613" lon="0.85423">
        <ele>169</ele>
        <time>2018-03-03T17:26:52.511Z</time>
      </trkpt>
      <trkpt lat="44.61303" lon="0.85433">
        <ele>168</ele>
        <time>2018-03-03T17:26:53.511Z</time>
      </trkpt>
      <trkpt lat="44.61307" lon="0.85443">
        <ele>167</ele>
        <time>2018-03-03T17:26:54.511Z</time>
      </trkpt>
      <trkpt lat="44.61312" lon="0.85455">
        <ele>166</ele>
        <time>2018-03-03T17:26:55.511Z</time>
      </trkpt>
      <trkpt lat="44.61316" lon="0.85466">
        <ele>166</ele>
        <time>2018-03-03T17:26:56.511Z</time>
      </trkpt>
      <trkpt lat="44.61321" lon="0.85478">
        <ele>165</ele>
        <time>2018-03-03T17:26:57.511Z</time>
      </trkpt>
      <trkpt lat="44.61326" lon="0.8549">
        <ele>164</ele>
        <time>2018-03-03T17:26:58.511Z</time>
      </trkpt>
      <trkpt lat="44.6133" lon="0.85502">
        <ele>164</ele>
        <time>2018-03-03T17:26:59.511Z</time>
      </trkpt>
      <trkpt lat="44.61334" lon="0.85513">
        <ele>163</ele>
        <time>2018-03-03T17:27:00.511Z</time>
      </trkpt>
      <trkpt lat="44.61339" lon="0.85524">
        <ele>163</ele>
        <time>2018-03-03T17:27:01.511Z</time>
      </trkpt>
      <trkpt lat="44.61343" lon="0.85534">
        <ele>162</ele>
        <time>2018-03-03T17:27:02.511Z</time>
      </trkpt>
      <trkpt lat="44.61347" lon="0.85543">
        <ele>162</ele>
        <time>2018-03-03T17:27:03.511Z</time>
      </trkpt>
      <trkpt lat="44.61351" lon="0.85552">
        <ele>162</ele>
        <time>2018-03-03T17:27:04.511Z</time>
      </trkpt>
      <trkpt lat="44.61354" lon="0.8556">
        <ele>163</ele>
        <time>2018-03-03T17:27:05.511Z</time>
      </trkpt>
      <trkpt lat="44.61357" lon="0.85568">
        <ele>163</ele>
        <time>2018-03-03T17:27:06.511Z</time>
      </trkpt>
      <trkpt lat="44.6136" lon="0.85574">
        <ele>164</ele>
        <time>2018-03-03T17:27:07.511Z</time>
      </trkpt>
      <trkpt lat="44.61363" lon="0.8558">
        <ele>165</ele>
        <time>2018-03-03T17:27:08.511Z</time>
      </trkpt>
      <trkpt lat="44.61365" lon="0.85584">
        <ele>166</ele>
        <time>2018-03-03T17:27:09.511Z</time>
      </trkpt>
      <trkpt lat="44.61366" lon="0.85588">
        <ele>166</ele>
        <time>2018-03-03T17:27:10.511Z</time>
      </trkpt>
      <trkpt lat="44.61368" lon="0.85591">
        <ele>167</ele>
        <time>2018-03-03T17:27:11.511Z</time>
      </trkpt>
      <trkpt lat="44.61369" lon="0.85593">
        <ele>168</ele>
        <time>2018-03-03T17:27:12.511Z</time>
      </trkpt>
      <trkpt lat="44.6137" lon="0.85595">
        <ele>168</ele>
        <time>2018-03-03T17:27:13.511Z</time>
      </trkpt>
      <trkpt lat="44.61371" lon="0.85597">
        <ele>169</ele>
        <time>2018-03-03T17:27:14.511Z</time>
      </trkpt>
      <trkpt lat="44.61372" lon="0.856">
        <ele>169</ele>
        <time>2018-03-03T17:27:15.511Z</time>
      </trkpt>
      <trkpt lat="44.61373" lon="0.85603">
        <ele>170</ele>
        <time>2018-03-03T17:27:16.511Z</time>
      </trkpt>
      <trkpt lat="44.61374" lon="0.85606">
        <ele>170</ele>
        <time>2018-03-03T17:27:17.511Z</time>
      </trkpt>
      <trkpt lat="44.61375" lon="0.85609">
        <ele>170</ele>
        <time>2018-03-03T17:27:18.511Z</time>
      </trkpt>
      <trkpt lat="44.61376" lon="0.85613">
        <ele>171</ele>
        <time>2018-03-03T17:27:19.511Z</time>
      </trkpt>
      <trkpt lat="44.61377" lon="0.85617">
        <ele>171</ele>
        <time>2018-03-03T17:27:20.511Z</time>
      </trkpt>
      <trkpt lat="44.61379" lon="0.85621">
        <ele>171</ele>
        <time>2018-03-03T17:27:21.511Z</time>
      </trkpt>
      <trkpt lat="44.6138" lon="0.85626">
        <ele>171</ele>
        <time>2018-03-03T17:27:22.511Z</time>
      </trkpt>
      <trkpt lat="44.61382" lon="0.85631">
        <ele>171</ele>
        <time>2018-03-03T17:27:23.511Z</time>
      </trkpt>
      <trkpt lat="44.61384" lon="0.85637">
        <ele>170</ele>
        <time>2018-03-03T17:27:24.511Z</time>
      </trkpt>
      <trkpt lat="44.61386" lon="0.85643">
        <ele>170</ele>
        <time>2018-03-03T17:27:25.511Z</time>
      </trkpt>
      <trkpt lat="44.61389" lon="0.8565">
        <ele>169</ele>
        <time>2018-03-03T17:27:26.511Z</time>
      </trkpt>
      <trkpt lat="44.61392" lon="0.85657">
        <ele>169</ele>
        <time>2018-03-03T17:27:27.511Z</time>
      </trkpt>
      <trkpt lat="44.61396" lon="0.85664">
        <ele>168</ele>
        <time>2018-03-03T17:27:28.511Z</time>
      </trkpt>
      <trkpt lat="44.61399" lon="0.85669">
        <ele>168</ele>
        <time>2018-03-03T17:27:29.511Z</time>
      </trkpt>
      <trkpt lat="44.61403" lon="0.85672">
        <ele>168</ele>
        <time>2018-03-03T17:27:30.511Z</time>
      </trkpt>
      <trkpt lat="44.61406" lon="0.85672">
        <ele>167</ele>
        <time>2018-03-03T17:27:31.511Z</time>
      </trkpt>
      <trkpt lat="44.61409" lon="0.8567">
        <ele>167</ele>
        <time>2018-03-03T17:27:32.511Z</time>
      </trkpt>
      <trkpt lat="44.61411" lon="0.85667">
        <ele>167</ele>
        <time>2018-03-03T17:27:33.511Z</time>
      </trkpt>
      <trkpt lat="44.61413" lon="0.85662">
        <ele>166</ele>
        <time>2018-03-03T17:27:34.511Z</time>
      </trkpt>
      <trkpt lat="44.61414" lon="0.85656">
        <ele>166</ele>
        <time>2018-03-03T17:27:35.511Z</time>
      </trkpt>
      <trkpt lat="44.61416" lon="0.8565">
        <ele>166</ele>
        <time>2018-03-03T17:27:36.511Z</time>
      </trkpt>
      <trkpt lat="44.61418" lon="0.85643">
        <ele>166</ele>
        <time>2018-03-03T17:27:37.511Z</time>
      </trkpt>
      <trkpt lat="44.6142" lon="0.85636">
        <ele>165</ele>
        <time>2018-03-03T17:27:38.511Z</time>
      </trkpt>
      <trkpt lat="44.61422" lon="0.85629">
        <ele>165</ele>
        <time>2018-03-03T17:27:39.511Z</time>
      </trkpt>
      <trkpt lat="44.61424" lon="0.85621">
        <ele>165</ele>
        <time>2018-03-03T17:27:40.511Z</time>
      </trkpt>
      <trkpt lat="44.61427" lon="0.85614">
        <ele>164</ele>
        <time>2018-03-03T17:27:41.511Z</time>
      </trkpt>
      <trkpt lat="44.61428" lon="0.85607">
        <ele>164</ele>
        <time>2018-03-03T17:27:42.511Z</time>
      </trkpt>
      <trkpt lat="44.6143" lon="0.85601">
        <ele>163</ele>
        <time>2018-03-03T17:27:43.511Z</time>
      </trkpt>
      <trkpt lat="44.61431" lon="0.85595">
        <ele>163</ele>
        <time>2018-03-03T17:27:44.511Z</time>
      </trkpt>
      <trkpt lat="44.61431" lon="0.85591">
        <ele>163</ele>
        <time>2018-03-03T17:27:45.511Z</time>
      </trkpt>
      <trkpt lat="44.61431" lon="0.85587">
        <ele>163</ele>
        <time>2018-03-03T17:27:46.511Z</time>
      </trkpt>
      <trkpt lat="44.6143" lon="0.85584">
        <ele>163</ele>
        <time>2018-03-03T17:27:47.511Z</time>
      </trkpt>
      <trkpt lat="44.6143" lon="0.8558">
        <ele>163</ele>
        <time>2018-03-03T17:27:48.511Z</time>
      </trkpt>
      <trkpt lat="44.61429" lon="0.85577">
        <ele>162</ele>
        <time>2018-03-03T17:27:49.511Z</time>
      </trkpt>
      <trkpt lat="44.61428" lon="0.85573">
        <ele>162</ele>
        <time>2018-03-03T17:27:50.511Z</time>
      </trkpt>
      <trkpt lat="44.61428" lon="0.85569">
        <ele>162</ele>
        <time>2018-03-03T17:27:51.511Z</time>
      </trkpt>
      <trkpt lat="44.61427" lon="0.85563">
        <ele>162</ele>
        <time>2018-03-03T17:27:52.511Z</time>
      </trkpt>
      <trkpt lat="44.61427" lon="0.85556">
        <ele>161</ele>
        <time>2018-03-03T17:27:53.511Z</time>
      </trkpt>
      <trkpt lat="44.61427" lon="0.85547">
        <ele>161</ele>
        <time>2018-03-03T17:27:54.511Z</time>
      </trkpt>
      <trkpt lat="44.61428" lon="0.85538">
        <ele>160</ele>
        <time>2018-03-03T17:27:55.511Z</time>
      </trkpt>
      <trkpt lat="44.61428" lon="0.85529">
        <ele>159</ele>
        <time>2018-03-03T17:27:56.511Z</time>
      </trkpt>
      <trkpt lat="44.6143" lon="0.85519">
        <ele>159</ele>
        <time>2018-03-03T17:27:57.511Z</time>
      </trkpt>
      <trkpt lat="44.61431" lon="0.8551">
        <ele>159</ele>
        <time>2018-03-03T17:27:58.511Z</time>
      </trkpt>
      <trkpt lat="44.61433" lon="0.85501">
        <ele>158</ele>
        <time>2018-03-03T17:27:59.511Z</time>
      </trkpt>
      <trkpt lat="44.61434" lon="0.85493">
        <ele>158</ele>
        <time>2018-03-03T17:28:00.511Z</time>
      </trkpt>
      <trkpt lat="44.61436" lon="0.85485">
        <ele>158</ele>
        <time>2018-03-03T17:28:01.511Z</time>
      </trkpt>
      <trkpt lat="44.61438" lon="0.85478">
        <ele>158</ele>
        <time>2018-03-03T17:28:02.511Z</time>
      </trkpt>
      <trkpt lat="44.61439" lon="0.85472">
        <ele>159</ele>
        <time>2018-03-03T17:28:03.511Z</time>
      </trkpt>
      <trkpt lat="44.6144" lon="0.85466">
        <ele>159</ele>
        <time>2018-03-03T17:28:04.511Z</time>
      </trkpt>
      <trkpt lat="44.61441" lon="0.85461">
        <ele>159</ele>
        <time>2018-03-03T17:28:05.511Z</time>
      </trkpt>
      <trkpt lat="44.61442" lon="0.85457">
        <ele>160</ele>
        <time>2018-03-03T17:28:06.511Z</time>
      </trkpt>
      <trkpt lat="44.61443" lon="0.85453">
        <ele>160</ele>
        <time>2018-03-03T17:28:07.511Z</time>
      </trkpt>
      <trkpt lat="44.61444" lon="0.85449">
        <ele>161</ele>
        <time>2018-03-03T17:28:08.511Z</time>
      </trkpt>
      <trkpt lat="44.61445" lon="0.85446">
        <ele>161</ele>
        <time>2018-03-03T17:28:09.511Z</time>
      </trkpt>
      <trkpt lat="44.61445" lon="0.85443">
        <ele>162</ele>
        <time>2018-03-03T17:28:10.511Z</time>
      </trkpt>
      <trkpt lat="44.61446" lon="0.8544">
        <ele>163</ele>
        <time>2018-03-03T17:28:11.511Z</time>
      </trkpt>
      <trkpt lat="44.61447" lon="0.85437">
        <ele>163</ele>
        <time>2018-03-03T17:28:12.511Z</time>
      </trkpt>
      <trkpt lat="44.61448" lon="0.85434">
        <ele>164</ele>
        <time>2018-03-03T17:28:13.511Z</time>
      </trkpt>
      <trkpt lat="44.61449" lon="0.85431">
        <ele>164</ele>
        <time>2018-03-03T17:28:14.511Z</time>
      </trkpt>
      <trkpt lat="44.6145" lon="0.85428">
        <ele>165</ele>
        <time>2018-03-03T17:28:15.511Z</time>
      </trkpt>
      <trkpt lat="44.6145" lon="0.85425">
        <ele>165</ele>
        <time>2018-03-03T17:28:16.511Z</time>
      </trkpt>
      <trkpt lat="44.61451" lon="0.85422">
        <ele>166</ele>
        <time>2018-03-03T17:28:17.511Z</time>
      </trkpt>
      <trkpt lat="44.61452" lon="0.85419">
        <ele>166</ele>
        <time>2018-03-03T17:28:18.511Z</time>
      </trkpt>
      <trkpt lat="44.61453" lon="0.85415">
        <ele>166</ele>
        <time>2018-03-03T17:28:19.511Z</time>
      </trkpt>
      <trkpt lat="44.61454" lon="0.85411">
        <ele>167</ele>
        <time>2018-03-03T17:28:20.511Z</time>
      </trkpt>
      <trkpt lat="44.61454" lon="0.85407">
        <ele>167</ele>
        <time>2018-03-03T17:28:21.511Z</time>
      </trkpt>
      <trkpt lat="44.61455" lon="0.85403">
        <ele>167</ele>
        <time>2018-03-03T17:28:22.511Z</time>
      </trkpt>
      <trkpt lat="44.61456" lon="0.85399">
        <ele>167</ele>
        <time>2018-03-03T17:28:23.511Z</time>
      </trkpt>
      <trkpt lat="44.61457" lon="0.85394">
        <ele>167</ele>
        <time>2018-03-03T17:28:24.511Z</time>
      </trkpt>
      <trkpt lat="44.61458" lon="0.8539">
        <ele>168</ele>
        <time>2018-03-03T17:28:25.511Z</time>
      </trkpt>
      <trkpt lat="44.61459" lon="0.85385">
        <ele>168</ele>
        <time>2018-03-03T17:28:26.511Z</time>
      </trkpt>
      <trkpt lat="44.6146" lon="0.8538">
        <ele>167</ele>
        <time>2018-03-03T17:28:27.511Z</time>
      </trkpt>
      <trkpt lat="44.61461" lon="0.85375">
        <ele>167</ele>
        <time>2018-03-03T17:28:28.511Z</time>
      </trkpt>
      <trkpt lat="44.61462" lon="0.8537">
        <ele>167</ele>
        <time>2018-03-03T17:28:29.511Z</time>
      </trkpt>
      <trkpt lat="44.61463" lon="0.85365">
        <ele>167</ele>
        <time>2018-03-03T17:28:30.511Z</time>
      </trkpt>
      <trkpt lat="44.61464" lon="0.85359">
        <ele>167</ele>
        <time>2018-03-03T17:28:31.511Z</time>
      </trkpt>
      <trkpt lat="44.61465" lon="0.85355">
        <ele>168</ele>
        <time>2018-03-03T17:28:32.511Z</time>
      </trkpt>
      <trkpt lat="44.61466" lon="0.8535">
        <ele>168</ele>
        <time>2018-03-03T17:28:33.511Z</time>
      </trkpt>
      <trkpt lat="44.61467" lon="0.85345">
        <ele>168</ele>
        <time>2018-03-03T17:28:34.511Z</time>
      </trkpt>
      <trkpt lat="44.61468" lon="0.85341">
        <ele>168</ele>
        <time>2018-03-03T17:28:35.511Z</time>
      </trkpt>
      <trkpt lat="44.61469" lon="0.85337">
        <ele>168</ele>
        <time>2018-03-03T17:28:36.511Z</time>
      </trkpt>
      <trkpt lat="44.61469" lon="0.85333">
        <ele>169</ele>
        <time>2018-03-03T17:28:37.511Z</time>
      </trkpt>
      <trkpt lat="44.6147" lon="0.85329">
        <ele>169</ele>
        <time>2018-03-03T17:28:38.511Z</time>
      </trkpt>
      <trkpt lat="44.61471" lon="0.85325">
        <ele>169</ele>
        <time>2018-03-03T17:28:39.511Z</time>
      </trkpt>
      <trkpt lat="44.61472" lon="0.85322">
        <ele>169</ele>
        <time>2018-03-03T17:28:40.511Z</time>
      </trkpt>
      <trkpt lat="44.61473" lon="0.85319">
        <ele>169</ele>
        <time>2018-03-03T17:28:41.511Z</time>
      </trkpt>
      <trkpt lat="44.61473" lon="0.85315">
        <ele>170</ele>
        <time>2018-03-03T17:28:42.511Z</time>
      </trkpt>
      <trkpt lat="44.61474" lon="0.85312">
        <ele>170</ele>
        <time>2018-03-03T17:28:43.511Z</time>
      </trkpt>
      <trkpt lat="44.61475" lon="0.85309">
        <ele>170</ele>
        <time>2018-03-03T17:28:44.511Z</time>
      </trkpt>
      <trkpt lat="44.61475" lon="0.85306">
        <ele>170</ele>
        <time>2018-03-03T17:28:45.511Z</time>
      </trkpt>
      <trkpt lat="44.61476" lon="0.85302">
        <ele>171</ele>
        <time>2018-03-03T17:28:46.511Z</time>
      </trkpt>
      <trkpt lat="44.61476" lon="0.85299">
        <ele>171</ele>
        <time>2018-03-03T17:28:47.511Z</time>
      </trkpt>
      <trkpt lat="44.61477" lon="0.85296">
        <ele>171</ele>
        <time>2018-03-03T17:28:48.511Z</time>
      </trkpt>
      <trkpt lat="44.61477" lon="0.85292">
        <ele>171</ele>
        <time>2018-03-03T17:28:49.511Z</time>
      </trkpt>
      <trkpt lat="44.61478" lon="0.85289">
        <ele>171</ele>
        <time>2018-03-03T17:28:50.511Z</time>
      </trkpt>
      <trkpt lat="44.61479" lon="0.85286">
        <ele>172</ele>
        <time>2018-03-03T17:28:51.511Z</time>
      </trkpt>
      <trkpt lat="44.61479" lon="0.85282">
        <ele>172</ele>
        <time>2018-03-03T17:28:52.511Z</time>
      </trkpt>
      <trkpt lat="44.6148" lon="0.85279">
        <ele>172</ele>
        <time>2018-03-03T17:28:53.511Z</time>
      </trkpt>
      <trkpt lat="44.61481" lon="0.85276">
        <ele>172</ele>
        <time>2018-03-03T17:28:54.511Z</time>
      </trkpt>
      <trkpt lat="44.61482" lon="0.85273">
        <ele>173</ele>
        <time>2018-03-03T17:28:55.511Z</time>
      </trkpt>
      <trkpt lat="44.61483" lon="0.8527">
        <ele>173</ele>
        <time>2018-03-03T17:28:56.511Z</time>
      </trkpt>
      <trkpt lat="44.61484" lon="0.85267">
        <ele>173</ele>
        <time>2018-03-03T17:28:57.511Z</time>
      </trkpt>
      <trkpt lat="44.61485" lon="0.85264">
        <ele>173</ele>
        <time>2018-03-03T17:28:58.511Z</time>
      </trkpt>
      <trkpt lat="44.61486" lon="0.85261">
        <ele>173</ele>
        <time>2018-03-03T17:28:59.511Z</time>
      </trkpt>
      <trkpt lat="44.61487" lon="0.85259">
        <ele>173</ele>
        <time>2018-03-03T17:29:00.511Z</time>
      </trkpt>
      <trkpt lat="44.61488" lon="0.85256">
        <ele>173</ele>
        <time>2018-03-03T17:29:01.511Z</time>
      </trkpt>
      <trkpt lat="44.61489" lon="0.85253">
        <ele>173</ele>
        <time>2018-03-03T17:29:02.511Z</time>
      </trkpt>
      <trkpt lat="44.6149" lon="0.8525">
        <ele>173</ele>
        <time>2018-03-03T17:29:03.511Z</time>
      </trkpt>
      <trkpt lat="44.61492" lon="0.85247">
        <ele>173</ele>
        <time>2018-03-03T17:29:04.511Z</time>
      </trkpt>
      <trkpt lat="44.61493" lon="0.85244">
        <ele>173</ele>
        <time>2018-03-03T17:29:05.511Z</time>
      </trkpt>
      <trkpt lat="44.61494" lon="0.85241">
        <ele>173</ele>
        <time>2018-03-03T17:29:06.511Z</time>
      </trkpt>
      <trkpt lat="44.61496" lon="0.85238">
        <ele>173</ele>
        <time>2018-03-03T17:29:07.511Z</time>
      </trkpt>
      <trkpt lat="44.61497" lon="0.85234">
        <ele>173</ele>
        <time>2018-03-03T17:29:08.511Z</time>
      </trkpt>
      <trkpt lat="44.61499" lon="0.85231">
        <ele>173</ele>
        <time>2018-03-03T17:29:09.511Z</time>
      </trkpt>
      <trkpt lat="44.61501" lon="0.85228">
        <ele>173</ele>
        <time>2018-03-03T17:29:10.511Z</time>
      </trkpt>
      <trkpt lat="44.61503" lon="0.85224">
        <ele>173</ele>
        <time>2018-03-03T17:29:11.511Z</time>
      </trkpt>
      <trkpt lat="44.61505" lon="0.85221">
        <ele>172</ele>
        <time>2018-03-03T17:29:12.511Z</time>
      </trkpt>
      <trkpt lat="44.61507" lon="0.85218">
        <ele>172</ele>
        <time>2018-03-03T17:29:13.511Z</time>
      </trkpt>
      <trkpt lat="44.6151" lon="0.85214">
        <ele>172</ele>
        <time>2018-03-03T17:29:14.511Z</time>
      </trkpt>
      <trkpt lat="44.61513" lon="0.85211">
        <ele>172</ele>
        <time>2018-03-03T17:29:15.511Z</time>
      </trkpt>
      <trkpt lat="44.61516" lon="0.85208">
        <ele>172</ele>
        <time>2018-03-03T17:29:16.511Z</time>
      </trkpt>
      <trkpt lat="44.61519" lon="0.85204">
        <ele>172</ele>
        <time>2018-03-03T17:29:17.511Z</time>
      </trkpt>
      <trkpt lat="44.61523" lon="0.85201">
        <ele>172</ele>
        <time>2018-03-03T17:29:18.511Z</time>
      </trkpt>
      <trkpt lat="44.61526" lon="0.85197">
        <ele>171</ele>
        <time>2018-03-03T17:29:19.511Z</time>
      </trkpt>
      <trkpt lat="44.6153" lon="0.85193">
        <ele>171</ele>
        <time>2018-03-03T17:29:20.511Z</time>
      </trkpt>
      <trkpt lat="44.61534" lon="0.85189">
        <ele>171</ele>
        <time>2018-03-03T17:29:21.511Z</time>
      </trkpt>
      <trkpt lat="44.61538" lon="0.85184">
        <ele>171</ele>
        <time>2018-03-03T17:29:22.511Z</time>
      </trkpt>
      <trkpt lat="44.61541" lon="0.8518">
        <ele>170</ele>
        <time>2018-03-03T17:29:23.511Z</time>
      </trkpt>
      <trkpt lat="44.61545" lon="0.85175">
        <ele>170</ele>
        <time>2018-03-03T17:29:24.511Z</time>
      </trkpt>
      <trkpt lat="44.61549" lon="0.85169">
        <ele>170</ele>
        <time>2018-03-03T17:29:25.511Z</time>
      </trkpt>
      <trkpt lat="44.61553" lon="0.85163">
        <ele>170</ele>
        <time>2018-03-03T17:29:26.511Z</time>
      </trkpt>
      <trkpt lat="44.61556" lon="0.85157">
        <ele>169</ele>
        <time>2018-03-03T17:29:27.511Z</time>
      </trkpt>
      <trkpt lat="44.6156" lon="0.8515">
        <ele>169</ele>
        <time>2018-03-03T17:29:28.511Z</time>
      </trkpt>
      <trkpt lat="44.61563" lon="0.85143">
        <ele>169</ele>
        <time>2018-03-03T17:29:29.511Z</time>
      </trkpt>
      <trkpt lat="44.61566" lon="0.85136">
        <ele>168</ele>
        <time>2018-03-03T17:29:30.511Z</time>
      </trkpt>
      <trkpt lat="44.6157" lon="0.85128">
        <ele>168</ele>
        <time>2018-03-03T17:29:31.511Z</time>
      </trkpt>
      <trkpt lat="44.61573" lon="0.8512">
        <ele>168</ele>
        <time>2018-03-03T17:29:32.511Z</time>
      </trkpt>
      <trkpt lat="44.61576" lon="0.85112">
        <ele>168</ele>
        <time>2018-03-03T17:29:33.511Z</time>
      </trkpt>
      <trkpt lat="44.6158" lon="0.85105">
        <ele>168</ele>
        <time>2018-03-03T17:29:34.511Z</time>
      </trkpt>
      <trkpt lat="44.61584" lon="0.85097">
        <ele>167</ele>
        <time>2018-03-03T17:29:35.511Z</time>
      </trkpt>
      <trkpt lat="44.61589" lon="0.8509">
        <ele>167</ele>
        <time>2018-03-03T17:29:36.511Z</time>
      </trkpt>
      <trkpt lat="44.61594" lon="0.85083">
        <ele>167</ele>
        <time>2018-03-03T17:29:37.511Z</time>
      </trkpt>
      <trkpt lat="44.61599" lon="0.85077">
        <ele>167</ele>
        <time>2018-03-03T17:29:38.511Z</time>
      </trkpt>
      <trkpt lat="44.61602" lon="0.8507">
        <ele>166</ele>
        <time>2018-03-03T17:29:39.511Z</time>
      </trkpt>
      <trkpt lat="44.61605" lon="0.85062">
        <ele>166</ele>
        <time>2018-03-03T17:29:40.511Z</time>
      </trkpt>
      <trkpt lat="44.61608" lon="0.85055">
        <ele>166</ele>
        <time>2018-03-03T17:29:41.511Z</time>
      </trkpt>
      <trkpt lat="44.6161" lon="0.85048">
        <ele>166</ele>
        <time>2018-03-03T17:29:42.511Z</time>
      </trkpt>
      <trkpt lat="44.61613" lon="0.8504">
        <ele>165</ele>
        <time>2018-03-03T17:29:43.511Z</time>
      </trkpt>
      <trkpt lat="44.61616" lon="0.85032">
        <ele>165</ele>
        <time>2018-03-03T17:29:44.511Z</time>
      </trkpt>
      <trkpt lat="44.61618" lon="0.85024">
        <ele>165</ele>
        <time>2018-03-03T17:29:45.511Z</time>
      </trkpt>
      <trkpt lat="44.61621" lon="0.85016">
        <ele>165</ele>
        <time>2018-03-03T17:29:46.511Z</time>
      </trkpt>
      <trkpt lat="44.61625" lon="0.85008">
        <ele>165</ele>
        <time>2018-03-03T17:29:47.511Z</time>
      </trkpt>
      <trkpt lat="44.61628" lon="0.85">
        <ele>165</ele>
        <time>2018-03-03T17:29:48.511Z</time>
      </trkpt>
      <trkpt lat="44.61631" lon="0.84992">
        <ele>164</ele>
        <time>2018-03-03T17:29:49.511Z</time>
      </trkpt>
      <trkpt lat="44.61635" lon="0.84984">
        <ele>164</ele>
        <time>2018-03-03T17:29:50.511Z</time>
      </trkpt>
      <trkpt lat="44.61639" lon="0.84976">
        <ele>164</ele>
        <time>2018-03-03T17:29:51.511Z</time>
      </trkpt>
      <trkpt lat="44.61643" lon="0.84968">
        <ele>164</ele>
        <time>2018-03-03T17:29:52.511Z</time>
      </trkpt>
      <trkpt lat="44.61647" lon="0.8496">
        <ele>163</ele>
        <time>2018-03-03T17:29:53.511Z</time>
      </trkpt>
      <trkpt lat="44.61651" lon="0.84952">
        <ele>163</ele>
        <time>2018-03-03T17:29:54.511Z</time>
      </trkpt>
      <trkpt lat="44.61655" lon="0.84944">
        <ele>163</ele>
        <time>2018-03-03T17:29:55.511Z</time>
      </trkpt>
      <trkpt lat="44.61659" lon="0.84937">
        <ele>163</ele>
        <time>2018-03-03T17:29:56.511Z</time>
      </trkpt>
      <trkpt lat="44.61663" lon="0.84929">
        <ele>163</ele>
        <time>2018-03-03T17:29:57.511Z</time>
      </trkpt>
      <trkpt lat="44.61667" lon="0.84922">
        <ele>163</ele>
        <time>2018-03-03T17:29:58.511Z</time>
      </trkpt>
      <trkpt lat="44.61671" lon="0.84915">
        <ele>162</ele>
        <time>2018-03-03T17:29:59.511Z</time>
      </trkpt>
      <trkpt lat="44.61675" lon="0.84909">
        <ele>162</ele>
        <time>2018-03-03T17:30:00.511Z</time>
      </trkpt>
      <trkpt lat="44.61679" lon="0.84902">
        <ele>162</ele>
        <time>2018-03-03T17:30:01.511Z</time>
      </trkpt>
      <trkpt lat="44.61683" lon="0.84896">
        <ele>162</ele>
        <time>2018-03-03T17:30:02.511Z</time>
      </trkpt>
      <trkpt lat="44.61686" lon="0.8489">
        <ele>162</ele>
        <time>2018-03-03T17:30:03.511Z</time>
      </trkpt>
      <trkpt lat="44.6169" lon="0.84883">
        <ele>162</ele>
        <time>2018-03-03T17:30:04.511Z</time>
      </trkpt>
      <trkpt lat="44.61693" lon="0.84877">
        <ele>162</ele>
        <time>2018-03-03T17:30:05.511Z</time>
      </trkpt>
      <trkpt lat="44.61697" lon="0.84871">
        <ele>161</ele>
        <time>2018-03-03T17:30:06.511Z</time>
      </trkpt>
      <trkpt lat="44.61701" lon="0.84864">
        <ele>161</ele>
        <time>2018-03-03T17:30:07.511Z</time>
      </trkpt>
      <trkpt lat="44.61705" lon="0.84857">
        <ele>161</ele>
        <time>2018-03-03T17:30:08.511Z</time>
      </trkpt>
      <trkpt lat="44.61709" lon="0.8485">
        <ele>160</ele>
        <time>2018-03-03T17:30:09.511Z</time>
      </trkpt>
      <trkpt lat="44.61714" lon="0.84843">
        <ele>160</ele>
        <time>2018-03-03T17:30:10.511Z</time>
      </trkpt>
      <trkpt lat="44.61718" lon="0.84835">
        <ele>160</ele>
        <time>2018-03-03T17:30:11.511Z</time>
      </trkpt>
      <trkpt lat="44.61723" lon="0.84827">
        <ele>159</ele>
        <time>2018-03-03T17:30:12.511Z</time>
      </trkpt>
      <trkpt lat="44.61728" lon="0.84819">
        <ele>159</ele>
        <time>2018-03-03T17:30:13.511Z</time>
      </trkpt>
      <trkpt lat="44.61733" lon="0.8481">
        <ele>158</ele>
        <time>2018-03-03T17:30:14.511Z</time>
      </trkpt>
      <trkpt lat="44.61738" lon="0.84802">
        <ele>158</ele>
        <time>2018-03-03T17:30:15.511Z</time>
      </trkpt>
      <trkpt lat="44.61743" lon="0.84793">
        <ele>157</ele>
        <time>2018-03-03T17:30:16.511Z</time>
      </trkpt>
      <trkpt lat="44.61748" lon="0.84783">
        <ele>157</ele>
        <time>2018-03-03T17:30:17.511Z</time>
      </trkpt>
      <trkpt lat="44.61753" lon="0.84773">
        <ele>156</ele>
        <time>2018-03-03T17:30:18.511Z</time>
      </trkpt>
      <trkpt lat="44.61758" lon="0.84763">
        <ele>156</ele>
        <time>2018-03-03T17:30:19.511Z</time>
      </trkpt>
      <trkpt lat="44.61764" lon="0.84751">
        <ele>155</ele>
        <time>2018-03-03T17:30:20.511Z</time>
      </trkpt>
      <trkpt lat="44.61769" lon="0.84739">
        <ele>154</ele>
        <time>2018-03-03T17:30:21.511Z</time>
      </trkpt>
      <trkpt lat="44.61775" lon="0.84726">
        <ele>153</ele>
        <time>2018-03-03T17:30:22.511Z</time>
      </trkpt>
      <trkpt lat="44.61781" lon="0.84713">
        <ele>152</ele>
        <time>2018-03-03T17:30:23.511Z</time>
      </trkpt>
      <trkpt lat="44.61786" lon="0.847">
        <ele>151</ele>
        <time>2018-03-03T17:30:24.511Z</time>
      </trkpt>
      <trkpt lat="44.61791" lon="0.84687">
        <ele>150</ele>
        <time>2018-03-03T17:30:25.511Z</time>
      </trkpt>
      <trkpt lat="44.61796" lon="0.84674">
        <ele>150</ele>
        <time>2018-03-03T17:30:26.511Z</time>
      </trkpt>
      <trkpt lat="44.61801" lon="0.84661">
        <ele>149</ele>
        <time>2018-03-03T17:30:27.511Z</time>
      </trkpt>
      <trkpt lat="44.61806" lon="0.84648">
        <ele>149</ele>
        <time>2018-03-03T17:30:28.511Z</time>
      </trkpt>
      <trkpt lat="44.61812" lon="0.84636">
        <ele>148</ele>
        <time>2018-03-03T17:30:29.511Z</time>
      </trkpt>
      <trkpt lat="44.61818" lon="0.84625">
        <ele>148</ele>
        <time>2018-03-03T17:30:30.511Z</time>
      </trkpt>
      <trkpt lat="44.61824" lon="0.84614">
        <ele>147</ele>
        <time>2018-03-03T17:30:31.511Z</time>
      </trkpt>
      <trkpt lat="44.6183" lon="0.84603">
        <ele>147</ele>
        <time>2018-03-03T17:30:32.511Z</time>
      </trkpt>
      <trkpt lat="44.61836" lon="0.84593">
        <ele>146</ele>
        <time>2018-03-03T17:30:33.511Z</time>
      </trkpt>
      <trkpt lat="44.61841" lon="0.84583">
        <ele>146</ele>
        <time>2018-03-03T17:30:34.511Z</time>
      </trkpt>
      <trkpt lat="44.61847" lon="0.84573">
        <ele>146</ele>
        <time>2018-03-03T17:30:35.511Z</time>
      </trkpt>
      <trkpt lat="44.61852" lon="0.84564">
        <ele>146</ele>
        <time>2018-03-03T17:30:36.511Z</time>
      </trkpt>
      <trkpt lat="44.61857" lon="0.84555">
        <ele>146</ele>
        <time>2018-03-03T17:30:37.511Z</time>
      </trkpt>
      <trkpt lat="44.61862" lon="0.84546">
        <ele>146</ele>
        <time>2018-03-03T17:30:38.511Z</time>
      </trkpt>
      <trkpt lat="44.61866" lon="0.84537">
        <ele>146</ele>
        <time>2018-03-03T17:30:39.511Z</time>
      </trkpt>
      <trkpt lat="44.61871" lon="0.84529">
        <ele>146</ele>
        <time>2018-03-03T17:30:40.511Z</time>
      </trkpt>
      <trkpt lat="44.61875" lon="0.84521">
        <ele>146</ele>
        <time>2018-03-03T17:30:41.511Z</time>
      </trkpt>
      <trkpt lat="44.61879" lon="0.84513">
        <ele>146</ele>
        <time>2018-03-03T17:30:42.511Z</time>
      </trkpt>
      <trkpt lat="44.61883" lon="0.84506">
        <ele>146</ele>
        <time>2018-03-03T17:30:43.511Z</time>
      </trkpt>
      <trkpt lat="44.61888" lon="0.84499">
        <ele>146</ele>
        <time>2018-03-03T17:30:44.511Z</time>
      </trkpt>
      <trkpt lat="44.61892" lon="0.84492">
        <ele>146</ele>
        <time>2018-03-03T17:30:45.511Z</time>
      </trkpt>
      <trkpt lat="44.61896" lon="0.84485">
        <ele>145</ele>
        <time>2018-03-03T17:30:46.511Z</time>
      </trkpt>
      <trkpt lat="44.61901" lon="0.84477">
        <ele>145</ele>
        <time>2018-03-03T17:30:47.511Z</time>
      </trkpt>
      <trkpt lat="44.61905" lon="0.84469">
        <ele>145</ele>
        <time>2018-03-03T17:30:48.511Z</time>
      </trkpt>
      <trkpt lat="44.6191" lon="0.84461">
        <ele>144</ele>
        <time>2018-03-03T17:30:49.511Z</time>
      </trkpt>
      <trkpt lat="44.61915" lon="0.84453">
        <ele>144</ele>
        <time>2018-03-03T17:30:50.511Z</time>
      </trkpt>
      <trkpt lat="44.6192" lon="0.84444">
        <ele>143</ele>
        <time>2018-03-03T17:30:51.511Z</time>
      </trkpt>
      <trkpt lat="44.61925" lon="0.84436">
        <ele>143</ele>
        <time>2018-03-03T17:30:52.511Z</time>
      </trkpt>
      <trkpt lat="44.6193" lon="0.84427">
        <ele>142</ele>
        <time>2018-03-03T17:30:53.511Z</time>
      </trkpt>
      <trkpt lat="44.61936" lon="0.84417">
        <ele>142</ele>
        <time>2018-03-03T17:30:54.511Z</time>
      </trkpt>
      <trkpt lat="44.61942" lon="0.84409">
        <ele>141</ele>
        <time>2018-03-03T17:30:55.511Z</time>
      </trkpt>
      <trkpt lat="44.61948" lon="0.844">
        <ele>140</ele>
        <time>2018-03-03T17:30:56.511Z</time>
      </trkpt>
      <trkpt lat="44.61954" lon="0.84393">
        <ele>139</ele>
        <time>2018-03-03T17:30:57.511Z</time>
      </trkpt>
      <trkpt lat="44.61961" lon="0.84385">
        <ele>138</ele>
        <time>2018-03-03T17:30:58.511Z</time>
      </trkpt>
      <trkpt lat="44.61968" lon="0.84378">
        <ele>137</ele>
        <time>2018-03-03T17:30:59.511Z</time>
      </trkpt>
      <trkpt lat="44.61975" lon="0.8437">
        <ele>136</ele>
        <time>2018-03-03T17:31:00.511Z</time>
      </trkpt>
      <trkpt lat="44.61982" lon="0.84362">
        <ele>134</ele>
        <time>2018-03-03T17:31:01.511Z</time>
      </trkpt>
      <trkpt lat="44.6199" lon="0.84354">
        <ele>133</ele>
        <time>2018-03-03T17:31:02.511Z</time>
      </trkpt>
      <trkpt lat="44.61998" lon="0.84346">
        <ele>131</ele>
        <time>2018-03-03T17:31:03.511Z</time>
      </trkpt>
      <trkpt lat="44.62006" lon="0.84337">
        <ele>129</ele>
        <time>2018-03-03T17:31:04.511Z</time>
      </trkpt>
      <trkpt lat="44.62013" lon="0.8433">
        <ele>128</ele>
        <time>2018-03-03T17:31:05.511Z</time>
      </trkpt>
      <trkpt lat="44.6202" lon="0.84322">
        <ele>127</ele>
        <time>2018-03-03T17:31:06.511Z</time>
      </trkpt>
      <trkpt lat="44.62026" lon="0.84316">
        <ele>126</ele>
        <time>2018-03-03T17:31:07.511Z</time>
      </trkpt>
      <trkpt lat="44.62031" lon="0.84311">
        <ele>125</ele>
        <time>2018-03-03T17:31:08.511Z</time>
      </trkpt>
      <trkpt lat="44.62035" lon="0.84306">
        <ele>125</ele>
        <time>2018-03-03T17:31:09.511Z</time>
      </trkpt>
      <trkpt lat="44.6204" lon="0.84302">
        <ele>124</ele>
        <time>2018-03-03T17:31:10.511Z</time>
      </trkpt>
      <trkpt lat="44.62045" lon="0.843">
        <ele>124</ele>
        <time>2018-03-03T17:31:11.511Z</time>
      </trkpt>
      <trkpt lat="44.6205" lon="0.84299">
        <ele>124</ele>
        <time>2018-03-03T17:31:12.511Z</time>
      </trkpt>
      <trkpt lat="44.62055" lon="0.84299">
        <ele>123</ele>
        <time>2018-03-03T17:31:13.511Z</time>
      </trkpt>
      <trkpt lat="44.6206" lon="0.84301">
        <ele>123</ele>
        <time>2018-03-03T17:31:14.511Z</time>
      </trkpt>
      <trkpt lat="44.62065" lon="0.84303">
        <ele>123</ele>
        <time>2018-03-03T17:31:15.511Z</time>
      </trkpt>
      <trkpt lat="44.6207" lon="0.84305">
        <ele>123</ele>
        <time>2018-03-03T17:31:16.511Z</time>
      </trkpt>
      <trkpt lat="44.62076" lon="0.84306">
        <ele>123</ele>
        <time>2018-03-03T17:31:17.511Z</time>
      </trkpt>
      <trkpt lat="44.62081" lon="0.84307">
        <ele>123</ele>
        <time>2018-03-03T17:31:18.511Z</time>
      </trkpt>
      <trkpt lat="44.62086" lon="0.84309">
        <ele>123</ele>
        <time>2018-03-03T17:31:19.511Z</time>
      </trkpt>
      <trkpt lat="44.62091" lon="0.8431">
        <ele>123</ele>
        <time>2018-03-03T17:31:20.511Z</time>
      </trkpt>
      <trkpt lat="44.62096" lon="0.84311">
        <ele>123</ele>
        <time>2018-03-03T17:31:21.511Z</time>
      </trkpt>
      <trkpt lat="44.62101" lon="0.84312">
        <ele>123</ele>
        <time>2018-03-03T17:31:22.511Z</time>
      </trkpt>
      <trkpt lat="44.62105" lon="0.84313">
        <ele>123</ele>
        <time>2018-03-03T17:31:23.511Z</time>
      </trkpt>
      <trkpt lat="44.6211" lon="0.84314">
        <ele>124</ele>
        <time>2018-03-03T17:31:24.511Z</time>
      </trkpt>
      <trkpt lat="44.62114" lon="0.84315">
        <ele>124</ele>
        <time>2018-03-03T17:31:25.511Z</time>
      </trkpt>
      <trkpt lat="44.62118" lon="0.84317">
        <ele>124</ele>
        <time>2018-03-03T17:31:26.511Z</time>
      </trkpt>
      <trkpt lat="44.62122" lon="0.84318">
        <ele>124</ele>
        <time>2018-03-03T17:31:27.511Z</time>
      </trkpt>
      <trkpt lat="44.62126" lon="0.8432">
        <ele>125</ele>
        <time>2018-03-03T17:31:28.511Z</time>
      </trkpt>
      <trkpt lat="44.6213" lon="0.84322">
        <ele>125</ele>
        <time>2018-03-03T17:31:29.511Z</time>
      </trkpt>
      <trkpt lat="44.62133" lon="0.84324">
        <ele>125</ele>
        <time>2018-03-03T17:31:30.511Z</time>
      </trkpt>
      <trkpt lat="44.62137" lon="0.84326">
        <ele>126</ele>
        <time>2018-03-03T17:31:31.511Z</time>
      </trkpt>
      <trkpt lat="44.6214" lon="0.84328">
        <ele>126</ele>
        <time>2018-03-03T17:31:32.511Z</time>
      </trkpt>
      <trkpt lat="44.62144" lon="0.8433">
        <ele>126</ele>
        <time>2018-03-03T17:31:33.511Z</time>
      </trkpt>
      <trkpt lat="44.62147" lon="0.84332">
        <ele>127</ele>
        <time>2018-03-03T17:31:34.511Z</time>
      </trkpt>
      <trkpt lat="44.6215" lon="0.84334">
        <ele>127</ele>
        <time>2018-03-03T17:31:35.511Z</time>
      </trkpt>
      <trkpt lat="44.62154" lon="0.84336">
        <ele>127</ele>
        <time>2018-03-03T17:31:36.511Z</time>
      </trkpt>
      <trkpt lat="44.62157" lon="0.84338">
        <ele>127</ele>
        <time>2018-03-03T17:31:37.511Z</time>
      </trkpt>
      <trkpt lat="44.6216" lon="0.84339">
        <ele>128</ele>
        <time>2018-03-03T17:31:38.511Z</time>
      </trkpt>
      <trkpt lat="44.62163" lon="0.84341">
        <ele>128</ele>
        <time>2018-03-03T17:31:39.511Z</time>
      </trkpt>
      <trkpt lat="44.62166" lon="0.84343">
        <ele>128</ele>
        <time>2018-03-03T17:31:40.511Z</time>
      </trkpt>
      <trkpt lat="44.62169" lon="0.84345">
        <ele>129</ele>
        <time>2018-03-03T17:31:41.511Z</time>
      </trkpt>
      <trkpt lat="44.62172" lon="0.84347">
        <ele>129</ele>
        <time>2018-03-03T17:31:42.511Z</time>
      </trkpt>
      <trkpt lat="44.62175" lon="0.84349">
        <ele>129</ele>
        <time>2018-03-03T17:31:43.511Z</time>
      </trkpt>
      <trkpt lat="44.62178" lon="0.8435">
        <ele>129</ele>
        <time>2018-03-03T17:31:44.511Z</time>
      </trkpt>
      <trkpt lat="44.62181" lon="0.84352">
        <ele>130</ele>
        <time>2018-03-03T17:31:45.511Z</time>
      </trkpt>
      <trkpt lat="44.62184" lon="0.84353">
        <ele>130</ele>
        <time>2018-03-03T17:31:46.511Z</time>
      </trkpt>
      <trkpt lat="44.62187" lon="0.84355">
        <ele>130</ele>
        <time>2018-03-03T17:31:47.511Z</time>
      </trkpt>
      <trkpt lat="44.6219" lon="0.84356">
        <ele>130</ele>
        <time>2018-03-03T17:31:48.511Z</time>
      </trkpt>
      <trkpt lat="44.62194" lon="0.84358">
        <ele>131</ele>
        <time>2018-03-03T17:31:49.511Z</time>
      </trkpt>
      <trkpt lat="44.62197" lon="0.84359">
        <ele>131</ele>
        <time>2018-03-03T17:31:50.511Z</time>
      </trkpt>
      <trkpt lat="44.622" lon="0.8436">
        <ele>131</ele>
        <time>2018-03-03T17:31:51.511Z</time>
      </trkpt>
      <trkpt lat="44.62203" lon="0.84361">
        <ele>131</ele>
        <time>2018-03-03T17:31:52.511Z</time>
      </trkpt>
      <trkpt lat="44.62206" lon="0.84362">
        <ele>132</ele>
        <time>2018-03-03T17:31:53.511Z</time>
      </trkpt>
      <trkpt lat="44.62209" lon="0.84363">
        <ele>132</ele>
        <time>2018-03-03T17:31:54.511Z</time>
      </trkpt>
      <trkpt lat="44.62212" lon="0.84364">
        <ele>132</ele>
        <time>2018-03-03T17:31:55.511Z</time>
      </trkpt>
      <trkpt lat="44.62215" lon="0.84365">
        <ele>132</ele>
        <time>2018-03-03T17:31:56.511Z</time>
      </trkpt>
      <trkpt lat="44.62218" lon="0.84366">
        <ele>133</ele>
        <time>2018-03-03T17:31:57.511Z</time>
      </trkpt>
      <trkpt lat="44.62221" lon="0.84367">
        <ele>133</ele>
        <time>2018-03-03T17:31:58.511Z</time>
      </trkpt>
      <trkpt lat="44.62224" lon="0.84367">
        <ele>133</ele>
        <time>2018-03-03T17:31:59.511Z</time>
      </trkpt>
      <trkpt lat="44.62226" lon="0.84368">
        <ele>134</ele>
        <time>2018-03-03T17:32:00.511Z</time>
      </trkpt>
      <trkpt lat="44.62229" lon="0.84369">
        <ele>134</ele>
        <time>2018-03-03T17:32:01.511Z</time>
      </trkpt>
      <trkpt lat="44.62232" lon="0.84369">
        <ele>134</ele>
        <time>2018-03-03T17:32:02.511Z</time>
      </trkpt>
      <trkpt lat="44.62235" lon="0.8437">
        <ele>134</ele>
        <time>2018-03-03T17:32:03.511Z</time>
      </trkpt>
      <trkpt lat="44.62238" lon="0.84371">
        <ele>135</ele>
        <time>2018-03-03T17:32:04.511Z</time>
      </trkpt>
      <trkpt lat="44.6224" lon="0.84371">
        <ele>135</ele>
        <time>2018-03-03T17:32:05.511Z</time>
      </trkpt>
      <trkpt lat="44.62243" lon="0.84372">
        <ele>135</ele>
        <time>2018-03-03T17:32:06.511Z</time>
      </trkpt>
      <trkpt lat="44.62246" lon="0.84372">
        <ele>135</ele>
        <time>2018-03-03T17:32:07.511Z</time>
      </trkpt>
      <trkpt lat="44.62248" lon="0.84373">
        <ele>136</ele>
        <time>2018-03-03T17:32:08.511Z</time>
      </trkpt>
      <trkpt lat="44.62251" lon="0.84373">
        <ele>136</ele>
        <time>2018-03-03T17:32:09.511Z</time>
      </trkpt>
      <trkpt lat="44.62253" lon="0.84374">
        <ele>136</ele>
        <time>2018-03-03T17:32:10.511Z</time>
      </trkpt>
      <trkpt lat="44.62256" lon="0.84374">
        <ele>136</ele>
        <time>2018-03-03T17:32:11.511Z</time>
      </trkpt>
      <trkpt lat="44.62258" lon="0.84375">
        <ele>137</ele>
        <time>2018-03-03T17:32:12.511Z</time>
      </trkpt>
      <trkpt lat="44.62261" lon="0.84376">
        <ele>137</ele>
        <time>2018-03-03T17:32:13.511Z</time>
      </trkpt>
      <trkpt lat="44.62263" lon="0.84376">
        <ele>137</ele>
        <time>2018-03-03T17:32:14.511Z</time>
      </trkpt>
      <trkpt lat="44.62265" lon="0.84377">
        <ele>137</ele>
        <time>2018-03-03T17:32:15.511Z</time>
      </trkpt>
      <trkpt lat="44.62268" lon="0.84378">
        <ele>137</ele>
        <time>2018-03-03T17:32:16.511Z</time>
      </trkpt>
      <trkpt lat="44.6227" lon="0.84378">
        <ele>138</ele>
        <time>2018-03-03T17:32:17.511Z</time>
      </trkpt>
      <trkpt lat="44.62272" lon="0.84379">
        <ele>138</ele>
        <time>2018-03-03T17:32:18.511Z</time>
      </trkpt>
      <trkpt lat="44.62274" lon="0.8438">
        <ele>138</ele>
        <time>2018-03-03T17:32:19.511Z</time>
      </trkpt>
      <trkpt lat="44.62276" lon="0.84381">
        <ele>138</ele>
        <time>2018-03-03T17:32:20.511Z</time>
      </trkpt>
      <trkpt lat="44.62278" lon="0.84383">
        <ele>138</ele>
        <time>2018-03-03T17:32:21.511Z</time>
      </trkpt>
      <trkpt lat="44.62281" lon="0.84384">
        <ele>138</ele>
        <time>2018-03-03T17:32:22.511Z</time>
      </trkpt>
      <trkpt lat="44.62283" lon="0.84385">
        <ele>138</ele>
        <time>2018-03-03T17:32:23.511Z</time>
      </trkpt>
      <trkpt lat="44.62285" lon="0.84387">
        <ele>138</ele>
        <time>2018-03-03T17:32:24.511Z</time>
      </trkpt>
      <trkpt lat="44.62287" lon="0.84388">
        <ele>138</ele>
        <time>2018-03-03T17:32:25.511Z</time>
      </trkpt>
      <trkpt lat="44.62289" lon="0.8439">
        <ele>138</ele>
        <time>2018-03-03T17:32:26.511Z</time>
      </trkpt>
      <trkpt lat="44.62291" lon="0.84392">
        <ele>139</ele>
        <time>2018-03-03T17:32:27.511Z</time>
      </trkpt>
      <trkpt lat="44.62293" lon="0.84393">
        <ele>139</ele>
        <time>2018-03-03T17:32:28.511Z</time>
      </trkpt>
      <trkpt lat="44.62295" lon="0.84395">
        <ele>139</ele>
        <time>2018-03-03T17:32:29.511Z</time>
      </trkpt>
      <trkpt lat="44.62297" lon="0.84397">
        <ele>139</ele>
        <time>2018-03-03T17:32:30.511Z</time>
      </trkpt>
      <trkpt lat="44.62299" lon="0.84399">
        <ele>139</ele>
        <time>2018-03-03T17:32:31.511Z</time>
      </trkpt>
      <trkpt lat="44.62302" lon="0.844">
        <ele>139</ele>
        <time>2018-03-03T17:32:32.511Z</time>
      </trkpt>
      <trkpt lat="44.62304" lon="0.84402">
        <ele>139</ele>
        <time>2018-03-03T17:32:33.511Z</time>
      </trkpt>
      <trkpt lat="44.62307" lon="0.84403">
        <ele>139</ele>
        <time>2018-03-03T17:32:34.511Z</time>
      </trkpt>
      <trkpt lat="44.62309" lon="0.84404">
        <ele>139</ele>
        <time>2018-03-03T17:32:35.511Z</time>
      </trkpt>
      <trkpt lat="44.62312" lon="0.84406">
        <ele>139</ele>
        <time>2018-03-03T17:32:36.511Z</time>
      </trkpt>
      <trkpt lat="44.62314" lon="0.84408">
        <ele>139</ele>
        <time>2018-03-03T17:32:37.511Z</time>
      </trkpt>
      <trkpt lat="44.62315" lon="0.84411">
        <ele>139</ele>
        <time>2018-03-03T17:32:38.511Z</time>
      </trkpt>
      <trkpt lat="44.62316" lon="0.84414">
        <ele>139</ele>
        <time>2018-03-03T17:32:39.511Z</time>
      </trkpt>
      <trkpt lat="44.62317" lon="0.84418">
        <ele>139</ele>
        <time>2018-03-03T17:32:40.511Z</time>
      </trkpt>
      <trkpt lat="44.62317" lon="0.84421">
        <ele>140</ele>
        <time>2018-03-03T17:32:41.511Z</time>
      </trkpt>
      <trkpt lat="44.62318" lon="0.84424">
        <ele>140</ele>
        <time>2018-03-03T17:32:42.511Z</time>
      </trkpt>
      <trkpt lat="44.62318" lon="0.84428">
        <ele>140</ele>
        <time>2018-03-03T17:32:43.511Z</time>
      </trkpt>
      <trkpt lat="44.62318" lon="0.84431">
        <ele>140</ele>
        <time>2018-03-03T17:32:44.511Z</time>
      </trkpt>
      <trkpt lat="44.62317" lon="0.84434">
        <ele>141</ele>
        <time>2018-03-03T17:32:45.511Z</time>
      </trkpt>
      <trkpt lat="44.62317" lon="0.84437">
        <ele>141</ele>
        <time>2018-03-03T17:32:46.511Z</time>
      </trkpt>
      <trkpt lat="44.62317" lon="0.84441">
        <ele>141</ele>
        <time>2018-03-03T17:32:47.511Z</time>
      </trkpt>
      <trkpt lat="44.62316" lon="0.84444">
        <ele>141</ele>
        <time>2018-03-03T17:32:48.511Z</time>
      </trkpt>
      <trkpt lat="44.62316" lon="0.84447">
        <ele>142</ele>
        <time>2018-03-03T17:32:49.511Z</time>
      </trkpt>
      <trkpt lat="44.62315" lon="0.8445">
        <ele>142</ele>
        <time>2018-03-03T17:32:50.511Z</time>
      </trkpt>
      <trkpt lat="44.62314" lon="0.84453">
        <ele>142</ele>
        <time>2018-03-03T17:32:51.511Z</time>
      </trkpt>
      <trkpt lat="44.62314" lon="0.84456">
        <ele>143</ele>
        <time>2018-03-03T17:32:52.511Z</time>
      </trkpt>
      <trkpt lat="44.62313" lon="0.84459">
        <ele>143</ele>
        <time>2018-03-03T17:32:53.511Z</time>
      </trkpt>
      <trkpt lat="44.62312" lon="0.84462">
        <ele>143</ele>
        <time>2018-03-03T17:32:54.511Z</time>
      </trkpt>
      <trkpt lat="44.62311" lon="0.84465">
        <ele>143</ele>
        <time>2018-03-03T17:32:55.511Z</time>
      </trkpt>
      <trkpt lat="44.6231" lon="0.84468">
        <ele>144</ele>
        <time>2018-03-03T17:32:56.511Z</time>
      </trkpt>
      <trkpt lat="44.6231" lon="0.84471">
        <ele>144</ele>
        <time>2018-03-03T17:32:57.511Z</time>
      </trkpt>
      <trkpt lat="44.62309" lon="0.84474">
        <ele>144</ele>
        <time>2018-03-03T17:32:58.511Z</time>
      </trkpt>
      <trkpt lat="44.62308" lon="0.84477">
        <ele>144</ele>
        <time>2018-03-03T17:32:59.511Z</time>
      </trkpt>
      <trkpt lat="44.62307" lon="0.8448">
        <ele>145</ele>
        <time>2018-03-03T17:33:00.511Z</time>
      </trkpt>
      <trkpt lat="44.62306" lon="0.84483">
        <ele>145</ele>
        <time>2018-03-03T17:33:01.511Z</time>
      </trkpt>
      <trkpt lat="44.62305" lon="0.84486">
        <ele>145</ele>
        <time>2018-03-03T17:33:02.511Z</time>
      </trkpt>
      <trkpt lat="44.62304" lon="0.84488">
        <ele>145</ele>
        <time>2018-03-03T17:33:03.511Z</time>
      </trkpt>
      <trkpt lat="44.62303" lon="0.84491">
        <ele>146</ele>
        <time>2018-03-03T17:33:04.511Z</time>
      </trkpt>
      <trkpt lat="44.62302" lon="0.84494">
        <ele>146</ele>
        <time>2018-03-03T17:33:05.511Z</time>
      </trkpt>
      <trkpt lat="44.62302" lon="0.84497">
        <ele>146</ele>
        <time>2018-03-03T17:33:06.511Z</time>
      </trkpt>
      <trkpt lat="44.62301" lon="0.845">
        <ele>146</ele>
        <time>2018-03-03T17:33:07.511Z</time>
      </trkpt>
      <trkpt lat="44.623" lon="0.84504">
        <ele>146</ele>
        <time>2018-03-03T17:33:08.511Z</time>
      </trkpt>
      <trkpt lat="44.62299" lon="0.84507">
        <ele>146</ele>
        <time>2018-03-03T17:33:09.511Z</time>
      </trkpt>
      <trkpt lat="44.62298" lon="0.8451">
        <ele>146</ele>
        <time>2018-03-03T17:33:10.511Z</time>
      </trkpt>
      <trkpt lat="44.62297" lon="0.84513">
        <ele>147</ele>
        <time>2018-03-03T17:33:11.511Z</time>
      </trkpt>
      <trkpt lat="44.62296" lon="0.84516">
        <ele>147</ele>
        <time>2018-03-03T17:33:12.511Z</time>
      </trkpt>
      <trkpt lat="44.62296" lon="0.84519">
        <ele>147</ele>
        <time>2018-03-03T17:33:13.511Z</time>
      </trkpt>
      <trkpt lat="44.62295" lon="0.84523">
        <ele>147</ele>
        <time>2018-03-03T17:33:14.511Z</time>
      </trkpt>
      <trkpt lat="44.62294" lon="0.84526">
        <ele>147</ele>
        <time>2018-03-03T17:33:15.511Z</time>
      </trkpt>
      <trkpt lat="44.62293" lon="0.84529">
        <ele>147</ele>
        <time>2018-03-03T17:33:16.511Z</time>
      </trkpt>
      <trkpt lat="44.62293" lon="0.84533">
        <ele>147</ele>
        <time>2018-03-03T17:33:17.511Z</time>
      </trkpt>
      <trkpt lat="44.62292" lon="0.84536">
        <ele>148</ele>
        <time>2018-03-03T17:33:18.511Z</time>
      </trkpt>
      <trkpt lat="44.62292" lon="0.8454">
        <ele>148</ele>
        <time>2018-03-03T17:33:19.511Z</time>
      </trkpt>
      <trkpt lat="44.62291" lon="0.84543">
        <ele>148</ele>
        <time>2018-03-03T17:33:20.511Z</time>
      </trkpt>
      <trkpt lat="44.62291" lon="0.84547">
        <ele>148</ele>
        <time>2018-03-03T17:33:21.511Z</time>
      </trkpt>
      <trkpt lat="44.62291" lon="0.8455">
        <ele>148</ele>
        <time>2018-03-03T17:33:22.511Z</time>
      </trkpt>
      <trkpt lat="44.6229" lon="0.84554">
        <ele>148</ele>
        <time>2018-03-03T17:33:23.511Z</time>
      </trkpt>
      <trkpt lat="44.6229" lon="0.84558">
        <ele>148</ele>
        <time>2018-03-03T17:33:24.511Z</time>
      </trkpt>
      <trkpt lat="44.6229" lon="0.84561">
        <ele>148</ele>
        <time>2018-03-03T17:33:25.511Z</time>
      </trkpt>
      <trkpt lat="44.6229" lon="0.84565">
        <ele>148</ele>
        <time>2018-03-03T17:33:26.511Z</time>
      </trkpt>
      <trkpt lat="44.6229" lon="0.84569">
        <ele>149</ele>
        <time>2018-03-03T17:33:27.511Z</time>
      </trkpt>
      <trkpt lat="44.62291" lon="0.84573">
        <ele>149</ele>
        <time>2018-03-03T17:33:28.511Z</time>
      </trkpt>
      <trkpt lat="44.62291" lon="0.84577">
        <ele>149</ele>
        <time>2018-03-03T17:33:29.511Z</time>
      </trkpt>
      <trkpt lat="44.62291" lon="0.8458">
        <ele>149</ele>
        <time>2018-03-03T17:33:30.511Z</time>
      </trkpt>
      <trkpt lat="44.62292" lon="0.84584">
        <ele>149</ele>
        <time>2018-03-03T17:33:31.511Z</time>
      </trkpt>
      <trkpt lat="44.62292" lon="0.84588">
        <ele>149</ele>
        <time>2018-03-03T17:33:32.511Z</time>
      </trkpt>
      <trkpt lat="44.62293" lon="0.84592">
        <ele>149</ele>
        <time>2018-03-03T17:33:33.511Z</time>
      </trkpt>
      <trkpt lat="44.62294" lon="0.84596">
        <ele>149</ele>
        <time>2018-03-03T17:33:34.511Z</time>
      </trkpt>
      <trkpt lat="44.62295" lon="0.846">
        <ele>149</ele>
        <time>2018-03-03T17:33:35.511Z</time>
      </trkpt>
      <trkpt lat="44.62296" lon="0.84604">
        <ele>149</ele>
        <time>2018-03-03T17:33:36.511Z</time>
      </trkpt>
      <trkpt lat="44.62297" lon="0.84607">
        <ele>149</ele>
        <time>2018-03-03T17:33:37.511Z</time>
      </trkpt>
      <trkpt lat="44.62298" lon="0.84611">
        <ele>150</ele>
        <time>2018-03-03T17:33:38.511Z</time>
      </trkpt>
      <trkpt lat="44.62299" lon="0.84615">
        <ele>150</ele>
        <time>2018-03-03T17:33:39.511Z</time>
      </trkpt>
      <trkpt lat="44.623" lon="0.84618">
        <ele>150</ele>
        <time>2018-03-03T17:33:40.511Z</time>
      </trkpt>
      <trkpt lat="44.62302" lon="0.84622">
        <ele>150</ele>
        <time>2018-03-03T17:33:41.511Z</time>
      </trkpt>
      <trkpt lat="44.62303" lon="0.84626">
        <ele>150</ele>
        <time>2018-03-03T17:33:42.511Z</time>
      </trkpt>
      <trkpt lat="44.62304" lon="0.8463">
        <ele>150</ele>
        <time>2018-03-03T17:33:43.511Z</time>
      </trkpt>
      <trkpt lat="44.62306" lon="0.84633">
        <ele>150</ele>
        <time>2018-03-03T17:33:44.511Z</time>
      </trkpt>
      <trkpt lat="44.62307" lon="0.84637">
        <ele>150</ele>
        <time>2018-03-03T17:33:45.511Z</time>
      </trkpt>
      <trkpt lat="44.62308" lon="0.84641">
        <ele>150</ele>
        <time>2018-03-03T17:33:46.511Z</time>
      </trkpt>
      <trkpt lat="44.6231" lon="0.84645">
        <ele>150</ele>
        <time>2018-03-03T17:33:47.511Z</time>
      </trkpt>
      <trkpt lat="44.62311" lon="0.84649">
        <ele>150</ele>
        <time>2018-03-03T17:33:48.511Z</time>
      </trkpt>
      <trkpt lat="44.62312" lon="0.84653">
        <ele>150</ele>
        <time>2018-03-03T17:33:49.511Z</time>
      </trkpt>
      <trkpt lat="44.62314" lon="0.84657">
        <ele>150</ele>
        <time>2018-03-03T17:33:50.511Z</time>
      </trkpt>
      <trkpt lat="44.62315" lon="0.84661">
        <ele>150</ele>
        <time>2018-03-03T17:33:51.511Z</time>
      </trkpt>
      <trkpt lat="44.62316" lon="0.84665">
        <ele>151</ele>
        <time>2018-03-03T17:33:52.511Z</time>
      </trkpt>
      <trkpt lat="44.62318" lon="0.84669">
        <ele>151</ele>
        <time>2018-03-03T17:33:53.511Z</time>
      </trkpt>
      <trkpt lat="44.62319" lon="0.84673">
        <ele>151</ele>
        <time>2018-03-03T17:33:54.511Z</time>
      </trkpt>
      <trkpt lat="44.6232" lon="0.84677">
        <ele>151</ele>
        <time>2018-03-03T17:33:55.511Z</time>
      </trkpt>
      <trkpt lat="44.62321" lon="0.84681">
        <ele>151</ele>
        <time>2018-03-03T17:33:56.511Z</time>
      </trkpt>
      <trkpt lat="44.62322" lon="0.84685">
        <ele>152</ele>
        <time>2018-03-03T17:33:57.511Z</time>
      </trkpt>
      <trkpt lat="44.62324" lon="0.84689">
        <ele>152</ele>
        <time>2018-03-03T17:33:58.511Z</time>
      </trkpt>
      <trkpt lat="44.62325" lon="0.84692">
        <ele>152</ele>
        <time>2018-03-03T17:33:59.511Z</time>
      </trkpt>
      <trkpt lat="44.62326" lon="0.84696">
        <ele>152</ele>
        <time>2018-03-03T17:34:00.511Z</time>
      </trkpt>
      <trkpt lat="44.62327" lon="0.847">
        <ele>152</ele>
        <time>2018-03-03T17:34:01.511Z</time>
      </trkpt>
      <trkpt lat="44.62328" lon="0.84704">
        <ele>152</ele>
        <time>2018-03-03T17:34:02.511Z</time>
      </trkpt>
      <trkpt lat="44.62329" lon="0.84708">
        <ele>152</ele>
        <time>2018-03-03T17:34:03.511Z</time>
      </trkpt>
      <trkpt lat="44.6233" lon="0.84712">
        <ele>152</ele>
        <time>2018-03-03T17:34:04.511Z</time>
      </trkpt>
      <trkpt lat="44.62331" lon="0.84716">
        <ele>153</ele>
        <time>2018-03-03T17:34:05.511Z</time>
      </trkpt>
      <trkpt lat="44.62332" lon="0.8472">
        <ele>153</ele>
        <time>2018-03-03T17:34:06.511Z</time>
      </trkpt>
      <trkpt lat="44.62334" lon="0.84724">
        <ele>153</ele>
        <time>2018-03-03T17:34:07.511Z</time>
      </trkpt>
      <trkpt lat="44.62335" lon="0.84728">
        <ele>153</ele>
        <time>2018-03-03T17:34:08.511Z</time>
      </trkpt>
      <trkpt lat="44.62336" lon="0.84732">
        <ele>153</ele>
        <time>2018-03-03T17:34:09.511Z</time>
      </trkpt>
      <trkpt lat="44.62337" lon="0.84736">
        <ele>153</ele>
        <time>2018-03-03T17:34:10.511Z</time>
      </trkpt>
      <trkpt lat="44.62338" lon="0.8474">
        <ele>154</ele>
        <time>2018-03-03T17:34:11.511Z</time>
      </trkpt>
      <trkpt lat="44.62339" lon="0.84744">
        <ele>154</ele>
        <time>2018-03-03T17:34:12.511Z</time>
      </trkpt>
      <trkpt lat="44.6234" lon="0.84748">
        <ele>154</ele>
        <time>2018-03-03T17:34:13.511Z</time>
      </trkpt>
      <trkpt lat="44.62341" lon="0.84752">
        <ele>154</ele>
        <time>2018-03-03T17:34:14.511Z</time>
      </trkpt>
      <trkpt lat="44.62343" lon="0.84756">
        <ele>154</ele>
        <time>2018-03-03T17:34:15.511Z</time>
      </trkpt>
      <trkpt lat="44.62344" lon="0.8476">
        <ele>154</ele>
        <time>2018-03-03T17:34:16.511Z</time>
      </trkpt>
      <trkpt lat="44.62345" lon="0.84765">
        <ele>154</ele>
        <time>2018-03-03T17:34:17.511Z</time>
      </trkpt>
      <trkpt lat="44.62346" lon="0.84769">
        <ele>155</ele>
        <time>2018-03-03T17:34:18.511Z</time>
      </trkpt>
      <trkpt lat="44.62347" lon="0.84773">
        <ele>155</ele>
        <time>2018-03-03T17:34:19.511Z</time>
      </trkpt>
      <trkpt lat="44.62349" lon="0.84777">
        <ele>155</ele>
        <time>2018-03-03T17:34:20.511Z</time>
      </trkpt>
      <trkpt lat="44.6235" lon="0.84781">
        <ele>155</ele>
        <time>2018-03-03T17:34:21.511Z</time>
      </trkpt>
      <trkpt lat="44.62351" lon="0.84785">
        <ele>155</ele>
        <time>2018-03-03T17:34:22.511Z</time>
      </trkpt>
      <trkpt lat="44.62352" lon="0.84789">
        <ele>155</ele>
        <time>2018-03-03T17:34:23.511Z</time>
      </trkpt>
      <trkpt lat="44.62354" lon="0.84794">
        <ele>155</ele>
        <time>2018-03-03T17:34:24.511Z</time>
      </trkpt>
      <trkpt lat="44.62355" lon="0.84798">
        <ele>156</ele>
        <time>2018-03-03T17:34:25.511Z</time>
      </trkpt>
      <trkpt lat="44.62357" lon="0.84802">
        <ele>156</ele>
        <time>2018-03-03T17:34:26.511Z</time>
      </trkpt>
      <trkpt lat="44.62358" lon="0.84806">
        <ele>156</ele>
        <time>2018-03-03T17:34:27.511Z</time>
      </trkpt>
      <trkpt lat="44.6236" lon="0.8481">
        <ele>156</ele>
        <time>2018-03-03T17:34:28.511Z</time>
      </trkpt>
      <trkpt lat="44.62361" lon="0.84814">
        <ele>156</ele>
        <time>2018-03-03T17:34:29.511Z</time>
      </trkpt>
      <trkpt lat="44.62362" lon="0.84819">
        <ele>157</ele>
        <time>2018-03-03T17:34:30.511Z</time>
      </trkpt>
      <trkpt lat="44.62364" lon="0.84823">
        <ele>157</ele>
        <time>2018-03-03T17:34:31.511Z</time>
      </trkpt>
      <trkpt lat="44.62365" lon="0.84827">
        <ele>157</ele>
        <time>2018-03-03T17:34:32.511Z</time>
      </trkpt>
      <trkpt lat="44.62367" lon="0.84831">
        <ele>157</ele>
        <time>2018-03-03T17:34:33.511Z</time>
      </trkpt>
      <trkpt lat="44.62368" lon="0.84834">
        <ele>157</ele>
        <time>2018-03-03T17:34:34.511Z</time>
      </trkpt>
      <trkpt lat="44.62369" lon="0.84838">
        <ele>157</ele>
        <time>2018-03-03T17:34:35.511Z</time>
      </trkpt>
      <trkpt lat="44.6237" lon="0.84842">
        <ele>158</ele>
        <time>2018-03-03T17:34:36.511Z</time>
      </trkpt>
      <trkpt lat="44.62372" lon="0.84846">
        <ele>158</ele>
        <time>2018-03-03T17:34:37.511Z</time>
      </trkpt>
      <trkpt lat="44.62373" lon="0.84849">
        <ele>158</ele>
        <time>2018-03-03T17:34:38.511Z</time>
      </trkpt>
      <trkpt lat="44.62374" lon="0.84853">
        <ele>158</ele>
        <time>2018-03-03T17:34:39.511Z</time>
      </trkpt>
      <trkpt lat="44.62376" lon="0.84857">
        <ele>158</ele>
        <time>2018-03-03T17:34:40.511Z</time>
      </trkpt>
      <trkpt lat="44.62377" lon="0.84861">
        <ele>158</ele>
        <time>2018-03-03T17:34:41.511Z</time>
      </trkpt>
      <trkpt lat="44.62378" lon="0.84865">
        <ele>159</ele>
        <time>2018-03-03T17:34:42.511Z</time>
      </trkpt>
      <trkpt lat="44.62379" lon="0.84869">
        <ele>159</ele>
        <time>2018-03-03T17:34:43.511Z</time>
      </trkpt>
      <trkpt lat="44.62381" lon="0.84873">
        <ele>159</ele>
        <time>2018-03-03T17:34:44.511Z</time>
      </trkpt>
      <trkpt lat="44.62382" lon="0.84876">
        <ele>160</ele>
        <time>2018-03-03T17:34:45.511Z</time>
      </trkpt>
      <trkpt lat="44.62383" lon="0.8488">
        <ele>160</ele>
        <time>2018-03-03T17:34:46.511Z</time>
      </trkpt>
      <trkpt lat="44.62385" lon="0.84884">
        <ele>160</ele>
        <time>2018-03-03T17:34:47.511Z</time>
      </trkpt>
      <trkpt lat="44.62386" lon="0.84888">
        <ele>160</ele>
        <time>2018-03-03T17:34:48.511Z</time>
      </trkpt>
      <trkpt lat="44.62387" lon="0.84892">
        <ele>160</ele>
        <time>2018-03-03T17:34:49.511Z</time>
      </trkpt>
      <trkpt lat="44.62389" lon="0.84896">
        <ele>161</ele>
        <time>2018-03-03T17:34:50.511Z</time>
      </trkpt>
      <trkpt lat="44.6239" lon="0.84899">
        <ele>161</ele>
        <time>2018-03-03T17:34:51.511Z</time>
      </trkpt>
      <trkpt lat="44.62391" lon="0.84903">
        <ele>161</ele>
        <time>2018-03-03T17:34:52.511Z</time>
      </trkpt>
      <trkpt lat="44.62392" lon="0.84906">
        <ele>161</ele>
        <time>2018-03-03T17:34:53.511Z</time>
      </trkpt>
      <trkpt lat="44.62393" lon="0.84909">
        <ele>161</ele>
        <time>2018-03-03T17:34:54.511Z</time>
      </trkpt>
      <trkpt lat="44.62394" lon="0.84912">
        <ele>162</ele>
        <time>2018-03-03T17:34:55.511Z</time>
      </trkpt>
      <trkpt lat="44.62395" lon="0.84916">
        <ele>162</ele>
        <time>2018-03-03T17:34:56.511Z</time>
      </trkpt>
      <trkpt lat="44.62396" lon="0.84919">
        <ele>162</ele>
        <time>2018-03-03T17:34:57.511Z</time>
      </trkpt>
      <trkpt lat="44.62397" lon="0.84922">
        <ele>162</ele>
        <time>2018-03-03T17:34:58.511Z</time>
      </trkpt>
      <trkpt lat="44.62398" lon="0.84925">
        <ele>162</ele>
        <time>2018-03-03T17:34:59.511Z</time>
      </trkpt>
      <trkpt lat="44.62399" lon="0.84928">
        <ele>162</ele>
        <time>2018-03-03T17:35:00.511Z</time>
      </trkpt>
      <trkpt lat="44.62401" lon="0.84931">
        <ele>163</ele>
        <time>2018-03-03T17:35:01.511Z</time>
      </trkpt>
      <trkpt lat="44.62402" lon="0.84934">
        <ele>163</ele>
        <time>2018-03-03T17:35:02.511Z</time>
      </trkpt>
      <trkpt lat="44.62403" lon="0.84937">
        <ele>163</ele>
        <time>2018-03-03T17:35:03.511Z</time>
      </trkpt>
      <trkpt lat="44.62404" lon="0.84941">
        <ele>163</ele>
        <time>2018-03-03T17:35:04.511Z</time>
      </trkpt>
      <trkpt lat="44.62405" lon="0.84944">
        <ele>163</ele>
        <time>2018-03-03T17:35:05.511Z</time>
      </trkpt>
      <trkpt lat="44.62407" lon="0.84948">
        <ele>163</ele>
        <time>2018-03-03T17:35:06.511Z</time>
      </trkpt>
      <trkpt lat="44.62408" lon="0.84951">
        <ele>164</ele>
        <time>2018-03-03T17:35:07.511Z</time>
      </trkpt>
      <trkpt lat="44.62409" lon="0.84954">
        <ele>164</ele>
        <time>2018-03-03T17:35:08.511Z</time>
      </trkpt>
      <trkpt lat="44.6241" lon="0.84958">
        <ele>164</ele>
        <time>2018-03-03T17:35:09.511Z</time>
      </trkpt>
      <trkpt lat="44.62411" lon="0.84961">
        <ele>164</ele>
        <time>2018-03-03T17:35:10.511Z</time>
      </trkpt>
      <trkpt lat="44.62412" lon="0.84964">
        <ele>164</ele>
        <time>2018-03-03T17:35:11.511Z</time>
      </trkpt>
      <trkpt lat="44.62414" lon="0.84967">
        <ele>164</ele>
        <time>2018-03-03T17:35:12.511Z</time>
      </trkpt>
      <trkpt lat="44.62415" lon="0.8497">
        <ele>164</ele>
        <time>2018-03-03T17:35:13.511Z</time>
      </trkpt>
      <trkpt lat="44.62416" lon="0.84973">
        <ele>164</ele>
        <time>2018-03-03T17:35:14.511Z</time>
      </trkpt>
      <trkpt lat="44.62417" lon="0.84976">
        <ele>164</ele>
        <time>2018-03-03T17:35:15.511Z</time>
      </trkpt>
      <trkpt lat="44.62418" lon="0.84979">
        <ele>164</ele>
        <time>2018-03-03T17:35:16.511Z</time>
      </trkpt>
      <trkpt lat="44.62419" lon="0.84982">
        <ele>165</ele>
        <time>2018-03-03T17:35:17.511Z</time>
      </trkpt>
      <trkpt lat="44.6242" lon="0.84985">
        <ele>165</ele>
        <time>2018-03-03T17:35:18.511Z</time>
      </trkpt>
      <trkpt lat="44.62421" lon="0.84988">
        <ele>165</ele>
        <time>2018-03-03T17:35:19.511Z</time>
      </trkpt>
      <trkpt lat="44.62422" lon="0.84991">
        <ele>165</ele>
        <time>2018-03-03T17:35:20.511Z</time>
      </trkpt>
      <trkpt lat="44.62423" lon="0.84993">
        <ele>165</ele>
        <time>2018-03-03T17:35:21.511Z</time>
      </trkpt>
      <trkpt lat="44.62424" lon="0.84996">
        <ele>165</ele>
        <time>2018-03-03T17:35:22.511Z</time>
      </trkpt>
      <trkpt lat="44.62425" lon="0.84999">
        <ele>165</ele>
        <time>2018-03-03T17:35:23.511Z</time>
      </trkpt>
      <trkpt lat="44.62426" lon="0.85002">
        <ele>164</ele>
        <time>2018-03-03T17:35:24.511Z</time>
      </trkpt>
      <trkpt lat="44.62427" lon="0.85005">
        <ele>165</ele>
        <time>2018-03-03T17:35:25.511Z</time>
      </trkpt>
      <trkpt lat="44.62428" lon="0.85008">
        <ele>164</ele>
        <time>2018-03-03T17:35:26.511Z</time>
      </trkpt>
      <trkpt lat="44.6243" lon="0.85011">
        <ele>164</ele>
        <time>2018-03-03T17:35:27.511Z</time>
      </trkpt>
      <trkpt lat="44.62431" lon="0.85013">
        <ele>164</ele>
        <time>2018-03-03T17:35:28.511Z</time>
      </trkpt>
      <trkpt lat="44.62431" lon="0.85015">
        <ele>164</ele>
        <time>2018-03-03T17:35:29.511Z</time>
      </trkpt>
      <trkpt lat="44.62432" lon="0.85017">
        <ele>164</ele>
        <time>2018-03-03T17:35:30.511Z</time>
      </trkpt>
      <trkpt lat="44.62432" lon="0.85018">
        <ele>164</ele>
        <time>2018-03-03T17:35:31.511Z</time>
      </trkpt>
      <trkpt lat="44.62432" lon="0.85018">
        <ele>164</ele>
        <time>2018-03-03T17:35:32.511Z</time>
      </trkpt>
      <trkpt lat="44.62432" lon="0.85018">
        <ele>164</ele>
        <time>2018-03-03T17:35:33.511Z</time>
      </trkpt>
      <trkpt lat="44.62432" lon="0.85018">
        <ele>164</ele>
        <time>2018-03-03T17:35:34.511Z</time>
      </trkpt>
      <trkpt lat="44.62432" lon="0.85018">
        <ele>164</ele>
        <time>2018-03-03T17:35:35.511Z</time>
      </trkpt>
      <trkpt lat="44.62432" lon="0.85018">
        <ele>164</ele>
        <time>2018-03-03T17:35:36.511Z</time>
      </trkpt>
      <trkpt lat="44.62432" lon="0.85018">
        <ele>164</ele>
        <time>2018-03-03T17:35:37.511Z</time>
      </trkpt>
      <trkpt lat="44.62432" lon="0.85018">
        <ele>164</ele>
        <time>2018-03-03T17:35:38.511Z</time>
      </trkpt>
      <trkpt lat="44.62432" lon="0.85018">
        <ele>164</ele>
        <time>2018-03-03T17:35:39.511Z</time>
      </trkpt>
      <trkpt lat="44.62432" lon="0.85018">
        <ele>164</ele>
        <time>2018-03-03T17:35:40.511Z</time>
      </trkpt>
      <trkpt lat="44.62432" lon="0.85018">
        <ele>164</ele>
        <time>2018-03-03T17:35:41.511Z</time>
      </trkpt>
      <trkpt lat="44.62432" lon="0.85018">
        <ele>164</ele>
        <time>2018-03-03T17:35:42.511Z</time>
      </trkpt>
      <trkpt lat="44.62432" lon="0.85018">
        <ele>164</ele>
        <time>2018-03-03T17:35:43.511Z</time>
      </trkpt>
      <trkpt lat="44.62432" lon="0.85018">
        <ele>164</ele>
        <time>2018-03-03T17:35:44.511Z</time>
      </trkpt>
      <trkpt lat="44.62432" lon="0.85018">
        <ele>164</ele>
        <time>2018-03-03T17:35:45.511Z</time>
      </trkpt>
      <trkpt lat="44.62432" lon="0.8502">
        <ele>164</ele>
        <time>2018-03-03T17:35:46.511Z</time>
      </trkpt>
      <trkpt lat="44.62432" lon="0.85022">
        <ele>164</ele>
        <time>2018-03-03T17:35:47.511Z</time>
      </trkpt>
      <trkpt lat="44.62432" lon="0.85026">
        <ele>164</ele>
        <time>2018-03-03T17:35:48.511Z</time>
      </trkpt>
      <trkpt lat="44.62432" lon="0.85029">
        <ele>164</ele>
        <time>2018-03-03T17:35:49.511Z</time>
      </trkpt>
      <trkpt lat="44.62432" lon="0.85033">
        <ele>164</ele>
        <time>2018-03-03T17:35:50.511Z</time>
      </trkpt>
      <trkpt lat="44.62432" lon="0.85037">
        <ele>163</ele>
        <time>2018-03-03T17:35:51.511Z</time>
      </trkpt>
      <trkpt lat="44.62432" lon="0.85041">
        <ele>163</ele>
        <time>2018-03-03T17:35:52.511Z</time>
      </trkpt>
      <trkpt lat="44.62433" lon="0.85046">
        <ele>162</ele>
        <time>2018-03-03T17:35:53.511Z</time>
      </trkpt>
      <trkpt lat="44.62433" lon="0.85052">
        <ele>162</ele>
        <time>2018-03-03T17:35:54.511Z</time>
      </trkpt>
      <trkpt lat="44.62432" lon="0.85059">
        <ele>161</ele>
        <time>2018-03-03T17:35:55.511Z</time>
      </trkpt>
      <trkpt lat="44.62431" lon="0.85066">
        <ele>160</ele>
        <time>2018-03-03T17:35:56.511Z</time>
      </trkpt>
      <trkpt lat="44.62429" lon="0.85075">
        <ele>159</ele>
        <time>2018-03-03T17:35:57.511Z</time>
      </trkpt>
      <trkpt lat="44.62425" lon="0.85085">
        <ele>157</ele>
        <time>2018-03-03T17:35:58.511Z</time>
      </trkpt>
      <trkpt lat="44.62421" lon="0.85095">
        <ele>156</ele>
        <time>2018-03-03T17:35:59.511Z</time>
      </trkpt>
      <trkpt lat="44.62416" lon="0.85106">
        <ele>155</ele>
        <time>2018-03-03T17:36:00.511Z</time>
      </trkpt>
      <trkpt lat="44.62411" lon="0.85117">
        <ele>154</ele>
        <time>2018-03-03T17:36:01.511Z</time>
      </trkpt>
      <trkpt lat="44.62406" lon="0.85128">
        <ele>153</ele>
        <time>2018-03-03T17:36:02.511Z</time>
      </trkpt>
      <trkpt lat="44.62403" lon="0.85139">
        <ele>152</ele>
        <time>2018-03-03T17:36:03.511Z</time>
      </trkpt>
      <trkpt lat="44.624" lon="0.85149">
        <ele>152</ele>
        <time>2018-03-03T17:36:04.511Z</time>
      </trkpt>
      <trkpt lat="44.62398" lon="0.85157">
        <ele>152</ele>
        <time>2018-03-03T17:36:05.511Z</time>
      </trkpt>
      <trkpt lat="44.62396" lon="0.85163">
        <ele>152</ele>
        <time>2018-03-03T17:36:06.511Z</time>
      </trkpt>
      <trkpt lat="44.62395" lon="0.85166">
        <ele>152</ele>
        <time>2018-03-03T17:36:07.511Z</time>
      </trkpt>
      <trkpt lat="44.62394" lon="0.85169">
        <ele>153</ele>
        <time>2018-03-03T17:36:08.511Z</time>
      </trkpt>
      <trkpt lat="44.62393" lon="0.85171">
        <ele>153</ele>
        <time>2018-03-03T17:36:09.511Z</time>
      </trkpt>
      <trkpt lat="44.62393" lon="0.85173">
        <ele>154</ele>
        <time>2018-03-03T17:36:10.511Z</time>
      </trkpt>
      <trkpt lat="44.62392" lon="0.85175">
        <ele>154</ele>
        <time>2018-03-03T17:36:11.511Z</time>
      </trkpt>
      <trkpt lat="44.62392" lon="0.85176">
        <ele>155</ele>
        <time>2018-03-03T17:36:12.511Z</time>
      </trkpt>
      <trkpt lat="44.62392" lon="0.85177">
        <ele>155</ele>
        <time>2018-03-03T17:36:13.511Z</time>
      </trkpt>
      <trkpt lat="44.62391" lon="0.85178">
        <ele>155</ele>
        <time>2018-03-03T17:36:14.511Z</time>
      </trkpt>
      <trkpt lat="44.62391" lon="0.85181">
        <ele>156</ele>
        <time>2018-03-03T17:36:15.511Z</time>
      </trkpt>
      <trkpt lat="44.6239" lon="0.85184">
        <ele>156</ele>
        <time>2018-03-03T17:36:16.511Z</time>
      </trkpt>
      <trkpt lat="44.6239" lon="0.85186">
        <ele>156</ele>
        <time>2018-03-03T17:36:17.511Z</time>
      </trkpt>
      <trkpt lat="44.62389" lon="0.85189">
        <ele>157</ele>
        <time>2018-03-03T17:36:18.511Z</time>
      </trkpt>
      <trkpt lat="44.62388" lon="0.85191">
        <ele>157</ele>
        <time>2018-03-03T17:36:19.511Z</time>
      </trkpt>
      <trkpt lat="44.62388" lon="0.85193">
        <ele>157</ele>
        <time>2018-03-03T17:36:20.511Z</time>
      </trkpt>
      <trkpt lat="44.62387" lon="0.85195">
        <ele>157</ele>
        <time>2018-03-03T17:36:21.511Z</time>
      </trkpt>
      <trkpt lat="44.62386" lon="0.85198">
        <ele>158</ele>
        <time>2018-03-03T17:36:22.511Z</time>
      </trkpt>
      <trkpt lat="44.62385" lon="0.852">
        <ele>158</ele>
        <time>2018-03-03T17:36:23.511Z</time>
      </trkpt>
      <trkpt lat="44.62384" lon="0.85203">
        <ele>158</ele>
        <time>2018-03-03T17:36:24.511Z</time>
      </trkpt>
      <trkpt lat="44.62383" lon="0.85205">
        <ele>158</ele>
        <time>2018-03-03T17:36:25.511Z</time>
      </trkpt>
      <trkpt lat="44.62382" lon="0.85208">
        <ele>158</ele>
        <time>2018-03-03T17:36:26.511Z</time>
      </trkpt>
      <trkpt lat="44.62381" lon="0.85211">
        <ele>158</ele>
        <time>2018-03-03T17:36:27.511Z</time>
      </trkpt>
      <trkpt lat="44.6238" lon="0.85214">
        <ele>158</ele>
        <time>2018-03-03T17:36:28.511Z</time>
      </trkpt>
      <trkpt lat="44.62379" lon="0.85216">
        <ele>158</ele>
        <time>2018-03-03T17:36:29.511Z</time>
      </trkpt>
      <trkpt lat="44.62378" lon="0.85218">
        <ele>158</ele>
        <time>2018-03-03T17:36:30.511Z</time>
      </trkpt>
      <trkpt lat="44.62378" lon="0.8522">
        <ele>158</ele>
        <time>2018-03-03T17:36:31.511Z</time>
      </trkpt>
      <trkpt lat="44.62377" lon="0.85221">
        <ele>158</ele>
        <time>2018-03-03T17:36:32.511Z</time>
      </trkpt>
      <trkpt lat="44.62377" lon="0.85221">
        <ele>158</ele>
        <time>2018-03-03T17:36:33.511Z</time>
      </trkpt>
      <trkpt lat="44.62377" lon="0.85222">
        <ele>158</ele>
        <time>2018-03-03T17:36:34.511Z</time>
      </trkpt>
      <trkpt lat="44.62377" lon="0.85222">
        <ele>158</ele>
        <time>2018-03-03T17:36:35.511Z</time>
      </trkpt>
      <trkpt lat="44.62377" lon="0.85222">
        <ele>158</ele>
        <time>2018-03-03T17:36:36.511Z</time>
      </trkpt>
      <trkpt lat="44.62377" lon="0.85222">
        <ele>158</ele>
        <time>2018-03-03T17:36:37.511Z</time>
      </trkpt>
      <trkpt lat="44.62377" lon="0.85222">
        <ele>158</ele>
        <time>2018-03-03T17:36:38.511Z</time>
      </trkpt>
      <trkpt lat="44.62377" lon="0.85222">
        <ele>158</ele>
        <time>2018-03-03T17:36:39.511Z</time>
      </trkpt>
      <trkpt lat="44.62377" lon="0.85222">
        <ele>158</ele>
        <time>2018-03-03T17:36:40.511Z</time>
      </trkpt>
      <trkpt lat="44.62377" lon="0.85222">
        <ele>158</ele>
        <time>2018-03-03T17:36:41.511Z</time>
      </trkpt>
      <trkpt lat="44.62377" lon="0.85222">
        <ele>158</ele>
        <time>2018-03-03T17:36:42.511Z</time>
      </trkpt>
      <trkpt lat="44.62377" lon="0.85222">
        <ele>158</ele>
        <time>2018-03-03T17:36:43.511Z</time>
      </trkpt>
      <trkpt lat="44.62377" lon="0.85222">
        <ele>158</ele>
        <time>2018-03-03T17:36:44.511Z</time>
      </trkpt>
      <trkpt lat="44.62377" lon="0.85222">
        <ele>158</ele>
        <time>2018-03-03T17:36:45.511Z</time>
      </trkpt>
      <trkpt lat="44.62377" lon="0.85222">
        <ele>158</ele>
        <time>2018-03-03T17:36:46.511Z</time>
      </trkpt>
      <trkpt lat="44.62377" lon="0.85222">
        <ele>158</ele>
        <time>2018-03-03T17:36:47.511Z</time>
      </trkpt>
      <trkpt lat="44.62377" lon="0.85222">
        <ele>158</ele>
        <time>2018-03-03T17:36:48.511Z</time>
      </trkpt>
      <trkpt lat="44.62377" lon="0.85222">
        <ele>158</ele>
        <time>2018-03-03T17:36:49.511Z</time>
      </trkpt>
      <trkpt lat="44.62377" lon="0.85222">
        <ele>158</ele>
        <time>2018-03-03T17:36:50.511Z</time>
      </trkpt>
      <trkpt lat="44.62377" lon="0.85222">
        <ele>158</ele>
        <time>2018-03-03T17:36:51.511Z</time>
      </trkpt>
      <trkpt lat="44.62377" lon="0.85222">
        <ele>158</ele>
        <time>2018-03-03T17:36:52.511Z</time>
      </trkpt>
      <trkpt lat="44.62377" lon="0.85222">
        <ele>158</ele>
        <time>2018-03-03T17:36:53.511Z</time>
      </trkpt>
      <trkpt lat="44.62377" lon="0.85222">
        <ele>158</ele>
        <time>2018-03-03T17:36:54.511Z</time>
      </trkpt>
      <trkpt lat="44.62377" lon="0.85222">
        <ele>158</ele>
        <time>2018-03-03T17:36:55.511Z</time>
      </trkpt>
      <trkpt lat="44.62377" lon="0.85222">
        <ele>158</ele>
        <time>2018-03-03T17:36:56.511Z</time>
      </trkpt>
      <trkpt lat="44.62377" lon="0.85222">
        <ele>158</ele>
        <time>2018-03-03T17:36:57.511Z</time>
      </trkpt>
      <trkpt lat="44.62377" lon="0.85222">
        <ele>158</ele>
        <time>2018-03-03T17:36:58.511Z</time>
      </trkpt>
      <trkpt lat="44.62377" lon="0.85222">
        <ele>158</ele>
        <time>2018-03-03T17:36:59.511Z</time>
      </trkpt>
      <trkpt lat="44.62377" lon="0.85222">
        <ele>158</ele>
        <time>2018-03-03T17:37:00.511Z</time>
      </trkpt>
      <trkpt lat="44.62377" lon="0.85222">
        <ele>158</ele>
        <time>2018-03-03T17:37:01.511Z</time>
      </trkpt>
      <trkpt lat="44.62377" lon="0.85222">
        <ele>158</ele>
        <time>2018-03-03T17:37:02.511Z</time>
      </trkpt>
      <trkpt lat="44.62377" lon="0.85222">
        <ele>158</ele>
        <time>2018-03-03T17:37:03.511Z</time>
      </trkpt>
      <trkpt lat="44.62377" lon="0.85222">
        <ele>158</ele>
        <time>2018-03-03T17:37:04.511Z</time>
      </trkpt>
      <trkpt lat="44.62377" lon="0.85222">
        <ele>158</ele>
        <time>2018-03-03T17:37:05.511Z</time>
      </trkpt>
      <trkpt lat="44.62377" lon="0.85222">
        <ele>158</ele>
        <time>2018-03-03T17:37:06.511Z</time>
      </trkpt>
      <trkpt lat="44.62377" lon="0.85222">
        <ele>158</ele>
        <time>2018-03-03T17:37:07.511Z</time>
      </trkpt>
      <trkpt lat="44.62377" lon="0.85222">
        <ele>158</ele>
        <time>2018-03-03T17:37:08.511Z</time>
      </trkpt>
      <trkpt lat="44.62377" lon="0.85222">
        <ele>158</ele>
        <time>2018-03-03T17:37:09.511Z</time>
      </trkpt>
      <trkpt lat="44.62377" lon="0.85222">
        <ele>158</ele>
        <time>2018-03-03T17:37:10.511Z</time>
      </trkpt>
      <trkpt lat="44.62376" lon="0.85223">
        <ele>158</ele>
        <time>2018-03-03T17:37:11.511Z</time>
      </trkpt>
      <trkpt lat="44.62374" lon="0.85225">
        <ele>158</ele>
        <time>2018-03-03T17:37:12.511Z</time>
      </trkpt>
      <trkpt lat="44.62373" lon="0.85227">
        <ele>158</ele>
        <time>2018-03-03T17:37:13.511Z</time>
      </trkpt>
      <trkpt lat="44.62371" lon="0.85229">
        <ele>158</ele>
        <time>2018-03-03T17:37:14.511Z</time>
      </trkpt>
      <trkpt lat="44.6237" lon="0.85232">
        <ele>158</ele>
        <time>2018-03-03T17:37:15.511Z</time>
      </trkpt>
      <trkpt lat="44.62368" lon="0.85234">
        <ele>158</ele>
        <time>2018-03-03T17:37:16.511Z</time>
      </trkpt>
      <trkpt lat="44.62366" lon="0.85235">
        <ele>157</ele>
        <time>2018-03-03T17:37:17.511Z</time>
      </trkpt>
      <trkpt lat="44.62363" lon="0.85236">
        <ele>157</ele>
        <time>2018-03-03T17:37:18.511Z</time>
      </trkpt>
      <trkpt lat="44.62361" lon="0.85236">
        <ele>157</ele>
        <time>2018-03-03T17:37:19.511Z</time>
      </trkpt>
      <trkpt lat="44.62358" lon="0.85235">
        <ele>156</ele>
        <time>2018-03-03T17:37:20.511Z</time>
      </trkpt>
      <trkpt lat="44.62355" lon="0.85235">
        <ele>156</ele>
        <time>2018-03-03T17:37:21.511Z</time>
      </trkpt>
      <trkpt lat="44.62353" lon="0.85235">
        <ele>156</ele>
        <time>2018-03-03T17:37:22.511Z</time>
      </trkpt>
      <trkpt lat="44.6235" lon="0.85235">
        <ele>156</ele>
        <time>2018-03-03T17:37:23.511Z</time>
      </trkpt>
      <trkpt lat="44.62347" lon="0.85235">
        <ele>155</ele>
        <time>2018-03-03T17:37:24.511Z</time>
      </trkpt>
      <trkpt lat="44.62345" lon="0.85235">
        <ele>155</ele>
        <time>2018-03-03T17:37:25.511Z</time>
      </trkpt>
      <trkpt lat="44.62342" lon="0.85236">
        <ele>155</ele>
        <time>2018-03-03T17:37:26.511Z</time>
      </trkpt>
      <trkpt lat="44.6234" lon="0.85236">
        <ele>155</ele>
        <time>2018-03-03T17:37:27.511Z</time>
      </trkpt>
      <trkpt lat="44.62338" lon="0.85237">
        <ele>155</ele>
        <time>2018-03-03T17:37:28.511Z</time>
      </trkpt>
      <trkpt lat="44.62335" lon="0.85237">
        <ele>155</ele>
        <time>2018-03-03T17:37:29.511Z</time>
      </trkpt>
      <trkpt lat="44.62333" lon="0.85237">
        <ele>155</ele>
        <time>2018-03-03T17:37:30.511Z</time>
      </trkpt>
      <trkpt lat="44.6233" lon="0.85237">
        <ele>155</ele>
        <time>2018-03-03T17:37:31.511Z</time>
      </trkpt>
      <trkpt lat="44.62328" lon="0.85236">
        <ele>155</ele>
        <time>2018-03-03T17:37:32.511Z</time>
      </trkpt>
      <trkpt lat="44.62325" lon="0.85236">
        <ele>155</ele>
        <time>2018-03-03T17:37:33.511Z</time>
      </trkpt>
      <trkpt lat="44.62323" lon="0.85235">
        <ele>155</ele>
        <time>2018-03-03T17:37:34.511Z</time>
      </trkpt>
      <trkpt lat="44.6232" lon="0.85234">
        <ele>154</ele>
        <time>2018-03-03T17:37:35.511Z</time>
      </trkpt>
      <trkpt lat="44.62316" lon="0.85234">
        <ele>154</ele>
        <time>2018-03-03T17:37:36.511Z</time>
      </trkpt>
      <trkpt lat="44.62312" lon="0.85233">
        <ele>154</ele>
        <time>2018-03-03T17:37:37.511Z</time>
      </trkpt>
      <trkpt lat="44.62308" lon="0.85232">
        <ele>153</ele>
        <time>2018-03-03T17:37:38.511Z</time>
      </trkpt>
      <trkpt lat="44.62304" lon="0.85232">
        <ele>153</ele>
        <time>2018-03-03T17:37:39.511Z</time>
      </trkpt>
      <trkpt lat="44.623" lon="0.85231">
        <ele>153</ele>
        <time>2018-03-03T17:37:40.511Z</time>
      </trkpt>
      <trkpt lat="44.62296" lon="0.8523">
        <ele>152</ele>
        <time>2018-03-03T17:37:41.511Z</time>
      </trkpt>
      <trkpt lat="44.62292" lon="0.85228">
        <ele>152</ele>
        <time>2018-03-03T17:37:42.511Z</time>
      </trkpt>
      <trkpt lat="44.62288" lon="0.85227">
        <ele>152</ele>
        <time>2018-03-03T17:37:43.511Z</time>
      </trkpt>
      <trkpt lat="44.62284" lon="0.85224">
        <ele>152</ele>
        <time>2018-03-03T17:37:44.511Z</time>
      </trkpt>
      <trkpt lat="44.62281" lon="0.85222">
        <ele>151</ele>
        <time>2018-03-03T17:37:45.511Z</time>
      </trkpt>
      <trkpt lat="44.62277" lon="0.85218">
        <ele>151</ele>
        <time>2018-03-03T17:37:46.511Z</time>
      </trkpt>
      <trkpt lat="44.62274" lon="0.85215">
        <ele>150</ele>
        <time>2018-03-03T17:37:47.511Z</time>
      </trkpt>
      <trkpt lat="44.6227" lon="0.85211">
        <ele>150</ele>
        <time>2018-03-03T17:37:48.511Z</time>
      </trkpt>
      <trkpt lat="44.62267" lon="0.85208">
        <ele>150</ele>
        <time>2018-03-03T17:37:49.511Z</time>
      </trkpt>
      <trkpt lat="44.62264" lon="0.85204">
        <ele>150</ele>
        <time>2018-03-03T17:37:50.511Z</time>
      </trkpt>
      <trkpt lat="44.62261" lon="0.85201">
        <ele>150</ele>
        <time>2018-03-03T17:37:51.511Z</time>
      </trkpt>
      <trkpt lat="44.62259" lon="0.85198">
        <ele>149</ele>
        <time>2018-03-03T17:37:52.511Z</time>
      </trkpt>
      <trkpt lat="44.62256" lon="0.85196">
        <ele>149</ele>
        <time>2018-03-03T17:37:53.511Z</time>
      </trkpt>
      <trkpt lat="44.62254" lon="0.85194">
        <ele>149</ele>
        <time>2018-03-03T17:37:54.511Z</time>
      </trkpt>
      <trkpt lat="44.62253" lon="0.85192">
        <ele>149</ele>
        <time>2018-03-03T17:37:55.511Z</time>
      </trkpt>
      <trkpt lat="44.62251" lon="0.85191">
        <ele>149</ele>
        <time>2018-03-03T17:37:56.511Z</time>
      </trkpt>
      <trkpt lat="44.6225" lon="0.8519">
        <ele>149</ele>
        <time>2018-03-03T17:37:57.511Z</time>
      </trkpt>
      <trkpt lat="44.62248" lon="0.8519">
        <ele>148</ele>
        <time>2018-03-03T17:37:58.511Z</time>
      </trkpt>
      <trkpt lat="44.62247" lon="0.8519">
        <ele>148</ele>
        <time>2018-03-03T17:37:59.511Z</time>
      </trkpt>
      <trkpt lat="44.62246" lon="0.8519">
        <ele>148</ele>
        <time>2018-03-03T17:38:00.511Z</time>
      </trkpt>
      <trkpt lat="44.62244" lon="0.85191">
        <ele>148</ele>
        <time>2018-03-03T17:38:01.511Z</time>
      </trkpt>
      <trkpt lat="44.62243" lon="0.85192">
        <ele>147</ele>
        <time>2018-03-03T17:38:02.511Z</time>
      </trkpt>
      <trkpt lat="44.62242" lon="0.85194">
        <ele>147</ele>
        <time>2018-03-03T17:38:03.511Z</time>
      </trkpt>
      <trkpt lat="44.62241" lon="0.85195">
        <ele>147</ele>
        <time>2018-03-03T17:38:04.511Z</time>
      </trkpt>
      <trkpt lat="44.6224" lon="0.85196">
        <ele>147</ele>
        <time>2018-03-03T17:38:05.511Z</time>
      </trkpt>
      <trkpt lat="44.6224" lon="0.85197">
        <ele>146</ele>
        <time>2018-03-03T17:38:06.511Z</time>
      </trkpt>
      <trkpt lat="44.6224" lon="0.85197">
        <ele>146</ele>
        <time>2018-03-03T17:38:07.511Z</time>
      </trkpt>
      <trkpt lat="44.6224" lon="0.85197">
        <ele>146</ele>
        <time>2018-03-03T17:38:08.511Z</time>
      </trkpt>
      <trkpt lat="44.6224" lon="0.85197">
        <ele>145</ele>
        <time>2018-03-03T17:38:09.511Z</time>
      </trkpt>
      <trkpt lat="44.6224" lon="0.85197">
        <ele>145</ele>
        <time>2018-03-03T17:38:10.511Z</time>
      </trkpt>
      <trkpt lat="44.6224" lon="0.85197">
        <ele>145</ele>
        <time>2018-03-03T17:38:11.511Z</time>
      </trkpt>
      <trkpt lat="44.6224" lon="0.85197">
        <ele>145</ele>
        <time>2018-03-03T17:38:12.511Z</time>
      </trkpt>
      <trkpt lat="44.6224" lon="0.85197">
        <ele>145</ele>
        <time>2018-03-03T17:38:13.511Z</time>
      </trkpt>
      <trkpt lat="44.6224" lon="0.85197">
        <ele>145</ele>
        <time>2018-03-03T17:38:14.511Z</time>
      </trkpt>
      <trkpt lat="44.6224" lon="0.85197">
        <ele>145</ele>
        <time>2018-03-03T17:38:15.511Z</time>
      </trkpt>
      <trkpt lat="44.6224" lon="0.85197">
        <ele>145</ele>
        <time>2018-03-03T17:38:16.511Z</time>
      </trkpt>
      <trkpt lat="44.6224" lon="0.85197">
        <ele>145</ele>
        <time>2018-03-03T17:38:17.511Z</time>
      </trkpt>
      <trkpt lat="44.6224" lon="0.85197">
        <ele>145</ele>
        <time>2018-03-03T17:38:18.511Z</time>
      </trkpt>
      <trkpt lat="44.6224" lon="0.85197">
        <ele>145</ele>
        <time>2018-03-03T17:38:19.511Z</time>
      </trkpt>
      <trkpt lat="44.6224" lon="0.85197">
        <ele>145</ele>
        <time>2018-03-03T17:38:20.511Z</time>
      </trkpt>
      <trkpt lat="44.6224" lon="0.85197">
        <ele>145</ele>
        <time>2018-03-03T17:38:21.511Z</time>
      </trkpt>
      <trkpt lat="44.6224" lon="0.85198">
        <ele>145</ele>
        <time>2018-03-03T17:38:22.511Z</time>
      </trkpt>
      <trkpt lat="44.62239" lon="0.85198">
        <ele>145</ele>
        <time>2018-03-03T17:38:23.511Z</time>
      </trkpt>
      <trkpt lat="44.62239" lon="0.85198">
        <ele>145</ele>
        <time>2018-03-03T17:38:24.511Z</time>
      </trkpt>
      <trkpt lat="44.62239" lon="0.85198">
        <ele>144</ele>
        <time>2018-03-03T17:38:25.511Z</time>
      </trkpt>
      <trkpt lat="44.62238" lon="0.85199">
        <ele>144</ele>
        <time>2018-03-03T17:38:26.511Z</time>
      </trkpt>
      <trkpt lat="44.62236" lon="0.85201">
        <ele>144</ele>
        <time>2018-03-03T17:38:27.511Z</time>
      </trkpt>
      <trkpt lat="44.62235" lon="0.85203">
        <ele>143</ele>
        <time>2018-03-03T17:38:28.511Z</time>
      </trkpt>
      <trkpt lat="44.62234" lon="0.85205">
        <ele>143</ele>
        <time>2018-03-03T17:38:29.511Z</time>
      </trkpt>
      <trkpt lat="44.62233" lon="0.85206">
        <ele>143</ele>
        <time>2018-03-03T17:38:30.511Z</time>
      </trkpt>
      <trkpt lat="44.62233" lon="0.85206">
        <ele>143</ele>
        <time>2018-03-03T17:38:31.511Z</time>
      </trkpt>
      <trkpt lat="44.62233" lon="0.85206">
        <ele>142</ele>
        <time>2018-03-03T17:38:32.511Z</time>
      </trkpt>
      <trkpt lat="44.62233" lon="0.85206">
        <ele>142</ele>
        <time>2018-03-03T17:38:33.511Z</time>
      </trkpt>
      <trkpt lat="44.62233" lon="0.85206">
        <ele>142</ele>
        <time>2018-03-03T17:38:34.511Z</time>
      </trkpt>
      <trkpt lat="44.62233" lon="0.85206">
        <ele>141</ele>
        <time>2018-03-03T17:38:35.511Z</time>
      </trkpt>
      <trkpt lat="44.62233" lon="0.85206">
        <ele>141</ele>
        <time>2018-03-03T17:38:36.511Z</time>
      </trkpt>
      <trkpt lat="44.62232" lon="0.85206">
        <ele>140</ele>
        <time>2018-03-03T17:38:37.511Z</time>
      </trkpt>
      <trkpt lat="44.62232" lon="0.85206">
        <ele>139</ele>
        <time>2018-03-03T17:38:38.511Z</time>
      </trkpt>
      <trkpt lat="44.62231" lon="0.85206">
        <ele>139</ele>
        <time>2018-03-03T17:38:39.511Z</time>
      </trkpt>
      <trkpt lat="44.6223" lon="0.85207">
        <ele>138</ele>
        <time>2018-03-03T17:38:40.511Z</time>
      </trkpt>
      <trkpt lat="44.62229" lon="0.85207">
        <ele>137</ele>
        <time>2018-03-03T17:38:41.511Z</time>
      </trkpt>
      <trkpt lat="44.62227" lon="0.85207">
        <ele>136</ele>
        <time>2018-03-03T17:38:42.511Z</time>
      </trkpt>
      <trkpt lat="44.62225" lon="0.85208">
        <ele>136</ele>
        <time>2018-03-03T17:38:43.511Z</time>
      </trkpt>
      <trkpt lat="44.62223" lon="0.85208">
        <ele>135</ele>
        <time>2018-03-03T17:38:44.511Z</time>
      </trkpt>
      <trkpt lat="44.6222" lon="0.85207">
        <ele>135</ele>
        <time>2018-03-03T17:38:45.511Z</time>
      </trkpt>
      <trkpt lat="44.62219" lon="0.85207">
        <ele>135</ele>
        <time>2018-03-03T17:38:46.511Z</time>
      </trkpt>
      <trkpt lat="44.62218" lon="0.85207">
        <ele>134</ele>
        <time>2018-03-03T17:38:47.511Z</time>
      </trkpt>
      <trkpt lat="44.62218" lon="0.85207">
        <ele>134</ele>
        <time>2018-03-03T17:38:48.511Z</time>
      </trkpt>
      <trkpt lat="44.62217" lon="0.85206">
        <ele>134</ele>
        <time>2018-03-03T17:38:49.511Z</time>
      </trkpt>
      <trkpt lat="44.62217" lon="0.85206">
        <ele>134</ele>
        <time>2018-03-03T17:38:50.511Z</time>
      </trkpt>
      <trkpt lat="44.62217" lon="0.85206">
        <ele>134</ele>
        <time>2018-03-03T17:38:51.511Z</time>
      </trkpt>
      <trkpt lat="44.62217" lon="0.85206">
        <ele>134</ele>
        <time>2018-03-03T17:38:52.511Z</time>
      </trkpt>
      <trkpt lat="44.62217" lon="0.85206">
        <ele>134</ele>
        <time>2018-03-03T17:38:53.511Z</time>
      </trkpt>
      <trkpt lat="44.62216" lon="0.85206">
        <ele>134</ele>
        <time>2018-03-03T17:38:54.511Z</time>
      </trkpt>
      <trkpt lat="44.62216" lon="0.85206">
        <ele>134</ele>
        <time>2018-03-03T17:38:55.511Z</time>
      </trkpt>
      <trkpt lat="44.62216" lon="0.85206">
        <ele>134</ele>
        <time>2018-03-03T17:38:56.511Z</time>
      </trkpt>
      <trkpt lat="44.62216" lon="0.85206">
        <ele>134</ele>
        <time>2018-03-03T17:38:57.511Z</time>
      </trkpt>
      <trkpt lat="44.62216" lon="0.85206">
        <ele>134</ele>
        <time>2018-03-03T17:38:58.511Z</time>
      </trkpt>
      <trkpt lat="44.62216" lon="0.85206">
        <ele>134</ele>
        <time>2018-03-03T17:38:59.511Z</time>
      </trkpt>
      <trkpt lat="44.62216" lon="0.85206">
        <ele>134</ele>
        <time>2018-03-03T17:39:00.511Z</time>
      </trkpt>
      <trkpt lat="44.62216" lon="0.85206">
        <ele>134</ele>
        <time>2018-03-03T17:39:01.511Z</time>
      </trkpt>
      <trkpt lat="44.62216" lon="0.85206">
        <ele>134</ele>
        <time>2018-03-03T17:39:02.511Z</time>
      </trkpt>
      <trkpt lat="44.62216" lon="0.85206">
        <ele>134</ele>
        <time>2018-03-03T17:39:03.511Z</time>
      </trkpt>
      <trkpt lat="44.62216" lon="0.85206">
        <ele>134</ele>
        <time>2018-03-03T17:39:04.511Z</time>
      </trkpt>
      <trkpt lat="44.62216" lon="0.85206">
        <ele>134</ele>
        <time>2018-03-03T17:39:05.511Z</time>
      </trkpt>
      <trkpt lat="44.62216" lon="0.85206">
        <ele>134</ele>
        <time>2018-03-03T17:39:06.511Z</time>
      </trkpt>
      <trkpt lat="44.62216" lon="0.85206">
        <ele>134</ele>
        <time>2018-03-03T17:39:07.511Z</time>
      </trkpt>
      <trkpt lat="44.62216" lon="0.85206">
        <ele>134</ele>
        <time>2018-03-03T17:39:08.511Z</time>
      </trkpt>
      <trkpt lat="44.62216" lon="0.85206">
        <ele>134</ele>
        <time>2018-03-03T17:39:09.511Z</time>
      </trkpt>
      <trkpt lat="44.62216" lon="0.85206">
        <ele>134</ele>
        <time>2018-03-03T17:39:10.511Z</time>
      </trkpt>
      <trkpt lat="44.62216" lon="0.85206">
        <ele>134</ele>
        <time>2018-03-03T17:39:11.511Z</time>
      </trkpt>
      <trkpt lat="44.62216" lon="0.85206">
        <ele>134</ele>
        <time>2018-03-03T17:39:12.511Z</time>
      </trkpt>
      <trkpt lat="44.62216" lon="0.85206">
        <ele>134</ele>
        <time>2018-03-03T17:39:13.511Z</time>
      </trkpt>
      <trkpt lat="44.62216" lon="0.85206">
        <ele>134</ele>
        <time>2018-03-03T17:39:14.511Z</time>
      </trkpt>
      <trkpt lat="44.62216" lon="0.85206">
        <ele>134</ele>
        <time>2018-03-03T17:39:15.511Z</time>
      </trkpt>
      <trkpt lat="44.62216" lon="0.85206">
        <ele>134</ele>
        <time>2018-03-03T17:39:16.511Z</time>
      </trkpt>
      <trkpt lat="44.62216" lon="0.85206">
        <ele>134</ele>
        <time>2018-03-03T17:39:17.511Z</time>
      </trkpt>
      <trkpt lat="44.62216" lon="0.85206">
        <ele>134</ele>
        <time>2018-03-03T17:39:18.511Z</time>
      </trkpt>
      <trkpt lat="44.62216" lon="0.85206">
        <ele>134</ele>
        <time>2018-03-03T17:39:19.511Z</time>
      </trkpt>
      <trkpt lat="44.62216" lon="0.85206">
        <ele>134</ele>
        <time>2018-03-03T17:39:20.511Z</time>
      </trkpt>
      <trkpt lat="44.62216" lon="0.85206">
        <ele>134</ele>
        <time>2018-03-03T17:39:21.511Z</time>
      </trkpt>
      <trkpt lat="44.62216" lon="0.85206">
        <ele>134</ele>
        <time>2018-03-03T17:39:22.511Z</time>
      </trkpt>
      <trkpt lat="44.62216" lon="0.85206">
        <ele>134</ele>
        <time>2018-03-03T17:39:23.511Z</time>
      </trkpt>
      <trkpt lat="44.62216" lon="0.85206">
        <ele>134</ele>
        <time>2018-03-03T17:39:24.511Z</time>
      </trkpt>
      <trkpt lat="44.62216" lon="0.85206">
        <ele>134</ele>
        <time>2018-03-03T17:39:25.511Z</time>
      </trkpt>
      <trkpt lat="44.62216" lon="0.85206">
        <ele>134</ele>
        <time>2018-03-03T17:39:26.511Z</time>
      </trkpt>
      <trkpt lat="44.62216" lon="0.85206">
        <ele>134</ele>
        <time>2018-03-03T17:39:27.511Z</time>
      </trkpt>
      <trkpt lat="44.62216" lon="0.85206">
        <ele>134</ele>
        <time>2018-03-03T17:39:28.511Z</time>
      </trkpt>
      <trkpt lat="44.62216" lon="0.85206">
        <ele>134</ele>
        <time>2018-03-03T17:39:29.511Z</time>
      </trkpt>
      <trkpt lat="44.62216" lon="0.85206">
        <ele>134</ele>
        <time>2018-03-03T17:39:30.511Z</time>
      </trkpt>
      <trkpt lat="44.62216" lon="0.85206">
        <ele>134</ele>
        <time>2018-03-03T17:39:31.511Z</time>
      </trkpt>
      <trkpt lat="44.62216" lon="0.85206">
        <ele>134</ele>
        <time>2018-03-03T17:39:32.511Z</time>
      </trkpt>
      <trkpt lat="44.62216" lon="0.85206">
        <ele>134</ele>
        <time>2018-03-03T17:39:33.511Z</time>
      </trkpt>
      <trkpt lat="44.62216" lon="0.85206">
        <ele>134</ele>
        <time>2018-03-03T17:39:34.511Z</time>
      </trkpt>
      <trkpt lat="44.62216" lon="0.85206">
        <ele>134</ele>
        <time>2018-03-03T17:39:35.511Z</time>
      </trkpt>
      <trkpt lat="44.62216" lon="0.85206">
        <ele>134</ele>
        <time>2018-03-03T17:39:36.511Z</time>
      </trkpt>
      <trkpt lat="44.62216" lon="0.85206">
        <ele>134</ele>
        <time>2018-03-03T17:39:37.511Z</time>
      </trkpt>
      <trkpt lat="44.62216" lon="0.85206">
        <ele>134</ele>
        <time>2018-03-03T17:39:38.511Z</time>
      </trkpt>
      <trkpt lat="44.62216" lon="0.85206">
        <ele>134</ele>
        <time>2018-03-03T17:39:39.511Z</time>
      </trkpt>
      <trkpt lat="44.62216" lon="0.85206">
        <ele>134</ele>
        <time>2018-03-03T17:39:40.511Z</time>
      </trkpt>
      <trkpt lat="44.62216" lon="0.85206">
        <ele>134</ele>
        <time>2018-03-03T17:39:41.511Z</time>
      </trkpt>
      <trkpt lat="44.62216" lon="0.85206">
        <ele>134</ele>
        <time>2018-03-03T17:39:42.511Z</time>
      </trkpt>
      <trkpt lat="44.62216" lon="0.85206">
        <ele>134</ele>
        <time>2018-03-03T17:39:43.511Z</time>
      </trkpt>
      <trkpt lat="44.62216" lon="0.85206">
        <ele>134</ele>
        <time>2018-03-03T17:39:44.511Z</time>
      </trkpt>
      <trkpt lat="44.62216" lon="0.85206">
        <ele>134</ele>
        <time>2018-03-03T17:39:45.511Z</time>
      </trkpt>
      <trkpt lat="44.62216" lon="0.85206">
        <ele>134</ele>
        <time>2018-03-03T17:39:46.511Z</time>
      </trkpt>
      <trkpt lat="44.62216" lon="0.85206">
        <ele>134</ele>
        <time>2018-03-03T17:39:47.511Z</time>
      </trkpt>
      <trkpt lat="44.62216" lon="0.85206">
        <ele>134</ele>
        <time>2018-03-03T17:39:48.511Z</time>
      </trkpt>
      <trkpt lat="44.62216" lon="0.85206">
        <ele>134</ele>
        <time>2018-03-03T17:39:49.511Z</time>
      </trkpt>
      <trkpt lat="44.62216" lon="0.85206">
        <ele>134</ele>
        <time>2018-03-03T17:39:50.511Z</time>
      </trkpt>
      <trkpt lat="44.62216" lon="0.85206">
        <ele>134</ele>
        <time>2018-03-03T17:39:51.511Z</time>
      </trkpt>
      <trkpt lat="44.62216" lon="0.85206">
        <ele>134</ele>
        <time>2018-03-03T17:39:52.511Z</time>
      </trkpt>
      <trkpt lat="44.62216" lon="0.85206">
        <ele>134</ele>
        <time>2018-03-03T17:39:53.511Z</time>
      </trkpt>
      <trkpt lat="44.62216" lon="0.85206">
        <ele>134</ele>
        <time>2018-03-03T17:39:54.511Z</time>
      </trkpt>
      <trkpt lat="44.62216" lon="0.85206">
        <ele>134</ele>
        <time>2018-03-03T17:39:55.511Z</time>
      </trkpt>
      <trkpt lat="44.62216" lon="0.85206">
        <ele>134</ele>
        <time>2018-03-03T17:39:56.511Z</time>
      </trkpt>
      <trkpt lat="44.62216" lon="0.85206">
        <ele>134</ele>
        <time>2018-03-03T17:39:57.511Z</time>
      </trkpt>
      <trkpt lat="44.62216" lon="0.85206">
        <ele>134</ele>
        <time>2018-03-03T17:39:58.511Z</time>
      </trkpt>
      <trkpt lat="44.62216" lon="0.85206">
        <ele>134</ele>
        <time>2018-03-03T17:39:59.511Z</time>
      </trkpt>
      <trkpt lat="44.62216" lon="0.85206">
        <ele>134</ele>
        <time>2018-03-03T17:40:00.511Z</time>
      </trkpt>
      <trkpt lat="44.62216" lon="0.85206">
        <ele>134</ele>
        <time>2018-03-03T17:40:01.511Z</time>
      </trkpt>
      <trkpt lat="44.62216" lon="0.85206">
        <ele>134</ele>
        <time>2018-03-03T17:40:02.511Z</time>
      </trkpt>
      <trkpt lat="44.62216" lon="0.85206">
        <ele>134</ele>
        <time>2018-03-03T17:40:03.511Z</time>
      </trkpt>
      <trkpt lat="44.62216" lon="0.85206">
        <ele>134</ele>
        <time>2018-03-03T17:40:04.511Z</time>
      </trkpt>
      <trkpt lat="44.62216" lon="0.85206">
        <ele>134</ele>
        <time>2018-03-03T17:40:05.511Z</time>
      </trkpt>
      <trkpt lat="44.62216" lon="0.85206">
        <ele>134</ele>
        <time>2018-03-03T17:40:06.511Z</time>
      </trkpt>
      <trkpt lat="44.62216" lon="0.85206">
        <ele>134</ele>
        <time>2018-03-03T17:40:07.511Z</time>
      </trkpt>
      <trkpt lat="44.62216" lon="0.85206">
        <ele>134</ele>
        <time>2018-03-03T17:40:08.511Z</time>
      </trkpt>
      <trkpt lat="44.62216" lon="0.85206">
        <ele>134</ele>
        <time>2018-03-03T17:40:09.511Z</time>
      </trkpt>
      <trkpt lat="44.62216" lon="0.85206">
        <ele>134</ele>
        <time>2018-03-03T17:40:10.511Z</time>
      </trkpt>
      <trkpt lat="44.62216" lon="0.85206">
        <ele>134</ele>
        <time>2018-03-03T17:40:11.511Z</time>
      </trkpt>
      <trkpt lat="44.62216" lon="0.85206">
        <ele>134</ele>
        <time>2018-03-03T17:40:12.511Z</time>
      </trkpt>
      <trkpt lat="44.62216" lon="0.85206">
        <ele>134</ele>
        <time>2018-03-03T17:40:13.511Z</time>
      </trkpt>
      <trkpt lat="44.62216" lon="0.85206">
        <ele>134</ele>
        <time>2018-03-03T17:40:14.511Z</time>
      </trkpt>
      <trkpt lat="44.62216" lon="0.85206">
        <ele>134</ele>
        <time>2018-03-03T17:40:15.511Z</time>
      </trkpt>
      <trkpt lat="44.62216" lon="0.85206">
        <ele>134</ele>
        <time>2018-03-03T17:40:16.511Z</time>
      </trkpt>
      <trkpt lat="44.62216" lon="0.85206">
        <ele>134</ele>
        <time>2018-03-03T17:40:17.511Z</time>
      </trkpt>
      <trkpt lat="44.62216" lon="0.85206">
        <ele>134</ele>
        <time>2018-03-03T17:40:18.511Z</time>
      </trkpt>
      <trkpt lat="44.62216" lon="0.85206">
        <ele>134</ele>
        <time>2018-03-03T17:40:19.511Z</time>
      </trkpt>
      <trkpt lat="44.62216" lon="0.85206">
        <ele>134</ele>
        <time>2018-03-03T17:40:20.511Z</time>
      </trkpt>
      <trkpt lat="44.62216" lon="0.85206">
        <ele>134</ele>
        <time>2018-03-03T17:40:21.511Z</time>
      </trkpt>
      <trkpt lat="44.62216" lon="0.85206">
        <ele>134</ele>
        <time>2018-03-03T17:40:22.511Z</time>
      </trkpt>
      <trkpt lat="44.62215" lon="0.85206">
        <ele>134</ele>
        <time>2018-03-03T17:40:23.511Z</time>
      </trkpt>
      <trkpt lat="44.62213" lon="0.85204">
        <ele>134</ele>
        <time>2018-03-03T17:40:24.511Z</time>
      </trkpt>
      <trkpt lat="44.62212" lon="0.85203">
        <ele>134</ele>
        <time>2018-03-03T17:40:25.511Z</time>
      </trkpt>
      <trkpt lat="44.62211" lon="0.85202">
        <ele>134</ele>
        <time>2018-03-03T17:40:26.511Z</time>
      </trkpt>
      <trkpt lat="44.62211" lon="0.85201">
        <ele>134</ele>
        <time>2018-03-03T17:40:27.511Z</time>
      </trkpt>
      <trkpt lat="44.6221" lon="0.852">
        <ele>134</ele>
        <time>2018-03-03T17:40:28.511Z</time>
      </trkpt>
      <trkpt lat="44.6221" lon="0.852">
        <ele>134</ele>
        <time>2018-03-03T17:40:29.511Z</time>
      </trkpt>
      <trkpt lat="44.62209" lon="0.852">
        <ele>134</ele>
        <time>2018-03-03T17:40:30.511Z</time>
      </trkpt>
      <trkpt lat="44.62209" lon="0.85199">
        <ele>134</ele>
        <time>2018-03-03T17:40:31.511Z</time>
      </trkpt>
      <trkpt lat="44.62208" lon="0.85198">
        <ele>134</ele>
        <time>2018-03-03T17:40:32.511Z</time>
      </trkpt>
      <trkpt lat="44.62207" lon="0.85196">
        <ele>134</ele>
        <time>2018-03-03T17:40:33.511Z</time>
      </trkpt>
      <trkpt lat="44.62205" lon="0.85195">
        <ele>134</ele>
        <time>2018-03-03T17:40:34.511Z</time>
      </trkpt>
      <trkpt lat="44.62203" lon="0.85193">
        <ele>134</ele>
        <time>2018-03-03T17:40:35.511Z</time>
      </trkpt>
      <trkpt lat="44.622" lon="0.8519">
        <ele>134</ele>
        <time>2018-03-03T17:40:36.511Z</time>
      </trkpt>
      <trkpt lat="44.62198" lon="0.85189">
        <ele>134</ele>
        <time>2018-03-03T17:40:37.511Z</time>
      </trkpt>
      <trkpt lat="44.62195" lon="0.85187">
        <ele>134</ele>
        <time>2018-03-03T17:40:38.511Z</time>
      </trkpt>
      <trkpt lat="44.62193" lon="0.85186">
        <ele>134</ele>
        <time>2018-03-03T17:40:39.511Z</time>
      </trkpt>
      <trkpt lat="44.6219" lon="0.85184">
        <ele>134</ele>
        <time>2018-03-03T17:40:40.511Z</time>
      </trkpt>
      <trkpt lat="44.62188" lon="0.85182">
        <ele>134</ele>
        <time>2018-03-03T17:40:41.511Z</time>
      </trkpt>
      <trkpt lat="44.62186" lon="0.8518">
        <ele>134</ele>
        <time>2018-03-03T17:40:42.511Z</time>
      </trkpt>
      <trkpt lat="44.62184" lon="0.85177">
        <ele>134</ele>
        <time>2018-03-03T17:40:43.511Z</time>
      </trkpt>
      <trkpt lat="44.62182" lon="0.85174">
        <ele>133</ele>
        <time>2018-03-03T17:40:44.511Z</time>
      </trkpt>
      <trkpt lat="44.6218" lon="0.85172">
        <ele>133</ele>
        <time>2018-03-03T17:40:45.511Z</time>
      </trkpt>
      <trkpt lat="44.62178" lon="0.85169">
        <ele>133</ele>
        <time>2018-03-03T17:40:46.511Z</time>
      </trkpt>
      <trkpt lat="44.62176" lon="0.85167">
        <ele>133</ele>
        <time>2018-03-03T17:40:47.511Z</time>
      </trkpt>
      <trkpt lat="44.62175" lon="0.85165">
        <ele>133</ele>
        <time>2018-03-03T17:40:48.511Z</time>
      </trkpt>
      <trkpt lat="44.62174" lon="0.85162">
        <ele>133</ele>
        <time>2018-03-03T17:40:49.511Z</time>
      </trkpt>
      <trkpt lat="44.62173" lon="0.85159">
        <ele>134</ele>
        <time>2018-03-03T17:40:50.511Z</time>
      </trkpt>
      <trkpt lat="44.62173" lon="0.85155">
        <ele>134</ele>
        <time>2018-03-03T17:40:51.511Z</time>
      </trkpt>
      <trkpt lat="44.62174" lon="0.8515">
        <ele>134</ele>
        <time>2018-03-03T17:40:52.511Z</time>
      </trkpt>
      <trkpt lat="44.62174" lon="0.85145">
        <ele>134</ele>
        <time>2018-03-03T17:40:53.511Z</time>
      </trkpt>
      <trkpt lat="44.62175" lon="0.8514">
        <ele>134</ele>
        <time>2018-03-03T17:40:54.511Z</time>
      </trkpt>
      <trkpt lat="44.62175" lon="0.85135">
        <ele>134</ele>
        <time>2018-03-03T17:40:55.511Z</time>
      </trkpt>
      <trkpt lat="44.62175" lon="0.8513">
        <ele>133</ele>
        <time>2018-03-03T17:40:56.511Z</time>
      </trkpt>
      <trkpt lat="44.62174" lon="0.85126">
        <ele>133</ele>
        <time>2018-03-03T17:40:57.511Z</time>
      </trkpt>
      <trkpt lat="44.62173" lon="0.85121">
        <ele>133</ele>
        <time>2018-03-03T17:40:58.511Z</time>
      </trkpt>
      <trkpt lat="44.62172" lon="0.85116">
        <ele>133</ele>
        <time>2018-03-03T17:40:59.511Z</time>
      </trkpt>
      <trkpt lat="44.6217" lon="0.85112">
        <ele>133</ele>
        <time>2018-03-03T17:41:00.511Z</time>
      </trkpt>
      <trkpt lat="44.62168" lon="0.85108">
        <ele>133</ele>
        <time>2018-03-03T17:41:01.511Z</time>
      </trkpt>
      <trkpt lat="44.62166" lon="0.85103">
        <ele>133</ele>
        <time>2018-03-03T17:41:02.511Z</time>
      </trkpt>
      <trkpt lat="44.62164" lon="0.85099">
        <ele>133</ele>
        <time>2018-03-03T17:41:03.511Z</time>
      </trkpt>
      <trkpt lat="44.62163" lon="0.85095">
        <ele>133</ele>
        <time>2018-03-03T17:41:04.511Z</time>
      </trkpt>
      <trkpt lat="44.62161" lon="0.8509">
        <ele>133</ele>
        <time>2018-03-03T17:41:05.511Z</time>
      </trkpt>
      <trkpt lat="44.6216" lon="0.85086">
        <ele>133</ele>
        <time>2018-03-03T17:41:06.511Z</time>
      </trkpt>
      <trkpt lat="44.62159" lon="0.85082">
        <ele>133</ele>
        <time>2018-03-03T17:41:07.511Z</time>
      </trkpt>
      <trkpt lat="44.62158" lon="0.85078">
        <ele>133</ele>
        <time>2018-03-03T17:41:08.511Z</time>
      </trkpt>
      <trkpt lat="44.62157" lon="0.85076">
        <ele>133</ele>
        <time>2018-03-03T17:41:09.511Z</time>
      </trkpt>
      <trkpt lat="44.62157" lon="0.85074">
        <ele>133</ele>
        <time>2018-03-03T17:41:10.511Z</time>
      </trkpt>
      <trkpt lat="44.62156" lon="0.85073">
        <ele>133</ele>
        <time>2018-03-03T17:41:11.511Z</time>
      </trkpt>
      <trkpt lat="44.62156" lon="0.85073">
        <ele>133</ele>
        <time>2018-03-03T17:41:12.511Z</time>
      </trkpt>
      <trkpt lat="44.62156" lon="0.85072">
        <ele>133</ele>
        <time>2018-03-03T17:41:13.511Z</time>
      </trkpt>
      <trkpt lat="44.62155" lon="0.8507">
        <ele>133</ele>
        <time>2018-03-03T17:41:14.511Z</time>
      </trkpt>
      <trkpt lat="44.62155" lon="0.85068">
        <ele>133</ele>
        <time>2018-03-03T17:41:15.511Z</time>
      </trkpt>
      <trkpt lat="44.62154" lon="0.85065">
        <ele>132</ele>
        <time>2018-03-03T17:41:16.511Z</time>
      </trkpt>
      <trkpt lat="44.62153" lon="0.85061">
        <ele>132</ele>
        <time>2018-03-03T17:41:17.511Z</time>
      </trkpt>
      <trkpt lat="44.62151" lon="0.85058">
        <ele>132</ele>
        <time>2018-03-03T17:41:18.511Z</time>
      </trkpt>
      <trkpt lat="44.62149" lon="0.85056">
        <ele>131</ele>
        <time>2018-03-03T17:41:19.511Z</time>
      </trkpt>
      <trkpt lat="44.62147" lon="0.85054">
        <ele>131</ele>
        <time>2018-03-03T17:41:20.511Z</time>
      </trkpt>
      <trkpt lat="44.62145" lon="0.85052">
        <ele>131</ele>
        <time>2018-03-03T17:41:21.511Z</time>
      </trkpt>
      <trkpt lat="44.62143" lon="0.85051">
        <ele>131</ele>
        <time>2018-03-03T17:41:22.511Z</time>
      </trkpt>
      <trkpt lat="44.62142" lon="0.8505">
        <ele>131</ele>
        <time>2018-03-03T17:41:23.511Z</time>
      </trkpt>
      <trkpt lat="44.62141" lon="0.85049">
        <ele>131</ele>
        <time>2018-03-03T17:41:24.511Z</time>
      </trkpt>
      <trkpt lat="44.62141" lon="0.85048">
        <ele>131</ele>
        <time>2018-03-03T17:41:25.511Z</time>
      </trkpt>
      <trkpt lat="44.62141" lon="0.85047">
        <ele>131</ele>
        <time>2018-03-03T17:41:26.511Z</time>
      </trkpt>
      <trkpt lat="44.62142" lon="0.85045">
        <ele>131</ele>
        <time>2018-03-03T17:41:27.511Z</time>
      </trkpt>
      <trkpt lat="44.62142" lon="0.85043">
        <ele>132</ele>
        <time>2018-03-03T17:41:28.511Z</time>
      </trkpt>
      <trkpt lat="44.62142" lon="0.85041">
        <ele>132</ele>
        <time>2018-03-03T17:41:29.511Z</time>
      </trkpt>
      <trkpt lat="44.62142" lon="0.85038">
        <ele>132</ele>
        <time>2018-03-03T17:41:30.511Z</time>
      </trkpt>
      <trkpt lat="44.62142" lon="0.85035">
        <ele>131</ele>
        <time>2018-03-03T17:41:31.511Z</time>
      </trkpt>
      <trkpt lat="44.62142" lon="0.85032">
        <ele>131</ele>
        <time>2018-03-03T17:41:32.511Z</time>
      </trkpt>
      <trkpt lat="44.62142" lon="0.85029">
        <ele>131</ele>
        <time>2018-03-03T17:41:33.511Z</time>
      </trkpt>
      <trkpt lat="44.62141" lon="0.85027">
        <ele>131</ele>
        <time>2018-03-03T17:41:34.511Z</time>
      </trkpt>
      <trkpt lat="44.6214" lon="0.85026">
        <ele>131</ele>
        <time>2018-03-03T17:41:35.511Z</time>
      </trkpt>
      <trkpt lat="44.6214" lon="0.85025">
        <ele>131</ele>
        <time>2018-03-03T17:41:36.511Z</time>
      </trkpt>
      <trkpt lat="44.62139" lon="0.85024">
        <ele>131</ele>
        <time>2018-03-03T17:41:37.511Z</time>
      </trkpt>
      <trkpt lat="44.62139" lon="0.85023">
        <ele>130</ele>
        <time>2018-03-03T17:41:38.511Z</time>
      </trkpt>
      <trkpt lat="44.62138" lon="0.85023">
        <ele>130</ele>
        <time>2018-03-03T17:41:39.511Z</time>
      </trkpt>
      <trkpt lat="44.62138" lon="0.85023">
        <ele>130</ele>
        <time>2018-03-03T17:41:40.511Z</time>
      </trkpt>
      <trkpt lat="44.62138" lon="0.85023">
        <ele>130</ele>
        <time>2018-03-03T17:41:41.511Z</time>
      </trkpt>
      <trkpt lat="44.62138" lon="0.85023">
        <ele>130</ele>
        <time>2018-03-03T17:41:42.511Z</time>
      </trkpt>
      <trkpt lat="44.62138" lon="0.85023">
        <ele>130</ele>
        <time>2018-03-03T17:41:43.511Z</time>
      </trkpt>
      <trkpt lat="44.62138" lon="0.85023">
        <ele>130</ele>
        <time>2018-03-03T17:41:44.511Z</time>
      </trkpt>
      <trkpt lat="44.62138" lon="0.85023">
        <ele>130</ele>
        <time>2018-03-03T17:41:45.511Z</time>
      </trkpt>
      <trkpt lat="44.62138" lon="0.85022">
        <ele>130</ele>
        <time>2018-03-03T17:41:46.511Z</time>
      </trkpt>
      <trkpt lat="44.62137" lon="0.85021">
        <ele>130</ele>
        <time>2018-03-03T17:41:47.511Z</time>
      </trkpt>
      <trkpt lat="44.62137" lon="0.85019">
        <ele>130</ele>
        <time>2018-03-03T17:41:48.511Z</time>
      </trkpt>
      <trkpt lat="44.62136" lon="0.85016">
        <ele>130</ele>
        <time>2018-03-03T17:41:49.511Z</time>
      </trkpt>
      <trkpt lat="44.62135" lon="0.85014">
        <ele>130</ele>
        <time>2018-03-03T17:41:50.511Z</time>
      </trkpt>
      <trkpt lat="44.62135" lon="0.85012">
        <ele>130</ele>
        <time>2018-03-03T17:41:51.511Z</time>
      </trkpt>
      <trkpt lat="44.62134" lon="0.85011">
        <ele>130</ele>
        <time>2018-03-03T17:41:52.511Z</time>
      </trkpt>
      <trkpt lat="44.62135" lon="0.85009">
        <ele>130</ele>
        <time>2018-03-03T17:41:53.511Z</time>
      </trkpt>
      <trkpt lat="44.62135" lon="0.85006">
        <ele>130</ele>
        <time>2018-03-03T17:41:54.511Z</time>
      </trkpt>
      <trkpt lat="44.62136" lon="0.85003">
        <ele>130</ele>
        <time>2018-03-03T17:41:55.511Z</time>
      </trkpt>
      <trkpt lat="44.62137" lon="0.85001">
        <ele>130</ele>
        <time>2018-03-03T17:41:56.511Z</time>
      </trkpt>
      <trkpt lat="44.62138" lon="0.84998">
        <ele>130</ele>
        <time>2018-03-03T17:41:57.511Z</time>
      </trkpt>
      <trkpt lat="44.6214" lon="0.84996">
        <ele>130</ele>
        <time>2018-03-03T17:41:58.511Z</time>
      </trkpt>
      <trkpt lat="44.62141" lon="0.84993">
        <ele>130</ele>
        <time>2018-03-03T17:41:59.511Z</time>
      </trkpt>
      <trkpt lat="44.62143" lon="0.84991">
        <ele>130</ele>
        <time>2018-03-03T17:42:00.511Z</time>
      </trkpt>
      <trkpt lat="44.62144" lon="0.84989">
        <ele>130</ele>
        <time>2018-03-03T17:42:01.511Z</time>
      </trkpt>
      <trkpt lat="44.62146" lon="0.84987">
        <ele>129</ele>
        <time>2018-03-03T17:42:02.511Z</time>
      </trkpt>
      <trkpt lat="44.62148" lon="0.84984">
        <ele>129</ele>
        <time>2018-03-03T17:42:03.511Z</time>
      </trkpt>
      <trkpt lat="44.62149" lon="0.84982">
        <ele>129</ele>
        <time>2018-03-03T17:42:04.511Z</time>
      </trkpt>
      <trkpt lat="44.6215" lon="0.84979">
        <ele>129</ele>
        <time>2018-03-03T17:42:05.511Z</time>
      </trkpt>
      <trkpt lat="44.62151" lon="0.84977">
        <ele>129</ele>
        <time>2018-03-03T17:42:06.511Z</time>
      </trkpt>
      <trkpt lat="44.62152" lon="0.84974">
        <ele>129</ele>
        <time>2018-03-03T17:42:07.511Z</time>
      </trkpt>
      <trkpt lat="44.62153" lon="0.84971">
        <ele>129</ele>
        <time>2018-03-03T17:42:08.511Z</time>
      </trkpt>
      <trkpt lat="44.62154" lon="0.84968">
        <ele>129</ele>
        <time>2018-03-03T17:42:09.511Z</time>
      </trkpt>
      <trkpt lat="44.62154" lon="0.84965">
        <ele>129</ele>
        <time>2018-03-03T17:42:10.511Z</time>
      </trkpt>
      <trkpt lat="44.62155" lon="0.84961">
        <ele>129</ele>
        <time>2018-03-03T17:42:11.511Z</time>
      </trkpt>
      <trkpt lat="44.62156" lon="0.84958">
        <ele>129</ele>
        <time>2018-03-03T17:42:12.511Z</time>
      </trkpt>
      <trkpt lat="44.62156" lon="0.84955">
        <ele>129</ele>
        <time>2018-03-03T17:42:13.511Z</time>
      </trkpt>
      <trkpt lat="44.62157" lon="0.84951">
        <ele>129</ele>
        <time>2018-03-03T17:42:14.511Z</time>
      </trkpt>
      <trkpt lat="44.62158" lon="0.84948">
        <ele>129</ele>
        <time>2018-03-03T17:42:15.511Z</time>
      </trkpt>
      <trkpt lat="44.62158" lon="0.84944">
        <ele>129</ele>
        <time>2018-03-03T17:42:16.511Z</time>
      </trkpt>
      <trkpt lat="44.62159" lon="0.8494">
        <ele>129</ele>
        <time>2018-03-03T17:42:17.511Z</time>
      </trkpt>
      <trkpt lat="44.62159" lon="0.84937">
        <ele>129</ele>
        <time>2018-03-03T17:42:18.511Z</time>
      </trkpt>
      <trkpt lat="44.62159" lon="0.84932">
        <ele>128</ele>
        <time>2018-03-03T17:42:19.511Z</time>
      </trkpt>
      <trkpt lat="44.62159" lon="0.84928">
        <ele>128</ele>
        <time>2018-03-03T17:42:20.511Z</time>
      </trkpt>
      <trkpt lat="44.62158" lon="0.84923">
        <ele>128</ele>
        <time>2018-03-03T17:42:21.511Z</time>
      </trkpt>
      <trkpt lat="44.62156" lon="0.84919">
        <ele>128</ele>
        <time>2018-03-03T17:42:22.511Z</time>
      </trkpt>
      <trkpt lat="44.62153" lon="0.84914">
        <ele>128</ele>
        <time>2018-03-03T17:42:23.511Z</time>
      </trkpt>
      <trkpt lat="44.62149" lon="0.8491">
        <ele>128</ele>
        <time>2018-03-03T17:42:24.511Z</time>
      </trkpt>
      <trkpt lat="44.62146" lon="0.84906">
        <ele>128</ele>
        <time>2018-03-03T17:42:25.511Z</time>
      </trkpt>
      <trkpt lat="44.62143" lon="0.84902">
        <ele>128</ele>
        <time>2018-03-03T17:42:26.511Z</time>
      </trkpt>
      <trkpt lat="44.6214" lon="0.84898">
        <ele>128</ele>
        <time>2018-03-03T17:42:27.511Z</time>
      </trkpt>
      <trkpt lat="44.62138" lon="0.84895">
        <ele>128</ele>
        <time>2018-03-03T17:42:28.511Z</time>
      </trkpt>
      <trkpt lat="44.62136" lon="0.84891">
        <ele>128</ele>
        <time>2018-03-03T17:42:29.511Z</time>
      </trkpt>
      <trkpt lat="44.62135" lon="0.84889">
        <ele>128</ele>
        <time>2018-03-03T17:42:30.511Z</time>
      </trkpt>
      <trkpt lat="44.62133" lon="0.84886">
        <ele>128</ele>
        <time>2018-03-03T17:42:31.511Z</time>
      </trkpt>
      <trkpt lat="44.62132" lon="0.84884">
        <ele>127</ele>
        <time>2018-03-03T17:42:32.511Z</time>
      </trkpt>
      <trkpt lat="44.62131" lon="0.84882">
        <ele>127</ele>
        <time>2018-03-03T17:42:33.511Z</time>
      </trkpt>
      <trkpt lat="44.6213" lon="0.84881">
        <ele>127</ele>
        <time>2018-03-03T17:42:34.511Z</time>
      </trkpt>
      <trkpt lat="44.6213" lon="0.84879">
        <ele>127</ele>
        <time>2018-03-03T17:42:35.511Z</time>
      </trkpt>
      <trkpt lat="44.62129" lon="0.84878">
        <ele>127</ele>
        <time>2018-03-03T17:42:36.511Z</time>
      </trkpt>
      <trkpt lat="44.62129" lon="0.84877">
        <ele>127</ele>
        <time>2018-03-03T17:42:37.511Z</time>
      </trkpt>
      <trkpt lat="44.62128" lon="0.84876">
        <ele>127</ele>
        <time>2018-03-03T17:42:38.511Z</time>
      </trkpt>
      <trkpt lat="44.62127" lon="0.84874">
        <ele>127</ele>
        <time>2018-03-03T17:42:39.511Z</time>
      </trkpt>
      <trkpt lat="44.62127" lon="0.84873">
        <ele>127</ele>
        <time>2018-03-03T17:42:40.511Z</time>
      </trkpt>
      <trkpt lat="44.62126" lon="0.84871">
        <ele>127</ele>
        <time>2018-03-03T17:42:41.511Z</time>
      </trkpt>
      <trkpt lat="44.62125" lon="0.84868">
        <ele>127</ele>
        <time>2018-03-03T17:42:42.511Z</time>
      </trkpt>
      <trkpt lat="44.62124" lon="0.84866">
        <ele>127</ele>
        <time>2018-03-03T17:42:43.511Z</time>
      </trkpt>
      <trkpt lat="44.62122" lon="0.84863">
        <ele>127</ele>
        <time>2018-03-03T17:42:44.511Z</time>
      </trkpt>
      <trkpt lat="44.62121" lon="0.8486">
        <ele>127</ele>
        <time>2018-03-03T17:42:45.511Z</time>
      </trkpt>
      <trkpt lat="44.62119" lon="0.84857">
        <ele>127</ele>
        <time>2018-03-03T17:42:46.511Z</time>
      </trkpt>
      <trkpt lat="44.62117" lon="0.84854">
        <ele>127</ele>
        <time>2018-03-03T17:42:47.511Z</time>
      </trkpt>
      <trkpt lat="44.62116" lon="0.8485">
        <ele>127</ele>
        <time>2018-03-03T17:42:48.511Z</time>
      </trkpt>
      <trkpt lat="44.62114" lon="0.84847">
        <ele>127</ele>
        <time>2018-03-03T17:42:49.511Z</time>
      </trkpt>
      <trkpt lat="44.62112" lon="0.84843">
        <ele>127</ele>
        <time>2018-03-03T17:42:50.511Z</time>
      </trkpt>
      <trkpt lat="44.6211" lon="0.8484">
        <ele>127</ele>
        <time>2018-03-03T17:42:51.511Z</time>
      </trkpt>
      <trkpt lat="44.62108" lon="0.84836">
        <ele>127</ele>
        <time>2018-03-03T17:42:52.511Z</time>
      </trkpt>
      <trkpt lat="44.62107" lon="0.84833">
        <ele>127</ele>
        <time>2018-03-03T17:42:53.511Z</time>
      </trkpt>
      <trkpt lat="44.62105" lon="0.8483">
        <ele>127</ele>
        <time>2018-03-03T17:42:54.511Z</time>
      </trkpt>
      <trkpt lat="44.62104" lon="0.84826">
        <ele>128</ele>
        <time>2018-03-03T17:42:55.511Z</time>
      </trkpt>
      <trkpt lat="44.62102" lon="0.84823">
        <ele>128</ele>
        <time>2018-03-03T17:42:56.511Z</time>
      </trkpt>
      <trkpt lat="44.62101" lon="0.8482">
        <ele>129</ele>
        <time>2018-03-03T17:42:57.511Z</time>
      </trkpt>
      <trkpt lat="44.62099" lon="0.84817">
        <ele>129</ele>
        <time>2018-03-03T17:42:58.511Z</time>
      </trkpt>
      <trkpt lat="44.62098" lon="0.84814">
        <ele>129</ele>
        <time>2018-03-03T17:42:59.511Z</time>
      </trkpt>
      <trkpt lat="44.62097" lon="0.84812">
        <ele>130</ele>
        <time>2018-03-03T17:43:00.511Z</time>
      </trkpt>
      <trkpt lat="44.62096" lon="0.84809">
        <ele>130</ele>
        <time>2018-03-03T17:43:01.511Z</time>
      </trkpt>
      <trkpt lat="44.62095" lon="0.84806">
        <ele>130</ele>
        <time>2018-03-03T17:43:02.511Z</time>
      </trkpt>
      <trkpt lat="44.62094" lon="0.84804">
        <ele>130</ele>
        <time>2018-03-03T17:43:03.511Z</time>
      </trkpt>
      <trkpt lat="44.62093" lon="0.84801">
        <ele>131</ele>
        <time>2018-03-03T17:43:04.511Z</time>
      </trkpt>
      <trkpt lat="44.62092" lon="0.84799">
        <ele>131</ele>
        <time>2018-03-03T17:43:05.511Z</time>
      </trkpt>
      <trkpt lat="44.62091" lon="0.84797">
        <ele>131</ele>
        <time>2018-03-03T17:43:06.511Z</time>
      </trkpt>
      <trkpt lat="44.62091" lon="0.84795">
        <ele>132</ele>
        <time>2018-03-03T17:43:07.511Z</time>
      </trkpt>
      <trkpt lat="44.6209" lon="0.84793">
        <ele>132</ele>
        <time>2018-03-03T17:43:08.511Z</time>
      </trkpt>
      <trkpt lat="44.6209" lon="0.84791">
        <ele>132</ele>
        <time>2018-03-03T17:43:09.511Z</time>
      </trkpt>
      <trkpt lat="44.62089" lon="0.84789">
        <ele>132</ele>
        <time>2018-03-03T17:43:10.511Z</time>
      </trkpt>
      <trkpt lat="44.62089" lon="0.84788">
        <ele>133</ele>
        <time>2018-03-03T17:43:11.511Z</time>
      </trkpt>
      <trkpt lat="44.62089" lon="0.84786">
        <ele>133</ele>
        <time>2018-03-03T17:43:12.511Z</time>
      </trkpt>
      <trkpt lat="44.62089" lon="0.84785">
        <ele>133</ele>
        <time>2018-03-03T17:43:13.511Z</time>
      </trkpt>
      <trkpt lat="44.62089" lon="0.84784">
        <ele>133</ele>
        <time>2018-03-03T17:43:14.511Z</time>
      </trkpt>
      <trkpt lat="44.62089" lon="0.84784">
        <ele>133</ele>
        <time>2018-03-03T17:43:15.511Z</time>
      </trkpt>
      <trkpt lat="44.62088" lon="0.84783">
        <ele>133</ele>
        <time>2018-03-03T17:43:16.511Z</time>
      </trkpt>
      <trkpt lat="44.62088" lon="0.84781">
        <ele>133</ele>
        <time>2018-03-03T17:43:17.511Z</time>
      </trkpt>
      <trkpt lat="44.62088" lon="0.84778">
        <ele>133</ele>
        <time>2018-03-03T17:43:18.511Z</time>
      </trkpt>
      <trkpt lat="44.62087" lon="0.84775">
        <ele>133</ele>
        <time>2018-03-03T17:43:19.511Z</time>
      </trkpt>
      <trkpt lat="44.62086" lon="0.84772">
        <ele>133</ele>
        <time>2018-03-03T17:43:20.511Z</time>
      </trkpt>
      <trkpt lat="44.62086" lon="0.8477">
        <ele>133</ele>
        <time>2018-03-03T17:43:21.511Z</time>
      </trkpt>
      <trkpt lat="44.62085" lon="0.84767">
        <ele>133</ele>
        <time>2018-03-03T17:43:22.511Z</time>
      </trkpt>
      <trkpt lat="44.62084" lon="0.84764">
        <ele>133</ele>
        <time>2018-03-03T17:43:23.511Z</time>
      </trkpt>
      <trkpt lat="44.62084" lon="0.84761">
        <ele>133</ele>
        <time>2018-03-03T17:43:24.511Z</time>
      </trkpt>
      <trkpt lat="44.62083" lon="0.84758">
        <ele>133</ele>
        <time>2018-03-03T17:43:25.511Z</time>
      </trkpt>
      <trkpt lat="44.62083" lon="0.84755">
        <ele>132</ele>
        <time>2018-03-03T17:43:26.511Z</time>
      </trkpt>
      <trkpt lat="44.62083" lon="0.84753">
        <ele>132</ele>
        <time>2018-03-03T17:43:27.511Z</time>
      </trkpt>
      <trkpt lat="44.62083" lon="0.84751">
        <ele>132</ele>
        <time>2018-03-03T17:43:28.511Z</time>
      </trkpt>
      <trkpt lat="44.62083" lon="0.84749">
        <ele>132</ele>
        <time>2018-03-03T17:43:29.511Z</time>
      </trkpt>
      <trkpt lat="44.62082" lon="0.84747">
        <ele>132</ele>
        <time>2018-03-03T17:43:30.511Z</time>
      </trkpt>
      <trkpt lat="44.62082" lon="0.84744">
        <ele>132</ele>
        <time>2018-03-03T17:43:31.511Z</time>
      </trkpt>
      <trkpt lat="44.62082" lon="0.84741">
        <ele>131</ele>
        <time>2018-03-03T17:43:32.511Z</time>
      </trkpt>
      <trkpt lat="44.62081" lon="0.84737">
        <ele>131</ele>
        <time>2018-03-03T17:43:33.511Z</time>
      </trkpt>
      <trkpt lat="44.6208" lon="0.84734">
        <ele>131</ele>
        <time>2018-03-03T17:43:34.511Z</time>
      </trkpt>
      <trkpt lat="44.62078" lon="0.84732">
        <ele>131</ele>
        <time>2018-03-03T17:43:35.511Z</time>
      </trkpt>
      <trkpt lat="44.62077" lon="0.8473">
        <ele>130</ele>
        <time>2018-03-03T17:43:36.511Z</time>
      </trkpt>
      <trkpt lat="44.62076" lon="0.84729">
        <ele>130</ele>
        <time>2018-03-03T17:43:37.511Z</time>
      </trkpt>
      <trkpt lat="44.62074" lon="0.84728">
        <ele>130</ele>
        <time>2018-03-03T17:43:38.511Z</time>
      </trkpt>
      <trkpt lat="44.62072" lon="0.84728">
        <ele>130</ele>
        <time>2018-03-03T17:43:39.511Z</time>
      </trkpt>
      <trkpt lat="44.6207" lon="0.84728">
        <ele>130</ele>
        <time>2018-03-03T17:43:40.511Z</time>
      </trkpt>
      <trkpt lat="44.62068" lon="0.84727">
        <ele>130</ele>
        <time>2018-03-03T17:43:41.511Z</time>
      </trkpt>
      <trkpt lat="44.62066" lon="0.84726">
        <ele>130</ele>
        <time>2018-03-03T17:43:42.511Z</time>
      </trkpt>
      <trkpt lat="44.62064" lon="0.84726">
        <ele>130</ele>
        <time>2018-03-03T17:43:43.511Z</time>
      </trkpt>
      <trkpt lat="44.62062" lon="0.84725">
        <ele>130</ele>
        <time>2018-03-03T17:43:44.511Z</time>
      </trkpt>
      <trkpt lat="44.62061" lon="0.84723">
        <ele>130</ele>
        <time>2018-03-03T17:43:45.511Z</time>
      </trkpt>
      <trkpt lat="44.62059" lon="0.84722">
        <ele>130</ele>
        <time>2018-03-03T17:43:46.511Z</time>
      </trkpt>
      <trkpt lat="44.62057" lon="0.84721">
        <ele>130</ele>
        <time>2018-03-03T17:43:47.511Z</time>
      </trkpt>
      <trkpt lat="44.62055" lon="0.8472">
        <ele>130</ele>
        <time>2018-03-03T17:43:48.511Z</time>
      </trkpt>
      <trkpt lat="44.62054" lon="0.84719">
        <ele>130</ele>
        <time>2018-03-03T17:43:49.511Z</time>
      </trkpt>
      <trkpt lat="44.62052" lon="0.84718">
        <ele>130</ele>
        <time>2018-03-03T17:43:50.511Z</time>
      </trkpt>
      <trkpt lat="44.62051" lon="0.84716">
        <ele>130</ele>
        <time>2018-03-03T17:43:51.511Z</time>
      </trkpt>
      <trkpt lat="44.6205" lon="0.84716">
        <ele>130</ele>
        <time>2018-03-03T17:43:52.511Z</time>
      </trkpt>
      <trkpt lat="44.62049" lon="0.84715">
        <ele>131</ele>
        <time>2018-03-03T17:43:53.511Z</time>
      </trkpt>
      <trkpt lat="44.62049" lon="0.84715">
        <ele>131</ele>
        <time>2018-03-03T17:43:54.511Z</time>
      </trkpt>
      <trkpt lat="44.62049" lon="0.84715">
        <ele>131</ele>
        <time>2018-03-03T17:43:55.511Z</time>
      </trkpt>
      <trkpt lat="44.62048" lon="0.84715">
        <ele>131</ele>
        <time>2018-03-03T17:43:56.511Z</time>
      </trkpt>
      <trkpt lat="44.62048" lon="0.84715">
        <ele>131</ele>
        <time>2018-03-03T17:43:57.511Z</time>
      </trkpt>
      <trkpt lat="44.62048" lon="0.84716">
        <ele>131</ele>
        <time>2018-03-03T17:43:58.511Z</time>
      </trkpt>
      <trkpt lat="44.62048" lon="0.84716">
        <ele>131</ele>
        <time>2018-03-03T17:43:59.511Z</time>
      </trkpt>
      <trkpt lat="44.62048" lon="0.84716">
        <ele>131</ele>
        <time>2018-03-03T17:44:00.511Z</time>
      </trkpt>
      <trkpt lat="44.62047" lon="0.84717">
        <ele>131</ele>
        <time>2018-03-03T17:44:01.511Z</time>
      </trkpt>
      <trkpt lat="44.62045" lon="0.8472">
        <ele>131</ele>
        <time>2018-03-03T17:44:02.511Z</time>
      </trkpt>
      <trkpt lat="44.62044" lon="0.84723">
        <ele>131</ele>
        <time>2018-03-03T17:44:03.511Z</time>
      </trkpt>
      <trkpt lat="44.62044" lon="0.84726">
        <ele>131</ele>
        <time>2018-03-03T17:44:04.511Z</time>
      </trkpt>
      <trkpt lat="44.62043" lon="0.84729">
        <ele>131</ele>
        <time>2018-03-03T17:44:05.511Z</time>
      </trkpt>
      <trkpt lat="44.62043" lon="0.84732">
        <ele>131</ele>
        <time>2018-03-03T17:44:06.511Z</time>
      </trkpt>
      <trkpt lat="44.62043" lon="0.84735">
        <ele>131</ele>
        <time>2018-03-03T17:44:07.511Z</time>
      </trkpt>
      <trkpt lat="44.62043" lon="0.84738">
        <ele>131</ele>
        <time>2018-03-03T17:44:08.511Z</time>
      </trkpt>
      <trkpt lat="44.62042" lon="0.8474">
        <ele>131</ele>
        <time>2018-03-03T17:44:09.511Z</time>
      </trkpt>
      <trkpt lat="44.62042" lon="0.84743">
        <ele>131</ele>
        <time>2018-03-03T17:44:10.511Z</time>
      </trkpt>
      <trkpt lat="44.62041" lon="0.84746">
        <ele>132</ele>
        <time>2018-03-03T17:44:11.511Z</time>
      </trkpt>
      <trkpt lat="44.62041" lon="0.84748">
        <ele>132</ele>
        <time>2018-03-03T17:44:12.511Z</time>
      </trkpt>
      <trkpt lat="44.6204" lon="0.84751">
        <ele>132</ele>
        <time>2018-03-03T17:44:13.511Z</time>
      </trkpt>
      <trkpt lat="44.62039" lon="0.84753">
        <ele>132</ele>
        <time>2018-03-03T17:44:14.511Z</time>
      </trkpt>
      <trkpt lat="44.62039" lon="0.84756">
        <ele>132</ele>
        <time>2018-03-03T17:44:15.511Z</time>
      </trkpt>
      <trkpt lat="44.62038" lon="0.84758">
        <ele>132</ele>
        <time>2018-03-03T17:44:16.511Z</time>
      </trkpt>
      <trkpt lat="44.62037" lon="0.84761">
        <ele>133</ele>
        <time>2018-03-03T17:44:17.511Z</time>
      </trkpt>
      <trkpt lat="44.62037" lon="0.84763">
        <ele>133</ele>
        <time>2018-03-03T17:44:18.511Z</time>
      </trkpt>
      <trkpt lat="44.62036" lon="0.84765">
        <ele>133</ele>
        <time>2018-03-03T17:44:19.511Z</time>
      </trkpt>
      <trkpt lat="44.62035" lon="0.84768">
        <ele>133</ele>
        <time>2018-03-03T17:44:20.511Z</time>
      </trkpt>
      <trkpt lat="44.62035" lon="0.8477">
        <ele>134</ele>
        <time>2018-03-03T17:44:21.511Z</time>
      </trkpt>
      <trkpt lat="44.62034" lon="0.84772">
        <ele>134</ele>
        <time>2018-03-03T17:44:22.511Z</time>
      </trkpt>
      <trkpt lat="44.62034" lon="0.84774">
        <ele>134</ele>
        <time>2018-03-03T17:44:23.511Z</time>
      </trkpt>
      <trkpt lat="44.62034" lon="0.84776">
        <ele>134</ele>
        <time>2018-03-03T17:44:24.511Z</time>
      </trkpt>
      <trkpt lat="44.62033" lon="0.84778">
        <ele>135</ele>
        <time>2018-03-03T17:44:25.511Z</time>
      </trkpt>
      <trkpt lat="44.62033" lon="0.8478">
        <ele>135</ele>
        <time>2018-03-03T17:44:26.511Z</time>
      </trkpt>
      <trkpt lat="44.62033" lon="0.84782">
        <ele>135</ele>
        <time>2018-03-03T17:44:27.511Z</time>
      </trkpt>
      <trkpt lat="44.62033" lon="0.84784">
        <ele>135</ele>
        <time>2018-03-03T17:44:28.511Z</time>
      </trkpt>
      <trkpt lat="44.62033" lon="0.84786">
        <ele>136</ele>
        <time>2018-03-03T17:44:29.511Z</time>
      </trkpt>
      <trkpt lat="44.62034" lon="0.84788">
        <ele>136</ele>
        <time>2018-03-03T17:44:30.511Z</time>
      </trkpt>
      <trkpt lat="44.62034" lon="0.8479">
        <ele>136</ele>
        <time>2018-03-03T17:44:31.511Z</time>
      </trkpt>
      <trkpt lat="44.62035" lon="0.84792">
        <ele>136</ele>
        <time>2018-03-03T17:44:32.511Z</time>
      </trkpt>
      <trkpt lat="44.62035" lon="0.84794">
        <ele>137</ele>
        <time>2018-03-03T17:44:33.511Z</time>
      </trkpt>
      <trkpt lat="44.62036" lon="0.84796">
        <ele>137</ele>
        <time>2018-03-03T17:44:34.511Z</time>
      </trkpt>
      <trkpt lat="44.62037" lon="0.84797">
        <ele>137</ele>
        <time>2018-03-03T17:44:35.511Z</time>
      </trkpt>
      <trkpt lat="44.62037" lon="0.84799">
        <ele>137</ele>
        <time>2018-03-03T17:44:36.511Z</time>
      </trkpt>
      <trkpt lat="44.62038" lon="0.84801">
        <ele>138</ele>
        <time>2018-03-03T17:44:37.511Z</time>
      </trkpt>
      <trkpt lat="44.62039" lon="0.84803">
        <ele>138</ele>
        <time>2018-03-03T17:44:38.511Z</time>
      </trkpt>
      <trkpt lat="44.6204" lon="0.84804">
        <ele>138</ele>
        <time>2018-03-03T17:44:39.511Z</time>
      </trkpt>
      <trkpt lat="44.6204" lon="0.84806">
        <ele>139</ele>
        <time>2018-03-03T17:44:40.511Z</time>
      </trkpt>
      <trkpt lat="44.62041" lon="0.84808">
        <ele>139</ele>
        <time>2018-03-03T17:44:41.511Z</time>
      </trkpt>
      <trkpt lat="44.62042" lon="0.84809">
        <ele>139</ele>
        <time>2018-03-03T17:44:42.511Z</time>
      </trkpt>
      <trkpt lat="44.62043" lon="0.84811">
        <ele>139</ele>
        <time>2018-03-03T17:44:43.511Z</time>
      </trkpt>
      <trkpt lat="44.62043" lon="0.84813">
        <ele>140</ele>
        <time>2018-03-03T17:44:44.511Z</time>
      </trkpt>
      <trkpt lat="44.62044" lon="0.84815">
        <ele>140</ele>
        <time>2018-03-03T17:44:45.511Z</time>
      </trkpt>
      <trkpt lat="44.62045" lon="0.84816">
        <ele>140</ele>
        <time>2018-03-03T17:44:46.511Z</time>
      </trkpt>
      <trkpt lat="44.62045" lon="0.84818">
        <ele>140</ele>
        <time>2018-03-03T17:44:47.511Z</time>
      </trkpt>
      <trkpt lat="44.62046" lon="0.8482">
        <ele>140</ele>
        <time>2018-03-03T17:44:48.511Z</time>
      </trkpt>
      <trkpt lat="44.62047" lon="0.84822">
        <ele>141</ele>
        <time>2018-03-03T17:44:49.511Z</time>
      </trkpt>
      <trkpt lat="44.62047" lon="0.84824">
        <ele>141</ele>
        <time>2018-03-03T17:44:50.511Z</time>
      </trkpt>
      <trkpt lat="44.62048" lon="0.84825">
        <ele>141</ele>
        <time>2018-03-03T17:44:51.511Z</time>
      </trkpt>
      <trkpt lat="44.62049" lon="0.84827">
        <ele>141</ele>
        <time>2018-03-03T17:44:52.511Z</time>
      </trkpt>
      <trkpt lat="44.6205" lon="0.84828">
        <ele>141</ele>
        <time>2018-03-03T17:44:53.511Z</time>
      </trkpt>
      <trkpt lat="44.6205" lon="0.8483">
        <ele>142</ele>
        <time>2018-03-03T17:44:54.511Z</time>
      </trkpt>
      <trkpt lat="44.62051" lon="0.84832">
        <ele>142</ele>
        <time>2018-03-03T17:44:55.511Z</time>
      </trkpt>
      <trkpt lat="44.62051" lon="0.84833">
        <ele>142</ele>
        <time>2018-03-03T17:44:56.511Z</time>
      </trkpt>
      <trkpt lat="44.62051" lon="0.84835">
        <ele>142</ele>
        <time>2018-03-03T17:44:57.511Z</time>
      </trkpt>
      <trkpt lat="44.62052" lon="0.84837">
        <ele>142</ele>
        <time>2018-03-03T17:44:58.511Z</time>
      </trkpt>
      <trkpt lat="44.62052" lon="0.84839">
        <ele>142</ele>
        <time>2018-03-03T17:44:59.511Z</time>
      </trkpt>
      <trkpt lat="44.62053" lon="0.84841">
        <ele>142</ele>
        <time>2018-03-03T17:45:00.511Z</time>
      </trkpt>
      <trkpt lat="44.62054" lon="0.84843">
        <ele>142</ele>
        <time>2018-03-03T17:45:01.511Z</time>
      </trkpt>
      <trkpt lat="44.62055" lon="0.84846">
        <ele>142</ele>
        <time>2018-03-03T17:45:02.511Z</time>
      </trkpt>
      <trkpt lat="44.62057" lon="0.84848">
        <ele>142</ele>
        <time>2018-03-03T17:45:03.511Z</time>
      </trkpt>
      <trkpt lat="44.62058" lon="0.84851">
        <ele>142</ele>
        <time>2018-03-03T17:45:04.511Z</time>
      </trkpt>
      <trkpt lat="44.6206" lon="0.84854">
        <ele>142</ele>
        <time>2018-03-03T17:45:05.511Z</time>
      </trkpt>
      <trkpt lat="44.62061" lon="0.84858">
        <ele>142</ele>
        <time>2018-03-03T17:45:06.511Z</time>
      </trkpt>
      <trkpt lat="44.62062" lon="0.84861">
        <ele>142</ele>
        <time>2018-03-03T17:45:07.511Z</time>
      </trkpt>
      <trkpt lat="44.62063" lon="0.84865">
        <ele>142</ele>
        <time>2018-03-03T17:45:08.511Z</time>
      </trkpt>
      <trkpt lat="44.62064" lon="0.84868">
        <ele>142</ele>
        <time>2018-03-03T17:45:09.511Z</time>
      </trkpt>
      <trkpt lat="44.62065" lon="0.84872">
        <ele>142</ele>
        <time>2018-03-03T17:45:10.511Z</time>
      </trkpt>
      <trkpt lat="44.62065" lon="0.84875">
        <ele>142</ele>
        <time>2018-03-03T17:45:11.511Z</time>
      </trkpt>
      <trkpt lat="44.62066" lon="0.84879">
        <ele>142</ele>
        <time>2018-03-03T17:45:12.511Z</time>
      </trkpt>
      <trkpt lat="44.62066" lon="0.84882">
        <ele>142</ele>
        <time>2018-03-03T17:45:13.511Z</time>
      </trkpt>
      <trkpt lat="44.62067" lon="0.84885">
        <ele>142</ele>
        <time>2018-03-03T17:45:14.511Z</time>
      </trkpt>
      <trkpt lat="44.62067" lon="0.84888">
        <ele>142</ele>
        <time>2018-03-03T17:45:15.511Z</time>
      </trkpt>
      <trkpt lat="44.62067" lon="0.84891">
        <ele>142</ele>
        <time>2018-03-03T17:45:16.511Z</time>
      </trkpt>
      <trkpt lat="44.62068" lon="0.84894">
        <ele>142</ele>
        <time>2018-03-03T17:45:17.511Z</time>
      </trkpt>
      <trkpt lat="44.62068" lon="0.84897">
        <ele>142</ele>
        <time>2018-03-03T17:45:18.511Z</time>
      </trkpt>
      <trkpt lat="44.62068" lon="0.84899">
        <ele>143</ele>
        <time>2018-03-03T17:45:19.511Z</time>
      </trkpt>
      <trkpt lat="44.62068" lon="0.84902">
        <ele>143</ele>
        <time>2018-03-03T17:45:20.511Z</time>
      </trkpt>
      <trkpt lat="44.62068" lon="0.84904">
        <ele>143</ele>
        <time>2018-03-03T17:45:21.511Z</time>
      </trkpt>
      <trkpt lat="44.62068" lon="0.84907">
        <ele>143</ele>
        <time>2018-03-03T17:45:22.511Z</time>
      </trkpt>
      <trkpt lat="44.62068" lon="0.8491">
        <ele>143</ele>
        <time>2018-03-03T17:45:23.511Z</time>
      </trkpt>
      <trkpt lat="44.62068" lon="0.84913">
        <ele>143</ele>
        <time>2018-03-03T17:45:24.511Z</time>
      </trkpt>
      <trkpt lat="44.62068" lon="0.84916">
        <ele>143</ele>
        <time>2018-03-03T17:45:25.511Z</time>
      </trkpt>
      <trkpt lat="44.62068" lon="0.84919">
        <ele>143</ele>
        <time>2018-03-03T17:45:26.511Z</time>
      </trkpt>
      <trkpt lat="44.62068" lon="0.84922">
        <ele>143</ele>
        <time>2018-03-03T17:45:27.511Z</time>
      </trkpt>
      <trkpt lat="44.62068" lon="0.84925">
        <ele>143</ele>
        <time>2018-03-03T17:45:28.511Z</time>
      </trkpt>
      <trkpt lat="44.62068" lon="0.84928">
        <ele>143</ele>
        <time>2018-03-03T17:45:29.511Z</time>
      </trkpt>
      <trkpt lat="44.62068" lon="0.84931">
        <ele>143</ele>
        <time>2018-03-03T17:45:30.511Z</time>
      </trkpt>
      <trkpt lat="44.62068" lon="0.84935">
        <ele>143</ele>
        <time>2018-03-03T17:45:31.511Z</time>
      </trkpt>
      <trkpt lat="44.62068" lon="0.84938">
        <ele>143</ele>
        <time>2018-03-03T17:45:32.511Z</time>
      </trkpt>
      <trkpt lat="44.62068" lon="0.84942">
        <ele>143</ele>
        <time>2018-03-03T17:45:33.511Z</time>
      </trkpt>
      <trkpt lat="44.62069" lon="0.84945">
        <ele>144</ele>
        <time>2018-03-03T17:45:34.511Z</time>
      </trkpt>
      <trkpt lat="44.62069" lon="0.84949">
        <ele>144</ele>
        <time>2018-03-03T17:45:35.511Z</time>
      </trkpt>
      <trkpt lat="44.62069" lon="0.84953">
        <ele>144</ele>
        <time>2018-03-03T17:45:36.511Z</time>
      </trkpt>
      <trkpt lat="44.62069" lon="0.84956">
        <ele>144</ele>
        <time>2018-03-03T17:45:37.511Z</time>
      </trkpt>
      <trkpt lat="44.62069" lon="0.8496">
        <ele>144</ele>
        <time>2018-03-03T17:45:38.511Z</time>
      </trkpt>
      <trkpt lat="44.62069" lon="0.84964">
        <ele>144</ele>
        <time>2018-03-03T17:45:39.511Z</time>
      </trkpt>
      <trkpt lat="44.62069" lon="0.84967">
        <ele>144</ele>
        <time>2018-03-03T17:45:40.511Z</time>
      </trkpt>
      <trkpt lat="44.62069" lon="0.84971">
        <ele>145</ele>
        <time>2018-03-03T17:45:41.511Z</time>
      </trkpt>
      <trkpt lat="44.62069" lon="0.84975">
        <ele>145</ele>
        <time>2018-03-03T17:45:42.511Z</time>
      </trkpt>
      <trkpt lat="44.62069" lon="0.84978">
        <ele>145</ele>
        <time>2018-03-03T17:45:43.511Z</time>
      </trkpt>
      <trkpt lat="44.62068" lon="0.84982">
        <ele>145</ele>
        <time>2018-03-03T17:45:44.511Z</time>
      </trkpt>
      <trkpt lat="44.62068" lon="0.84986">
        <ele>145</ele>
        <time>2018-03-03T17:45:45.511Z</time>
      </trkpt>
      <trkpt lat="44.62068" lon="0.84989">
        <ele>145</ele>
        <time>2018-03-03T17:45:46.511Z</time>
      </trkpt>
      <trkpt lat="44.62067" lon="0.84993">
        <ele>145</ele>
        <time>2018-03-03T17:45:47.511Z</time>
      </trkpt>
      <trkpt lat="44.62067" lon="0.84997">
        <ele>145</ele>
        <time>2018-03-03T17:45:48.511Z</time>
      </trkpt>
      <trkpt lat="44.62066" lon="0.85002">
        <ele>144</ele>
        <time>2018-03-03T17:45:49.511Z</time>
      </trkpt>
      <trkpt lat="44.62065" lon="0.85007">
        <ele>144</ele>
        <time>2018-03-03T17:45:50.511Z</time>
      </trkpt>
      <trkpt lat="44.62064" lon="0.85011">
        <ele>144</ele>
        <time>2018-03-03T17:45:51.511Z</time>
      </trkpt>
      <trkpt lat="44.62062" lon="0.85016">
        <ele>144</ele>
        <time>2018-03-03T17:45:52.511Z</time>
      </trkpt>
      <trkpt lat="44.6206" lon="0.85022">
        <ele>144</ele>
        <time>2018-03-03T17:45:53.511Z</time>
      </trkpt>
      <trkpt lat="44.62058" lon="0.85027">
        <ele>143</ele>
        <time>2018-03-03T17:45:54.511Z</time>
      </trkpt>
      <trkpt lat="44.62055" lon="0.85032">
        <ele>143</ele>
        <time>2018-03-03T17:45:55.511Z</time>
      </trkpt>
      <trkpt lat="44.62053" lon="0.85038">
        <ele>143</ele>
        <time>2018-03-03T17:45:56.511Z</time>
      </trkpt>
      <trkpt lat="44.62051" lon="0.85043">
        <ele>143</ele>
        <time>2018-03-03T17:45:57.511Z</time>
      </trkpt>
      <trkpt lat="44.62049" lon="0.85049">
        <ele>143</ele>
        <time>2018-03-03T17:45:58.511Z</time>
      </trkpt>
      <trkpt lat="44.62047" lon="0.85055">
        <ele>143</ele>
        <time>2018-03-03T17:45:59.511Z</time>
      </trkpt>
      <trkpt lat="44.62046" lon="0.85061">
        <ele>143</ele>
        <time>2018-03-03T17:46:00.511Z</time>
      </trkpt>
      <trkpt lat="44.62045" lon="0.85066">
        <ele>143</ele>
        <time>2018-03-03T17:46:01.511Z</time>
      </trkpt>
      <trkpt lat="44.62044" lon="0.85071">
        <ele>143</ele>
        <time>2018-03-03T17:46:02.511Z</time>
      </trkpt>
      <trkpt lat="44.62042" lon="0.85076">
        <ele>143</ele>
        <time>2018-03-03T17:46:03.511Z</time>
      </trkpt>
      <trkpt lat="44.62041" lon="0.85081">
        <ele>143</ele>
        <time>2018-03-03T17:46:04.511Z</time>
      </trkpt>
      <trkpt lat="44.6204" lon="0.85086">
        <ele>144</ele>
        <time>2018-03-03T17:46:05.511Z</time>
      </trkpt>
      <trkpt lat="44.62039" lon="0.85091">
        <ele>144</ele>
        <time>2018-03-03T17:46:06.511Z</time>
      </trkpt>
      <trkpt lat="44.62038" lon="0.85095">
        <ele>144</ele>
        <time>2018-03-03T17:46:07.511Z</time>
      </trkpt>
      <trkpt lat="44.62036" lon="0.851">
        <ele>144</ele>
        <time>2018-03-03T17:46:08.511Z</time>
      </trkpt>
      <trkpt lat="44.62035" lon="0.85104">
        <ele>144</ele>
        <time>2018-03-03T17:46:09.511Z</time>
      </trkpt>
      <trkpt lat="44.62033" lon="0.85108">
        <ele>144</ele>
        <time>2018-03-03T17:46:10.511Z</time>
      </trkpt>
      <trkpt lat="44.62031" lon="0.85112">
        <ele>144</ele>
        <time>2018-03-03T17:46:11.511Z</time>
      </trkpt>
      <trkpt lat="44.62028" lon="0.85116">
        <ele>144</ele>
        <time>2018-03-03T17:46:12.511Z</time>
      </trkpt>
      <trkpt lat="44.62026" lon="0.85121">
        <ele>144</ele>
        <time>2018-03-03T17:46:13.511Z</time>
      </trkpt>
      <trkpt lat="44.62023" lon="0.85125">
        <ele>144</ele>
        <time>2018-03-03T17:46:14.511Z</time>
      </trkpt>
      <trkpt lat="44.6202" lon="0.85129">
        <ele>144</ele>
        <time>2018-03-03T17:46:15.511Z</time>
      </trkpt>
      <trkpt lat="44.62017" lon="0.85133">
        <ele>144</ele>
        <time>2018-03-03T17:46:16.511Z</time>
      </trkpt>
      <trkpt lat="44.62015" lon="0.85137">
        <ele>144</ele>
        <time>2018-03-03T17:46:17.511Z</time>
      </trkpt>
      <trkpt lat="44.62012" lon="0.85141">
        <ele>143</ele>
        <time>2018-03-03T17:46:18.511Z</time>
      </trkpt>
      <trkpt lat="44.6201" lon="0.85145">
        <ele>143</ele>
        <time>2018-03-03T17:46:19.511Z</time>
      </trkpt>
      <trkpt lat="44.62007" lon="0.85148">
        <ele>144</ele>
        <time>2018-03-03T17:46:20.511Z</time>
      </trkpt>
      <trkpt lat="44.62006" lon="0.85152">
        <ele>143</ele>
        <time>2018-03-03T17:46:21.511Z</time>
      </trkpt>
      <trkpt lat="44.62004" lon="0.85156">
        <ele>144</ele>
        <time>2018-03-03T17:46:22.511Z</time>
      </trkpt>
      <trkpt lat="44.62003" lon="0.8516">
        <ele>143</ele>
        <time>2018-03-03T17:46:23.511Z</time>
      </trkpt>
      <trkpt lat="44.62002" lon="0.85163">
        <ele>144</ele>
        <time>2018-03-03T17:46:24.511Z</time>
      </trkpt>
      <trkpt lat="44.62002" lon="0.85167">
        <ele>144</ele>
        <time>2018-03-03T17:46:25.511Z</time>
      </trkpt>
      <trkpt lat="44.62002" lon="0.85171">
        <ele>144</ele>
        <time>2018-03-03T17:46:26.511Z</time>
      </trkpt>
      <trkpt lat="44.62002" lon="0.85176">
        <ele>144</ele>
        <time>2018-03-03T17:46:27.511Z</time>
      </trkpt>
      <trkpt lat="44.62002" lon="0.8518">
        <ele>144</ele>
        <time>2018-03-03T17:46:28.511Z</time>
      </trkpt>
      <trkpt lat="44.62001" lon="0.85184">
        <ele>144</ele>
        <time>2018-03-03T17:46:29.511Z</time>
      </trkpt>
      <trkpt lat="44.62001" lon="0.85188">
        <ele>144</ele>
        <time>2018-03-03T17:46:30.511Z</time>
      </trkpt>
      <trkpt lat="44.61999" lon="0.85192">
        <ele>144</ele>
        <time>2018-03-03T17:46:31.511Z</time>
      </trkpt>
      <trkpt lat="44.61997" lon="0.85195">
        <ele>144</ele>
        <time>2018-03-03T17:46:32.511Z</time>
      </trkpt>
      <trkpt lat="44.61995" lon="0.85199">
        <ele>144</ele>
        <time>2018-03-03T17:46:33.511Z</time>
      </trkpt>
      <trkpt lat="44.61992" lon="0.85202">
        <ele>144</ele>
        <time>2018-03-03T17:46:34.511Z</time>
      </trkpt>
      <trkpt lat="44.6199" lon="0.85205">
        <ele>144</ele>
        <time>2018-03-03T17:46:35.511Z</time>
      </trkpt>
      <trkpt lat="44.61987" lon="0.85208">
        <ele>145</ele>
        <time>2018-03-03T17:46:36.511Z</time>
      </trkpt>
      <trkpt lat="44.61985" lon="0.85211">
        <ele>145</ele>
        <time>2018-03-03T17:46:37.511Z</time>
      </trkpt>
      <trkpt lat="44.61982" lon="0.85214">
        <ele>145</ele>
        <time>2018-03-03T17:46:38.511Z</time>
      </trkpt>
      <trkpt lat="44.6198" lon="0.85217">
        <ele>145</ele>
        <time>2018-03-03T17:46:39.511Z</time>
      </trkpt>
      <trkpt lat="44.61978" lon="0.85219">
        <ele>145</ele>
        <time>2018-03-03T17:46:40.511Z</time>
      </trkpt>
      <trkpt lat="44.61977" lon="0.85222">
        <ele>145</ele>
        <time>2018-03-03T17:46:41.511Z</time>
      </trkpt>
      <trkpt lat="44.61975" lon="0.85224">
        <ele>145</ele>
        <time>2018-03-03T17:46:42.511Z</time>
      </trkpt>
      <trkpt lat="44.61974" lon="0.85227">
        <ele>145</ele>
        <time>2018-03-03T17:46:43.511Z</time>
      </trkpt>
      <trkpt lat="44.61972" lon="0.8523">
        <ele>145</ele>
        <time>2018-03-03T17:46:44.511Z</time>
      </trkpt>
      <trkpt lat="44.61971" lon="0.85232">
        <ele>145</ele>
        <time>2018-03-03T17:46:45.511Z</time>
      </trkpt>
      <trkpt lat="44.6197" lon="0.85235">
        <ele>145</ele>
        <time>2018-03-03T17:46:46.511Z</time>
      </trkpt>
      <trkpt lat="44.61968" lon="0.85238">
        <ele>145</ele>
        <time>2018-03-03T17:46:47.511Z</time>
      </trkpt>
      <trkpt lat="44.61966" lon="0.85241">
        <ele>145</ele>
        <time>2018-03-03T17:46:48.511Z</time>
      </trkpt>
      <trkpt lat="44.61965" lon="0.85245">
        <ele>145</ele>
        <time>2018-03-03T17:46:49.511Z</time>
      </trkpt>
      <trkpt lat="44.61963" lon="0.85249">
        <ele>145</ele>
        <time>2018-03-03T17:46:50.511Z</time>
      </trkpt>
      <trkpt lat="44.6196" lon="0.85252">
        <ele>145</ele>
        <time>2018-03-03T17:46:51.511Z</time>
      </trkpt>
      <trkpt lat="44.61958" lon="0.85256">
        <ele>145</ele>
        <time>2018-03-03T17:46:52.511Z</time>
      </trkpt>
      <trkpt lat="44.61955" lon="0.8526">
        <ele>145</ele>
        <time>2018-03-03T17:46:53.511Z</time>
      </trkpt>
      <trkpt lat="44.61953" lon="0.85263">
        <ele>145</ele>
        <time>2018-03-03T17:46:54.511Z</time>
      </trkpt>
      <trkpt lat="44.61951" lon="0.85266">
        <ele>145</ele>
        <time>2018-03-03T17:46:55.511Z</time>
      </trkpt>
      <trkpt lat="44.61948" lon="0.85269">
        <ele>145</ele>
        <time>2018-03-03T17:46:56.511Z</time>
      </trkpt>
      <trkpt lat="44.61946" lon="0.85272">
        <ele>145</ele>
        <time>2018-03-03T17:46:57.511Z</time>
      </trkpt>
      <trkpt lat="44.61943" lon="0.85275">
        <ele>145</ele>
        <time>2018-03-03T17:46:58.511Z</time>
      </trkpt>
      <trkpt lat="44.61941" lon="0.85278">
        <ele>145</ele>
        <time>2018-03-03T17:46:59.511Z</time>
      </trkpt>
      <trkpt lat="44.61938" lon="0.85281">
        <ele>145</ele>
        <time>2018-03-03T17:47:00.511Z</time>
      </trkpt>
      <trkpt lat="44.61936" lon="0.85284">
        <ele>145</ele>
        <time>2018-03-03T17:47:01.511Z</time>
      </trkpt>
      <trkpt lat="44.61933" lon="0.85288">
        <ele>144</ele>
        <time>2018-03-03T17:47:02.511Z</time>
      </trkpt>
      <trkpt lat="44.61931" lon="0.85291">
        <ele>144</ele>
        <time>2018-03-03T17:47:03.511Z</time>
      </trkpt>
      <trkpt lat="44.61928" lon="0.85295">
        <ele>144</ele>
        <time>2018-03-03T17:47:04.511Z</time>
      </trkpt>
      <trkpt lat="44.61926" lon="0.85298">
        <ele>144</ele>
        <time>2018-03-03T17:47:05.511Z</time>
      </trkpt>
      <trkpt lat="44.61923" lon="0.85301">
        <ele>144</ele>
        <time>2018-03-03T17:47:06.511Z</time>
      </trkpt>
      <trkpt lat="44.61921" lon="0.85303">
        <ele>144</ele>
        <time>2018-03-03T17:47:07.511Z</time>
      </trkpt>
      <trkpt lat="44.61919" lon="0.85306">
        <ele>144</ele>
        <time>2018-03-03T17:47:08.511Z</time>
      </trkpt>
      <trkpt lat="44.61917" lon="0.85308">
        <ele>144</ele>
        <time>2018-03-03T17:47:09.511Z</time>
      </trkpt>
      <trkpt lat="44.61914" lon="0.85313">
        <ele>144</ele>
        <time>2018-03-03T17:47:10.511Z</time>
      </trkpt>
      <trkpt lat="44.61911" lon="0.85319">
        <ele>144</ele>
        <time>2018-03-03T17:47:11.511Z</time>
      </trkpt>
      <trkpt lat="44.61908" lon="0.85325">
        <ele>143</ele>
        <time>2018-03-03T17:47:12.511Z</time>
      </trkpt>
      <trkpt lat="44.61905" lon="0.85331">
        <ele>143</ele>
        <time>2018-03-03T17:47:13.511Z</time>
      </trkpt>
      <trkpt lat="44.61903" lon="0.85337">
        <ele>143</ele>
        <time>2018-03-03T17:47:14.511Z</time>
      </trkpt>
      <trkpt lat="44.61901" lon="0.85342">
        <ele>144</ele>
        <time>2018-03-03T17:47:15.511Z</time>
      </trkpt>
      <trkpt lat="44.61899" lon="0.85347">
        <ele>144</ele>
        <time>2018-03-03T17:47:16.511Z</time>
      </trkpt>
      <trkpt lat="44.61898" lon="0.85352">
        <ele>144</ele>
        <time>2018-03-03T17:47:17.511Z</time>
      </trkpt>
      <trkpt lat="44.61896" lon="0.85357">
        <ele>144</ele>
        <time>2018-03-03T17:47:18.511Z</time>
      </trkpt>
      <trkpt lat="44.61893" lon="0.85362">
        <ele>144</ele>
        <time>2018-03-03T17:47:19.511Z</time>
      </trkpt>
      <trkpt lat="44.61891" lon="0.85367">
        <ele>144</ele>
        <time>2018-03-03T17:47:20.511Z</time>
      </trkpt>
      <trkpt lat="44.61888" lon="0.85372">
        <ele>144</ele>
        <time>2018-03-03T17:47:21.511Z</time>
      </trkpt>
      <trkpt lat="44.61885" lon="0.85378">
        <ele>144</ele>
        <time>2018-03-03T17:47:22.511Z</time>
      </trkpt>
      <trkpt lat="44.61883" lon="0.85384">
        <ele>143</ele>
        <time>2018-03-03T17:47:23.511Z</time>
      </trkpt>
      <trkpt lat="44.6188" lon="0.85391">
        <ele>143</ele>
        <time>2018-03-03T17:47:24.511Z</time>
      </trkpt>
      <trkpt lat="44.61877" lon="0.85397">
        <ele>143</ele>
        <time>2018-03-03T17:47:25.511Z</time>
      </trkpt>
      <trkpt lat="44.61875" lon="0.85403">
        <ele>143</ele>
        <time>2018-03-03T17:47:26.511Z</time>
      </trkpt>
      <trkpt lat="44.61873" lon="0.8541">
        <ele>143</ele>
        <time>2018-03-03T17:47:27.511Z</time>
      </trkpt>
      <trkpt lat="44.61871" lon="0.85416">
        <ele>142</ele>
        <time>2018-03-03T17:47:28.511Z</time>
      </trkpt>
      <trkpt lat="44.6187" lon="0.85421">
        <ele>142</ele>
        <time>2018-03-03T17:47:29.511Z</time>
      </trkpt>
      <trkpt lat="44.61868" lon="0.85427">
        <ele>142</ele>
        <time>2018-03-03T17:47:30.511Z</time>
      </trkpt>
      <trkpt lat="44.61867" lon="0.85432">
        <ele>142</ele>
        <time>2018-03-03T17:47:31.511Z</time>
      </trkpt>
      <trkpt lat="44.61866" lon="0.85437">
        <ele>142</ele>
        <time>2018-03-03T17:47:32.511Z</time>
      </trkpt>
      <trkpt lat="44.61864" lon="0.85441">
        <ele>142</ele>
        <time>2018-03-03T17:47:33.511Z</time>
      </trkpt>
      <trkpt lat="44.61863" lon="0.85444">
        <ele>142</ele>
        <time>2018-03-03T17:47:34.511Z</time>
      </trkpt>
      <trkpt lat="44.61861" lon="0.85447">
        <ele>142</ele>
        <time>2018-03-03T17:47:35.511Z</time>
      </trkpt>
      <trkpt lat="44.61858" lon="0.85449">
        <ele>142</ele>
        <time>2018-03-03T17:47:36.511Z</time>
      </trkpt>
      <trkpt lat="44.61855" lon="0.8545">
        <ele>142</ele>
        <time>2018-03-03T17:47:37.511Z</time>
      </trkpt>
      <trkpt lat="44.61852" lon="0.85452">
        <ele>142</ele>
        <time>2018-03-03T17:47:38.511Z</time>
      </trkpt>
      <trkpt lat="44.61849" lon="0.85453">
        <ele>142</ele>
        <time>2018-03-03T17:47:39.511Z</time>
      </trkpt>
      <trkpt lat="44.61845" lon="0.85455">
        <ele>143</ele>
        <time>2018-03-03T17:47:40.511Z</time>
      </trkpt>
      <trkpt lat="44.61841" lon="0.85457">
        <ele>143</ele>
        <time>2018-03-03T17:47:41.511Z</time>
      </trkpt>
      <trkpt lat="44.61837" lon="0.85459">
        <ele>143</ele>
        <time>2018-03-03T17:47:42.511Z</time>
      </trkpt>
      <trkpt lat="44.61833" lon="0.85462">
        <ele>143</ele>
        <time>2018-03-03T17:47:43.511Z</time>
      </trkpt>
      <trkpt lat="44.6183" lon="0.85465">
        <ele>143</ele>
        <time>2018-03-03T17:47:44.511Z</time>
      </trkpt>
      <trkpt lat="44.61826" lon="0.85468">
        <ele>144</ele>
        <time>2018-03-03T17:47:45.511Z</time>
      </trkpt>
      <trkpt lat="44.61823" lon="0.85471">
        <ele>144</ele>
        <time>2018-03-03T17:47:46.511Z</time>
      </trkpt>
      <trkpt lat="44.6182" lon="0.85473">
        <ele>144</ele>
        <time>2018-03-03T17:47:47.511Z</time>
      </trkpt>
      <trkpt lat="44.61818" lon="0.85476">
        <ele>144</ele>
        <time>2018-03-03T17:47:48.511Z</time>
      </trkpt>
      <trkpt lat="44.61817" lon="0.85478">
        <ele>144</ele>
        <time>2018-03-03T17:47:49.511Z</time>
      </trkpt>
      <trkpt lat="44.61816" lon="0.85481">
        <ele>144</ele>
        <time>2018-03-03T17:47:50.511Z</time>
      </trkpt>
      <trkpt lat="44.61817" lon="0.85483">
        <ele>144</ele>
        <time>2018-03-03T17:47:51.511Z</time>
      </trkpt>
      <trkpt lat="44.61818" lon="0.85486">
        <ele>144</ele>
        <time>2018-03-03T17:47:52.511Z</time>
      </trkpt>
      <trkpt lat="44.61819" lon="0.85488">
        <ele>144</ele>
        <time>2018-03-03T17:47:53.511Z</time>
      </trkpt>
      <trkpt lat="44.6182" lon="0.85491">
        <ele>144</ele>
        <time>2018-03-03T17:47:54.511Z</time>
      </trkpt>
      <trkpt lat="44.61821" lon="0.85494">
        <ele>144</ele>
        <time>2018-03-03T17:47:55.511Z</time>
      </trkpt>
      <trkpt lat="44.61822" lon="0.85497">
        <ele>145</ele>
        <time>2018-03-03T17:47:56.511Z</time>
      </trkpt>
      <trkpt lat="44.61823" lon="0.855">
        <ele>144</ele>
        <time>2018-03-03T17:47:57.511Z</time>
      </trkpt>
      <trkpt lat="44.61823" lon="0.85504">
        <ele>144</ele>
        <time>2018-03-03T17:47:58.511Z</time>
      </trkpt>
      <trkpt lat="44.61823" lon="0.85508">
        <ele>145</ele>
        <time>2018-03-03T17:47:59.511Z</time>
      </trkpt>
      <trkpt lat="44.61824" lon="0.85512">
        <ele>145</ele>
        <time>2018-03-03T17:48:00.511Z</time>
      </trkpt>
      <trkpt lat="44.61824" lon="0.85516">
        <ele>145</ele>
        <time>2018-03-03T17:48:01.511Z</time>
      </trkpt>
      <trkpt lat="44.61825" lon="0.85521">
        <ele>145</ele>
        <time>2018-03-03T17:48:02.511Z</time>
      </trkpt>
      <trkpt lat="44.61825" lon="0.85526">
        <ele>145</ele>
        <time>2018-03-03T17:48:03.511Z</time>
      </trkpt>
      <trkpt lat="44.61826" lon="0.8553">
        <ele>144</ele>
        <time>2018-03-03T17:48:04.511Z</time>
      </trkpt>
      <trkpt lat="44.61826" lon="0.85535">
        <ele>145</ele>
        <time>2018-03-03T17:48:05.511Z</time>
      </trkpt>
      <trkpt lat="44.61827" lon="0.8554">
        <ele>144</ele>
        <time>2018-03-03T17:48:06.511Z</time>
      </trkpt>
      <trkpt lat="44.61827" lon="0.85544">
        <ele>144</ele>
        <time>2018-03-03T17:48:07.511Z</time>
      </trkpt>
      <trkpt lat="44.61826" lon="0.85548">
        <ele>144</ele>
        <time>2018-03-03T17:48:08.511Z</time>
      </trkpt>
      <trkpt lat="44.61825" lon="0.85552">
        <ele>144</ele>
        <time>2018-03-03T17:48:09.511Z</time>
      </trkpt>
      <trkpt lat="44.61823" lon="0.85555">
        <ele>144</ele>
        <time>2018-03-03T17:48:10.511Z</time>
      </trkpt>
      <trkpt lat="44.61821" lon="0.85557">
        <ele>145</ele>
        <time>2018-03-03T17:48:11.511Z</time>
      </trkpt>
      <trkpt lat="44.61818" lon="0.85559">
        <ele>145</ele>
        <time>2018-03-03T17:48:12.511Z</time>
      </trkpt>
      <trkpt lat="44.61815" lon="0.85559">
        <ele>145</ele>
        <time>2018-03-03T17:48:13.511Z</time>
      </trkpt>
      <trkpt lat="44.61812" lon="0.85559">
        <ele>145</ele>
        <time>2018-03-03T17:48:14.511Z</time>
      </trkpt>
      <trkpt lat="44.61809" lon="0.85557">
        <ele>145</ele>
        <time>2018-03-03T17:48:15.511Z</time>
      </trkpt>
      <trkpt lat="44.61806" lon="0.85556">
        <ele>145</ele>
        <time>2018-03-03T17:48:16.511Z</time>
      </trkpt>
      <trkpt lat="44.61804" lon="0.85556">
        <ele>145</ele>
        <time>2018-03-03T17:48:17.511Z</time>
      </trkpt>
      <trkpt lat="44.61801" lon="0.85555">
        <ele>145</ele>
        <time>2018-03-03T17:48:18.511Z</time>
      </trkpt>
      <trkpt lat="44.61799" lon="0.85555">
        <ele>145</ele>
        <time>2018-03-03T17:48:19.511Z</time>
      </trkpt>
      <trkpt lat="44.61796" lon="0.85554">
        <ele>145</ele>
        <time>2018-03-03T17:48:20.511Z</time>
      </trkpt>
      <trkpt lat="44.61793" lon="0.85553">
        <ele>144</ele>
        <time>2018-03-03T17:48:21.511Z</time>
      </trkpt>
      <trkpt lat="44.61789" lon="0.85552">
        <ele>144</ele>
        <time>2018-03-03T17:48:22.511Z</time>
      </trkpt>
      <trkpt lat="44.61786" lon="0.85552">
        <ele>144</ele>
        <time>2018-03-03T17:48:23.511Z</time>
      </trkpt>
      <trkpt lat="44.61782" lon="0.85551">
        <ele>144</ele>
        <time>2018-03-03T17:48:24.511Z</time>
      </trkpt>
      <trkpt lat="44.61779" lon="0.85551">
        <ele>144</ele>
        <time>2018-03-03T17:48:25.511Z</time>
      </trkpt>
      <trkpt lat="44.61775" lon="0.85551">
        <ele>144</ele>
        <time>2018-03-03T17:48:26.511Z</time>
      </trkpt>
      <trkpt lat="44.61772" lon="0.85551">
        <ele>144</ele>
        <time>2018-03-03T17:48:27.511Z</time>
      </trkpt>
      <trkpt lat="44.61768" lon="0.85551">
        <ele>145</ele>
        <time>2018-03-03T17:48:28.511Z</time>
      </trkpt>
      <trkpt lat="44.61765" lon="0.8555">
        <ele>145</ele>
        <time>2018-03-03T17:48:29.511Z</time>
      </trkpt>
      <trkpt lat="44.61762" lon="0.85549">
        <ele>145</ele>
        <time>2018-03-03T17:48:30.511Z</time>
      </trkpt>
      <trkpt lat="44.61758" lon="0.85548">
        <ele>145</ele>
        <time>2018-03-03T17:48:31.511Z</time>
      </trkpt>
      <trkpt lat="44.61755" lon="0.85547">
        <ele>145</ele>
        <time>2018-03-03T17:48:32.511Z</time>
      </trkpt>
      <trkpt lat="44.61752" lon="0.85546">
        <ele>145</ele>
        <time>2018-03-03T17:48:33.511Z</time>
      </trkpt>
      <trkpt lat="44.61749" lon="0.85544">
        <ele>145</ele>
        <time>2018-03-03T17:48:34.511Z</time>
      </trkpt>
      <trkpt lat="44.61746" lon="0.85543">
        <ele>145</ele>
        <time>2018-03-03T17:48:35.511Z</time>
      </trkpt>
      <trkpt lat="44.61743" lon="0.85542">
        <ele>145</ele>
        <time>2018-03-03T17:48:36.511Z</time>
      </trkpt>
      <trkpt lat="44.61741" lon="0.85541">
        <ele>145</ele>
        <time>2018-03-03T17:48:37.511Z</time>
      </trkpt>
      <trkpt lat="44.6174" lon="0.85541">
        <ele>145</ele>
        <time>2018-03-03T17:48:38.511Z</time>
      </trkpt>
      <trkpt lat="44.61739" lon="0.8554">
        <ele>145</ele>
        <time>2018-03-03T17:48:39.511Z</time>
      </trkpt>
      <trkpt lat="44.61738" lon="0.8554">
        <ele>145</ele>
        <time>2018-03-03T17:48:40.511Z</time>
      </trkpt>
      <trkpt lat="44.61737" lon="0.8554">
        <ele>145</ele>
        <time>2018-03-03T17:48:41.511Z</time>
      </trkpt>
      <trkpt lat="44.61736" lon="0.8554">
        <ele>145</ele>
        <time>2018-03-03T17:48:42.511Z</time>
      </trkpt>
      <trkpt lat="44.61735" lon="0.85541">
        <ele>145</ele>
        <time>2018-03-03T17:48:43.511Z</time>
      </trkpt>
      <trkpt lat="44.61734" lon="0.85542">
        <ele>145</ele>
        <time>2018-03-03T17:48:44.511Z</time>
      </trkpt>
      <trkpt lat="44.61733" lon="0.85543">
        <ele>145</ele>
        <time>2018-03-03T17:48:45.511Z</time>
      </trkpt>
      <trkpt lat="44.61732" lon="0.85544">
        <ele>145</ele>
        <time>2018-03-03T17:48:46.511Z</time>
      </trkpt>
      <trkpt lat="44.61731" lon="0.85545">
        <ele>146</ele>
        <time>2018-03-03T17:48:47.511Z</time>
      </trkpt>
      <trkpt lat="44.61731" lon="0.85547">
        <ele>146</ele>
        <time>2018-03-03T17:48:48.511Z</time>
      </trkpt>
      <trkpt lat="44.6173" lon="0.85549">
        <ele>146</ele>
        <time>2018-03-03T17:48:49.511Z</time>
      </trkpt>
      <trkpt lat="44.6173" lon="0.85552">
        <ele>147</ele>
        <time>2018-03-03T17:48:50.511Z</time>
      </trkpt>
      <trkpt lat="44.6173" lon="0.85554">
        <ele>147</ele>
        <time>2018-03-03T17:48:51.511Z</time>
      </trkpt>
      <trkpt lat="44.6173" lon="0.85556">
        <ele>148</ele>
        <time>2018-03-03T17:48:52.511Z</time>
      </trkpt>
      <trkpt lat="44.61729" lon="0.85558">
        <ele>148</ele>
        <time>2018-03-03T17:48:53.511Z</time>
      </trkpt>
      <trkpt lat="44.61729" lon="0.8556">
        <ele>148</ele>
        <time>2018-03-03T17:48:54.511Z</time>
      </trkpt>
      <trkpt lat="44.61728" lon="0.85562">
        <ele>149</ele>
        <time>2018-03-03T17:48:55.511Z</time>
      </trkpt>
      <trkpt lat="44.61727" lon="0.85564">
        <ele>149</ele>
        <time>2018-03-03T17:48:56.511Z</time>
      </trkpt>
      <trkpt lat="44.61727" lon="0.85566">
        <ele>150</ele>
        <time>2018-03-03T17:48:57.511Z</time>
      </trkpt>
      <trkpt lat="44.61726" lon="0.85567">
        <ele>150</ele>
        <time>2018-03-03T17:48:58.511Z</time>
      </trkpt>
      <trkpt lat="44.61725" lon="0.85569">
        <ele>150</ele>
        <time>2018-03-03T17:48:59.511Z</time>
      </trkpt>
      <trkpt lat="44.61725" lon="0.85571">
        <ele>150</ele>
        <time>2018-03-03T17:49:00.511Z</time>
      </trkpt>
      <trkpt lat="44.61724" lon="0.85572">
        <ele>151</ele>
        <time>2018-03-03T17:49:01.511Z</time>
      </trkpt>
      <trkpt lat="44.61723" lon="0.85574">
        <ele>151</ele>
        <time>2018-03-03T17:49:02.511Z</time>
      </trkpt>
      <trkpt lat="44.61722" lon="0.85575">
        <ele>151</ele>
        <time>2018-03-03T17:49:03.511Z</time>
      </trkpt>
      <trkpt lat="44.61722" lon="0.85576">
        <ele>152</ele>
        <time>2018-03-03T17:49:04.511Z</time>
      </trkpt>
      <trkpt lat="44.61721" lon="0.85578">
        <ele>152</ele>
        <time>2018-03-03T17:49:05.511Z</time>
      </trkpt>
      <trkpt lat="44.6172" lon="0.85579">
        <ele>152</ele>
        <time>2018-03-03T17:49:06.511Z</time>
      </trkpt>
      <trkpt lat="44.6172" lon="0.85581">
        <ele>152</ele>
        <time>2018-03-03T17:49:07.511Z</time>
      </trkpt>
      <trkpt lat="44.61719" lon="0.85582">
        <ele>153</ele>
        <time>2018-03-03T17:49:08.511Z</time>
      </trkpt>
      <trkpt lat="44.61719" lon="0.85584">
        <ele>153</ele>
        <time>2018-03-03T17:49:09.511Z</time>
      </trkpt>
      <trkpt lat="44.61718" lon="0.85585">
        <ele>153</ele>
        <time>2018-03-03T17:49:10.511Z</time>
      </trkpt>
      <trkpt lat="44.61717" lon="0.85587">
        <ele>153</ele>
        <time>2018-03-03T17:49:11.511Z</time>
      </trkpt>
      <trkpt lat="44.61717" lon="0.85589">
        <ele>153</ele>
        <time>2018-03-03T17:49:12.511Z</time>
      </trkpt>
      <trkpt lat="44.61716" lon="0.85591">
        <ele>153</ele>
        <time>2018-03-03T17:49:13.511Z</time>
      </trkpt>
      <trkpt lat="44.61716" lon="0.85592">
        <ele>154</ele>
        <time>2018-03-03T17:49:14.511Z</time>
      </trkpt>
      <trkpt lat="44.61715" lon="0.85594">
        <ele>154</ele>
        <time>2018-03-03T17:49:15.511Z</time>
      </trkpt>
      <trkpt lat="44.61715" lon="0.85596">
        <ele>154</ele>
        <time>2018-03-03T17:49:16.511Z</time>
      </trkpt>
      <trkpt lat="44.61714" lon="0.85598">
        <ele>154</ele>
        <time>2018-03-03T17:49:17.511Z</time>
      </trkpt>
      <trkpt lat="44.61714" lon="0.856">
        <ele>155</ele>
        <time>2018-03-03T17:49:18.511Z</time>
      </trkpt>
      <trkpt lat="44.61713" lon="0.85601">
        <ele>155</ele>
        <time>2018-03-03T17:49:19.511Z</time>
      </trkpt>
      <trkpt lat="44.61713" lon="0.85602">
        <ele>155</ele>
        <time>2018-03-03T17:49:20.511Z</time>
      </trkpt>
      <trkpt lat="44.61713" lon="0.85603">
        <ele>155</ele>
        <time>2018-03-03T17:49:21.511Z</time>
      </trkpt>
      <trkpt lat="44.61712" lon="0.85603">
        <ele>155</ele>
        <time>2018-03-03T17:49:22.511Z</time>
      </trkpt>
      <trkpt lat="44.61712" lon="0.85604">
        <ele>156</ele>
        <time>2018-03-03T17:49:23.511Z</time>
      </trkpt>
      <trkpt lat="44.61712" lon="0.85604">
        <ele>156</ele>
        <time>2018-03-03T17:49:24.511Z</time>
      </trkpt>
      <trkpt lat="44.6171" lon="0.85606">
        <ele>156</ele>
        <time>2018-03-03T17:49:25.511Z</time>
      </trkpt>
      <trkpt lat="44.61709" lon="0.8561">
        <ele>156</ele>
        <time>2018-03-03T17:49:26.511Z</time>
      </trkpt>
      <trkpt lat="44.61708" lon="0.85612">
        <ele>156</ele>
        <time>2018-03-03T17:49:27.511Z</time>
      </trkpt>
      <trkpt lat="44.61707" lon="0.85615">
        <ele>156</ele>
        <time>2018-03-03T17:49:28.511Z</time>
      </trkpt>
      <trkpt lat="44.61706" lon="0.85617">
        <ele>156</ele>
        <time>2018-03-03T17:49:29.511Z</time>
      </trkpt>
      <trkpt lat="44.61705" lon="0.85619">
        <ele>157</ele>
        <time>2018-03-03T17:49:30.511Z</time>
      </trkpt>
      <trkpt lat="44.61705" lon="0.85621">
        <ele>157</ele>
        <time>2018-03-03T17:49:31.511Z</time>
      </trkpt>
      <trkpt lat="44.61705" lon="0.85623">
        <ele>157</ele>
        <time>2018-03-03T17:49:32.511Z</time>
      </trkpt>
      <trkpt lat="44.61704" lon="0.85624">
        <ele>157</ele>
        <time>2018-03-03T17:49:33.511Z</time>
      </trkpt>
      <trkpt lat="44.61704" lon="0.85626">
        <ele>157</ele>
        <time>2018-03-03T17:49:34.511Z</time>
      </trkpt>
      <trkpt lat="44.61704" lon="0.85628">
        <ele>158</ele>
        <time>2018-03-03T17:49:35.511Z</time>
      </trkpt>
      <trkpt lat="44.61704" lon="0.8563">
        <ele>158</ele>
        <time>2018-03-03T17:49:36.511Z</time>
      </trkpt>
      <trkpt lat="44.61703" lon="0.85632">
        <ele>158</ele>
        <time>2018-03-03T17:49:37.511Z</time>
      </trkpt>
      <trkpt lat="44.61703" lon="0.85634">
        <ele>158</ele>
        <time>2018-03-03T17:49:38.511Z</time>
      </trkpt>
      <trkpt lat="44.61703" lon="0.85636">
        <ele>158</ele>
        <time>2018-03-03T17:49:39.511Z</time>
      </trkpt>
      <trkpt lat="44.61703" lon="0.85638">
        <ele>159</ele>
        <time>2018-03-03T17:49:40.511Z</time>
      </trkpt>
      <trkpt lat="44.61702" lon="0.85639">
        <ele>159</ele>
        <time>2018-03-03T17:49:41.511Z</time>
      </trkpt>
      <trkpt lat="44.61702" lon="0.85641">
        <ele>159</ele>
        <time>2018-03-03T17:49:42.511Z</time>
      </trkpt>
      <trkpt lat="44.61702" lon="0.85643">
        <ele>159</ele>
        <time>2018-03-03T17:49:43.511Z</time>
      </trkpt>
      <trkpt lat="44.61702" lon="0.85645">
        <ele>159</ele>
        <time>2018-03-03T17:49:44.511Z</time>
      </trkpt>
      <trkpt lat="44.61701" lon="0.85646">
        <ele>160</ele>
        <time>2018-03-03T17:49:45.511Z</time>
      </trkpt>
      <trkpt lat="44.61701" lon="0.85648">
        <ele>160</ele>
        <time>2018-03-03T17:49:46.511Z</time>
      </trkpt>
      <trkpt lat="44.61701" lon="0.8565">
        <ele>160</ele>
        <time>2018-03-03T17:49:47.511Z</time>
      </trkpt>
      <trkpt lat="44.617" lon="0.85651">
        <ele>160</ele>
        <time>2018-03-03T17:49:48.511Z</time>
      </trkpt>
      <trkpt lat="44.617" lon="0.85653">
        <ele>160</ele>
        <time>2018-03-03T17:49:49.511Z</time>
      </trkpt>
      <trkpt lat="44.61699" lon="0.85654">
        <ele>161</ele>
        <time>2018-03-03T17:49:50.511Z</time>
      </trkpt>
      <trkpt lat="44.61698" lon="0.85656">
        <ele>161</ele>
        <time>2018-03-03T17:49:51.511Z</time>
      </trkpt>
      <trkpt lat="44.61698" lon="0.85657">
        <ele>161</ele>
        <time>2018-03-03T17:49:52.511Z</time>
      </trkpt>
      <trkpt lat="44.61697" lon="0.85659">
        <ele>161</ele>
        <time>2018-03-03T17:49:53.511Z</time>
      </trkpt>
      <trkpt lat="44.61696" lon="0.85661">
        <ele>162</ele>
        <time>2018-03-03T17:49:54.511Z</time>
      </trkpt>
      <trkpt lat="44.61696" lon="0.85662">
        <ele>162</ele>
        <time>2018-03-03T17:49:55.511Z</time>
      </trkpt>
      <trkpt lat="44.61695" lon="0.85664">
        <ele>162</ele>
        <time>2018-03-03T17:49:56.511Z</time>
      </trkpt>
      <trkpt lat="44.61694" lon="0.85665">
        <ele>162</ele>
        <time>2018-03-03T17:49:57.511Z</time>
      </trkpt>
      <trkpt lat="44.61693" lon="0.85667">
        <ele>162</ele>
        <time>2018-03-03T17:49:58.511Z</time>
      </trkpt>
      <trkpt lat="44.61693" lon="0.85669">
        <ele>162</ele>
        <time>2018-03-03T17:49:59.511Z</time>
      </trkpt>
      <trkpt lat="44.61692" lon="0.85671">
        <ele>163</ele>
        <time>2018-03-03T17:50:00.511Z</time>
      </trkpt>
      <trkpt lat="44.61691" lon="0.85673">
        <ele>163</ele>
        <time>2018-03-03T17:50:01.511Z</time>
      </trkpt>
      <trkpt lat="44.61691" lon="0.85674">
        <ele>163</ele>
        <time>2018-03-03T17:50:02.511Z</time>
      </trkpt>
      <trkpt lat="44.6169" lon="0.85676">
        <ele>163</ele>
        <time>2018-03-03T17:50:03.511Z</time>
      </trkpt>
      <trkpt lat="44.61689" lon="0.85678">
        <ele>164</ele>
        <time>2018-03-03T17:50:04.511Z</time>
      </trkpt>
      <trkpt lat="44.61689" lon="0.8568">
        <ele>164</ele>
        <time>2018-03-03T17:50:05.511Z</time>
      </trkpt>
      <trkpt lat="44.61688" lon="0.85682">
        <ele>164</ele>
        <time>2018-03-03T17:50:06.511Z</time>
      </trkpt>
      <trkpt lat="44.61687" lon="0.85684">
        <ele>164</ele>
        <time>2018-03-03T17:50:07.511Z</time>
      </trkpt>
      <trkpt lat="44.61687" lon="0.85686">
        <ele>164</ele>
        <time>2018-03-03T17:50:08.511Z</time>
      </trkpt>
      <trkpt lat="44.61686" lon="0.85688">
        <ele>164</ele>
        <time>2018-03-03T17:50:09.511Z</time>
      </trkpt>
      <trkpt lat="44.61686" lon="0.8569">
        <ele>164</ele>
        <time>2018-03-03T17:50:10.511Z</time>
      </trkpt>
      <trkpt lat="44.61685" lon="0.85692">
        <ele>165</ele>
        <time>2018-03-03T17:50:11.511Z</time>
      </trkpt>
      <trkpt lat="44.61684" lon="0.85694">
        <ele>165</ele>
        <time>2018-03-03T17:50:12.511Z</time>
      </trkpt>
      <trkpt lat="44.61684" lon="0.85696">
        <ele>165</ele>
        <time>2018-03-03T17:50:13.511Z</time>
      </trkpt>
      <trkpt lat="44.61683" lon="0.85698">
        <ele>165</ele>
        <time>2018-03-03T17:50:14.511Z</time>
      </trkpt>
      <trkpt lat="44.61682" lon="0.857">
        <ele>165</ele>
        <time>2018-03-03T17:50:15.511Z</time>
      </trkpt>
      <trkpt lat="44.61682" lon="0.85702">
        <ele>165</ele>
        <time>2018-03-03T17:50:16.511Z</time>
      </trkpt>
      <trkpt lat="44.61681" lon="0.85703">
        <ele>166</ele>
        <time>2018-03-03T17:50:17.511Z</time>
      </trkpt>
      <trkpt lat="44.6168" lon="0.85705">
        <ele>166</ele>
        <time>2018-03-03T17:50:18.511Z</time>
      </trkpt>
      <trkpt lat="44.6168" lon="0.85707">
        <ele>166</ele>
        <time>2018-03-03T17:50:19.511Z</time>
      </trkpt>
      <trkpt lat="44.61679" lon="0.85709">
        <ele>166</ele>
        <time>2018-03-03T17:50:20.511Z</time>
      </trkpt>
      <trkpt lat="44.61678" lon="0.85711">
        <ele>166</ele>
        <time>2018-03-03T17:50:21.511Z</time>
      </trkpt>
      <trkpt lat="44.61678" lon="0.85713">
        <ele>166</ele>
        <time>2018-03-03T17:50:22.511Z</time>
      </trkpt>
      <trkpt lat="44.61677" lon="0.85715">
        <ele>166</ele>
        <time>2018-03-03T17:50:23.511Z</time>
      </trkpt>
      <trkpt lat="44.61677" lon="0.85717">
        <ele>167</ele>
        <time>2018-03-03T17:50:24.511Z</time>
      </trkpt>
      <trkpt lat="44.61676" lon="0.85719">
        <ele>167</ele>
        <time>2018-03-03T17:50:25.511Z</time>
      </trkpt>
      <trkpt lat="44.61676" lon="0.85721">
        <ele>167</ele>
        <time>2018-03-03T17:50:26.511Z</time>
      </trkpt>
      <trkpt lat="44.61675" lon="0.85722">
        <ele>167</ele>
        <time>2018-03-03T17:50:27.511Z</time>
      </trkpt>
      <trkpt lat="44.61675" lon="0.85724">
        <ele>167</ele>
        <time>2018-03-03T17:50:28.511Z</time>
      </trkpt>
      <trkpt lat="44.61674" lon="0.85726">
        <ele>167</ele>
        <time>2018-03-03T17:50:29.511Z</time>
      </trkpt>
      <trkpt lat="44.61674" lon="0.85728">
        <ele>168</ele>
        <time>2018-03-03T17:50:30.511Z</time>
      </trkpt>
      <trkpt lat="44.61673" lon="0.8573">
        <ele>168</ele>
        <time>2018-03-03T17:50:31.511Z</time>
      </trkpt>
      <trkpt lat="44.61673" lon="0.85732">
        <ele>168</ele>
        <time>2018-03-03T17:50:32.511Z</time>
      </trkpt>
      <trkpt lat="44.61672" lon="0.85734">
        <ele>168</ele>
        <time>2018-03-03T17:50:33.511Z</time>
      </trkpt>
      <trkpt lat="44.61672" lon="0.85736">
        <ele>168</ele>
        <time>2018-03-03T17:50:34.511Z</time>
      </trkpt>
      <trkpt lat="44.61671" lon="0.85738">
        <ele>168</ele>
        <time>2018-03-03T17:50:35.511Z</time>
      </trkpt>
      <trkpt lat="44.61671" lon="0.8574">
        <ele>168</ele>
        <time>2018-03-03T17:50:36.511Z</time>
      </trkpt>
      <trkpt lat="44.61671" lon="0.85742">
        <ele>168</ele>
        <time>2018-03-03T17:50:37.511Z</time>
      </trkpt>
      <trkpt lat="44.61671" lon="0.85745">
        <ele>169</ele>
        <time>2018-03-03T17:50:38.511Z</time>
      </trkpt>
      <trkpt lat="44.6167" lon="0.85747">
        <ele>169</ele>
        <time>2018-03-03T17:50:39.511Z</time>
      </trkpt>
      <trkpt lat="44.6167" lon="0.85749">
        <ele>169</ele>
        <time>2018-03-03T17:50:40.511Z</time>
      </trkpt>
      <trkpt lat="44.6167" lon="0.85752">
        <ele>169</ele>
        <time>2018-03-03T17:50:41.511Z</time>
      </trkpt>
      <trkpt lat="44.6167" lon="0.85754">
        <ele>169</ele>
        <time>2018-03-03T17:50:42.511Z</time>
      </trkpt>
      <trkpt lat="44.61669" lon="0.85757">
        <ele>169</ele>
        <time>2018-03-03T17:50:43.511Z</time>
      </trkpt>
      <trkpt lat="44.61669" lon="0.85759">
        <ele>169</ele>
        <time>2018-03-03T17:50:44.511Z</time>
      </trkpt>
      <trkpt lat="44.61669" lon="0.85762">
        <ele>169</ele>
        <time>2018-03-03T17:50:45.511Z</time>
      </trkpt>
      <trkpt lat="44.61669" lon="0.85765">
        <ele>169</ele>
        <time>2018-03-03T17:50:46.511Z</time>
      </trkpt>
      <trkpt lat="44.61668" lon="0.85767">
        <ele>169</ele>
        <time>2018-03-03T17:50:47.511Z</time>
      </trkpt>
      <trkpt lat="44.61668" lon="0.8577">
        <ele>169</ele>
        <time>2018-03-03T17:50:48.511Z</time>
      </trkpt>
      <trkpt lat="44.61668" lon="0.85773">
        <ele>169</ele>
        <time>2018-03-03T17:50:49.511Z</time>
      </trkpt>
      <trkpt lat="44.61668" lon="0.85776">
        <ele>169</ele>
        <time>2018-03-03T17:50:50.511Z</time>
      </trkpt>
      <trkpt lat="44.61667" lon="0.85778">
        <ele>170</ele>
        <time>2018-03-03T17:50:51.511Z</time>
      </trkpt>
      <trkpt lat="44.61667" lon="0.85781">
        <ele>170</ele>
        <time>2018-03-03T17:50:52.511Z</time>
      </trkpt>
      <trkpt lat="44.61666" lon="0.85784">
        <ele>170</ele>
        <time>2018-03-03T17:50:53.511Z</time>
      </trkpt>
      <trkpt lat="44.61666" lon="0.85786">
        <ele>170</ele>
        <time>2018-03-03T17:50:54.511Z</time>
      </trkpt>
      <trkpt lat="44.61665" lon="0.85789">
        <ele>170</ele>
        <time>2018-03-03T17:50:55.511Z</time>
      </trkpt>
      <trkpt lat="44.61664" lon="0.85791">
        <ele>170</ele>
        <time>2018-03-03T17:50:56.511Z</time>
      </trkpt>
      <trkpt lat="44.61664" lon="0.85794">
        <ele>170</ele>
        <time>2018-03-03T17:50:57.511Z</time>
      </trkpt>
      <trkpt lat="44.61663" lon="0.85796">
        <ele>171</ele>
        <time>2018-03-03T17:50:58.511Z</time>
      </trkpt>
      <trkpt lat="44.61662" lon="0.85799">
        <ele>171</ele>
        <time>2018-03-03T17:50:59.511Z</time>
      </trkpt>
      <trkpt lat="44.61662" lon="0.85801">
        <ele>171</ele>
        <time>2018-03-03T17:51:00.511Z</time>
      </trkpt>
      <trkpt lat="44.61661" lon="0.85804">
        <ele>171</ele>
        <time>2018-03-03T17:51:01.511Z</time>
      </trkpt>
      <trkpt lat="44.6166" lon="0.85806">
        <ele>171</ele>
        <time>2018-03-03T17:51:02.511Z</time>
      </trkpt>
      <trkpt lat="44.6166" lon="0.85809">
        <ele>171</ele>
        <time>2018-03-03T17:51:03.511Z</time>
      </trkpt>
      <trkpt lat="44.6166" lon="0.85812">
        <ele>171</ele>
        <time>2018-03-03T17:51:04.511Z</time>
      </trkpt>
      <trkpt lat="44.61659" lon="0.85815">
        <ele>171</ele>
        <time>2018-03-03T17:51:05.511Z</time>
      </trkpt>
      <trkpt lat="44.61659" lon="0.85818">
        <ele>171</ele>
        <time>2018-03-03T17:51:06.511Z</time>
      </trkpt>
      <trkpt lat="44.61659" lon="0.85822">
        <ele>171</ele>
        <time>2018-03-03T17:51:07.511Z</time>
      </trkpt>
      <trkpt lat="44.61659" lon="0.85825">
        <ele>171</ele>
        <time>2018-03-03T17:51:08.511Z</time>
      </trkpt>
      <trkpt lat="44.61659" lon="0.85828">
        <ele>171</ele>
        <time>2018-03-03T17:51:09.511Z</time>
      </trkpt>
      <trkpt lat="44.61658" lon="0.85832">
        <ele>171</ele>
        <time>2018-03-03T17:51:10.511Z</time>
      </trkpt>
      <trkpt lat="44.61658" lon="0.85835">
        <ele>171</ele>
        <time>2018-03-03T17:51:11.511Z</time>
      </trkpt>
      <trkpt lat="44.61657" lon="0.85839">
        <ele>171</ele>
        <time>2018-03-03T17:51:12.511Z</time>
      </trkpt>
      <trkpt lat="44.61657" lon="0.85842">
        <ele>171</ele>
        <time>2018-03-03T17:51:13.511Z</time>
      </trkpt>
      <trkpt lat="44.61658" lon="0.85845">
        <ele>171</ele>
        <time>2018-03-03T17:51:14.511Z</time>
      </trkpt>
      <trkpt lat="44.61658" lon="0.85848">
        <ele>171</ele>
        <time>2018-03-03T17:51:15.511Z</time>
      </trkpt>
      <trkpt lat="44.61658" lon="0.85851">
        <ele>171</ele>
        <time>2018-03-03T17:51:16.511Z</time>
      </trkpt>
      <trkpt lat="44.61659" lon="0.85853">
        <ele>171</ele>
        <time>2018-03-03T17:51:17.511Z</time>
      </trkpt>
      <trkpt lat="44.61659" lon="0.85856">
        <ele>171</ele>
        <time>2018-03-03T17:51:18.511Z</time>
      </trkpt>
      <trkpt lat="44.61659" lon="0.85857">
        <ele>171</ele>
        <time>2018-03-03T17:51:19.511Z</time>
      </trkpt>
      <trkpt lat="44.61659" lon="0.85859">
        <ele>171</ele>
        <time>2018-03-03T17:51:20.511Z</time>
      </trkpt>
      <trkpt lat="44.61659" lon="0.8586">
        <ele>171</ele>
        <time>2018-03-03T17:51:21.511Z</time>
      </trkpt>
      <trkpt lat="44.61659" lon="0.8586">
        <ele>171</ele>
        <time>2018-03-03T17:51:22.511Z</time>
      </trkpt>
      <trkpt lat="44.61659" lon="0.85861">
        <ele>171</ele>
        <time>2018-03-03T17:51:23.511Z</time>
      </trkpt>
      <trkpt lat="44.61659" lon="0.85861">
        <ele>171</ele>
        <time>2018-03-03T17:51:24.511Z</time>
      </trkpt>
      <trkpt lat="44.61659" lon="0.85861">
        <ele>171</ele>
        <time>2018-03-03T17:51:25.511Z</time>
      </trkpt>
      <trkpt lat="44.61659" lon="0.85861">
        <ele>171</ele>
        <time>2018-03-03T17:51:26.511Z</time>
      </trkpt>
      <trkpt lat="44.61659" lon="0.85861">
        <ele>172</ele>
        <time>2018-03-03T17:51:27.511Z</time>
      </trkpt>
      <trkpt lat="44.61659" lon="0.85861">
        <ele>172</ele>
        <time>2018-03-03T17:51:28.511Z</time>
      </trkpt>
      <trkpt lat="44.61659" lon="0.85861">
        <ele>172</ele>
        <time>2018-03-03T17:51:29.511Z</time>
      </trkpt>
      <trkpt lat="44.61659" lon="0.85861">
        <ele>172</ele>
        <time>2018-03-03T17:51:30.511Z</time>
      </trkpt>
      <trkpt lat="44.61659" lon="0.85861">
        <ele>172</ele>
        <time>2018-03-03T17:51:31.511Z</time>
      </trkpt>
      <trkpt lat="44.61659" lon="0.85861">
        <ele>171</ele>
        <time>2018-03-03T17:51:32.511Z</time>
      </trkpt>
      <trkpt lat="44.61659" lon="0.85861">
        <ele>171</ele>
        <time>2018-03-03T17:51:33.511Z</time>
      </trkpt>
      <trkpt lat="44.61659" lon="0.85861">
        <ele>171</ele>
        <time>2018-03-03T17:51:34.511Z</time>
      </trkpt>
      <trkpt lat="44.61659" lon="0.85861">
        <ele>171</ele>
        <time>2018-03-03T17:51:35.511Z</time>
      </trkpt>
      <trkpt lat="44.61659" lon="0.85861">
        <ele>171</ele>
        <time>2018-03-03T17:51:36.511Z</time>
      </trkpt>
      <trkpt lat="44.61659" lon="0.85861">
        <ele>171</ele>
        <time>2018-03-03T17:51:37.511Z</time>
      </trkpt>
      <trkpt lat="44.61659" lon="0.85861">
        <ele>171</ele>
        <time>2018-03-03T17:51:38.511Z</time>
      </trkpt>
      <trkpt lat="44.61659" lon="0.85861">
        <ele>171</ele>
        <time>2018-03-03T17:51:39.511Z</time>
      </trkpt>
      <trkpt lat="44.61659" lon="0.85861">
        <ele>171</ele>
        <time>2018-03-03T17:51:40.511Z</time>
      </trkpt>
      <trkpt lat="44.61659" lon="0.85861">
        <ele>171</ele>
        <time>2018-03-03T17:51:41.511Z</time>
      </trkpt>
      <trkpt lat="44.61659" lon="0.85861">
        <ele>171</ele>
        <time>2018-03-03T17:51:42.511Z</time>
      </trkpt>
      <trkpt lat="44.61659" lon="0.85861">
        <ele>171</ele>
        <time>2018-03-03T17:51:43.511Z</time>
      </trkpt>
      <trkpt lat="44.61659" lon="0.85861">
        <ele>171</ele>
        <time>2018-03-03T17:51:44.511Z</time>
      </trkpt>
      <trkpt lat="44.61659" lon="0.85861">
        <ele>171</ele>
        <time>2018-03-03T17:51:45.511Z</time>
      </trkpt>
      <trkpt lat="44.61659" lon="0.85862">
        <ele>171</ele>
        <time>2018-03-03T17:51:46.511Z</time>
      </trkpt>
      <trkpt lat="44.61659" lon="0.85862">
        <ele>171</ele>
        <time>2018-03-03T17:51:47.511Z</time>
      </trkpt>
      <trkpt lat="44.61659" lon="0.85863">
        <ele>171</ele>
        <time>2018-03-03T17:51:48.511Z</time>
      </trkpt>
      <trkpt lat="44.61658" lon="0.85863">
        <ele>171</ele>
        <time>2018-03-03T17:51:49.511Z</time>
      </trkpt>
      <trkpt lat="44.61657" lon="0.85866">
        <ele>171</ele>
        <time>2018-03-03T17:51:50.511Z</time>
      </trkpt>
      <trkpt lat="44.61656" lon="0.85868">
        <ele>171</ele>
        <time>2018-03-03T17:51:51.511Z</time>
      </trkpt>
      <trkpt lat="44.61654" lon="0.85869">
        <ele>171</ele>
        <time>2018-03-03T17:51:52.511Z</time>
      </trkpt>
      <trkpt lat="44.61652" lon="0.8587">
        <ele>171</ele>
        <time>2018-03-03T17:51:53.511Z</time>
      </trkpt>
      <trkpt lat="44.61651" lon="0.85871">
        <ele>171</ele>
        <time>2018-03-03T17:51:54.511Z</time>
      </trkpt>
      <trkpt lat="44.61649" lon="0.85872">
        <ele>171</ele>
        <time>2018-03-03T17:51:55.511Z</time>
      </trkpt>
      <trkpt lat="44.61647" lon="0.85872">
        <ele>171</ele>
        <time>2018-03-03T17:51:56.511Z</time>
      </trkpt>
      <trkpt lat="44.61644" lon="0.85872">
        <ele>171</ele>
        <time>2018-03-03T17:51:57.511Z</time>
      </trkpt>
      <trkpt lat="44.61641" lon="0.85872">
        <ele>170</ele>
        <time>2018-03-03T17:51:58.511Z</time>
      </trkpt>
      <trkpt lat="44.61637" lon="0.85873">
        <ele>170</ele>
        <time>2018-03-03T17:51:59.511Z</time>
      </trkpt>
      <trkpt lat="44.61632" lon="0.85876">
        <ele>169</ele>
        <time>2018-03-03T17:52:00.511Z</time>
      </trkpt>
      <trkpt lat="44.61626" lon="0.8588">
        <ele>167</ele>
        <time>2018-03-03T17:52:01.511Z</time>
      </trkpt>
      <trkpt lat="44.61619" lon="0.85887">
        <ele>165</ele>
        <time>2018-03-03T17:52:02.511Z</time>
      </trkpt>
      <trkpt lat="44.61612" lon="0.85894">
        <ele>163</ele>
        <time>2018-03-03T17:52:03.511Z</time>
      </trkpt>
      <trkpt lat="44.61604" lon="0.85903">
        <ele>161</ele>
        <time>2018-03-03T17:52:04.511Z</time>
      </trkpt>
      <trkpt lat="44.61596" lon="0.85911">
        <ele>159</ele>
        <time>2018-03-03T17:52:05.511Z</time>
      </trkpt>
      <trkpt lat="44.61589" lon="0.85919">
        <ele>159</ele>
        <time>2018-03-03T17:52:06.511Z</time>
      </trkpt>
      <trkpt lat="44.61582" lon="0.85926">
        <ele>158</ele>
        <time>2018-03-03T17:52:07.511Z</time>
      </trkpt>
      <trkpt lat="44.61577" lon="0.85932">
        <ele>158</ele>
        <time>2018-03-03T17:52:08.511Z</time>
      </trkpt>
      <trkpt lat="44.61573" lon="0.85938">
        <ele>158</ele>
        <time>2018-03-03T17:52:09.511Z</time>
      </trkpt>
      <trkpt lat="44.61571" lon="0.85944">
        <ele>158</ele>
        <time>2018-03-03T17:52:10.511Z</time>
      </trkpt>
      <trkpt lat="44.61571" lon="0.85948">
        <ele>158</ele>
        <time>2018-03-03T17:52:11.511Z</time>
      </trkpt>
      <trkpt lat="44.61572" lon="0.85952">
        <ele>158</ele>
        <time>2018-03-03T17:52:12.511Z</time>
      </trkpt>
      <trkpt lat="44.61573" lon="0.85956">
        <ele>158</ele>
        <time>2018-03-03T17:52:13.511Z</time>
      </trkpt>
      <trkpt lat="44.61575" lon="0.85959">
        <ele>158</ele>
        <time>2018-03-03T17:52:14.511Z</time>
      </trkpt>
      <trkpt lat="44.61577" lon="0.85962">
        <ele>158</ele>
        <time>2018-03-03T17:52:15.511Z</time>
      </trkpt>
      <trkpt lat="44.61579" lon="0.85965">
        <ele>158</ele>
        <time>2018-03-03T17:52:16.511Z</time>
      </trkpt>
      <trkpt lat="44.61581" lon="0.85968">
        <ele>158</ele>
        <time>2018-03-03T17:52:17.511Z</time>
      </trkpt>
      <trkpt lat="44.61584" lon="0.85971">
        <ele>158</ele>
        <time>2018-03-03T17:52:18.511Z</time>
      </trkpt>
      <trkpt lat="44.61586" lon="0.85974">
        <ele>159</ele>
        <time>2018-03-03T17:52:19.511Z</time>
      </trkpt>
      <trkpt lat="44.61588" lon="0.85977">
        <ele>159</ele>
        <time>2018-03-03T17:52:20.511Z</time>
      </trkpt>
      <trkpt lat="44.6159" lon="0.85979">
        <ele>159</ele>
        <time>2018-03-03T17:52:21.511Z</time>
      </trkpt>
      <trkpt lat="44.61593" lon="0.85982">
        <ele>159</ele>
        <time>2018-03-03T17:52:22.511Z</time>
      </trkpt>
      <trkpt lat="44.61595" lon="0.85985">
        <ele>159</ele>
        <time>2018-03-03T17:52:23.511Z</time>
      </trkpt>
      <trkpt lat="44.61598" lon="0.85987">
        <ele>159</ele>
        <time>2018-03-03T17:52:24.511Z</time>
      </trkpt>
      <trkpt lat="44.61601" lon="0.8599">
        <ele>160</ele>
        <time>2018-03-03T17:52:25.511Z</time>
      </trkpt>
      <trkpt lat="44.61603" lon="0.85993">
        <ele>160</ele>
        <time>2018-03-03T17:52:26.511Z</time>
      </trkpt>
      <trkpt lat="44.61606" lon="0.85995">
        <ele>160</ele>
        <time>2018-03-03T17:52:27.511Z</time>
      </trkpt>
      <trkpt lat="44.61609" lon="0.85998">
        <ele>160</ele>
        <time>2018-03-03T17:52:28.511Z</time>
      </trkpt>
      <trkpt lat="44.61612" lon="0.86001">
        <ele>160</ele>
        <time>2018-03-03T17:52:29.511Z</time>
      </trkpt>
      <trkpt lat="44.61615" lon="0.86004">
        <ele>160</ele>
        <time>2018-03-03T17:52:30.511Z</time>
      </trkpt>
      <trkpt lat="44.61618" lon="0.86007">
        <ele>160</ele>
        <time>2018-03-03T17:52:31.511Z</time>
      </trkpt>
      <trkpt lat="44.61621" lon="0.8601">
        <ele>160</ele>
        <time>2018-03-03T17:52:32.511Z</time>
      </trkpt>
      <trkpt lat="44.61625" lon="0.86013">
        <ele>161</ele>
        <time>2018-03-03T17:52:33.511Z</time>
      </trkpt>
      <trkpt lat="44.61628" lon="0.86016">
        <ele>161</ele>
        <time>2018-03-03T17:52:34.511Z</time>
      </trkpt>
      <trkpt lat="44.61631" lon="0.86019">
        <ele>161</ele>
        <time>2018-03-03T17:52:35.511Z</time>
      </trkpt>
      <trkpt lat="44.61634" lon="0.86022">
        <ele>161</ele>
        <time>2018-03-03T17:52:36.511Z</time>
      </trkpt>
      <trkpt lat="44.61638" lon="0.86025">
        <ele>161</ele>
        <time>2018-03-03T17:52:37.511Z</time>
      </trkpt>
      <trkpt lat="44.61641" lon="0.86028">
        <ele>161</ele>
        <time>2018-03-03T17:52:38.511Z</time>
      </trkpt>
      <trkpt lat="44.61644" lon="0.86031">
        <ele>161</ele>
        <time>2018-03-03T17:52:39.511Z</time>
      </trkpt>
      <trkpt lat="44.61646" lon="0.86034">
        <ele>161</ele>
        <time>2018-03-03T17:52:40.511Z</time>
      </trkpt>
      <trkpt lat="44.61648" lon="0.86037">
        <ele>161</ele>
        <time>2018-03-03T17:52:41.511Z</time>
      </trkpt>
      <trkpt lat="44.61649" lon="0.8604">
        <ele>161</ele>
        <time>2018-03-03T17:52:42.511Z</time>
      </trkpt>
      <trkpt lat="44.61649" lon="0.86044">
        <ele>161</ele>
        <time>2018-03-03T17:52:43.511Z</time>
      </trkpt>
      <trkpt lat="44.61649" lon="0.86047">
        <ele>161</ele>
        <time>2018-03-03T17:52:44.511Z</time>
      </trkpt>
      <trkpt lat="44.61647" lon="0.8605">
        <ele>162</ele>
        <time>2018-03-03T17:52:45.511Z</time>
      </trkpt>
      <trkpt lat="44.61645" lon="0.86054">
        <ele>162</ele>
        <time>2018-03-03T17:52:46.511Z</time>
      </trkpt>
      <trkpt lat="44.61643" lon="0.86057">
        <ele>162</ele>
        <time>2018-03-03T17:52:47.511Z</time>
      </trkpt>
      <trkpt lat="44.61641" lon="0.8606">
        <ele>162</ele>
        <time>2018-03-03T17:52:48.511Z</time>
      </trkpt>
      <trkpt lat="44.61639" lon="0.86063">
        <ele>162</ele>
        <time>2018-03-03T17:52:49.511Z</time>
      </trkpt>
      <trkpt lat="44.61637" lon="0.86066">
        <ele>163</ele>
        <time>2018-03-03T17:52:50.511Z</time>
      </trkpt>
      <trkpt lat="44.61634" lon="0.86069">
        <ele>163</ele>
        <time>2018-03-03T17:52:51.511Z</time>
      </trkpt>
      <trkpt lat="44.61632" lon="0.86072">
        <ele>163</ele>
        <time>2018-03-03T17:52:52.511Z</time>
      </trkpt>
      <trkpt lat="44.6163" lon="0.86075">
        <ele>163</ele>
        <time>2018-03-03T17:52:53.511Z</time>
      </trkpt>
      <trkpt lat="44.61628" lon="0.86078">
        <ele>164</ele>
        <time>2018-03-03T17:52:54.511Z</time>
      </trkpt>
      <trkpt lat="44.61626" lon="0.8608">
        <ele>164</ele>
        <time>2018-03-03T17:52:55.511Z</time>
      </trkpt>
      <trkpt lat="44.61625" lon="0.86083">
        <ele>164</ele>
        <time>2018-03-03T17:52:56.511Z</time>
      </trkpt>
      <trkpt lat="44.61623" lon="0.86086">
        <ele>164</ele>
        <time>2018-03-03T17:52:57.511Z</time>
      </trkpt>
      <trkpt lat="44.61622" lon="0.86089">
        <ele>164</ele>
        <time>2018-03-03T17:52:58.511Z</time>
      </trkpt>
      <trkpt lat="44.6162" lon="0.86091">
        <ele>164</ele>
        <time>2018-03-03T17:52:59.511Z</time>
      </trkpt>
      <trkpt lat="44.61619" lon="0.86094">
        <ele>164</ele>
        <time>2018-03-03T17:53:00.511Z</time>
      </trkpt>
      <trkpt lat="44.61617" lon="0.86097">
        <ele>165</ele>
        <time>2018-03-03T17:53:01.511Z</time>
      </trkpt>
      <trkpt lat="44.61615" lon="0.86099">
        <ele>165</ele>
        <time>2018-03-03T17:53:02.511Z</time>
      </trkpt>
      <trkpt lat="44.61613" lon="0.86102">
        <ele>165</ele>
        <time>2018-03-03T17:53:03.511Z</time>
      </trkpt>
      <trkpt lat="44.61611" lon="0.86104">
        <ele>165</ele>
        <time>2018-03-03T17:53:04.511Z</time>
      </trkpt>
      <trkpt lat="44.61609" lon="0.86107">
        <ele>165</ele>
        <time>2018-03-03T17:53:05.511Z</time>
      </trkpt>
      <trkpt lat="44.61607" lon="0.86109">
        <ele>165</ele>
        <time>2018-03-03T17:53:06.511Z</time>
      </trkpt>
      <trkpt lat="44.61606" lon="0.86112">
        <ele>165</ele>
        <time>2018-03-03T17:53:07.511Z</time>
      </trkpt>
      <trkpt lat="44.61604" lon="0.86114">
        <ele>166</ele>
        <time>2018-03-03T17:53:08.511Z</time>
      </trkpt>
      <trkpt lat="44.61603" lon="0.86117">
        <ele>166</ele>
        <time>2018-03-03T17:53:09.511Z</time>
      </trkpt>
      <trkpt lat="44.61601" lon="0.86119">
        <ele>166</ele>
        <time>2018-03-03T17:53:10.511Z</time>
      </trkpt>
      <trkpt lat="44.616" lon="0.86122">
        <ele>166</ele>
        <time>2018-03-03T17:53:11.511Z</time>
      </trkpt>
      <trkpt lat="44.61599" lon="0.86124">
        <ele>166</ele>
        <time>2018-03-03T17:53:12.511Z</time>
      </trkpt>
      <trkpt lat="44.61597" lon="0.86127">
        <ele>166</ele>
        <time>2018-03-03T17:53:13.511Z</time>
      </trkpt>
      <trkpt lat="44.61595" lon="0.86129">
        <ele>166</ele>
        <time>2018-03-03T17:53:14.511Z</time>
      </trkpt>
      <trkpt lat="44.61594" lon="0.86132">
        <ele>166</ele>
        <time>2018-03-03T17:53:15.511Z</time>
      </trkpt>
      <trkpt lat="44.61591" lon="0.86134">
        <ele>166</ele>
        <time>2018-03-03T17:53:16.511Z</time>
      </trkpt>
      <trkpt lat="44.61589" lon="0.86137">
        <ele>166</ele>
        <time>2018-03-03T17:53:17.511Z</time>
      </trkpt>
      <trkpt lat="44.61587" lon="0.86139">
        <ele>166</ele>
        <time>2018-03-03T17:53:18.511Z</time>
      </trkpt>
      <trkpt lat="44.61585" lon="0.86142">
        <ele>166</ele>
        <time>2018-03-03T17:53:19.511Z</time>
      </trkpt>
      <trkpt lat="44.61582" lon="0.86145">
        <ele>167</ele>
        <time>2018-03-03T17:53:20.511Z</time>
      </trkpt>
      <trkpt lat="44.6158" lon="0.86147">
        <ele>167</ele>
        <time>2018-03-03T17:53:21.511Z</time>
      </trkpt>
      <trkpt lat="44.61578" lon="0.8615">
        <ele>167</ele>
        <time>2018-03-03T17:53:22.511Z</time>
      </trkpt>
      <trkpt lat="44.61577" lon="0.86152">
        <ele>167</ele>
        <time>2018-03-03T17:53:23.511Z</time>
      </trkpt>
      <trkpt lat="44.61575" lon="0.86155">
        <ele>167</ele>
        <time>2018-03-03T17:53:24.511Z</time>
      </trkpt>
      <trkpt lat="44.61573" lon="0.86157">
        <ele>167</ele>
        <time>2018-03-03T17:53:25.511Z</time>
      </trkpt>
      <trkpt lat="44.61572" lon="0.8616">
        <ele>167</ele>
        <time>2018-03-03T17:53:26.511Z</time>
      </trkpt>
      <trkpt lat="44.6157" lon="0.86162">
        <ele>167</ele>
        <time>2018-03-03T17:53:27.511Z</time>
      </trkpt>
      <trkpt lat="44.61569" lon="0.86165">
        <ele>168</ele>
        <time>2018-03-03T17:53:28.511Z</time>
      </trkpt>
      <trkpt lat="44.61567" lon="0.86167">
        <ele>168</ele>
        <time>2018-03-03T17:53:29.511Z</time>
      </trkpt>
      <trkpt lat="44.61566" lon="0.86169">
        <ele>168</ele>
        <time>2018-03-03T17:53:30.511Z</time>
      </trkpt>
      <trkpt lat="44.61564" lon="0.86172">
        <ele>168</ele>
        <time>2018-03-03T17:53:31.511Z</time>
      </trkpt>
      <trkpt lat="44.61563" lon="0.86174">
        <ele>169</ele>
        <time>2018-03-03T17:53:32.511Z</time>
      </trkpt>
      <trkpt lat="44.61562" lon="0.86177">
        <ele>169</ele>
        <time>2018-03-03T17:53:33.511Z</time>
      </trkpt>
      <trkpt lat="44.6156" lon="0.86179">
        <ele>169</ele>
        <time>2018-03-03T17:53:34.511Z</time>
      </trkpt>
      <trkpt lat="44.61559" lon="0.86182">
        <ele>169</ele>
        <time>2018-03-03T17:53:35.511Z</time>
      </trkpt>
      <trkpt lat="44.61557" lon="0.86184">
        <ele>169</ele>
        <time>2018-03-03T17:53:36.511Z</time>
      </trkpt>
      <trkpt lat="44.61556" lon="0.86187">
        <ele>169</ele>
        <time>2018-03-03T17:53:37.511Z</time>
      </trkpt>
      <trkpt lat="44.61554" lon="0.86189">
        <ele>169</ele>
        <time>2018-03-03T17:53:38.511Z</time>
      </trkpt>
      <trkpt lat="44.61553" lon="0.86192">
        <ele>169</ele>
        <time>2018-03-03T17:53:39.511Z</time>
      </trkpt>
      <trkpt lat="44.61552" lon="0.86194">
        <ele>169</ele>
        <time>2018-03-03T17:53:40.511Z</time>
      </trkpt>
      <trkpt lat="44.6155" lon="0.86197">
        <ele>169</ele>
        <time>2018-03-03T17:53:41.511Z</time>
      </trkpt>
      <trkpt lat="44.61549" lon="0.86199">
        <ele>169</ele>
        <time>2018-03-03T17:53:42.511Z</time>
      </trkpt>
      <trkpt lat="44.61547" lon="0.86202">
        <ele>170</ele>
        <time>2018-03-03T17:53:43.511Z</time>
      </trkpt>
      <trkpt lat="44.61546" lon="0.86204">
        <ele>170</ele>
        <time>2018-03-03T17:53:44.511Z</time>
      </trkpt>
      <trkpt lat="44.61544" lon="0.86207">
        <ele>170</ele>
        <time>2018-03-03T17:53:45.511Z</time>
      </trkpt>
      <trkpt lat="44.61543" lon="0.86209">
        <ele>170</ele>
        <time>2018-03-03T17:53:46.511Z</time>
      </trkpt>
      <trkpt lat="44.61541" lon="0.86212">
        <ele>170</ele>
        <time>2018-03-03T17:53:47.511Z</time>
      </trkpt>
      <trkpt lat="44.6154" lon="0.86214">
        <ele>170</ele>
        <time>2018-03-03T17:53:48.511Z</time>
      </trkpt>
      <trkpt lat="44.61538" lon="0.86217">
        <ele>170</ele>
        <time>2018-03-03T17:53:49.511Z</time>
      </trkpt>
      <trkpt lat="44.61536" lon="0.86219">
        <ele>170</ele>
        <time>2018-03-03T17:53:50.511Z</time>
      </trkpt>
      <trkpt lat="44.61535" lon="0.86222">
        <ele>170</ele>
        <time>2018-03-03T17:53:51.511Z</time>
      </trkpt>
      <trkpt lat="44.61533" lon="0.86225">
        <ele>171</ele>
        <time>2018-03-03T17:53:52.511Z</time>
      </trkpt>
      <trkpt lat="44.61532" lon="0.86227">
        <ele>171</ele>
        <time>2018-03-03T17:53:53.511Z</time>
      </trkpt>
      <trkpt lat="44.6153" lon="0.8623">
        <ele>171</ele>
        <time>2018-03-03T17:53:54.511Z</time>
      </trkpt>
      <trkpt lat="44.61528" lon="0.86232">
        <ele>171</ele>
        <time>2018-03-03T17:53:55.511Z</time>
      </trkpt>
      <trkpt lat="44.61527" lon="0.86235">
        <ele>171</ele>
        <time>2018-03-03T17:53:56.511Z</time>
      </trkpt>
      <trkpt lat="44.61525" lon="0.86238">
        <ele>171</ele>
        <time>2018-03-03T17:53:57.511Z</time>
      </trkpt>
      <trkpt lat="44.61524" lon="0.8624">
        <ele>171</ele>
        <time>2018-03-03T17:53:58.511Z</time>
      </trkpt>
      <trkpt lat="44.61522" lon="0.86243">
        <ele>171</ele>
        <time>2018-03-03T17:53:59.511Z</time>
      </trkpt>
      <trkpt lat="44.6152" lon="0.86245">
        <ele>172</ele>
        <time>2018-03-03T17:54:00.511Z</time>
      </trkpt>
      <trkpt lat="44.61519" lon="0.86248">
        <ele>172</ele>
        <time>2018-03-03T17:54:01.511Z</time>
      </trkpt>
      <trkpt lat="44.61517" lon="0.8625">
        <ele>172</ele>
        <time>2018-03-03T17:54:02.511Z</time>
      </trkpt>
      <trkpt lat="44.61516" lon="0.86253">
        <ele>172</ele>
        <time>2018-03-03T17:54:03.511Z</time>
      </trkpt>
      <trkpt lat="44.61515" lon="0.86255">
        <ele>172</ele>
        <time>2018-03-03T17:54:04.511Z</time>
      </trkpt>
      <trkpt lat="44.61513" lon="0.86258">
        <ele>172</ele>
        <time>2018-03-03T17:54:05.511Z</time>
      </trkpt>
      <trkpt lat="44.61512" lon="0.8626">
        <ele>172</ele>
        <time>2018-03-03T17:54:06.511Z</time>
      </trkpt>
      <trkpt lat="44.6151" lon="0.86262">
        <ele>172</ele>
        <time>2018-03-03T17:54:07.511Z</time>
      </trkpt>
      <trkpt lat="44.61509" lon="0.86265">
        <ele>172</ele>
        <time>2018-03-03T17:54:08.511Z</time>
      </trkpt>
      <trkpt lat="44.61508" lon="0.86267">
        <ele>173</ele>
        <time>2018-03-03T17:54:09.511Z</time>
      </trkpt>
      <trkpt lat="44.61506" lon="0.8627">
        <ele>173</ele>
        <time>2018-03-03T17:54:10.511Z</time>
      </trkpt>
      <trkpt lat="44.61505" lon="0.86272">
        <ele>173</ele>
        <time>2018-03-03T17:54:11.511Z</time>
      </trkpt>
      <trkpt lat="44.61503" lon="0.86275">
        <ele>173</ele>
        <time>2018-03-03T17:54:12.511Z</time>
      </trkpt>
      <trkpt lat="44.61502" lon="0.86277">
        <ele>173</ele>
        <time>2018-03-03T17:54:13.511Z</time>
      </trkpt>
      <trkpt lat="44.615" lon="0.8628">
        <ele>173</ele>
        <time>2018-03-03T17:54:14.511Z</time>
      </trkpt>
      <trkpt lat="44.61499" lon="0.86282">
        <ele>174</ele>
        <time>2018-03-03T17:54:15.511Z</time>
      </trkpt>
      <trkpt lat="44.61497" lon="0.86285">
        <ele>174</ele>
        <time>2018-03-03T17:54:16.511Z</time>
      </trkpt>
      <trkpt lat="44.61495" lon="0.86288">
        <ele>174</ele>
        <time>2018-03-03T17:54:17.511Z</time>
      </trkpt>
      <trkpt lat="44.61493" lon="0.86291">
        <ele>174</ele>
        <time>2018-03-03T17:54:18.511Z</time>
      </trkpt>
      <trkpt lat="44.61491" lon="0.86293">
        <ele>174</ele>
        <time>2018-03-03T17:54:19.511Z</time>
      </trkpt>
      <trkpt lat="44.6149" lon="0.86296">
        <ele>174</ele>
        <time>2018-03-03T17:54:20.511Z</time>
      </trkpt>
      <trkpt lat="44.61488" lon="0.86299">
        <ele>174</ele>
        <time>2018-03-03T17:54:21.511Z</time>
      </trkpt>
      <trkpt lat="44.61486" lon="0.86302">
        <ele>174</ele>
        <time>2018-03-03T17:54:22.511Z</time>
      </trkpt>
      <trkpt lat="44.61485" lon="0.86304">
        <ele>174</ele>
        <time>2018-03-03T17:54:23.511Z</time>
      </trkpt>
      <trkpt lat="44.61483" lon="0.86307">
        <ele>175</ele>
        <time>2018-03-03T17:54:24.511Z</time>
      </trkpt>
      <trkpt lat="44.61481" lon="0.86309">
        <ele>175</ele>
        <time>2018-03-03T17:54:25.511Z</time>
      </trkpt>
      <trkpt lat="44.6148" lon="0.86311">
        <ele>175</ele>
        <time>2018-03-03T17:54:26.511Z</time>
      </trkpt>
      <trkpt lat="44.61478" lon="0.86314">
        <ele>175</ele>
        <time>2018-03-03T17:54:27.511Z</time>
      </trkpt>
      <trkpt lat="44.61477" lon="0.86316">
        <ele>175</ele>
        <time>2018-03-03T17:54:28.511Z</time>
      </trkpt>
      <trkpt lat="44.61475" lon="0.86318">
        <ele>176</ele>
        <time>2018-03-03T17:54:29.511Z</time>
      </trkpt>
      <trkpt lat="44.61474" lon="0.8632">
        <ele>176</ele>
        <time>2018-03-03T17:54:30.511Z</time>
      </trkpt>
      <trkpt lat="44.61472" lon="0.86321">
        <ele>176</ele>
        <time>2018-03-03T17:54:31.511Z</time>
      </trkpt>
      <trkpt lat="44.61471" lon="0.86323">
        <ele>176</ele>
        <time>2018-03-03T17:54:32.511Z</time>
      </trkpt>
      <trkpt lat="44.61469" lon="0.86325">
        <ele>176</ele>
        <time>2018-03-03T17:54:33.511Z</time>
      </trkpt>
      <trkpt lat="44.61468" lon="0.86327">
        <ele>176</ele>
        <time>2018-03-03T17:54:34.511Z</time>
      </trkpt>
      <trkpt lat="44.61466" lon="0.86329">
        <ele>176</ele>
        <time>2018-03-03T17:54:35.511Z</time>
      </trkpt>
      <trkpt lat="44.61465" lon="0.86331">
        <ele>176</ele>
        <time>2018-03-03T17:54:36.511Z</time>
      </trkpt>
      <trkpt lat="44.61463" lon="0.86333">
        <ele>176</ele>
        <time>2018-03-03T17:54:37.511Z</time>
      </trkpt>
      <trkpt lat="44.61462" lon="0.86336">
        <ele>176</ele>
        <time>2018-03-03T17:54:38.511Z</time>
      </trkpt>
      <trkpt lat="44.61461" lon="0.8634">
        <ele>176</ele>
        <time>2018-03-03T17:54:39.511Z</time>
      </trkpt>
      <trkpt lat="44.6146" lon="0.86343">
        <ele>176</ele>
        <time>2018-03-03T17:54:40.511Z</time>
      </trkpt>
      <trkpt lat="44.6146" lon="0.86347">
        <ele>176</ele>
        <time>2018-03-03T17:54:41.511Z</time>
      </trkpt>
      <trkpt lat="44.61459" lon="0.86351">
        <ele>176</ele>
        <time>2018-03-03T17:54:42.511Z</time>
      </trkpt>
      <trkpt lat="44.61459" lon="0.86356">
        <ele>176</ele>
        <time>2018-03-03T17:54:43.511Z</time>
      </trkpt>
      <trkpt lat="44.61459" lon="0.8636">
        <ele>176</ele>
        <time>2018-03-03T17:54:44.511Z</time>
      </trkpt>
      <trkpt lat="44.61459" lon="0.86365">
        <ele>176</ele>
        <time>2018-03-03T17:54:45.511Z</time>
      </trkpt>
      <trkpt lat="44.61459" lon="0.8637">
        <ele>176</ele>
        <time>2018-03-03T17:54:46.511Z</time>
      </trkpt>
      <trkpt lat="44.61459" lon="0.86374">
        <ele>176</ele>
        <time>2018-03-03T17:54:47.511Z</time>
      </trkpt>
      <trkpt lat="44.61459" lon="0.86379">
        <ele>176</ele>
        <time>2018-03-03T17:54:48.511Z</time>
      </trkpt>
      <trkpt lat="44.61459" lon="0.86383">
        <ele>176</ele>
        <time>2018-03-03T17:54:49.511Z</time>
      </trkpt>
      <trkpt lat="44.61458" lon="0.86387">
        <ele>176</ele>
        <time>2018-03-03T17:54:50.511Z</time>
      </trkpt>
      <trkpt lat="44.61456" lon="0.8639">
        <ele>176</ele>
        <time>2018-03-03T17:54:51.511Z</time>
      </trkpt>
      <trkpt lat="44.61455" lon="0.86393">
        <ele>177</ele>
        <time>2018-03-03T17:54:52.511Z</time>
      </trkpt>
      <trkpt lat="44.61453" lon="0.86396">
        <ele>177</ele>
        <time>2018-03-03T17:54:53.511Z</time>
      </trkpt>
      <trkpt lat="44.61451" lon="0.86399">
        <ele>177</ele>
        <time>2018-03-03T17:54:54.511Z</time>
      </trkpt>
      <trkpt lat="44.61449" lon="0.86401">
        <ele>177</ele>
        <time>2018-03-03T17:54:55.511Z</time>
      </trkpt>
      <trkpt lat="44.61447" lon="0.86403">
        <ele>178</ele>
        <time>2018-03-03T17:54:56.511Z</time>
      </trkpt>
      <trkpt lat="44.61445" lon="0.86405">
        <ele>178</ele>
        <time>2018-03-03T17:54:57.511Z</time>
      </trkpt>
      <trkpt lat="44.61443" lon="0.86407">
        <ele>178</ele>
        <time>2018-03-03T17:54:58.511Z</time>
      </trkpt>
      <trkpt lat="44.61441" lon="0.86409">
        <ele>178</ele>
        <time>2018-03-03T17:54:59.511Z</time>
      </trkpt>
      <trkpt lat="44.6144" lon="0.86411">
        <ele>178</ele>
        <time>2018-03-03T17:55:00.511Z</time>
      </trkpt>
      <trkpt lat="44.61438" lon="0.86412">
        <ele>179</ele>
        <time>2018-03-03T17:55:01.511Z</time>
      </trkpt>
      <trkpt lat="44.61437" lon="0.86414">
        <ele>179</ele>
        <time>2018-03-03T17:55:02.511Z</time>
      </trkpt>
      <trkpt lat="44.61435" lon="0.86416">
        <ele>179</ele>
        <time>2018-03-03T17:55:03.511Z</time>
      </trkpt>
      <trkpt lat="44.61434" lon="0.86417">
        <ele>179</ele>
        <time>2018-03-03T17:55:04.511Z</time>
      </trkpt>
      <trkpt lat="44.61433" lon="0.86419">
        <ele>179</ele>
        <time>2018-03-03T17:55:05.511Z</time>
      </trkpt>
      <trkpt lat="44.61432" lon="0.8642">
        <ele>180</ele>
        <time>2018-03-03T17:55:06.511Z</time>
      </trkpt>
      <trkpt lat="44.61431" lon="0.86422">
        <ele>180</ele>
        <time>2018-03-03T17:55:07.511Z</time>
      </trkpt>
      <trkpt lat="44.6143" lon="0.86424">
        <ele>180</ele>
        <time>2018-03-03T17:55:08.511Z</time>
      </trkpt>
      <trkpt lat="44.61429" lon="0.86426">
        <ele>180</ele>
        <time>2018-03-03T17:55:09.511Z</time>
      </trkpt>
      <trkpt lat="44.61428" lon="0.86428">
        <ele>180</ele>
        <time>2018-03-03T17:55:10.511Z</time>
      </trkpt>
      <trkpt lat="44.61427" lon="0.8643">
        <ele>181</ele>
        <time>2018-03-03T17:55:11.511Z</time>
      </trkpt>
      <trkpt lat="44.61426" lon="0.86432">
        <ele>181</ele>
        <time>2018-03-03T17:55:12.511Z</time>
      </trkpt>
      <trkpt lat="44.61425" lon="0.86434">
        <ele>181</ele>
        <time>2018-03-03T17:55:13.511Z</time>
      </trkpt>
      <trkpt lat="44.61424" lon="0.86436">
        <ele>181</ele>
        <time>2018-03-03T17:55:14.511Z</time>
      </trkpt>
      <trkpt lat="44.61423" lon="0.86439">
        <ele>181</ele>
        <time>2018-03-03T17:55:15.511Z</time>
      </trkpt>
      <trkpt lat="44.61422" lon="0.86441">
        <ele>182</ele>
        <time>2018-03-03T17:55:16.511Z</time>
      </trkpt>
      <trkpt lat="44.61421" lon="0.86443">
        <ele>182</ele>
        <time>2018-03-03T17:55:17.511Z</time>
      </trkpt>
      <trkpt lat="44.6142" lon="0.86445">
        <ele>182</ele>
        <time>2018-03-03T17:55:18.511Z</time>
      </trkpt>
      <trkpt lat="44.61419" lon="0.86448">
        <ele>183</ele>
        <time>2018-03-03T17:55:19.511Z</time>
      </trkpt>
      <trkpt lat="44.61418" lon="0.8645">
        <ele>183</ele>
        <time>2018-03-03T17:55:20.511Z</time>
      </trkpt>
      <trkpt lat="44.61417" lon="0.86452">
        <ele>183</ele>
        <time>2018-03-03T17:55:21.511Z</time>
      </trkpt>
      <trkpt lat="44.61416" lon="0.86454">
        <ele>183</ele>
        <time>2018-03-03T17:55:22.511Z</time>
      </trkpt>
      <trkpt lat="44.61415" lon="0.86456">
        <ele>183</ele>
        <time>2018-03-03T17:55:23.511Z</time>
      </trkpt>
      <trkpt lat="44.61414" lon="0.86458">
        <ele>184</ele>
        <time>2018-03-03T17:55:24.511Z</time>
      </trkpt>
      <trkpt lat="44.61413" lon="0.8646">
        <ele>184</ele>
        <time>2018-03-03T17:55:25.511Z</time>
      </trkpt>
      <trkpt lat="44.61412" lon="0.86462">
        <ele>184</ele>
        <time>2018-03-03T17:55:26.511Z</time>
      </trkpt>
      <trkpt lat="44.61411" lon="0.86464">
        <ele>184</ele>
        <time>2018-03-03T17:55:27.511Z</time>
      </trkpt>
      <trkpt lat="44.61409" lon="0.86466">
        <ele>184</ele>
        <time>2018-03-03T17:55:28.511Z</time>
      </trkpt>
      <trkpt lat="44.61408" lon="0.86467">
        <ele>184</ele>
        <time>2018-03-03T17:55:29.511Z</time>
      </trkpt>
      <trkpt lat="44.61407" lon="0.86469">
        <ele>184</ele>
        <time>2018-03-03T17:55:30.511Z</time>
      </trkpt>
      <trkpt lat="44.61406" lon="0.86471">
        <ele>185</ele>
        <time>2018-03-03T17:55:31.511Z</time>
      </trkpt>
      <trkpt lat="44.61405" lon="0.86472">
        <ele>185</ele>
        <time>2018-03-03T17:55:32.511Z</time>
      </trkpt>
      <trkpt lat="44.61403" lon="0.86474">
        <ele>185</ele>
        <time>2018-03-03T17:55:33.511Z</time>
      </trkpt>
      <trkpt lat="44.61402" lon="0.86475">
        <ele>185</ele>
        <time>2018-03-03T17:55:34.511Z</time>
      </trkpt>
      <trkpt lat="44.61401" lon="0.86477">
        <ele>185</ele>
        <time>2018-03-03T17:55:35.511Z</time>
      </trkpt>
      <trkpt lat="44.614" lon="0.86478">
        <ele>185</ele>
        <time>2018-03-03T17:55:36.511Z</time>
      </trkpt>
      <trkpt lat="44.61399" lon="0.8648">
        <ele>185</ele>
        <time>2018-03-03T17:55:37.511Z</time>
      </trkpt>
      <trkpt lat="44.61397" lon="0.86482">
        <ele>186</ele>
        <time>2018-03-03T17:55:38.511Z</time>
      </trkpt>
      <trkpt lat="44.61396" lon="0.86484">
        <ele>186</ele>
        <time>2018-03-03T17:55:39.511Z</time>
      </trkpt>
      <trkpt lat="44.61395" lon="0.86485">
        <ele>186</ele>
        <time>2018-03-03T17:55:40.511Z</time>
      </trkpt>
      <trkpt lat="44.61394" lon="0.86487">
        <ele>186</ele>
        <time>2018-03-03T17:55:41.511Z</time>
      </trkpt>
      <trkpt lat="44.61393" lon="0.86489">
        <ele>186</ele>
        <time>2018-03-03T17:55:42.511Z</time>
      </trkpt>
      <trkpt lat="44.61392" lon="0.86491">
        <ele>186</ele>
        <time>2018-03-03T17:55:43.511Z</time>
      </trkpt>
      <trkpt lat="44.61391" lon="0.86493">
        <ele>186</ele>
        <time>2018-03-03T17:55:44.511Z</time>
      </trkpt>
      <trkpt lat="44.6139" lon="0.86495">
        <ele>186</ele>
        <time>2018-03-03T17:55:45.511Z</time>
      </trkpt>
      <trkpt lat="44.61388" lon="0.86497">
        <ele>186</ele>
        <time>2018-03-03T17:55:46.511Z</time>
      </trkpt>
      <trkpt lat="44.61388" lon="0.86499">
        <ele>186</ele>
        <time>2018-03-03T17:55:47.511Z</time>
      </trkpt>
      <trkpt lat="44.61387" lon="0.86502">
        <ele>186</ele>
        <time>2018-03-03T17:55:48.511Z</time>
      </trkpt>
      <trkpt lat="44.61386" lon="0.86504">
        <ele>186</ele>
        <time>2018-03-03T17:55:49.511Z</time>
      </trkpt>
      <trkpt lat="44.61385" lon="0.86506">
        <ele>187</ele>
        <time>2018-03-03T17:55:50.511Z</time>
      </trkpt>
      <trkpt lat="44.61385" lon="0.86508">
        <ele>187</ele>
        <time>2018-03-03T17:55:51.511Z</time>
      </trkpt>
      <trkpt lat="44.61384" lon="0.8651">
        <ele>187</ele>
        <time>2018-03-03T17:55:52.511Z</time>
      </trkpt>
      <trkpt lat="44.61384" lon="0.86512">
        <ele>187</ele>
        <time>2018-03-03T17:55:53.511Z</time>
      </trkpt>
      <trkpt lat="44.61384" lon="0.86514">
        <ele>187</ele>
        <time>2018-03-03T17:55:54.511Z</time>
      </trkpt>
      <trkpt lat="44.61383" lon="0.86516">
        <ele>187</ele>
        <time>2018-03-03T17:55:55.511Z</time>
      </trkpt>
      <trkpt lat="44.61383" lon="0.86518">
        <ele>187</ele>
        <time>2018-03-03T17:55:56.511Z</time>
      </trkpt>
      <trkpt lat="44.61383" lon="0.86519">
        <ele>187</ele>
        <time>2018-03-03T17:55:57.511Z</time>
      </trkpt>
      <trkpt lat="44.61382" lon="0.8652">
        <ele>187</ele>
        <time>2018-03-03T17:55:58.511Z</time>
      </trkpt>
      <trkpt lat="44.61381" lon="0.86521">
        <ele>187</ele>
        <time>2018-03-03T17:55:59.511Z</time>
      </trkpt>
      <trkpt lat="44.6138" lon="0.86521">
        <ele>187</ele>
        <time>2018-03-03T17:56:00.511Z</time>
      </trkpt>
      <trkpt lat="44.61378" lon="0.86521">
        <ele>187</ele>
        <time>2018-03-03T17:56:01.511Z</time>
      </trkpt>
      <trkpt lat="44.61376" lon="0.8652">
        <ele>187</ele>
        <time>2018-03-03T17:56:02.511Z</time>
      </trkpt>
      <trkpt lat="44.61374" lon="0.86519">
        <ele>187</ele>
        <time>2018-03-03T17:56:03.511Z</time>
      </trkpt>
      <trkpt lat="44.61372" lon="0.86518">
        <ele>187</ele>
        <time>2018-03-03T17:56:04.511Z</time>
      </trkpt>
      <trkpt lat="44.6137" lon="0.86516">
        <ele>187</ele>
        <time>2018-03-03T17:56:05.511Z</time>
      </trkpt>
      <trkpt lat="44.61368" lon="0.86514">
        <ele>187</ele>
        <time>2018-03-03T17:56:06.511Z</time>
      </trkpt>
      <trkpt lat="44.61367" lon="0.86512">
        <ele>187</ele>
        <time>2018-03-03T17:56:07.511Z</time>
      </trkpt>
      <trkpt lat="44.61365" lon="0.8651">
        <ele>187</ele>
        <time>2018-03-03T17:56:08.511Z</time>
      </trkpt>
      <trkpt lat="44.61363" lon="0.86508">
        <ele>188</ele>
        <time>2018-03-03T17:56:09.511Z</time>
      </trkpt>
      <trkpt lat="44.61361" lon="0.86506">
        <ele>188</ele>
        <time>2018-03-03T17:56:10.511Z</time>
      </trkpt>
      <trkpt lat="44.61359" lon="0.86503">
        <ele>188</ele>
        <time>2018-03-03T17:56:11.511Z</time>
      </trkpt>
      <trkpt lat="44.61357" lon="0.86501">
        <ele>188</ele>
        <time>2018-03-03T17:56:12.511Z</time>
      </trkpt>
      <trkpt lat="44.61355" lon="0.86499">
        <ele>188</ele>
        <time>2018-03-03T17:56:13.511Z</time>
      </trkpt>
      <trkpt lat="44.61352" lon="0.86496">
        <ele>188</ele>
        <time>2018-03-03T17:56:14.511Z</time>
      </trkpt>
      <trkpt lat="44.6135" lon="0.86494">
        <ele>188</ele>
        <time>2018-03-03T17:56:15.511Z</time>
      </trkpt>
      <trkpt lat="44.61347" lon="0.86491">
        <ele>188</ele>
        <time>2018-03-03T17:56:16.511Z</time>
      </trkpt>
      <trkpt lat="44.61345" lon="0.86489">
        <ele>188</ele>
        <time>2018-03-03T17:56:17.511Z</time>
      </trkpt>
      <trkpt lat="44.61342" lon="0.86486">
        <ele>188</ele>
        <time>2018-03-03T17:56:18.511Z</time>
      </trkpt>
      <trkpt lat="44.6134" lon="0.86484">
        <ele>188</ele>
        <time>2018-03-03T17:56:19.511Z</time>
      </trkpt>
      <trkpt lat="44.61337" lon="0.86481">
        <ele>188</ele>
        <time>2018-03-03T17:56:20.511Z</time>
      </trkpt>
      <trkpt lat="44.61334" lon="0.86479">
        <ele>188</ele>
        <time>2018-03-03T17:56:21.511Z</time>
      </trkpt>
      <trkpt lat="44.61331" lon="0.86476">
        <ele>188</ele>
        <time>2018-03-03T17:56:22.511Z</time>
      </trkpt>
      <trkpt lat="44.61328" lon="0.86474">
        <ele>188</ele>
        <time>2018-03-03T17:56:23.511Z</time>
      </trkpt>
      <trkpt lat="44.61325" lon="0.86471">
        <ele>188</ele>
        <time>2018-03-03T17:56:24.511Z</time>
      </trkpt>
      <trkpt lat="44.61322" lon="0.86468">
        <ele>188</ele>
        <time>2018-03-03T17:56:25.511Z</time>
      </trkpt>
      <trkpt lat="44.61319" lon="0.86466">
        <ele>188</ele>
        <time>2018-03-03T17:56:26.511Z</time>
      </trkpt>
      <trkpt lat="44.61317" lon="0.86463">
        <ele>188</ele>
        <time>2018-03-03T17:56:27.511Z</time>
      </trkpt>
      <trkpt lat="44.61314" lon="0.8646">
        <ele>188</ele>
        <time>2018-03-03T17:56:28.511Z</time>
      </trkpt>
      <trkpt lat="44.61311" lon="0.86458">
        <ele>188</ele>
        <time>2018-03-03T17:56:29.511Z</time>
      </trkpt>
      <trkpt lat="44.61308" lon="0.86455">
        <ele>188</ele>
        <time>2018-03-03T17:56:30.511Z</time>
      </trkpt>
      <trkpt lat="44.61305" lon="0.86452">
        <ele>188</ele>
        <time>2018-03-03T17:56:31.511Z</time>
      </trkpt>
      <trkpt lat="44.61302" lon="0.8645">
        <ele>188</ele>
        <time>2018-03-03T17:56:32.511Z</time>
      </trkpt>
      <trkpt lat="44.613" lon="0.86448">
        <ele>188</ele>
        <time>2018-03-03T17:56:33.511Z</time>
      </trkpt>
      <trkpt lat="44.61297" lon="0.86445">
        <ele>188</ele>
        <time>2018-03-03T17:56:34.511Z</time>
      </trkpt>
      <trkpt lat="44.61294" lon="0.86443">
        <ele>188</ele>
        <time>2018-03-03T17:56:35.511Z</time>
      </trkpt>
      <trkpt lat="44.61292" lon="0.86441">
        <ele>188</ele>
        <time>2018-03-03T17:56:36.511Z</time>
      </trkpt>
      <trkpt lat="44.61289" lon="0.86439">
        <ele>188</ele>
        <time>2018-03-03T17:56:37.511Z</time>
      </trkpt>
      <trkpt lat="44.61286" lon="0.86436">
        <ele>188</ele>
        <time>2018-03-03T17:56:38.511Z</time>
      </trkpt>
      <trkpt lat="44.61283" lon="0.86434">
        <ele>188</ele>
        <time>2018-03-03T17:56:39.511Z</time>
      </trkpt>
      <trkpt lat="44.6128" lon="0.86431">
        <ele>188</ele>
        <time>2018-03-03T17:56:40.511Z</time>
      </trkpt>
      <trkpt lat="44.61277" lon="0.86428">
        <ele>188</ele>
        <time>2018-03-03T17:56:41.511Z</time>
      </trkpt>
      <trkpt lat="44.61274" lon="0.86425">
        <ele>188</ele>
        <time>2018-03-03T17:56:42.511Z</time>
      </trkpt>
      <trkpt lat="44.61271" lon="0.86421">
        <ele>188</ele>
        <time>2018-03-03T17:56:43.511Z</time>
      </trkpt>
      <trkpt lat="44.61267" lon="0.86417">
        <ele>187</ele>
        <time>2018-03-03T17:56:44.511Z</time>
      </trkpt>
      <trkpt lat="44.61263" lon="0.86414">
        <ele>187</ele>
        <time>2018-03-03T17:56:45.511Z</time>
      </trkpt>
      <trkpt lat="44.61259" lon="0.86411">
        <ele>187</ele>
        <time>2018-03-03T17:56:46.511Z</time>
      </trkpt>
      <trkpt lat="44.61254" lon="0.8641">
        <ele>187</ele>
        <time>2018-03-03T17:56:47.511Z</time>
      </trkpt>
      <trkpt lat="44.61249" lon="0.8641">
        <ele>186</ele>
        <time>2018-03-03T17:56:48.511Z</time>
      </trkpt>
      <trkpt lat="44.61244" lon="0.86411">
        <ele>186</ele>
        <time>2018-03-03T17:56:49.511Z</time>
      </trkpt>
      <trkpt lat="44.61239" lon="0.86414">
        <ele>185</ele>
        <time>2018-03-03T17:56:50.511Z</time>
      </trkpt>
      <trkpt lat="44.61235" lon="0.86419">
        <ele>185</ele>
        <time>2018-03-03T17:56:51.511Z</time>
      </trkpt>
      <trkpt lat="44.61231" lon="0.86425">
        <ele>185</ele>
        <time>2018-03-03T17:56:52.511Z</time>
      </trkpt>
      <trkpt lat="44.61228" lon="0.8643">
        <ele>185</ele>
        <time>2018-03-03T17:56:53.511Z</time>
      </trkpt>
      <trkpt lat="44.61224" lon="0.86435">
        <ele>185</ele>
        <time>2018-03-03T17:56:54.511Z</time>
      </trkpt>
      <trkpt lat="44.61221" lon="0.8644">
        <ele>185</ele>
        <time>2018-03-03T17:56:55.511Z</time>
      </trkpt>
      <trkpt lat="44.61218" lon="0.86445">
        <ele>185</ele>
        <time>2018-03-03T17:56:56.511Z</time>
      </trkpt>
      <trkpt lat="44.61214" lon="0.8645">
        <ele>185</ele>
        <time>2018-03-03T17:56:57.511Z</time>
      </trkpt>
      <trkpt lat="44.61211" lon="0.86454">
        <ele>185</ele>
        <time>2018-03-03T17:56:58.511Z</time>
      </trkpt>
      <trkpt lat="44.61208" lon="0.86458">
        <ele>185</ele>
        <time>2018-03-03T17:56:59.511Z</time>
      </trkpt>
      <trkpt lat="44.61205" lon="0.86463">
        <ele>185</ele>
        <time>2018-03-03T17:57:00.511Z</time>
      </trkpt>
      <trkpt lat="44.61201" lon="0.86467">
        <ele>185</ele>
        <time>2018-03-03T17:57:01.511Z</time>
      </trkpt>
      <trkpt lat="44.61198" lon="0.86471">
        <ele>185</ele>
        <time>2018-03-03T17:57:02.511Z</time>
      </trkpt>
      <trkpt lat="44.61195" lon="0.86475">
        <ele>185</ele>
        <time>2018-03-03T17:57:03.511Z</time>
      </trkpt>
      <trkpt lat="44.61192" lon="0.86479">
        <ele>185</ele>
        <time>2018-03-03T17:57:04.511Z</time>
      </trkpt>
      <trkpt lat="44.61189" lon="0.86482">
        <ele>185</ele>
        <time>2018-03-03T17:57:05.511Z</time>
      </trkpt>
      <trkpt lat="44.61186" lon="0.86486">
        <ele>185</ele>
        <time>2018-03-03T17:57:06.511Z</time>
      </trkpt>
      <trkpt lat="44.61183" lon="0.8649">
        <ele>185</ele>
        <time>2018-03-03T17:57:07.511Z</time>
      </trkpt>
      <trkpt lat="44.6118" lon="0.86494">
        <ele>185</ele>
        <time>2018-03-03T17:57:08.511Z</time>
      </trkpt>
      <trkpt lat="44.61177" lon="0.86498">
        <ele>186</ele>
        <time>2018-03-03T17:57:09.511Z</time>
      </trkpt>
      <trkpt lat="44.61175" lon="0.86502">
        <ele>186</ele>
        <time>2018-03-03T17:57:10.511Z</time>
      </trkpt>
      <trkpt lat="44.61172" lon="0.86507">
        <ele>186</ele>
        <time>2018-03-03T17:57:11.511Z</time>
      </trkpt>
      <trkpt lat="44.61169" lon="0.86511">
        <ele>186</ele>
        <time>2018-03-03T17:57:12.511Z</time>
      </trkpt>
      <trkpt lat="44.61167" lon="0.86516">
        <ele>186</ele>
        <time>2018-03-03T17:57:13.511Z</time>
      </trkpt>
      <trkpt lat="44.61164" lon="0.86521">
        <ele>186</ele>
        <time>2018-03-03T17:57:14.511Z</time>
      </trkpt>
      <trkpt lat="44.61162" lon="0.86526">
        <ele>186</ele>
        <time>2018-03-03T17:57:15.511Z</time>
      </trkpt>
      <trkpt lat="44.61159" lon="0.86532">
        <ele>185</ele>
        <time>2018-03-03T17:57:16.511Z</time>
      </trkpt>
      <trkpt lat="44.61157" lon="0.86538">
        <ele>185</ele>
        <time>2018-03-03T17:57:17.511Z</time>
      </trkpt>
      <trkpt lat="44.61155" lon="0.86544">
        <ele>185</ele>
        <time>2018-03-03T17:57:18.511Z</time>
      </trkpt>
      <trkpt lat="44.61154" lon="0.86551">
        <ele>185</ele>
        <time>2018-03-03T17:57:19.511Z</time>
      </trkpt>
      <trkpt lat="44.61152" lon="0.86558">
        <ele>185</ele>
        <time>2018-03-03T17:57:20.511Z</time>
      </trkpt>
      <trkpt lat="44.61151" lon="0.86566">
        <ele>184</ele>
        <time>2018-03-03T17:57:21.511Z</time>
      </trkpt>
      <trkpt lat="44.61149" lon="0.86574">
        <ele>184</ele>
        <time>2018-03-03T17:57:22.511Z</time>
      </trkpt>
      <trkpt lat="44.61147" lon="0.86581">
        <ele>184</ele>
        <time>2018-03-03T17:57:23.511Z</time>
      </trkpt>
      <trkpt lat="44.61146" lon="0.86588">
        <ele>184</ele>
        <time>2018-03-03T17:57:24.511Z</time>
      </trkpt>
      <trkpt lat="44.61143" lon="0.86595">
        <ele>184</ele>
        <time>2018-03-03T17:57:25.511Z</time>
      </trkpt>
      <trkpt lat="44.61141" lon="0.86602">
        <ele>184</ele>
        <time>2018-03-03T17:57:26.511Z</time>
      </trkpt>
      <trkpt lat="44.61139" lon="0.8661">
        <ele>183</ele>
        <time>2018-03-03T17:57:27.511Z</time>
      </trkpt>
      <trkpt lat="44.61137" lon="0.86616">
        <ele>183</ele>
        <time>2018-03-03T17:57:28.511Z</time>
      </trkpt>
      <trkpt lat="44.61136" lon="0.86623">
        <ele>183</ele>
        <time>2018-03-03T17:57:29.511Z</time>
      </trkpt>
      <trkpt lat="44.61135" lon="0.86629">
        <ele>182</ele>
        <time>2018-03-03T17:57:30.511Z</time>
      </trkpt>
      <trkpt lat="44.61134" lon="0.86635">
        <ele>182</ele>
        <time>2018-03-03T17:57:31.511Z</time>
      </trkpt>
      <trkpt lat="44.61133" lon="0.86643">
        <ele>181</ele>
        <time>2018-03-03T17:57:32.511Z</time>
      </trkpt>
      <trkpt lat="44.61133" lon="0.86651">
        <ele>181</ele>
        <time>2018-03-03T17:57:33.511Z</time>
      </trkpt>
      <trkpt lat="44.61132" lon="0.86659">
        <ele>181</ele>
        <time>2018-03-03T17:57:34.511Z</time>
      </trkpt>
      <trkpt lat="44.61132" lon="0.86666">
        <ele>180</ele>
        <time>2018-03-03T17:57:35.511Z</time>
      </trkpt>
      <trkpt lat="44.61131" lon="0.86672">
        <ele>180</ele>
        <time>2018-03-03T17:57:36.511Z</time>
      </trkpt>
      <trkpt lat="44.61128" lon="0.86677">
        <ele>180</ele>
        <time>2018-03-03T17:57:37.511Z</time>
      </trkpt>
      <trkpt lat="44.61125" lon="0.86682">
        <ele>180</ele>
        <time>2018-03-03T17:57:38.511Z</time>
      </trkpt>
      <trkpt lat="44.61122" lon="0.86686">
        <ele>179</ele>
        <time>2018-03-03T17:57:39.511Z</time>
      </trkpt>
      <trkpt lat="44.6112" lon="0.86691">
        <ele>179</ele>
        <time>2018-03-03T17:57:40.511Z</time>
      </trkpt>
      <trkpt lat="44.61118" lon="0.86695">
        <ele>178</ele>
        <time>2018-03-03T17:57:41.511Z</time>
      </trkpt>
      <trkpt lat="44.61117" lon="0.867">
        <ele>178</ele>
        <time>2018-03-03T17:57:42.511Z</time>
      </trkpt>
      <trkpt lat="44.61116" lon="0.86705">
        <ele>178</ele>
        <time>2018-03-03T17:57:43.511Z</time>
      </trkpt>
      <trkpt lat="44.61116" lon="0.8671">
        <ele>178</ele>
        <time>2018-03-03T17:57:44.511Z</time>
      </trkpt>
      <trkpt lat="44.61115" lon="0.86715">
        <ele>178</ele>
        <time>2018-03-03T17:57:45.511Z</time>
      </trkpt>
      <trkpt lat="44.61115" lon="0.86721">
        <ele>178</ele>
        <time>2018-03-03T17:57:46.511Z</time>
      </trkpt>
      <trkpt lat="44.61114" lon="0.86727">
        <ele>178</ele>
        <time>2018-03-03T17:57:47.511Z</time>
      </trkpt>
      <trkpt lat="44.61113" lon="0.86734">
        <ele>178</ele>
        <time>2018-03-03T17:57:48.511Z</time>
      </trkpt>
      <trkpt lat="44.61111" lon="0.8674">
        <ele>178</ele>
        <time>2018-03-03T17:57:49.511Z</time>
      </trkpt>
      <trkpt lat="44.61109" lon="0.86747">
        <ele>177</ele>
        <time>2018-03-03T17:57:50.511Z</time>
      </trkpt>
      <trkpt lat="44.61107" lon="0.86755">
        <ele>177</ele>
        <time>2018-03-03T17:57:51.511Z</time>
      </trkpt>
      <trkpt lat="44.61105" lon="0.86762">
        <ele>177</ele>
        <time>2018-03-03T17:57:52.511Z</time>
      </trkpt>
      <trkpt lat="44.61103" lon="0.86769">
        <ele>176</ele>
        <time>2018-03-03T17:57:53.511Z</time>
      </trkpt>
      <trkpt lat="44.61101" lon="0.86777">
        <ele>176</ele>
        <time>2018-03-03T17:57:54.511Z</time>
      </trkpt>
      <trkpt lat="44.611" lon="0.86784">
        <ele>176</ele>
        <time>2018-03-03T17:57:55.511Z</time>
      </trkpt>
      <trkpt lat="44.61099" lon="0.86791">
        <ele>175</ele>
        <time>2018-03-03T17:57:56.511Z</time>
      </trkpt>
      <trkpt lat="44.61098" lon="0.86798">
        <ele>175</ele>
        <time>2018-03-03T17:57:57.511Z</time>
      </trkpt>
      <trkpt lat="44.61097" lon="0.86805">
        <ele>175</ele>
        <time>2018-03-03T17:57:58.511Z</time>
      </trkpt>
      <trkpt lat="44.61096" lon="0.86811">
        <ele>174</ele>
        <time>2018-03-03T17:57:59.511Z</time>
      </trkpt>
      <trkpt lat="44.61095" lon="0.86816">
        <ele>174</ele>
        <time>2018-03-03T17:58:00.511Z</time>
      </trkpt>
      <trkpt lat="44.61093" lon="0.86822">
        <ele>174</ele>
        <time>2018-03-03T17:58:01.511Z</time>
      </trkpt>
      <trkpt lat="44.61091" lon="0.86826">
        <ele>174</ele>
        <time>2018-03-03T17:58:02.511Z</time>
      </trkpt>
      <trkpt lat="44.61088" lon="0.86831">
        <ele>174</ele>
        <time>2018-03-03T17:58:03.511Z</time>
      </trkpt>
      <trkpt lat="44.61086" lon="0.86835">
        <ele>174</ele>
        <time>2018-03-03T17:58:04.511Z</time>
      </trkpt>
      <trkpt lat="44.61083" lon="0.86839">
        <ele>174</ele>
        <time>2018-03-03T17:58:05.511Z</time>
      </trkpt>
      <trkpt lat="44.6108" lon="0.86844">
        <ele>174</ele>
        <time>2018-03-03T17:58:06.511Z</time>
      </trkpt>
      <trkpt lat="44.61078" lon="0.86849">
        <ele>174</ele>
        <time>2018-03-03T17:58:07.511Z</time>
      </trkpt>
      <trkpt lat="44.61077" lon="0.86854">
        <ele>174</ele>
        <time>2018-03-03T17:58:08.511Z</time>
      </trkpt>
      <trkpt lat="44.61076" lon="0.86861">
        <ele>174</ele>
        <time>2018-03-03T17:58:09.511Z</time>
      </trkpt>
      <trkpt lat="44.61076" lon="0.86867">
        <ele>173</ele>
        <time>2018-03-03T17:58:10.511Z</time>
      </trkpt>
      <trkpt lat="44.61076" lon="0.86873">
        <ele>173</ele>
        <time>2018-03-03T17:58:11.511Z</time>
      </trkpt>
      <trkpt lat="44.61075" lon="0.86879">
        <ele>173</ele>
        <time>2018-03-03T17:58:12.511Z</time>
      </trkpt>
      <trkpt lat="44.61075" lon="0.86884">
        <ele>172</ele>
        <time>2018-03-03T17:58:13.511Z</time>
      </trkpt>
      <trkpt lat="44.61074" lon="0.86889">
        <ele>172</ele>
        <time>2018-03-03T17:58:14.511Z</time>
      </trkpt>
      <trkpt lat="44.61073" lon="0.86893">
        <ele>172</ele>
        <time>2018-03-03T17:58:15.511Z</time>
      </trkpt>
      <trkpt lat="44.61071" lon="0.86898">
        <ele>172</ele>
        <time>2018-03-03T17:58:16.511Z</time>
      </trkpt>
      <trkpt lat="44.61069" lon="0.86903">
        <ele>171</ele>
        <time>2018-03-03T17:58:17.511Z</time>
      </trkpt>
      <trkpt lat="44.61066" lon="0.86908">
        <ele>172</ele>
        <time>2018-03-03T17:58:18.511Z</time>
      </trkpt>
      <trkpt lat="44.61063" lon="0.86914">
        <ele>171</ele>
        <time>2018-03-03T17:58:19.511Z</time>
      </trkpt>
      <trkpt lat="44.6106" lon="0.86919">
        <ele>171</ele>
        <time>2018-03-03T17:58:20.511Z</time>
      </trkpt>
      <trkpt lat="44.61057" lon="0.86924">
        <ele>171</ele>
        <time>2018-03-03T17:58:21.511Z</time>
      </trkpt>
      <trkpt lat="44.61054" lon="0.86929">
        <ele>171</ele>
        <time>2018-03-03T17:58:22.511Z</time>
      </trkpt>
      <trkpt lat="44.61051" lon="0.86933">
        <ele>170</ele>
        <time>2018-03-03T17:58:23.511Z</time>
      </trkpt>
      <trkpt lat="44.61049" lon="0.86938">
        <ele>170</ele>
        <time>2018-03-03T17:58:24.511Z</time>
      </trkpt>
      <trkpt lat="44.61047" lon="0.86942">
        <ele>169</ele>
        <time>2018-03-03T17:58:25.511Z</time>
      </trkpt>
      <trkpt lat="44.61045" lon="0.86948">
        <ele>169</ele>
        <time>2018-03-03T17:58:26.511Z</time>
      </trkpt>
      <trkpt lat="44.61044" lon="0.86955">
        <ele>168</ele>
        <time>2018-03-03T17:58:27.511Z</time>
      </trkpt>
      <trkpt lat="44.61043" lon="0.86963">
        <ele>168</ele>
        <time>2018-03-03T17:58:28.511Z</time>
      </trkpt>
      <trkpt lat="44.61043" lon="0.8697">
        <ele>168</ele>
        <time>2018-03-03T17:58:29.511Z</time>
      </trkpt>
      <trkpt lat="44.61043" lon="0.86976">
        <ele>167</ele>
        <time>2018-03-03T17:58:30.511Z</time>
      </trkpt>
      <trkpt lat="44.61043" lon="0.86982">
        <ele>167</ele>
        <time>2018-03-03T17:58:31.511Z</time>
      </trkpt>
      <trkpt lat="44.61043" lon="0.86987">
        <ele>167</ele>
        <time>2018-03-03T17:58:32.511Z</time>
      </trkpt>
      <trkpt lat="44.61042" lon="0.86992">
        <ele>167</ele>
        <time>2018-03-03T17:58:33.511Z</time>
      </trkpt>
      <trkpt lat="44.61041" lon="0.86997">
        <ele>167</ele>
        <time>2018-03-03T17:58:34.511Z</time>
      </trkpt>
      <trkpt lat="44.61039" lon="0.87003">
        <ele>167</ele>
        <time>2018-03-03T17:58:35.511Z</time>
      </trkpt>
      <trkpt lat="44.61037" lon="0.87008">
        <ele>167</ele>
        <time>2018-03-03T17:58:36.511Z</time>
      </trkpt>
      <trkpt lat="44.61035" lon="0.87013">
        <ele>167</ele>
        <time>2018-03-03T17:58:37.511Z</time>
      </trkpt>
      <trkpt lat="44.61033" lon="0.87019">
        <ele>167</ele>
        <time>2018-03-03T17:58:38.511Z</time>
      </trkpt>
      <trkpt lat="44.61032" lon="0.87025">
        <ele>167</ele>
        <time>2018-03-03T17:58:39.511Z</time>
      </trkpt>
      <trkpt lat="44.61031" lon="0.87032">
        <ele>167</ele>
        <time>2018-03-03T17:58:40.511Z</time>
      </trkpt>
      <trkpt lat="44.6103" lon="0.87039">
        <ele>167</ele>
        <time>2018-03-03T17:58:41.511Z</time>
      </trkpt>
      <trkpt lat="44.6103" lon="0.87047">
        <ele>167</ele>
        <time>2018-03-03T17:58:42.511Z</time>
      </trkpt>
      <trkpt lat="44.6103" lon="0.87056">
        <ele>167</ele>
        <time>2018-03-03T17:58:43.511Z</time>
      </trkpt>
      <trkpt lat="44.61031" lon="0.87064">
        <ele>167</ele>
        <time>2018-03-03T17:58:44.511Z</time>
      </trkpt>
      <trkpt lat="44.61033" lon="0.87073">
        <ele>166</ele>
        <time>2018-03-03T17:58:45.511Z</time>
      </trkpt>
      <trkpt lat="44.61035" lon="0.87081">
        <ele>166</ele>
        <time>2018-03-03T17:58:46.511Z</time>
      </trkpt>
      <trkpt lat="44.61037" lon="0.87089">
        <ele>166</ele>
        <time>2018-03-03T17:58:47.511Z</time>
      </trkpt>
      <trkpt lat="44.6104" lon="0.87097">
        <ele>166</ele>
        <time>2018-03-03T17:58:48.511Z</time>
      </trkpt>
      <trkpt lat="44.61042" lon="0.87105">
        <ele>165</ele>
        <time>2018-03-03T17:58:49.511Z</time>
      </trkpt>
      <trkpt lat="44.61043" lon="0.87112">
        <ele>165</ele>
        <time>2018-03-03T17:58:50.511Z</time>
      </trkpt>
      <trkpt lat="44.61043" lon="0.87119">
        <ele>165</ele>
        <time>2018-03-03T17:58:51.511Z</time>
      </trkpt>
      <trkpt lat="44.61042" lon="0.87124">
        <ele>165</ele>
        <time>2018-03-03T17:58:52.511Z</time>
      </trkpt>
      <trkpt lat="44.61041" lon="0.87129">
        <ele>165</ele>
        <time>2018-03-03T17:58:53.511Z</time>
      </trkpt>
      <trkpt lat="44.61041" lon="0.87133">
        <ele>164</ele>
        <time>2018-03-03T17:58:54.511Z</time>
      </trkpt>
      <trkpt lat="44.61041" lon="0.87136">
        <ele>164</ele>
        <time>2018-03-03T17:58:55.511Z</time>
      </trkpt>
      <trkpt lat="44.6104" lon="0.87139">
        <ele>164</ele>
        <time>2018-03-03T17:58:56.511Z</time>
      </trkpt>
      <trkpt lat="44.6104" lon="0.87143">
        <ele>164</ele>
        <time>2018-03-03T17:58:57.511Z</time>
      </trkpt>
      <trkpt lat="44.6104" lon="0.87146">
        <ele>164</ele>
        <time>2018-03-03T17:58:58.511Z</time>
      </trkpt>
      <trkpt lat="44.6104" lon="0.8715">
        <ele>163</ele>
        <time>2018-03-03T17:58:59.511Z</time>
      </trkpt>
      <trkpt lat="44.61038" lon="0.87154">
        <ele>163</ele>
        <time>2018-03-03T17:59:00.511Z</time>
      </trkpt>
      <trkpt lat="44.61037" lon="0.87158">
        <ele>163</ele>
        <time>2018-03-03T17:59:01.511Z</time>
      </trkpt>
      <trkpt lat="44.61035" lon="0.87163">
        <ele>163</ele>
        <time>2018-03-03T17:59:02.511Z</time>
      </trkpt>
      <trkpt lat="44.61033" lon="0.87167">
        <ele>163</ele>
        <time>2018-03-03T17:59:03.511Z</time>
      </trkpt>
      <trkpt lat="44.6103" lon="0.87172">
        <ele>163</ele>
        <time>2018-03-03T17:59:04.511Z</time>
      </trkpt>
      <trkpt lat="44.61028" lon="0.87176">
        <ele>163</ele>
        <time>2018-03-03T17:59:05.511Z</time>
      </trkpt>
      <trkpt lat="44.61026" lon="0.87181">
        <ele>163</ele>
        <time>2018-03-03T17:59:06.511Z</time>
      </trkpt>
      <trkpt lat="44.61024" lon="0.87185">
        <ele>163</ele>
        <time>2018-03-03T17:59:07.511Z</time>
      </trkpt>
      <trkpt lat="44.61021" lon="0.8719">
        <ele>163</ele>
        <time>2018-03-03T17:59:08.511Z</time>
      </trkpt>
      <trkpt lat="44.61019" lon="0.87194">
        <ele>163</ele>
        <time>2018-03-03T17:59:09.511Z</time>
      </trkpt>
      <trkpt lat="44.61017" lon="0.87199">
        <ele>163</ele>
        <time>2018-03-03T17:59:10.511Z</time>
      </trkpt>
      <trkpt lat="44.61015" lon="0.87203">
        <ele>163</ele>
        <time>2018-03-03T17:59:11.511Z</time>
      </trkpt>
      <trkpt lat="44.61013" lon="0.87208">
        <ele>163</ele>
        <time>2018-03-03T17:59:12.511Z</time>
      </trkpt>
      <trkpt lat="44.61011" lon="0.87213">
        <ele>163</ele>
        <time>2018-03-03T17:59:13.511Z</time>
      </trkpt>
      <trkpt lat="44.61009" lon="0.87217">
        <ele>163</ele>
        <time>2018-03-03T17:59:14.511Z</time>
      </trkpt>
      <trkpt lat="44.61007" lon="0.87222">
        <ele>163</ele>
        <time>2018-03-03T17:59:15.511Z</time>
      </trkpt>
      <trkpt lat="44.61005" lon="0.87227">
        <ele>163</ele>
        <time>2018-03-03T17:59:16.511Z</time>
      </trkpt>
      <trkpt lat="44.61003" lon="0.87231">
        <ele>163</ele>
        <time>2018-03-03T17:59:17.511Z</time>
      </trkpt>
      <trkpt lat="44.61001" lon="0.87236">
        <ele>162</ele>
        <time>2018-03-03T17:59:18.511Z</time>
      </trkpt>
      <trkpt lat="44.60999" lon="0.8724">
        <ele>162</ele>
        <time>2018-03-03T17:59:19.511Z</time>
      </trkpt>
      <trkpt lat="44.60997" lon="0.87245">
        <ele>162</ele>
        <time>2018-03-03T17:59:20.511Z</time>
      </trkpt>
      <trkpt lat="44.60995" lon="0.87249">
        <ele>162</ele>
        <time>2018-03-03T17:59:21.511Z</time>
      </trkpt>
      <trkpt lat="44.60993" lon="0.87253">
        <ele>162</ele>
        <time>2018-03-03T17:59:22.511Z</time>
      </trkpt>
      <trkpt lat="44.60991" lon="0.87258">
        <ele>162</ele>
        <time>2018-03-03T17:59:23.511Z</time>
      </trkpt>
      <trkpt lat="44.60989" lon="0.87262">
        <ele>162</ele>
        <time>2018-03-03T17:59:24.511Z</time>
      </trkpt>
      <trkpt lat="44.60987" lon="0.87266">
        <ele>162</ele>
        <time>2018-03-03T17:59:25.511Z</time>
      </trkpt>
      <trkpt lat="44.60985" lon="0.8727">
        <ele>162</ele>
        <time>2018-03-03T17:59:26.511Z</time>
      </trkpt>
      <trkpt lat="44.60983" lon="0.87275">
        <ele>162</ele>
        <time>2018-03-03T17:59:27.511Z</time>
      </trkpt>
      <trkpt lat="44.6098" lon="0.8728">
        <ele>162</ele>
        <time>2018-03-03T17:59:28.511Z</time>
      </trkpt>
      <trkpt lat="44.60978" lon="0.87283">
        <ele>161</ele>
        <time>2018-03-03T17:59:29.511Z</time>
      </trkpt>
      <trkpt lat="44.60975" lon="0.87287">
        <ele>161</ele>
        <time>2018-03-03T17:59:30.511Z</time>
      </trkpt>
      <trkpt lat="44.60973" lon="0.8729">
        <ele>161</ele>
        <time>2018-03-03T17:59:31.511Z</time>
      </trkpt>
      <trkpt lat="44.6097" lon="0.87293">
        <ele>161</ele>
        <time>2018-03-03T17:59:32.511Z</time>
      </trkpt>
      <trkpt lat="44.60968" lon="0.87296">
        <ele>161</ele>
        <time>2018-03-03T17:59:33.511Z</time>
      </trkpt>
      <trkpt lat="44.60966" lon="0.873">
        <ele>161</ele>
        <time>2018-03-03T17:59:34.511Z</time>
      </trkpt>
      <trkpt lat="44.60963" lon="0.87305">
        <ele>160</ele>
        <time>2018-03-03T17:59:35.511Z</time>
      </trkpt>
      <trkpt lat="44.6096" lon="0.87309">
        <ele>160</ele>
        <time>2018-03-03T17:59:36.511Z</time>
      </trkpt>
      <trkpt lat="44.60958" lon="0.87314">
        <ele>160</ele>
        <time>2018-03-03T17:59:37.511Z</time>
      </trkpt>
      <trkpt lat="44.60955" lon="0.87319">
        <ele>160</ele>
        <time>2018-03-03T17:59:38.511Z</time>
      </trkpt>
      <trkpt lat="44.60952" lon="0.87325">
        <ele>160</ele>
        <time>2018-03-03T17:59:39.511Z</time>
      </trkpt>
      <trkpt lat="44.60948" lon="0.8733">
        <ele>159</ele>
        <time>2018-03-03T17:59:40.511Z</time>
      </trkpt>
      <trkpt lat="44.60944" lon="0.87336">
        <ele>159</ele>
        <time>2018-03-03T17:59:41.511Z</time>
      </trkpt>
      <trkpt lat="44.6094" lon="0.87342">
        <ele>159</ele>
        <time>2018-03-03T17:59:42.511Z</time>
      </trkpt>
      <trkpt lat="44.60936" lon="0.87349">
        <ele>159</ele>
        <time>2018-03-03T17:59:43.511Z</time>
      </trkpt>
      <trkpt lat="44.60932" lon="0.87354">
        <ele>159</ele>
        <time>2018-03-03T17:59:44.511Z</time>
      </trkpt>
      <trkpt lat="44.60928" lon="0.8736">
        <ele>159</ele>
        <time>2018-03-03T17:59:45.511Z</time>
      </trkpt>
      <trkpt lat="44.60924" lon="0.87365">
        <ele>158</ele>
        <time>2018-03-03T17:59:46.511Z</time>
      </trkpt>
      <trkpt lat="44.60921" lon="0.8737">
        <ele>158</ele>
        <time>2018-03-03T17:59:47.511Z</time>
      </trkpt>
      <trkpt lat="44.60918" lon="0.87373">
        <ele>158</ele>
        <time>2018-03-03T17:59:48.511Z</time>
      </trkpt>
      <trkpt lat="44.60915" lon="0.87377">
        <ele>158</ele>
        <time>2018-03-03T17:59:49.511Z</time>
      </trkpt>
      <trkpt lat="44.60912" lon="0.8738">
        <ele>157</ele>
        <time>2018-03-03T17:59:50.511Z</time>
      </trkpt>
      <trkpt lat="44.60909" lon="0.87383">
        <ele>157</ele>
        <time>2018-03-03T17:59:51.511Z</time>
      </trkpt>
      <trkpt lat="44.60906" lon="0.87386">
        <ele>157</ele>
        <time>2018-03-03T17:59:52.511Z</time>
      </trkpt>
      <trkpt lat="44.60903" lon="0.87389">
        <ele>157</ele>
        <time>2018-03-03T17:59:53.511Z</time>
      </trkpt>
      <trkpt lat="44.609" lon="0.87392">
        <ele>157</ele>
        <time>2018-03-03T17:59:54.511Z</time>
      </trkpt>
      <trkpt lat="44.60897" lon="0.87396">
        <ele>157</ele>
        <time>2018-03-03T17:59:55.511Z</time>
      </trkpt>
      <trkpt lat="44.60894" lon="0.87401">
        <ele>156</ele>
        <time>2018-03-03T17:59:56.511Z</time>
      </trkpt>
      <trkpt lat="44.60892" lon="0.87407">
        <ele>156</ele>
        <time>2018-03-03T17:59:57.511Z</time>
      </trkpt>
      <trkpt lat="44.60889" lon="0.87413">
        <ele>156</ele>
        <time>2018-03-03T17:59:58.511Z</time>
      </trkpt>
      <trkpt lat="44.60887" lon="0.87419">
        <ele>156</ele>
        <time>2018-03-03T17:59:59.511Z</time>
      </trkpt>
      <trkpt lat="44.60885" lon="0.87426">
        <ele>157</ele>
        <time>2018-03-03T18:00:00.511Z</time>
      </trkpt>
      <trkpt lat="44.60883" lon="0.87432">
        <ele>157</ele>
        <time>2018-03-03T18:00:01.511Z</time>
      </trkpt>
      <trkpt lat="44.60881" lon="0.87438">
        <ele>156</ele>
        <time>2018-03-03T18:00:02.511Z</time>
      </trkpt>
      <trkpt lat="44.60879" lon="0.87444">
        <ele>156</ele>
        <time>2018-03-03T18:00:03.511Z</time>
      </trkpt>
      <trkpt lat="44.60878" lon="0.8745">
        <ele>156</ele>
        <time>2018-03-03T18:00:04.511Z</time>
      </trkpt>
      <trkpt lat="44.60877" lon="0.87455">
        <ele>156</ele>
        <time>2018-03-03T18:00:05.511Z</time>
      </trkpt>
      <trkpt lat="44.60876" lon="0.87461">
        <ele>156</ele>
        <time>2018-03-03T18:00:06.511Z</time>
      </trkpt>
      <trkpt lat="44.60876" lon="0.87467">
        <ele>156</ele>
        <time>2018-03-03T18:00:07.511Z</time>
      </trkpt>
      <trkpt lat="44.60876" lon="0.87472">
        <ele>156</ele>
        <time>2018-03-03T18:00:08.511Z</time>
      </trkpt>
      <trkpt lat="44.60875" lon="0.87478">
        <ele>155</ele>
        <time>2018-03-03T18:00:09.511Z</time>
      </trkpt>
      <trkpt lat="44.60874" lon="0.87484">
        <ele>155</ele>
        <time>2018-03-03T18:00:10.511Z</time>
      </trkpt>
      <trkpt lat="44.60873" lon="0.87491">
        <ele>155</ele>
        <time>2018-03-03T18:00:11.511Z</time>
      </trkpt>
      <trkpt lat="44.60872" lon="0.87497">
        <ele>156</ele>
        <time>2018-03-03T18:00:12.511Z</time>
      </trkpt>
      <trkpt lat="44.6087" lon="0.87503">
        <ele>156</ele>
        <time>2018-03-03T18:00:13.511Z</time>
      </trkpt>
      <trkpt lat="44.60869" lon="0.87508">
        <ele>156</ele>
        <time>2018-03-03T18:00:14.511Z</time>
      </trkpt>
      <trkpt lat="44.60867" lon="0.87514">
        <ele>156</ele>
        <time>2018-03-03T18:00:15.511Z</time>
      </trkpt>
      <trkpt lat="44.60866" lon="0.87518">
        <ele>156</ele>
        <time>2018-03-03T18:00:16.511Z</time>
      </trkpt>
      <trkpt lat="44.60865" lon="0.87523">
        <ele>156</ele>
        <time>2018-03-03T18:00:17.511Z</time>
      </trkpt>
      <trkpt lat="44.60864" lon="0.87527">
        <ele>156</ele>
        <time>2018-03-03T18:00:18.511Z</time>
      </trkpt>
      <trkpt lat="44.60863" lon="0.8753">
        <ele>156</ele>
        <time>2018-03-03T18:00:19.511Z</time>
      </trkpt>
      <trkpt lat="44.60862" lon="0.87533">
        <ele>156</ele>
        <time>2018-03-03T18:00:20.511Z</time>
      </trkpt>
      <trkpt lat="44.60862" lon="0.87535">
        <ele>157</ele>
        <time>2018-03-03T18:00:21.511Z</time>
      </trkpt>
      <trkpt lat="44.60861" lon="0.87537">
        <ele>157</ele>
        <time>2018-03-03T18:00:22.511Z</time>
      </trkpt>
      <trkpt lat="44.60861" lon="0.87539">
        <ele>157</ele>
        <time>2018-03-03T18:00:23.511Z</time>
      </trkpt>
      <trkpt lat="44.6086" lon="0.87541">
        <ele>157</ele>
        <time>2018-03-03T18:00:24.511Z</time>
      </trkpt>
      <trkpt lat="44.60859" lon="0.87543">
        <ele>157</ele>
        <time>2018-03-03T18:00:25.511Z</time>
      </trkpt>
      <trkpt lat="44.60857" lon="0.87545">
        <ele>158</ele>
        <time>2018-03-03T18:00:26.511Z</time>
      </trkpt>
      <trkpt lat="44.60856" lon="0.87547">
        <ele>158</ele>
        <time>2018-03-03T18:00:27.511Z</time>
      </trkpt>
      <trkpt lat="44.60854" lon="0.87548">
        <ele>158</ele>
        <time>2018-03-03T18:00:28.511Z</time>
      </trkpt>
      <trkpt lat="44.60853" lon="0.8755">
        <ele>158</ele>
        <time>2018-03-03T18:00:29.511Z</time>
      </trkpt>
      <trkpt lat="44.60851" lon="0.87551">
        <ele>158</ele>
        <time>2018-03-03T18:00:30.511Z</time>
      </trkpt>
      <trkpt lat="44.6085" lon="0.87552">
        <ele>159</ele>
        <time>2018-03-03T18:00:31.511Z</time>
      </trkpt>
      <trkpt lat="44.60849" lon="0.87553">
        <ele>159</ele>
        <time>2018-03-03T18:00:32.511Z</time>
      </trkpt>
      <trkpt lat="44.60847" lon="0.87554">
        <ele>159</ele>
        <time>2018-03-03T18:00:33.511Z</time>
      </trkpt>
      <trkpt lat="44.60846" lon="0.87555">
        <ele>160</ele>
        <time>2018-03-03T18:00:34.511Z</time>
      </trkpt>
      <trkpt lat="44.60844" lon="0.87557">
        <ele>160</ele>
        <time>2018-03-03T18:00:35.511Z</time>
      </trkpt>
      <trkpt lat="44.60842" lon="0.87558">
        <ele>160</ele>
        <time>2018-03-03T18:00:36.511Z</time>
      </trkpt>
      <trkpt lat="44.60841" lon="0.8756">
        <ele>161</ele>
        <time>2018-03-03T18:00:37.511Z</time>
      </trkpt>
      <trkpt lat="44.60839" lon="0.87561">
        <ele>161</ele>
        <time>2018-03-03T18:00:38.511Z</time>
      </trkpt>
      <trkpt lat="44.60838" lon="0.87563">
        <ele>161</ele>
        <time>2018-03-03T18:00:39.511Z</time>
      </trkpt>
      <trkpt lat="44.60836" lon="0.87564">
        <ele>162</ele>
        <time>2018-03-03T18:00:40.511Z</time>
      </trkpt>
      <trkpt lat="44.60835" lon="0.87565">
        <ele>162</ele>
        <time>2018-03-03T18:00:41.511Z</time>
      </trkpt>
      <trkpt lat="44.60834" lon="0.87567">
        <ele>162</ele>
        <time>2018-03-03T18:00:42.511Z</time>
      </trkpt>
      <trkpt lat="44.60833" lon="0.87568">
        <ele>162</ele>
        <time>2018-03-03T18:00:43.511Z</time>
      </trkpt>
      <trkpt lat="44.60831" lon="0.87569">
        <ele>162</ele>
        <time>2018-03-03T18:00:44.511Z</time>
      </trkpt>
      <trkpt lat="44.6083" lon="0.87571">
        <ele>162</ele>
        <time>2018-03-03T18:00:45.511Z</time>
      </trkpt>
      <trkpt lat="44.60829" lon="0.87572">
        <ele>163</ele>
        <time>2018-03-03T18:00:46.511Z</time>
      </trkpt>
      <trkpt lat="44.60827" lon="0.87573">
        <ele>163</ele>
        <time>2018-03-03T18:00:47.511Z</time>
      </trkpt>
      <trkpt lat="44.60826" lon="0.87575">
        <ele>163</ele>
        <time>2018-03-03T18:00:48.511Z</time>
      </trkpt>
      <trkpt lat="44.60824" lon="0.87576">
        <ele>163</ele>
        <time>2018-03-03T18:00:49.511Z</time>
      </trkpt>
      <trkpt lat="44.60822" lon="0.87578">
        <ele>163</ele>
        <time>2018-03-03T18:00:50.511Z</time>
      </trkpt>
      <trkpt lat="44.6082" lon="0.87579">
        <ele>163</ele>
        <time>2018-03-03T18:00:51.511Z</time>
      </trkpt>
      <trkpt lat="44.60818" lon="0.87581">
        <ele>163</ele>
        <time>2018-03-03T18:00:52.511Z</time>
      </trkpt>
      <trkpt lat="44.60815" lon="0.87583">
        <ele>163</ele>
        <time>2018-03-03T18:00:53.511Z</time>
      </trkpt>
      <trkpt lat="44.60813" lon="0.87584">
        <ele>163</ele>
        <time>2018-03-03T18:00:54.511Z</time>
      </trkpt>
      <trkpt lat="44.60811" lon="0.87586">
        <ele>163</ele>
        <time>2018-03-03T18:00:55.511Z</time>
      </trkpt>
      <trkpt lat="44.60808" lon="0.87588">
        <ele>163</ele>
        <time>2018-03-03T18:00:56.511Z</time>
      </trkpt>
      <trkpt lat="44.60806" lon="0.8759">
        <ele>163</ele>
        <time>2018-03-03T18:00:57.511Z</time>
      </trkpt>
      <trkpt lat="44.60803" lon="0.87591">
        <ele>164</ele>
        <time>2018-03-03T18:00:58.511Z</time>
      </trkpt>
      <trkpt lat="44.60801" lon="0.87593">
        <ele>164</ele>
        <time>2018-03-03T18:00:59.511Z</time>
      </trkpt>
      <trkpt lat="44.60798" lon="0.87595">
        <ele>164</ele>
        <time>2018-03-03T18:01:00.511Z</time>
      </trkpt>
      <trkpt lat="44.60796" lon="0.87597">
        <ele>164</ele>
        <time>2018-03-03T18:01:01.511Z</time>
      </trkpt>
      <trkpt lat="44.60793" lon="0.87598">
        <ele>164</ele>
        <time>2018-03-03T18:01:02.511Z</time>
      </trkpt>
      <trkpt lat="44.60791" lon="0.876">
        <ele>164</ele>
        <time>2018-03-03T18:01:03.511Z</time>
      </trkpt>
      <trkpt lat="44.60789" lon="0.87601">
        <ele>164</ele>
        <time>2018-03-03T18:01:04.511Z</time>
      </trkpt>
      <trkpt lat="44.60786" lon="0.87603">
        <ele>164</ele>
        <time>2018-03-03T18:01:05.511Z</time>
      </trkpt>
      <trkpt lat="44.60784" lon="0.87604">
        <ele>164</ele>
        <time>2018-03-03T18:01:06.511Z</time>
      </trkpt>
      <trkpt lat="44.60782" lon="0.87604">
        <ele>164</ele>
        <time>2018-03-03T18:01:07.511Z</time>
      </trkpt>
      <trkpt lat="44.60779" lon="0.87605">
        <ele>164</ele>
        <time>2018-03-03T18:01:08.511Z</time>
      </trkpt>
      <trkpt lat="44.60777" lon="0.87606">
        <ele>164</ele>
        <time>2018-03-03T18:01:09.511Z</time>
      </trkpt>
      <trkpt lat="44.60775" lon="0.87606">
        <ele>164</ele>
        <time>2018-03-03T18:01:10.511Z</time>
      </trkpt>
      <trkpt lat="44.60772" lon="0.87606">
        <ele>164</ele>
        <time>2018-03-03T18:01:11.511Z</time>
      </trkpt>
      <trkpt lat="44.6077" lon="0.87606">
        <ele>164</ele>
        <time>2018-03-03T18:01:12.511Z</time>
      </trkpt>
      <trkpt lat="44.60767" lon="0.87606">
        <ele>164</ele>
        <time>2018-03-03T18:01:13.511Z</time>
      </trkpt>
      <trkpt lat="44.60765" lon="0.87606">
        <ele>164</ele>
        <time>2018-03-03T18:01:14.511Z</time>
      </trkpt>
      <trkpt lat="44.60762" lon="0.87605">
        <ele>164</ele>
        <time>2018-03-03T18:01:15.511Z</time>
      </trkpt>
      <trkpt lat="44.60759" lon="0.87605">
        <ele>164</ele>
        <time>2018-03-03T18:01:16.511Z</time>
      </trkpt>
      <trkpt lat="44.60756" lon="0.87604">
        <ele>164</ele>
        <time>2018-03-03T18:01:17.511Z</time>
      </trkpt>
      <trkpt lat="44.60753" lon="0.87604">
        <ele>164</ele>
        <time>2018-03-03T18:01:18.511Z</time>
      </trkpt>
      <trkpt lat="44.6075" lon="0.87604">
        <ele>164</ele>
        <time>2018-03-03T18:01:19.511Z</time>
      </trkpt>
      <trkpt lat="44.60747" lon="0.87604">
        <ele>164</ele>
        <time>2018-03-03T18:01:20.511Z</time>
      </trkpt>
      <trkpt lat="44.60745" lon="0.87606">
        <ele>165</ele>
        <time>2018-03-03T18:01:21.511Z</time>
      </trkpt>
      <trkpt lat="44.60743" lon="0.87607">
        <ele>165</ele>
        <time>2018-03-03T18:01:22.511Z</time>
      </trkpt>
      <trkpt lat="44.60741" lon="0.8761">
        <ele>165</ele>
        <time>2018-03-03T18:01:23.511Z</time>
      </trkpt>
      <trkpt lat="44.6074" lon="0.87612">
        <ele>166</ele>
        <time>2018-03-03T18:01:24.511Z</time>
      </trkpt>
      <trkpt lat="44.60738" lon="0.87615">
        <ele>166</ele>
        <time>2018-03-03T18:01:25.511Z</time>
      </trkpt>
      <trkpt lat="44.60736" lon="0.87618">
        <ele>166</ele>
        <time>2018-03-03T18:01:26.511Z</time>
      </trkpt>
      <trkpt lat="44.60734" lon="0.87621">
        <ele>166</ele>
        <time>2018-03-03T18:01:27.511Z</time>
      </trkpt>
      <trkpt lat="44.60732" lon="0.87624">
        <ele>166</ele>
        <time>2018-03-03T18:01:28.511Z</time>
      </trkpt>
      <trkpt lat="44.60729" lon="0.87628">
        <ele>166</ele>
        <time>2018-03-03T18:01:29.511Z</time>
      </trkpt>
      <trkpt lat="44.60726" lon="0.87632">
        <ele>166</ele>
        <time>2018-03-03T18:01:30.511Z</time>
      </trkpt>
      <trkpt lat="44.60724" lon="0.87637">
        <ele>166</ele>
        <time>2018-03-03T18:01:31.511Z</time>
      </trkpt>
      <trkpt lat="44.60721" lon="0.87642">
        <ele>166</ele>
        <time>2018-03-03T18:01:32.511Z</time>
      </trkpt>
      <trkpt lat="44.60718" lon="0.87648">
        <ele>165</ele>
        <time>2018-03-03T18:01:33.511Z</time>
      </trkpt>
      <trkpt lat="44.60716" lon="0.87654">
        <ele>165</ele>
        <time>2018-03-03T18:01:34.511Z</time>
      </trkpt>
      <trkpt lat="44.60713" lon="0.8766">
        <ele>165</ele>
        <time>2018-03-03T18:01:35.511Z</time>
      </trkpt>
      <trkpt lat="44.60711" lon="0.87666">
        <ele>165</ele>
        <time>2018-03-03T18:01:36.511Z</time>
      </trkpt>
      <trkpt lat="44.6071" lon="0.87671">
        <ele>164</ele>
        <time>2018-03-03T18:01:37.511Z</time>
      </trkpt>
      <trkpt lat="44.60708" lon="0.87676">
        <ele>164</ele>
        <time>2018-03-03T18:01:38.511Z</time>
      </trkpt>
      <trkpt lat="44.60707" lon="0.87681">
        <ele>164</ele>
        <time>2018-03-03T18:01:39.511Z</time>
      </trkpt>
      <trkpt lat="44.60705" lon="0.87686">
        <ele>164</ele>
        <time>2018-03-03T18:01:40.511Z</time>
      </trkpt>
      <trkpt lat="44.60704" lon="0.87691">
        <ele>164</ele>
        <time>2018-03-03T18:01:41.511Z</time>
      </trkpt>
      <trkpt lat="44.60703" lon="0.87696">
        <ele>164</ele>
        <time>2018-03-03T18:01:42.511Z</time>
      </trkpt>
      <trkpt lat="44.60702" lon="0.877">
        <ele>165</ele>
        <time>2018-03-03T18:01:43.511Z</time>
      </trkpt>
      <trkpt lat="44.607" lon="0.87704">
        <ele>165</ele>
        <time>2018-03-03T18:01:44.511Z</time>
      </trkpt>
      <trkpt lat="44.60699" lon="0.87708">
        <ele>165</ele>
        <time>2018-03-03T18:01:45.511Z</time>
      </trkpt>
      <trkpt lat="44.60698" lon="0.87712">
        <ele>165</ele>
        <time>2018-03-03T18:01:46.511Z</time>
      </trkpt>
      <trkpt lat="44.60697" lon="0.87716">
        <ele>165</ele>
        <time>2018-03-03T18:01:47.511Z</time>
      </trkpt>
      <trkpt lat="44.60696" lon="0.87719">
        <ele>165</ele>
        <time>2018-03-03T18:01:48.511Z</time>
      </trkpt>
      <trkpt lat="44.60695" lon="0.87723">
        <ele>166</ele>
        <time>2018-03-03T18:01:49.511Z</time>
      </trkpt>
      <trkpt lat="44.60695" lon="0.87726">
        <ele>166</ele>
        <time>2018-03-03T18:01:50.511Z</time>
      </trkpt>
      <trkpt lat="44.60694" lon="0.8773">
        <ele>166</ele>
        <time>2018-03-03T18:01:51.511Z</time>
      </trkpt>
      <trkpt lat="44.60693" lon="0.87733">
        <ele>167</ele>
        <time>2018-03-03T18:01:52.511Z</time>
      </trkpt>
      <trkpt lat="44.60692" lon="0.87737">
        <ele>167</ele>
        <time>2018-03-03T18:01:53.511Z</time>
      </trkpt>
      <trkpt lat="44.60691" lon="0.8774">
        <ele>167</ele>
        <time>2018-03-03T18:01:54.511Z</time>
      </trkpt>
      <trkpt lat="44.6069" lon="0.87744">
        <ele>168</ele>
        <time>2018-03-03T18:01:55.511Z</time>
      </trkpt>
      <trkpt lat="44.60689" lon="0.87747">
        <ele>168</ele>
        <time>2018-03-03T18:01:56.511Z</time>
      </trkpt>
      <trkpt lat="44.60688" lon="0.87751">
        <ele>168</ele>
        <time>2018-03-03T18:01:57.511Z</time>
      </trkpt>
      <trkpt lat="44.60687" lon="0.87754">
        <ele>169</ele>
        <time>2018-03-03T18:01:58.511Z</time>
      </trkpt>
      <trkpt lat="44.60686" lon="0.87758">
        <ele>169</ele>
        <time>2018-03-03T18:01:59.511Z</time>
      </trkpt>
      <trkpt lat="44.60685" lon="0.87761">
        <ele>169</ele>
        <time>2018-03-03T18:02:00.511Z</time>
      </trkpt>
      <trkpt lat="44.60684" lon="0.87764">
        <ele>169</ele>
        <time>2018-03-03T18:02:01.511Z</time>
      </trkpt>
      <trkpt lat="44.60682" lon="0.87767">
        <ele>170</ele>
        <time>2018-03-03T18:02:02.511Z</time>
      </trkpt>
      <trkpt lat="44.60681" lon="0.87769">
        <ele>170</ele>
        <time>2018-03-03T18:02:03.511Z</time>
      </trkpt>
      <trkpt lat="44.6068" lon="0.87772">
        <ele>170</ele>
        <time>2018-03-03T18:02:04.511Z</time>
      </trkpt>
      <trkpt lat="44.60678" lon="0.87774">
        <ele>170</ele>
        <time>2018-03-03T18:02:05.511Z</time>
      </trkpt>
      <trkpt lat="44.60677" lon="0.87776">
        <ele>171</ele>
        <time>2018-03-03T18:02:06.511Z</time>
      </trkpt>
      <trkpt lat="44.60675" lon="0.87778">
        <ele>171</ele>
        <time>2018-03-03T18:02:07.511Z</time>
      </trkpt>
      <trkpt lat="44.60673" lon="0.87779">
        <ele>171</ele>
        <time>2018-03-03T18:02:08.511Z</time>
      </trkpt>
      <trkpt lat="44.60671" lon="0.87781">
        <ele>171</ele>
        <time>2018-03-03T18:02:09.511Z</time>
      </trkpt>
      <trkpt lat="44.60669" lon="0.87782">
        <ele>171</ele>
        <time>2018-03-03T18:02:10.511Z</time>
      </trkpt>
      <trkpt lat="44.60667" lon="0.87784">
        <ele>172</ele>
        <time>2018-03-03T18:02:11.511Z</time>
      </trkpt>
      <trkpt lat="44.60665" lon="0.87785">
        <ele>172</ele>
        <time>2018-03-03T18:02:12.511Z</time>
      </trkpt>
      <trkpt lat="44.60663" lon="0.87786">
        <ele>172</ele>
        <time>2018-03-03T18:02:13.511Z</time>
      </trkpt>
      <trkpt lat="44.60661" lon="0.87787">
        <ele>172</ele>
        <time>2018-03-03T18:02:14.511Z</time>
      </trkpt>
      <trkpt lat="44.60659" lon="0.87788">
        <ele>172</ele>
        <time>2018-03-03T18:02:15.511Z</time>
      </trkpt>
      <trkpt lat="44.60657" lon="0.87788">
        <ele>172</ele>
        <time>2018-03-03T18:02:16.511Z</time>
      </trkpt>
      <trkpt lat="44.60655" lon="0.87789">
        <ele>172</ele>
        <time>2018-03-03T18:02:17.511Z</time>
      </trkpt>
      <trkpt lat="44.60654" lon="0.87789">
        <ele>172</ele>
        <time>2018-03-03T18:02:18.511Z</time>
      </trkpt>
      <trkpt lat="44.60652" lon="0.87789">
        <ele>173</ele>
        <time>2018-03-03T18:02:19.511Z</time>
      </trkpt>
      <trkpt lat="44.60651" lon="0.87789">
        <ele>173</ele>
        <time>2018-03-03T18:02:20.511Z</time>
      </trkpt>
      <trkpt lat="44.60649" lon="0.87789">
        <ele>173</ele>
        <time>2018-03-03T18:02:21.511Z</time>
      </trkpt>
      <trkpt lat="44.60648" lon="0.8779">
        <ele>173</ele>
        <time>2018-03-03T18:02:22.511Z</time>
      </trkpt>
      <trkpt lat="44.60647" lon="0.87791">
        <ele>173</ele>
        <time>2018-03-03T18:02:23.511Z</time>
      </trkpt>
      <trkpt lat="44.60646" lon="0.87792">
        <ele>173</ele>
        <time>2018-03-03T18:02:24.511Z</time>
      </trkpt>
      <trkpt lat="44.60645" lon="0.87793">
        <ele>173</ele>
        <time>2018-03-03T18:02:25.511Z</time>
      </trkpt>
      <trkpt lat="44.60644" lon="0.87795">
        <ele>173</ele>
        <time>2018-03-03T18:02:26.511Z</time>
      </trkpt>
      <trkpt lat="44.60643" lon="0.87797">
        <ele>174</ele>
        <time>2018-03-03T18:02:27.511Z</time>
      </trkpt>
      <trkpt lat="44.60642" lon="0.87799">
        <ele>174</ele>
        <time>2018-03-03T18:02:28.511Z</time>
      </trkpt>
      <trkpt lat="44.60641" lon="0.87801">
        <ele>174</ele>
        <time>2018-03-03T18:02:29.511Z</time>
      </trkpt>
      <trkpt lat="44.6064" lon="0.87803">
        <ele>174</ele>
        <time>2018-03-03T18:02:30.511Z</time>
      </trkpt>
      <trkpt lat="44.60639" lon="0.87805">
        <ele>175</ele>
        <time>2018-03-03T18:02:31.511Z</time>
      </trkpt>
      <trkpt lat="44.60638" lon="0.87807">
        <ele>175</ele>
        <time>2018-03-03T18:02:32.511Z</time>
      </trkpt>
      <trkpt lat="44.60637" lon="0.87809">
        <ele>175</ele>
        <time>2018-03-03T18:02:33.511Z</time>
      </trkpt>
      <trkpt lat="44.60635" lon="0.87811">
        <ele>175</ele>
        <time>2018-03-03T18:02:34.511Z</time>
      </trkpt>
      <trkpt lat="44.60634" lon="0.87812">
        <ele>175</ele>
        <time>2018-03-03T18:02:35.511Z</time>
      </trkpt>
      <trkpt lat="44.60633" lon="0.87814">
        <ele>175</ele>
        <time>2018-03-03T18:02:36.511Z</time>
      </trkpt>
      <trkpt lat="44.60632" lon="0.87816">
        <ele>175</ele>
        <time>2018-03-03T18:02:37.511Z</time>
      </trkpt>
      <trkpt lat="44.6063" lon="0.87818">
        <ele>176</ele>
        <time>2018-03-03T18:02:38.511Z</time>
      </trkpt>
      <trkpt lat="44.60629" lon="0.87819">
        <ele>176</ele>
        <time>2018-03-03T18:02:39.511Z</time>
      </trkpt>
      <trkpt lat="44.60628" lon="0.87821">
        <ele>176</ele>
        <time>2018-03-03T18:02:40.511Z</time>
      </trkpt>
      <trkpt lat="44.60627" lon="0.87823">
        <ele>176</ele>
        <time>2018-03-03T18:02:41.511Z</time>
      </trkpt>
      <trkpt lat="44.60626" lon="0.87825">
        <ele>176</ele>
        <time>2018-03-03T18:02:42.511Z</time>
      </trkpt>
      <trkpt lat="44.60624" lon="0.87826">
        <ele>176</ele>
        <time>2018-03-03T18:02:43.511Z</time>
      </trkpt>
      <trkpt lat="44.60623" lon="0.87828">
        <ele>176</ele>
        <time>2018-03-03T18:02:44.511Z</time>
      </trkpt>
      <trkpt lat="44.60622" lon="0.8783">
        <ele>176</ele>
        <time>2018-03-03T18:02:45.511Z</time>
      </trkpt>
      <trkpt lat="44.60621" lon="0.87832">
        <ele>176</ele>
        <time>2018-03-03T18:02:46.511Z</time>
      </trkpt>
      <trkpt lat="44.6062" lon="0.87834">
        <ele>176</ele>
        <time>2018-03-03T18:02:47.511Z</time>
      </trkpt>
      <trkpt lat="44.60619" lon="0.87836">
        <ele>176</ele>
        <time>2018-03-03T18:02:48.511Z</time>
      </trkpt>
      <trkpt lat="44.60618" lon="0.87838">
        <ele>176</ele>
        <time>2018-03-03T18:02:49.511Z</time>
      </trkpt>
      <trkpt lat="44.60617" lon="0.8784">
        <ele>177</ele>
        <time>2018-03-03T18:02:50.511Z</time>
      </trkpt>
      <trkpt lat="44.60616" lon="0.87842">
        <ele>177</ele>
        <time>2018-03-03T18:02:51.511Z</time>
      </trkpt>
      <trkpt lat="44.60615" lon="0.87845">
        <ele>177</ele>
        <time>2018-03-03T18:02:52.511Z</time>
      </trkpt>
      <trkpt lat="44.60613" lon="0.87847">
        <ele>177</ele>
        <time>2018-03-03T18:02:53.511Z</time>
      </trkpt>
      <trkpt lat="44.60612" lon="0.87849">
        <ele>177</ele>
        <time>2018-03-03T18:02:54.511Z</time>
      </trkpt>
      <trkpt lat="44.60611" lon="0.87851">
        <ele>177</ele>
        <time>2018-03-03T18:02:55.511Z</time>
      </trkpt>
      <trkpt lat="44.6061" lon="0.87854">
        <ele>177</ele>
        <time>2018-03-03T18:02:56.511Z</time>
      </trkpt>
      <trkpt lat="44.60609" lon="0.87856">
        <ele>177</ele>
        <time>2018-03-03T18:02:57.511Z</time>
      </trkpt>
      <trkpt lat="44.60608" lon="0.87858">
        <ele>177</ele>
        <time>2018-03-03T18:02:58.511Z</time>
      </trkpt>
      <trkpt lat="44.60607" lon="0.8786">
        <ele>178</ele>
        <time>2018-03-03T18:02:59.511Z</time>
      </trkpt>
      <trkpt lat="44.60606" lon="0.87862">
        <ele>178</ele>
        <time>2018-03-03T18:03:00.511Z</time>
      </trkpt>
      <trkpt lat="44.60604" lon="0.87864">
        <ele>178</ele>
        <time>2018-03-03T18:03:01.511Z</time>
      </trkpt>
      <trkpt lat="44.60603" lon="0.87866">
        <ele>178</ele>
        <time>2018-03-03T18:03:02.511Z</time>
      </trkpt>
      <trkpt lat="44.60602" lon="0.87868">
        <ele>178</ele>
        <time>2018-03-03T18:03:03.511Z</time>
      </trkpt>
      <trkpt lat="44.60601" lon="0.8787">
        <ele>178</ele>
        <time>2018-03-03T18:03:04.511Z</time>
      </trkpt>
      <trkpt lat="44.606" lon="0.87872">
        <ele>178</ele>
        <time>2018-03-03T18:03:05.511Z</time>
      </trkpt>
      <trkpt lat="44.60599" lon="0.87873">
        <ele>178</ele>
        <time>2018-03-03T18:03:06.511Z</time>
      </trkpt>
      <trkpt lat="44.60598" lon="0.87875">
        <ele>178</ele>
        <time>2018-03-03T18:03:07.511Z</time>
      </trkpt>
      <trkpt lat="44.60597" lon="0.87877">
        <ele>178</ele>
        <time>2018-03-03T18:03:08.511Z</time>
      </trkpt>
      <trkpt lat="44.60596" lon="0.87878">
        <ele>179</ele>
        <time>2018-03-03T18:03:09.511Z</time>
      </trkpt>
      <trkpt lat="44.60594" lon="0.8788">
        <ele>179</ele>
        <time>2018-03-03T18:03:10.511Z</time>
      </trkpt>
      <trkpt lat="44.60593" lon="0.87881">
        <ele>179</ele>
        <time>2018-03-03T18:03:11.511Z</time>
      </trkpt>
      <trkpt lat="44.60591" lon="0.87883">
        <ele>179</ele>
        <time>2018-03-03T18:03:12.511Z</time>
      </trkpt>
      <trkpt lat="44.6059" lon="0.87884">
        <ele>179</ele>
        <time>2018-03-03T18:03:13.511Z</time>
      </trkpt>
      <trkpt lat="44.60589" lon="0.87886">
        <ele>179</ele>
        <time>2018-03-03T18:03:14.511Z</time>
      </trkpt>
      <trkpt lat="44.60589" lon="0.87887">
        <ele>179</ele>
        <time>2018-03-03T18:03:15.511Z</time>
      </trkpt>
      <trkpt lat="44.6059" lon="0.87889">
        <ele>179</ele>
        <time>2018-03-03T18:03:16.511Z</time>
      </trkpt>
      <trkpt lat="44.60591" lon="0.87891">
        <ele>179</ele>
        <time>2018-03-03T18:03:17.511Z</time>
      </trkpt>
      <trkpt lat="44.60591" lon="0.87894">
        <ele>179</ele>
        <time>2018-03-03T18:03:18.511Z</time>
      </trkpt>
      <trkpt lat="44.60592" lon="0.87896">
        <ele>179</ele>
        <time>2018-03-03T18:03:19.511Z</time>
      </trkpt>
      <trkpt lat="44.60593" lon="0.87898">
        <ele>179</ele>
        <time>2018-03-03T18:03:20.511Z</time>
      </trkpt>
      <trkpt lat="44.60593" lon="0.879">
        <ele>180</ele>
        <time>2018-03-03T18:03:21.511Z</time>
      </trkpt>
      <trkpt lat="44.60594" lon="0.87902">
        <ele>180</ele>
        <time>2018-03-03T18:03:22.511Z</time>
      </trkpt>
      <trkpt lat="44.60595" lon="0.87905">
        <ele>180</ele>
        <time>2018-03-03T18:03:23.511Z</time>
      </trkpt>
      <trkpt lat="44.60595" lon="0.87907">
        <ele>180</ele>
        <time>2018-03-03T18:03:24.511Z</time>
      </trkpt>
      <trkpt lat="44.60596" lon="0.8791">
        <ele>180</ele>
        <time>2018-03-03T18:03:25.511Z</time>
      </trkpt>
      <trkpt lat="44.60596" lon="0.87912">
        <ele>180</ele>
        <time>2018-03-03T18:03:26.511Z</time>
      </trkpt>
      <trkpt lat="44.60597" lon="0.87915">
        <ele>180</ele>
        <time>2018-03-03T18:03:27.511Z</time>
      </trkpt>
      <trkpt lat="44.60598" lon="0.87917">
        <ele>180</ele>
        <time>2018-03-03T18:03:28.511Z</time>
      </trkpt>
      <trkpt lat="44.60598" lon="0.8792">
        <ele>181</ele>
        <time>2018-03-03T18:03:29.511Z</time>
      </trkpt>
      <trkpt lat="44.60599" lon="0.87923">
        <ele>181</ele>
        <time>2018-03-03T18:03:30.511Z</time>
      </trkpt>
      <trkpt lat="44.606" lon="0.87926">
        <ele>181</ele>
        <time>2018-03-03T18:03:31.511Z</time>
      </trkpt>
      <trkpt lat="44.60601" lon="0.87929">
        <ele>181</ele>
        <time>2018-03-03T18:03:32.511Z</time>
      </trkpt>
      <trkpt lat="44.60602" lon="0.87932">
        <ele>181</ele>
        <time>2018-03-03T18:03:33.511Z</time>
      </trkpt>
      <trkpt lat="44.60603" lon="0.87935">
        <ele>181</ele>
        <time>2018-03-03T18:03:34.511Z</time>
      </trkpt>
      <trkpt lat="44.60604" lon="0.87938">
        <ele>181</ele>
        <time>2018-03-03T18:03:35.511Z</time>
      </trkpt>
      <trkpt lat="44.60605" lon="0.87942">
        <ele>181</ele>
        <time>2018-03-03T18:03:36.511Z</time>
      </trkpt>
      <trkpt lat="44.60607" lon="0.87946">
        <ele>181</ele>
        <time>2018-03-03T18:03:37.511Z</time>
      </trkpt>
      <trkpt lat="44.60608" lon="0.8795">
        <ele>180</ele>
        <time>2018-03-03T18:03:38.511Z</time>
      </trkpt>
      <trkpt lat="44.60609" lon="0.87955">
        <ele>180</ele>
        <time>2018-03-03T18:03:39.511Z</time>
      </trkpt>
      <trkpt lat="44.60611" lon="0.87959">
        <ele>180</ele>
        <time>2018-03-03T18:03:40.511Z</time>
      </trkpt>
      <trkpt lat="44.60612" lon="0.87963">
        <ele>180</ele>
        <time>2018-03-03T18:03:41.511Z</time>
      </trkpt>
      <trkpt lat="44.60614" lon="0.87968">
        <ele>180</ele>
        <time>2018-03-03T18:03:42.511Z</time>
      </trkpt>
      <trkpt lat="44.60615" lon="0.87972">
        <ele>180</ele>
        <time>2018-03-03T18:03:43.511Z</time>
      </trkpt>
      <trkpt lat="44.60617" lon="0.87976">
        <ele>180</ele>
        <time>2018-03-03T18:03:44.511Z</time>
      </trkpt>
      <trkpt lat="44.60618" lon="0.87981">
        <ele>180</ele>
        <time>2018-03-03T18:03:45.511Z</time>
      </trkpt>
      <trkpt lat="44.6062" lon="0.87985">
        <ele>180</ele>
        <time>2018-03-03T18:03:46.511Z</time>
      </trkpt>
      <trkpt lat="44.60622" lon="0.87988">
        <ele>180</ele>
        <time>2018-03-03T18:03:47.511Z</time>
      </trkpt>
      <trkpt lat="44.60623" lon="0.87992">
        <ele>180</ele>
        <time>2018-03-03T18:03:48.511Z</time>
      </trkpt>
      <trkpt lat="44.60625" lon="0.87995">
        <ele>180</ele>
        <time>2018-03-03T18:03:49.511Z</time>
      </trkpt>
      <trkpt lat="44.60626" lon="0.87999">
        <ele>180</ele>
        <time>2018-03-03T18:03:50.511Z</time>
      </trkpt>
      <trkpt lat="44.60628" lon="0.88002">
        <ele>181</ele>
        <time>2018-03-03T18:03:51.511Z</time>
      </trkpt>
      <trkpt lat="44.60629" lon="0.88005">
        <ele>181</ele>
        <time>2018-03-03T18:03:52.511Z</time>
      </trkpt>
      <trkpt lat="44.60631" lon="0.88008">
        <ele>181</ele>
        <time>2018-03-03T18:03:53.511Z</time>
      </trkpt>
      <trkpt lat="44.60633" lon="0.88011">
        <ele>181</ele>
        <time>2018-03-03T18:03:54.511Z</time>
      </trkpt>
      <trkpt lat="44.60634" lon="0.88014">
        <ele>182</ele>
        <time>2018-03-03T18:03:55.511Z</time>
      </trkpt>
      <trkpt lat="44.60636" lon="0.88016">
        <ele>182</ele>
        <time>2018-03-03T18:03:56.511Z</time>
      </trkpt>
      <trkpt lat="44.60638" lon="0.88019">
        <ele>182</ele>
        <time>2018-03-03T18:03:57.511Z</time>
      </trkpt>
      <trkpt lat="44.60639" lon="0.88022">
        <ele>182</ele>
        <time>2018-03-03T18:03:58.511Z</time>
      </trkpt>
      <trkpt lat="44.60641" lon="0.88025">
        <ele>182</ele>
        <time>2018-03-03T18:03:59.511Z</time>
      </trkpt>
      <trkpt lat="44.60642" lon="0.88028">
        <ele>183</ele>
        <time>2018-03-03T18:04:00.511Z</time>
      </trkpt>
      <trkpt lat="44.60644" lon="0.88031">
        <ele>183</ele>
        <time>2018-03-03T18:04:01.511Z</time>
      </trkpt>
      <trkpt lat="44.60645" lon="0.88034">
        <ele>183</ele>
        <time>2018-03-03T18:04:02.511Z</time>
      </trkpt>
      <trkpt lat="44.60646" lon="0.88037">
        <ele>184</ele>
        <time>2018-03-03T18:04:03.511Z</time>
      </trkpt>
      <trkpt lat="44.60647" lon="0.8804">
        <ele>184</ele>
        <time>2018-03-03T18:04:04.511Z</time>
      </trkpt>
      <trkpt lat="44.60648" lon="0.88044">
        <ele>184</ele>
        <time>2018-03-03T18:04:05.511Z</time>
      </trkpt>
      <trkpt lat="44.6065" lon="0.88047">
        <ele>184</ele>
        <time>2018-03-03T18:04:06.511Z</time>
      </trkpt>
      <trkpt lat="44.60651" lon="0.88051">
        <ele>184</ele>
        <time>2018-03-03T18:04:07.511Z</time>
      </trkpt>
      <trkpt lat="44.60652" lon="0.88054">
        <ele>184</ele>
        <time>2018-03-03T18:04:08.511Z</time>
      </trkpt>
      <trkpt lat="44.60654" lon="0.88057">
        <ele>185</ele>
        <time>2018-03-03T18:04:09.511Z</time>
      </trkpt>
      <trkpt lat="44.60655" lon="0.8806">
        <ele>185</ele>
        <time>2018-03-03T18:04:10.511Z</time>
      </trkpt>
      <trkpt lat="44.60657" lon="0.88063">
        <ele>185</ele>
        <time>2018-03-03T18:04:11.511Z</time>
      </trkpt>
      <trkpt lat="44.60658" lon="0.88066">
        <ele>185</ele>
        <time>2018-03-03T18:04:12.511Z</time>
      </trkpt>
      <trkpt lat="44.6066" lon="0.88069">
        <ele>185</ele>
        <time>2018-03-03T18:04:13.511Z</time>
      </trkpt>
      <trkpt lat="44.60661" lon="0.88072">
        <ele>185</ele>
        <time>2018-03-03T18:04:14.511Z</time>
      </trkpt>
      <trkpt lat="44.60663" lon="0.88075">
        <ele>185</ele>
        <time>2018-03-03T18:04:15.511Z</time>
      </trkpt>
      <trkpt lat="44.60664" lon="0.88077">
        <ele>185</ele>
        <time>2018-03-03T18:04:16.511Z</time>
      </trkpt>
      <trkpt lat="44.60665" lon="0.88081">
        <ele>185</ele>
        <time>2018-03-03T18:04:17.511Z</time>
      </trkpt>
      <trkpt lat="44.60667" lon="0.88084">
        <ele>185</ele>
        <time>2018-03-03T18:04:18.511Z</time>
      </trkpt>
      <trkpt lat="44.60669" lon="0.88087">
        <ele>186</ele>
        <time>2018-03-03T18:04:19.511Z</time>
      </trkpt>
      <trkpt lat="44.60671" lon="0.88091">
        <ele>186</ele>
        <time>2018-03-03T18:04:20.511Z</time>
      </trkpt>
      <trkpt lat="44.60673" lon="0.88094">
        <ele>186</ele>
        <time>2018-03-03T18:04:21.511Z</time>
      </trkpt>
      <trkpt lat="44.60675" lon="0.88098">
        <ele>186</ele>
        <time>2018-03-03T18:04:22.511Z</time>
      </trkpt>
      <trkpt lat="44.60677" lon="0.88101">
        <ele>186</ele>
        <time>2018-03-03T18:04:23.511Z</time>
      </trkpt>
      <trkpt lat="44.60678" lon="0.88105">
        <ele>186</ele>
        <time>2018-03-03T18:04:24.511Z</time>
      </trkpt>
      <trkpt lat="44.6068" lon="0.88108">
        <ele>186</ele>
        <time>2018-03-03T18:04:25.511Z</time>
      </trkpt>
      <trkpt lat="44.60682" lon="0.88111">
        <ele>186</ele>
        <time>2018-03-03T18:04:26.511Z</time>
      </trkpt>
      <trkpt lat="44.60684" lon="0.88114">
        <ele>186</ele>
        <time>2018-03-03T18:04:27.511Z</time>
      </trkpt>
      <trkpt lat="44.60687" lon="0.88117">
        <ele>186</ele>
        <time>2018-03-03T18:04:28.511Z</time>
      </trkpt>
      <trkpt lat="44.60689" lon="0.8812">
        <ele>186</ele>
        <time>2018-03-03T18:04:29.511Z</time>
      </trkpt>
      <trkpt lat="44.60692" lon="0.88123">
        <ele>186</ele>
        <time>2018-03-03T18:04:30.511Z</time>
      </trkpt>
      <trkpt lat="44.60695" lon="0.88126">
        <ele>186</ele>
        <time>2018-03-03T18:04:31.511Z</time>
      </trkpt>
      <trkpt lat="44.60698" lon="0.88129">
        <ele>187</ele>
        <time>2018-03-03T18:04:32.511Z</time>
      </trkpt>
      <trkpt lat="44.60701" lon="0.88131">
        <ele>187</ele>
        <time>2018-03-03T18:04:33.511Z</time>
      </trkpt>
      <trkpt lat="44.60704" lon="0.88133">
        <ele>187</ele>
        <time>2018-03-03T18:04:34.511Z</time>
      </trkpt>
      <trkpt lat="44.60706" lon="0.88135">
        <ele>187</ele>
        <time>2018-03-03T18:04:35.511Z</time>
      </trkpt>
      <trkpt lat="44.60709" lon="0.88136">
        <ele>187</ele>
        <time>2018-03-03T18:04:36.511Z</time>
      </trkpt>
      <trkpt lat="44.60712" lon="0.88138">
        <ele>187</ele>
        <time>2018-03-03T18:04:37.511Z</time>
      </trkpt>
      <trkpt lat="44.60714" lon="0.88139">
        <ele>188</ele>
        <time>2018-03-03T18:04:38.511Z</time>
      </trkpt>
      <trkpt lat="44.60717" lon="0.8814">
        <ele>188</ele>
        <time>2018-03-03T18:04:39.511Z</time>
      </trkpt>
      <trkpt lat="44.60719" lon="0.88141">
        <ele>188</ele>
        <time>2018-03-03T18:04:40.511Z</time>
      </trkpt>
      <trkpt lat="44.60722" lon="0.88142">
        <ele>188</ele>
        <time>2018-03-03T18:04:41.511Z</time>
      </trkpt>
      <trkpt lat="44.60724" lon="0.88142">
        <ele>189</ele>
        <time>2018-03-03T18:04:42.511Z</time>
      </trkpt>
      <trkpt lat="44.60727" lon="0.88143">
        <ele>189</ele>
        <time>2018-03-03T18:04:43.511Z</time>
      </trkpt>
      <trkpt lat="44.60729" lon="0.88144">
        <ele>189</ele>
        <time>2018-03-03T18:04:44.511Z</time>
      </trkpt>
      <trkpt lat="44.60732" lon="0.88144">
        <ele>189</ele>
        <time>2018-03-03T18:04:45.511Z</time>
      </trkpt>
      <trkpt lat="44.60734" lon="0.88145">
        <ele>190</ele>
        <time>2018-03-03T18:04:46.511Z</time>
      </trkpt>
      <trkpt lat="44.60737" lon="0.88145">
        <ele>190</ele>
        <time>2018-03-03T18:04:47.511Z</time>
      </trkpt>
      <trkpt lat="44.60739" lon="0.88146">
        <ele>190</ele>
        <time>2018-03-03T18:04:48.511Z</time>
      </trkpt>
      <trkpt lat="44.60742" lon="0.88147">
        <ele>190</ele>
        <time>2018-03-03T18:04:49.511Z</time>
      </trkpt>
      <trkpt lat="44.60744" lon="0.88148">
        <ele>190</ele>
        <time>2018-03-03T18:04:50.511Z</time>
      </trkpt>
      <trkpt lat="44.60747" lon="0.88149">
        <ele>190</ele>
        <time>2018-03-03T18:04:51.511Z</time>
      </trkpt>
      <trkpt lat="44.6075" lon="0.8815">
        <ele>190</ele>
        <time>2018-03-03T18:04:52.511Z</time>
      </trkpt>
      <trkpt lat="44.60753" lon="0.88152">
        <ele>190</ele>
        <time>2018-03-03T18:04:53.511Z</time>
      </trkpt>
      <trkpt lat="44.60756" lon="0.88153">
        <ele>190</ele>
        <time>2018-03-03T18:04:54.511Z</time>
      </trkpt>
      <trkpt lat="44.60759" lon="0.88154">
        <ele>190</ele>
        <time>2018-03-03T18:04:55.511Z</time>
      </trkpt>
      <trkpt lat="44.60762" lon="0.88156">
        <ele>190</ele>
        <time>2018-03-03T18:04:56.511Z</time>
      </trkpt>
      <trkpt lat="44.60765" lon="0.88157">
        <ele>190</ele>
        <time>2018-03-03T18:04:57.511Z</time>
      </trkpt>
      <trkpt lat="44.60769" lon="0.88158">
        <ele>191</ele>
        <time>2018-03-03T18:04:58.511Z</time>
      </trkpt>
      <trkpt lat="44.60772" lon="0.88159">
        <ele>191</ele>
        <time>2018-03-03T18:04:59.511Z</time>
      </trkpt>
      <trkpt lat="44.60775" lon="0.88161">
        <ele>191</ele>
        <time>2018-03-03T18:05:00.511Z</time>
      </trkpt>
      <trkpt lat="44.60779" lon="0.88162">
        <ele>191</ele>
        <time>2018-03-03T18:05:01.511Z</time>
      </trkpt>
      <trkpt lat="44.60782" lon="0.88163">
        <ele>191</ele>
        <time>2018-03-03T18:05:02.511Z</time>
      </trkpt>
      <trkpt lat="44.60786" lon="0.88164">
        <ele>191</ele>
        <time>2018-03-03T18:05:03.511Z</time>
      </trkpt>
      <trkpt lat="44.60789" lon="0.88164">
        <ele>191</ele>
        <time>2018-03-03T18:05:04.511Z</time>
      </trkpt>
      <trkpt lat="44.60792" lon="0.88165">
        <ele>191</ele>
        <time>2018-03-03T18:05:05.511Z</time>
      </trkpt>
      <trkpt lat="44.60795" lon="0.88166">
        <ele>191</ele>
        <time>2018-03-03T18:05:06.511Z</time>
      </trkpt>
      <trkpt lat="44.60799" lon="0.88167">
        <ele>191</ele>
        <time>2018-03-03T18:05:07.511Z</time>
      </trkpt>
      <trkpt lat="44.60802" lon="0.88167">
        <ele>191</ele>
        <time>2018-03-03T18:05:08.511Z</time>
      </trkpt>
      <trkpt lat="44.60805" lon="0.88168">
        <ele>191</ele>
        <time>2018-03-03T18:05:09.511Z</time>
      </trkpt>
      <trkpt lat="44.60807" lon="0.88168">
        <ele>191</ele>
        <time>2018-03-03T18:05:10.511Z</time>
      </trkpt>
      <trkpt lat="44.6081" lon="0.88168">
        <ele>192</ele>
        <time>2018-03-03T18:05:11.511Z</time>
      </trkpt>
      <trkpt lat="44.60813" lon="0.88168">
        <ele>192</ele>
        <time>2018-03-03T18:05:12.511Z</time>
      </trkpt>
      <trkpt lat="44.60815" lon="0.88168">
        <ele>192</ele>
        <time>2018-03-03T18:05:13.511Z</time>
      </trkpt>
      <trkpt lat="44.60818" lon="0.88168">
        <ele>192</ele>
        <time>2018-03-03T18:05:14.511Z</time>
      </trkpt>
      <trkpt lat="44.6082" lon="0.88168">
        <ele>192</ele>
        <time>2018-03-03T18:05:15.511Z</time>
      </trkpt>
      <trkpt lat="44.60823" lon="0.88169">
        <ele>193</ele>
        <time>2018-03-03T18:05:16.511Z</time>
      </trkpt>
      <trkpt lat="44.60825" lon="0.88169">
        <ele>193</ele>
        <time>2018-03-03T18:05:17.511Z</time>
      </trkpt>
      <trkpt lat="44.60828" lon="0.88169">
        <ele>193</ele>
        <time>2018-03-03T18:05:18.511Z</time>
      </trkpt>
      <trkpt lat="44.6083" lon="0.88169">
        <ele>193</ele>
        <time>2018-03-03T18:05:19.511Z</time>
      </trkpt>
      <trkpt lat="44.60832" lon="0.88169">
        <ele>193</ele>
        <time>2018-03-03T18:05:20.511Z</time>
      </trkpt>
      <trkpt lat="44.60835" lon="0.8817">
        <ele>194</ele>
        <time>2018-03-03T18:05:21.511Z</time>
      </trkpt>
      <trkpt lat="44.60837" lon="0.88171">
        <ele>194</ele>
        <time>2018-03-03T18:05:22.511Z</time>
      </trkpt>
      <trkpt lat="44.60838" lon="0.88172">
        <ele>194</ele>
        <time>2018-03-03T18:05:23.511Z</time>
      </trkpt>
      <trkpt lat="44.6084" lon="0.88175">
        <ele>194</ele>
        <time>2018-03-03T18:05:24.511Z</time>
      </trkpt>
      <trkpt lat="44.6084" lon="0.88178">
        <ele>194</ele>
        <time>2018-03-03T18:05:25.511Z</time>
      </trkpt>
      <trkpt lat="44.60841" lon="0.88182">
        <ele>195</ele>
        <time>2018-03-03T18:05:26.511Z</time>
      </trkpt>
      <trkpt lat="44.60841" lon="0.88186">
        <ele>195</ele>
        <time>2018-03-03T18:05:27.511Z</time>
      </trkpt>
      <trkpt lat="44.60842" lon="0.88189">
        <ele>195</ele>
        <time>2018-03-03T18:05:28.511Z</time>
      </trkpt>
      <trkpt lat="44.60842" lon="0.88192">
        <ele>195</ele>
        <time>2018-03-03T18:05:29.511Z</time>
      </trkpt>
      <trkpt lat="44.60842" lon="0.88194">
        <ele>195</ele>
        <time>2018-03-03T18:05:30.511Z</time>
      </trkpt>
      <trkpt lat="44.60843" lon="0.88197">
        <ele>195</ele>
        <time>2018-03-03T18:05:31.511Z</time>
      </trkpt>
      <trkpt lat="44.60843" lon="0.88199">
        <ele>195</ele>
        <time>2018-03-03T18:05:32.511Z</time>
      </trkpt>
      <trkpt lat="44.60844" lon="0.88201">
        <ele>195</ele>
        <time>2018-03-03T18:05:33.511Z</time>
      </trkpt>
      <trkpt lat="44.60844" lon="0.88203">
        <ele>195</ele>
        <time>2018-03-03T18:05:34.511Z</time>
      </trkpt>
      <trkpt lat="44.60844" lon="0.88206">
        <ele>195</ele>
        <time>2018-03-03T18:05:35.511Z</time>
      </trkpt>
      <trkpt lat="44.60844" lon="0.88209">
        <ele>196</ele>
        <time>2018-03-03T18:05:36.511Z</time>
      </trkpt>
      <trkpt lat="44.60844" lon="0.88213">
        <ele>196</ele>
        <time>2018-03-03T18:05:37.511Z</time>
      </trkpt>
      <trkpt lat="44.60844" lon="0.88216">
        <ele>196</ele>
        <time>2018-03-03T18:05:38.511Z</time>
      </trkpt>
      <trkpt lat="44.60844" lon="0.8822">
        <ele>196</ele>
        <time>2018-03-03T18:05:39.511Z</time>
      </trkpt>
      <trkpt lat="44.60843" lon="0.88224">
        <ele>196</ele>
        <time>2018-03-03T18:05:40.511Z</time>
      </trkpt>
      <trkpt lat="44.60843" lon="0.88227">
        <ele>196</ele>
        <time>2018-03-03T18:05:41.511Z</time>
      </trkpt>
      <trkpt lat="44.60843" lon="0.88231">
        <ele>196</ele>
        <time>2018-03-03T18:05:42.511Z</time>
      </trkpt>
      <trkpt lat="44.60843" lon="0.88235">
        <ele>196</ele>
        <time>2018-03-03T18:05:43.511Z</time>
      </trkpt>
      <trkpt lat="44.60843" lon="0.88239">
        <ele>196</ele>
        <time>2018-03-03T18:05:44.511Z</time>
      </trkpt>
      <trkpt lat="44.60842" lon="0.88242">
        <ele>196</ele>
        <time>2018-03-03T18:05:45.511Z</time>
      </trkpt>
      <trkpt lat="44.60842" lon="0.88246">
        <ele>197</ele>
        <time>2018-03-03T18:05:46.511Z</time>
      </trkpt>
      <trkpt lat="44.60842" lon="0.8825">
        <ele>197</ele>
        <time>2018-03-03T18:05:47.511Z</time>
      </trkpt>
      <trkpt lat="44.60842" lon="0.88254">
        <ele>197</ele>
        <time>2018-03-03T18:05:48.511Z</time>
      </trkpt>
      <trkpt lat="44.60842" lon="0.88258">
        <ele>197</ele>
        <time>2018-03-03T18:05:49.511Z</time>
      </trkpt>
      <trkpt lat="44.60842" lon="0.88261">
        <ele>197</ele>
        <time>2018-03-03T18:05:50.511Z</time>
      </trkpt>
      <trkpt lat="44.60842" lon="0.88265">
        <ele>197</ele>
        <time>2018-03-03T18:05:51.511Z</time>
      </trkpt>
      <trkpt lat="44.60842" lon="0.88269">
        <ele>197</ele>
        <time>2018-03-03T18:05:52.511Z</time>
      </trkpt>
      <trkpt lat="44.60842" lon="0.88273">
        <ele>197</ele>
        <time>2018-03-03T18:05:53.511Z</time>
      </trkpt>
      <trkpt lat="44.60842" lon="0.88276">
        <ele>198</ele>
        <time>2018-03-03T18:05:54.511Z</time>
      </trkpt>
      <trkpt lat="44.60842" lon="0.8828">
        <ele>198</ele>
        <time>2018-03-03T18:05:55.511Z</time>
      </trkpt>
      <trkpt lat="44.60842" lon="0.88283">
        <ele>198</ele>
        <time>2018-03-03T18:05:56.511Z</time>
      </trkpt>
      <trkpt lat="44.60842" lon="0.88287">
        <ele>198</ele>
        <time>2018-03-03T18:05:57.511Z</time>
      </trkpt>
      <trkpt lat="44.60842" lon="0.8829">
        <ele>198</ele>
        <time>2018-03-03T18:05:58.511Z</time>
      </trkpt>
      <trkpt lat="44.60842" lon="0.88293">
        <ele>198</ele>
        <time>2018-03-03T18:05:59.511Z</time>
      </trkpt>
      <trkpt lat="44.60842" lon="0.88295">
        <ele>199</ele>
        <time>2018-03-03T18:06:00.511Z</time>
      </trkpt>
      <trkpt lat="44.60842" lon="0.88298">
        <ele>199</ele>
        <time>2018-03-03T18:06:01.511Z</time>
      </trkpt>
      <trkpt lat="44.60842" lon="0.88301">
        <ele>199</ele>
        <time>2018-03-03T18:06:02.511Z</time>
      </trkpt>
      <trkpt lat="44.60842" lon="0.88303">
        <ele>199</ele>
        <time>2018-03-03T18:06:03.511Z</time>
      </trkpt>
      <trkpt lat="44.60842" lon="0.88305">
        <ele>199</ele>
        <time>2018-03-03T18:06:04.511Z</time>
      </trkpt>
      <trkpt lat="44.60843" lon="0.88307">
        <ele>200</ele>
        <time>2018-03-03T18:06:05.511Z</time>
      </trkpt>
      <trkpt lat="44.60843" lon="0.88309">
        <ele>200</ele>
        <time>2018-03-03T18:06:06.511Z</time>
      </trkpt>
      <trkpt lat="44.60843" lon="0.88312">
        <ele>200</ele>
        <time>2018-03-03T18:06:07.511Z</time>
      </trkpt>
      <trkpt lat="44.60843" lon="0.88314">
        <ele>200</ele>
        <time>2018-03-03T18:06:08.511Z</time>
      </trkpt>
      <trkpt lat="44.60844" lon="0.88315">
        <ele>200</ele>
        <time>2018-03-03T18:06:09.511Z</time>
      </trkpt>
      <trkpt lat="44.60844" lon="0.88317">
        <ele>200</ele>
        <time>2018-03-03T18:06:10.511Z</time>
      </trkpt>
      <trkpt lat="44.60844" lon="0.88319">
        <ele>201</ele>
        <time>2018-03-03T18:06:11.511Z</time>
      </trkpt>
      <trkpt lat="44.60844" lon="0.88321">
        <ele>201</ele>
        <time>2018-03-03T18:06:12.511Z</time>
      </trkpt>
      <trkpt lat="44.60845" lon="0.88323">
        <ele>201</ele>
        <time>2018-03-03T18:06:13.511Z</time>
      </trkpt>
      <trkpt lat="44.60845" lon="0.88325">
        <ele>201</ele>
        <time>2018-03-03T18:06:14.511Z</time>
      </trkpt>
      <trkpt lat="44.60845" lon="0.88327">
        <ele>201</ele>
        <time>2018-03-03T18:06:15.511Z</time>
      </trkpt>
      <trkpt lat="44.60845" lon="0.88329">
        <ele>202</ele>
        <time>2018-03-03T18:06:16.511Z</time>
      </trkpt>
      <trkpt lat="44.60845" lon="0.88331">
        <ele>202</ele>
        <time>2018-03-03T18:06:17.511Z</time>
      </trkpt>
      <trkpt lat="44.60846" lon="0.88333">
        <ele>202</ele>
        <time>2018-03-03T18:06:18.511Z</time>
      </trkpt>
      <trkpt lat="44.60846" lon="0.88335">
        <ele>202</ele>
        <time>2018-03-03T18:06:19.511Z</time>
      </trkpt>
      <trkpt lat="44.60847" lon="0.88338">
        <ele>202</ele>
        <time>2018-03-03T18:06:20.511Z</time>
      </trkpt>
      <trkpt lat="44.60848" lon="0.8834">
        <ele>202</ele>
        <time>2018-03-03T18:06:21.511Z</time>
      </trkpt>
      <trkpt lat="44.60849" lon="0.88341">
        <ele>203</ele>
        <time>2018-03-03T18:06:22.511Z</time>
      </trkpt>
      <trkpt lat="44.6085" lon="0.88342">
        <ele>203</ele>
        <time>2018-03-03T18:06:23.511Z</time>
      </trkpt>
      <trkpt lat="44.60852" lon="0.88342">
        <ele>203</ele>
        <time>2018-03-03T18:06:24.511Z</time>
      </trkpt>
      <trkpt lat="44.60853" lon="0.88342">
        <ele>203</ele>
        <time>2018-03-03T18:06:25.511Z</time>
      </trkpt>
      <trkpt lat="44.60854" lon="0.88342">
        <ele>203</ele>
        <time>2018-03-03T18:06:26.511Z</time>
      </trkpt>
      <trkpt lat="44.60856" lon="0.88341">
        <ele>203</ele>
        <time>2018-03-03T18:06:27.511Z</time>
      </trkpt>
      <trkpt lat="44.60857" lon="0.8834">
        <ele>203</ele>
        <time>2018-03-03T18:06:28.511Z</time>
      </trkpt>
      <trkpt lat="44.60858" lon="0.8834">
        <ele>203</ele>
        <time>2018-03-03T18:06:29.511Z</time>
      </trkpt>
      <trkpt lat="44.60859" lon="0.8834">
        <ele>203</ele>
        <time>2018-03-03T18:06:30.511Z</time>
      </trkpt>
      <trkpt lat="44.60861" lon="0.88341">
        <ele>203</ele>
        <time>2018-03-03T18:06:31.511Z</time>
      </trkpt>
      <trkpt lat="44.60863" lon="0.88342">
        <ele>203</ele>
        <time>2018-03-03T18:06:32.511Z</time>
      </trkpt>
      <trkpt lat="44.60866" lon="0.88343">
        <ele>203</ele>
        <time>2018-03-03T18:06:33.511Z</time>
      </trkpt>
      <trkpt lat="44.60869" lon="0.88345">
        <ele>203</ele>
        <time>2018-03-03T18:06:34.511Z</time>
      </trkpt>
      <trkpt lat="44.60872" lon="0.88347">
        <ele>203</ele>
        <time>2018-03-03T18:06:35.511Z</time>
      </trkpt>
      <trkpt lat="44.60875" lon="0.88349">
        <ele>203</ele>
        <time>2018-03-03T18:06:36.511Z</time>
      </trkpt>
      <trkpt lat="44.60878" lon="0.88351">
        <ele>203</ele>
        <time>2018-03-03T18:06:37.511Z</time>
      </trkpt>
      <trkpt lat="44.60881" lon="0.88353">
        <ele>202</ele>
        <time>2018-03-03T18:06:38.511Z</time>
      </trkpt>
      <trkpt lat="44.60883" lon="0.88355">
        <ele>202</ele>
        <time>2018-03-03T18:06:39.511Z</time>
      </trkpt>
      <trkpt lat="44.60886" lon="0.88356">
        <ele>202</ele>
        <time>2018-03-03T18:06:40.511Z</time>
      </trkpt>
      <trkpt lat="44.60888" lon="0.88358">
        <ele>202</ele>
        <time>2018-03-03T18:06:41.511Z</time>
      </trkpt>
      <trkpt lat="44.60891" lon="0.88359">
        <ele>202</ele>
        <time>2018-03-03T18:06:42.511Z</time>
      </trkpt>
      <trkpt lat="44.60894" lon="0.8836">
        <ele>202</ele>
        <time>2018-03-03T18:06:43.511Z</time>
      </trkpt>
      <trkpt lat="44.60897" lon="0.88361">
        <ele>202</ele>
        <time>2018-03-03T18:06:44.511Z</time>
      </trkpt>
      <trkpt lat="44.609" lon="0.88362">
        <ele>202</ele>
        <time>2018-03-03T18:06:45.511Z</time>
      </trkpt>
      <trkpt lat="44.60903" lon="0.88363">
        <ele>202</ele>
        <time>2018-03-03T18:06:46.511Z</time>
      </trkpt>
      <trkpt lat="44.60907" lon="0.88364">
        <ele>202</ele>
        <time>2018-03-03T18:06:47.511Z</time>
      </trkpt>
      <trkpt lat="44.60911" lon="0.88365">
        <ele>202</ele>
        <time>2018-03-03T18:06:48.511Z</time>
      </trkpt>
      <trkpt lat="44.60915" lon="0.88366">
        <ele>202</ele>
        <time>2018-03-03T18:06:49.511Z</time>
      </trkpt>
      <trkpt lat="44.60919" lon="0.88366">
        <ele>202</ele>
        <time>2018-03-03T18:06:50.511Z</time>
      </trkpt>
      <trkpt lat="44.60923" lon="0.88367">
        <ele>202</ele>
        <time>2018-03-03T18:06:51.511Z</time>
      </trkpt>
      <trkpt lat="44.60926" lon="0.88368">
        <ele>202</ele>
        <time>2018-03-03T18:06:52.511Z</time>
      </trkpt>
      <trkpt lat="44.6093" lon="0.8837">
        <ele>202</ele>
        <time>2018-03-03T18:06:53.511Z</time>
      </trkpt>
      <trkpt lat="44.60932" lon="0.88371">
        <ele>203</ele>
        <time>2018-03-03T18:06:54.511Z</time>
      </trkpt>
      <trkpt lat="44.60935" lon="0.88374">
        <ele>203</ele>
        <time>2018-03-03T18:06:55.511Z</time>
      </trkpt>
      <trkpt lat="44.60936" lon="0.88378">
        <ele>203</ele>
        <time>2018-03-03T18:06:56.511Z</time>
      </trkpt>
      <trkpt lat="44.60937" lon="0.88383">
        <ele>202</ele>
        <time>2018-03-03T18:06:57.511Z</time>
      </trkpt>
      <trkpt lat="44.60937" lon="0.88388">
        <ele>202</ele>
        <time>2018-03-03T18:06:58.511Z</time>
      </trkpt>
      <trkpt lat="44.60935" lon="0.88394">
        <ele>202</ele>
        <time>2018-03-03T18:06:59.511Z</time>
      </trkpt>
      <trkpt lat="44.60934" lon="0.88399">
        <ele>202</ele>
        <time>2018-03-03T18:07:00.511Z</time>
      </trkpt>
      <trkpt lat="44.60934" lon="0.88404">
        <ele>201</ele>
        <time>2018-03-03T18:07:01.511Z</time>
      </trkpt>
      <trkpt lat="44.60936" lon="0.88407">
        <ele>201</ele>
        <time>2018-03-03T18:07:02.511Z</time>
      </trkpt>
      <trkpt lat="44.60938" lon="0.88409">
        <ele>201</ele>
        <time>2018-03-03T18:07:03.511Z</time>
      </trkpt>
      <trkpt lat="44.60941" lon="0.88411">
        <ele>201</ele>
        <time>2018-03-03T18:07:04.511Z</time>
      </trkpt>
      <trkpt lat="44.60945" lon="0.88413">
        <ele>201</ele>
        <time>2018-03-03T18:07:05.511Z</time>
      </trkpt>
      <trkpt lat="44.60948" lon="0.88414">
        <ele>200</ele>
        <time>2018-03-03T18:07:06.511Z</time>
      </trkpt>
      <trkpt lat="44.60952" lon="0.88416">
        <ele>200</ele>
        <time>2018-03-03T18:07:07.511Z</time>
      </trkpt>
      <trkpt lat="44.60956" lon="0.88419">
        <ele>200</ele>
        <time>2018-03-03T18:07:08.511Z</time>
      </trkpt>
      <trkpt lat="44.60959" lon="0.88422">
        <ele>200</ele>
        <time>2018-03-03T18:07:09.511Z</time>
      </trkpt>
      <trkpt lat="44.60963" lon="0.88426">
        <ele>200</ele>
        <time>2018-03-03T18:07:10.511Z</time>
      </trkpt>
      <trkpt lat="44.60967" lon="0.88431">
        <ele>199</ele>
        <time>2018-03-03T18:07:11.511Z</time>
      </trkpt>
      <trkpt lat="44.60971" lon="0.88436">
        <ele>199</ele>
        <time>2018-03-03T18:07:12.511Z</time>
      </trkpt>
      <trkpt lat="44.60975" lon="0.88442">
        <ele>199</ele>
        <time>2018-03-03T18:07:13.511Z</time>
      </trkpt>
      <trkpt lat="44.60979" lon="0.88448">
        <ele>198</ele>
        <time>2018-03-03T18:07:14.511Z</time>
      </trkpt>
      <trkpt lat="44.60983" lon="0.88454">
        <ele>198</ele>
        <time>2018-03-03T18:07:15.511Z</time>
      </trkpt>
      <trkpt lat="44.60987" lon="0.8846">
        <ele>197</ele>
        <time>2018-03-03T18:07:16.511Z</time>
      </trkpt>
      <trkpt lat="44.60991" lon="0.88467">
        <ele>197</ele>
        <time>2018-03-03T18:07:17.511Z</time>
      </trkpt>
      <trkpt lat="44.60994" lon="0.88473">
        <ele>197</ele>
        <time>2018-03-03T18:07:18.511Z</time>
      </trkpt>
      <trkpt lat="44.60997" lon="0.8848">
        <ele>197</ele>
        <time>2018-03-03T18:07:19.511Z</time>
      </trkpt>
      <trkpt lat="44.61" lon="0.88485">
        <ele>196</ele>
        <time>2018-03-03T18:07:20.511Z</time>
      </trkpt>
      <trkpt lat="44.61002" lon="0.88489">
        <ele>196</ele>
        <time>2018-03-03T18:07:21.511Z</time>
      </trkpt>
      <trkpt lat="44.61004" lon="0.88492">
        <ele>196</ele>
        <time>2018-03-03T18:07:22.511Z</time>
      </trkpt>
      <trkpt lat="44.61005" lon="0.88495">
        <ele>195</ele>
        <time>2018-03-03T18:07:23.511Z</time>
      </trkpt>
      <trkpt lat="44.61005" lon="0.88499">
        <ele>195</ele>
        <time>2018-03-03T18:07:24.511Z</time>
      </trkpt>
      <trkpt lat="44.61005" lon="0.88503">
        <ele>195</ele>
        <time>2018-03-03T18:07:25.511Z</time>
      </trkpt>
      <trkpt lat="44.61005" lon="0.88507">
        <ele>195</ele>
        <time>2018-03-03T18:07:26.511Z</time>
      </trkpt>
      <trkpt lat="44.61005" lon="0.88511">
        <ele>195</ele>
        <time>2018-03-03T18:07:27.511Z</time>
      </trkpt>
      <trkpt lat="44.61006" lon="0.88514">
        <ele>195</ele>
        <time>2018-03-03T18:07:28.511Z</time>
      </trkpt>
      <trkpt lat="44.61007" lon="0.88516">
        <ele>195</ele>
        <time>2018-03-03T18:07:29.511Z</time>
      </trkpt>
      <trkpt lat="44.61008" lon="0.88518">
        <ele>195</ele>
        <time>2018-03-03T18:07:30.511Z</time>
      </trkpt>
      <trkpt lat="44.61009" lon="0.88519">
        <ele>195</ele>
        <time>2018-03-03T18:07:31.511Z</time>
      </trkpt>
      <trkpt lat="44.6101" lon="0.88519">
        <ele>195</ele>
        <time>2018-03-03T18:07:32.511Z</time>
      </trkpt>
      <trkpt lat="44.61011" lon="0.8852">
        <ele>195</ele>
        <time>2018-03-03T18:07:33.511Z</time>
      </trkpt>
      <trkpt lat="44.61011" lon="0.8852">
        <ele>195</ele>
        <time>2018-03-03T18:07:34.511Z</time>
      </trkpt>
      <trkpt lat="44.61011" lon="0.8852">
        <ele>195</ele>
        <time>2018-03-03T18:07:35.511Z</time>
      </trkpt>
      <trkpt lat="44.61011" lon="0.8852">
        <ele>195</ele>
        <time>2018-03-03T18:07:36.511Z</time>
      </trkpt>
      <trkpt lat="44.61011" lon="0.8852">
        <ele>195</ele>
        <time>2018-03-03T18:07:37.511Z</time>
      </trkpt>
      <trkpt lat="44.61011" lon="0.8852">
        <ele>195</ele>
        <time>2018-03-03T18:07:38.511Z</time>
      </trkpt>
      <trkpt lat="44.61011" lon="0.8852">
        <ele>195</ele>
        <time>2018-03-03T18:07:39.511Z</time>
      </trkpt>
      <trkpt lat="44.61011" lon="0.8852">
        <ele>195</ele>
        <time>2018-03-03T18:07:40.511Z</time>
      </trkpt>
      <trkpt lat="44.61011" lon="0.8852">
        <ele>195</ele>
        <time>2018-03-03T18:07:41.511Z</time>
      </trkpt>
      <trkpt lat="44.61011" lon="0.8852">
        <ele>195</ele>
        <time>2018-03-03T18:07:42.511Z</time>
      </trkpt>
      <trkpt lat="44.61011" lon="0.8852">
        <ele>195</ele>
        <time>2018-03-03T18:07:43.511Z</time>
      </trkpt>
      <trkpt lat="44.61011" lon="0.8852">
        <ele>195</ele>
        <time>2018-03-03T18:07:44.511Z</time>
      </trkpt>
      <trkpt lat="44.61011" lon="0.8852">
        <ele>195</ele>
        <time>2018-03-03T18:07:45.511Z</time>
      </trkpt>
      <trkpt lat="44.61011" lon="0.8852">
        <ele>195</ele>
        <time>2018-03-03T18:07:46.511Z</time>
      </trkpt>
      <trkpt lat="44.61011" lon="0.8852">
        <ele>195</ele>
        <time>2018-03-03T18:07:47.511Z</time>
      </trkpt>
      <trkpt lat="44.61011" lon="0.8852">
        <ele>195</ele>
        <time>2018-03-03T18:07:48.511Z</time>
      </trkpt>
      <trkpt lat="44.61011" lon="0.8852">
        <ele>195</ele>
        <time>2018-03-03T18:07:49.511Z</time>
      </trkpt>
      <trkpt lat="44.61012" lon="0.88521">
        <ele>195</ele>
        <time>2018-03-03T18:07:50.511Z</time>
      </trkpt>
      <trkpt lat="44.61013" lon="0.88521">
        <ele>195</ele>
        <time>2018-03-03T18:07:51.511Z</time>
      </trkpt>
      <trkpt lat="44.61014" lon="0.88523">
        <ele>194</ele>
        <time>2018-03-03T18:07:52.511Z</time>
      </trkpt>
      <trkpt lat="44.61015" lon="0.88524">
        <ele>194</ele>
        <time>2018-03-03T18:07:53.511Z</time>
      </trkpt>
      <trkpt lat="44.61017" lon="0.88527">
        <ele>194</ele>
        <time>2018-03-03T18:07:54.511Z</time>
      </trkpt>
      <trkpt lat="44.61019" lon="0.88529">
        <ele>194</ele>
        <time>2018-03-03T18:07:55.511Z</time>
      </trkpt>
      <trkpt lat="44.6102" lon="0.88532">
        <ele>194</ele>
        <time>2018-03-03T18:07:56.511Z</time>
      </trkpt>
      <trkpt lat="44.61022" lon="0.88535">
        <ele>194</ele>
        <time>2018-03-03T18:07:57.511Z</time>
      </trkpt>
      <trkpt lat="44.61023" lon="0.88538">
        <ele>194</ele>
        <time>2018-03-03T18:07:58.511Z</time>
      </trkpt>
      <trkpt lat="44.61024" lon="0.88541">
        <ele>194</ele>
        <time>2018-03-03T18:07:59.511Z</time>
      </trkpt>
      <trkpt lat="44.61024" lon="0.88543">
        <ele>194</ele>
        <time>2018-03-03T18:08:00.511Z</time>
      </trkpt>
      <trkpt lat="44.61025" lon="0.88544">
        <ele>193</ele>
        <time>2018-03-03T18:08:01.511Z</time>
      </trkpt>
      <trkpt lat="44.61025" lon="0.88544">
        <ele>193</ele>
        <time>2018-03-03T18:08:02.511Z</time>
      </trkpt>
      <trkpt lat="44.61025" lon="0.88544">
        <ele>193</ele>
        <time>2018-03-03T18:08:03.511Z</time>
      </trkpt>
      <trkpt lat="44.61025" lon="0.88544">
        <ele>193</ele>
        <time>2018-03-03T18:08:04.511Z</time>
      </trkpt>
      <trkpt lat="44.61025" lon="0.88544">
        <ele>193</ele>
        <time>2018-03-03T18:08:05.511Z</time>
      </trkpt>
      <trkpt lat="44.61025" lon="0.88546">
        <ele>193</ele>
        <time>2018-03-03T18:08:06.511Z</time>
      </trkpt>
      <trkpt lat="44.61026" lon="0.88549">
        <ele>193</ele>
        <time>2018-03-03T18:08:07.511Z</time>
      </trkpt>
      <trkpt lat="44.61027" lon="0.88552">
        <ele>193</ele>
        <time>2018-03-03T18:08:08.511Z</time>
      </trkpt>
      <trkpt lat="44.61029" lon="0.88557">
        <ele>193</ele>
        <time>2018-03-03T18:08:09.511Z</time>
      </trkpt>
      <trkpt lat="44.61032" lon="0.88562">
        <ele>192</ele>
        <time>2018-03-03T18:08:10.511Z</time>
      </trkpt>
      <trkpt lat="44.61034" lon="0.88568">
        <ele>192</ele>
        <time>2018-03-03T18:08:11.511Z</time>
      </trkpt>
      <trkpt lat="44.61036" lon="0.88573">
        <ele>192</ele>
        <time>2018-03-03T18:08:12.511Z</time>
      </trkpt>
      <trkpt lat="44.61038" lon="0.88579">
        <ele>191</ele>
        <time>2018-03-03T18:08:13.511Z</time>
      </trkpt>
      <trkpt lat="44.6104" lon="0.88585">
        <ele>191</ele>
        <time>2018-03-03T18:08:14.511Z</time>
      </trkpt>
      <trkpt lat="44.61041" lon="0.88592">
        <ele>191</ele>
        <time>2018-03-03T18:08:15.511Z</time>
      </trkpt>
      <trkpt lat="44.61042" lon="0.88599">
        <ele>190</ele>
        <time>2018-03-03T18:08:16.511Z</time>
      </trkpt>
      <trkpt lat="44.61043" lon="0.88606">
        <ele>190</ele>
        <time>2018-03-03T18:08:17.511Z</time>
      </trkpt>
      <trkpt lat="44.61044" lon="0.88614">
        <ele>189</ele>
        <time>2018-03-03T18:08:18.511Z</time>
      </trkpt>
      <trkpt lat="44.61045" lon="0.88621">
        <ele>189</ele>
        <time>2018-03-03T18:08:19.511Z</time>
      </trkpt>
      <trkpt lat="44.61046" lon="0.88629">
        <ele>188</ele>
        <time>2018-03-03T18:08:20.511Z</time>
      </trkpt>
      <trkpt lat="44.61047" lon="0.88637">
        <ele>188</ele>
        <time>2018-03-03T18:08:21.511Z</time>
      </trkpt>
      <trkpt lat="44.61047" lon="0.88645">
        <ele>187</ele>
        <time>2018-03-03T18:08:22.511Z</time>
      </trkpt>
      <trkpt lat="44.61045" lon="0.88655">
        <ele>187</ele>
        <time>2018-03-03T18:08:23.511Z</time>
      </trkpt>
      <trkpt lat="44.61044" lon="0.88665">
        <ele>186</ele>
        <time>2018-03-03T18:08:24.511Z</time>
      </trkpt>
      <trkpt lat="44.61043" lon="0.88675">
        <ele>185</ele>
        <time>2018-03-03T18:08:25.511Z</time>
      </trkpt>
      <trkpt lat="44.61042" lon="0.88685">
        <ele>185</ele>
        <time>2018-03-03T18:08:26.511Z</time>
      </trkpt>
      <trkpt lat="44.61042" lon="0.88695">
        <ele>184</ele>
        <time>2018-03-03T18:08:27.511Z</time>
      </trkpt>
      <trkpt lat="44.61041" lon="0.88704">
        <ele>184</ele>
        <time>2018-03-03T18:08:28.511Z</time>
      </trkpt>
      <trkpt lat="44.61039" lon="0.88713">
        <ele>183</ele>
        <time>2018-03-03T18:08:29.511Z</time>
      </trkpt>
      <trkpt lat="44.61036" lon="0.88721">
        <ele>182</ele>
        <time>2018-03-03T18:08:30.511Z</time>
      </trkpt>
      <trkpt lat="44.61032" lon="0.88728">
        <ele>182</ele>
        <time>2018-03-03T18:08:31.511Z</time>
      </trkpt>
      <trkpt lat="44.61027" lon="0.88733">
        <ele>182</ele>
        <time>2018-03-03T18:08:32.511Z</time>
      </trkpt>
      <trkpt lat="44.61022" lon="0.88737">
        <ele>182</ele>
        <time>2018-03-03T18:08:33.511Z</time>
      </trkpt>
      <trkpt lat="44.61017" lon="0.88739">
        <ele>181</ele>
        <time>2018-03-03T18:08:34.511Z</time>
      </trkpt>
      <trkpt lat="44.61013" lon="0.88742">
        <ele>181</ele>
        <time>2018-03-03T18:08:35.511Z</time>
      </trkpt>
      <trkpt lat="44.61009" lon="0.88744">
        <ele>181</ele>
        <time>2018-03-03T18:08:36.511Z</time>
      </trkpt>
      <trkpt lat="44.61006" lon="0.88746">
        <ele>181</ele>
        <time>2018-03-03T18:08:37.511Z</time>
      </trkpt>
      <trkpt lat="44.61004" lon="0.88747">
        <ele>181</ele>
        <time>2018-03-03T18:08:38.511Z</time>
      </trkpt>
      <trkpt lat="44.61002" lon="0.88749">
        <ele>181</ele>
        <time>2018-03-03T18:08:39.511Z</time>
      </trkpt>
      <trkpt lat="44.61" lon="0.88751">
        <ele>181</ele>
        <time>2018-03-03T18:08:40.511Z</time>
      </trkpt>
      <trkpt lat="44.60998" lon="0.88753">
        <ele>181</ele>
        <time>2018-03-03T18:08:41.511Z</time>
      </trkpt>
      <trkpt lat="44.60996" lon="0.88754">
        <ele>181</ele>
        <time>2018-03-03T18:08:42.511Z</time>
      </trkpt>
      <trkpt lat="44.60994" lon="0.88756">
        <ele>181</ele>
        <time>2018-03-03T18:08:43.511Z</time>
      </trkpt>
      <trkpt lat="44.60992" lon="0.88758">
        <ele>181</ele>
        <time>2018-03-03T18:08:44.511Z</time>
      </trkpt>
      <trkpt lat="44.6099" lon="0.8876">
        <ele>181</ele>
        <time>2018-03-03T18:08:45.511Z</time>
      </trkpt>
      <trkpt lat="44.60988" lon="0.88761">
        <ele>181</ele>
        <time>2018-03-03T18:08:46.511Z</time>
      </trkpt>
      <trkpt lat="44.60985" lon="0.88763">
        <ele>181</ele>
        <time>2018-03-03T18:08:47.511Z</time>
      </trkpt>
      <trkpt lat="44.60982" lon="0.88765">
        <ele>181</ele>
        <time>2018-03-03T18:08:48.511Z</time>
      </trkpt>
      <trkpt lat="44.60979" lon="0.88766">
        <ele>181</ele>
        <time>2018-03-03T18:08:49.511Z</time>
      </trkpt>
      <trkpt lat="44.60975" lon="0.88768">
        <ele>181</ele>
        <time>2018-03-03T18:08:50.511Z</time>
      </trkpt>
      <trkpt lat="44.60972" lon="0.8877">
        <ele>181</ele>
        <time>2018-03-03T18:08:51.511Z</time>
      </trkpt>
      <trkpt lat="44.60969" lon="0.88772">
        <ele>180</ele>
        <time>2018-03-03T18:08:52.511Z</time>
      </trkpt>
      <trkpt lat="44.60966" lon="0.88773">
        <ele>180</ele>
        <time>2018-03-03T18:08:53.511Z</time>
      </trkpt>
      <trkpt lat="44.60963" lon="0.88775">
        <ele>181</ele>
        <time>2018-03-03T18:08:54.511Z</time>
      </trkpt>
      <trkpt lat="44.60961" lon="0.88777">
        <ele>181</ele>
        <time>2018-03-03T18:08:55.511Z</time>
      </trkpt>
      <trkpt lat="44.60958" lon="0.88779">
        <ele>181</ele>
        <time>2018-03-03T18:08:56.511Z</time>
      </trkpt>
      <trkpt lat="44.60956" lon="0.88781">
        <ele>181</ele>
        <time>2018-03-03T18:08:57.511Z</time>
      </trkpt>
      <trkpt lat="44.60954" lon="0.88784">
        <ele>181</ele>
        <time>2018-03-03T18:08:58.511Z</time>
      </trkpt>
      <trkpt lat="44.60951" lon="0.88787">
        <ele>181</ele>
        <time>2018-03-03T18:08:59.511Z</time>
      </trkpt>
      <trkpt lat="44.60949" lon="0.8879">
        <ele>181</ele>
        <time>2018-03-03T18:09:00.511Z</time>
      </trkpt>
      <trkpt lat="44.60946" lon="0.88794">
        <ele>181</ele>
        <time>2018-03-03T18:09:01.511Z</time>
      </trkpt>
      <trkpt lat="44.60943" lon="0.88797">
        <ele>181</ele>
        <time>2018-03-03T18:09:02.511Z</time>
      </trkpt>
      <trkpt lat="44.6094" lon="0.88801">
        <ele>181</ele>
        <time>2018-03-03T18:09:03.511Z</time>
      </trkpt>
      <trkpt lat="44.60938" lon="0.88805">
        <ele>181</ele>
        <time>2018-03-03T18:09:04.511Z</time>
      </trkpt>
      <trkpt lat="44.60935" lon="0.88808">
        <ele>181</ele>
        <time>2018-03-03T18:09:05.511Z</time>
      </trkpt>
      <trkpt lat="44.60932" lon="0.88812">
        <ele>181</ele>
        <time>2018-03-03T18:09:06.511Z</time>
      </trkpt>
      <trkpt lat="44.60929" lon="0.88815">
        <ele>181</ele>
        <time>2018-03-03T18:09:07.511Z</time>
      </trkpt>
      <trkpt lat="44.60926" lon="0.88819">
        <ele>182</ele>
        <time>2018-03-03T18:09:08.511Z</time>
      </trkpt>
      <trkpt lat="44.60923" lon="0.88822">
        <ele>182</ele>
        <time>2018-03-03T18:09:09.511Z</time>
      </trkpt>
      <trkpt lat="44.6092" lon="0.88825">
        <ele>182</ele>
        <time>2018-03-03T18:09:10.511Z</time>
      </trkpt>
      <trkpt lat="44.60917" lon="0.88828">
        <ele>182</ele>
        <time>2018-03-03T18:09:11.511Z</time>
      </trkpt>
      <trkpt lat="44.60914" lon="0.88831">
        <ele>182</ele>
        <time>2018-03-03T18:09:12.511Z</time>
      </trkpt>
      <trkpt lat="44.6091" lon="0.88834">
        <ele>182</ele>
        <time>2018-03-03T18:09:13.511Z</time>
      </trkpt>
      <trkpt lat="44.60906" lon="0.88836">
        <ele>182</ele>
        <time>2018-03-03T18:09:14.511Z</time>
      </trkpt>
      <trkpt lat="44.60902" lon="0.88839">
        <ele>183</ele>
        <time>2018-03-03T18:09:15.511Z</time>
      </trkpt>
      <trkpt lat="44.60899" lon="0.88841">
        <ele>183</ele>
        <time>2018-03-03T18:09:16.511Z</time>
      </trkpt>
      <trkpt lat="44.60896" lon="0.88844">
        <ele>183</ele>
        <time>2018-03-03T18:09:17.511Z</time>
      </trkpt>
      <trkpt lat="44.60893" lon="0.88846">
        <ele>183</ele>
        <time>2018-03-03T18:09:18.511Z</time>
      </trkpt>
      <trkpt lat="44.6089" lon="0.88848">
        <ele>184</ele>
        <time>2018-03-03T18:09:19.511Z</time>
      </trkpt>
      <trkpt lat="44.60887" lon="0.8885">
        <ele>184</ele>
        <time>2018-03-03T18:09:20.511Z</time>
      </trkpt>
      <trkpt lat="44.60884" lon="0.88852">
        <ele>184</ele>
        <time>2018-03-03T18:09:21.511Z</time>
      </trkpt>
      <trkpt lat="44.60881" lon="0.88854">
        <ele>184</ele>
        <time>2018-03-03T18:09:22.511Z</time>
      </trkpt>
      <trkpt lat="44.60877" lon="0.88856">
        <ele>184</ele>
        <time>2018-03-03T18:09:23.511Z</time>
      </trkpt>
      <trkpt lat="44.60873" lon="0.88858">
        <ele>184</ele>
        <time>2018-03-03T18:09:24.511Z</time>
      </trkpt>
      <trkpt lat="44.60869" lon="0.88861">
        <ele>184</ele>
        <time>2018-03-03T18:09:25.511Z</time>
      </trkpt>
      <trkpt lat="44.60865" lon="0.88863">
        <ele>184</ele>
        <time>2018-03-03T18:09:26.511Z</time>
      </trkpt>
      <trkpt lat="44.60861" lon="0.88866">
        <ele>184</ele>
        <time>2018-03-03T18:09:27.511Z</time>
      </trkpt>
      <trkpt lat="44.60857" lon="0.88869">
        <ele>184</ele>
        <time>2018-03-03T18:09:28.511Z</time>
      </trkpt>
      <trkpt lat="44.60854" lon="0.88872">
        <ele>184</ele>
        <time>2018-03-03T18:09:29.511Z</time>
      </trkpt>
      <trkpt lat="44.6085" lon="0.88874">
        <ele>184</ele>
        <time>2018-03-03T18:09:30.511Z</time>
      </trkpt>
      <trkpt lat="44.60846" lon="0.88877">
        <ele>184</ele>
        <time>2018-03-03T18:09:31.511Z</time>
      </trkpt>
      <trkpt lat="44.60842" lon="0.8888">
        <ele>184</ele>
        <time>2018-03-03T18:09:32.511Z</time>
      </trkpt>
      <trkpt lat="44.60839" lon="0.88883">
        <ele>184</ele>
        <time>2018-03-03T18:09:33.511Z</time>
      </trkpt>
      <trkpt lat="44.60835" lon="0.88885">
        <ele>183</ele>
        <time>2018-03-03T18:09:34.511Z</time>
      </trkpt>
      <trkpt lat="44.60832" lon="0.88888">
        <ele>183</ele>
        <time>2018-03-03T18:09:35.511Z</time>
      </trkpt>
      <trkpt lat="44.60828" lon="0.8889">
        <ele>183</ele>
        <time>2018-03-03T18:09:36.511Z</time>
      </trkpt>
      <trkpt lat="44.60825" lon="0.88892">
        <ele>183</ele>
        <time>2018-03-03T18:09:37.511Z</time>
      </trkpt>
      <trkpt lat="44.60821" lon="0.88894">
        <ele>183</ele>
        <time>2018-03-03T18:09:38.511Z</time>
      </trkpt>
      <trkpt lat="44.60817" lon="0.88896">
        <ele>183</ele>
        <time>2018-03-03T18:09:39.511Z</time>
      </trkpt>
      <trkpt lat="44.60814" lon="0.88898">
        <ele>183</ele>
        <time>2018-03-03T18:09:40.511Z</time>
      </trkpt>
      <trkpt lat="44.6081" lon="0.88899">
        <ele>182</ele>
        <time>2018-03-03T18:09:41.511Z</time>
      </trkpt>
      <trkpt lat="44.60807" lon="0.88901">
        <ele>182</ele>
        <time>2018-03-03T18:09:42.511Z</time>
      </trkpt>
      <trkpt lat="44.60803" lon="0.88903">
        <ele>182</ele>
        <time>2018-03-03T18:09:43.511Z</time>
      </trkpt>
      <trkpt lat="44.60799" lon="0.88905">
        <ele>182</ele>
        <time>2018-03-03T18:09:44.511Z</time>
      </trkpt>
      <trkpt lat="44.60795" lon="0.88907">
        <ele>182</ele>
        <time>2018-03-03T18:09:45.511Z</time>
      </trkpt>
      <trkpt lat="44.60791" lon="0.88909">
        <ele>182</ele>
        <time>2018-03-03T18:09:46.511Z</time>
      </trkpt>
      <trkpt lat="44.60787" lon="0.88911">
        <ele>182</ele>
        <time>2018-03-03T18:09:47.511Z</time>
      </trkpt>
      <trkpt lat="44.60783" lon="0.88913">
        <ele>181</ele>
        <time>2018-03-03T18:09:48.511Z</time>
      </trkpt>
      <trkpt lat="44.60779" lon="0.88915">
        <ele>181</ele>
        <time>2018-03-03T18:09:49.511Z</time>
      </trkpt>
      <trkpt lat="44.60775" lon="0.88917">
        <ele>181</ele>
        <time>2018-03-03T18:09:50.511Z</time>
      </trkpt>
      <trkpt lat="44.6077" lon="0.8892">
        <ele>181</ele>
        <time>2018-03-03T18:09:51.511Z</time>
      </trkpt>
      <trkpt lat="44.60766" lon="0.88922">
        <ele>181</ele>
        <time>2018-03-03T18:09:52.511Z</time>
      </trkpt>
      <trkpt lat="44.60761" lon="0.88925">
        <ele>182</ele>
        <time>2018-03-03T18:09:53.511Z</time>
      </trkpt>
      <trkpt lat="44.60757" lon="0.88927">
        <ele>182</ele>
        <time>2018-03-03T18:09:54.511Z</time>
      </trkpt>
      <trkpt lat="44.60752" lon="0.88929">
        <ele>182</ele>
        <time>2018-03-03T18:09:55.511Z</time>
      </trkpt>
      <trkpt lat="44.60748" lon="0.88932">
        <ele>182</ele>
        <time>2018-03-03T18:09:56.511Z</time>
      </trkpt>
      <trkpt lat="44.60743" lon="0.88935">
        <ele>182</ele>
        <time>2018-03-03T18:09:57.511Z</time>
      </trkpt>
      <trkpt lat="44.60739" lon="0.88938">
        <ele>182</ele>
        <time>2018-03-03T18:09:58.511Z</time>
      </trkpt>
      <trkpt lat="44.60734" lon="0.88941">
        <ele>182</ele>
        <time>2018-03-03T18:09:59.511Z</time>
      </trkpt>
      <trkpt lat="44.6073" lon="0.88944">
        <ele>182</ele>
        <time>2018-03-03T18:10:00.511Z</time>
      </trkpt>
      <trkpt lat="44.60725" lon="0.88947">
        <ele>182</ele>
        <time>2018-03-03T18:10:01.511Z</time>
      </trkpt>
      <trkpt lat="44.6072" lon="0.8895">
        <ele>182</ele>
        <time>2018-03-03T18:10:02.511Z</time>
      </trkpt>
      <trkpt lat="44.60715" lon="0.88953">
        <ele>182</ele>
        <time>2018-03-03T18:10:03.511Z</time>
      </trkpt>
      <trkpt lat="44.6071" lon="0.88956">
        <ele>182</ele>
        <time>2018-03-03T18:10:04.511Z</time>
      </trkpt>
      <trkpt lat="44.60705" lon="0.88958">
        <ele>182</ele>
        <time>2018-03-03T18:10:05.511Z</time>
      </trkpt>
      <trkpt lat="44.607" lon="0.88961">
        <ele>183</ele>
        <time>2018-03-03T18:10:06.511Z</time>
      </trkpt>
      <trkpt lat="44.60695" lon="0.88962">
        <ele>183</ele>
        <time>2018-03-03T18:10:07.511Z</time>
      </trkpt>
      <trkpt lat="44.60691" lon="0.88964">
        <ele>183</ele>
        <time>2018-03-03T18:10:08.511Z</time>
      </trkpt>
      <trkpt lat="44.60687" lon="0.88965">
        <ele>183</ele>
        <time>2018-03-03T18:10:09.511Z</time>
      </trkpt>
      <trkpt lat="44.60684" lon="0.88966">
        <ele>183</ele>
        <time>2018-03-03T18:10:10.511Z</time>
      </trkpt>
      <trkpt lat="44.60681" lon="0.88967">
        <ele>183</ele>
        <time>2018-03-03T18:10:11.511Z</time>
      </trkpt>
      <trkpt lat="44.60678" lon="0.88968">
        <ele>183</ele>
        <time>2018-03-03T18:10:12.511Z</time>
      </trkpt>
      <trkpt lat="44.60674" lon="0.88969">
        <ele>183</ele>
        <time>2018-03-03T18:10:13.511Z</time>
      </trkpt>
      <trkpt lat="44.6067" lon="0.8897">
        <ele>183</ele>
        <time>2018-03-03T18:10:14.511Z</time>
      </trkpt>
      <trkpt lat="44.60666" lon="0.88972">
        <ele>183</ele>
        <time>2018-03-03T18:10:15.511Z</time>
      </trkpt>
      <trkpt lat="44.60661" lon="0.88973">
        <ele>183</ele>
        <time>2018-03-03T18:10:16.511Z</time>
      </trkpt>
      <trkpt lat="44.60656" lon="0.88975">
        <ele>183</ele>
        <time>2018-03-03T18:10:17.511Z</time>
      </trkpt>
      <trkpt lat="44.60652" lon="0.88977">
        <ele>183</ele>
        <time>2018-03-03T18:10:18.511Z</time>
      </trkpt>
      <trkpt lat="44.60647" lon="0.88979">
        <ele>183</ele>
        <time>2018-03-03T18:10:19.511Z</time>
      </trkpt>
      <trkpt lat="44.60641" lon="0.8898">
        <ele>182</ele>
        <time>2018-03-03T18:10:20.511Z</time>
      </trkpt>
      <trkpt lat="44.60636" lon="0.88982">
        <ele>182</ele>
        <time>2018-03-03T18:10:21.511Z</time>
      </trkpt>
      <trkpt lat="44.6063" lon="0.88984">
        <ele>182</ele>
        <time>2018-03-03T18:10:22.511Z</time>
      </trkpt>
      <trkpt lat="44.60624" lon="0.88986">
        <ele>182</ele>
        <time>2018-03-03T18:10:23.511Z</time>
      </trkpt>
      <trkpt lat="44.60618" lon="0.88988">
        <ele>182</ele>
        <time>2018-03-03T18:10:24.511Z</time>
      </trkpt>
      <trkpt lat="44.60611" lon="0.8899">
        <ele>181</ele>
        <time>2018-03-03T18:10:25.511Z</time>
      </trkpt>
      <trkpt lat="44.60604" lon="0.88992">
        <ele>181</ele>
        <time>2018-03-03T18:10:26.511Z</time>
      </trkpt>
      <trkpt lat="44.60598" lon="0.88994">
        <ele>181</ele>
        <time>2018-03-03T18:10:27.511Z</time>
      </trkpt>
      <trkpt lat="44.60591" lon="0.88997">
        <ele>181</ele>
        <time>2018-03-03T18:10:28.511Z</time>
      </trkpt>
      <trkpt lat="44.60584" lon="0.88999">
        <ele>181</ele>
        <time>2018-03-03T18:10:29.511Z</time>
      </trkpt>
      <trkpt lat="44.60578" lon="0.89001">
        <ele>181</ele>
        <time>2018-03-03T18:10:30.511Z</time>
      </trkpt>
      <trkpt lat="44.60572" lon="0.89004">
        <ele>180</ele>
        <time>2018-03-03T18:10:31.511Z</time>
      </trkpt>
      <trkpt lat="44.60566" lon="0.89006">
        <ele>180</ele>
        <time>2018-03-03T18:10:32.511Z</time>
      </trkpt>
      <trkpt lat="44.6056" lon="0.89009">
        <ele>180</ele>
        <time>2018-03-03T18:10:33.511Z</time>
      </trkpt>
      <trkpt lat="44.60555" lon="0.89012">
        <ele>180</ele>
        <time>2018-03-03T18:10:34.511Z</time>
      </trkpt>
      <trkpt lat="44.60549" lon="0.89015">
        <ele>180</ele>
        <time>2018-03-03T18:10:35.511Z</time>
      </trkpt>
      <trkpt lat="44.60544" lon="0.89019">
        <ele>180</ele>
        <time>2018-03-03T18:10:36.511Z</time>
      </trkpt>
      <trkpt lat="44.60539" lon="0.89023">
        <ele>180</ele>
        <time>2018-03-03T18:10:37.511Z</time>
      </trkpt>
      <trkpt lat="44.60534" lon="0.89027">
        <ele>180</ele>
        <time>2018-03-03T18:10:38.511Z</time>
      </trkpt>
      <trkpt lat="44.60528" lon="0.89031">
        <ele>180</ele>
        <time>2018-03-03T18:10:39.511Z</time>
      </trkpt>
      <trkpt lat="44.60523" lon="0.89035">
        <ele>180</ele>
        <time>2018-03-03T18:10:40.511Z</time>
      </trkpt>
      <trkpt lat="44.60519" lon="0.89039">
        <ele>180</ele>
        <time>2018-03-03T18:10:41.511Z</time>
      </trkpt>
      <trkpt lat="44.60514" lon="0.89043">
        <ele>180</ele>
        <time>2018-03-03T18:10:42.511Z</time>
      </trkpt>
      <trkpt lat="44.60509" lon="0.89046">
        <ele>180</ele>
        <time>2018-03-03T18:10:43.511Z</time>
      </trkpt>
      <trkpt lat="44.60505" lon="0.89049">
        <ele>180</ele>
        <time>2018-03-03T18:10:44.511Z</time>
      </trkpt>
      <trkpt lat="44.60501" lon="0.89052">
        <ele>180</ele>
        <time>2018-03-03T18:10:45.511Z</time>
      </trkpt>
      <trkpt lat="44.60497" lon="0.89055">
        <ele>180</ele>
        <time>2018-03-03T18:10:46.511Z</time>
      </trkpt>
      <trkpt lat="44.60493" lon="0.89057">
        <ele>180</ele>
        <time>2018-03-03T18:10:47.511Z</time>
      </trkpt>
      <trkpt lat="44.60489" lon="0.89059">
        <ele>180</ele>
        <time>2018-03-03T18:10:48.511Z</time>
      </trkpt>
      <trkpt lat="44.60485" lon="0.89061">
        <ele>180</ele>
        <time>2018-03-03T18:10:49.511Z</time>
      </trkpt>
      <trkpt lat="44.60481" lon="0.89062">
        <ele>180</ele>
        <time>2018-03-03T18:10:50.511Z</time>
      </trkpt>
      <trkpt lat="44.60477" lon="0.89064">
        <ele>180</ele>
        <time>2018-03-03T18:10:51.511Z</time>
      </trkpt>
      <trkpt lat="44.60472" lon="0.89065">
        <ele>180</ele>
        <time>2018-03-03T18:10:52.511Z</time>
      </trkpt>
      <trkpt lat="44.60468" lon="0.89067">
        <ele>180</ele>
        <time>2018-03-03T18:10:53.511Z</time>
      </trkpt>
      <trkpt lat="44.60464" lon="0.89069">
        <ele>179</ele>
        <time>2018-03-03T18:10:54.511Z</time>
      </trkpt>
      <trkpt lat="44.60459" lon="0.89072">
        <ele>179</ele>
        <time>2018-03-03T18:10:55.511Z</time>
      </trkpt>
      <trkpt lat="44.60454" lon="0.89075">
        <ele>179</ele>
        <time>2018-03-03T18:10:56.511Z</time>
      </trkpt>
      <trkpt lat="44.60449" lon="0.89079">
        <ele>179</ele>
        <time>2018-03-03T18:10:57.511Z</time>
      </trkpt>
      <trkpt lat="44.60443" lon="0.89083">
        <ele>179</ele>
        <time>2018-03-03T18:10:58.511Z</time>
      </trkpt>
      <trkpt lat="44.60438" lon="0.89087">
        <ele>178</ele>
        <time>2018-03-03T18:10:59.511Z</time>
      </trkpt>
      <trkpt lat="44.60432" lon="0.89091">
        <ele>178</ele>
        <time>2018-03-03T18:11:00.511Z</time>
      </trkpt>
      <trkpt lat="44.60427" lon="0.89095">
        <ele>178</ele>
        <time>2018-03-03T18:11:01.511Z</time>
      </trkpt>
      <trkpt lat="44.60421" lon="0.89099">
        <ele>177</ele>
        <time>2018-03-03T18:11:02.511Z</time>
      </trkpt>
      <trkpt lat="44.60416" lon="0.89102">
        <ele>177</ele>
        <time>2018-03-03T18:11:03.511Z</time>
      </trkpt>
      <trkpt lat="44.6041" lon="0.89106">
        <ele>177</ele>
        <time>2018-03-03T18:11:04.511Z</time>
      </trkpt>
      <trkpt lat="44.60405" lon="0.89109">
        <ele>176</ele>
        <time>2018-03-03T18:11:05.511Z</time>
      </trkpt>
      <trkpt lat="44.60399" lon="0.89113">
        <ele>176</ele>
        <time>2018-03-03T18:11:06.511Z</time>
      </trkpt>
      <trkpt lat="44.60394" lon="0.89116">
        <ele>176</ele>
        <time>2018-03-03T18:11:07.511Z</time>
      </trkpt>
      <trkpt lat="44.60389" lon="0.89119">
        <ele>176</ele>
        <time>2018-03-03T18:11:08.511Z</time>
      </trkpt>
      <trkpt lat="44.60384" lon="0.89122">
        <ele>176</ele>
        <time>2018-03-03T18:11:09.511Z</time>
      </trkpt>
      <trkpt lat="44.60379" lon="0.89125">
        <ele>176</ele>
        <time>2018-03-03T18:11:10.511Z</time>
      </trkpt>
      <trkpt lat="44.60375" lon="0.89128">
        <ele>176</ele>
        <time>2018-03-03T18:11:11.511Z</time>
      </trkpt>
      <trkpt lat="44.6037" lon="0.89131">
        <ele>175</ele>
        <time>2018-03-03T18:11:12.511Z</time>
      </trkpt>
      <trkpt lat="44.60365" lon="0.89135">
        <ele>175</ele>
        <time>2018-03-03T18:11:13.511Z</time>
      </trkpt>
      <trkpt lat="44.60359" lon="0.89138">
        <ele>175</ele>
        <time>2018-03-03T18:11:14.511Z</time>
      </trkpt>
      <trkpt lat="44.60353" lon="0.89142">
        <ele>174</ele>
        <time>2018-03-03T18:11:15.511Z</time>
      </trkpt>
      <trkpt lat="44.60347" lon="0.89147">
        <ele>174</ele>
        <time>2018-03-03T18:11:16.511Z</time>
      </trkpt>
      <trkpt lat="44.6034" lon="0.89152">
        <ele>173</ele>
        <time>2018-03-03T18:11:17.511Z</time>
      </trkpt>
      <trkpt lat="44.60334" lon="0.89158">
        <ele>173</ele>
        <time>2018-03-03T18:11:18.511Z</time>
      </trkpt>
      <trkpt lat="44.60328" lon="0.89164">
        <ele>173</ele>
        <time>2018-03-03T18:11:19.511Z</time>
      </trkpt>
      <trkpt lat="44.60323" lon="0.8917">
        <ele>172</ele>
        <time>2018-03-03T18:11:20.511Z</time>
      </trkpt>
      <trkpt lat="44.60318" lon="0.89177">
        <ele>172</ele>
        <time>2018-03-03T18:11:21.511Z</time>
      </trkpt>
      <trkpt lat="44.60314" lon="0.89184">
        <ele>171</ele>
        <time>2018-03-03T18:11:22.511Z</time>
      </trkpt>
      <trkpt lat="44.6031" lon="0.89191">
        <ele>171</ele>
        <time>2018-03-03T18:11:23.511Z</time>
      </trkpt>
      <trkpt lat="44.60306" lon="0.89198">
        <ele>171</ele>
        <time>2018-03-03T18:11:24.511Z</time>
      </trkpt>
      <trkpt lat="44.60302" lon="0.89204">
        <ele>170</ele>
        <time>2018-03-03T18:11:25.511Z</time>
      </trkpt>
      <trkpt lat="44.60298" lon="0.8921">
        <ele>170</ele>
        <time>2018-03-03T18:11:26.511Z</time>
      </trkpt>
      <trkpt lat="44.60294" lon="0.89215">
        <ele>170</ele>
        <time>2018-03-03T18:11:27.511Z</time>
      </trkpt>
      <trkpt lat="44.60289" lon="0.8922">
        <ele>170</ele>
        <time>2018-03-03T18:11:28.511Z</time>
      </trkpt>
      <trkpt lat="44.60284" lon="0.89223">
        <ele>170</ele>
        <time>2018-03-03T18:11:29.511Z</time>
      </trkpt>
      <trkpt lat="44.60279" lon="0.89225">
        <ele>170</ele>
        <time>2018-03-03T18:11:30.511Z</time>
      </trkpt>
      <trkpt lat="44.60274" lon="0.89227">
        <ele>170</ele>
        <time>2018-03-03T18:11:31.511Z</time>
      </trkpt>
      <trkpt lat="44.60269" lon="0.89229">
        <ele>170</ele>
        <time>2018-03-03T18:11:32.511Z</time>
      </trkpt>
      <trkpt lat="44.60264" lon="0.89231">
        <ele>170</ele>
        <time>2018-03-03T18:11:33.511Z</time>
      </trkpt>
      <trkpt lat="44.60258" lon="0.89233">
        <ele>170</ele>
        <time>2018-03-03T18:11:34.511Z</time>
      </trkpt>
      <trkpt lat="44.60253" lon="0.89235">
        <ele>170</ele>
        <time>2018-03-03T18:11:35.511Z</time>
      </trkpt>
      <trkpt lat="44.60248" lon="0.89237">
        <ele>171</ele>
        <time>2018-03-03T18:11:36.511Z</time>
      </trkpt>
      <trkpt lat="44.60243" lon="0.89239">
        <ele>171</ele>
        <time>2018-03-03T18:11:37.511Z</time>
      </trkpt>
      <trkpt lat="44.60238" lon="0.89241">
        <ele>171</ele>
        <time>2018-03-03T18:11:38.511Z</time>
      </trkpt>
      <trkpt lat="44.60234" lon="0.89243">
        <ele>171</ele>
        <time>2018-03-03T18:11:39.511Z</time>
      </trkpt>
      <trkpt lat="44.60229" lon="0.89245">
        <ele>171</ele>
        <time>2018-03-03T18:11:40.511Z</time>
      </trkpt>
      <trkpt lat="44.60225" lon="0.89247">
        <ele>171</ele>
        <time>2018-03-03T18:11:41.511Z</time>
      </trkpt>
      <trkpt lat="44.60221" lon="0.89249">
        <ele>171</ele>
        <time>2018-03-03T18:11:42.511Z</time>
      </trkpt>
      <trkpt lat="44.60216" lon="0.89252">
        <ele>171</ele>
        <time>2018-03-03T18:11:43.511Z</time>
      </trkpt>
      <trkpt lat="44.60212" lon="0.89255">
        <ele>171</ele>
        <time>2018-03-03T18:11:44.511Z</time>
      </trkpt>
      <trkpt lat="44.60207" lon="0.89259">
        <ele>171</ele>
        <time>2018-03-03T18:11:45.511Z</time>
      </trkpt>
      <trkpt lat="44.60202" lon="0.89263">
        <ele>171</ele>
        <time>2018-03-03T18:11:46.511Z</time>
      </trkpt>
      <trkpt lat="44.60197" lon="0.89268">
        <ele>171</ele>
        <time>2018-03-03T18:11:47.511Z</time>
      </trkpt>
      <trkpt lat="44.60191" lon="0.89273">
        <ele>171</ele>
        <time>2018-03-03T18:11:48.511Z</time>
      </trkpt>
      <trkpt lat="44.60185" lon="0.89277">
        <ele>170</ele>
        <time>2018-03-03T18:11:49.511Z</time>
      </trkpt>
      <trkpt lat="44.6018" lon="0.89283">
        <ele>170</ele>
        <time>2018-03-03T18:11:50.511Z</time>
      </trkpt>
      <trkpt lat="44.60175" lon="0.89289">
        <ele>170</ele>
        <time>2018-03-03T18:11:51.511Z</time>
      </trkpt>
      <trkpt lat="44.6017" lon="0.89295">
        <ele>169</ele>
        <time>2018-03-03T18:11:52.511Z</time>
      </trkpt>
      <trkpt lat="44.60164" lon="0.89299">
        <ele>169</ele>
        <time>2018-03-03T18:11:53.511Z</time>
      </trkpt>
      <trkpt lat="44.60158" lon="0.89301">
        <ele>168</ele>
        <time>2018-03-03T18:11:54.511Z</time>
      </trkpt>
      <trkpt lat="44.60152" lon="0.89303">
        <ele>168</ele>
        <time>2018-03-03T18:11:55.511Z</time>
      </trkpt>
      <trkpt lat="44.60146" lon="0.89303">
        <ele>168</ele>
        <time>2018-03-03T18:11:56.511Z</time>
      </trkpt>
      <trkpt lat="44.6014" lon="0.89304">
        <ele>168</ele>
        <time>2018-03-03T18:11:57.511Z</time>
      </trkpt>
      <trkpt lat="44.60136" lon="0.89305">
        <ele>169</ele>
        <time>2018-03-03T18:11:58.511Z</time>
      </trkpt>
      <trkpt lat="44.60132" lon="0.89306">
        <ele>170</ele>
        <time>2018-03-03T18:11:59.511Z</time>
      </trkpt>
      <trkpt lat="44.60129" lon="0.89309">
        <ele>170</ele>
        <time>2018-03-03T18:12:00.511Z</time>
      </trkpt>
      <trkpt lat="44.60128" lon="0.89312">
        <ele>171</ele>
        <time>2018-03-03T18:12:01.511Z</time>
      </trkpt>
      <trkpt lat="44.60127" lon="0.89315">
        <ele>171</ele>
        <time>2018-03-03T18:12:02.511Z</time>
      </trkpt>
      <trkpt lat="44.60126" lon="0.89319">
        <ele>171</ele>
        <time>2018-03-03T18:12:03.511Z</time>
      </trkpt>
      <trkpt lat="44.60125" lon="0.89324">
        <ele>171</ele>
        <time>2018-03-03T18:12:04.511Z</time>
      </trkpt>
      <trkpt lat="44.60124" lon="0.89329">
        <ele>172</ele>
        <time>2018-03-03T18:12:05.511Z</time>
      </trkpt>
      <trkpt lat="44.60124" lon="0.89334">
        <ele>172</ele>
        <time>2018-03-03T18:12:06.511Z</time>
      </trkpt>
      <trkpt lat="44.60124" lon="0.89339">
        <ele>172</ele>
        <time>2018-03-03T18:12:07.511Z</time>
      </trkpt>
      <trkpt lat="44.60123" lon="0.89344">
        <ele>171</ele>
        <time>2018-03-03T18:12:08.511Z</time>
      </trkpt>
      <trkpt lat="44.60123" lon="0.89349">
        <ele>172</ele>
        <time>2018-03-03T18:12:09.511Z</time>
      </trkpt>
      <trkpt lat="44.60123" lon="0.89354">
        <ele>172</ele>
        <time>2018-03-03T18:12:10.511Z</time>
      </trkpt>
      <trkpt lat="44.60122" lon="0.8936">
        <ele>172</ele>
        <time>2018-03-03T18:12:11.511Z</time>
      </trkpt>
      <trkpt lat="44.60122" lon="0.89365">
        <ele>171</ele>
        <time>2018-03-03T18:12:12.511Z</time>
      </trkpt>
      <trkpt lat="44.60121" lon="0.8937">
        <ele>171</ele>
        <time>2018-03-03T18:12:13.511Z</time>
      </trkpt>
      <trkpt lat="44.60121" lon="0.89376">
        <ele>171</ele>
        <time>2018-03-03T18:12:14.511Z</time>
      </trkpt>
      <trkpt lat="44.6012" lon="0.89381">
        <ele>171</ele>
        <time>2018-03-03T18:12:15.511Z</time>
      </trkpt>
      <trkpt lat="44.60119" lon="0.89386">
        <ele>171</ele>
        <time>2018-03-03T18:12:16.511Z</time>
      </trkpt>
      <trkpt lat="44.60118" lon="0.89391">
        <ele>171</ele>
        <time>2018-03-03T18:12:17.511Z</time>
      </trkpt>
      <trkpt lat="44.60117" lon="0.89396">
        <ele>170</ele>
        <time>2018-03-03T18:12:18.511Z</time>
      </trkpt>
      <trkpt lat="44.60115" lon="0.89401">
        <ele>170</ele>
        <time>2018-03-03T18:12:19.511Z</time>
      </trkpt>
      <trkpt lat="44.60114" lon="0.89406">
        <ele>170</ele>
        <time>2018-03-03T18:12:20.511Z</time>
      </trkpt>
      <trkpt lat="44.60112" lon="0.89411">
        <ele>170</ele>
        <time>2018-03-03T18:12:21.511Z</time>
      </trkpt>
      <trkpt lat="44.6011" lon="0.89416">
        <ele>170</ele>
        <time>2018-03-03T18:12:22.511Z</time>
      </trkpt>
      <trkpt lat="44.60108" lon="0.89421">
        <ele>170</ele>
        <time>2018-03-03T18:12:23.511Z</time>
      </trkpt>
      <trkpt lat="44.60106" lon="0.89425">
        <ele>170</ele>
        <time>2018-03-03T18:12:24.511Z</time>
      </trkpt>
      <trkpt lat="44.60103" lon="0.8943">
        <ele>171</ele>
        <time>2018-03-03T18:12:25.511Z</time>
      </trkpt>
      <trkpt lat="44.60101" lon="0.89435">
        <ele>171</ele>
        <time>2018-03-03T18:12:26.511Z</time>
      </trkpt>
      <trkpt lat="44.60098" lon="0.89439">
        <ele>171</ele>
        <time>2018-03-03T18:12:27.511Z</time>
      </trkpt>
      <trkpt lat="44.60096" lon="0.89444">
        <ele>171</ele>
        <time>2018-03-03T18:12:28.511Z</time>
      </trkpt>
      <trkpt lat="44.60093" lon="0.89449">
        <ele>171</ele>
        <time>2018-03-03T18:12:29.511Z</time>
      </trkpt>
      <trkpt lat="44.6009" lon="0.89453">
        <ele>171</ele>
        <time>2018-03-03T18:12:30.511Z</time>
      </trkpt>
      <trkpt lat="44.60087" lon="0.89457">
        <ele>171</ele>
        <time>2018-03-03T18:12:31.511Z</time>
      </trkpt>
      <trkpt lat="44.60084" lon="0.8946">
        <ele>172</ele>
        <time>2018-03-03T18:12:32.511Z</time>
      </trkpt>
      <trkpt lat="44.6008" lon="0.89461">
        <ele>172</ele>
        <time>2018-03-03T18:12:33.511Z</time>
      </trkpt>
      <trkpt lat="44.60076" lon="0.8946">
        <ele>172</ele>
        <time>2018-03-03T18:12:34.511Z</time>
      </trkpt>
      <trkpt lat="44.60073" lon="0.89459">
        <ele>172</ele>
        <time>2018-03-03T18:12:35.511Z</time>
      </trkpt>
      <trkpt lat="44.6007" lon="0.89459">
        <ele>172</ele>
        <time>2018-03-03T18:12:36.511Z</time>
      </trkpt>
      <trkpt lat="44.60068" lon="0.8946">
        <ele>171</ele>
        <time>2018-03-03T18:12:37.511Z</time>
      </trkpt>
      <trkpt lat="44.60066" lon="0.89463">
        <ele>171</ele>
        <time>2018-03-03T18:12:38.511Z</time>
      </trkpt>
      <trkpt lat="44.60064" lon="0.89466">
        <ele>171</ele>
        <time>2018-03-03T18:12:39.511Z</time>
      </trkpt>
      <trkpt lat="44.60062" lon="0.89471">
        <ele>171</ele>
        <time>2018-03-03T18:12:40.511Z</time>
      </trkpt>
      <trkpt lat="44.60061" lon="0.89475">
        <ele>171</ele>
        <time>2018-03-03T18:12:41.511Z</time>
      </trkpt>
      <trkpt lat="44.60061" lon="0.89478">
        <ele>171</ele>
        <time>2018-03-03T18:12:42.511Z</time>
      </trkpt>
      <trkpt lat="44.6006" lon="0.89482">
        <ele>171</ele>
        <time>2018-03-03T18:12:43.511Z</time>
      </trkpt>
      <trkpt lat="44.60059" lon="0.89485">
        <ele>171</ele>
        <time>2018-03-03T18:12:44.511Z</time>
      </trkpt>
      <trkpt lat="44.60058" lon="0.89488">
        <ele>171</ele>
        <time>2018-03-03T18:12:45.511Z</time>
      </trkpt>
      <trkpt lat="44.60056" lon="0.8949">
        <ele>170</ele>
        <time>2018-03-03T18:12:46.511Z</time>
      </trkpt>
      <trkpt lat="44.60054" lon="0.89492">
        <ele>170</ele>
        <time>2018-03-03T18:12:47.511Z</time>
      </trkpt>
      <trkpt lat="44.60053" lon="0.89493">
        <ele>170</ele>
        <time>2018-03-03T18:12:48.511Z</time>
      </trkpt>
      <trkpt lat="44.6005" lon="0.89494">
        <ele>170</ele>
        <time>2018-03-03T18:12:49.511Z</time>
      </trkpt>
      <trkpt lat="44.60048" lon="0.89494">
        <ele>170</ele>
        <time>2018-03-03T18:12:50.511Z</time>
      </trkpt>
      <trkpt lat="44.60045" lon="0.89495">
        <ele>170</ele>
        <time>2018-03-03T18:12:51.511Z</time>
      </trkpt>
      <trkpt lat="44.60042" lon="0.89495">
        <ele>170</ele>
        <time>2018-03-03T18:12:52.511Z</time>
      </trkpt>
      <trkpt lat="44.60039" lon="0.89496">
        <ele>169</ele>
        <time>2018-03-03T18:12:53.511Z</time>
      </trkpt>
      <trkpt lat="44.60036" lon="0.89497">
        <ele>169</ele>
        <time>2018-03-03T18:12:54.511Z</time>
      </trkpt>
      <trkpt lat="44.60034" lon="0.89498">
        <ele>169</ele>
        <time>2018-03-03T18:12:55.511Z</time>
      </trkpt>
      <trkpt lat="44.60032" lon="0.895">
        <ele>169</ele>
        <time>2018-03-03T18:12:56.511Z</time>
      </trkpt>
      <trkpt lat="44.60031" lon="0.895">
        <ele>169</ele>
        <time>2018-03-03T18:12:57.511Z</time>
      </trkpt>
      <trkpt lat="44.60031" lon="0.89501">
        <ele>169</ele>
        <time>2018-03-03T18:12:58.511Z</time>
      </trkpt>
      <trkpt lat="44.60031" lon="0.89501">
        <ele>169</ele>
        <time>2018-03-03T18:12:59.511Z</time>
      </trkpt>
      <trkpt lat="44.60031" lon="0.89501">
        <ele>169</ele>
        <time>2018-03-03T18:13:00.511Z</time>
      </trkpt>
      <trkpt lat="44.60031" lon="0.89502">
        <ele>169</ele>
        <time>2018-03-03T18:13:01.511Z</time>
      </trkpt>
      <trkpt lat="44.60031" lon="0.89502">
        <ele>169</ele>
        <time>2018-03-03T18:13:02.511Z</time>
      </trkpt>
      <trkpt lat="44.60031" lon="0.89502">
        <ele>169</ele>
        <time>2018-03-03T18:13:03.511Z</time>
      </trkpt>
      <trkpt lat="44.60031" lon="0.89502">
        <ele>169</ele>
        <time>2018-03-03T18:13:04.511Z</time>
      </trkpt>
      <trkpt lat="44.60031" lon="0.89502">
        <ele>169</ele>
        <time>2018-03-03T18:13:05.511Z</time>
      </trkpt>
      <trkpt lat="44.60031" lon="0.89502">
        <ele>169</ele>
        <time>2018-03-03T18:13:06.511Z</time>
      </trkpt>
      <trkpt lat="44.60031" lon="0.89502">
        <ele>169</ele>
        <time>2018-03-03T18:13:07.511Z</time>
      </trkpt>
      <trkpt lat="44.60031" lon="0.89502">
        <ele>169</ele>
        <time>2018-03-03T18:13:08.511Z</time>
      </trkpt>
      <trkpt lat="44.60031" lon="0.89502">
        <ele>169</ele>
        <time>2018-03-03T18:13:09.511Z</time>
      </trkpt>
      <trkpt lat="44.60031" lon="0.89502">
        <ele>169</ele>
        <time>2018-03-03T18:13:10.511Z</time>
      </trkpt>
      <trkpt lat="44.60031" lon="0.89502">
        <ele>169</ele>
        <time>2018-03-03T18:13:11.511Z</time>
      </trkpt>
      <trkpt lat="44.60031" lon="0.89502">
        <ele>169</ele>
        <time>2018-03-03T18:13:12.511Z</time>
      </trkpt>
      <trkpt lat="44.60031" lon="0.89502">
        <ele>168</ele>
        <time>2018-03-03T18:13:13.511Z</time>
      </trkpt>
      <trkpt lat="44.60031" lon="0.89502">
        <ele>168</ele>
        <time>2018-03-03T18:13:14.511Z</time>
      </trkpt>
      <trkpt lat="44.60031" lon="0.89502">
        <ele>168</ele>
        <time>2018-03-03T18:13:15.511Z</time>
      </trkpt>
      <trkpt lat="44.60031" lon="0.89502">
        <ele>168</ele>
        <time>2018-03-03T18:13:16.511Z</time>
      </trkpt>
      <trkpt lat="44.60031" lon="0.89502">
        <ele>168</ele>
        <time>2018-03-03T18:13:17.511Z</time>
      </trkpt>
      <trkpt lat="44.60031" lon="0.89502">
        <ele>168</ele>
        <time>2018-03-03T18:13:18.511Z</time>
      </trkpt>
      <trkpt lat="44.60031" lon="0.89502">
        <ele>168</ele>
        <time>2018-03-03T18:13:19.511Z</time>
      </trkpt>
      <trkpt lat="44.60031" lon="0.89502">
        <ele>168</ele>
        <time>2018-03-03T18:13:20.511Z</time>
      </trkpt>
      <trkpt lat="44.60031" lon="0.89502">
        <ele>168</ele>
        <time>2018-03-03T18:13:21.511Z</time>
      </trkpt>
      <trkpt lat="44.60031" lon="0.89502">
        <ele>168</ele>
        <time>2018-03-03T18:13:22.511Z</time>
      </trkpt>
      <trkpt lat="44.60031" lon="0.89502">
        <ele>168</ele>
        <time>2018-03-03T18:13:23.511Z</time>
      </trkpt>
      <trkpt lat="44.60031" lon="0.89502">
        <ele>168</ele>
        <time>2018-03-03T18:13:24.511Z</time>
      </trkpt>
      <trkpt lat="44.60031" lon="0.89502">
        <ele>168</ele>
        <time>2018-03-03T18:13:25.511Z</time>
      </trkpt>
      <trkpt lat="44.60031" lon="0.89502">
        <ele>168</ele>
        <time>2018-03-03T18:13:26.511Z</time>
      </trkpt>
      <trkpt lat="44.60031" lon="0.89502">
        <ele>168</ele>
        <time>2018-03-03T18:13:27.511Z</time>
      </trkpt>
      <trkpt lat="44.60031" lon="0.89502">
        <ele>169</ele>
        <time>2018-03-03T18:13:28.511Z</time>
      </trkpt>
      <trkpt lat="44.60031" lon="0.89502">
        <ele>169</ele>
        <time>2018-03-03T18:13:29.511Z</time>
      </trkpt>
      <trkpt lat="44.60031" lon="0.89502">
        <ele>169</ele>
        <time>2018-03-03T18:13:30.511Z</time>
      </trkpt>
      <trkpt lat="44.60031" lon="0.89502">
        <ele>169</ele>
        <time>2018-03-03T18:13:31.511Z</time>
      </trkpt>
      <trkpt lat="44.60031" lon="0.89502">
        <ele>169</ele>
        <time>2018-03-03T18:13:32.511Z</time>
      </trkpt>
      <trkpt lat="44.60031" lon="0.89502">
        <ele>169</ele>
        <time>2018-03-03T18:13:33.511Z</time>
      </trkpt>
      <trkpt lat="44.60031" lon="0.89502">
        <ele>169</ele>
        <time>2018-03-03T18:13:34.511Z</time>
      </trkpt>
      <trkpt lat="44.60031" lon="0.89502">
        <ele>169</ele>
        <time>2018-03-03T18:13:35.511Z</time>
      </trkpt>
      <trkpt lat="44.60031" lon="0.89502">
        <ele>169</ele>
        <time>2018-03-03T18:13:36.511Z</time>
      </trkpt>
      <trkpt lat="44.60031" lon="0.89502">
        <ele>169</ele>
        <time>2018-03-03T18:13:37.511Z</time>
      </trkpt>
      <trkpt lat="44.60031" lon="0.89502">
        <ele>169</ele>
        <time>2018-03-03T18:13:38.511Z</time>
      </trkpt>
      <trkpt lat="44.60031" lon="0.89502">
        <ele>168</ele>
        <time>2018-03-03T18:13:39.511Z</time>
      </trkpt>
      <trkpt lat="44.60031" lon="0.89502">
        <ele>168</ele>
        <time>2018-03-03T18:13:40.511Z</time>
      </trkpt>
      <trkpt lat="44.60031" lon="0.89502">
        <ele>168</ele>
        <time>2018-03-03T18:13:41.511Z</time>
      </trkpt>
      <trkpt lat="44.60031" lon="0.89502">
        <ele>168</ele>
        <time>2018-03-03T18:13:42.511Z</time>
      </trkpt>
      <trkpt lat="44.60031" lon="0.89502">
        <ele>168</ele>
        <time>2018-03-03T18:13:43.511Z</time>
      </trkpt>
      <trkpt lat="44.60031" lon="0.89502">
        <ele>168</ele>
        <time>2018-03-03T18:13:44.511Z</time>
      </trkpt>
      <trkpt lat="44.60031" lon="0.89502">
        <ele>168</ele>
        <time>2018-03-03T18:13:45.511Z</time>
      </trkpt>
      <trkpt lat="44.60031" lon="0.89502">
        <ele>168</ele>
        <time>2018-03-03T18:13:46.511Z</time>
      </trkpt>
      <trkpt lat="44.60031" lon="0.89502">
        <ele>168</ele>
        <time>2018-03-03T18:13:47.511Z</time>
      </trkpt>
      <trkpt lat="44.60031" lon="0.89502">
        <ele>168</ele>
        <time>2018-03-03T18:13:48.511Z</time>
      </trkpt>
      <trkpt lat="44.60031" lon="0.89502">
        <ele>168</ele>
        <time>2018-03-03T18:13:49.511Z</time>
      </trkpt>
      <trkpt lat="44.60031" lon="0.89502">
        <ele>168</ele>
        <time>2018-03-03T18:13:50.511Z</time>
      </trkpt>
      <trkpt lat="44.60031" lon="0.89502">
        <ele>168</ele>
        <time>2018-03-03T18:13:51.511Z</time>
      </trkpt>
      <trkpt lat="44.60031" lon="0.89502">
        <ele>168</ele>
        <time>2018-03-03T18:13:52.511Z</time>
      </trkpt>
      <trkpt lat="44.60031" lon="0.89502">
        <ele>168</ele>
        <time>2018-03-03T18:13:53.511Z</time>
      </trkpt>
      <trkpt lat="44.60031" lon="0.89502">
        <ele>168</ele>
        <time>2018-03-03T18:13:54.511Z</time>
      </trkpt>
      <trkpt lat="44.60031" lon="0.89502">
        <ele>168</ele>
        <time>2018-03-03T18:13:55.511Z</time>
      </trkpt>
      <trkpt lat="44.60031" lon="0.89502">
        <ele>168</ele>
        <time>2018-03-03T18:13:56.511Z</time>
      </trkpt>
      <trkpt lat="44.60031" lon="0.89502">
        <ele>168</ele>
        <time>2018-03-03T18:13:57.511Z</time>
      </trkpt>
      <trkpt lat="44.60031" lon="0.89502">
        <ele>168</ele>
        <time>2018-03-03T18:13:58.511Z</time>
      </trkpt>
      <trkpt lat="44.60031" lon="0.89502">
        <ele>168</ele>
        <time>2018-03-03T18:13:59.511Z</time>
      </trkpt>
      <trkpt lat="44.60031" lon="0.89502">
        <ele>168</ele>
        <time>2018-03-03T18:14:00.511Z</time>
      </trkpt>
      <trkpt lat="44.60031" lon="0.89502">
        <ele>168</ele>
        <time>2018-03-03T18:14:01.511Z</time>
      </trkpt>
      <trkpt lat="44.60031" lon="0.89502">
        <ele>168</ele>
        <time>2018-03-03T18:14:02.511Z</time>
      </trkpt>
      <trkpt lat="44.60031" lon="0.89502">
        <ele>168</ele>
        <time>2018-03-03T18:14:03.511Z</time>
      </trkpt>
      <trkpt lat="44.60031" lon="0.89502">
        <ele>168</ele>
        <time>2018-03-03T18:14:04.511Z</time>
      </trkpt>
      <trkpt lat="44.60031" lon="0.89502">
        <ele>168</ele>
        <time>2018-03-03T18:14:05.511Z</time>
      </trkpt>
      <trkpt lat="44.60031" lon="0.89502">
        <ele>168</ele>
        <time>2018-03-03T18:14:06.511Z</time>
      </trkpt>
      <trkpt lat="44.60031" lon="0.89502">
        <ele>168</ele>
        <time>2018-03-03T18:14:07.511Z</time>
      </trkpt>
      <trkpt lat="44.60031" lon="0.89502">
        <ele>168</ele>
        <time>2018-03-03T18:14:08.511Z</time>
      </trkpt>
      <trkpt lat="44.60031" lon="0.89502">
        <ele>168</ele>
        <time>2018-03-03T18:14:09.511Z</time>
      </trkpt>
      <trkpt lat="44.60031" lon="0.89502">
        <ele>168</ele>
        <time>2018-03-03T18:14:10.511Z</time>
      </trkpt>
      <trkpt lat="44.60031" lon="0.89502">
        <ele>168</ele>
        <time>2018-03-03T18:14:11.511Z</time>
      </trkpt>
      <trkpt lat="44.60031" lon="0.89502">
        <ele>168</ele>
        <time>2018-03-03T18:14:12.511Z</time>
      </trkpt>
      <trkpt lat="44.60031" lon="0.89502">
        <ele>168</ele>
        <time>2018-03-03T18:14:13.511Z</time>
      </trkpt>
      <trkpt lat="44.60031" lon="0.89502">
        <ele>168</ele>
        <time>2018-03-03T18:14:14.511Z</time>
      </trkpt>
      <trkpt lat="44.60031" lon="0.89502">
        <ele>169</ele>
        <time>2018-03-03T18:14:15.511Z</time>
      </trkpt>
      <trkpt lat="44.60031" lon="0.89502">
        <ele>169</ele>
        <time>2018-03-03T18:14:16.511Z</time>
      </trkpt>
      <trkpt lat="44.60031" lon="0.89502">
        <ele>168</ele>
        <time>2018-03-03T18:14:17.511Z</time>
      </trkpt>
      <trkpt lat="44.60031" lon="0.89502">
        <ele>168</ele>
        <time>2018-03-03T18:14:18.511Z</time>
      </trkpt>
      <trkpt lat="44.60031" lon="0.89502">
        <ele>168</ele>
        <time>2018-03-03T18:14:19.511Z</time>
      </trkpt>
      <trkpt lat="44.60031" lon="0.89502">
        <ele>169</ele>
        <time>2018-03-03T18:14:20.511Z</time>
      </trkpt>
      <trkpt lat="44.60031" lon="0.89502">
        <ele>168</ele>
        <time>2018-03-03T18:14:21.511Z</time>
      </trkpt>
      <trkpt lat="44.60031" lon="0.89502">
        <ele>169</ele>
        <time>2018-03-03T18:14:22.511Z</time>
      </trkpt>
      <trkpt lat="44.60031" lon="0.89502">
        <ele>169</ele>
        <time>2018-03-03T18:14:23.511Z</time>
      </trkpt>
      <trkpt lat="44.60031" lon="0.89502">
        <ele>169</ele>
        <time>2018-03-03T18:14:24.511Z</time>
      </trkpt>
      <trkpt lat="44.60031" lon="0.89502">
        <ele>169</ele>
        <time>2018-03-03T18:14:25.511Z</time>
      </trkpt>
      <trkpt lat="44.60031" lon="0.89502">
        <ele>169</ele>
        <time>2018-03-03T18:14:26.511Z</time>
      </trkpt>
      <trkpt lat="44.60031" lon="0.89502">
        <ele>169</ele>
        <time>2018-03-03T18:14:27.511Z</time>
      </trkpt>
      <trkpt lat="44.60031" lon="0.89502">
        <ele>169</ele>
        <time>2018-03-03T18:14:28.511Z</time>
      </trkpt>
      <trkpt lat="44.60031" lon="0.89502">
        <ele>169</ele>
        <time>2018-03-03T18:14:29.511Z</time>
      </trkpt>
      <trkpt lat="44.60031" lon="0.89502">
        <ele>169</ele>
        <time>2018-03-03T18:14:30.511Z</time>
      </trkpt>
      <trkpt lat="44.60031" lon="0.89502">
        <ele>168</ele>
        <time>2018-03-03T18:14:31.511Z</time>
      </trkpt>
      <trkpt lat="44.60031" lon="0.89502">
        <ele>169</ele>
        <time>2018-03-03T18:14:32.511Z</time>
      </trkpt>
      <trkpt lat="44.60031" lon="0.89502">
        <ele>168</ele>
        <time>2018-03-03T18:14:33.511Z</time>
      </trkpt>
      <trkpt lat="44.60031" lon="0.89502">
        <ele>169</ele>
        <time>2018-03-03T18:14:34.511Z</time>
      </trkpt>
      <trkpt lat="44.60031" lon="0.89502">
        <ele>168</ele>
        <time>2018-03-03T18:14:35.511Z</time>
      </trkpt>
      <trkpt lat="44.60031" lon="0.89502">
        <ele>168</ele>
        <time>2018-03-03T18:14:36.511Z</time>
      </trkpt>
      <trkpt lat="44.60031" lon="0.89502">
        <ele>168</ele>
        <time>2018-03-03T18:14:37.511Z</time>
      </trkpt>
      <trkpt lat="44.60031" lon="0.89502">
        <ele>168</ele>
        <time>2018-03-03T18:14:38.511Z</time>
      </trkpt>
      <trkpt lat="44.60031" lon="0.89502">
        <ele>168</ele>
        <time>2018-03-03T18:14:39.511Z</time>
      </trkpt>
      <trkpt lat="44.60031" lon="0.89502">
        <ele>168</ele>
        <time>2018-03-03T18:14:40.511Z</time>
      </trkpt>
      <trkpt lat="44.60031" lon="0.89502">
        <ele>168</ele>
        <time>2018-03-03T18:14:41.511Z</time>
      </trkpt>
      <trkpt lat="44.60031" lon="0.89502">
        <ele>168</ele>
        <time>2018-03-03T18:14:42.511Z</time>
      </trkpt>
      <trkpt lat="44.60031" lon="0.89502">
        <ele>168</ele>
        <time>2018-03-03T18:14:43.511Z</time>
      </trkpt>
      <trkpt lat="44.60031" lon="0.89502">
        <ele>168</ele>
        <time>2018-03-03T18:14:44.511Z</time>
      </trkpt>
      <trkpt lat="44.60031" lon="0.89502">
        <ele>168</ele>
        <time>2018-03-03T18:14:45.511Z</time>
      </trkpt>
      <trkpt lat="44.60031" lon="0.89502">
        <ele>168</ele>
        <time>2018-03-03T18:14:46.511Z</time>
      </trkpt>
      <trkpt lat="44.60031" lon="0.89502">
        <ele>168</ele>
        <time>2018-03-03T18:14:47.511Z</time>
      </trkpt>
      <trkpt lat="44.60031" lon="0.89502">
        <ele>168</ele>
        <time>2018-03-03T18:14:48.511Z</time>
      </trkpt>
      <trkpt lat="44.60031" lon="0.89502">
        <ele>168</ele>
        <time>2018-03-03T18:14:49.511Z</time>
      </trkpt>
      <trkpt lat="44.60031" lon="0.89502">
        <ele>168</ele>
        <time>2018-03-03T18:14:50.511Z</time>
      </trkpt>
      <trkpt lat="44.60031" lon="0.89502">
        <ele>168</ele>
        <time>2018-03-03T18:14:51.511Z</time>
      </trkpt>
      <trkpt lat="44.60031" lon="0.89502">
        <ele>169</ele>
        <time>2018-03-03T18:14:52.511Z</time>
      </trkpt>
      <trkpt lat="44.60031" lon="0.89502">
        <ele>169</ele>
        <time>2018-03-03T18:14:53.511Z</time>
      </trkpt>
      <trkpt lat="44.60031" lon="0.89502">
        <ele>168</ele>
        <time>2018-03-03T18:14:54.511Z</time>
      </trkpt>
    </trkseg>
  </trk>
</gpx>